<?xml version="1.0" encoding="UTF-8" standalone="no" ?>
<gpx xmlns="http://www.topografix.com/GPX/1/1" xmlns:xsi="http://www.w3.org/2001/XMLSchema-instance" xsi:schemaLocation="http://www.topografix.com/GPX/1/1 http://www.topografix.com/GPX/1/1/gpx.xsd" version="1.1" creator="VisuGPX - https://www.visugpx.com">
  <metadata>
    <name>CALMONT</name>
  </metadata>
  <trk>
    <name><![CDATA[CALMONT_1]]></name>
    <trkseg>
      <trkpt lat="44.24922" lon="2.51276">
        <ele>593</ele>
        <time>2022-06-12T07:07:10.000Z</time>
      </trkpt>
      <trkpt lat="44.24921" lon="2.51276">
        <ele>592</ele>
        <time>2022-06-12T07:07:33.314Z</time>
      </trkpt>
      <trkpt lat="44.24921" lon="2.51275">
        <ele>592</ele>
        <time>2022-06-12T07:07:34.314Z</time>
      </trkpt>
      <trkpt lat="44.2492" lon="2.51274">
        <ele>592</ele>
        <time>2022-06-12T07:07:35.314Z</time>
      </trkpt>
      <trkpt lat="44.2492" lon="2.51273">
        <ele>593</ele>
        <time>2022-06-12T07:07:36.314Z</time>
      </trkpt>
      <trkpt lat="44.2492" lon="2.51272">
        <ele>593</ele>
        <time>2022-06-12T07:07:37.314Z</time>
      </trkpt>
      <trkpt lat="44.2492" lon="2.51271">
        <ele>593</ele>
        <time>2022-06-12T07:07:38.314Z</time>
      </trkpt>
      <trkpt lat="44.24919" lon="2.51271">
        <ele>593</ele>
        <time>2022-06-12T07:07:39.314Z</time>
      </trkpt>
      <trkpt lat="44.24919" lon="2.5127">
        <ele>593</ele>
        <time>2022-06-12T07:07:40.314Z</time>
      </trkpt>
      <trkpt lat="44.24919" lon="2.5127">
        <ele>593</ele>
        <time>2022-06-12T07:07:41.314Z</time>
      </trkpt>
      <trkpt lat="44.24918" lon="2.51269">
        <ele>593</ele>
        <time>2022-06-12T07:07:42.314Z</time>
      </trkpt>
      <trkpt lat="44.24918" lon="2.5127">
        <ele>593</ele>
        <time>2022-06-12T07:07:43.314Z</time>
      </trkpt>
      <trkpt lat="44.24917" lon="2.5127">
        <ele>593</ele>
        <time>2022-06-12T07:07:44.314Z</time>
      </trkpt>
      <trkpt lat="44.24917" lon="2.5127">
        <ele>594</ele>
        <time>2022-06-12T07:07:45.314Z</time>
      </trkpt>
      <trkpt lat="44.24916" lon="2.51271">
        <ele>594</ele>
        <time>2022-06-12T07:07:46.314Z</time>
      </trkpt>
      <trkpt lat="44.24915" lon="2.51272">
        <ele>594</ele>
        <time>2022-06-12T07:07:47.314Z</time>
      </trkpt>
      <trkpt lat="44.24915" lon="2.51272">
        <ele>594</ele>
        <time>2022-06-12T07:07:48.314Z</time>
      </trkpt>
      <trkpt lat="44.24914" lon="2.51272">
        <ele>594</ele>
        <time>2022-06-12T07:07:49.314Z</time>
      </trkpt>
      <trkpt lat="44.24914" lon="2.51273">
        <ele>594</ele>
        <time>2022-06-12T07:07:50.314Z</time>
      </trkpt>
      <trkpt lat="44.24913" lon="2.51273">
        <ele>595</ele>
        <time>2022-06-12T07:07:51.314Z</time>
      </trkpt>
      <trkpt lat="44.24912" lon="2.51274">
        <ele>595</ele>
        <time>2022-06-12T07:07:52.314Z</time>
      </trkpt>
      <trkpt lat="44.24911" lon="2.51275">
        <ele>595</ele>
        <time>2022-06-12T07:07:53.314Z</time>
      </trkpt>
      <trkpt lat="44.24911" lon="2.51275">
        <ele>595</ele>
        <time>2022-06-12T07:07:54.314Z</time>
      </trkpt>
      <trkpt lat="44.24911" lon="2.51276">
        <ele>595</ele>
        <time>2022-06-12T07:07:55.314Z</time>
      </trkpt>
      <trkpt lat="44.24911" lon="2.51276">
        <ele>595</ele>
        <time>2022-06-12T07:07:56.314Z</time>
      </trkpt>
      <trkpt lat="44.24911" lon="2.51276">
        <ele>595</ele>
        <time>2022-06-12T07:07:57.314Z</time>
      </trkpt>
      <trkpt lat="44.24911" lon="2.51276">
        <ele>595</ele>
        <time>2022-06-12T07:07:58.314Z</time>
      </trkpt>
      <trkpt lat="44.24912" lon="2.51276">
        <ele>594</ele>
        <time>2022-06-12T07:08:03.314Z</time>
      </trkpt>
      <trkpt lat="44.24913" lon="2.51276">
        <ele>594</ele>
        <time>2022-06-12T07:08:04.314Z</time>
      </trkpt>
      <trkpt lat="44.24914" lon="2.51275">
        <ele>594</ele>
        <time>2022-06-12T07:08:05.314Z</time>
      </trkpt>
      <trkpt lat="44.24914" lon="2.51275">
        <ele>594</ele>
        <time>2022-06-12T07:08:06.314Z</time>
      </trkpt>
      <trkpt lat="44.24915" lon="2.51275">
        <ele>594</ele>
        <time>2022-06-12T07:08:07.314Z</time>
      </trkpt>
      <trkpt lat="44.24916" lon="2.51274">
        <ele>594</ele>
        <time>2022-06-12T07:08:08.314Z</time>
      </trkpt>
      <trkpt lat="44.24917" lon="2.51274">
        <ele>594</ele>
        <time>2022-06-12T07:08:09.314Z</time>
      </trkpt>
      <trkpt lat="44.24917" lon="2.51274">
        <ele>594</ele>
        <time>2022-06-12T07:08:10.314Z</time>
      </trkpt>
      <trkpt lat="44.24918" lon="2.51273">
        <ele>594</ele>
        <time>2022-06-12T07:08:11.314Z</time>
      </trkpt>
      <trkpt lat="44.24918" lon="2.51273">
        <ele>594</ele>
        <time>2022-06-12T07:08:12.314Z</time>
      </trkpt>
      <trkpt lat="44.24919" lon="2.51273">
        <ele>594</ele>
        <time>2022-06-12T07:08:13.314Z</time>
      </trkpt>
      <trkpt lat="44.24919" lon="2.51272">
        <ele>594</ele>
        <time>2022-06-12T07:08:14.314Z</time>
      </trkpt>
      <trkpt lat="44.24919" lon="2.51272">
        <ele>594</ele>
        <time>2022-06-12T07:08:15.314Z</time>
      </trkpt>
      <trkpt lat="44.24919" lon="2.51271">
        <ele>594</ele>
        <time>2022-06-12T07:08:16.314Z</time>
      </trkpt>
      <trkpt lat="44.24919" lon="2.51271">
        <ele>594</ele>
        <time>2022-06-12T07:08:17.314Z</time>
      </trkpt>
      <trkpt lat="44.2492" lon="2.5127">
        <ele>594</ele>
        <time>2022-06-12T07:08:18.314Z</time>
      </trkpt>
      <trkpt lat="44.2492" lon="2.51269">
        <ele>594</ele>
        <time>2022-06-12T07:08:19.314Z</time>
      </trkpt>
      <trkpt lat="44.24921" lon="2.51268">
        <ele>594</ele>
        <time>2022-06-12T07:08:20.314Z</time>
      </trkpt>
      <trkpt lat="44.24921" lon="2.51267">
        <ele>594</ele>
        <time>2022-06-12T07:08:21.314Z</time>
      </trkpt>
      <trkpt lat="44.24921" lon="2.51266">
        <ele>594</ele>
        <time>2022-06-12T07:08:22.314Z</time>
      </trkpt>
      <trkpt lat="44.24921" lon="2.51266">
        <ele>594</ele>
        <time>2022-06-12T07:08:23.314Z</time>
      </trkpt>
      <trkpt lat="44.24922" lon="2.51265">
        <ele>594</ele>
        <time>2022-06-12T07:08:24.314Z</time>
      </trkpt>
      <trkpt lat="44.24922" lon="2.51265">
        <ele>594</ele>
        <time>2022-06-12T07:08:25.314Z</time>
      </trkpt>
      <trkpt lat="44.24923" lon="2.51265">
        <ele>594</ele>
        <time>2022-06-12T07:08:26.314Z</time>
      </trkpt>
      <trkpt lat="44.24923" lon="2.51264">
        <ele>594</ele>
        <time>2022-06-12T07:08:27.314Z</time>
      </trkpt>
      <trkpt lat="44.24924" lon="2.51264">
        <ele>594</ele>
        <time>2022-06-12T07:08:28.314Z</time>
      </trkpt>
      <trkpt lat="44.24924" lon="2.51263">
        <ele>593</ele>
        <time>2022-06-12T07:08:29.314Z</time>
      </trkpt>
      <trkpt lat="44.24925" lon="2.51263">
        <ele>593</ele>
        <time>2022-06-12T07:08:30.314Z</time>
      </trkpt>
      <trkpt lat="44.24926" lon="2.51262">
        <ele>593</ele>
        <time>2022-06-12T07:08:31.314Z</time>
      </trkpt>
      <trkpt lat="44.24926" lon="2.51262">
        <ele>593</ele>
        <time>2022-06-12T07:08:32.314Z</time>
      </trkpt>
      <trkpt lat="44.24926" lon="2.51262">
        <ele>593</ele>
        <time>2022-06-12T07:08:33.314Z</time>
      </trkpt>
      <trkpt lat="44.24926" lon="2.51262">
        <ele>593</ele>
        <time>2022-06-12T07:08:34.314Z</time>
      </trkpt>
      <trkpt lat="44.24926" lon="2.51262">
        <ele>593</ele>
        <time>2022-06-12T07:08:35.314Z</time>
      </trkpt>
      <trkpt lat="44.24925" lon="2.5126">
        <ele>593</ele>
        <time>2022-06-12T07:08:38.568Z</time>
      </trkpt>
      <trkpt lat="44.24925" lon="2.51259">
        <ele>593</ele>
        <time>2022-06-12T07:08:39.568Z</time>
      </trkpt>
      <trkpt lat="44.24925" lon="2.51258">
        <ele>593</ele>
        <time>2022-06-12T07:08:40.568Z</time>
      </trkpt>
      <trkpt lat="44.24925" lon="2.51258">
        <ele>593</ele>
        <time>2022-06-12T07:08:41.568Z</time>
      </trkpt>
      <trkpt lat="44.24925" lon="2.51257">
        <ele>593</ele>
        <time>2022-06-12T07:08:42.568Z</time>
      </trkpt>
      <trkpt lat="44.24924" lon="2.51256">
        <ele>593</ele>
        <time>2022-06-12T07:08:43.568Z</time>
      </trkpt>
      <trkpt lat="44.24924" lon="2.51255">
        <ele>593</ele>
        <time>2022-06-12T07:08:44.568Z</time>
      </trkpt>
      <trkpt lat="44.24924" lon="2.51255">
        <ele>593</ele>
        <time>2022-06-12T07:08:45.568Z</time>
      </trkpt>
      <trkpt lat="44.24924" lon="2.51255">
        <ele>593</ele>
        <time>2022-06-12T07:08:46.568Z</time>
      </trkpt>
      <trkpt lat="44.24924" lon="2.51255">
        <ele>593</ele>
        <time>2022-06-12T07:08:47.568Z</time>
      </trkpt>
      <trkpt lat="44.24925" lon="2.51255">
        <ele>593</ele>
        <time>2022-06-12T07:09:26.569Z</time>
      </trkpt>
      <trkpt lat="44.24925" lon="2.51255">
        <ele>593</ele>
        <time>2022-06-12T07:09:27.569Z</time>
      </trkpt>
      <trkpt lat="44.24925" lon="2.5126">
        <ele>592</ele>
        <time>2022-06-12T07:10:46.324Z</time>
      </trkpt>
      <trkpt lat="44.24926" lon="2.51261">
        <ele>592</ele>
        <time>2022-06-12T07:10:47.324Z</time>
      </trkpt>
      <trkpt lat="44.24927" lon="2.51261">
        <ele>592</ele>
        <time>2022-06-12T07:10:48.324Z</time>
      </trkpt>
      <trkpt lat="44.24928" lon="2.51261">
        <ele>592</ele>
        <time>2022-06-12T07:10:49.324Z</time>
      </trkpt>
      <trkpt lat="44.24929" lon="2.51261">
        <ele>592</ele>
        <time>2022-06-12T07:10:50.324Z</time>
      </trkpt>
      <trkpt lat="44.2493" lon="2.51261">
        <ele>592</ele>
        <time>2022-06-12T07:10:51.324Z</time>
      </trkpt>
      <trkpt lat="44.24931" lon="2.51261">
        <ele>592</ele>
        <time>2022-06-12T07:10:52.324Z</time>
      </trkpt>
      <trkpt lat="44.24931" lon="2.51261">
        <ele>592</ele>
        <time>2022-06-12T07:10:53.324Z</time>
      </trkpt>
      <trkpt lat="44.24932" lon="2.5126">
        <ele>592</ele>
        <time>2022-06-12T07:10:54.324Z</time>
      </trkpt>
      <trkpt lat="44.24932" lon="2.51259">
        <ele>592</ele>
        <time>2022-06-12T07:10:55.324Z</time>
      </trkpt>
      <trkpt lat="44.24932" lon="2.51259">
        <ele>592</ele>
        <time>2022-06-12T07:10:56.324Z</time>
      </trkpt>
      <trkpt lat="44.24932" lon="2.51258">
        <ele>592</ele>
        <time>2022-06-12T07:10:57.324Z</time>
      </trkpt>
      <trkpt lat="44.24932" lon="2.51257">
        <ele>592</ele>
        <time>2022-06-12T07:10:58.324Z</time>
      </trkpt>
      <trkpt lat="44.24931" lon="2.51257">
        <ele>592</ele>
        <time>2022-06-12T07:10:59.324Z</time>
      </trkpt>
      <trkpt lat="44.24931" lon="2.51256">
        <ele>592</ele>
        <time>2022-06-12T07:11:00.324Z</time>
      </trkpt>
      <trkpt lat="44.24931" lon="2.51255">
        <ele>592</ele>
        <time>2022-06-12T07:11:01.324Z</time>
      </trkpt>
      <trkpt lat="44.2493" lon="2.51254">
        <ele>592</ele>
        <time>2022-06-12T07:11:02.324Z</time>
      </trkpt>
      <trkpt lat="44.2493" lon="2.51253">
        <ele>592</ele>
        <time>2022-06-12T07:11:03.324Z</time>
      </trkpt>
      <trkpt lat="44.24929" lon="2.51252">
        <ele>592</ele>
        <time>2022-06-12T07:11:04.324Z</time>
      </trkpt>
      <trkpt lat="44.24929" lon="2.51251">
        <ele>591</ele>
        <time>2022-06-12T07:11:05.324Z</time>
      </trkpt>
      <trkpt lat="44.24928" lon="2.5125">
        <ele>591</ele>
        <time>2022-06-12T07:11:06.324Z</time>
      </trkpt>
      <trkpt lat="44.24928" lon="2.51249">
        <ele>591</ele>
        <time>2022-06-12T07:11:07.324Z</time>
      </trkpt>
      <trkpt lat="44.24927" lon="2.51249">
        <ele>591</ele>
        <time>2022-06-12T07:11:08.324Z</time>
      </trkpt>
      <trkpt lat="44.24927" lon="2.51249">
        <ele>591</ele>
        <time>2022-06-12T07:11:09.324Z</time>
      </trkpt>
      <trkpt lat="44.24926" lon="2.51249">
        <ele>591</ele>
        <time>2022-06-12T07:11:10.324Z</time>
      </trkpt>
      <trkpt lat="44.24926" lon="2.51249">
        <ele>591</ele>
        <time>2022-06-12T07:11:11.324Z</time>
      </trkpt>
      <trkpt lat="44.24925" lon="2.51249">
        <ele>591</ele>
        <time>2022-06-12T07:11:12.324Z</time>
      </trkpt>
      <trkpt lat="44.24926" lon="2.5125">
        <ele>591</ele>
        <time>2022-06-12T07:11:13.324Z</time>
      </trkpt>
      <trkpt lat="44.24926" lon="2.5125">
        <ele>591</ele>
        <time>2022-06-12T07:11:14.324Z</time>
      </trkpt>
      <trkpt lat="44.24926" lon="2.5125">
        <ele>591</ele>
        <time>2022-06-12T07:11:15.324Z</time>
      </trkpt>
      <trkpt lat="44.24926" lon="2.51251">
        <ele>591</ele>
        <time>2022-06-12T07:11:21.328Z</time>
      </trkpt>
      <trkpt lat="44.24925" lon="2.51252">
        <ele>591</ele>
        <time>2022-06-12T07:11:22.328Z</time>
      </trkpt>
      <trkpt lat="44.24925" lon="2.51253">
        <ele>591</ele>
        <time>2022-06-12T07:11:23.328Z</time>
      </trkpt>
      <trkpt lat="44.24924" lon="2.51255">
        <ele>591</ele>
        <time>2022-06-12T07:11:24.328Z</time>
      </trkpt>
      <trkpt lat="44.24923" lon="2.51256">
        <ele>591</ele>
        <time>2022-06-12T07:11:25.328Z</time>
      </trkpt>
      <trkpt lat="44.24922" lon="2.51257">
        <ele>591</ele>
        <time>2022-06-12T07:11:26.328Z</time>
      </trkpt>
      <trkpt lat="44.24921" lon="2.51258">
        <ele>591</ele>
        <time>2022-06-12T07:11:27.328Z</time>
      </trkpt>
      <trkpt lat="44.2492" lon="2.51259">
        <ele>591</ele>
        <time>2022-06-12T07:11:28.328Z</time>
      </trkpt>
      <trkpt lat="44.24919" lon="2.5126">
        <ele>591</ele>
        <time>2022-06-12T07:11:29.328Z</time>
      </trkpt>
      <trkpt lat="44.24918" lon="2.51261">
        <ele>591</ele>
        <time>2022-06-12T07:11:30.328Z</time>
      </trkpt>
      <trkpt lat="44.24917" lon="2.51262">
        <ele>591</ele>
        <time>2022-06-12T07:11:31.328Z</time>
      </trkpt>
      <trkpt lat="44.24916" lon="2.51263">
        <ele>591</ele>
        <time>2022-06-12T07:11:32.328Z</time>
      </trkpt>
      <trkpt lat="44.24915" lon="2.51264">
        <ele>590</ele>
        <time>2022-06-12T07:11:33.328Z</time>
      </trkpt>
      <trkpt lat="44.24914" lon="2.51265">
        <ele>590</ele>
        <time>2022-06-12T07:11:34.328Z</time>
      </trkpt>
      <trkpt lat="44.24913" lon="2.51266">
        <ele>590</ele>
        <time>2022-06-12T07:11:35.328Z</time>
      </trkpt>
      <trkpt lat="44.24912" lon="2.51267">
        <ele>590</ele>
        <time>2022-06-12T07:11:36.328Z</time>
      </trkpt>
      <trkpt lat="44.24911" lon="2.51268">
        <ele>590</ele>
        <time>2022-06-12T07:11:37.328Z</time>
      </trkpt>
      <trkpt lat="44.2491" lon="2.51269">
        <ele>590</ele>
        <time>2022-06-12T07:11:38.328Z</time>
      </trkpt>
      <trkpt lat="44.24909" lon="2.5127">
        <ele>590</ele>
        <time>2022-06-12T07:11:39.328Z</time>
      </trkpt>
      <trkpt lat="44.24909" lon="2.5127">
        <ele>590</ele>
        <time>2022-06-12T07:11:40.328Z</time>
      </trkpt>
      <trkpt lat="44.24908" lon="2.51271">
        <ele>590</ele>
        <time>2022-06-12T07:11:41.328Z</time>
      </trkpt>
      <trkpt lat="44.24907" lon="2.51271">
        <ele>590</ele>
        <time>2022-06-12T07:11:42.328Z</time>
      </trkpt>
      <trkpt lat="44.24907" lon="2.51272">
        <ele>590</ele>
        <time>2022-06-12T07:11:43.328Z</time>
      </trkpt>
      <trkpt lat="44.24906" lon="2.51272">
        <ele>590</ele>
        <time>2022-06-12T07:11:44.328Z</time>
      </trkpt>
      <trkpt lat="44.24905" lon="2.51273">
        <ele>590</ele>
        <time>2022-06-12T07:11:45.328Z</time>
      </trkpt>
      <trkpt lat="44.24905" lon="2.51273">
        <ele>590</ele>
        <time>2022-06-12T07:11:46.328Z</time>
      </trkpt>
      <trkpt lat="44.24904" lon="2.51273">
        <ele>590</ele>
        <time>2022-06-12T07:11:47.328Z</time>
      </trkpt>
      <trkpt lat="44.24904" lon="2.51274">
        <ele>590</ele>
        <time>2022-06-12T07:11:48.328Z</time>
      </trkpt>
      <trkpt lat="44.24903" lon="2.51275">
        <ele>590</ele>
        <time>2022-06-12T07:11:49.328Z</time>
      </trkpt>
      <trkpt lat="44.24903" lon="2.51276">
        <ele>590</ele>
        <time>2022-06-12T07:11:50.328Z</time>
      </trkpt>
      <trkpt lat="44.24902" lon="2.51277">
        <ele>590</ele>
        <time>2022-06-12T07:11:51.328Z</time>
      </trkpt>
      <trkpt lat="44.24902" lon="2.51277">
        <ele>590</ele>
        <time>2022-06-12T07:11:52.328Z</time>
      </trkpt>
      <trkpt lat="44.24901" lon="2.51278">
        <ele>590</ele>
        <time>2022-06-12T07:11:53.328Z</time>
      </trkpt>
      <trkpt lat="44.24901" lon="2.51279">
        <ele>590</ele>
        <time>2022-06-12T07:11:54.328Z</time>
      </trkpt>
      <trkpt lat="44.24901" lon="2.51279">
        <ele>590</ele>
        <time>2022-06-12T07:11:55.328Z</time>
      </trkpt>
      <trkpt lat="44.249" lon="2.51279">
        <ele>590</ele>
        <time>2022-06-12T07:11:56.328Z</time>
      </trkpt>
      <trkpt lat="44.249" lon="2.5128">
        <ele>590</ele>
        <time>2022-06-12T07:11:57.328Z</time>
      </trkpt>
      <trkpt lat="44.249" lon="2.5128">
        <ele>590</ele>
        <time>2022-06-12T07:11:58.328Z</time>
      </trkpt>
      <trkpt lat="44.24899" lon="2.51281">
        <ele>590</ele>
        <time>2022-06-12T07:11:59.328Z</time>
      </trkpt>
      <trkpt lat="44.24899" lon="2.51281">
        <ele>590</ele>
        <time>2022-06-12T07:12:00.328Z</time>
      </trkpt>
      <trkpt lat="44.24899" lon="2.51281">
        <ele>590</ele>
        <time>2022-06-12T07:12:01.328Z</time>
      </trkpt>
      <trkpt lat="44.24898" lon="2.51281">
        <ele>590</ele>
        <time>2022-06-12T07:12:02.328Z</time>
      </trkpt>
      <trkpt lat="44.24898" lon="2.51281">
        <ele>591</ele>
        <time>2022-06-12T07:12:03.328Z</time>
      </trkpt>
      <trkpt lat="44.24898" lon="2.51281">
        <ele>591</ele>
        <time>2022-06-12T07:12:04.328Z</time>
      </trkpt>
      <trkpt lat="44.24897" lon="2.51284">
        <ele>592</ele>
        <time>2022-06-12T07:12:09.333Z</time>
      </trkpt>
      <trkpt lat="44.24897" lon="2.51284">
        <ele>592</ele>
        <time>2022-06-12T07:12:10.333Z</time>
      </trkpt>
      <trkpt lat="44.24897" lon="2.51285">
        <ele>592</ele>
        <time>2022-06-12T07:12:11.333Z</time>
      </trkpt>
      <trkpt lat="44.24896" lon="2.51286">
        <ele>592</ele>
        <time>2022-06-12T07:12:16.335Z</time>
      </trkpt>
      <trkpt lat="44.24895" lon="2.51286">
        <ele>592</ele>
        <time>2022-06-12T07:12:17.335Z</time>
      </trkpt>
      <trkpt lat="44.24894" lon="2.51286">
        <ele>592</ele>
        <time>2022-06-12T07:12:18.335Z</time>
      </trkpt>
      <trkpt lat="44.24893" lon="2.51286">
        <ele>592</ele>
        <time>2022-06-12T07:12:19.335Z</time>
      </trkpt>
      <trkpt lat="44.24893" lon="2.51285">
        <ele>592</ele>
        <time>2022-06-12T07:12:20.335Z</time>
      </trkpt>
      <trkpt lat="44.24892" lon="2.51285">
        <ele>592</ele>
        <time>2022-06-12T07:12:21.335Z</time>
      </trkpt>
      <trkpt lat="44.24892" lon="2.51285">
        <ele>592</ele>
        <time>2022-06-12T07:12:22.335Z</time>
      </trkpt>
      <trkpt lat="44.24888" lon="2.5128">
        <ele>589</ele>
        <time>2022-06-12T07:12:34.338Z</time>
      </trkpt>
      <trkpt lat="44.24887" lon="2.51279">
        <ele>589</ele>
        <time>2022-06-12T07:12:35.338Z</time>
      </trkpt>
      <trkpt lat="44.24887" lon="2.51279">
        <ele>589</ele>
        <time>2022-06-12T07:12:36.338Z</time>
      </trkpt>
      <trkpt lat="44.24887" lon="2.51278">
        <ele>588</ele>
        <time>2022-06-12T07:12:43.337Z</time>
      </trkpt>
      <trkpt lat="44.24887" lon="2.51278">
        <ele>588</ele>
        <time>2022-06-12T07:12:44.337Z</time>
      </trkpt>
      <trkpt lat="44.24887" lon="2.51278">
        <ele>588</ele>
        <time>2022-06-12T07:12:45.337Z</time>
      </trkpt>
      <trkpt lat="44.24886" lon="2.51275">
        <ele>588</ele>
        <time>2022-06-12T07:12:48.614Z</time>
      </trkpt>
      <trkpt lat="44.24886" lon="2.51275">
        <ele>587</ele>
        <time>2022-06-12T07:12:49.614Z</time>
      </trkpt>
      <trkpt lat="44.24885" lon="2.51274">
        <ele>587</ele>
        <time>2022-06-12T07:12:50.614Z</time>
      </trkpt>
      <trkpt lat="44.24884" lon="2.51273">
        <ele>587</ele>
        <time>2022-06-12T07:12:51.614Z</time>
      </trkpt>
      <trkpt lat="44.24884" lon="2.51273">
        <ele>587</ele>
        <time>2022-06-12T07:12:52.614Z</time>
      </trkpt>
      <trkpt lat="44.24884" lon="2.51273">
        <ele>587</ele>
        <time>2022-06-12T07:12:53.614Z</time>
      </trkpt>
      <trkpt lat="44.24883" lon="2.51273">
        <ele>587</ele>
        <time>2022-06-12T07:12:54.614Z</time>
      </trkpt>
      <trkpt lat="44.24883" lon="2.51273">
        <ele>587</ele>
        <time>2022-06-12T07:12:55.614Z</time>
      </trkpt>
      <trkpt lat="44.24882" lon="2.51271">
        <ele>587</ele>
        <time>2022-06-12T07:12:58.852Z</time>
      </trkpt>
      <trkpt lat="44.24882" lon="2.5127">
        <ele>587</ele>
        <time>2022-06-12T07:12:59.852Z</time>
      </trkpt>
      <trkpt lat="44.24882" lon="2.5127">
        <ele>586</ele>
        <time>2022-06-12T07:13:00.852Z</time>
      </trkpt>
      <trkpt lat="44.24881" lon="2.51269">
        <ele>586</ele>
        <time>2022-06-12T07:13:01.852Z</time>
      </trkpt>
      <trkpt lat="44.24881" lon="2.51268">
        <ele>586</ele>
        <time>2022-06-12T07:13:02.852Z</time>
      </trkpt>
      <trkpt lat="44.24881" lon="2.51267">
        <ele>586</ele>
        <time>2022-06-12T07:13:03.852Z</time>
      </trkpt>
      <trkpt lat="44.24881" lon="2.51267">
        <ele>586</ele>
        <time>2022-06-12T07:13:04.852Z</time>
      </trkpt>
      <trkpt lat="44.2488" lon="2.51266">
        <ele>586</ele>
        <time>2022-06-12T07:13:05.852Z</time>
      </trkpt>
      <trkpt lat="44.2488" lon="2.51266">
        <ele>586</ele>
        <time>2022-06-12T07:13:06.852Z</time>
      </trkpt>
      <trkpt lat="44.2488" lon="2.51265">
        <ele>585</ele>
        <time>2022-06-12T07:13:07.852Z</time>
      </trkpt>
      <trkpt lat="44.24879" lon="2.51265">
        <ele>585</ele>
        <time>2022-06-12T07:13:08.852Z</time>
      </trkpt>
      <trkpt lat="44.24879" lon="2.51264">
        <ele>585</ele>
        <time>2022-06-12T07:13:09.852Z</time>
      </trkpt>
      <trkpt lat="44.24879" lon="2.51264">
        <ele>585</ele>
        <time>2022-06-12T07:13:10.852Z</time>
      </trkpt>
      <trkpt lat="44.24879" lon="2.51264">
        <ele>585</ele>
        <time>2022-06-12T07:13:11.852Z</time>
      </trkpt>
      <trkpt lat="44.24878" lon="2.51264">
        <ele>585</ele>
        <time>2022-06-12T07:13:12.852Z</time>
      </trkpt>
      <trkpt lat="44.24876" lon="2.51265">
        <ele>584</ele>
        <time>2022-06-12T07:13:18.867Z</time>
      </trkpt>
      <trkpt lat="44.24875" lon="2.51265">
        <ele>584</ele>
        <time>2022-06-12T07:13:19.867Z</time>
      </trkpt>
      <trkpt lat="44.24875" lon="2.51264">
        <ele>583</ele>
        <time>2022-06-12T07:13:20.867Z</time>
      </trkpt>
      <trkpt lat="44.24875" lon="2.51264">
        <ele>583</ele>
        <time>2022-06-12T07:13:21.867Z</time>
      </trkpt>
      <trkpt lat="44.24875" lon="2.51264">
        <ele>583</ele>
        <time>2022-06-12T07:13:22.867Z</time>
      </trkpt>
      <trkpt lat="44.24875" lon="2.51264">
        <ele>583</ele>
        <time>2022-06-12T07:13:23.867Z</time>
      </trkpt>
      <trkpt lat="44.24875" lon="2.51265">
        <ele>583</ele>
        <time>2022-06-12T07:13:24.867Z</time>
      </trkpt>
      <trkpt lat="44.24875" lon="2.51266">
        <ele>583</ele>
        <time>2022-06-12T07:13:25.867Z</time>
      </trkpt>
      <trkpt lat="44.24875" lon="2.51268">
        <ele>582</ele>
        <time>2022-06-12T07:13:26.867Z</time>
      </trkpt>
      <trkpt lat="44.24875" lon="2.51269">
        <ele>582</ele>
        <time>2022-06-12T07:13:27.867Z</time>
      </trkpt>
      <trkpt lat="44.24875" lon="2.51271">
        <ele>582</ele>
        <time>2022-06-12T07:13:28.867Z</time>
      </trkpt>
      <trkpt lat="44.24875" lon="2.51273">
        <ele>582</ele>
        <time>2022-06-12T07:13:29.867Z</time>
      </trkpt>
      <trkpt lat="44.24874" lon="2.51274">
        <ele>582</ele>
        <time>2022-06-12T07:13:30.867Z</time>
      </trkpt>
      <trkpt lat="44.24874" lon="2.51275">
        <ele>581</ele>
        <time>2022-06-12T07:13:31.867Z</time>
      </trkpt>
      <trkpt lat="44.24873" lon="2.51276">
        <ele>581</ele>
        <time>2022-06-12T07:13:32.867Z</time>
      </trkpt>
      <trkpt lat="44.24873" lon="2.51277">
        <ele>581</ele>
        <time>2022-06-12T07:13:33.867Z</time>
      </trkpt>
      <trkpt lat="44.24873" lon="2.51279">
        <ele>581</ele>
        <time>2022-06-12T07:13:34.867Z</time>
      </trkpt>
      <trkpt lat="44.24872" lon="2.51281">
        <ele>581</ele>
        <time>2022-06-12T07:13:35.867Z</time>
      </trkpt>
      <trkpt lat="44.24872" lon="2.51283">
        <ele>581</ele>
        <time>2022-06-12T07:13:36.867Z</time>
      </trkpt>
      <trkpt lat="44.24872" lon="2.51285">
        <ele>581</ele>
        <time>2022-06-12T07:13:37.867Z</time>
      </trkpt>
      <trkpt lat="44.24872" lon="2.51286">
        <ele>581</ele>
        <time>2022-06-12T07:13:38.867Z</time>
      </trkpt>
      <trkpt lat="44.24872" lon="2.51288">
        <ele>580</ele>
        <time>2022-06-12T07:13:39.867Z</time>
      </trkpt>
      <trkpt lat="44.24872" lon="2.51288">
        <ele>580</ele>
        <time>2022-06-12T07:13:40.867Z</time>
      </trkpt>
      <trkpt lat="44.24873" lon="2.51289">
        <ele>580</ele>
        <time>2022-06-12T07:13:41.867Z</time>
      </trkpt>
      <trkpt lat="44.24873" lon="2.51289">
        <ele>580</ele>
        <time>2022-06-12T07:13:42.867Z</time>
      </trkpt>
      <trkpt lat="44.24874" lon="2.5129">
        <ele>580</ele>
        <time>2022-06-12T07:13:43.867Z</time>
      </trkpt>
      <trkpt lat="44.24874" lon="2.51291">
        <ele>580</ele>
        <time>2022-06-12T07:13:44.867Z</time>
      </trkpt>
      <trkpt lat="44.24874" lon="2.51293">
        <ele>580</ele>
        <time>2022-06-12T07:13:45.867Z</time>
      </trkpt>
      <trkpt lat="44.24874" lon="2.51294">
        <ele>580</ele>
        <time>2022-06-12T07:13:46.867Z</time>
      </trkpt>
      <trkpt lat="44.24874" lon="2.51296">
        <ele>579</ele>
        <time>2022-06-12T07:13:47.867Z</time>
      </trkpt>
      <trkpt lat="44.24874" lon="2.51297">
        <ele>579</ele>
        <time>2022-06-12T07:13:48.867Z</time>
      </trkpt>
      <trkpt lat="44.24874" lon="2.51299">
        <ele>579</ele>
        <time>2022-06-12T07:13:49.867Z</time>
      </trkpt>
      <trkpt lat="44.24874" lon="2.513">
        <ele>579</ele>
        <time>2022-06-12T07:13:50.867Z</time>
      </trkpt>
      <trkpt lat="44.24873" lon="2.51301">
        <ele>579</ele>
        <time>2022-06-12T07:13:51.867Z</time>
      </trkpt>
      <trkpt lat="44.24873" lon="2.51303">
        <ele>579</ele>
        <time>2022-06-12T07:13:52.867Z</time>
      </trkpt>
      <trkpt lat="44.24872" lon="2.51304">
        <ele>579</ele>
        <time>2022-06-12T07:13:53.867Z</time>
      </trkpt>
      <trkpt lat="44.24871" lon="2.51305">
        <ele>579</ele>
        <time>2022-06-12T07:13:54.867Z</time>
      </trkpt>
      <trkpt lat="44.24869" lon="2.51305">
        <ele>579</ele>
        <time>2022-06-12T07:13:55.867Z</time>
      </trkpt>
      <trkpt lat="44.24869" lon="2.51306">
        <ele>579</ele>
        <time>2022-06-12T07:13:56.867Z</time>
      </trkpt>
      <trkpt lat="44.24869" lon="2.51306">
        <ele>578</ele>
        <time>2022-06-12T07:13:57.867Z</time>
      </trkpt>
      <trkpt lat="44.24869" lon="2.51306">
        <ele>578</ele>
        <time>2022-06-12T07:13:58.867Z</time>
      </trkpt>
      <trkpt lat="44.24869" lon="2.51306">
        <ele>578</ele>
        <time>2022-06-12T07:13:59.867Z</time>
      </trkpt>
      <trkpt lat="44.2487" lon="2.51306">
        <ele>578</ele>
        <time>2022-06-12T07:14:00.867Z</time>
      </trkpt>
      <trkpt lat="44.24872" lon="2.51308">
        <ele>577</ele>
        <time>2022-06-12T07:14:04.120Z</time>
      </trkpt>
      <trkpt lat="44.24873" lon="2.51309">
        <ele>577</ele>
        <time>2022-06-12T07:14:05.120Z</time>
      </trkpt>
      <trkpt lat="44.24874" lon="2.51309">
        <ele>577</ele>
        <time>2022-06-12T07:14:06.120Z</time>
      </trkpt>
      <trkpt lat="44.24875" lon="2.51311">
        <ele>577</ele>
        <time>2022-06-12T07:14:07.120Z</time>
      </trkpt>
      <trkpt lat="44.24875" lon="2.51312">
        <ele>576</ele>
        <time>2022-06-12T07:14:08.120Z</time>
      </trkpt>
      <trkpt lat="44.24876" lon="2.51313">
        <ele>576</ele>
        <time>2022-06-12T07:14:09.120Z</time>
      </trkpt>
      <trkpt lat="44.24877" lon="2.51314">
        <ele>576</ele>
        <time>2022-06-12T07:14:10.120Z</time>
      </trkpt>
      <trkpt lat="44.24878" lon="2.51315">
        <ele>576</ele>
        <time>2022-06-12T07:14:11.120Z</time>
      </trkpt>
      <trkpt lat="44.24878" lon="2.51315">
        <ele>575</ele>
        <time>2022-06-12T07:14:12.120Z</time>
      </trkpt>
      <trkpt lat="44.24878" lon="2.51316">
        <ele>575</ele>
        <time>2022-06-12T07:14:13.120Z</time>
      </trkpt>
      <trkpt lat="44.24879" lon="2.51316">
        <ele>575</ele>
        <time>2022-06-12T07:14:14.120Z</time>
      </trkpt>
      <trkpt lat="44.24879" lon="2.51317">
        <ele>575</ele>
        <time>2022-06-12T07:14:15.120Z</time>
      </trkpt>
      <trkpt lat="44.2488" lon="2.51318">
        <ele>575</ele>
        <time>2022-06-12T07:14:16.120Z</time>
      </trkpt>
      <trkpt lat="44.24881" lon="2.5132">
        <ele>575</ele>
        <time>2022-06-12T07:14:17.120Z</time>
      </trkpt>
      <trkpt lat="44.24882" lon="2.5132">
        <ele>575</ele>
        <time>2022-06-12T07:14:18.120Z</time>
      </trkpt>
      <trkpt lat="44.24882" lon="2.51321">
        <ele>575</ele>
        <time>2022-06-12T07:14:19.120Z</time>
      </trkpt>
      <trkpt lat="44.24882" lon="2.51321">
        <ele>574</ele>
        <time>2022-06-12T07:14:20.120Z</time>
      </trkpt>
      <trkpt lat="44.24882" lon="2.51321">
        <ele>574</ele>
        <time>2022-06-12T07:14:21.120Z</time>
      </trkpt>
      <trkpt lat="44.24883" lon="2.51322">
        <ele>574</ele>
        <time>2022-06-12T07:14:25.400Z</time>
      </trkpt>
      <trkpt lat="44.24884" lon="2.51323">
        <ele>574</ele>
        <time>2022-06-12T07:14:26.400Z</time>
      </trkpt>
      <trkpt lat="44.24885" lon="2.51323">
        <ele>573</ele>
        <time>2022-06-12T07:14:27.400Z</time>
      </trkpt>
      <trkpt lat="44.24885" lon="2.51324">
        <ele>573</ele>
        <time>2022-06-12T07:14:28.400Z</time>
      </trkpt>
      <trkpt lat="44.24886" lon="2.51324">
        <ele>573</ele>
        <time>2022-06-12T07:14:29.400Z</time>
      </trkpt>
      <trkpt lat="44.24886" lon="2.51325">
        <ele>573</ele>
        <time>2022-06-12T07:14:30.400Z</time>
      </trkpt>
      <trkpt lat="44.24887" lon="2.51326">
        <ele>573</ele>
        <time>2022-06-12T07:14:31.400Z</time>
      </trkpt>
      <trkpt lat="44.24888" lon="2.51327">
        <ele>573</ele>
        <time>2022-06-12T07:14:32.400Z</time>
      </trkpt>
      <trkpt lat="44.24889" lon="2.51328">
        <ele>573</ele>
        <time>2022-06-12T07:14:33.400Z</time>
      </trkpt>
      <trkpt lat="44.2489" lon="2.51329">
        <ele>573</ele>
        <time>2022-06-12T07:14:34.400Z</time>
      </trkpt>
      <trkpt lat="44.2489" lon="2.5133">
        <ele>573</ele>
        <time>2022-06-12T07:14:35.400Z</time>
      </trkpt>
      <trkpt lat="44.24891" lon="2.51331">
        <ele>573</ele>
        <time>2022-06-12T07:14:36.400Z</time>
      </trkpt>
      <trkpt lat="44.24891" lon="2.51331">
        <ele>573</ele>
        <time>2022-06-12T07:14:37.400Z</time>
      </trkpt>
      <trkpt lat="44.24891" lon="2.51331">
        <ele>573</ele>
        <time>2022-06-12T07:14:38.400Z</time>
      </trkpt>
      <trkpt lat="44.24891" lon="2.51332">
        <ele>572</ele>
        <time>2022-06-12T07:14:39.400Z</time>
      </trkpt>
      <trkpt lat="44.24892" lon="2.51332">
        <ele>572</ele>
        <time>2022-06-12T07:14:40.400Z</time>
      </trkpt>
      <trkpt lat="44.24893" lon="2.51333">
        <ele>572</ele>
        <time>2022-06-12T07:14:41.400Z</time>
      </trkpt>
      <trkpt lat="44.24893" lon="2.51334">
        <ele>572</ele>
        <time>2022-06-12T07:14:42.400Z</time>
      </trkpt>
      <trkpt lat="44.24894" lon="2.51336">
        <ele>571</ele>
        <time>2022-06-12T07:14:43.400Z</time>
      </trkpt>
      <trkpt lat="44.24895" lon="2.51336">
        <ele>571</ele>
        <time>2022-06-12T07:14:44.400Z</time>
      </trkpt>
      <trkpt lat="44.24896" lon="2.51337">
        <ele>571</ele>
        <time>2022-06-12T07:14:45.400Z</time>
      </trkpt>
      <trkpt lat="44.24897" lon="2.51338">
        <ele>571</ele>
        <time>2022-06-12T07:14:46.400Z</time>
      </trkpt>
      <trkpt lat="44.24897" lon="2.51339">
        <ele>571</ele>
        <time>2022-06-12T07:14:47.400Z</time>
      </trkpt>
      <trkpt lat="44.24898" lon="2.5134">
        <ele>571</ele>
        <time>2022-06-12T07:14:48.400Z</time>
      </trkpt>
      <trkpt lat="44.24898" lon="2.5134">
        <ele>571</ele>
        <time>2022-06-12T07:14:49.400Z</time>
      </trkpt>
      <trkpt lat="44.24899" lon="2.51341">
        <ele>571</ele>
        <time>2022-06-12T07:14:50.400Z</time>
      </trkpt>
      <trkpt lat="44.249" lon="2.51342">
        <ele>570</ele>
        <time>2022-06-12T07:14:51.400Z</time>
      </trkpt>
      <trkpt lat="44.249" lon="2.51343">
        <ele>570</ele>
        <time>2022-06-12T07:14:52.400Z</time>
      </trkpt>
      <trkpt lat="44.249" lon="2.51344">
        <ele>570</ele>
        <time>2022-06-12T07:14:53.400Z</time>
      </trkpt>
      <trkpt lat="44.24901" lon="2.51346">
        <ele>570</ele>
        <time>2022-06-12T07:14:54.400Z</time>
      </trkpt>
      <trkpt lat="44.24901" lon="2.51347">
        <ele>570</ele>
        <time>2022-06-12T07:14:55.400Z</time>
      </trkpt>
      <trkpt lat="44.24901" lon="2.51349">
        <ele>570</ele>
        <time>2022-06-12T07:14:56.400Z</time>
      </trkpt>
      <trkpt lat="44.24902" lon="2.5135">
        <ele>569</ele>
        <time>2022-06-12T07:14:57.400Z</time>
      </trkpt>
      <trkpt lat="44.24902" lon="2.51351">
        <ele>569</ele>
        <time>2022-06-12T07:14:58.400Z</time>
      </trkpt>
      <trkpt lat="44.24902" lon="2.51353">
        <ele>569</ele>
        <time>2022-06-12T07:14:59.400Z</time>
      </trkpt>
      <trkpt lat="44.24902" lon="2.51354">
        <ele>569</ele>
        <time>2022-06-12T07:15:00.400Z</time>
      </trkpt>
      <trkpt lat="44.24902" lon="2.51356">
        <ele>569</ele>
        <time>2022-06-12T07:15:01.400Z</time>
      </trkpt>
      <trkpt lat="44.24902" lon="2.51356">
        <ele>569</ele>
        <time>2022-06-12T07:15:02.400Z</time>
      </trkpt>
      <trkpt lat="44.24902" lon="2.51357">
        <ele>569</ele>
        <time>2022-06-12T07:15:03.400Z</time>
      </trkpt>
      <trkpt lat="44.24902" lon="2.51358">
        <ele>569</ele>
        <time>2022-06-12T07:15:04.400Z</time>
      </trkpt>
      <trkpt lat="44.24902" lon="2.51358">
        <ele>569</ele>
        <time>2022-06-12T07:15:05.400Z</time>
      </trkpt>
      <trkpt lat="44.249" lon="2.51358">
        <ele>569</ele>
        <time>2022-06-12T07:15:24.404Z</time>
      </trkpt>
      <trkpt lat="44.249" lon="2.51357">
        <ele>569</ele>
        <time>2022-06-12T07:15:25.404Z</time>
      </trkpt>
      <trkpt lat="44.24901" lon="2.51356">
        <ele>569</ele>
        <time>2022-06-12T07:15:26.404Z</time>
      </trkpt>
      <trkpt lat="44.24901" lon="2.51355">
        <ele>569</ele>
        <time>2022-06-12T07:15:27.404Z</time>
      </trkpt>
      <trkpt lat="44.24901" lon="2.51354">
        <ele>569</ele>
        <time>2022-06-12T07:15:28.404Z</time>
      </trkpt>
      <trkpt lat="44.24901" lon="2.51352">
        <ele>569</ele>
        <time>2022-06-12T07:15:29.404Z</time>
      </trkpt>
      <trkpt lat="44.249" lon="2.51351">
        <ele>569</ele>
        <time>2022-06-12T07:15:30.404Z</time>
      </trkpt>
      <trkpt lat="44.249" lon="2.5135">
        <ele>569</ele>
        <time>2022-06-12T07:15:31.404Z</time>
      </trkpt>
      <trkpt lat="44.24899" lon="2.5135">
        <ele>569</ele>
        <time>2022-06-12T07:15:32.404Z</time>
      </trkpt>
      <trkpt lat="44.24899" lon="2.51349">
        <ele>568</ele>
        <time>2022-06-12T07:15:33.404Z</time>
      </trkpt>
      <trkpt lat="44.24898" lon="2.51348">
        <ele>568</ele>
        <time>2022-06-12T07:15:34.404Z</time>
      </trkpt>
      <trkpt lat="44.24898" lon="2.51348">
        <ele>568</ele>
        <time>2022-06-12T07:15:35.404Z</time>
      </trkpt>
      <trkpt lat="44.24897" lon="2.51347">
        <ele>568</ele>
        <time>2022-06-12T07:15:36.404Z</time>
      </trkpt>
      <trkpt lat="44.24897" lon="2.51346">
        <ele>568</ele>
        <time>2022-06-12T07:15:37.404Z</time>
      </trkpt>
      <trkpt lat="44.24896" lon="2.51345">
        <ele>568</ele>
        <time>2022-06-12T07:15:38.404Z</time>
      </trkpt>
      <trkpt lat="44.24896" lon="2.51344">
        <ele>568</ele>
        <time>2022-06-12T07:15:39.404Z</time>
      </trkpt>
      <trkpt lat="44.24896" lon="2.51343">
        <ele>568</ele>
        <time>2022-06-12T07:15:40.404Z</time>
      </trkpt>
      <trkpt lat="44.24895" lon="2.51342">
        <ele>568</ele>
        <time>2022-06-12T07:15:41.404Z</time>
      </trkpt>
      <trkpt lat="44.24895" lon="2.51341">
        <ele>568</ele>
        <time>2022-06-12T07:15:42.404Z</time>
      </trkpt>
      <trkpt lat="44.24894" lon="2.5134">
        <ele>568</ele>
        <time>2022-06-12T07:15:43.404Z</time>
      </trkpt>
      <trkpt lat="44.24894" lon="2.5134">
        <ele>568</ele>
        <time>2022-06-12T07:15:44.404Z</time>
      </trkpt>
      <trkpt lat="44.24893" lon="2.51339">
        <ele>568</ele>
        <time>2022-06-12T07:15:45.404Z</time>
      </trkpt>
      <trkpt lat="44.24892" lon="2.51338">
        <ele>568</ele>
        <time>2022-06-12T07:15:46.404Z</time>
      </trkpt>
      <trkpt lat="44.24892" lon="2.51337">
        <ele>568</ele>
        <time>2022-06-12T07:15:47.404Z</time>
      </trkpt>
      <trkpt lat="44.24891" lon="2.51336">
        <ele>568</ele>
        <time>2022-06-12T07:15:48.404Z</time>
      </trkpt>
      <trkpt lat="44.2489" lon="2.51335">
        <ele>569</ele>
        <time>2022-06-12T07:15:49.404Z</time>
      </trkpt>
      <trkpt lat="44.24889" lon="2.51333">
        <ele>569</ele>
        <time>2022-06-12T07:15:50.404Z</time>
      </trkpt>
      <trkpt lat="44.24888" lon="2.51332">
        <ele>569</ele>
        <time>2022-06-12T07:15:51.404Z</time>
      </trkpt>
      <trkpt lat="44.24887" lon="2.51331">
        <ele>569</ele>
        <time>2022-06-12T07:15:52.404Z</time>
      </trkpt>
      <trkpt lat="44.24886" lon="2.51329">
        <ele>569</ele>
        <time>2022-06-12T07:15:53.404Z</time>
      </trkpt>
      <trkpt lat="44.24885" lon="2.51328">
        <ele>569</ele>
        <time>2022-06-12T07:15:54.404Z</time>
      </trkpt>
      <trkpt lat="44.24884" lon="2.51327">
        <ele>569</ele>
        <time>2022-06-12T07:15:55.404Z</time>
      </trkpt>
      <trkpt lat="44.24884" lon="2.51326">
        <ele>569</ele>
        <time>2022-06-12T07:15:56.404Z</time>
      </trkpt>
      <trkpt lat="44.24883" lon="2.51325">
        <ele>569</ele>
        <time>2022-06-12T07:15:57.404Z</time>
      </trkpt>
      <trkpt lat="44.24882" lon="2.51324">
        <ele>570</ele>
        <time>2022-06-12T07:15:58.404Z</time>
      </trkpt>
      <trkpt lat="44.24881" lon="2.51322">
        <ele>570</ele>
        <time>2022-06-12T07:15:59.404Z</time>
      </trkpt>
      <trkpt lat="44.2488" lon="2.51321">
        <ele>570</ele>
        <time>2022-06-12T07:16:00.404Z</time>
      </trkpt>
      <trkpt lat="44.24879" lon="2.5132">
        <ele>570</ele>
        <time>2022-06-12T07:16:01.404Z</time>
      </trkpt>
      <trkpt lat="44.24878" lon="2.51319">
        <ele>570</ele>
        <time>2022-06-12T07:16:02.404Z</time>
      </trkpt>
      <trkpt lat="44.24877" lon="2.51318">
        <ele>570</ele>
        <time>2022-06-12T07:16:03.404Z</time>
      </trkpt>
      <trkpt lat="44.24877" lon="2.51317">
        <ele>570</ele>
        <time>2022-06-12T07:16:04.404Z</time>
      </trkpt>
      <trkpt lat="44.24876" lon="2.51316">
        <ele>570</ele>
        <time>2022-06-12T07:16:05.404Z</time>
      </trkpt>
      <trkpt lat="44.24875" lon="2.51315">
        <ele>570</ele>
        <time>2022-06-12T07:16:06.404Z</time>
      </trkpt>
      <trkpt lat="44.24874" lon="2.51313">
        <ele>570</ele>
        <time>2022-06-12T07:16:07.404Z</time>
      </trkpt>
      <trkpt lat="44.24873" lon="2.51312">
        <ele>571</ele>
        <time>2022-06-12T07:16:08.404Z</time>
      </trkpt>
      <trkpt lat="44.24872" lon="2.51311">
        <ele>571</ele>
        <time>2022-06-12T07:16:09.404Z</time>
      </trkpt>
      <trkpt lat="44.24872" lon="2.51311">
        <ele>571</ele>
        <time>2022-06-12T07:16:10.404Z</time>
      </trkpt>
      <trkpt lat="44.24871" lon="2.5131">
        <ele>571</ele>
        <time>2022-06-12T07:16:11.404Z</time>
      </trkpt>
      <trkpt lat="44.2487" lon="2.51309">
        <ele>571</ele>
        <time>2022-06-12T07:16:12.404Z</time>
      </trkpt>
      <trkpt lat="44.2487" lon="2.51308">
        <ele>571</ele>
        <time>2022-06-12T07:16:13.404Z</time>
      </trkpt>
      <trkpt lat="44.24869" lon="2.51307">
        <ele>571</ele>
        <time>2022-06-12T07:16:14.404Z</time>
      </trkpt>
      <trkpt lat="44.24869" lon="2.51307">
        <ele>571</ele>
        <time>2022-06-12T07:16:15.404Z</time>
      </trkpt>
      <trkpt lat="44.24869" lon="2.51307">
        <ele>571</ele>
        <time>2022-06-12T07:16:16.404Z</time>
      </trkpt>
      <trkpt lat="44.24868" lon="2.51306">
        <ele>571</ele>
        <time>2022-06-12T07:16:17.404Z</time>
      </trkpt>
      <trkpt lat="44.24868" lon="2.51306">
        <ele>571</ele>
        <time>2022-06-12T07:16:18.404Z</time>
      </trkpt>
      <trkpt lat="44.24867" lon="2.51305">
        <ele>571</ele>
        <time>2022-06-12T07:16:19.404Z</time>
      </trkpt>
      <trkpt lat="44.24866" lon="2.51304">
        <ele>571</ele>
        <time>2022-06-12T07:16:20.404Z</time>
      </trkpt>
      <trkpt lat="44.24865" lon="2.51303">
        <ele>571</ele>
        <time>2022-06-12T07:16:21.404Z</time>
      </trkpt>
      <trkpt lat="44.24864" lon="2.51301">
        <ele>571</ele>
        <time>2022-06-12T07:16:22.404Z</time>
      </trkpt>
      <trkpt lat="44.24863" lon="2.513">
        <ele>571</ele>
        <time>2022-06-12T07:16:23.404Z</time>
      </trkpt>
      <trkpt lat="44.24863" lon="2.51299">
        <ele>571</ele>
        <time>2022-06-12T07:16:24.404Z</time>
      </trkpt>
      <trkpt lat="44.24862" lon="2.51297">
        <ele>571</ele>
        <time>2022-06-12T07:16:25.404Z</time>
      </trkpt>
      <trkpt lat="44.24861" lon="2.51296">
        <ele>571</ele>
        <time>2022-06-12T07:16:26.404Z</time>
      </trkpt>
      <trkpt lat="44.24861" lon="2.51295">
        <ele>571</ele>
        <time>2022-06-12T07:16:27.404Z</time>
      </trkpt>
      <trkpt lat="44.2486" lon="2.51294">
        <ele>571</ele>
        <time>2022-06-12T07:16:28.404Z</time>
      </trkpt>
      <trkpt lat="44.2486" lon="2.51293">
        <ele>571</ele>
        <time>2022-06-12T07:16:29.404Z</time>
      </trkpt>
      <trkpt lat="44.24859" lon="2.51292">
        <ele>571</ele>
        <time>2022-06-12T07:16:30.404Z</time>
      </trkpt>
      <trkpt lat="44.24859" lon="2.51291">
        <ele>570</ele>
        <time>2022-06-12T07:16:31.404Z</time>
      </trkpt>
      <trkpt lat="44.24859" lon="2.5129">
        <ele>570</ele>
        <time>2022-06-12T07:16:32.404Z</time>
      </trkpt>
      <trkpt lat="44.24859" lon="2.5129">
        <ele>570</ele>
        <time>2022-06-12T07:16:33.404Z</time>
      </trkpt>
      <trkpt lat="44.24859" lon="2.51288">
        <ele>570</ele>
        <time>2022-06-12T07:16:34.404Z</time>
      </trkpt>
      <trkpt lat="44.24858" lon="2.51287">
        <ele>570</ele>
        <time>2022-06-12T07:16:35.404Z</time>
      </trkpt>
      <trkpt lat="44.24858" lon="2.51285">
        <ele>570</ele>
        <time>2022-06-12T07:16:36.404Z</time>
      </trkpt>
      <trkpt lat="44.24858" lon="2.51283">
        <ele>570</ele>
        <time>2022-06-12T07:16:37.404Z</time>
      </trkpt>
      <trkpt lat="44.24858" lon="2.51282">
        <ele>569</ele>
        <time>2022-06-12T07:16:38.404Z</time>
      </trkpt>
      <trkpt lat="44.24857" lon="2.51281">
        <ele>569</ele>
        <time>2022-06-12T07:16:39.404Z</time>
      </trkpt>
      <trkpt lat="44.24857" lon="2.5128">
        <ele>569</ele>
        <time>2022-06-12T07:16:40.404Z</time>
      </trkpt>
      <trkpt lat="44.24857" lon="2.51279">
        <ele>569</ele>
        <time>2022-06-12T07:16:41.404Z</time>
      </trkpt>
      <trkpt lat="44.24857" lon="2.51278">
        <ele>569</ele>
        <time>2022-06-12T07:16:42.404Z</time>
      </trkpt>
      <trkpt lat="44.24857" lon="2.51277">
        <ele>569</ele>
        <time>2022-06-12T07:16:43.404Z</time>
      </trkpt>
      <trkpt lat="44.24857" lon="2.51276">
        <ele>569</ele>
        <time>2022-06-12T07:16:44.404Z</time>
      </trkpt>
      <trkpt lat="44.24857" lon="2.51275">
        <ele>569</ele>
        <time>2022-06-12T07:16:45.404Z</time>
      </trkpt>
      <trkpt lat="44.24857" lon="2.51274">
        <ele>569</ele>
        <time>2022-06-12T07:16:46.404Z</time>
      </trkpt>
      <trkpt lat="44.24857" lon="2.51272">
        <ele>568</ele>
        <time>2022-06-12T07:16:47.404Z</time>
      </trkpt>
      <trkpt lat="44.24857" lon="2.51271">
        <ele>568</ele>
        <time>2022-06-12T07:16:48.404Z</time>
      </trkpt>
      <trkpt lat="44.24857" lon="2.51269">
        <ele>568</ele>
        <time>2022-06-12T07:16:49.404Z</time>
      </trkpt>
      <trkpt lat="44.24857" lon="2.51269">
        <ele>568</ele>
        <time>2022-06-12T07:16:50.404Z</time>
      </trkpt>
      <trkpt lat="44.24856" lon="2.51268">
        <ele>568</ele>
        <time>2022-06-12T07:16:51.404Z</time>
      </trkpt>
      <trkpt lat="44.24856" lon="2.51268">
        <ele>568</ele>
        <time>2022-06-12T07:16:52.404Z</time>
      </trkpt>
      <trkpt lat="44.24856" lon="2.51267">
        <ele>569</ele>
        <time>2022-06-12T07:16:53.404Z</time>
      </trkpt>
      <trkpt lat="44.24856" lon="2.51267">
        <ele>569</ele>
        <time>2022-06-12T07:16:54.404Z</time>
      </trkpt>
      <trkpt lat="44.24855" lon="2.51267">
        <ele>569</ele>
        <time>2022-06-12T07:16:55.404Z</time>
      </trkpt>
      <trkpt lat="44.24855" lon="2.51267">
        <ele>569</ele>
        <time>2022-06-12T07:16:56.404Z</time>
      </trkpt>
      <trkpt lat="44.24854" lon="2.51267">
        <ele>569</ele>
        <time>2022-06-12T07:17:05.410Z</time>
      </trkpt>
      <trkpt lat="44.24853" lon="2.51266">
        <ele>569</ele>
        <time>2022-06-12T07:17:06.410Z</time>
      </trkpt>
      <trkpt lat="44.24852" lon="2.51266">
        <ele>569</ele>
        <time>2022-06-12T07:17:07.410Z</time>
      </trkpt>
      <trkpt lat="44.24852" lon="2.51266">
        <ele>569</ele>
        <time>2022-06-12T07:17:08.410Z</time>
      </trkpt>
      <trkpt lat="44.24852" lon="2.51266">
        <ele>569</ele>
        <time>2022-06-12T07:17:09.410Z</time>
      </trkpt>
      <trkpt lat="44.24851" lon="2.51266">
        <ele>569</ele>
        <time>2022-06-12T07:17:10.410Z</time>
      </trkpt>
      <trkpt lat="44.24851" lon="2.51264">
        <ele>569</ele>
        <time>2022-06-12T07:17:11.410Z</time>
      </trkpt>
      <trkpt lat="44.2485" lon="2.51262">
        <ele>569</ele>
        <time>2022-06-12T07:17:12.410Z</time>
      </trkpt>
      <trkpt lat="44.2485" lon="2.5126">
        <ele>569</ele>
        <time>2022-06-12T07:17:13.410Z</time>
      </trkpt>
      <trkpt lat="44.24849" lon="2.51258">
        <ele>569</ele>
        <time>2022-06-12T07:17:14.410Z</time>
      </trkpt>
      <trkpt lat="44.24849" lon="2.51256">
        <ele>569</ele>
        <time>2022-06-12T07:17:15.410Z</time>
      </trkpt>
      <trkpt lat="44.24849" lon="2.51254">
        <ele>569</ele>
        <time>2022-06-12T07:17:16.410Z</time>
      </trkpt>
      <trkpt lat="44.24849" lon="2.51252">
        <ele>569</ele>
        <time>2022-06-12T07:17:17.410Z</time>
      </trkpt>
      <trkpt lat="44.24849" lon="2.5125">
        <ele>569</ele>
        <time>2022-06-12T07:17:18.410Z</time>
      </trkpt>
      <trkpt lat="44.2485" lon="2.51248">
        <ele>568</ele>
        <time>2022-06-12T07:17:19.410Z</time>
      </trkpt>
      <trkpt lat="44.2485" lon="2.51246">
        <ele>568</ele>
        <time>2022-06-12T07:17:20.410Z</time>
      </trkpt>
      <trkpt lat="44.2485" lon="2.51244">
        <ele>568</ele>
        <time>2022-06-12T07:17:21.410Z</time>
      </trkpt>
      <trkpt lat="44.24851" lon="2.51241">
        <ele>568</ele>
        <time>2022-06-12T07:17:22.410Z</time>
      </trkpt>
      <trkpt lat="44.24851" lon="2.51239">
        <ele>568</ele>
        <time>2022-06-12T07:17:23.410Z</time>
      </trkpt>
      <trkpt lat="44.24851" lon="2.51237">
        <ele>568</ele>
        <time>2022-06-12T07:17:24.410Z</time>
      </trkpt>
      <trkpt lat="44.24852" lon="2.51235">
        <ele>568</ele>
        <time>2022-06-12T07:17:25.410Z</time>
      </trkpt>
      <trkpt lat="44.24852" lon="2.51233">
        <ele>568</ele>
        <time>2022-06-12T07:17:26.410Z</time>
      </trkpt>
      <trkpt lat="44.24852" lon="2.5123">
        <ele>568</ele>
        <time>2022-06-12T07:17:27.410Z</time>
      </trkpt>
      <trkpt lat="44.24852" lon="2.51228">
        <ele>567</ele>
        <time>2022-06-12T07:17:28.410Z</time>
      </trkpt>
      <trkpt lat="44.24853" lon="2.51226">
        <ele>567</ele>
        <time>2022-06-12T07:17:29.410Z</time>
      </trkpt>
      <trkpt lat="44.24853" lon="2.51224">
        <ele>567</ele>
        <time>2022-06-12T07:17:30.410Z</time>
      </trkpt>
      <trkpt lat="44.24853" lon="2.51222">
        <ele>567</ele>
        <time>2022-06-12T07:17:31.410Z</time>
      </trkpt>
      <trkpt lat="44.24852" lon="2.5122">
        <ele>567</ele>
        <time>2022-06-12T07:17:32.410Z</time>
      </trkpt>
      <trkpt lat="44.24852" lon="2.51218">
        <ele>567</ele>
        <time>2022-06-12T07:17:33.410Z</time>
      </trkpt>
      <trkpt lat="44.24852" lon="2.51218">
        <ele>567</ele>
        <time>2022-06-12T07:17:34.410Z</time>
      </trkpt>
      <trkpt lat="44.24851" lon="2.51217">
        <ele>567</ele>
        <time>2022-06-12T07:17:35.410Z</time>
      </trkpt>
      <trkpt lat="44.2485" lon="2.51217">
        <ele>567</ele>
        <time>2022-06-12T07:17:36.410Z</time>
      </trkpt>
      <trkpt lat="44.2485" lon="2.51217">
        <ele>567</ele>
        <time>2022-06-12T07:17:37.410Z</time>
      </trkpt>
      <trkpt lat="44.24849" lon="2.51217">
        <ele>567</ele>
        <time>2022-06-12T07:17:38.410Z</time>
      </trkpt>
      <trkpt lat="44.24849" lon="2.51217">
        <ele>567</ele>
        <time>2022-06-12T07:17:39.410Z</time>
      </trkpt>
      <trkpt lat="44.24848" lon="2.51218">
        <ele>567</ele>
        <time>2022-06-12T07:17:40.410Z</time>
      </trkpt>
      <trkpt lat="44.24847" lon="2.51218">
        <ele>567</ele>
        <time>2022-06-12T07:17:41.410Z</time>
      </trkpt>
      <trkpt lat="44.24846" lon="2.51218">
        <ele>566</ele>
        <time>2022-06-12T07:17:42.410Z</time>
      </trkpt>
      <trkpt lat="44.24845" lon="2.51218">
        <ele>566</ele>
        <time>2022-06-12T07:17:43.410Z</time>
      </trkpt>
      <trkpt lat="44.24843" lon="2.51218">
        <ele>566</ele>
        <time>2022-06-12T07:17:44.410Z</time>
      </trkpt>
      <trkpt lat="44.24842" lon="2.51218">
        <ele>566</ele>
        <time>2022-06-12T07:17:45.410Z</time>
      </trkpt>
      <trkpt lat="44.24841" lon="2.51217">
        <ele>567</ele>
        <time>2022-06-12T07:17:46.410Z</time>
      </trkpt>
      <trkpt lat="44.2484" lon="2.51217">
        <ele>567</ele>
        <time>2022-06-12T07:17:47.410Z</time>
      </trkpt>
      <trkpt lat="44.2484" lon="2.51217">
        <ele>567</ele>
        <time>2022-06-12T07:17:48.410Z</time>
      </trkpt>
      <trkpt lat="44.24839" lon="2.51217">
        <ele>567</ele>
        <time>2022-06-12T07:17:49.410Z</time>
      </trkpt>
      <trkpt lat="44.24839" lon="2.51217">
        <ele>567</ele>
        <time>2022-06-12T07:17:50.410Z</time>
      </trkpt>
      <trkpt lat="44.24838" lon="2.51216">
        <ele>567</ele>
        <time>2022-06-12T07:17:53.664Z</time>
      </trkpt>
      <trkpt lat="44.24837" lon="2.51215">
        <ele>567</ele>
        <time>2022-06-12T07:17:54.664Z</time>
      </trkpt>
      <trkpt lat="44.24836" lon="2.51214">
        <ele>566</ele>
        <time>2022-06-12T07:17:55.664Z</time>
      </trkpt>
      <trkpt lat="44.24835" lon="2.51214">
        <ele>566</ele>
        <time>2022-06-12T07:17:56.664Z</time>
      </trkpt>
      <trkpt lat="44.24833" lon="2.51213">
        <ele>566</ele>
        <time>2022-06-12T07:17:57.664Z</time>
      </trkpt>
      <trkpt lat="44.24832" lon="2.51213">
        <ele>566</ele>
        <time>2022-06-12T07:17:58.664Z</time>
      </trkpt>
      <trkpt lat="44.24831" lon="2.51213">
        <ele>566</ele>
        <time>2022-06-12T07:17:59.664Z</time>
      </trkpt>
      <trkpt lat="44.2483" lon="2.51213">
        <ele>566</ele>
        <time>2022-06-12T07:18:00.664Z</time>
      </trkpt>
      <trkpt lat="44.24829" lon="2.51212">
        <ele>566</ele>
        <time>2022-06-12T07:18:01.664Z</time>
      </trkpt>
      <trkpt lat="44.24828" lon="2.51211">
        <ele>566</ele>
        <time>2022-06-12T07:18:02.664Z</time>
      </trkpt>
      <trkpt lat="44.24827" lon="2.5121">
        <ele>566</ele>
        <time>2022-06-12T07:18:03.664Z</time>
      </trkpt>
      <trkpt lat="44.24826" lon="2.51209">
        <ele>566</ele>
        <time>2022-06-12T07:18:04.664Z</time>
      </trkpt>
      <trkpt lat="44.24826" lon="2.51207">
        <ele>566</ele>
        <time>2022-06-12T07:18:05.664Z</time>
      </trkpt>
      <trkpt lat="44.24825" lon="2.51207">
        <ele>566</ele>
        <time>2022-06-12T07:18:06.664Z</time>
      </trkpt>
      <trkpt lat="44.24825" lon="2.51206">
        <ele>566</ele>
        <time>2022-06-12T07:18:07.664Z</time>
      </trkpt>
      <trkpt lat="44.24824" lon="2.51205">
        <ele>566</ele>
        <time>2022-06-12T07:18:08.664Z</time>
      </trkpt>
      <trkpt lat="44.24824" lon="2.51205">
        <ele>566</ele>
        <time>2022-06-12T07:18:09.664Z</time>
      </trkpt>
      <trkpt lat="44.24824" lon="2.51205">
        <ele>566</ele>
        <time>2022-06-12T07:18:10.664Z</time>
      </trkpt>
      <trkpt lat="44.24824" lon="2.51205">
        <ele>566</ele>
        <time>2022-06-12T07:18:11.664Z</time>
      </trkpt>
      <trkpt lat="44.24823" lon="2.51203">
        <ele>566</ele>
        <time>2022-06-12T07:18:15.675Z</time>
      </trkpt>
      <trkpt lat="44.24823" lon="2.51201">
        <ele>566</ele>
        <time>2022-06-12T07:18:16.675Z</time>
      </trkpt>
      <trkpt lat="44.24822" lon="2.51199">
        <ele>566</ele>
        <time>2022-06-12T07:18:17.675Z</time>
      </trkpt>
      <trkpt lat="44.24822" lon="2.51197">
        <ele>566</ele>
        <time>2022-06-12T07:18:18.675Z</time>
      </trkpt>
      <trkpt lat="44.24821" lon="2.51195">
        <ele>566</ele>
        <time>2022-06-12T07:18:19.675Z</time>
      </trkpt>
      <trkpt lat="44.24821" lon="2.51192">
        <ele>566</ele>
        <time>2022-06-12T07:18:20.675Z</time>
      </trkpt>
      <trkpt lat="44.2482" lon="2.5119">
        <ele>566</ele>
        <time>2022-06-12T07:18:21.675Z</time>
      </trkpt>
      <trkpt lat="44.24819" lon="2.51188">
        <ele>566</ele>
        <time>2022-06-12T07:18:22.675Z</time>
      </trkpt>
      <trkpt lat="44.24818" lon="2.51186">
        <ele>566</ele>
        <time>2022-06-12T07:18:23.675Z</time>
      </trkpt>
      <trkpt lat="44.24818" lon="2.51184">
        <ele>566</ele>
        <time>2022-06-12T07:18:24.675Z</time>
      </trkpt>
      <trkpt lat="44.24817" lon="2.51182">
        <ele>566</ele>
        <time>2022-06-12T07:18:25.675Z</time>
      </trkpt>
      <trkpt lat="44.24817" lon="2.5118">
        <ele>566</ele>
        <time>2022-06-12T07:18:26.675Z</time>
      </trkpt>
      <trkpt lat="44.24816" lon="2.51179">
        <ele>566</ele>
        <time>2022-06-12T07:18:27.675Z</time>
      </trkpt>
      <trkpt lat="44.24815" lon="2.51178">
        <ele>566</ele>
        <time>2022-06-12T07:18:28.675Z</time>
      </trkpt>
      <trkpt lat="44.24814" lon="2.51178">
        <ele>566</ele>
        <time>2022-06-12T07:18:29.675Z</time>
      </trkpt>
      <trkpt lat="44.24813" lon="2.51178">
        <ele>566</ele>
        <time>2022-06-12T07:18:30.675Z</time>
      </trkpt>
      <trkpt lat="44.24811" lon="2.51178">
        <ele>566</ele>
        <time>2022-06-12T07:18:31.675Z</time>
      </trkpt>
      <trkpt lat="44.2481" lon="2.51179">
        <ele>566</ele>
        <time>2022-06-12T07:18:32.675Z</time>
      </trkpt>
      <trkpt lat="44.24808" lon="2.51179">
        <ele>566</ele>
        <time>2022-06-12T07:18:33.675Z</time>
      </trkpt>
      <trkpt lat="44.24806" lon="2.5118">
        <ele>566</ele>
        <time>2022-06-12T07:18:34.675Z</time>
      </trkpt>
      <trkpt lat="44.24805" lon="2.5118">
        <ele>566</ele>
        <time>2022-06-12T07:18:35.675Z</time>
      </trkpt>
      <trkpt lat="44.24803" lon="2.51181">
        <ele>566</ele>
        <time>2022-06-12T07:18:36.675Z</time>
      </trkpt>
      <trkpt lat="44.24802" lon="2.51181">
        <ele>566</ele>
        <time>2022-06-12T07:18:37.675Z</time>
      </trkpt>
      <trkpt lat="44.24801" lon="2.51182">
        <ele>566</ele>
        <time>2022-06-12T07:18:38.675Z</time>
      </trkpt>
      <trkpt lat="44.24799" lon="2.51182">
        <ele>566</ele>
        <time>2022-06-12T07:18:39.675Z</time>
      </trkpt>
      <trkpt lat="44.24797" lon="2.51183">
        <ele>566</ele>
        <time>2022-06-12T07:18:40.675Z</time>
      </trkpt>
      <trkpt lat="44.24795" lon="2.51183">
        <ele>566</ele>
        <time>2022-06-12T07:18:41.675Z</time>
      </trkpt>
      <trkpt lat="44.24794" lon="2.51183">
        <ele>566</ele>
        <time>2022-06-12T07:18:42.675Z</time>
      </trkpt>
      <trkpt lat="44.24792" lon="2.51184">
        <ele>566</ele>
        <time>2022-06-12T07:18:43.675Z</time>
      </trkpt>
      <trkpt lat="44.2479" lon="2.51184">
        <ele>566</ele>
        <time>2022-06-12T07:18:44.675Z</time>
      </trkpt>
      <trkpt lat="44.24789" lon="2.51185">
        <ele>566</ele>
        <time>2022-06-12T07:18:45.675Z</time>
      </trkpt>
      <trkpt lat="44.24787" lon="2.51186">
        <ele>566</ele>
        <time>2022-06-12T07:18:46.675Z</time>
      </trkpt>
      <trkpt lat="44.24785" lon="2.51186">
        <ele>566</ele>
        <time>2022-06-12T07:18:47.675Z</time>
      </trkpt>
      <trkpt lat="44.24784" lon="2.51185">
        <ele>566</ele>
        <time>2022-06-12T07:18:48.675Z</time>
      </trkpt>
      <trkpt lat="44.24783" lon="2.51186">
        <ele>566</ele>
        <time>2022-06-12T07:18:49.675Z</time>
      </trkpt>
      <trkpt lat="44.24782" lon="2.51186">
        <ele>566</ele>
        <time>2022-06-12T07:18:50.675Z</time>
      </trkpt>
      <trkpt lat="44.2478" lon="2.51188">
        <ele>566</ele>
        <time>2022-06-12T07:18:51.675Z</time>
      </trkpt>
      <trkpt lat="44.24779" lon="2.51189">
        <ele>565</ele>
        <time>2022-06-12T07:18:52.675Z</time>
      </trkpt>
      <trkpt lat="44.24778" lon="2.51189">
        <ele>565</ele>
        <time>2022-06-12T07:18:53.675Z</time>
      </trkpt>
      <trkpt lat="44.24776" lon="2.5119">
        <ele>565</ele>
        <time>2022-06-12T07:18:54.675Z</time>
      </trkpt>
      <trkpt lat="44.24775" lon="2.51191">
        <ele>565</ele>
        <time>2022-06-12T07:18:55.675Z</time>
      </trkpt>
      <trkpt lat="44.24774" lon="2.51192">
        <ele>565</ele>
        <time>2022-06-12T07:18:56.675Z</time>
      </trkpt>
      <trkpt lat="44.24773" lon="2.51192">
        <ele>564</ele>
        <time>2022-06-12T07:18:57.675Z</time>
      </trkpt>
      <trkpt lat="44.24771" lon="2.51193">
        <ele>564</ele>
        <time>2022-06-12T07:18:58.675Z</time>
      </trkpt>
      <trkpt lat="44.2477" lon="2.51194">
        <ele>564</ele>
        <time>2022-06-12T07:18:59.675Z</time>
      </trkpt>
      <trkpt lat="44.24769" lon="2.51195">
        <ele>564</ele>
        <time>2022-06-12T07:19:00.675Z</time>
      </trkpt>
      <trkpt lat="44.24767" lon="2.51195">
        <ele>564</ele>
        <time>2022-06-12T07:19:01.675Z</time>
      </trkpt>
      <trkpt lat="44.24766" lon="2.51195">
        <ele>563</ele>
        <time>2022-06-12T07:19:02.675Z</time>
      </trkpt>
      <trkpt lat="44.24765" lon="2.51196">
        <ele>563</ele>
        <time>2022-06-12T07:19:03.675Z</time>
      </trkpt>
      <trkpt lat="44.24763" lon="2.51196">
        <ele>563</ele>
        <time>2022-06-12T07:19:04.675Z</time>
      </trkpt>
      <trkpt lat="44.24762" lon="2.51196">
        <ele>563</ele>
        <time>2022-06-12T07:19:05.675Z</time>
      </trkpt>
      <trkpt lat="44.2476" lon="2.51196">
        <ele>563</ele>
        <time>2022-06-12T07:19:06.675Z</time>
      </trkpt>
      <trkpt lat="44.24759" lon="2.51196">
        <ele>563</ele>
        <time>2022-06-12T07:19:07.675Z</time>
      </trkpt>
      <trkpt lat="44.24757" lon="2.51196">
        <ele>563</ele>
        <time>2022-06-12T07:19:08.675Z</time>
      </trkpt>
      <trkpt lat="44.24756" lon="2.51196">
        <ele>563</ele>
        <time>2022-06-12T07:19:09.675Z</time>
      </trkpt>
      <trkpt lat="44.24755" lon="2.51196">
        <ele>562</ele>
        <time>2022-06-12T07:19:10.675Z</time>
      </trkpt>
      <trkpt lat="44.24753" lon="2.51197">
        <ele>562</ele>
        <time>2022-06-12T07:19:11.675Z</time>
      </trkpt>
      <trkpt lat="44.24752" lon="2.51197">
        <ele>562</ele>
        <time>2022-06-12T07:19:12.675Z</time>
      </trkpt>
      <trkpt lat="44.2475" lon="2.51197">
        <ele>562</ele>
        <time>2022-06-12T07:19:13.675Z</time>
      </trkpt>
      <trkpt lat="44.24749" lon="2.51197">
        <ele>562</ele>
        <time>2022-06-12T07:19:14.675Z</time>
      </trkpt>
      <trkpt lat="44.24748" lon="2.51197">
        <ele>562</ele>
        <time>2022-06-12T07:19:15.675Z</time>
      </trkpt>
      <trkpt lat="44.24746" lon="2.51198">
        <ele>561</ele>
        <time>2022-06-12T07:19:16.675Z</time>
      </trkpt>
      <trkpt lat="44.24745" lon="2.51198">
        <ele>561</ele>
        <time>2022-06-12T07:19:17.675Z</time>
      </trkpt>
      <trkpt lat="44.24744" lon="2.51198">
        <ele>561</ele>
        <time>2022-06-12T07:19:18.675Z</time>
      </trkpt>
      <trkpt lat="44.24743" lon="2.51198">
        <ele>561</ele>
        <time>2022-06-12T07:19:19.675Z</time>
      </trkpt>
      <trkpt lat="44.24741" lon="2.51199">
        <ele>561</ele>
        <time>2022-06-12T07:19:20.675Z</time>
      </trkpt>
      <trkpt lat="44.2474" lon="2.51199">
        <ele>561</ele>
        <time>2022-06-12T07:19:21.675Z</time>
      </trkpt>
      <trkpt lat="44.24739" lon="2.51199">
        <ele>561</ele>
        <time>2022-06-12T07:19:22.675Z</time>
      </trkpt>
      <trkpt lat="44.24737" lon="2.51199">
        <ele>561</ele>
        <time>2022-06-12T07:19:23.675Z</time>
      </trkpt>
      <trkpt lat="44.24736" lon="2.51199">
        <ele>561</ele>
        <time>2022-06-12T07:19:24.675Z</time>
      </trkpt>
      <trkpt lat="44.24735" lon="2.51199">
        <ele>561</ele>
        <time>2022-06-12T07:19:25.675Z</time>
      </trkpt>
      <trkpt lat="44.24733" lon="2.51199">
        <ele>561</ele>
        <time>2022-06-12T07:19:26.675Z</time>
      </trkpt>
      <trkpt lat="44.24732" lon="2.51198">
        <ele>561</ele>
        <time>2022-06-12T07:19:27.675Z</time>
      </trkpt>
      <trkpt lat="44.24731" lon="2.51198">
        <ele>561</ele>
        <time>2022-06-12T07:19:28.675Z</time>
      </trkpt>
      <trkpt lat="44.24729" lon="2.51199">
        <ele>561</ele>
        <time>2022-06-12T07:19:29.675Z</time>
      </trkpt>
      <trkpt lat="44.24728" lon="2.51199">
        <ele>561</ele>
        <time>2022-06-12T07:19:30.675Z</time>
      </trkpt>
      <trkpt lat="44.24727" lon="2.51199">
        <ele>561</ele>
        <time>2022-06-12T07:19:31.675Z</time>
      </trkpt>
      <trkpt lat="44.24725" lon="2.512">
        <ele>561</ele>
        <time>2022-06-12T07:19:32.675Z</time>
      </trkpt>
      <trkpt lat="44.24724" lon="2.512">
        <ele>561</ele>
        <time>2022-06-12T07:19:33.675Z</time>
      </trkpt>
      <trkpt lat="44.24722" lon="2.512">
        <ele>561</ele>
        <time>2022-06-12T07:19:34.675Z</time>
      </trkpt>
      <trkpt lat="44.24721" lon="2.51201">
        <ele>561</ele>
        <time>2022-06-12T07:19:35.675Z</time>
      </trkpt>
      <trkpt lat="44.2472" lon="2.51201">
        <ele>561</ele>
        <time>2022-06-12T07:19:36.675Z</time>
      </trkpt>
      <trkpt lat="44.24718" lon="2.51202">
        <ele>561</ele>
        <time>2022-06-12T07:19:37.675Z</time>
      </trkpt>
      <trkpt lat="44.24717" lon="2.51202">
        <ele>561</ele>
        <time>2022-06-12T07:19:38.675Z</time>
      </trkpt>
      <trkpt lat="44.24716" lon="2.51202">
        <ele>561</ele>
        <time>2022-06-12T07:19:39.675Z</time>
      </trkpt>
      <trkpt lat="44.24715" lon="2.51202">
        <ele>561</ele>
        <time>2022-06-12T07:19:40.675Z</time>
      </trkpt>
      <trkpt lat="44.24715" lon="2.51202">
        <ele>561</ele>
        <time>2022-06-12T07:19:41.675Z</time>
      </trkpt>
      <trkpt lat="44.24715" lon="2.51202">
        <ele>561</ele>
        <time>2022-06-12T07:19:42.675Z</time>
      </trkpt>
      <trkpt lat="44.24714" lon="2.51201">
        <ele>561</ele>
        <time>2022-06-12T07:19:43.675Z</time>
      </trkpt>
      <trkpt lat="44.24714" lon="2.51201">
        <ele>561</ele>
        <time>2022-06-12T07:19:44.675Z</time>
      </trkpt>
      <trkpt lat="44.24713" lon="2.51202">
        <ele>562</ele>
        <time>2022-06-12T07:19:51.686Z</time>
      </trkpt>
      <trkpt lat="44.24713" lon="2.51202">
        <ele>561</ele>
        <time>2022-06-12T07:19:52.686Z</time>
      </trkpt>
      <trkpt lat="44.24712" lon="2.51202">
        <ele>561</ele>
        <time>2022-06-12T07:19:53.686Z</time>
      </trkpt>
      <trkpt lat="44.24711" lon="2.51202">
        <ele>561</ele>
        <time>2022-06-12T07:19:54.686Z</time>
      </trkpt>
      <trkpt lat="44.24709" lon="2.51203">
        <ele>561</ele>
        <time>2022-06-12T07:19:55.686Z</time>
      </trkpt>
      <trkpt lat="44.24708" lon="2.51203">
        <ele>561</ele>
        <time>2022-06-12T07:19:56.686Z</time>
      </trkpt>
      <trkpt lat="44.24707" lon="2.51203">
        <ele>561</ele>
        <time>2022-06-12T07:19:57.686Z</time>
      </trkpt>
      <trkpt lat="44.24706" lon="2.51203">
        <ele>561</ele>
        <time>2022-06-12T07:19:58.686Z</time>
      </trkpt>
      <trkpt lat="44.24706" lon="2.51203">
        <ele>561</ele>
        <time>2022-06-12T07:19:59.686Z</time>
      </trkpt>
      <trkpt lat="44.24705" lon="2.51203">
        <ele>561</ele>
        <time>2022-06-12T07:20:00.686Z</time>
      </trkpt>
      <trkpt lat="44.24704" lon="2.51203">
        <ele>561</ele>
        <time>2022-06-12T07:20:01.686Z</time>
      </trkpt>
      <trkpt lat="44.24703" lon="2.51203">
        <ele>561</ele>
        <time>2022-06-12T07:20:02.686Z</time>
      </trkpt>
      <trkpt lat="44.24702" lon="2.51204">
        <ele>561</ele>
        <time>2022-06-12T07:20:03.686Z</time>
      </trkpt>
      <trkpt lat="44.24701" lon="2.51204">
        <ele>561</ele>
        <time>2022-06-12T07:20:04.686Z</time>
      </trkpt>
      <trkpt lat="44.247" lon="2.51204">
        <ele>561</ele>
        <time>2022-06-12T07:20:05.686Z</time>
      </trkpt>
      <trkpt lat="44.24699" lon="2.51204">
        <ele>561</ele>
        <time>2022-06-12T07:20:06.686Z</time>
      </trkpt>
      <trkpt lat="44.24698" lon="2.51204">
        <ele>561</ele>
        <time>2022-06-12T07:20:07.686Z</time>
      </trkpt>
      <trkpt lat="44.24697" lon="2.51204">
        <ele>561</ele>
        <time>2022-06-12T07:20:08.686Z</time>
      </trkpt>
      <trkpt lat="44.24696" lon="2.51205">
        <ele>561</ele>
        <time>2022-06-12T07:20:09.686Z</time>
      </trkpt>
      <trkpt lat="44.24695" lon="2.51204">
        <ele>561</ele>
        <time>2022-06-12T07:20:10.686Z</time>
      </trkpt>
      <trkpt lat="44.24695" lon="2.51204">
        <ele>561</ele>
        <time>2022-06-12T07:20:11.686Z</time>
      </trkpt>
      <trkpt lat="44.24694" lon="2.51204">
        <ele>561</ele>
        <time>2022-06-12T07:20:12.686Z</time>
      </trkpt>
      <trkpt lat="44.24693" lon="2.51204">
        <ele>561</ele>
        <time>2022-06-12T07:20:13.686Z</time>
      </trkpt>
      <trkpt lat="44.24692" lon="2.51203">
        <ele>561</ele>
        <time>2022-06-12T07:20:14.686Z</time>
      </trkpt>
      <trkpt lat="44.24692" lon="2.51203">
        <ele>561</ele>
        <time>2022-06-12T07:20:15.686Z</time>
      </trkpt>
      <trkpt lat="44.24691" lon="2.51203">
        <ele>561</ele>
        <time>2022-06-12T07:20:16.686Z</time>
      </trkpt>
      <trkpt lat="44.2469" lon="2.51202">
        <ele>561</ele>
        <time>2022-06-12T07:20:17.686Z</time>
      </trkpt>
      <trkpt lat="44.24689" lon="2.51201">
        <ele>561</ele>
        <time>2022-06-12T07:20:18.686Z</time>
      </trkpt>
      <trkpt lat="44.24688" lon="2.51201">
        <ele>561</ele>
        <time>2022-06-12T07:20:19.686Z</time>
      </trkpt>
      <trkpt lat="44.24687" lon="2.512">
        <ele>561</ele>
        <time>2022-06-12T07:20:20.686Z</time>
      </trkpt>
      <trkpt lat="44.24686" lon="2.51199">
        <ele>561</ele>
        <time>2022-06-12T07:20:21.686Z</time>
      </trkpt>
      <trkpt lat="44.24685" lon="2.51198">
        <ele>561</ele>
        <time>2022-06-12T07:20:22.686Z</time>
      </trkpt>
      <trkpt lat="44.24684" lon="2.51197">
        <ele>561</ele>
        <time>2022-06-12T07:20:23.686Z</time>
      </trkpt>
      <trkpt lat="44.24683" lon="2.51196">
        <ele>561</ele>
        <time>2022-06-12T07:20:24.686Z</time>
      </trkpt>
      <trkpt lat="44.24682" lon="2.51195">
        <ele>561</ele>
        <time>2022-06-12T07:20:25.686Z</time>
      </trkpt>
      <trkpt lat="44.24681" lon="2.51194">
        <ele>561</ele>
        <time>2022-06-12T07:20:26.686Z</time>
      </trkpt>
      <trkpt lat="44.2468" lon="2.51193">
        <ele>562</ele>
        <time>2022-06-12T07:20:27.686Z</time>
      </trkpt>
      <trkpt lat="44.2468" lon="2.51191">
        <ele>562</ele>
        <time>2022-06-12T07:20:28.686Z</time>
      </trkpt>
      <trkpt lat="44.24679" lon="2.5119">
        <ele>562</ele>
        <time>2022-06-12T07:20:29.686Z</time>
      </trkpt>
      <trkpt lat="44.24678" lon="2.51188">
        <ele>562</ele>
        <time>2022-06-12T07:20:30.686Z</time>
      </trkpt>
      <trkpt lat="44.24678" lon="2.51187">
        <ele>562</ele>
        <time>2022-06-12T07:20:31.686Z</time>
      </trkpt>
      <trkpt lat="44.24677" lon="2.51185">
        <ele>562</ele>
        <time>2022-06-12T07:20:32.686Z</time>
      </trkpt>
      <trkpt lat="44.24677" lon="2.51184">
        <ele>563</ele>
        <time>2022-06-12T07:20:33.686Z</time>
      </trkpt>
      <trkpt lat="44.24676" lon="2.51183">
        <ele>563</ele>
        <time>2022-06-12T07:20:34.686Z</time>
      </trkpt>
      <trkpt lat="44.24675" lon="2.51182">
        <ele>563</ele>
        <time>2022-06-12T07:20:35.686Z</time>
      </trkpt>
      <trkpt lat="44.24674" lon="2.5118">
        <ele>563</ele>
        <time>2022-06-12T07:20:36.686Z</time>
      </trkpt>
      <trkpt lat="44.24673" lon="2.51179">
        <ele>564</ele>
        <time>2022-06-12T07:20:37.686Z</time>
      </trkpt>
      <trkpt lat="44.24672" lon="2.51177">
        <ele>564</ele>
        <time>2022-06-12T07:20:38.686Z</time>
      </trkpt>
      <trkpt lat="44.24672" lon="2.51176">
        <ele>564</ele>
        <time>2022-06-12T07:20:39.686Z</time>
      </trkpt>
      <trkpt lat="44.24671" lon="2.51175">
        <ele>564</ele>
        <time>2022-06-12T07:20:40.686Z</time>
      </trkpt>
      <trkpt lat="44.24671" lon="2.51174">
        <ele>565</ele>
        <time>2022-06-12T07:20:41.686Z</time>
      </trkpt>
      <trkpt lat="44.24671" lon="2.51173">
        <ele>565</ele>
        <time>2022-06-12T07:20:42.686Z</time>
      </trkpt>
      <trkpt lat="44.24671" lon="2.51172">
        <ele>565</ele>
        <time>2022-06-12T07:20:43.686Z</time>
      </trkpt>
      <trkpt lat="44.24671" lon="2.51171">
        <ele>566</ele>
        <time>2022-06-12T07:20:44.686Z</time>
      </trkpt>
      <trkpt lat="44.2467" lon="2.5117">
        <ele>566</ele>
        <time>2022-06-12T07:20:45.686Z</time>
      </trkpt>
      <trkpt lat="44.2467" lon="2.51168">
        <ele>566</ele>
        <time>2022-06-12T07:20:46.686Z</time>
      </trkpt>
      <trkpt lat="44.24669" lon="2.51167">
        <ele>566</ele>
        <time>2022-06-12T07:20:47.686Z</time>
      </trkpt>
      <trkpt lat="44.24669" lon="2.51166">
        <ele>566</ele>
        <time>2022-06-12T07:20:48.686Z</time>
      </trkpt>
      <trkpt lat="44.24668" lon="2.51165">
        <ele>566</ele>
        <time>2022-06-12T07:20:49.686Z</time>
      </trkpt>
      <trkpt lat="44.24668" lon="2.51164">
        <ele>567</ele>
        <time>2022-06-12T07:20:50.686Z</time>
      </trkpt>
      <trkpt lat="44.24668" lon="2.51163">
        <ele>567</ele>
        <time>2022-06-12T07:20:51.686Z</time>
      </trkpt>
      <trkpt lat="44.24667" lon="2.51162">
        <ele>567</ele>
        <time>2022-06-12T07:20:52.686Z</time>
      </trkpt>
      <trkpt lat="44.24667" lon="2.5116">
        <ele>567</ele>
        <time>2022-06-12T07:20:53.686Z</time>
      </trkpt>
      <trkpt lat="44.24667" lon="2.51159">
        <ele>567</ele>
        <time>2022-06-12T07:20:54.686Z</time>
      </trkpt>
      <trkpt lat="44.24667" lon="2.51158">
        <ele>567</ele>
        <time>2022-06-12T07:20:55.686Z</time>
      </trkpt>
      <trkpt lat="44.24667" lon="2.51156">
        <ele>568</ele>
        <time>2022-06-12T07:20:56.686Z</time>
      </trkpt>
      <trkpt lat="44.24667" lon="2.51155">
        <ele>568</ele>
        <time>2022-06-12T07:20:57.686Z</time>
      </trkpt>
      <trkpt lat="44.24668" lon="2.51154">
        <ele>568</ele>
        <time>2022-06-12T07:20:58.686Z</time>
      </trkpt>
      <trkpt lat="44.24668" lon="2.51152">
        <ele>568</ele>
        <time>2022-06-12T07:20:59.686Z</time>
      </trkpt>
      <trkpt lat="44.24668" lon="2.51151">
        <ele>569</ele>
        <time>2022-06-12T07:21:00.686Z</time>
      </trkpt>
      <trkpt lat="44.24668" lon="2.5115">
        <ele>569</ele>
        <time>2022-06-12T07:21:01.686Z</time>
      </trkpt>
      <trkpt lat="44.24668" lon="2.5115">
        <ele>569</ele>
        <time>2022-06-12T07:21:02.686Z</time>
      </trkpt>
      <trkpt lat="44.24667" lon="2.51149">
        <ele>569</ele>
        <time>2022-06-12T07:21:03.686Z</time>
      </trkpt>
      <trkpt lat="44.24666" lon="2.51149">
        <ele>570</ele>
        <time>2022-06-12T07:21:04.686Z</time>
      </trkpt>
      <trkpt lat="44.24666" lon="2.51149">
        <ele>570</ele>
        <time>2022-06-12T07:21:05.686Z</time>
      </trkpt>
      <trkpt lat="44.24665" lon="2.51149">
        <ele>570</ele>
        <time>2022-06-12T07:21:06.686Z</time>
      </trkpt>
      <trkpt lat="44.24664" lon="2.51149">
        <ele>570</ele>
        <time>2022-06-12T07:21:07.686Z</time>
      </trkpt>
      <trkpt lat="44.24663" lon="2.5115">
        <ele>570</ele>
        <time>2022-06-12T07:21:08.686Z</time>
      </trkpt>
      <trkpt lat="44.24663" lon="2.51151">
        <ele>570</ele>
        <time>2022-06-12T07:21:09.686Z</time>
      </trkpt>
      <trkpt lat="44.24662" lon="2.51153">
        <ele>571</ele>
        <time>2022-06-12T07:21:10.686Z</time>
      </trkpt>
      <trkpt lat="44.24662" lon="2.51154">
        <ele>571</ele>
        <time>2022-06-12T07:21:11.686Z</time>
      </trkpt>
      <trkpt lat="44.24662" lon="2.51155">
        <ele>571</ele>
        <time>2022-06-12T07:21:12.686Z</time>
      </trkpt>
      <trkpt lat="44.24661" lon="2.51156">
        <ele>571</ele>
        <time>2022-06-12T07:21:13.686Z</time>
      </trkpt>
      <trkpt lat="44.24661" lon="2.51158">
        <ele>571</ele>
        <time>2022-06-12T07:21:14.686Z</time>
      </trkpt>
      <trkpt lat="44.24661" lon="2.51158">
        <ele>571</ele>
        <time>2022-06-12T07:21:15.686Z</time>
      </trkpt>
      <trkpt lat="44.24661" lon="2.5116">
        <ele>572</ele>
        <time>2022-06-12T07:21:16.686Z</time>
      </trkpt>
      <trkpt lat="44.24661" lon="2.51161">
        <ele>572</ele>
        <time>2022-06-12T07:21:17.686Z</time>
      </trkpt>
      <trkpt lat="44.2466" lon="2.51162">
        <ele>572</ele>
        <time>2022-06-12T07:21:18.686Z</time>
      </trkpt>
      <trkpt lat="44.2466" lon="2.51163">
        <ele>572</ele>
        <time>2022-06-12T07:21:19.686Z</time>
      </trkpt>
      <trkpt lat="44.2466" lon="2.51164">
        <ele>572</ele>
        <time>2022-06-12T07:21:20.686Z</time>
      </trkpt>
      <trkpt lat="44.2466" lon="2.51165">
        <ele>573</ele>
        <time>2022-06-12T07:21:21.686Z</time>
      </trkpt>
      <trkpt lat="44.2466" lon="2.51166">
        <ele>573</ele>
        <time>2022-06-12T07:21:22.686Z</time>
      </trkpt>
      <trkpt lat="44.2466" lon="2.51167">
        <ele>573</ele>
        <time>2022-06-12T07:21:23.686Z</time>
      </trkpt>
      <trkpt lat="44.2466" lon="2.51169">
        <ele>573</ele>
        <time>2022-06-12T07:21:24.686Z</time>
      </trkpt>
      <trkpt lat="44.2466" lon="2.5117">
        <ele>573</ele>
        <time>2022-06-12T07:21:25.686Z</time>
      </trkpt>
      <trkpt lat="44.2466" lon="2.51171">
        <ele>573</ele>
        <time>2022-06-12T07:21:26.686Z</time>
      </trkpt>
      <trkpt lat="44.2466" lon="2.51172">
        <ele>573</ele>
        <time>2022-06-12T07:21:27.686Z</time>
      </trkpt>
      <trkpt lat="44.24659" lon="2.51173">
        <ele>574</ele>
        <time>2022-06-12T07:21:28.686Z</time>
      </trkpt>
      <trkpt lat="44.24659" lon="2.51174">
        <ele>574</ele>
        <time>2022-06-12T07:21:29.686Z</time>
      </trkpt>
      <trkpt lat="44.24659" lon="2.51175">
        <ele>574</ele>
        <time>2022-06-12T07:21:30.686Z</time>
      </trkpt>
      <trkpt lat="44.24659" lon="2.51177">
        <ele>574</ele>
        <time>2022-06-12T07:21:31.686Z</time>
      </trkpt>
      <trkpt lat="44.24658" lon="2.51178">
        <ele>574</ele>
        <time>2022-06-12T07:21:32.686Z</time>
      </trkpt>
      <trkpt lat="44.24658" lon="2.51179">
        <ele>574</ele>
        <time>2022-06-12T07:21:33.686Z</time>
      </trkpt>
      <trkpt lat="44.24658" lon="2.5118">
        <ele>575</ele>
        <time>2022-06-12T07:21:34.686Z</time>
      </trkpt>
      <trkpt lat="44.24657" lon="2.51181">
        <ele>575</ele>
        <time>2022-06-12T07:21:35.686Z</time>
      </trkpt>
      <trkpt lat="44.24657" lon="2.51183">
        <ele>575</ele>
        <time>2022-06-12T07:21:36.686Z</time>
      </trkpt>
      <trkpt lat="44.24656" lon="2.51184">
        <ele>575</ele>
        <time>2022-06-12T07:21:37.686Z</time>
      </trkpt>
      <trkpt lat="44.24656" lon="2.51185">
        <ele>575</ele>
        <time>2022-06-12T07:21:38.686Z</time>
      </trkpt>
      <trkpt lat="44.24656" lon="2.51186">
        <ele>575</ele>
        <time>2022-06-12T07:21:39.686Z</time>
      </trkpt>
      <trkpt lat="44.24655" lon="2.51187">
        <ele>575</ele>
        <time>2022-06-12T07:21:40.686Z</time>
      </trkpt>
      <trkpt lat="44.24655" lon="2.51188">
        <ele>575</ele>
        <time>2022-06-12T07:21:41.686Z</time>
      </trkpt>
      <trkpt lat="44.24655" lon="2.5119">
        <ele>575</ele>
        <time>2022-06-12T07:21:42.686Z</time>
      </trkpt>
      <trkpt lat="44.24655" lon="2.5119">
        <ele>575</ele>
        <time>2022-06-12T07:21:43.686Z</time>
      </trkpt>
      <trkpt lat="44.24654" lon="2.51192">
        <ele>575</ele>
        <time>2022-06-12T07:21:44.686Z</time>
      </trkpt>
      <trkpt lat="44.24654" lon="2.51193">
        <ele>575</ele>
        <time>2022-06-12T07:21:45.686Z</time>
      </trkpt>
      <trkpt lat="44.24654" lon="2.51195">
        <ele>575</ele>
        <time>2022-06-12T07:21:46.686Z</time>
      </trkpt>
      <trkpt lat="44.24653" lon="2.51196">
        <ele>575</ele>
        <time>2022-06-12T07:21:47.686Z</time>
      </trkpt>
      <trkpt lat="44.24653" lon="2.51198">
        <ele>575</ele>
        <time>2022-06-12T07:21:48.686Z</time>
      </trkpt>
      <trkpt lat="44.24652" lon="2.51199">
        <ele>575</ele>
        <time>2022-06-12T07:21:49.686Z</time>
      </trkpt>
      <trkpt lat="44.24652" lon="2.512">
        <ele>575</ele>
        <time>2022-06-12T07:21:50.686Z</time>
      </trkpt>
      <trkpt lat="44.24652" lon="2.51202">
        <ele>576</ele>
        <time>2022-06-12T07:21:51.686Z</time>
      </trkpt>
      <trkpt lat="44.24652" lon="2.51203">
        <ele>576</ele>
        <time>2022-06-12T07:21:52.686Z</time>
      </trkpt>
      <trkpt lat="44.24651" lon="2.51204">
        <ele>576</ele>
        <time>2022-06-12T07:21:53.686Z</time>
      </trkpt>
      <trkpt lat="44.24651" lon="2.51206">
        <ele>576</ele>
        <time>2022-06-12T07:21:54.686Z</time>
      </trkpt>
      <trkpt lat="44.24651" lon="2.51207">
        <ele>576</ele>
        <time>2022-06-12T07:21:55.686Z</time>
      </trkpt>
      <trkpt lat="44.24651" lon="2.51209">
        <ele>576</ele>
        <time>2022-06-12T07:21:56.686Z</time>
      </trkpt>
      <trkpt lat="44.2465" lon="2.5121">
        <ele>576</ele>
        <time>2022-06-12T07:21:57.686Z</time>
      </trkpt>
      <trkpt lat="44.2465" lon="2.51211">
        <ele>576</ele>
        <time>2022-06-12T07:21:58.686Z</time>
      </trkpt>
      <trkpt lat="44.2465" lon="2.51213">
        <ele>576</ele>
        <time>2022-06-12T07:21:59.686Z</time>
      </trkpt>
      <trkpt lat="44.2465" lon="2.51214">
        <ele>576</ele>
        <time>2022-06-12T07:22:00.686Z</time>
      </trkpt>
      <trkpt lat="44.2465" lon="2.51216">
        <ele>577</ele>
        <time>2022-06-12T07:22:01.686Z</time>
      </trkpt>
      <trkpt lat="44.2465" lon="2.51217">
        <ele>577</ele>
        <time>2022-06-12T07:22:02.686Z</time>
      </trkpt>
      <trkpt lat="44.2465" lon="2.51218">
        <ele>577</ele>
        <time>2022-06-12T07:22:03.686Z</time>
      </trkpt>
      <trkpt lat="44.24649" lon="2.51219">
        <ele>577</ele>
        <time>2022-06-12T07:22:04.686Z</time>
      </trkpt>
      <trkpt lat="44.24649" lon="2.5122">
        <ele>577</ele>
        <time>2022-06-12T07:22:05.686Z</time>
      </trkpt>
      <trkpt lat="44.24649" lon="2.51221">
        <ele>577</ele>
        <time>2022-06-12T07:22:06.686Z</time>
      </trkpt>
      <trkpt lat="44.24649" lon="2.51221">
        <ele>577</ele>
        <time>2022-06-12T07:22:07.686Z</time>
      </trkpt>
      <trkpt lat="44.24649" lon="2.51221">
        <ele>577</ele>
        <time>2022-06-12T07:22:08.686Z</time>
      </trkpt>
      <trkpt lat="44.24649" lon="2.51221">
        <ele>577</ele>
        <time>2022-06-12T07:22:09.686Z</time>
      </trkpt>
      <trkpt lat="44.2465" lon="2.51224">
        <ele>577</ele>
        <time>2022-06-12T07:22:30.686Z</time>
      </trkpt>
      <trkpt lat="44.2465" lon="2.51225">
        <ele>577</ele>
        <time>2022-06-12T07:22:31.686Z</time>
      </trkpt>
      <trkpt lat="44.2465" lon="2.51226">
        <ele>577</ele>
        <time>2022-06-12T07:22:32.686Z</time>
      </trkpt>
      <trkpt lat="44.2465" lon="2.51227">
        <ele>578</ele>
        <time>2022-06-12T07:22:33.686Z</time>
      </trkpt>
      <trkpt lat="44.2465" lon="2.51229">
        <ele>578</ele>
        <time>2022-06-12T07:22:34.686Z</time>
      </trkpt>
      <trkpt lat="44.2465" lon="2.5123">
        <ele>578</ele>
        <time>2022-06-12T07:22:35.686Z</time>
      </trkpt>
      <trkpt lat="44.2465" lon="2.51232">
        <ele>578</ele>
        <time>2022-06-12T07:22:36.686Z</time>
      </trkpt>
      <trkpt lat="44.2465" lon="2.51233">
        <ele>578</ele>
        <time>2022-06-12T07:22:37.686Z</time>
      </trkpt>
      <trkpt lat="44.2465" lon="2.51235">
        <ele>578</ele>
        <time>2022-06-12T07:22:38.686Z</time>
      </trkpt>
      <trkpt lat="44.2465" lon="2.51237">
        <ele>578</ele>
        <time>2022-06-12T07:22:39.686Z</time>
      </trkpt>
      <trkpt lat="44.2465" lon="2.51238">
        <ele>578</ele>
        <time>2022-06-12T07:22:40.686Z</time>
      </trkpt>
      <trkpt lat="44.2465" lon="2.51239">
        <ele>578</ele>
        <time>2022-06-12T07:22:41.686Z</time>
      </trkpt>
      <trkpt lat="44.2465" lon="2.51241">
        <ele>578</ele>
        <time>2022-06-12T07:22:42.686Z</time>
      </trkpt>
      <trkpt lat="44.2465" lon="2.51243">
        <ele>578</ele>
        <time>2022-06-12T07:22:43.686Z</time>
      </trkpt>
      <trkpt lat="44.2465" lon="2.51244">
        <ele>578</ele>
        <time>2022-06-12T07:22:44.686Z</time>
      </trkpt>
      <trkpt lat="44.2465" lon="2.51246">
        <ele>578</ele>
        <time>2022-06-12T07:22:45.686Z</time>
      </trkpt>
      <trkpt lat="44.2465" lon="2.51247">
        <ele>578</ele>
        <time>2022-06-12T07:22:46.686Z</time>
      </trkpt>
      <trkpt lat="44.24651" lon="2.51249">
        <ele>578</ele>
        <time>2022-06-12T07:22:47.686Z</time>
      </trkpt>
      <trkpt lat="44.24651" lon="2.51251">
        <ele>579</ele>
        <time>2022-06-12T07:22:48.686Z</time>
      </trkpt>
      <trkpt lat="44.24651" lon="2.51252">
        <ele>579</ele>
        <time>2022-06-12T07:22:49.686Z</time>
      </trkpt>
      <trkpt lat="44.24651" lon="2.51254">
        <ele>578</ele>
        <time>2022-06-12T07:22:50.686Z</time>
      </trkpt>
      <trkpt lat="44.24652" lon="2.51255">
        <ele>578</ele>
        <time>2022-06-12T07:22:51.686Z</time>
      </trkpt>
      <trkpt lat="44.24652" lon="2.51257">
        <ele>578</ele>
        <time>2022-06-12T07:22:52.686Z</time>
      </trkpt>
      <trkpt lat="44.24652" lon="2.51259">
        <ele>578</ele>
        <time>2022-06-12T07:22:53.686Z</time>
      </trkpt>
      <trkpt lat="44.24652" lon="2.51261">
        <ele>578</ele>
        <time>2022-06-12T07:22:54.686Z</time>
      </trkpt>
      <trkpt lat="44.24652" lon="2.51263">
        <ele>578</ele>
        <time>2022-06-12T07:22:55.686Z</time>
      </trkpt>
      <trkpt lat="44.24652" lon="2.51264">
        <ele>578</ele>
        <time>2022-06-12T07:22:56.686Z</time>
      </trkpt>
      <trkpt lat="44.24652" lon="2.51266">
        <ele>578</ele>
        <time>2022-06-12T07:22:57.686Z</time>
      </trkpt>
      <trkpt lat="44.24652" lon="2.51268">
        <ele>578</ele>
        <time>2022-06-12T07:22:58.686Z</time>
      </trkpt>
      <trkpt lat="44.24652" lon="2.5127">
        <ele>578</ele>
        <time>2022-06-12T07:22:59.686Z</time>
      </trkpt>
      <trkpt lat="44.24651" lon="2.51271">
        <ele>578</ele>
        <time>2022-06-12T07:23:00.686Z</time>
      </trkpt>
      <trkpt lat="44.24651" lon="2.51273">
        <ele>578</ele>
        <time>2022-06-12T07:23:01.686Z</time>
      </trkpt>
      <trkpt lat="44.24651" lon="2.51275">
        <ele>578</ele>
        <time>2022-06-12T07:23:02.686Z</time>
      </trkpt>
      <trkpt lat="44.2465" lon="2.51277">
        <ele>578</ele>
        <time>2022-06-12T07:23:03.686Z</time>
      </trkpt>
      <trkpt lat="44.2465" lon="2.51279">
        <ele>578</ele>
        <time>2022-06-12T07:23:04.686Z</time>
      </trkpt>
      <trkpt lat="44.2465" lon="2.51281">
        <ele>578</ele>
        <time>2022-06-12T07:23:05.686Z</time>
      </trkpt>
      <trkpt lat="44.24649" lon="2.51282">
        <ele>578</ele>
        <time>2022-06-12T07:23:06.686Z</time>
      </trkpt>
      <trkpt lat="44.24648" lon="2.51284">
        <ele>578</ele>
        <time>2022-06-12T07:23:07.686Z</time>
      </trkpt>
      <trkpt lat="44.24648" lon="2.51286">
        <ele>578</ele>
        <time>2022-06-12T07:23:08.686Z</time>
      </trkpt>
      <trkpt lat="44.24647" lon="2.51287">
        <ele>578</ele>
        <time>2022-06-12T07:23:09.686Z</time>
      </trkpt>
      <trkpt lat="44.24646" lon="2.51289">
        <ele>578</ele>
        <time>2022-06-12T07:23:10.686Z</time>
      </trkpt>
      <trkpt lat="44.24645" lon="2.51291">
        <ele>579</ele>
        <time>2022-06-12T07:23:11.686Z</time>
      </trkpt>
      <trkpt lat="44.24644" lon="2.51292">
        <ele>579</ele>
        <time>2022-06-12T07:23:12.686Z</time>
      </trkpt>
      <trkpt lat="44.24643" lon="2.51294">
        <ele>579</ele>
        <time>2022-06-12T07:23:13.686Z</time>
      </trkpt>
      <trkpt lat="44.24643" lon="2.51294">
        <ele>579</ele>
        <time>2022-06-12T07:23:14.686Z</time>
      </trkpt>
      <trkpt lat="44.24643" lon="2.51294">
        <ele>579</ele>
        <time>2022-06-12T07:23:15.686Z</time>
      </trkpt>
      <trkpt lat="44.24643" lon="2.51295">
        <ele>579</ele>
        <time>2022-06-12T07:23:16.686Z</time>
      </trkpt>
      <trkpt lat="44.24642" lon="2.51296">
        <ele>579</ele>
        <time>2022-06-12T07:23:17.686Z</time>
      </trkpt>
      <trkpt lat="44.24641" lon="2.51297">
        <ele>579</ele>
        <time>2022-06-12T07:23:18.686Z</time>
      </trkpt>
      <trkpt lat="44.2464" lon="2.51298">
        <ele>580</ele>
        <time>2022-06-12T07:23:19.686Z</time>
      </trkpt>
      <trkpt lat="44.2464" lon="2.51299">
        <ele>580</ele>
        <time>2022-06-12T07:23:20.686Z</time>
      </trkpt>
      <trkpt lat="44.24639" lon="2.513">
        <ele>580</ele>
        <time>2022-06-12T07:23:21.686Z</time>
      </trkpt>
      <trkpt lat="44.24638" lon="2.51301">
        <ele>580</ele>
        <time>2022-06-12T07:23:22.686Z</time>
      </trkpt>
      <trkpt lat="44.24637" lon="2.51303">
        <ele>580</ele>
        <time>2022-06-12T07:23:23.686Z</time>
      </trkpt>
      <trkpt lat="44.24636" lon="2.51304">
        <ele>580</ele>
        <time>2022-06-12T07:23:24.686Z</time>
      </trkpt>
      <trkpt lat="44.24635" lon="2.51305">
        <ele>580</ele>
        <time>2022-06-12T07:23:25.686Z</time>
      </trkpt>
      <trkpt lat="44.24634" lon="2.51306">
        <ele>581</ele>
        <time>2022-06-12T07:23:26.686Z</time>
      </trkpt>
      <trkpt lat="44.24633" lon="2.51308">
        <ele>581</ele>
        <time>2022-06-12T07:23:27.686Z</time>
      </trkpt>
      <trkpt lat="44.24632" lon="2.51309">
        <ele>581</ele>
        <time>2022-06-12T07:23:28.686Z</time>
      </trkpt>
      <trkpt lat="44.24631" lon="2.5131">
        <ele>581</ele>
        <time>2022-06-12T07:23:29.686Z</time>
      </trkpt>
      <trkpt lat="44.24629" lon="2.51311">
        <ele>581</ele>
        <time>2022-06-12T07:23:30.686Z</time>
      </trkpt>
      <trkpt lat="44.24628" lon="2.51312">
        <ele>582</ele>
        <time>2022-06-12T07:23:31.686Z</time>
      </trkpt>
      <trkpt lat="44.24627" lon="2.51313">
        <ele>582</ele>
        <time>2022-06-12T07:23:32.686Z</time>
      </trkpt>
      <trkpt lat="44.24626" lon="2.51314">
        <ele>582</ele>
        <time>2022-06-12T07:23:33.686Z</time>
      </trkpt>
      <trkpt lat="44.24625" lon="2.51315">
        <ele>582</ele>
        <time>2022-06-12T07:23:34.686Z</time>
      </trkpt>
      <trkpt lat="44.24624" lon="2.51317">
        <ele>582</ele>
        <time>2022-06-12T07:23:35.686Z</time>
      </trkpt>
      <trkpt lat="44.24623" lon="2.51318">
        <ele>582</ele>
        <time>2022-06-12T07:23:36.686Z</time>
      </trkpt>
      <trkpt lat="44.24622" lon="2.51319">
        <ele>583</ele>
        <time>2022-06-12T07:23:37.686Z</time>
      </trkpt>
      <trkpt lat="44.24621" lon="2.5132">
        <ele>583</ele>
        <time>2022-06-12T07:23:38.686Z</time>
      </trkpt>
      <trkpt lat="44.24619" lon="2.51321">
        <ele>583</ele>
        <time>2022-06-12T07:23:39.686Z</time>
      </trkpt>
      <trkpt lat="44.24618" lon="2.51322">
        <ele>583</ele>
        <time>2022-06-12T07:23:40.686Z</time>
      </trkpt>
      <trkpt lat="44.24618" lon="2.51323">
        <ele>583</ele>
        <time>2022-06-12T07:23:41.686Z</time>
      </trkpt>
      <trkpt lat="44.24617" lon="2.51324">
        <ele>583</ele>
        <time>2022-06-12T07:23:42.686Z</time>
      </trkpt>
      <trkpt lat="44.24616" lon="2.51326">
        <ele>583</ele>
        <time>2022-06-12T07:23:43.686Z</time>
      </trkpt>
      <trkpt lat="44.24615" lon="2.51327">
        <ele>584</ele>
        <time>2022-06-12T07:23:44.686Z</time>
      </trkpt>
      <trkpt lat="44.24614" lon="2.51328">
        <ele>584</ele>
        <time>2022-06-12T07:23:45.686Z</time>
      </trkpt>
      <trkpt lat="44.24613" lon="2.51329">
        <ele>584</ele>
        <time>2022-06-12T07:23:46.686Z</time>
      </trkpt>
      <trkpt lat="44.24612" lon="2.5133">
        <ele>584</ele>
        <time>2022-06-12T07:23:47.686Z</time>
      </trkpt>
      <trkpt lat="44.2461" lon="2.51332">
        <ele>584</ele>
        <time>2022-06-12T07:23:48.686Z</time>
      </trkpt>
      <trkpt lat="44.24609" lon="2.51333">
        <ele>584</ele>
        <time>2022-06-12T07:23:49.686Z</time>
      </trkpt>
      <trkpt lat="44.24608" lon="2.51334">
        <ele>585</ele>
        <time>2022-06-12T07:23:50.686Z</time>
      </trkpt>
      <trkpt lat="44.24607" lon="2.51335">
        <ele>585</ele>
        <time>2022-06-12T07:23:51.686Z</time>
      </trkpt>
      <trkpt lat="44.24606" lon="2.51337">
        <ele>585</ele>
        <time>2022-06-12T07:23:52.686Z</time>
      </trkpt>
      <trkpt lat="44.24605" lon="2.51338">
        <ele>585</ele>
        <time>2022-06-12T07:23:53.686Z</time>
      </trkpt>
      <trkpt lat="44.24604" lon="2.5134">
        <ele>585</ele>
        <time>2022-06-12T07:23:54.686Z</time>
      </trkpt>
      <trkpt lat="44.24603" lon="2.51341">
        <ele>585</ele>
        <time>2022-06-12T07:23:55.686Z</time>
      </trkpt>
      <trkpt lat="44.24602" lon="2.51342">
        <ele>585</ele>
        <time>2022-06-12T07:23:56.686Z</time>
      </trkpt>
      <trkpt lat="44.24601" lon="2.51343">
        <ele>585</ele>
        <time>2022-06-12T07:23:57.686Z</time>
      </trkpt>
      <trkpt lat="44.246" lon="2.51344">
        <ele>586</ele>
        <time>2022-06-12T07:23:58.686Z</time>
      </trkpt>
      <trkpt lat="44.24599" lon="2.51345">
        <ele>586</ele>
        <time>2022-06-12T07:23:59.686Z</time>
      </trkpt>
      <trkpt lat="44.24599" lon="2.51346">
        <ele>586</ele>
        <time>2022-06-12T07:24:00.686Z</time>
      </trkpt>
      <trkpt lat="44.24598" lon="2.51348">
        <ele>586</ele>
        <time>2022-06-12T07:24:01.686Z</time>
      </trkpt>
      <trkpt lat="44.24597" lon="2.51349">
        <ele>586</ele>
        <time>2022-06-12T07:24:02.686Z</time>
      </trkpt>
      <trkpt lat="44.24596" lon="2.5135">
        <ele>586</ele>
        <time>2022-06-12T07:24:03.686Z</time>
      </trkpt>
      <trkpt lat="44.24595" lon="2.51351">
        <ele>586</ele>
        <time>2022-06-12T07:24:04.686Z</time>
      </trkpt>
      <trkpt lat="44.24594" lon="2.51352">
        <ele>587</ele>
        <time>2022-06-12T07:24:05.686Z</time>
      </trkpt>
      <trkpt lat="44.24594" lon="2.51353">
        <ele>587</ele>
        <time>2022-06-12T07:24:06.686Z</time>
      </trkpt>
      <trkpt lat="44.24593" lon="2.51354">
        <ele>587</ele>
        <time>2022-06-12T07:24:07.686Z</time>
      </trkpt>
      <trkpt lat="44.24592" lon="2.51356">
        <ele>587</ele>
        <time>2022-06-12T07:24:08.686Z</time>
      </trkpt>
      <trkpt lat="44.24591" lon="2.51357">
        <ele>587</ele>
        <time>2022-06-12T07:24:09.686Z</time>
      </trkpt>
      <trkpt lat="44.2459" lon="2.51358">
        <ele>587</ele>
        <time>2022-06-12T07:24:10.686Z</time>
      </trkpt>
      <trkpt lat="44.24589" lon="2.51359">
        <ele>587</ele>
        <time>2022-06-12T07:24:11.686Z</time>
      </trkpt>
      <trkpt lat="44.24588" lon="2.51361">
        <ele>587</ele>
        <time>2022-06-12T07:24:12.686Z</time>
      </trkpt>
      <trkpt lat="44.24587" lon="2.51362">
        <ele>587</ele>
        <time>2022-06-12T07:24:13.686Z</time>
      </trkpt>
      <trkpt lat="44.24587" lon="2.51363">
        <ele>587</ele>
        <time>2022-06-12T07:24:14.686Z</time>
      </trkpt>
      <trkpt lat="44.24586" lon="2.51364">
        <ele>587</ele>
        <time>2022-06-12T07:24:15.686Z</time>
      </trkpt>
      <trkpt lat="44.24586" lon="2.51366">
        <ele>587</ele>
        <time>2022-06-12T07:24:16.686Z</time>
      </trkpt>
      <trkpt lat="44.24585" lon="2.51366">
        <ele>587</ele>
        <time>2022-06-12T07:24:17.686Z</time>
      </trkpt>
      <trkpt lat="44.24585" lon="2.51366">
        <ele>587</ele>
        <time>2022-06-12T07:24:18.686Z</time>
      </trkpt>
      <trkpt lat="44.24585" lon="2.51366">
        <ele>588</ele>
        <time>2022-06-12T07:24:19.686Z</time>
      </trkpt>
      <trkpt lat="44.24585" lon="2.51369">
        <ele>588</ele>
        <time>2022-06-12T07:24:23.699Z</time>
      </trkpt>
      <trkpt lat="44.24585" lon="2.5137">
        <ele>588</ele>
        <time>2022-06-12T07:24:24.699Z</time>
      </trkpt>
      <trkpt lat="44.24584" lon="2.51371">
        <ele>588</ele>
        <time>2022-06-12T07:24:25.699Z</time>
      </trkpt>
      <trkpt lat="44.24584" lon="2.51372">
        <ele>588</ele>
        <time>2022-06-12T07:24:26.699Z</time>
      </trkpt>
      <trkpt lat="44.24583" lon="2.51373">
        <ele>588</ele>
        <time>2022-06-12T07:24:27.699Z</time>
      </trkpt>
      <trkpt lat="44.24582" lon="2.51374">
        <ele>588</ele>
        <time>2022-06-12T07:24:28.699Z</time>
      </trkpt>
      <trkpt lat="44.24581" lon="2.51376">
        <ele>588</ele>
        <time>2022-06-12T07:24:29.699Z</time>
      </trkpt>
      <trkpt lat="44.24581" lon="2.51377">
        <ele>588</ele>
        <time>2022-06-12T07:24:30.699Z</time>
      </trkpt>
      <trkpt lat="44.2458" lon="2.51378">
        <ele>588</ele>
        <time>2022-06-12T07:24:31.699Z</time>
      </trkpt>
      <trkpt lat="44.24579" lon="2.51379">
        <ele>588</ele>
        <time>2022-06-12T07:24:32.699Z</time>
      </trkpt>
      <trkpt lat="44.24577" lon="2.51381">
        <ele>589</ele>
        <time>2022-06-12T07:24:33.699Z</time>
      </trkpt>
      <trkpt lat="44.24576" lon="2.51382">
        <ele>589</ele>
        <time>2022-06-12T07:24:34.699Z</time>
      </trkpt>
      <trkpt lat="44.24575" lon="2.51383">
        <ele>589</ele>
        <time>2022-06-12T07:24:35.699Z</time>
      </trkpt>
      <trkpt lat="44.24573" lon="2.51384">
        <ele>589</ele>
        <time>2022-06-12T07:24:36.699Z</time>
      </trkpt>
      <trkpt lat="44.24572" lon="2.51385">
        <ele>589</ele>
        <time>2022-06-12T07:24:37.699Z</time>
      </trkpt>
      <trkpt lat="44.2457" lon="2.51386">
        <ele>589</ele>
        <time>2022-06-12T07:24:38.699Z</time>
      </trkpt>
      <trkpt lat="44.24569" lon="2.51387">
        <ele>589</ele>
        <time>2022-06-12T07:24:39.699Z</time>
      </trkpt>
      <trkpt lat="44.24567" lon="2.51389">
        <ele>590</ele>
        <time>2022-06-12T07:24:40.699Z</time>
      </trkpt>
      <trkpt lat="44.24566" lon="2.5139">
        <ele>590</ele>
        <time>2022-06-12T07:24:41.699Z</time>
      </trkpt>
      <trkpt lat="44.24566" lon="2.51391">
        <ele>590</ele>
        <time>2022-06-12T07:24:42.699Z</time>
      </trkpt>
      <trkpt lat="44.24565" lon="2.51392">
        <ele>590</ele>
        <time>2022-06-12T07:24:43.699Z</time>
      </trkpt>
      <trkpt lat="44.24564" lon="2.51393">
        <ele>590</ele>
        <time>2022-06-12T07:24:44.699Z</time>
      </trkpt>
      <trkpt lat="44.24564" lon="2.51394">
        <ele>590</ele>
        <time>2022-06-12T07:24:45.699Z</time>
      </trkpt>
      <trkpt lat="44.24563" lon="2.51396">
        <ele>590</ele>
        <time>2022-06-12T07:24:46.699Z</time>
      </trkpt>
      <trkpt lat="44.24563" lon="2.51397">
        <ele>591</ele>
        <time>2022-06-12T07:24:47.699Z</time>
      </trkpt>
      <trkpt lat="44.24562" lon="2.51398">
        <ele>591</ele>
        <time>2022-06-12T07:24:48.699Z</time>
      </trkpt>
      <trkpt lat="44.24562" lon="2.514">
        <ele>591</ele>
        <time>2022-06-12T07:24:49.699Z</time>
      </trkpt>
      <trkpt lat="44.24561" lon="2.51401">
        <ele>591</ele>
        <time>2022-06-12T07:24:50.699Z</time>
      </trkpt>
      <trkpt lat="44.24561" lon="2.51402">
        <ele>591</ele>
        <time>2022-06-12T07:24:51.699Z</time>
      </trkpt>
      <trkpt lat="44.2456" lon="2.51403">
        <ele>591</ele>
        <time>2022-06-12T07:24:52.699Z</time>
      </trkpt>
      <trkpt lat="44.24559" lon="2.51404">
        <ele>591</ele>
        <time>2022-06-12T07:24:53.699Z</time>
      </trkpt>
      <trkpt lat="44.24559" lon="2.51405">
        <ele>592</ele>
        <time>2022-06-12T07:24:54.699Z</time>
      </trkpt>
      <trkpt lat="44.24558" lon="2.51407">
        <ele>592</ele>
        <time>2022-06-12T07:24:55.699Z</time>
      </trkpt>
      <trkpt lat="44.24558" lon="2.51408">
        <ele>592</ele>
        <time>2022-06-12T07:24:56.699Z</time>
      </trkpt>
      <trkpt lat="44.24557" lon="2.51409">
        <ele>592</ele>
        <time>2022-06-12T07:24:57.699Z</time>
      </trkpt>
      <trkpt lat="44.24557" lon="2.51411">
        <ele>592</ele>
        <time>2022-06-12T07:24:58.699Z</time>
      </trkpt>
      <trkpt lat="44.24556" lon="2.51412">
        <ele>592</ele>
        <time>2022-06-12T07:24:59.699Z</time>
      </trkpt>
      <trkpt lat="44.24556" lon="2.51413">
        <ele>592</ele>
        <time>2022-06-12T07:25:00.699Z</time>
      </trkpt>
      <trkpt lat="44.24555" lon="2.51415">
        <ele>592</ele>
        <time>2022-06-12T07:25:01.699Z</time>
      </trkpt>
      <trkpt lat="44.24554" lon="2.51416">
        <ele>592</ele>
        <time>2022-06-12T07:25:02.699Z</time>
      </trkpt>
      <trkpt lat="44.24553" lon="2.51417">
        <ele>592</ele>
        <time>2022-06-12T07:25:03.699Z</time>
      </trkpt>
      <trkpt lat="44.24552" lon="2.51418">
        <ele>592</ele>
        <time>2022-06-12T07:25:04.699Z</time>
      </trkpt>
      <trkpt lat="44.24551" lon="2.51419">
        <ele>592</ele>
        <time>2022-06-12T07:25:05.699Z</time>
      </trkpt>
      <trkpt lat="44.2455" lon="2.5142">
        <ele>592</ele>
        <time>2022-06-12T07:25:06.699Z</time>
      </trkpt>
      <trkpt lat="44.24549" lon="2.51421">
        <ele>592</ele>
        <time>2022-06-12T07:25:07.699Z</time>
      </trkpt>
      <trkpt lat="44.24548" lon="2.51423">
        <ele>592</ele>
        <time>2022-06-12T07:25:08.699Z</time>
      </trkpt>
      <trkpt lat="44.24547" lon="2.51424">
        <ele>592</ele>
        <time>2022-06-12T07:25:09.699Z</time>
      </trkpt>
      <trkpt lat="44.24547" lon="2.51425">
        <ele>592</ele>
        <time>2022-06-12T07:25:10.699Z</time>
      </trkpt>
      <trkpt lat="44.24546" lon="2.51425">
        <ele>592</ele>
        <time>2022-06-12T07:25:11.699Z</time>
      </trkpt>
      <trkpt lat="44.24545" lon="2.51426">
        <ele>592</ele>
        <time>2022-06-12T07:25:12.699Z</time>
      </trkpt>
      <trkpt lat="44.24544" lon="2.51427">
        <ele>592</ele>
        <time>2022-06-12T07:25:13.699Z</time>
      </trkpt>
      <trkpt lat="44.24543" lon="2.51428">
        <ele>592</ele>
        <time>2022-06-12T07:25:14.699Z</time>
      </trkpt>
      <trkpt lat="44.24542" lon="2.51429">
        <ele>592</ele>
        <time>2022-06-12T07:25:15.699Z</time>
      </trkpt>
      <trkpt lat="44.24541" lon="2.51429">
        <ele>593</ele>
        <time>2022-06-12T07:25:16.699Z</time>
      </trkpt>
      <trkpt lat="44.2454" lon="2.5143">
        <ele>593</ele>
        <time>2022-06-12T07:25:17.699Z</time>
      </trkpt>
      <trkpt lat="44.2454" lon="2.51431">
        <ele>593</ele>
        <time>2022-06-12T07:25:18.699Z</time>
      </trkpt>
      <trkpt lat="44.24539" lon="2.51432">
        <ele>593</ele>
        <time>2022-06-12T07:25:19.699Z</time>
      </trkpt>
      <trkpt lat="44.24538" lon="2.51432">
        <ele>593</ele>
        <time>2022-06-12T07:25:20.699Z</time>
      </trkpt>
      <trkpt lat="44.24538" lon="2.51433">
        <ele>593</ele>
        <time>2022-06-12T07:25:21.699Z</time>
      </trkpt>
      <trkpt lat="44.24537" lon="2.51433">
        <ele>593</ele>
        <time>2022-06-12T07:25:22.699Z</time>
      </trkpt>
      <trkpt lat="44.24536" lon="2.51434">
        <ele>593</ele>
        <time>2022-06-12T07:25:23.699Z</time>
      </trkpt>
      <trkpt lat="44.24536" lon="2.51435">
        <ele>593</ele>
        <time>2022-06-12T07:25:24.699Z</time>
      </trkpt>
      <trkpt lat="44.24535" lon="2.51436">
        <ele>593</ele>
        <time>2022-06-12T07:25:25.699Z</time>
      </trkpt>
      <trkpt lat="44.24534" lon="2.51437">
        <ele>593</ele>
        <time>2022-06-12T07:25:26.699Z</time>
      </trkpt>
      <trkpt lat="44.24534" lon="2.51438">
        <ele>593</ele>
        <time>2022-06-12T07:25:27.699Z</time>
      </trkpt>
      <trkpt lat="44.24533" lon="2.51439">
        <ele>594</ele>
        <time>2022-06-12T07:25:28.699Z</time>
      </trkpt>
      <trkpt lat="44.24533" lon="2.5144">
        <ele>594</ele>
        <time>2022-06-12T07:25:29.699Z</time>
      </trkpt>
      <trkpt lat="44.24532" lon="2.51441">
        <ele>594</ele>
        <time>2022-06-12T07:25:30.699Z</time>
      </trkpt>
      <trkpt lat="44.24531" lon="2.51442">
        <ele>594</ele>
        <time>2022-06-12T07:25:31.699Z</time>
      </trkpt>
      <trkpt lat="44.2453" lon="2.51443">
        <ele>594</ele>
        <time>2022-06-12T07:25:32.699Z</time>
      </trkpt>
      <trkpt lat="44.2453" lon="2.51444">
        <ele>594</ele>
        <time>2022-06-12T07:25:33.699Z</time>
      </trkpt>
      <trkpt lat="44.24529" lon="2.51445">
        <ele>594</ele>
        <time>2022-06-12T07:25:34.699Z</time>
      </trkpt>
      <trkpt lat="44.24528" lon="2.51446">
        <ele>594</ele>
        <time>2022-06-12T07:25:35.699Z</time>
      </trkpt>
      <trkpt lat="44.24528" lon="2.51446">
        <ele>594</ele>
        <time>2022-06-12T07:25:36.699Z</time>
      </trkpt>
      <trkpt lat="44.24527" lon="2.51447">
        <ele>594</ele>
        <time>2022-06-12T07:25:37.699Z</time>
      </trkpt>
      <trkpt lat="44.24526" lon="2.51447">
        <ele>594</ele>
        <time>2022-06-12T07:25:38.699Z</time>
      </trkpt>
      <trkpt lat="44.24526" lon="2.51448">
        <ele>594</ele>
        <time>2022-06-12T07:25:39.699Z</time>
      </trkpt>
      <trkpt lat="44.24525" lon="2.5145">
        <ele>594</ele>
        <time>2022-06-12T07:25:40.699Z</time>
      </trkpt>
      <trkpt lat="44.24524" lon="2.5145">
        <ele>594</ele>
        <time>2022-06-12T07:25:41.699Z</time>
      </trkpt>
      <trkpt lat="44.24524" lon="2.51451">
        <ele>595</ele>
        <time>2022-06-12T07:25:42.699Z</time>
      </trkpt>
      <trkpt lat="44.24523" lon="2.51452">
        <ele>595</ele>
        <time>2022-06-12T07:25:43.699Z</time>
      </trkpt>
      <trkpt lat="44.24522" lon="2.51453">
        <ele>594</ele>
        <time>2022-06-12T07:25:44.699Z</time>
      </trkpt>
      <trkpt lat="44.24522" lon="2.51454">
        <ele>594</ele>
        <time>2022-06-12T07:25:45.699Z</time>
      </trkpt>
      <trkpt lat="44.24521" lon="2.51455">
        <ele>594</ele>
        <time>2022-06-12T07:25:46.699Z</time>
      </trkpt>
      <trkpt lat="44.2452" lon="2.51456">
        <ele>594</ele>
        <time>2022-06-12T07:25:47.699Z</time>
      </trkpt>
      <trkpt lat="44.2452" lon="2.51457">
        <ele>594</ele>
        <time>2022-06-12T07:25:48.699Z</time>
      </trkpt>
      <trkpt lat="44.24519" lon="2.51458">
        <ele>594</ele>
        <time>2022-06-12T07:25:49.699Z</time>
      </trkpt>
      <trkpt lat="44.24519" lon="2.51459">
        <ele>594</ele>
        <time>2022-06-12T07:25:50.699Z</time>
      </trkpt>
      <trkpt lat="44.24518" lon="2.5146">
        <ele>594</ele>
        <time>2022-06-12T07:25:51.699Z</time>
      </trkpt>
      <trkpt lat="44.24518" lon="2.51461">
        <ele>594</ele>
        <time>2022-06-12T07:25:52.699Z</time>
      </trkpt>
      <trkpt lat="44.24517" lon="2.51462">
        <ele>594</ele>
        <time>2022-06-12T07:25:53.699Z</time>
      </trkpt>
      <trkpt lat="44.24517" lon="2.51463">
        <ele>594</ele>
        <time>2022-06-12T07:25:54.699Z</time>
      </trkpt>
      <trkpt lat="44.24517" lon="2.51464">
        <ele>594</ele>
        <time>2022-06-12T07:25:55.699Z</time>
      </trkpt>
      <trkpt lat="44.24516" lon="2.51465">
        <ele>594</ele>
        <time>2022-06-12T07:25:56.699Z</time>
      </trkpt>
      <trkpt lat="44.24516" lon="2.51466">
        <ele>594</ele>
        <time>2022-06-12T07:25:57.699Z</time>
      </trkpt>
      <trkpt lat="44.24516" lon="2.51467">
        <ele>595</ele>
        <time>2022-06-12T07:25:58.699Z</time>
      </trkpt>
      <trkpt lat="44.24516" lon="2.51468">
        <ele>595</ele>
        <time>2022-06-12T07:25:59.699Z</time>
      </trkpt>
      <trkpt lat="44.24516" lon="2.51469">
        <ele>595</ele>
        <time>2022-06-12T07:26:00.699Z</time>
      </trkpt>
      <trkpt lat="44.24516" lon="2.5147">
        <ele>595</ele>
        <time>2022-06-12T07:26:01.699Z</time>
      </trkpt>
      <trkpt lat="44.24516" lon="2.51472">
        <ele>595</ele>
        <time>2022-06-12T07:26:02.699Z</time>
      </trkpt>
      <trkpt lat="44.24516" lon="2.51473">
        <ele>596</ele>
        <time>2022-06-12T07:26:03.699Z</time>
      </trkpt>
      <trkpt lat="44.24516" lon="2.51474">
        <ele>596</ele>
        <time>2022-06-12T07:26:04.699Z</time>
      </trkpt>
      <trkpt lat="44.24516" lon="2.51475">
        <ele>596</ele>
        <time>2022-06-12T07:26:05.699Z</time>
      </trkpt>
      <trkpt lat="44.24516" lon="2.51476">
        <ele>596</ele>
        <time>2022-06-12T07:26:06.699Z</time>
      </trkpt>
      <trkpt lat="44.24516" lon="2.51477">
        <ele>596</ele>
        <time>2022-06-12T07:26:07.699Z</time>
      </trkpt>
      <trkpt lat="44.24516" lon="2.51478">
        <ele>597</ele>
        <time>2022-06-12T07:26:08.699Z</time>
      </trkpt>
      <trkpt lat="44.24516" lon="2.51479">
        <ele>597</ele>
        <time>2022-06-12T07:26:09.699Z</time>
      </trkpt>
      <trkpt lat="44.24514" lon="2.51481">
        <ele>598</ele>
        <time>2022-06-12T07:26:13.702Z</time>
      </trkpt>
      <trkpt lat="44.24514" lon="2.51482">
        <ele>598</ele>
        <time>2022-06-12T07:26:14.702Z</time>
      </trkpt>
      <trkpt lat="44.24513" lon="2.51484">
        <ele>598</ele>
        <time>2022-06-12T07:26:15.702Z</time>
      </trkpt>
      <trkpt lat="44.24512" lon="2.51484">
        <ele>599</ele>
        <time>2022-06-12T07:26:16.702Z</time>
      </trkpt>
      <trkpt lat="44.24512" lon="2.51484">
        <ele>599</ele>
        <time>2022-06-12T07:26:17.702Z</time>
      </trkpt>
      <trkpt lat="44.24512" lon="2.51485">
        <ele>599</ele>
        <time>2022-06-12T07:26:18.702Z</time>
      </trkpt>
      <trkpt lat="44.24511" lon="2.51487">
        <ele>599</ele>
        <time>2022-06-12T07:26:19.702Z</time>
      </trkpt>
      <trkpt lat="44.24511" lon="2.51487">
        <ele>599</ele>
        <time>2022-06-12T07:26:20.702Z</time>
      </trkpt>
      <trkpt lat="44.2451" lon="2.51488">
        <ele>599</ele>
        <time>2022-06-12T07:26:21.702Z</time>
      </trkpt>
      <trkpt lat="44.2451" lon="2.51489">
        <ele>600</ele>
        <time>2022-06-12T07:26:22.702Z</time>
      </trkpt>
      <trkpt lat="44.2451" lon="2.5149">
        <ele>600</ele>
        <time>2022-06-12T07:26:23.702Z</time>
      </trkpt>
      <trkpt lat="44.2451" lon="2.5149">
        <ele>600</ele>
        <time>2022-06-12T07:26:24.702Z</time>
      </trkpt>
      <trkpt lat="44.24509" lon="2.51491">
        <ele>600</ele>
        <time>2022-06-12T07:26:25.702Z</time>
      </trkpt>
      <trkpt lat="44.24509" lon="2.51492">
        <ele>601</ele>
        <time>2022-06-12T07:26:26.702Z</time>
      </trkpt>
      <trkpt lat="44.24509" lon="2.51493">
        <ele>601</ele>
        <time>2022-06-12T07:26:27.702Z</time>
      </trkpt>
      <trkpt lat="44.24509" lon="2.51495">
        <ele>601</ele>
        <time>2022-06-12T07:26:28.702Z</time>
      </trkpt>
      <trkpt lat="44.24509" lon="2.51495">
        <ele>601</ele>
        <time>2022-06-12T07:26:29.702Z</time>
      </trkpt>
      <trkpt lat="44.24508" lon="2.51496">
        <ele>601</ele>
        <time>2022-06-12T07:26:30.702Z</time>
      </trkpt>
      <trkpt lat="44.24508" lon="2.51497">
        <ele>602</ele>
        <time>2022-06-12T07:26:31.702Z</time>
      </trkpt>
      <trkpt lat="44.24507" lon="2.51498">
        <ele>602</ele>
        <time>2022-06-12T07:26:32.702Z</time>
      </trkpt>
      <trkpt lat="44.24507" lon="2.51499">
        <ele>602</ele>
        <time>2022-06-12T07:26:33.702Z</time>
      </trkpt>
      <trkpt lat="44.24506" lon="2.515">
        <ele>602</ele>
        <time>2022-06-12T07:26:34.702Z</time>
      </trkpt>
      <trkpt lat="44.24504" lon="2.51502">
        <ele>603</ele>
        <time>2022-06-12T07:26:35.702Z</time>
      </trkpt>
      <trkpt lat="44.24504" lon="2.51502">
        <ele>603</ele>
        <time>2022-06-12T07:26:36.702Z</time>
      </trkpt>
      <trkpt lat="44.24502" lon="2.51503">
        <ele>603</ele>
        <time>2022-06-12T07:26:37.702Z</time>
      </trkpt>
      <trkpt lat="44.24502" lon="2.51503">
        <ele>603</ele>
        <time>2022-06-12T07:26:38.702Z</time>
      </trkpt>
      <trkpt lat="44.24501" lon="2.51503">
        <ele>603</ele>
        <time>2022-06-12T07:26:39.702Z</time>
      </trkpt>
      <trkpt lat="44.24499" lon="2.51505">
        <ele>604</ele>
        <time>2022-06-12T07:26:40.702Z</time>
      </trkpt>
      <trkpt lat="44.24499" lon="2.51505">
        <ele>604</ele>
        <time>2022-06-12T07:26:41.702Z</time>
      </trkpt>
      <trkpt lat="44.24498" lon="2.51505">
        <ele>604</ele>
        <time>2022-06-12T07:26:42.702Z</time>
      </trkpt>
      <trkpt lat="44.24497" lon="2.51506">
        <ele>604</ele>
        <time>2022-06-12T07:26:43.702Z</time>
      </trkpt>
      <trkpt lat="44.24496" lon="2.51507">
        <ele>604</ele>
        <time>2022-06-12T07:26:44.702Z</time>
      </trkpt>
      <trkpt lat="44.24495" lon="2.51508">
        <ele>604</ele>
        <time>2022-06-12T07:26:45.702Z</time>
      </trkpt>
      <trkpt lat="44.24494" lon="2.51508">
        <ele>605</ele>
        <time>2022-06-12T07:26:46.702Z</time>
      </trkpt>
      <trkpt lat="44.24494" lon="2.51509">
        <ele>605</ele>
        <time>2022-06-12T07:26:47.702Z</time>
      </trkpt>
      <trkpt lat="44.24493" lon="2.5151">
        <ele>605</ele>
        <time>2022-06-12T07:26:48.702Z</time>
      </trkpt>
      <trkpt lat="44.24492" lon="2.5151">
        <ele>605</ele>
        <time>2022-06-12T07:26:49.702Z</time>
      </trkpt>
      <trkpt lat="44.24491" lon="2.51511">
        <ele>605</ele>
        <time>2022-06-12T07:26:50.702Z</time>
      </trkpt>
      <trkpt lat="44.24491" lon="2.51511">
        <ele>606</ele>
        <time>2022-06-12T07:26:51.702Z</time>
      </trkpt>
      <trkpt lat="44.2449" lon="2.51512">
        <ele>606</ele>
        <time>2022-06-12T07:26:52.702Z</time>
      </trkpt>
      <trkpt lat="44.24489" lon="2.51513">
        <ele>606</ele>
        <time>2022-06-12T07:26:53.702Z</time>
      </trkpt>
      <trkpt lat="44.24489" lon="2.51514">
        <ele>606</ele>
        <time>2022-06-12T07:26:54.702Z</time>
      </trkpt>
      <trkpt lat="44.24488" lon="2.51514">
        <ele>606</ele>
        <time>2022-06-12T07:26:55.702Z</time>
      </trkpt>
      <trkpt lat="44.24487" lon="2.51515">
        <ele>607</ele>
        <time>2022-06-12T07:26:56.702Z</time>
      </trkpt>
      <trkpt lat="44.24487" lon="2.51516">
        <ele>607</ele>
        <time>2022-06-12T07:26:57.702Z</time>
      </trkpt>
      <trkpt lat="44.24486" lon="2.51516">
        <ele>607</ele>
        <time>2022-06-12T07:26:58.702Z</time>
      </trkpt>
      <trkpt lat="44.24485" lon="2.51517">
        <ele>607</ele>
        <time>2022-06-12T07:26:59.702Z</time>
      </trkpt>
      <trkpt lat="44.24484" lon="2.51518">
        <ele>607</ele>
        <time>2022-06-12T07:27:00.702Z</time>
      </trkpt>
      <trkpt lat="44.24484" lon="2.51518">
        <ele>608</ele>
        <time>2022-06-12T07:27:01.702Z</time>
      </trkpt>
      <trkpt lat="44.24482" lon="2.51519">
        <ele>608</ele>
        <time>2022-06-12T07:27:02.702Z</time>
      </trkpt>
      <trkpt lat="44.2448" lon="2.5152">
        <ele>608</ele>
        <time>2022-06-12T07:27:03.702Z</time>
      </trkpt>
      <trkpt lat="44.2448" lon="2.51521">
        <ele>608</ele>
        <time>2022-06-12T07:27:04.702Z</time>
      </trkpt>
      <trkpt lat="44.24478" lon="2.51522">
        <ele>608</ele>
        <time>2022-06-12T07:27:05.702Z</time>
      </trkpt>
      <trkpt lat="44.24478" lon="2.51522">
        <ele>608</ele>
        <time>2022-06-12T07:27:06.702Z</time>
      </trkpt>
      <trkpt lat="44.24476" lon="2.51523">
        <ele>608</ele>
        <time>2022-06-12T07:27:07.702Z</time>
      </trkpt>
      <trkpt lat="44.24476" lon="2.51523">
        <ele>608</ele>
        <time>2022-06-12T07:27:08.702Z</time>
      </trkpt>
      <trkpt lat="44.24475" lon="2.51524">
        <ele>608</ele>
        <time>2022-06-12T07:27:09.702Z</time>
      </trkpt>
      <trkpt lat="44.24475" lon="2.51525">
        <ele>608</ele>
        <time>2022-06-12T07:27:10.702Z</time>
      </trkpt>
      <trkpt lat="44.24474" lon="2.51525">
        <ele>609</ele>
        <time>2022-06-12T07:27:11.702Z</time>
      </trkpt>
      <trkpt lat="44.24473" lon="2.51526">
        <ele>609</ele>
        <time>2022-06-12T07:27:12.702Z</time>
      </trkpt>
      <trkpt lat="44.24472" lon="2.51527">
        <ele>609</ele>
        <time>2022-06-12T07:27:13.702Z</time>
      </trkpt>
      <trkpt lat="44.24471" lon="2.51527">
        <ele>609</ele>
        <time>2022-06-12T07:27:14.702Z</time>
      </trkpt>
      <trkpt lat="44.24471" lon="2.51527">
        <ele>609</ele>
        <time>2022-06-12T07:27:15.702Z</time>
      </trkpt>
      <trkpt lat="44.2447" lon="2.51528">
        <ele>609</ele>
        <time>2022-06-12T07:27:16.702Z</time>
      </trkpt>
      <trkpt lat="44.24469" lon="2.51529">
        <ele>609</ele>
        <time>2022-06-12T07:27:17.702Z</time>
      </trkpt>
      <trkpt lat="44.24468" lon="2.51529">
        <ele>609</ele>
        <time>2022-06-12T07:27:18.702Z</time>
      </trkpt>
      <trkpt lat="44.24467" lon="2.5153">
        <ele>609</ele>
        <time>2022-06-12T07:27:19.702Z</time>
      </trkpt>
      <trkpt lat="44.24467" lon="2.5153">
        <ele>609</ele>
        <time>2022-06-12T07:27:20.702Z</time>
      </trkpt>
      <trkpt lat="44.24466" lon="2.51531">
        <ele>608</ele>
        <time>2022-06-12T07:27:21.702Z</time>
      </trkpt>
      <trkpt lat="44.24465" lon="2.51531">
        <ele>609</ele>
        <time>2022-06-12T07:27:22.702Z</time>
      </trkpt>
      <trkpt lat="44.24464" lon="2.51532">
        <ele>609</ele>
        <time>2022-06-12T07:27:23.702Z</time>
      </trkpt>
      <trkpt lat="44.24463" lon="2.51532">
        <ele>609</ele>
        <time>2022-06-12T07:27:24.702Z</time>
      </trkpt>
      <trkpt lat="44.24462" lon="2.51533">
        <ele>609</ele>
        <time>2022-06-12T07:27:25.702Z</time>
      </trkpt>
      <trkpt lat="44.24462" lon="2.51534">
        <ele>609</ele>
        <time>2022-06-12T07:27:26.702Z</time>
      </trkpt>
      <trkpt lat="44.24461" lon="2.51535">
        <ele>609</ele>
        <time>2022-06-12T07:27:27.702Z</time>
      </trkpt>
      <trkpt lat="44.2446" lon="2.51535">
        <ele>609</ele>
        <time>2022-06-12T07:27:28.702Z</time>
      </trkpt>
      <trkpt lat="44.24459" lon="2.51536">
        <ele>609</ele>
        <time>2022-06-12T07:27:29.702Z</time>
      </trkpt>
      <trkpt lat="44.24458" lon="2.51536">
        <ele>609</ele>
        <time>2022-06-12T07:27:30.702Z</time>
      </trkpt>
      <trkpt lat="44.24457" lon="2.51537">
        <ele>609</ele>
        <time>2022-06-12T07:27:31.702Z</time>
      </trkpt>
      <trkpt lat="44.24457" lon="2.51537">
        <ele>609</ele>
        <time>2022-06-12T07:27:32.702Z</time>
      </trkpt>
      <trkpt lat="44.24456" lon="2.51538">
        <ele>609</ele>
        <time>2022-06-12T07:27:33.702Z</time>
      </trkpt>
      <trkpt lat="44.24456" lon="2.51538">
        <ele>609</ele>
        <time>2022-06-12T07:27:34.702Z</time>
      </trkpt>
      <trkpt lat="44.24453" lon="2.51541">
        <ele>610</ele>
        <time>2022-06-12T07:27:37.956Z</time>
      </trkpt>
      <trkpt lat="44.24453" lon="2.51542">
        <ele>610</ele>
        <time>2022-06-12T07:27:38.956Z</time>
      </trkpt>
      <trkpt lat="44.24452" lon="2.51542">
        <ele>610</ele>
        <time>2022-06-12T07:27:39.956Z</time>
      </trkpt>
      <trkpt lat="44.24451" lon="2.51543">
        <ele>610</ele>
        <time>2022-06-12T07:27:40.956Z</time>
      </trkpt>
      <trkpt lat="44.2445" lon="2.51544">
        <ele>610</ele>
        <time>2022-06-12T07:27:41.956Z</time>
      </trkpt>
      <trkpt lat="44.2445" lon="2.51544">
        <ele>610</ele>
        <time>2022-06-12T07:27:42.956Z</time>
      </trkpt>
      <trkpt lat="44.24449" lon="2.51545">
        <ele>610</ele>
        <time>2022-06-12T07:27:43.956Z</time>
      </trkpt>
      <trkpt lat="44.24448" lon="2.51545">
        <ele>610</ele>
        <time>2022-06-12T07:27:44.956Z</time>
      </trkpt>
      <trkpt lat="44.24448" lon="2.51546">
        <ele>610</ele>
        <time>2022-06-12T07:27:45.956Z</time>
      </trkpt>
      <trkpt lat="44.24447" lon="2.51546">
        <ele>610</ele>
        <time>2022-06-12T07:27:46.956Z</time>
      </trkpt>
      <trkpt lat="44.24446" lon="2.51547">
        <ele>610</ele>
        <time>2022-06-12T07:27:47.956Z</time>
      </trkpt>
      <trkpt lat="44.24446" lon="2.51547">
        <ele>610</ele>
        <time>2022-06-12T07:27:48.956Z</time>
      </trkpt>
      <trkpt lat="44.24445" lon="2.51548">
        <ele>610</ele>
        <time>2022-06-12T07:27:49.956Z</time>
      </trkpt>
      <trkpt lat="44.24444" lon="2.51548">
        <ele>610</ele>
        <time>2022-06-12T07:27:50.956Z</time>
      </trkpt>
      <trkpt lat="44.24444" lon="2.51549">
        <ele>610</ele>
        <time>2022-06-12T07:27:51.956Z</time>
      </trkpt>
      <trkpt lat="44.24443" lon="2.5155">
        <ele>610</ele>
        <time>2022-06-12T07:27:52.956Z</time>
      </trkpt>
      <trkpt lat="44.24442" lon="2.5155">
        <ele>610</ele>
        <time>2022-06-12T07:27:53.956Z</time>
      </trkpt>
      <trkpt lat="44.24441" lon="2.51551">
        <ele>610</ele>
        <time>2022-06-12T07:27:54.956Z</time>
      </trkpt>
      <trkpt lat="44.24441" lon="2.51551">
        <ele>610</ele>
        <time>2022-06-12T07:27:55.956Z</time>
      </trkpt>
      <trkpt lat="44.2444" lon="2.51552">
        <ele>610</ele>
        <time>2022-06-12T07:27:56.956Z</time>
      </trkpt>
      <trkpt lat="44.24439" lon="2.51553">
        <ele>610</ele>
        <time>2022-06-12T07:27:57.956Z</time>
      </trkpt>
      <trkpt lat="44.24438" lon="2.51554">
        <ele>610</ele>
        <time>2022-06-12T07:27:58.956Z</time>
      </trkpt>
      <trkpt lat="44.24437" lon="2.51554">
        <ele>611</ele>
        <time>2022-06-12T07:27:59.956Z</time>
      </trkpt>
      <trkpt lat="44.24436" lon="2.51555">
        <ele>611</ele>
        <time>2022-06-12T07:28:00.956Z</time>
      </trkpt>
      <trkpt lat="44.24435" lon="2.51556">
        <ele>611</ele>
        <time>2022-06-12T07:28:01.956Z</time>
      </trkpt>
      <trkpt lat="44.24434" lon="2.51557">
        <ele>611</ele>
        <time>2022-06-12T07:28:02.956Z</time>
      </trkpt>
      <trkpt lat="44.24433" lon="2.51557">
        <ele>611</ele>
        <time>2022-06-12T07:28:03.956Z</time>
      </trkpt>
      <trkpt lat="44.24432" lon="2.51558">
        <ele>611</ele>
        <time>2022-06-12T07:28:04.956Z</time>
      </trkpt>
      <trkpt lat="44.2443" lon="2.51559">
        <ele>611</ele>
        <time>2022-06-12T07:28:05.956Z</time>
      </trkpt>
      <trkpt lat="44.24429" lon="2.5156">
        <ele>611</ele>
        <time>2022-06-12T07:28:06.956Z</time>
      </trkpt>
      <trkpt lat="44.24428" lon="2.5156">
        <ele>611</ele>
        <time>2022-06-12T07:28:07.956Z</time>
      </trkpt>
      <trkpt lat="44.24428" lon="2.51561">
        <ele>611</ele>
        <time>2022-06-12T07:28:08.956Z</time>
      </trkpt>
      <trkpt lat="44.24427" lon="2.51562">
        <ele>611</ele>
        <time>2022-06-12T07:28:09.956Z</time>
      </trkpt>
      <trkpt lat="44.24426" lon="2.51562">
        <ele>611</ele>
        <time>2022-06-12T07:28:10.956Z</time>
      </trkpt>
      <trkpt lat="44.24425" lon="2.51563">
        <ele>611</ele>
        <time>2022-06-12T07:28:11.956Z</time>
      </trkpt>
      <trkpt lat="44.24424" lon="2.51564">
        <ele>611</ele>
        <time>2022-06-12T07:28:12.956Z</time>
      </trkpt>
      <trkpt lat="44.24423" lon="2.51565">
        <ele>611</ele>
        <time>2022-06-12T07:28:13.956Z</time>
      </trkpt>
      <trkpt lat="44.24422" lon="2.51566">
        <ele>611</ele>
        <time>2022-06-12T07:28:14.956Z</time>
      </trkpt>
      <trkpt lat="44.24422" lon="2.51567">
        <ele>611</ele>
        <time>2022-06-12T07:28:15.956Z</time>
      </trkpt>
      <trkpt lat="44.24421" lon="2.51568">
        <ele>612</ele>
        <time>2022-06-12T07:28:16.956Z</time>
      </trkpt>
      <trkpt lat="44.2442" lon="2.51569">
        <ele>612</ele>
        <time>2022-06-12T07:28:17.956Z</time>
      </trkpt>
      <trkpt lat="44.24419" lon="2.51569">
        <ele>612</ele>
        <time>2022-06-12T07:28:18.956Z</time>
      </trkpt>
      <trkpt lat="44.24417" lon="2.5157">
        <ele>612</ele>
        <time>2022-06-12T07:28:19.956Z</time>
      </trkpt>
      <trkpt lat="44.24417" lon="2.51571">
        <ele>612</ele>
        <time>2022-06-12T07:28:20.956Z</time>
      </trkpt>
      <trkpt lat="44.24416" lon="2.51571">
        <ele>612</ele>
        <time>2022-06-12T07:28:21.956Z</time>
      </trkpt>
      <trkpt lat="44.24415" lon="2.51572">
        <ele>612</ele>
        <time>2022-06-12T07:28:22.956Z</time>
      </trkpt>
      <trkpt lat="44.24414" lon="2.51573">
        <ele>612</ele>
        <time>2022-06-12T07:28:23.956Z</time>
      </trkpt>
      <trkpt lat="44.24413" lon="2.51573">
        <ele>612</ele>
        <time>2022-06-12T07:28:24.956Z</time>
      </trkpt>
      <trkpt lat="44.24412" lon="2.51574">
        <ele>613</ele>
        <time>2022-06-12T07:28:25.956Z</time>
      </trkpt>
      <trkpt lat="44.24412" lon="2.51574">
        <ele>613</ele>
        <time>2022-06-12T07:28:26.956Z</time>
      </trkpt>
      <trkpt lat="44.24411" lon="2.51575">
        <ele>613</ele>
        <time>2022-06-12T07:28:27.956Z</time>
      </trkpt>
      <trkpt lat="44.2441" lon="2.51576">
        <ele>613</ele>
        <time>2022-06-12T07:28:28.956Z</time>
      </trkpt>
      <trkpt lat="44.24409" lon="2.51577">
        <ele>613</ele>
        <time>2022-06-12T07:28:29.956Z</time>
      </trkpt>
      <trkpt lat="44.24408" lon="2.51577">
        <ele>613</ele>
        <time>2022-06-12T07:28:30.956Z</time>
      </trkpt>
      <trkpt lat="44.24408" lon="2.51578">
        <ele>614</ele>
        <time>2022-06-12T07:28:31.956Z</time>
      </trkpt>
      <trkpt lat="44.24407" lon="2.51578">
        <ele>614</ele>
        <time>2022-06-12T07:28:32.956Z</time>
      </trkpt>
      <trkpt lat="44.24406" lon="2.51579">
        <ele>614</ele>
        <time>2022-06-12T07:28:33.956Z</time>
      </trkpt>
      <trkpt lat="44.24405" lon="2.5158">
        <ele>614</ele>
        <time>2022-06-12T07:28:34.956Z</time>
      </trkpt>
      <trkpt lat="44.24404" lon="2.51581">
        <ele>614</ele>
        <time>2022-06-12T07:28:35.956Z</time>
      </trkpt>
      <trkpt lat="44.24403" lon="2.51582">
        <ele>614</ele>
        <time>2022-06-12T07:28:36.956Z</time>
      </trkpt>
      <trkpt lat="44.24403" lon="2.51582">
        <ele>614</ele>
        <time>2022-06-12T07:28:37.956Z</time>
      </trkpt>
      <trkpt lat="44.24402" lon="2.51583">
        <ele>614</ele>
        <time>2022-06-12T07:28:38.956Z</time>
      </trkpt>
      <trkpt lat="44.24401" lon="2.51584">
        <ele>614</ele>
        <time>2022-06-12T07:28:39.956Z</time>
      </trkpt>
      <trkpt lat="44.244" lon="2.51584">
        <ele>614</ele>
        <time>2022-06-12T07:28:40.956Z</time>
      </trkpt>
      <trkpt lat="44.24399" lon="2.51585">
        <ele>614</ele>
        <time>2022-06-12T07:28:41.956Z</time>
      </trkpt>
      <trkpt lat="44.24399" lon="2.51585">
        <ele>615</ele>
        <time>2022-06-12T07:28:42.956Z</time>
      </trkpt>
      <trkpt lat="44.24398" lon="2.51586">
        <ele>615</ele>
        <time>2022-06-12T07:28:43.956Z</time>
      </trkpt>
      <trkpt lat="44.24397" lon="2.51587">
        <ele>615</ele>
        <time>2022-06-12T07:28:44.956Z</time>
      </trkpt>
      <trkpt lat="44.24396" lon="2.51587">
        <ele>615</ele>
        <time>2022-06-12T07:28:45.956Z</time>
      </trkpt>
      <trkpt lat="44.24395" lon="2.51588">
        <ele>615</ele>
        <time>2022-06-12T07:28:46.956Z</time>
      </trkpt>
      <trkpt lat="44.24394" lon="2.51588">
        <ele>615</ele>
        <time>2022-06-12T07:28:47.956Z</time>
      </trkpt>
      <trkpt lat="44.24393" lon="2.51589">
        <ele>615</ele>
        <time>2022-06-12T07:28:48.956Z</time>
      </trkpt>
      <trkpt lat="44.24393" lon="2.5159">
        <ele>615</ele>
        <time>2022-06-12T07:28:49.956Z</time>
      </trkpt>
      <trkpt lat="44.24392" lon="2.5159">
        <ele>615</ele>
        <time>2022-06-12T07:28:50.956Z</time>
      </trkpt>
      <trkpt lat="44.24391" lon="2.51591">
        <ele>615</ele>
        <time>2022-06-12T07:28:51.956Z</time>
      </trkpt>
      <trkpt lat="44.24391" lon="2.51591">
        <ele>615</ele>
        <time>2022-06-12T07:28:52.956Z</time>
      </trkpt>
      <trkpt lat="44.2439" lon="2.51592">
        <ele>615</ele>
        <time>2022-06-12T07:28:53.956Z</time>
      </trkpt>
      <trkpt lat="44.24389" lon="2.51592">
        <ele>615</ele>
        <time>2022-06-12T07:28:54.956Z</time>
      </trkpt>
      <trkpt lat="44.24388" lon="2.51592">
        <ele>615</ele>
        <time>2022-06-12T07:28:55.956Z</time>
      </trkpt>
      <trkpt lat="44.24387" lon="2.51593">
        <ele>615</ele>
        <time>2022-06-12T07:28:56.956Z</time>
      </trkpt>
      <trkpt lat="44.24386" lon="2.51593">
        <ele>615</ele>
        <time>2022-06-12T07:28:57.956Z</time>
      </trkpt>
      <trkpt lat="44.24385" lon="2.51594">
        <ele>615</ele>
        <time>2022-06-12T07:28:58.956Z</time>
      </trkpt>
      <trkpt lat="44.24384" lon="2.51594">
        <ele>615</ele>
        <time>2022-06-12T07:28:59.956Z</time>
      </trkpt>
      <trkpt lat="44.24383" lon="2.51595">
        <ele>615</ele>
        <time>2022-06-12T07:29:00.956Z</time>
      </trkpt>
      <trkpt lat="44.24383" lon="2.51596">
        <ele>615</ele>
        <time>2022-06-12T07:29:01.956Z</time>
      </trkpt>
      <trkpt lat="44.24382" lon="2.51596">
        <ele>615</ele>
        <time>2022-06-12T07:29:02.956Z</time>
      </trkpt>
      <trkpt lat="44.24381" lon="2.51597">
        <ele>616</ele>
        <time>2022-06-12T07:29:03.956Z</time>
      </trkpt>
      <trkpt lat="44.2438" lon="2.51598">
        <ele>616</ele>
        <time>2022-06-12T07:29:04.956Z</time>
      </trkpt>
      <trkpt lat="44.24379" lon="2.51599">
        <ele>616</ele>
        <time>2022-06-12T07:29:05.956Z</time>
      </trkpt>
      <trkpt lat="44.24378" lon="2.516">
        <ele>616</ele>
        <time>2022-06-12T07:29:06.956Z</time>
      </trkpt>
      <trkpt lat="44.24377" lon="2.51601">
        <ele>616</ele>
        <time>2022-06-12T07:29:07.956Z</time>
      </trkpt>
      <trkpt lat="44.24376" lon="2.51602">
        <ele>616</ele>
        <time>2022-06-12T07:29:08.956Z</time>
      </trkpt>
      <trkpt lat="44.24376" lon="2.51603">
        <ele>616</ele>
        <time>2022-06-12T07:29:09.956Z</time>
      </trkpt>
      <trkpt lat="44.24375" lon="2.51604">
        <ele>616</ele>
        <time>2022-06-12T07:29:10.956Z</time>
      </trkpt>
      <trkpt lat="44.24374" lon="2.51605">
        <ele>616</ele>
        <time>2022-06-12T07:29:11.956Z</time>
      </trkpt>
      <trkpt lat="44.24374" lon="2.51606">
        <ele>616</ele>
        <time>2022-06-12T07:29:12.956Z</time>
      </trkpt>
      <trkpt lat="44.24373" lon="2.51607">
        <ele>617</ele>
        <time>2022-06-12T07:29:13.956Z</time>
      </trkpt>
      <trkpt lat="44.24372" lon="2.51609">
        <ele>617</ele>
        <time>2022-06-12T07:29:14.956Z</time>
      </trkpt>
      <trkpt lat="44.24372" lon="2.5161">
        <ele>617</ele>
        <time>2022-06-12T07:29:15.956Z</time>
      </trkpt>
      <trkpt lat="44.24372" lon="2.51611">
        <ele>617</ele>
        <time>2022-06-12T07:29:16.956Z</time>
      </trkpt>
      <trkpt lat="44.24372" lon="2.51613">
        <ele>617</ele>
        <time>2022-06-12T07:29:17.956Z</time>
      </trkpt>
      <trkpt lat="44.24373" lon="2.51614">
        <ele>617</ele>
        <time>2022-06-12T07:29:18.956Z</time>
      </trkpt>
      <trkpt lat="44.24373" lon="2.51615">
        <ele>617</ele>
        <time>2022-06-12T07:29:19.956Z</time>
      </trkpt>
      <trkpt lat="44.24374" lon="2.51616">
        <ele>618</ele>
        <time>2022-06-12T07:29:20.956Z</time>
      </trkpt>
      <trkpt lat="44.24374" lon="2.51618">
        <ele>618</ele>
        <time>2022-06-12T07:29:21.956Z</time>
      </trkpt>
      <trkpt lat="44.24375" lon="2.51619">
        <ele>618</ele>
        <time>2022-06-12T07:29:22.956Z</time>
      </trkpt>
      <trkpt lat="44.24375" lon="2.5162">
        <ele>618</ele>
        <time>2022-06-12T07:29:23.956Z</time>
      </trkpt>
      <trkpt lat="44.24376" lon="2.51621">
        <ele>618</ele>
        <time>2022-06-12T07:29:24.956Z</time>
      </trkpt>
      <trkpt lat="44.24376" lon="2.51623">
        <ele>619</ele>
        <time>2022-06-12T07:29:25.956Z</time>
      </trkpt>
      <trkpt lat="44.24377" lon="2.51624">
        <ele>619</ele>
        <time>2022-06-12T07:29:26.956Z</time>
      </trkpt>
      <trkpt lat="44.24378" lon="2.51625">
        <ele>619</ele>
        <time>2022-06-12T07:29:27.956Z</time>
      </trkpt>
      <trkpt lat="44.24378" lon="2.51626">
        <ele>619</ele>
        <time>2022-06-12T07:29:28.956Z</time>
      </trkpt>
      <trkpt lat="44.24379" lon="2.51626">
        <ele>619</ele>
        <time>2022-06-12T07:29:29.956Z</time>
      </trkpt>
      <trkpt lat="44.2438" lon="2.51627">
        <ele>619</ele>
        <time>2022-06-12T07:29:30.956Z</time>
      </trkpt>
      <trkpt lat="44.2438" lon="2.51628">
        <ele>619</ele>
        <time>2022-06-12T07:29:31.956Z</time>
      </trkpt>
      <trkpt lat="44.24381" lon="2.51628">
        <ele>619</ele>
        <time>2022-06-12T07:29:32.956Z</time>
      </trkpt>
      <trkpt lat="44.24382" lon="2.51629">
        <ele>619</ele>
        <time>2022-06-12T07:29:33.956Z</time>
      </trkpt>
      <trkpt lat="44.24383" lon="2.5163">
        <ele>619</ele>
        <time>2022-06-12T07:29:34.956Z</time>
      </trkpt>
      <trkpt lat="44.24383" lon="2.51631">
        <ele>619</ele>
        <time>2022-06-12T07:29:35.956Z</time>
      </trkpt>
      <trkpt lat="44.24384" lon="2.51632">
        <ele>619</ele>
        <time>2022-06-12T07:29:36.956Z</time>
      </trkpt>
      <trkpt lat="44.24385" lon="2.51632">
        <ele>619</ele>
        <time>2022-06-12T07:29:37.956Z</time>
      </trkpt>
      <trkpt lat="44.24385" lon="2.51633">
        <ele>620</ele>
        <time>2022-06-12T07:29:38.956Z</time>
      </trkpt>
      <trkpt lat="44.24386" lon="2.51634">
        <ele>620</ele>
        <time>2022-06-12T07:29:39.956Z</time>
      </trkpt>
      <trkpt lat="44.24387" lon="2.51634">
        <ele>620</ele>
        <time>2022-06-12T07:29:40.956Z</time>
      </trkpt>
      <trkpt lat="44.24388" lon="2.51635">
        <ele>620</ele>
        <time>2022-06-12T07:29:41.956Z</time>
      </trkpt>
      <trkpt lat="44.24389" lon="2.51636">
        <ele>620</ele>
        <time>2022-06-12T07:29:42.956Z</time>
      </trkpt>
      <trkpt lat="44.2439" lon="2.51637">
        <ele>620</ele>
        <time>2022-06-12T07:29:43.956Z</time>
      </trkpt>
      <trkpt lat="44.2439" lon="2.51637">
        <ele>620</ele>
        <time>2022-06-12T07:29:44.956Z</time>
      </trkpt>
      <trkpt lat="44.24391" lon="2.51638">
        <ele>620</ele>
        <time>2022-06-12T07:29:45.956Z</time>
      </trkpt>
      <trkpt lat="44.24392" lon="2.51639">
        <ele>620</ele>
        <time>2022-06-12T07:29:46.956Z</time>
      </trkpt>
      <trkpt lat="44.24393" lon="2.51639">
        <ele>620</ele>
        <time>2022-06-12T07:29:47.956Z</time>
      </trkpt>
      <trkpt lat="44.24394" lon="2.5164">
        <ele>621</ele>
        <time>2022-06-12T07:29:48.956Z</time>
      </trkpt>
      <trkpt lat="44.24395" lon="2.5164">
        <ele>621</ele>
        <time>2022-06-12T07:29:49.956Z</time>
      </trkpt>
      <trkpt lat="44.24395" lon="2.51641">
        <ele>621</ele>
        <time>2022-06-12T07:29:50.956Z</time>
      </trkpt>
      <trkpt lat="44.24396" lon="2.51642">
        <ele>621</ele>
        <time>2022-06-12T07:29:51.956Z</time>
      </trkpt>
      <trkpt lat="44.24397" lon="2.51643">
        <ele>621</ele>
        <time>2022-06-12T07:29:52.956Z</time>
      </trkpt>
      <trkpt lat="44.24399" lon="2.51644">
        <ele>621</ele>
        <time>2022-06-12T07:29:53.956Z</time>
      </trkpt>
      <trkpt lat="44.244" lon="2.51645">
        <ele>621</ele>
        <time>2022-06-12T07:29:54.956Z</time>
      </trkpt>
      <trkpt lat="44.244" lon="2.51646">
        <ele>621</ele>
        <time>2022-06-12T07:29:55.956Z</time>
      </trkpt>
      <trkpt lat="44.24401" lon="2.51646">
        <ele>621</ele>
        <time>2022-06-12T07:29:56.956Z</time>
      </trkpt>
      <trkpt lat="44.24402" lon="2.51647">
        <ele>621</ele>
        <time>2022-06-12T07:29:57.956Z</time>
      </trkpt>
      <trkpt lat="44.24403" lon="2.51648">
        <ele>621</ele>
        <time>2022-06-12T07:29:58.956Z</time>
      </trkpt>
      <trkpt lat="44.24405" lon="2.51649">
        <ele>622</ele>
        <time>2022-06-12T07:29:59.956Z</time>
      </trkpt>
      <trkpt lat="44.24405" lon="2.51649">
        <ele>622</ele>
        <time>2022-06-12T07:30:00.956Z</time>
      </trkpt>
      <trkpt lat="44.24406" lon="2.5165">
        <ele>622</ele>
        <time>2022-06-12T07:30:01.956Z</time>
      </trkpt>
      <trkpt lat="44.24407" lon="2.5165">
        <ele>622</ele>
        <time>2022-06-12T07:30:02.956Z</time>
      </trkpt>
      <trkpt lat="44.24408" lon="2.51651">
        <ele>622</ele>
        <time>2022-06-12T07:30:03.956Z</time>
      </trkpt>
      <trkpt lat="44.24409" lon="2.51652">
        <ele>622</ele>
        <time>2022-06-12T07:30:04.956Z</time>
      </trkpt>
      <trkpt lat="44.2441" lon="2.51653">
        <ele>622</ele>
        <time>2022-06-12T07:30:05.956Z</time>
      </trkpt>
      <trkpt lat="44.24411" lon="2.51654">
        <ele>623</ele>
        <time>2022-06-12T07:30:06.956Z</time>
      </trkpt>
      <trkpt lat="44.24411" lon="2.51655">
        <ele>623</ele>
        <time>2022-06-12T07:30:07.956Z</time>
      </trkpt>
      <trkpt lat="44.24412" lon="2.51656">
        <ele>623</ele>
        <time>2022-06-12T07:30:08.956Z</time>
      </trkpt>
      <trkpt lat="44.24413" lon="2.51657">
        <ele>623</ele>
        <time>2022-06-12T07:30:09.956Z</time>
      </trkpt>
      <trkpt lat="44.24414" lon="2.51657">
        <ele>623</ele>
        <time>2022-06-12T07:30:10.956Z</time>
      </trkpt>
      <trkpt lat="44.24415" lon="2.51658">
        <ele>623</ele>
        <time>2022-06-12T07:30:11.956Z</time>
      </trkpt>
      <trkpt lat="44.24416" lon="2.51659">
        <ele>623</ele>
        <time>2022-06-12T07:30:12.956Z</time>
      </trkpt>
      <trkpt lat="44.24417" lon="2.5166">
        <ele>623</ele>
        <time>2022-06-12T07:30:13.956Z</time>
      </trkpt>
      <trkpt lat="44.24418" lon="2.51661">
        <ele>623</ele>
        <time>2022-06-12T07:30:14.956Z</time>
      </trkpt>
      <trkpt lat="44.24419" lon="2.51661">
        <ele>623</ele>
        <time>2022-06-12T07:30:15.956Z</time>
      </trkpt>
      <trkpt lat="44.2442" lon="2.51662">
        <ele>623</ele>
        <time>2022-06-12T07:30:16.956Z</time>
      </trkpt>
      <trkpt lat="44.24421" lon="2.51663">
        <ele>624</ele>
        <time>2022-06-12T07:30:17.956Z</time>
      </trkpt>
      <trkpt lat="44.24422" lon="2.51664">
        <ele>624</ele>
        <time>2022-06-12T07:30:18.956Z</time>
      </trkpt>
      <trkpt lat="44.24423" lon="2.51664">
        <ele>624</ele>
        <time>2022-06-12T07:30:19.956Z</time>
      </trkpt>
      <trkpt lat="44.24424" lon="2.51665">
        <ele>624</ele>
        <time>2022-06-12T07:30:20.956Z</time>
      </trkpt>
      <trkpt lat="44.24425" lon="2.51666">
        <ele>624</ele>
        <time>2022-06-12T07:30:21.956Z</time>
      </trkpt>
      <trkpt lat="44.24426" lon="2.51667">
        <ele>624</ele>
        <time>2022-06-12T07:30:22.956Z</time>
      </trkpt>
      <trkpt lat="44.24427" lon="2.51667">
        <ele>624</ele>
        <time>2022-06-12T07:30:23.956Z</time>
      </trkpt>
      <trkpt lat="44.24427" lon="2.51668">
        <ele>624</ele>
        <time>2022-06-12T07:30:24.956Z</time>
      </trkpt>
      <trkpt lat="44.24428" lon="2.51669">
        <ele>624</ele>
        <time>2022-06-12T07:30:25.956Z</time>
      </trkpt>
      <trkpt lat="44.24429" lon="2.5167">
        <ele>624</ele>
        <time>2022-06-12T07:30:26.956Z</time>
      </trkpt>
      <trkpt lat="44.24429" lon="2.5167">
        <ele>624</ele>
        <time>2022-06-12T07:30:27.956Z</time>
      </trkpt>
      <trkpt lat="44.2443" lon="2.51671">
        <ele>624</ele>
        <time>2022-06-12T07:30:28.956Z</time>
      </trkpt>
      <trkpt lat="44.24431" lon="2.51672">
        <ele>624</ele>
        <time>2022-06-12T07:30:29.956Z</time>
      </trkpt>
      <trkpt lat="44.24431" lon="2.51673">
        <ele>624</ele>
        <time>2022-06-12T07:30:30.956Z</time>
      </trkpt>
      <trkpt lat="44.24432" lon="2.51674">
        <ele>625</ele>
        <time>2022-06-12T07:30:31.956Z</time>
      </trkpt>
      <trkpt lat="44.24432" lon="2.51675">
        <ele>625</ele>
        <time>2022-06-12T07:30:32.956Z</time>
      </trkpt>
      <trkpt lat="44.24433" lon="2.51675">
        <ele>625</ele>
        <time>2022-06-12T07:30:33.956Z</time>
      </trkpt>
      <trkpt lat="44.24434" lon="2.51676">
        <ele>625</ele>
        <time>2022-06-12T07:30:34.956Z</time>
      </trkpt>
      <trkpt lat="44.24435" lon="2.51677">
        <ele>625</ele>
        <time>2022-06-12T07:30:35.956Z</time>
      </trkpt>
      <trkpt lat="44.24435" lon="2.51678">
        <ele>625</ele>
        <time>2022-06-12T07:30:36.956Z</time>
      </trkpt>
      <trkpt lat="44.24436" lon="2.51679">
        <ele>625</ele>
        <time>2022-06-12T07:30:37.956Z</time>
      </trkpt>
      <trkpt lat="44.24437" lon="2.5168">
        <ele>625</ele>
        <time>2022-06-12T07:30:38.956Z</time>
      </trkpt>
      <trkpt lat="44.24438" lon="2.51681">
        <ele>626</ele>
        <time>2022-06-12T07:30:39.956Z</time>
      </trkpt>
      <trkpt lat="44.24438" lon="2.51682">
        <ele>626</ele>
        <time>2022-06-12T07:30:40.956Z</time>
      </trkpt>
      <trkpt lat="44.24439" lon="2.51683">
        <ele>626</ele>
        <time>2022-06-12T07:30:41.956Z</time>
      </trkpt>
      <trkpt lat="44.2444" lon="2.51684">
        <ele>626</ele>
        <time>2022-06-12T07:30:42.956Z</time>
      </trkpt>
      <trkpt lat="44.2444" lon="2.51685">
        <ele>626</ele>
        <time>2022-06-12T07:30:43.956Z</time>
      </trkpt>
      <trkpt lat="44.24441" lon="2.51686">
        <ele>626</ele>
        <time>2022-06-12T07:30:44.956Z</time>
      </trkpt>
      <trkpt lat="44.24442" lon="2.51687">
        <ele>626</ele>
        <time>2022-06-12T07:30:45.956Z</time>
      </trkpt>
      <trkpt lat="44.24442" lon="2.51688">
        <ele>627</ele>
        <time>2022-06-12T07:30:46.956Z</time>
      </trkpt>
      <trkpt lat="44.24443" lon="2.51689">
        <ele>627</ele>
        <time>2022-06-12T07:30:47.956Z</time>
      </trkpt>
      <trkpt lat="44.24444" lon="2.5169">
        <ele>627</ele>
        <time>2022-06-12T07:30:48.956Z</time>
      </trkpt>
      <trkpt lat="44.24445" lon="2.51691">
        <ele>627</ele>
        <time>2022-06-12T07:30:49.956Z</time>
      </trkpt>
      <trkpt lat="44.24445" lon="2.51692">
        <ele>627</ele>
        <time>2022-06-12T07:30:50.956Z</time>
      </trkpt>
      <trkpt lat="44.24446" lon="2.51693">
        <ele>627</ele>
        <time>2022-06-12T07:30:51.956Z</time>
      </trkpt>
      <trkpt lat="44.24446" lon="2.51694">
        <ele>627</ele>
        <time>2022-06-12T07:30:52.956Z</time>
      </trkpt>
      <trkpt lat="44.24447" lon="2.51695">
        <ele>628</ele>
        <time>2022-06-12T07:30:53.956Z</time>
      </trkpt>
      <trkpt lat="44.24447" lon="2.51696">
        <ele>628</ele>
        <time>2022-06-12T07:30:54.956Z</time>
      </trkpt>
      <trkpt lat="44.24448" lon="2.51697">
        <ele>628</ele>
        <time>2022-06-12T07:30:55.956Z</time>
      </trkpt>
      <trkpt lat="44.24449" lon="2.51698">
        <ele>628</ele>
        <time>2022-06-12T07:30:56.956Z</time>
      </trkpt>
      <trkpt lat="44.24449" lon="2.51699">
        <ele>628</ele>
        <time>2022-06-12T07:30:57.956Z</time>
      </trkpt>
      <trkpt lat="44.2445" lon="2.517">
        <ele>628</ele>
        <time>2022-06-12T07:30:58.956Z</time>
      </trkpt>
      <trkpt lat="44.24451" lon="2.51701">
        <ele>628</ele>
        <time>2022-06-12T07:30:59.956Z</time>
      </trkpt>
      <trkpt lat="44.24451" lon="2.51702">
        <ele>628</ele>
        <time>2022-06-12T07:31:00.956Z</time>
      </trkpt>
      <trkpt lat="44.24452" lon="2.51703">
        <ele>628</ele>
        <time>2022-06-12T07:31:01.956Z</time>
      </trkpt>
      <trkpt lat="44.24452" lon="2.51704">
        <ele>629</ele>
        <time>2022-06-12T07:31:02.956Z</time>
      </trkpt>
      <trkpt lat="44.24453" lon="2.51705">
        <ele>629</ele>
        <time>2022-06-12T07:31:03.956Z</time>
      </trkpt>
      <trkpt lat="44.24454" lon="2.51706">
        <ele>629</ele>
        <time>2022-06-12T07:31:04.956Z</time>
      </trkpt>
      <trkpt lat="44.24455" lon="2.51707">
        <ele>629</ele>
        <time>2022-06-12T07:31:05.956Z</time>
      </trkpt>
      <trkpt lat="44.24455" lon="2.51708">
        <ele>629</ele>
        <time>2022-06-12T07:31:06.956Z</time>
      </trkpt>
      <trkpt lat="44.24456" lon="2.51709">
        <ele>629</ele>
        <time>2022-06-12T07:31:07.956Z</time>
      </trkpt>
      <trkpt lat="44.24456" lon="2.5171">
        <ele>629</ele>
        <time>2022-06-12T07:31:08.956Z</time>
      </trkpt>
      <trkpt lat="44.24456" lon="2.51711">
        <ele>629</ele>
        <time>2022-06-12T07:31:09.956Z</time>
      </trkpt>
      <trkpt lat="44.24457" lon="2.51712">
        <ele>630</ele>
        <time>2022-06-12T07:31:10.956Z</time>
      </trkpt>
      <trkpt lat="44.24458" lon="2.51713">
        <ele>630</ele>
        <time>2022-06-12T07:31:11.956Z</time>
      </trkpt>
      <trkpt lat="44.24458" lon="2.51714">
        <ele>630</ele>
        <time>2022-06-12T07:31:12.956Z</time>
      </trkpt>
      <trkpt lat="44.24459" lon="2.51716">
        <ele>630</ele>
        <time>2022-06-12T07:31:13.956Z</time>
      </trkpt>
      <trkpt lat="44.24459" lon="2.51717">
        <ele>630</ele>
        <time>2022-06-12T07:31:14.956Z</time>
      </trkpt>
      <trkpt lat="44.2446" lon="2.51718">
        <ele>630</ele>
        <time>2022-06-12T07:31:15.956Z</time>
      </trkpt>
      <trkpt lat="44.24461" lon="2.51719">
        <ele>630</ele>
        <time>2022-06-12T07:31:16.956Z</time>
      </trkpt>
      <trkpt lat="44.24461" lon="2.5172">
        <ele>630</ele>
        <time>2022-06-12T07:31:17.956Z</time>
      </trkpt>
      <trkpt lat="44.24462" lon="2.51722">
        <ele>630</ele>
        <time>2022-06-12T07:31:18.956Z</time>
      </trkpt>
      <trkpt lat="44.24462" lon="2.51723">
        <ele>630</ele>
        <time>2022-06-12T07:31:19.956Z</time>
      </trkpt>
      <trkpt lat="44.24463" lon="2.51723">
        <ele>631</ele>
        <time>2022-06-12T07:31:20.956Z</time>
      </trkpt>
      <trkpt lat="44.24463" lon="2.51725">
        <ele>631</ele>
        <time>2022-06-12T07:31:21.956Z</time>
      </trkpt>
      <trkpt lat="44.24464" lon="2.51726">
        <ele>631</ele>
        <time>2022-06-12T07:31:22.956Z</time>
      </trkpt>
      <trkpt lat="44.24464" lon="2.51727">
        <ele>631</ele>
        <time>2022-06-12T07:31:23.956Z</time>
      </trkpt>
      <trkpt lat="44.24464" lon="2.51728">
        <ele>632</ele>
        <time>2022-06-12T07:31:24.956Z</time>
      </trkpt>
      <trkpt lat="44.24465" lon="2.51729">
        <ele>632</ele>
        <time>2022-06-12T07:31:25.956Z</time>
      </trkpt>
      <trkpt lat="44.24465" lon="2.5173">
        <ele>632</ele>
        <time>2022-06-12T07:31:26.956Z</time>
      </trkpt>
      <trkpt lat="44.24466" lon="2.51732">
        <ele>632</ele>
        <time>2022-06-12T07:31:27.956Z</time>
      </trkpt>
      <trkpt lat="44.24466" lon="2.51733">
        <ele>632</ele>
        <time>2022-06-12T07:31:28.956Z</time>
      </trkpt>
      <trkpt lat="44.24467" lon="2.51734">
        <ele>632</ele>
        <time>2022-06-12T07:31:29.956Z</time>
      </trkpt>
      <trkpt lat="44.24467" lon="2.51735">
        <ele>632</ele>
        <time>2022-06-12T07:31:30.956Z</time>
      </trkpt>
      <trkpt lat="44.24467" lon="2.51735">
        <ele>632</ele>
        <time>2022-06-12T07:31:31.956Z</time>
      </trkpt>
      <trkpt lat="44.24468" lon="2.51737">
        <ele>633</ele>
        <time>2022-06-12T07:31:32.956Z</time>
      </trkpt>
      <trkpt lat="44.24468" lon="2.51738">
        <ele>633</ele>
        <time>2022-06-12T07:31:33.956Z</time>
      </trkpt>
      <trkpt lat="44.24469" lon="2.51739">
        <ele>633</ele>
        <time>2022-06-12T07:31:34.956Z</time>
      </trkpt>
      <trkpt lat="44.24469" lon="2.5174">
        <ele>633</ele>
        <time>2022-06-12T07:31:35.956Z</time>
      </trkpt>
      <trkpt lat="44.2447" lon="2.51741">
        <ele>633</ele>
        <time>2022-06-12T07:31:36.956Z</time>
      </trkpt>
      <trkpt lat="44.2447" lon="2.51742">
        <ele>633</ele>
        <time>2022-06-12T07:31:37.956Z</time>
      </trkpt>
      <trkpt lat="44.24471" lon="2.51743">
        <ele>633</ele>
        <time>2022-06-12T07:31:38.956Z</time>
      </trkpt>
      <trkpt lat="44.24472" lon="2.51744">
        <ele>633</ele>
        <time>2022-06-12T07:31:39.956Z</time>
      </trkpt>
      <trkpt lat="44.24472" lon="2.51745">
        <ele>633</ele>
        <time>2022-06-12T07:31:40.956Z</time>
      </trkpt>
      <trkpt lat="44.24473" lon="2.51746">
        <ele>633</ele>
        <time>2022-06-12T07:31:41.956Z</time>
      </trkpt>
      <trkpt lat="44.24474" lon="2.51747">
        <ele>633</ele>
        <time>2022-06-12T07:31:42.956Z</time>
      </trkpt>
      <trkpt lat="44.24474" lon="2.51749">
        <ele>633</ele>
        <time>2022-06-12T07:31:43.956Z</time>
      </trkpt>
      <trkpt lat="44.24475" lon="2.5175">
        <ele>633</ele>
        <time>2022-06-12T07:31:44.956Z</time>
      </trkpt>
      <trkpt lat="44.24475" lon="2.51751">
        <ele>633</ele>
        <time>2022-06-12T07:31:45.956Z</time>
      </trkpt>
      <trkpt lat="44.24476" lon="2.51752">
        <ele>633</ele>
        <time>2022-06-12T07:31:46.956Z</time>
      </trkpt>
      <trkpt lat="44.24476" lon="2.51753">
        <ele>633</ele>
        <time>2022-06-12T07:31:47.956Z</time>
      </trkpt>
      <trkpt lat="44.24477" lon="2.51755">
        <ele>633</ele>
        <time>2022-06-12T07:31:48.956Z</time>
      </trkpt>
      <trkpt lat="44.24477" lon="2.51756">
        <ele>634</ele>
        <time>2022-06-12T07:31:49.956Z</time>
      </trkpt>
      <trkpt lat="44.24478" lon="2.51757">
        <ele>634</ele>
        <time>2022-06-12T07:31:50.956Z</time>
      </trkpt>
      <trkpt lat="44.24479" lon="2.51758">
        <ele>634</ele>
        <time>2022-06-12T07:31:51.956Z</time>
      </trkpt>
      <trkpt lat="44.24479" lon="2.51759">
        <ele>634</ele>
        <time>2022-06-12T07:31:52.956Z</time>
      </trkpt>
      <trkpt lat="44.2448" lon="2.5176">
        <ele>634</ele>
        <time>2022-06-12T07:31:53.956Z</time>
      </trkpt>
      <trkpt lat="44.2448" lon="2.51762">
        <ele>634</ele>
        <time>2022-06-12T07:31:54.956Z</time>
      </trkpt>
      <trkpt lat="44.24481" lon="2.51763">
        <ele>634</ele>
        <time>2022-06-12T07:31:55.956Z</time>
      </trkpt>
      <trkpt lat="44.24481" lon="2.51764">
        <ele>635</ele>
        <time>2022-06-12T07:31:56.956Z</time>
      </trkpt>
      <trkpt lat="44.24482" lon="2.51765">
        <ele>635</ele>
        <time>2022-06-12T07:31:57.956Z</time>
      </trkpt>
      <trkpt lat="44.24482" lon="2.51766">
        <ele>635</ele>
        <time>2022-06-12T07:31:58.956Z</time>
      </trkpt>
      <trkpt lat="44.24483" lon="2.51767">
        <ele>635</ele>
        <time>2022-06-12T07:31:59.956Z</time>
      </trkpt>
      <trkpt lat="44.24483" lon="2.51768">
        <ele>635</ele>
        <time>2022-06-12T07:32:00.956Z</time>
      </trkpt>
      <trkpt lat="44.24484" lon="2.51769">
        <ele>635</ele>
        <time>2022-06-12T07:32:01.956Z</time>
      </trkpt>
      <trkpt lat="44.24485" lon="2.51771">
        <ele>635</ele>
        <time>2022-06-12T07:32:02.956Z</time>
      </trkpt>
      <trkpt lat="44.24485" lon="2.51772">
        <ele>636</ele>
        <time>2022-06-12T07:32:03.956Z</time>
      </trkpt>
      <trkpt lat="44.24486" lon="2.51773">
        <ele>636</ele>
        <time>2022-06-12T07:32:04.956Z</time>
      </trkpt>
      <trkpt lat="44.24486" lon="2.51774">
        <ele>636</ele>
        <time>2022-06-12T07:32:05.956Z</time>
      </trkpt>
      <trkpt lat="44.24487" lon="2.51776">
        <ele>636</ele>
        <time>2022-06-12T07:32:06.956Z</time>
      </trkpt>
      <trkpt lat="44.24487" lon="2.51777">
        <ele>636</ele>
        <time>2022-06-12T07:32:07.956Z</time>
      </trkpt>
      <trkpt lat="44.24488" lon="2.51778">
        <ele>636</ele>
        <time>2022-06-12T07:32:08.956Z</time>
      </trkpt>
      <trkpt lat="44.24489" lon="2.51779">
        <ele>636</ele>
        <time>2022-06-12T07:32:09.956Z</time>
      </trkpt>
      <trkpt lat="44.24489" lon="2.5178">
        <ele>637</ele>
        <time>2022-06-12T07:32:10.956Z</time>
      </trkpt>
      <trkpt lat="44.2449" lon="2.51781">
        <ele>637</ele>
        <time>2022-06-12T07:32:11.956Z</time>
      </trkpt>
      <trkpt lat="44.24491" lon="2.51782">
        <ele>637</ele>
        <time>2022-06-12T07:32:12.956Z</time>
      </trkpt>
      <trkpt lat="44.24491" lon="2.51783">
        <ele>637</ele>
        <time>2022-06-12T07:32:13.956Z</time>
      </trkpt>
      <trkpt lat="44.24492" lon="2.51784">
        <ele>637</ele>
        <time>2022-06-12T07:32:14.956Z</time>
      </trkpt>
      <trkpt lat="44.24492" lon="2.51785">
        <ele>637</ele>
        <time>2022-06-12T07:32:15.956Z</time>
      </trkpt>
      <trkpt lat="44.24493" lon="2.51786">
        <ele>638</ele>
        <time>2022-06-12T07:32:16.956Z</time>
      </trkpt>
      <trkpt lat="44.24494" lon="2.51788">
        <ele>638</ele>
        <time>2022-06-12T07:32:17.956Z</time>
      </trkpt>
      <trkpt lat="44.24494" lon="2.51788">
        <ele>638</ele>
        <time>2022-06-12T07:32:18.956Z</time>
      </trkpt>
      <trkpt lat="44.24495" lon="2.51789">
        <ele>638</ele>
        <time>2022-06-12T07:32:19.956Z</time>
      </trkpt>
      <trkpt lat="44.24495" lon="2.5179">
        <ele>638</ele>
        <time>2022-06-12T07:32:20.956Z</time>
      </trkpt>
      <trkpt lat="44.24496" lon="2.51791">
        <ele>638</ele>
        <time>2022-06-12T07:32:21.956Z</time>
      </trkpt>
      <trkpt lat="44.24496" lon="2.51791">
        <ele>639</ele>
        <time>2022-06-12T07:32:22.956Z</time>
      </trkpt>
      <trkpt lat="44.24497" lon="2.51792">
        <ele>639</ele>
        <time>2022-06-12T07:32:23.956Z</time>
      </trkpt>
      <trkpt lat="44.24497" lon="2.51793">
        <ele>639</ele>
        <time>2022-06-12T07:32:24.956Z</time>
      </trkpt>
      <trkpt lat="44.24498" lon="2.51794">
        <ele>639</ele>
        <time>2022-06-12T07:32:25.956Z</time>
      </trkpt>
      <trkpt lat="44.24498" lon="2.51795">
        <ele>639</ele>
        <time>2022-06-12T07:32:26.956Z</time>
      </trkpt>
      <trkpt lat="44.24499" lon="2.51796">
        <ele>639</ele>
        <time>2022-06-12T07:32:27.956Z</time>
      </trkpt>
      <trkpt lat="44.24499" lon="2.51797">
        <ele>640</ele>
        <time>2022-06-12T07:32:28.956Z</time>
      </trkpt>
      <trkpt lat="44.245" lon="2.51798">
        <ele>640</ele>
        <time>2022-06-12T07:32:29.956Z</time>
      </trkpt>
      <trkpt lat="44.245" lon="2.51799">
        <ele>640</ele>
        <time>2022-06-12T07:32:30.956Z</time>
      </trkpt>
      <trkpt lat="44.24501" lon="2.518">
        <ele>640</ele>
        <time>2022-06-12T07:32:31.956Z</time>
      </trkpt>
      <trkpt lat="44.24502" lon="2.51801">
        <ele>640</ele>
        <time>2022-06-12T07:32:32.956Z</time>
      </trkpt>
      <trkpt lat="44.24502" lon="2.51802">
        <ele>640</ele>
        <time>2022-06-12T07:32:33.956Z</time>
      </trkpt>
      <trkpt lat="44.24503" lon="2.51803">
        <ele>640</ele>
        <time>2022-06-12T07:32:34.956Z</time>
      </trkpt>
      <trkpt lat="44.24504" lon="2.51804">
        <ele>640</ele>
        <time>2022-06-12T07:32:35.956Z</time>
      </trkpt>
      <trkpt lat="44.24505" lon="2.51805">
        <ele>640</ele>
        <time>2022-06-12T07:32:36.956Z</time>
      </trkpt>
      <trkpt lat="44.24505" lon="2.51806">
        <ele>640</ele>
        <time>2022-06-12T07:32:37.956Z</time>
      </trkpt>
      <trkpt lat="44.24506" lon="2.51807">
        <ele>640</ele>
        <time>2022-06-12T07:32:38.956Z</time>
      </trkpt>
      <trkpt lat="44.24507" lon="2.51808">
        <ele>641</ele>
        <time>2022-06-12T07:32:39.956Z</time>
      </trkpt>
      <trkpt lat="44.24507" lon="2.51809">
        <ele>641</ele>
        <time>2022-06-12T07:32:40.956Z</time>
      </trkpt>
      <trkpt lat="44.24508" lon="2.51809">
        <ele>641</ele>
        <time>2022-06-12T07:32:41.956Z</time>
      </trkpt>
      <trkpt lat="44.24509" lon="2.5181">
        <ele>641</ele>
        <time>2022-06-12T07:32:42.956Z</time>
      </trkpt>
      <trkpt lat="44.2451" lon="2.51811">
        <ele>641</ele>
        <time>2022-06-12T07:32:43.956Z</time>
      </trkpt>
      <trkpt lat="44.2451" lon="2.51812">
        <ele>641</ele>
        <time>2022-06-12T07:32:44.956Z</time>
      </trkpt>
      <trkpt lat="44.24511" lon="2.51813">
        <ele>641</ele>
        <time>2022-06-12T07:32:45.956Z</time>
      </trkpt>
      <trkpt lat="44.24512" lon="2.51814">
        <ele>641</ele>
        <time>2022-06-12T07:32:46.956Z</time>
      </trkpt>
      <trkpt lat="44.24513" lon="2.51815">
        <ele>641</ele>
        <time>2022-06-12T07:32:47.956Z</time>
      </trkpt>
      <trkpt lat="44.24513" lon="2.51816">
        <ele>642</ele>
        <time>2022-06-12T07:32:48.956Z</time>
      </trkpt>
      <trkpt lat="44.24514" lon="2.51817">
        <ele>642</ele>
        <time>2022-06-12T07:32:49.956Z</time>
      </trkpt>
      <trkpt lat="44.24515" lon="2.51818">
        <ele>642</ele>
        <time>2022-06-12T07:32:50.956Z</time>
      </trkpt>
      <trkpt lat="44.24516" lon="2.51819">
        <ele>642</ele>
        <time>2022-06-12T07:32:51.956Z</time>
      </trkpt>
      <trkpt lat="44.24516" lon="2.5182">
        <ele>642</ele>
        <time>2022-06-12T07:32:52.956Z</time>
      </trkpt>
      <trkpt lat="44.24517" lon="2.51821">
        <ele>642</ele>
        <time>2022-06-12T07:32:53.956Z</time>
      </trkpt>
      <trkpt lat="44.24518" lon="2.51822">
        <ele>643</ele>
        <time>2022-06-12T07:32:54.956Z</time>
      </trkpt>
      <trkpt lat="44.24519" lon="2.51823">
        <ele>643</ele>
        <time>2022-06-12T07:32:55.956Z</time>
      </trkpt>
      <trkpt lat="44.24519" lon="2.51824">
        <ele>643</ele>
        <time>2022-06-12T07:32:56.956Z</time>
      </trkpt>
      <trkpt lat="44.2452" lon="2.51825">
        <ele>643</ele>
        <time>2022-06-12T07:32:57.956Z</time>
      </trkpt>
      <trkpt lat="44.24521" lon="2.51826">
        <ele>643</ele>
        <time>2022-06-12T07:32:58.956Z</time>
      </trkpt>
      <trkpt lat="44.24522" lon="2.51827">
        <ele>643</ele>
        <time>2022-06-12T07:32:59.956Z</time>
      </trkpt>
      <trkpt lat="44.24522" lon="2.51827">
        <ele>643</ele>
        <time>2022-06-12T07:33:00.956Z</time>
      </trkpt>
      <trkpt lat="44.24523" lon="2.51828">
        <ele>643</ele>
        <time>2022-06-12T07:33:01.956Z</time>
      </trkpt>
      <trkpt lat="44.24524" lon="2.51829">
        <ele>643</ele>
        <time>2022-06-12T07:33:02.956Z</time>
      </trkpt>
      <trkpt lat="44.24525" lon="2.5183">
        <ele>643</ele>
        <time>2022-06-12T07:33:03.956Z</time>
      </trkpt>
      <trkpt lat="44.24525" lon="2.5183">
        <ele>643</ele>
        <time>2022-06-12T07:33:04.956Z</time>
      </trkpt>
      <trkpt lat="44.24526" lon="2.51831">
        <ele>644</ele>
        <time>2022-06-12T07:33:05.956Z</time>
      </trkpt>
      <trkpt lat="44.24527" lon="2.51831">
        <ele>644</ele>
        <time>2022-06-12T07:33:06.956Z</time>
      </trkpt>
      <trkpt lat="44.24527" lon="2.51832">
        <ele>644</ele>
        <time>2022-06-12T07:33:07.956Z</time>
      </trkpt>
      <trkpt lat="44.24528" lon="2.51833">
        <ele>644</ele>
        <time>2022-06-12T07:33:08.956Z</time>
      </trkpt>
      <trkpt lat="44.24529" lon="2.51834">
        <ele>644</ele>
        <time>2022-06-12T07:33:09.956Z</time>
      </trkpt>
      <trkpt lat="44.2453" lon="2.51835">
        <ele>644</ele>
        <time>2022-06-12T07:33:10.956Z</time>
      </trkpt>
      <trkpt lat="44.24531" lon="2.51836">
        <ele>644</ele>
        <time>2022-06-12T07:33:11.956Z</time>
      </trkpt>
      <trkpt lat="44.24532" lon="2.51836">
        <ele>645</ele>
        <time>2022-06-12T07:33:12.956Z</time>
      </trkpt>
      <trkpt lat="44.24532" lon="2.51837">
        <ele>645</ele>
        <time>2022-06-12T07:33:13.956Z</time>
      </trkpt>
      <trkpt lat="44.24533" lon="2.51837">
        <ele>645</ele>
        <time>2022-06-12T07:33:14.956Z</time>
      </trkpt>
      <trkpt lat="44.24533" lon="2.51838">
        <ele>645</ele>
        <time>2022-06-12T07:33:15.956Z</time>
      </trkpt>
      <trkpt lat="44.24534" lon="2.51838">
        <ele>645</ele>
        <time>2022-06-12T07:33:16.956Z</time>
      </trkpt>
      <trkpt lat="44.24535" lon="2.51839">
        <ele>645</ele>
        <time>2022-06-12T07:33:17.956Z</time>
      </trkpt>
      <trkpt lat="44.24536" lon="2.51839">
        <ele>645</ele>
        <time>2022-06-12T07:33:18.956Z</time>
      </trkpt>
      <trkpt lat="44.24536" lon="2.5184">
        <ele>645</ele>
        <time>2022-06-12T07:33:19.956Z</time>
      </trkpt>
      <trkpt lat="44.24537" lon="2.51841">
        <ele>645</ele>
        <time>2022-06-12T07:33:20.956Z</time>
      </trkpt>
      <trkpt lat="44.24538" lon="2.51842">
        <ele>645</ele>
        <time>2022-06-12T07:33:21.956Z</time>
      </trkpt>
      <trkpt lat="44.24539" lon="2.51842">
        <ele>645</ele>
        <time>2022-06-12T07:33:22.956Z</time>
      </trkpt>
      <trkpt lat="44.24539" lon="2.51842">
        <ele>645</ele>
        <time>2022-06-12T07:33:23.956Z</time>
      </trkpt>
      <trkpt lat="44.2454" lon="2.51843">
        <ele>645</ele>
        <time>2022-06-12T07:33:24.956Z</time>
      </trkpt>
      <trkpt lat="44.24541" lon="2.51843">
        <ele>645</ele>
        <time>2022-06-12T07:33:25.956Z</time>
      </trkpt>
      <trkpt lat="44.24542" lon="2.51844">
        <ele>645</ele>
        <time>2022-06-12T07:33:26.956Z</time>
      </trkpt>
      <trkpt lat="44.24543" lon="2.51845">
        <ele>645</ele>
        <time>2022-06-12T07:33:27.956Z</time>
      </trkpt>
      <trkpt lat="44.24543" lon="2.51845">
        <ele>645</ele>
        <time>2022-06-12T07:33:28.956Z</time>
      </trkpt>
      <trkpt lat="44.24544" lon="2.51846">
        <ele>645</ele>
        <time>2022-06-12T07:33:29.956Z</time>
      </trkpt>
      <trkpt lat="44.24544" lon="2.51847">
        <ele>645</ele>
        <time>2022-06-12T07:33:30.956Z</time>
      </trkpt>
      <trkpt lat="44.24545" lon="2.51847">
        <ele>645</ele>
        <time>2022-06-12T07:33:31.956Z</time>
      </trkpt>
      <trkpt lat="44.24546" lon="2.51848">
        <ele>645</ele>
        <time>2022-06-12T07:33:32.956Z</time>
      </trkpt>
      <trkpt lat="44.24547" lon="2.51848">
        <ele>645</ele>
        <time>2022-06-12T07:33:33.956Z</time>
      </trkpt>
      <trkpt lat="44.24548" lon="2.51849">
        <ele>645</ele>
        <time>2022-06-12T07:33:34.956Z</time>
      </trkpt>
      <trkpt lat="44.24548" lon="2.5185">
        <ele>645</ele>
        <time>2022-06-12T07:33:35.956Z</time>
      </trkpt>
      <trkpt lat="44.24549" lon="2.51851">
        <ele>645</ele>
        <time>2022-06-12T07:33:36.956Z</time>
      </trkpt>
      <trkpt lat="44.2455" lon="2.51851">
        <ele>645</ele>
        <time>2022-06-12T07:33:37.956Z</time>
      </trkpt>
      <trkpt lat="44.24551" lon="2.51852">
        <ele>645</ele>
        <time>2022-06-12T07:33:38.956Z</time>
      </trkpt>
      <trkpt lat="44.24552" lon="2.51852">
        <ele>646</ele>
        <time>2022-06-12T07:33:39.956Z</time>
      </trkpt>
      <trkpt lat="44.24553" lon="2.51853">
        <ele>646</ele>
        <time>2022-06-12T07:33:40.956Z</time>
      </trkpt>
      <trkpt lat="44.24553" lon="2.51854">
        <ele>646</ele>
        <time>2022-06-12T07:33:41.956Z</time>
      </trkpt>
      <trkpt lat="44.24554" lon="2.51854">
        <ele>646</ele>
        <time>2022-06-12T07:33:42.956Z</time>
      </trkpt>
      <trkpt lat="44.24555" lon="2.51855">
        <ele>646</ele>
        <time>2022-06-12T07:33:43.956Z</time>
      </trkpt>
      <trkpt lat="44.24556" lon="2.51856">
        <ele>646</ele>
        <time>2022-06-12T07:33:44.956Z</time>
      </trkpt>
      <trkpt lat="44.24557" lon="2.51856">
        <ele>646</ele>
        <time>2022-06-12T07:33:45.956Z</time>
      </trkpt>
      <trkpt lat="44.24558" lon="2.51857">
        <ele>646</ele>
        <time>2022-06-12T07:33:46.956Z</time>
      </trkpt>
      <trkpt lat="44.24559" lon="2.51857">
        <ele>646</ele>
        <time>2022-06-12T07:33:47.956Z</time>
      </trkpt>
      <trkpt lat="44.2456" lon="2.51857">
        <ele>646</ele>
        <time>2022-06-12T07:33:48.956Z</time>
      </trkpt>
      <trkpt lat="44.24561" lon="2.51858">
        <ele>646</ele>
        <time>2022-06-12T07:33:49.956Z</time>
      </trkpt>
      <trkpt lat="44.24562" lon="2.51858">
        <ele>646</ele>
        <time>2022-06-12T07:33:50.956Z</time>
      </trkpt>
      <trkpt lat="44.24563" lon="2.51859">
        <ele>646</ele>
        <time>2022-06-12T07:33:51.956Z</time>
      </trkpt>
      <trkpt lat="44.24564" lon="2.51859">
        <ele>646</ele>
        <time>2022-06-12T07:33:52.956Z</time>
      </trkpt>
      <trkpt lat="44.24565" lon="2.5186">
        <ele>646</ele>
        <time>2022-06-12T07:33:53.956Z</time>
      </trkpt>
      <trkpt lat="44.24566" lon="2.51861">
        <ele>646</ele>
        <time>2022-06-12T07:33:54.956Z</time>
      </trkpt>
      <trkpt lat="44.24567" lon="2.51861">
        <ele>647</ele>
        <time>2022-06-12T07:33:55.956Z</time>
      </trkpt>
      <trkpt lat="44.24567" lon="2.51861">
        <ele>647</ele>
        <time>2022-06-12T07:33:56.956Z</time>
      </trkpt>
      <trkpt lat="44.24568" lon="2.51862">
        <ele>647</ele>
        <time>2022-06-12T07:33:57.956Z</time>
      </trkpt>
      <trkpt lat="44.24569" lon="2.51862">
        <ele>647</ele>
        <time>2022-06-12T07:33:58.956Z</time>
      </trkpt>
      <trkpt lat="44.2457" lon="2.51862">
        <ele>647</ele>
        <time>2022-06-12T07:33:59.956Z</time>
      </trkpt>
      <trkpt lat="44.24571" lon="2.51863">
        <ele>647</ele>
        <time>2022-06-12T07:34:00.956Z</time>
      </trkpt>
      <trkpt lat="44.24572" lon="2.51863">
        <ele>647</ele>
        <time>2022-06-12T07:34:01.956Z</time>
      </trkpt>
      <trkpt lat="44.24573" lon="2.51864">
        <ele>647</ele>
        <time>2022-06-12T07:34:02.956Z</time>
      </trkpt>
      <trkpt lat="44.24574" lon="2.51864">
        <ele>647</ele>
        <time>2022-06-12T07:34:03.956Z</time>
      </trkpt>
      <trkpt lat="44.24575" lon="2.51865">
        <ele>647</ele>
        <time>2022-06-12T07:34:04.956Z</time>
      </trkpt>
      <trkpt lat="44.24576" lon="2.51865">
        <ele>647</ele>
        <time>2022-06-12T07:34:05.956Z</time>
      </trkpt>
      <trkpt lat="44.24577" lon="2.51865">
        <ele>648</ele>
        <time>2022-06-12T07:34:06.956Z</time>
      </trkpt>
      <trkpt lat="44.24578" lon="2.51866">
        <ele>648</ele>
        <time>2022-06-12T07:34:07.956Z</time>
      </trkpt>
      <trkpt lat="44.24579" lon="2.51866">
        <ele>648</ele>
        <time>2022-06-12T07:34:08.956Z</time>
      </trkpt>
      <trkpt lat="44.2458" lon="2.51867">
        <ele>648</ele>
        <time>2022-06-12T07:34:09.956Z</time>
      </trkpt>
      <trkpt lat="44.24581" lon="2.51867">
        <ele>648</ele>
        <time>2022-06-12T07:34:10.956Z</time>
      </trkpt>
      <trkpt lat="44.24583" lon="2.51868">
        <ele>648</ele>
        <time>2022-06-12T07:34:11.956Z</time>
      </trkpt>
      <trkpt lat="44.24584" lon="2.51868">
        <ele>648</ele>
        <time>2022-06-12T07:34:12.956Z</time>
      </trkpt>
      <trkpt lat="44.24584" lon="2.51869">
        <ele>648</ele>
        <time>2022-06-12T07:34:13.956Z</time>
      </trkpt>
      <trkpt lat="44.24585" lon="2.51869">
        <ele>649</ele>
        <time>2022-06-12T07:34:14.956Z</time>
      </trkpt>
      <trkpt lat="44.24586" lon="2.5187">
        <ele>649</ele>
        <time>2022-06-12T07:34:15.956Z</time>
      </trkpt>
      <trkpt lat="44.24588" lon="2.5187">
        <ele>649</ele>
        <time>2022-06-12T07:34:16.956Z</time>
      </trkpt>
      <trkpt lat="44.24589" lon="2.5187">
        <ele>649</ele>
        <time>2022-06-12T07:34:17.956Z</time>
      </trkpt>
      <trkpt lat="44.2459" lon="2.51871">
        <ele>649</ele>
        <time>2022-06-12T07:34:18.956Z</time>
      </trkpt>
      <trkpt lat="44.24591" lon="2.51871">
        <ele>649</ele>
        <time>2022-06-12T07:34:19.956Z</time>
      </trkpt>
      <trkpt lat="44.24592" lon="2.51872">
        <ele>649</ele>
        <time>2022-06-12T07:34:20.956Z</time>
      </trkpt>
      <trkpt lat="44.24593" lon="2.51872">
        <ele>649</ele>
        <time>2022-06-12T07:34:21.956Z</time>
      </trkpt>
      <trkpt lat="44.24594" lon="2.51873">
        <ele>649</ele>
        <time>2022-06-12T07:34:22.956Z</time>
      </trkpt>
      <trkpt lat="44.24594" lon="2.51873">
        <ele>649</ele>
        <time>2022-06-12T07:34:23.956Z</time>
      </trkpt>
      <trkpt lat="44.24595" lon="2.51874">
        <ele>649</ele>
        <time>2022-06-12T07:34:24.956Z</time>
      </trkpt>
      <trkpt lat="44.24596" lon="2.51874">
        <ele>650</ele>
        <time>2022-06-12T07:34:25.956Z</time>
      </trkpt>
      <trkpt lat="44.24597" lon="2.51874">
        <ele>650</ele>
        <time>2022-06-12T07:34:26.956Z</time>
      </trkpt>
      <trkpt lat="44.24598" lon="2.51875">
        <ele>650</ele>
        <time>2022-06-12T07:34:27.956Z</time>
      </trkpt>
      <trkpt lat="44.24599" lon="2.51875">
        <ele>650</ele>
        <time>2022-06-12T07:34:28.956Z</time>
      </trkpt>
      <trkpt lat="44.246" lon="2.51876">
        <ele>650</ele>
        <time>2022-06-12T07:34:29.956Z</time>
      </trkpt>
      <trkpt lat="44.24601" lon="2.51876">
        <ele>650</ele>
        <time>2022-06-12T07:34:30.956Z</time>
      </trkpt>
      <trkpt lat="44.24602" lon="2.51877">
        <ele>650</ele>
        <time>2022-06-12T07:34:31.956Z</time>
      </trkpt>
      <trkpt lat="44.24603" lon="2.51877">
        <ele>650</ele>
        <time>2022-06-12T07:34:32.956Z</time>
      </trkpt>
      <trkpt lat="44.24604" lon="2.51878">
        <ele>651</ele>
        <time>2022-06-12T07:34:33.956Z</time>
      </trkpt>
      <trkpt lat="44.24605" lon="2.51878">
        <ele>651</ele>
        <time>2022-06-12T07:34:34.956Z</time>
      </trkpt>
      <trkpt lat="44.24606" lon="2.51878">
        <ele>651</ele>
        <time>2022-06-12T07:34:35.956Z</time>
      </trkpt>
      <trkpt lat="44.24607" lon="2.51879">
        <ele>651</ele>
        <time>2022-06-12T07:34:36.956Z</time>
      </trkpt>
      <trkpt lat="44.24608" lon="2.51879">
        <ele>651</ele>
        <time>2022-06-12T07:34:37.956Z</time>
      </trkpt>
      <trkpt lat="44.24609" lon="2.5188">
        <ele>651</ele>
        <time>2022-06-12T07:34:38.956Z</time>
      </trkpt>
      <trkpt lat="44.2461" lon="2.5188">
        <ele>651</ele>
        <time>2022-06-12T07:34:39.956Z</time>
      </trkpt>
      <trkpt lat="44.24611" lon="2.5188">
        <ele>651</ele>
        <time>2022-06-12T07:34:40.956Z</time>
      </trkpt>
      <trkpt lat="44.24612" lon="2.5188">
        <ele>651</ele>
        <time>2022-06-12T07:34:41.956Z</time>
      </trkpt>
      <trkpt lat="44.24614" lon="2.51881">
        <ele>652</ele>
        <time>2022-06-12T07:34:42.956Z</time>
      </trkpt>
      <trkpt lat="44.24615" lon="2.51881">
        <ele>652</ele>
        <time>2022-06-12T07:34:43.956Z</time>
      </trkpt>
      <trkpt lat="44.24616" lon="2.51881">
        <ele>652</ele>
        <time>2022-06-12T07:34:44.956Z</time>
      </trkpt>
      <trkpt lat="44.24617" lon="2.51882">
        <ele>652</ele>
        <time>2022-06-12T07:34:45.956Z</time>
      </trkpt>
      <trkpt lat="44.24618" lon="2.51882">
        <ele>652</ele>
        <time>2022-06-12T07:34:46.956Z</time>
      </trkpt>
      <trkpt lat="44.24619" lon="2.51883">
        <ele>652</ele>
        <time>2022-06-12T07:34:47.956Z</time>
      </trkpt>
      <trkpt lat="44.2462" lon="2.51883">
        <ele>652</ele>
        <time>2022-06-12T07:34:48.956Z</time>
      </trkpt>
      <trkpt lat="44.24621" lon="2.51883">
        <ele>652</ele>
        <time>2022-06-12T07:34:49.956Z</time>
      </trkpt>
      <trkpt lat="44.24622" lon="2.51883">
        <ele>652</ele>
        <time>2022-06-12T07:34:50.956Z</time>
      </trkpt>
      <trkpt lat="44.24623" lon="2.51884">
        <ele>652</ele>
        <time>2022-06-12T07:34:51.956Z</time>
      </trkpt>
      <trkpt lat="44.24624" lon="2.51884">
        <ele>652</ele>
        <time>2022-06-12T07:34:52.956Z</time>
      </trkpt>
      <trkpt lat="44.24625" lon="2.51884">
        <ele>652</ele>
        <time>2022-06-12T07:34:53.956Z</time>
      </trkpt>
      <trkpt lat="44.24626" lon="2.51885">
        <ele>652</ele>
        <time>2022-06-12T07:34:54.956Z</time>
      </trkpt>
      <trkpt lat="44.24627" lon="2.51885">
        <ele>652</ele>
        <time>2022-06-12T07:34:55.956Z</time>
      </trkpt>
      <trkpt lat="44.24628" lon="2.51886">
        <ele>652</ele>
        <time>2022-06-12T07:34:56.956Z</time>
      </trkpt>
      <trkpt lat="44.24629" lon="2.51886">
        <ele>652</ele>
        <time>2022-06-12T07:34:57.956Z</time>
      </trkpt>
      <trkpt lat="44.2463" lon="2.51886">
        <ele>652</ele>
        <time>2022-06-12T07:34:58.956Z</time>
      </trkpt>
      <trkpt lat="44.24631" lon="2.51887">
        <ele>653</ele>
        <time>2022-06-12T07:34:59.956Z</time>
      </trkpt>
      <trkpt lat="44.24632" lon="2.51887">
        <ele>653</ele>
        <time>2022-06-12T07:35:00.956Z</time>
      </trkpt>
      <trkpt lat="44.24633" lon="2.51888">
        <ele>653</ele>
        <time>2022-06-12T07:35:01.956Z</time>
      </trkpt>
      <trkpt lat="44.24634" lon="2.51888">
        <ele>653</ele>
        <time>2022-06-12T07:35:02.956Z</time>
      </trkpt>
      <trkpt lat="44.24635" lon="2.51888">
        <ele>653</ele>
        <time>2022-06-12T07:35:03.956Z</time>
      </trkpt>
      <trkpt lat="44.24636" lon="2.51889">
        <ele>653</ele>
        <time>2022-06-12T07:35:04.956Z</time>
      </trkpt>
      <trkpt lat="44.24637" lon="2.51889">
        <ele>653</ele>
        <time>2022-06-12T07:35:05.956Z</time>
      </trkpt>
      <trkpt lat="44.24638" lon="2.5189">
        <ele>653</ele>
        <time>2022-06-12T07:35:06.956Z</time>
      </trkpt>
      <trkpt lat="44.24639" lon="2.5189">
        <ele>653</ele>
        <time>2022-06-12T07:35:07.956Z</time>
      </trkpt>
      <trkpt lat="44.2464" lon="2.5189">
        <ele>653</ele>
        <time>2022-06-12T07:35:08.956Z</time>
      </trkpt>
      <trkpt lat="44.24642" lon="2.51891">
        <ele>654</ele>
        <time>2022-06-12T07:35:09.956Z</time>
      </trkpt>
      <trkpt lat="44.24643" lon="2.51891">
        <ele>654</ele>
        <time>2022-06-12T07:35:10.956Z</time>
      </trkpt>
      <trkpt lat="44.24644" lon="2.51892">
        <ele>654</ele>
        <time>2022-06-12T07:35:11.956Z</time>
      </trkpt>
      <trkpt lat="44.24645" lon="2.51892">
        <ele>654</ele>
        <time>2022-06-12T07:35:12.956Z</time>
      </trkpt>
      <trkpt lat="44.24646" lon="2.51892">
        <ele>654</ele>
        <time>2022-06-12T07:35:13.956Z</time>
      </trkpt>
      <trkpt lat="44.24647" lon="2.51893">
        <ele>654</ele>
        <time>2022-06-12T07:35:14.956Z</time>
      </trkpt>
      <trkpt lat="44.24648" lon="2.51893">
        <ele>654</ele>
        <time>2022-06-12T07:35:15.956Z</time>
      </trkpt>
      <trkpt lat="44.24649" lon="2.51894">
        <ele>654</ele>
        <time>2022-06-12T07:35:16.956Z</time>
      </trkpt>
      <trkpt lat="44.2465" lon="2.51894">
        <ele>654</ele>
        <time>2022-06-12T07:35:17.956Z</time>
      </trkpt>
      <trkpt lat="44.24651" lon="2.51895">
        <ele>654</ele>
        <time>2022-06-12T07:35:18.956Z</time>
      </trkpt>
      <trkpt lat="44.24652" lon="2.51895">
        <ele>655</ele>
        <time>2022-06-12T07:35:19.956Z</time>
      </trkpt>
      <trkpt lat="44.24653" lon="2.51895">
        <ele>655</ele>
        <time>2022-06-12T07:35:20.956Z</time>
      </trkpt>
      <trkpt lat="44.24654" lon="2.51896">
        <ele>655</ele>
        <time>2022-06-12T07:35:21.956Z</time>
      </trkpt>
      <trkpt lat="44.24655" lon="2.51896">
        <ele>655</ele>
        <time>2022-06-12T07:35:22.956Z</time>
      </trkpt>
      <trkpt lat="44.24656" lon="2.51897">
        <ele>655</ele>
        <time>2022-06-12T07:35:23.956Z</time>
      </trkpt>
      <trkpt lat="44.24657" lon="2.51897">
        <ele>655</ele>
        <time>2022-06-12T07:35:24.956Z</time>
      </trkpt>
      <trkpt lat="44.24658" lon="2.51897">
        <ele>655</ele>
        <time>2022-06-12T07:35:25.956Z</time>
      </trkpt>
      <trkpt lat="44.24659" lon="2.51898">
        <ele>656</ele>
        <time>2022-06-12T07:35:26.956Z</time>
      </trkpt>
      <trkpt lat="44.2466" lon="2.51898">
        <ele>656</ele>
        <time>2022-06-12T07:35:27.956Z</time>
      </trkpt>
      <trkpt lat="44.24661" lon="2.51899">
        <ele>656</ele>
        <time>2022-06-12T07:35:28.956Z</time>
      </trkpt>
      <trkpt lat="44.24662" lon="2.519">
        <ele>656</ele>
        <time>2022-06-12T07:35:29.956Z</time>
      </trkpt>
      <trkpt lat="44.24663" lon="2.519">
        <ele>656</ele>
        <time>2022-06-12T07:35:30.956Z</time>
      </trkpt>
      <trkpt lat="44.24664" lon="2.519">
        <ele>657</ele>
        <time>2022-06-12T07:35:31.956Z</time>
      </trkpt>
      <trkpt lat="44.24665" lon="2.51901">
        <ele>657</ele>
        <time>2022-06-12T07:35:32.956Z</time>
      </trkpt>
      <trkpt lat="44.24666" lon="2.51902">
        <ele>657</ele>
        <time>2022-06-12T07:35:33.956Z</time>
      </trkpt>
      <trkpt lat="44.24667" lon="2.51902">
        <ele>657</ele>
        <time>2022-06-12T07:35:34.956Z</time>
      </trkpt>
      <trkpt lat="44.24668" lon="2.51903">
        <ele>657</ele>
        <time>2022-06-12T07:35:35.956Z</time>
      </trkpt>
      <trkpt lat="44.24669" lon="2.51903">
        <ele>657</ele>
        <time>2022-06-12T07:35:36.956Z</time>
      </trkpt>
      <trkpt lat="44.2467" lon="2.51903">
        <ele>657</ele>
        <time>2022-06-12T07:35:37.956Z</time>
      </trkpt>
      <trkpt lat="44.24671" lon="2.51904">
        <ele>657</ele>
        <time>2022-06-12T07:35:38.956Z</time>
      </trkpt>
      <trkpt lat="44.24672" lon="2.51904">
        <ele>657</ele>
        <time>2022-06-12T07:35:39.956Z</time>
      </trkpt>
      <trkpt lat="44.24673" lon="2.51904">
        <ele>658</ele>
        <time>2022-06-12T07:35:40.956Z</time>
      </trkpt>
      <trkpt lat="44.24674" lon="2.51905">
        <ele>658</ele>
        <time>2022-06-12T07:35:41.956Z</time>
      </trkpt>
      <trkpt lat="44.24675" lon="2.51905">
        <ele>658</ele>
        <time>2022-06-12T07:35:42.956Z</time>
      </trkpt>
      <trkpt lat="44.24676" lon="2.51906">
        <ele>658</ele>
        <time>2022-06-12T07:35:43.956Z</time>
      </trkpt>
      <trkpt lat="44.24677" lon="2.51907">
        <ele>658</ele>
        <time>2022-06-12T07:35:44.956Z</time>
      </trkpt>
      <trkpt lat="44.24678" lon="2.51907">
        <ele>658</ele>
        <time>2022-06-12T07:35:45.956Z</time>
      </trkpt>
      <trkpt lat="44.24679" lon="2.51908">
        <ele>658</ele>
        <time>2022-06-12T07:35:46.956Z</time>
      </trkpt>
      <trkpt lat="44.2468" lon="2.51909">
        <ele>658</ele>
        <time>2022-06-12T07:35:47.956Z</time>
      </trkpt>
      <trkpt lat="44.24681" lon="2.51909">
        <ele>658</ele>
        <time>2022-06-12T07:35:48.956Z</time>
      </trkpt>
      <trkpt lat="44.24682" lon="2.51909">
        <ele>659</ele>
        <time>2022-06-12T07:35:49.956Z</time>
      </trkpt>
      <trkpt lat="44.24683" lon="2.5191">
        <ele>659</ele>
        <time>2022-06-12T07:35:50.956Z</time>
      </trkpt>
      <trkpt lat="44.24683" lon="2.51911">
        <ele>659</ele>
        <time>2022-06-12T07:35:51.956Z</time>
      </trkpt>
      <trkpt lat="44.24683" lon="2.51911">
        <ele>659</ele>
        <time>2022-06-12T07:35:52.956Z</time>
      </trkpt>
      <trkpt lat="44.24683" lon="2.51911">
        <ele>659</ele>
        <time>2022-06-12T07:35:53.956Z</time>
      </trkpt>
      <trkpt lat="44.24683" lon="2.51911">
        <ele>659</ele>
        <time>2022-06-12T07:35:54.956Z</time>
      </trkpt>
      <trkpt lat="44.24685" lon="2.5191">
        <ele>659</ele>
        <time>2022-06-12T07:36:06.972Z</time>
      </trkpt>
      <trkpt lat="44.24685" lon="2.51911">
        <ele>659</ele>
        <time>2022-06-12T07:36:07.972Z</time>
      </trkpt>
      <trkpt lat="44.24686" lon="2.51911">
        <ele>659</ele>
        <time>2022-06-12T07:36:08.972Z</time>
      </trkpt>
      <trkpt lat="44.24686" lon="2.51912">
        <ele>660</ele>
        <time>2022-06-12T07:36:09.972Z</time>
      </trkpt>
      <trkpt lat="44.24687" lon="2.51912">
        <ele>660</ele>
        <time>2022-06-12T07:36:10.972Z</time>
      </trkpt>
      <trkpt lat="44.24688" lon="2.51912">
        <ele>660</ele>
        <time>2022-06-12T07:36:11.972Z</time>
      </trkpt>
      <trkpt lat="44.24688" lon="2.51913">
        <ele>660</ele>
        <time>2022-06-12T07:36:12.972Z</time>
      </trkpt>
      <trkpt lat="44.24689" lon="2.51913">
        <ele>660</ele>
        <time>2022-06-12T07:36:13.972Z</time>
      </trkpt>
      <trkpt lat="44.2469" lon="2.51914">
        <ele>660</ele>
        <time>2022-06-12T07:36:14.972Z</time>
      </trkpt>
      <trkpt lat="44.24691" lon="2.51914">
        <ele>660</ele>
        <time>2022-06-12T07:36:15.972Z</time>
      </trkpt>
      <trkpt lat="44.24691" lon="2.51914">
        <ele>660</ele>
        <time>2022-06-12T07:36:16.972Z</time>
      </trkpt>
      <trkpt lat="44.24692" lon="2.51915">
        <ele>660</ele>
        <time>2022-06-12T07:36:17.972Z</time>
      </trkpt>
      <trkpt lat="44.24693" lon="2.51915">
        <ele>660</ele>
        <time>2022-06-12T07:36:18.972Z</time>
      </trkpt>
      <trkpt lat="44.24694" lon="2.51916">
        <ele>661</ele>
        <time>2022-06-12T07:36:19.972Z</time>
      </trkpt>
      <trkpt lat="44.24695" lon="2.51916">
        <ele>661</ele>
        <time>2022-06-12T07:36:20.972Z</time>
      </trkpt>
      <trkpt lat="44.24696" lon="2.51917">
        <ele>661</ele>
        <time>2022-06-12T07:36:21.972Z</time>
      </trkpt>
      <trkpt lat="44.24697" lon="2.51918">
        <ele>661</ele>
        <time>2022-06-12T07:36:22.972Z</time>
      </trkpt>
      <trkpt lat="44.24698" lon="2.51919">
        <ele>661</ele>
        <time>2022-06-12T07:36:23.972Z</time>
      </trkpt>
      <trkpt lat="44.24699" lon="2.5192">
        <ele>661</ele>
        <time>2022-06-12T07:36:24.972Z</time>
      </trkpt>
      <trkpt lat="44.247" lon="2.5192">
        <ele>661</ele>
        <time>2022-06-12T07:36:25.972Z</time>
      </trkpt>
      <trkpt lat="44.24701" lon="2.51921">
        <ele>661</ele>
        <time>2022-06-12T07:36:26.972Z</time>
      </trkpt>
      <trkpt lat="44.24702" lon="2.51922">
        <ele>661</ele>
        <time>2022-06-12T07:36:27.972Z</time>
      </trkpt>
      <trkpt lat="44.24703" lon="2.51923">
        <ele>662</ele>
        <time>2022-06-12T07:36:28.972Z</time>
      </trkpt>
      <trkpt lat="44.24704" lon="2.51923">
        <ele>662</ele>
        <time>2022-06-12T07:36:29.972Z</time>
      </trkpt>
      <trkpt lat="44.24705" lon="2.51924">
        <ele>662</ele>
        <time>2022-06-12T07:36:30.972Z</time>
      </trkpt>
      <trkpt lat="44.24706" lon="2.51925">
        <ele>662</ele>
        <time>2022-06-12T07:36:31.972Z</time>
      </trkpt>
      <trkpt lat="44.24707" lon="2.51926">
        <ele>662</ele>
        <time>2022-06-12T07:36:32.972Z</time>
      </trkpt>
      <trkpt lat="44.24708" lon="2.51926">
        <ele>662</ele>
        <time>2022-06-12T07:36:33.972Z</time>
      </trkpt>
      <trkpt lat="44.24709" lon="2.51927">
        <ele>662</ele>
        <time>2022-06-12T07:36:34.972Z</time>
      </trkpt>
      <trkpt lat="44.2471" lon="2.51928">
        <ele>662</ele>
        <time>2022-06-12T07:36:35.972Z</time>
      </trkpt>
      <trkpt lat="44.24711" lon="2.51928">
        <ele>662</ele>
        <time>2022-06-12T07:36:36.972Z</time>
      </trkpt>
      <trkpt lat="44.24711" lon="2.51928">
        <ele>662</ele>
        <time>2022-06-12T07:36:37.972Z</time>
      </trkpt>
      <trkpt lat="44.24712" lon="2.51929">
        <ele>662</ele>
        <time>2022-06-12T07:36:38.972Z</time>
      </trkpt>
      <trkpt lat="44.24712" lon="2.51929">
        <ele>662</ele>
        <time>2022-06-12T07:36:39.972Z</time>
      </trkpt>
      <trkpt lat="44.24713" lon="2.5193">
        <ele>663</ele>
        <time>2022-06-12T07:36:40.972Z</time>
      </trkpt>
      <trkpt lat="44.24713" lon="2.5193">
        <ele>663</ele>
        <time>2022-06-12T07:36:41.972Z</time>
      </trkpt>
      <trkpt lat="44.24714" lon="2.5193">
        <ele>663</ele>
        <time>2022-06-12T07:36:42.972Z</time>
      </trkpt>
      <trkpt lat="44.24714" lon="2.51931">
        <ele>663</ele>
        <time>2022-06-12T07:36:43.972Z</time>
      </trkpt>
      <trkpt lat="44.24715" lon="2.51931">
        <ele>663</ele>
        <time>2022-06-12T07:36:44.972Z</time>
      </trkpt>
      <trkpt lat="44.24716" lon="2.51932">
        <ele>663</ele>
        <time>2022-06-12T07:36:45.972Z</time>
      </trkpt>
      <trkpt lat="44.24717" lon="2.51933">
        <ele>663</ele>
        <time>2022-06-12T07:36:46.972Z</time>
      </trkpt>
      <trkpt lat="44.24719" lon="2.51934">
        <ele>663</ele>
        <time>2022-06-12T07:36:47.972Z</time>
      </trkpt>
      <trkpt lat="44.2472" lon="2.51935">
        <ele>663</ele>
        <time>2022-06-12T07:36:48.972Z</time>
      </trkpt>
      <trkpt lat="44.24721" lon="2.51935">
        <ele>663</ele>
        <time>2022-06-12T07:36:49.972Z</time>
      </trkpt>
      <trkpt lat="44.24722" lon="2.51936">
        <ele>664</ele>
        <time>2022-06-12T07:36:50.972Z</time>
      </trkpt>
      <trkpt lat="44.24723" lon="2.51937">
        <ele>664</ele>
        <time>2022-06-12T07:36:51.972Z</time>
      </trkpt>
      <trkpt lat="44.24725" lon="2.51938">
        <ele>664</ele>
        <time>2022-06-12T07:36:52.972Z</time>
      </trkpt>
      <trkpt lat="44.24726" lon="2.51938">
        <ele>664</ele>
        <time>2022-06-12T07:36:53.972Z</time>
      </trkpt>
      <trkpt lat="44.24727" lon="2.51939">
        <ele>665</ele>
        <time>2022-06-12T07:36:54.972Z</time>
      </trkpt>
      <trkpt lat="44.24728" lon="2.5194">
        <ele>665</ele>
        <time>2022-06-12T07:36:55.972Z</time>
      </trkpt>
      <trkpt lat="44.2473" lon="2.5194">
        <ele>665</ele>
        <time>2022-06-12T07:36:56.972Z</time>
      </trkpt>
      <trkpt lat="44.24731" lon="2.51941">
        <ele>665</ele>
        <time>2022-06-12T07:36:57.972Z</time>
      </trkpt>
      <trkpt lat="44.24732" lon="2.51942">
        <ele>666</ele>
        <time>2022-06-12T07:36:58.972Z</time>
      </trkpt>
      <trkpt lat="44.24732" lon="2.51942">
        <ele>666</ele>
        <time>2022-06-12T07:36:59.972Z</time>
      </trkpt>
      <trkpt lat="44.24733" lon="2.51942">
        <ele>666</ele>
        <time>2022-06-12T07:37:00.972Z</time>
      </trkpt>
      <trkpt lat="44.24733" lon="2.51943">
        <ele>666</ele>
        <time>2022-06-12T07:37:01.972Z</time>
      </trkpt>
      <trkpt lat="44.24734" lon="2.51944">
        <ele>666</ele>
        <time>2022-06-12T07:37:02.972Z</time>
      </trkpt>
      <trkpt lat="44.24735" lon="2.51944">
        <ele>666</ele>
        <time>2022-06-12T07:37:03.972Z</time>
      </trkpt>
      <trkpt lat="44.24736" lon="2.51945">
        <ele>666</ele>
        <time>2022-06-12T07:37:04.972Z</time>
      </trkpt>
      <trkpt lat="44.24737" lon="2.51946">
        <ele>666</ele>
        <time>2022-06-12T07:37:05.972Z</time>
      </trkpt>
      <trkpt lat="44.24739" lon="2.51947">
        <ele>667</ele>
        <time>2022-06-12T07:37:06.972Z</time>
      </trkpt>
      <trkpt lat="44.2474" lon="2.51948">
        <ele>667</ele>
        <time>2022-06-12T07:37:07.972Z</time>
      </trkpt>
      <trkpt lat="44.24741" lon="2.51948">
        <ele>667</ele>
        <time>2022-06-12T07:37:08.972Z</time>
      </trkpt>
      <trkpt lat="44.24742" lon="2.51949">
        <ele>667</ele>
        <time>2022-06-12T07:37:09.972Z</time>
      </trkpt>
      <trkpt lat="44.24743" lon="2.5195">
        <ele>667</ele>
        <time>2022-06-12T07:37:10.972Z</time>
      </trkpt>
      <trkpt lat="44.24745" lon="2.51951">
        <ele>667</ele>
        <time>2022-06-12T07:37:11.972Z</time>
      </trkpt>
      <trkpt lat="44.24746" lon="2.51952">
        <ele>667</ele>
        <time>2022-06-12T07:37:12.972Z</time>
      </trkpt>
      <trkpt lat="44.24747" lon="2.51953">
        <ele>667</ele>
        <time>2022-06-12T07:37:13.972Z</time>
      </trkpt>
      <trkpt lat="44.24748" lon="2.51954">
        <ele>667</ele>
        <time>2022-06-12T07:37:14.972Z</time>
      </trkpt>
      <trkpt lat="44.24749" lon="2.51955">
        <ele>667</ele>
        <time>2022-06-12T07:37:15.972Z</time>
      </trkpt>
      <trkpt lat="44.2475" lon="2.51956">
        <ele>667</ele>
        <time>2022-06-12T07:37:16.972Z</time>
      </trkpt>
      <trkpt lat="44.24751" lon="2.51957">
        <ele>668</ele>
        <time>2022-06-12T07:37:17.972Z</time>
      </trkpt>
      <trkpt lat="44.24752" lon="2.51958">
        <ele>668</ele>
        <time>2022-06-12T07:37:18.972Z</time>
      </trkpt>
      <trkpt lat="44.24753" lon="2.51959">
        <ele>668</ele>
        <time>2022-06-12T07:37:19.972Z</time>
      </trkpt>
      <trkpt lat="44.24754" lon="2.5196">
        <ele>668</ele>
        <time>2022-06-12T07:37:20.972Z</time>
      </trkpt>
      <trkpt lat="44.24755" lon="2.51961">
        <ele>668</ele>
        <time>2022-06-12T07:37:21.972Z</time>
      </trkpt>
      <trkpt lat="44.24756" lon="2.51962">
        <ele>668</ele>
        <time>2022-06-12T07:37:22.972Z</time>
      </trkpt>
      <trkpt lat="44.24757" lon="2.51963">
        <ele>668</ele>
        <time>2022-06-12T07:37:23.972Z</time>
      </trkpt>
      <trkpt lat="44.24758" lon="2.51964">
        <ele>668</ele>
        <time>2022-06-12T07:37:24.972Z</time>
      </trkpt>
      <trkpt lat="44.24759" lon="2.51964">
        <ele>668</ele>
        <time>2022-06-12T07:37:25.972Z</time>
      </trkpt>
      <trkpt lat="44.2476" lon="2.51965">
        <ele>669</ele>
        <time>2022-06-12T07:37:26.972Z</time>
      </trkpt>
      <trkpt lat="44.24761" lon="2.51966">
        <ele>669</ele>
        <time>2022-06-12T07:37:27.972Z</time>
      </trkpt>
      <trkpt lat="44.24762" lon="2.51967">
        <ele>669</ele>
        <time>2022-06-12T07:37:28.972Z</time>
      </trkpt>
      <trkpt lat="44.24763" lon="2.51967">
        <ele>669</ele>
        <time>2022-06-12T07:37:29.972Z</time>
      </trkpt>
      <trkpt lat="44.24764" lon="2.51967">
        <ele>669</ele>
        <time>2022-06-12T07:37:30.972Z</time>
      </trkpt>
      <trkpt lat="44.24765" lon="2.51969">
        <ele>668</ele>
        <time>2022-06-12T07:37:31.972Z</time>
      </trkpt>
      <trkpt lat="44.24766" lon="2.51969">
        <ele>668</ele>
        <time>2022-06-12T07:37:32.972Z</time>
      </trkpt>
      <trkpt lat="44.24767" lon="2.5197">
        <ele>668</ele>
        <time>2022-06-12T07:37:33.972Z</time>
      </trkpt>
      <trkpt lat="44.24768" lon="2.51972">
        <ele>668</ele>
        <time>2022-06-12T07:37:34.972Z</time>
      </trkpt>
      <trkpt lat="44.24769" lon="2.51973">
        <ele>668</ele>
        <time>2022-06-12T07:37:35.972Z</time>
      </trkpt>
      <trkpt lat="44.2477" lon="2.51974">
        <ele>668</ele>
        <time>2022-06-12T07:37:36.972Z</time>
      </trkpt>
      <trkpt lat="44.24771" lon="2.51975">
        <ele>668</ele>
        <time>2022-06-12T07:37:37.972Z</time>
      </trkpt>
      <trkpt lat="44.24772" lon="2.51976">
        <ele>667</ele>
        <time>2022-06-12T07:37:38.972Z</time>
      </trkpt>
      <trkpt lat="44.24773" lon="2.51978">
        <ele>667</ele>
        <time>2022-06-12T07:37:39.972Z</time>
      </trkpt>
      <trkpt lat="44.24774" lon="2.51979">
        <ele>667</ele>
        <time>2022-06-12T07:37:40.972Z</time>
      </trkpt>
      <trkpt lat="44.24775" lon="2.5198">
        <ele>667</ele>
        <time>2022-06-12T07:37:41.972Z</time>
      </trkpt>
      <trkpt lat="44.24776" lon="2.51981">
        <ele>667</ele>
        <time>2022-06-12T07:37:42.972Z</time>
      </trkpt>
      <trkpt lat="44.24777" lon="2.51982">
        <ele>667</ele>
        <time>2022-06-12T07:37:43.972Z</time>
      </trkpt>
      <trkpt lat="44.24778" lon="2.51983">
        <ele>667</ele>
        <time>2022-06-12T07:37:44.972Z</time>
      </trkpt>
      <trkpt lat="44.24779" lon="2.51984">
        <ele>667</ele>
        <time>2022-06-12T07:37:45.972Z</time>
      </trkpt>
      <trkpt lat="44.2478" lon="2.51985">
        <ele>667</ele>
        <time>2022-06-12T07:37:46.972Z</time>
      </trkpt>
      <trkpt lat="44.24781" lon="2.51986">
        <ele>667</ele>
        <time>2022-06-12T07:37:47.972Z</time>
      </trkpt>
      <trkpt lat="44.24782" lon="2.51987">
        <ele>667</ele>
        <time>2022-06-12T07:37:48.972Z</time>
      </trkpt>
      <trkpt lat="44.24783" lon="2.51988">
        <ele>667</ele>
        <time>2022-06-12T07:37:49.972Z</time>
      </trkpt>
      <trkpt lat="44.24784" lon="2.51989">
        <ele>667</ele>
        <time>2022-06-12T07:37:50.972Z</time>
      </trkpt>
      <trkpt lat="44.24785" lon="2.51989">
        <ele>667</ele>
        <time>2022-06-12T07:37:51.972Z</time>
      </trkpt>
      <trkpt lat="44.24786" lon="2.5199">
        <ele>667</ele>
        <time>2022-06-12T07:37:52.972Z</time>
      </trkpt>
      <trkpt lat="44.24787" lon="2.51991">
        <ele>667</ele>
        <time>2022-06-12T07:37:53.972Z</time>
      </trkpt>
      <trkpt lat="44.24788" lon="2.51992">
        <ele>667</ele>
        <time>2022-06-12T07:37:54.972Z</time>
      </trkpt>
      <trkpt lat="44.24789" lon="2.51993">
        <ele>667</ele>
        <time>2022-06-12T07:37:55.972Z</time>
      </trkpt>
      <trkpt lat="44.2479" lon="2.51994">
        <ele>668</ele>
        <time>2022-06-12T07:37:56.972Z</time>
      </trkpt>
      <trkpt lat="44.2479" lon="2.51995">
        <ele>668</ele>
        <time>2022-06-12T07:37:57.972Z</time>
      </trkpt>
      <trkpt lat="44.24791" lon="2.51995">
        <ele>668</ele>
        <time>2022-06-12T07:37:58.972Z</time>
      </trkpt>
      <trkpt lat="44.24792" lon="2.51996">
        <ele>668</ele>
        <time>2022-06-12T07:37:59.972Z</time>
      </trkpt>
      <trkpt lat="44.24793" lon="2.51997">
        <ele>668</ele>
        <time>2022-06-12T07:38:00.972Z</time>
      </trkpt>
      <trkpt lat="44.24793" lon="2.51998">
        <ele>668</ele>
        <time>2022-06-12T07:38:01.972Z</time>
      </trkpt>
      <trkpt lat="44.24793" lon="2.51999">
        <ele>668</ele>
        <time>2022-06-12T07:38:02.972Z</time>
      </trkpt>
      <trkpt lat="44.24794" lon="2.51999">
        <ele>668</ele>
        <time>2022-06-12T07:38:03.972Z</time>
      </trkpt>
      <trkpt lat="44.24794" lon="2.51999">
        <ele>668</ele>
        <time>2022-06-12T07:38:04.972Z</time>
      </trkpt>
      <trkpt lat="44.24795" lon="2.52">
        <ele>668</ele>
        <time>2022-06-12T07:38:05.972Z</time>
      </trkpt>
      <trkpt lat="44.24795" lon="2.52001">
        <ele>668</ele>
        <time>2022-06-12T07:38:06.972Z</time>
      </trkpt>
      <trkpt lat="44.24796" lon="2.52002">
        <ele>668</ele>
        <time>2022-06-12T07:38:07.972Z</time>
      </trkpt>
      <trkpt lat="44.24796" lon="2.52004">
        <ele>668</ele>
        <time>2022-06-12T07:38:08.972Z</time>
      </trkpt>
      <trkpt lat="44.24797" lon="2.52004">
        <ele>668</ele>
        <time>2022-06-12T07:38:09.972Z</time>
      </trkpt>
      <trkpt lat="44.24798" lon="2.52006">
        <ele>668</ele>
        <time>2022-06-12T07:38:10.972Z</time>
      </trkpt>
      <trkpt lat="44.24798" lon="2.52007">
        <ele>668</ele>
        <time>2022-06-12T07:38:11.972Z</time>
      </trkpt>
      <trkpt lat="44.24799" lon="2.52008">
        <ele>668</ele>
        <time>2022-06-12T07:38:12.972Z</time>
      </trkpt>
      <trkpt lat="44.248" lon="2.52009">
        <ele>669</ele>
        <time>2022-06-12T07:38:13.972Z</time>
      </trkpt>
      <trkpt lat="44.248" lon="2.5201">
        <ele>669</ele>
        <time>2022-06-12T07:38:14.972Z</time>
      </trkpt>
      <trkpt lat="44.24801" lon="2.52012">
        <ele>669</ele>
        <time>2022-06-12T07:38:15.972Z</time>
      </trkpt>
      <trkpt lat="44.24801" lon="2.52013">
        <ele>669</ele>
        <time>2022-06-12T07:38:16.972Z</time>
      </trkpt>
      <trkpt lat="44.24802" lon="2.52014">
        <ele>669</ele>
        <time>2022-06-12T07:38:17.972Z</time>
      </trkpt>
      <trkpt lat="44.24803" lon="2.52015">
        <ele>669</ele>
        <time>2022-06-12T07:38:18.972Z</time>
      </trkpt>
      <trkpt lat="44.24803" lon="2.52016">
        <ele>669</ele>
        <time>2022-06-12T07:38:19.972Z</time>
      </trkpt>
      <trkpt lat="44.24804" lon="2.52017">
        <ele>669</ele>
        <time>2022-06-12T07:38:20.972Z</time>
      </trkpt>
      <trkpt lat="44.24804" lon="2.52018">
        <ele>669</ele>
        <time>2022-06-12T07:38:21.972Z</time>
      </trkpt>
      <trkpt lat="44.24804" lon="2.52019">
        <ele>669</ele>
        <time>2022-06-12T07:38:22.972Z</time>
      </trkpt>
      <trkpt lat="44.24805" lon="2.52021">
        <ele>669</ele>
        <time>2022-06-12T07:38:23.972Z</time>
      </trkpt>
      <trkpt lat="44.24805" lon="2.52021">
        <ele>670</ele>
        <time>2022-06-12T07:38:24.972Z</time>
      </trkpt>
      <trkpt lat="44.24806" lon="2.52022">
        <ele>670</ele>
        <time>2022-06-12T07:38:25.972Z</time>
      </trkpt>
      <trkpt lat="44.24806" lon="2.52024">
        <ele>670</ele>
        <time>2022-06-12T07:38:26.972Z</time>
      </trkpt>
      <trkpt lat="44.24806" lon="2.52024">
        <ele>670</ele>
        <time>2022-06-12T07:38:27.972Z</time>
      </trkpt>
      <trkpt lat="44.24807" lon="2.52025">
        <ele>670</ele>
        <time>2022-06-12T07:38:28.972Z</time>
      </trkpt>
      <trkpt lat="44.24807" lon="2.52026">
        <ele>670</ele>
        <time>2022-06-12T07:38:29.972Z</time>
      </trkpt>
      <trkpt lat="44.24807" lon="2.52027">
        <ele>670</ele>
        <time>2022-06-12T07:38:30.972Z</time>
      </trkpt>
      <trkpt lat="44.24807" lon="2.52028">
        <ele>670</ele>
        <time>2022-06-12T07:38:31.972Z</time>
      </trkpt>
      <trkpt lat="44.24807" lon="2.52029">
        <ele>671</ele>
        <time>2022-06-12T07:38:32.972Z</time>
      </trkpt>
      <trkpt lat="44.24808" lon="2.5203">
        <ele>671</ele>
        <time>2022-06-12T07:38:33.972Z</time>
      </trkpt>
      <trkpt lat="44.24809" lon="2.52031">
        <ele>671</ele>
        <time>2022-06-12T07:38:34.972Z</time>
      </trkpt>
      <trkpt lat="44.24809" lon="2.52032">
        <ele>671</ele>
        <time>2022-06-12T07:38:35.972Z</time>
      </trkpt>
      <trkpt lat="44.2481" lon="2.52034">
        <ele>672</ele>
        <time>2022-06-12T07:38:36.972Z</time>
      </trkpt>
      <trkpt lat="44.2481" lon="2.52036">
        <ele>672</ele>
        <time>2022-06-12T07:38:37.972Z</time>
      </trkpt>
      <trkpt lat="44.24811" lon="2.52037">
        <ele>672</ele>
        <time>2022-06-12T07:38:38.972Z</time>
      </trkpt>
      <trkpt lat="44.24811" lon="2.52038">
        <ele>672</ele>
        <time>2022-06-12T07:38:39.972Z</time>
      </trkpt>
      <trkpt lat="44.24812" lon="2.52039">
        <ele>672</ele>
        <time>2022-06-12T07:38:40.972Z</time>
      </trkpt>
      <trkpt lat="44.24812" lon="2.52041">
        <ele>672</ele>
        <time>2022-06-12T07:38:41.972Z</time>
      </trkpt>
      <trkpt lat="44.24812" lon="2.52042">
        <ele>672</ele>
        <time>2022-06-12T07:38:42.972Z</time>
      </trkpt>
      <trkpt lat="44.24813" lon="2.52043">
        <ele>672</ele>
        <time>2022-06-12T07:38:43.972Z</time>
      </trkpt>
      <trkpt lat="44.24813" lon="2.52044">
        <ele>672</ele>
        <time>2022-06-12T07:38:44.972Z</time>
      </trkpt>
      <trkpt lat="44.24814" lon="2.52046">
        <ele>672</ele>
        <time>2022-06-12T07:38:45.972Z</time>
      </trkpt>
      <trkpt lat="44.24814" lon="2.52047">
        <ele>672</ele>
        <time>2022-06-12T07:38:46.972Z</time>
      </trkpt>
      <trkpt lat="44.24815" lon="2.52048">
        <ele>672</ele>
        <time>2022-06-12T07:38:47.972Z</time>
      </trkpt>
      <trkpt lat="44.24815" lon="2.52049">
        <ele>672</ele>
        <time>2022-06-12T07:38:48.972Z</time>
      </trkpt>
      <trkpt lat="44.24816" lon="2.5205">
        <ele>673</ele>
        <time>2022-06-12T07:38:49.972Z</time>
      </trkpt>
      <trkpt lat="44.24816" lon="2.52051">
        <ele>673</ele>
        <time>2022-06-12T07:38:50.972Z</time>
      </trkpt>
      <trkpt lat="44.24816" lon="2.52052">
        <ele>673</ele>
        <time>2022-06-12T07:38:51.972Z</time>
      </trkpt>
      <trkpt lat="44.24817" lon="2.52054">
        <ele>673</ele>
        <time>2022-06-12T07:38:52.972Z</time>
      </trkpt>
      <trkpt lat="44.24817" lon="2.52055">
        <ele>673</ele>
        <time>2022-06-12T07:38:53.972Z</time>
      </trkpt>
      <trkpt lat="44.24817" lon="2.52056">
        <ele>674</ele>
        <time>2022-06-12T07:38:54.972Z</time>
      </trkpt>
      <trkpt lat="44.24818" lon="2.52057">
        <ele>674</ele>
        <time>2022-06-12T07:38:55.972Z</time>
      </trkpt>
      <trkpt lat="44.24818" lon="2.52058">
        <ele>674</ele>
        <time>2022-06-12T07:38:56.972Z</time>
      </trkpt>
      <trkpt lat="44.24818" lon="2.5206">
        <ele>674</ele>
        <time>2022-06-12T07:38:57.972Z</time>
      </trkpt>
      <trkpt lat="44.24819" lon="2.52061">
        <ele>675</ele>
        <time>2022-06-12T07:38:58.972Z</time>
      </trkpt>
      <trkpt lat="44.24819" lon="2.52062">
        <ele>675</ele>
        <time>2022-06-12T07:38:59.972Z</time>
      </trkpt>
      <trkpt lat="44.24819" lon="2.52063">
        <ele>675</ele>
        <time>2022-06-12T07:39:00.972Z</time>
      </trkpt>
      <trkpt lat="44.2482" lon="2.52065">
        <ele>675</ele>
        <time>2022-06-12T07:39:01.972Z</time>
      </trkpt>
      <trkpt lat="44.2482" lon="2.52066">
        <ele>676</ele>
        <time>2022-06-12T07:39:02.972Z</time>
      </trkpt>
      <trkpt lat="44.2482" lon="2.52067">
        <ele>676</ele>
        <time>2022-06-12T07:39:03.972Z</time>
      </trkpt>
      <trkpt lat="44.24821" lon="2.52068">
        <ele>676</ele>
        <time>2022-06-12T07:39:04.972Z</time>
      </trkpt>
      <trkpt lat="44.24821" lon="2.5207">
        <ele>676</ele>
        <time>2022-06-12T07:39:05.972Z</time>
      </trkpt>
      <trkpt lat="44.24821" lon="2.52071">
        <ele>676</ele>
        <time>2022-06-12T07:39:06.972Z</time>
      </trkpt>
      <trkpt lat="44.24821" lon="2.52072">
        <ele>676</ele>
        <time>2022-06-12T07:39:07.972Z</time>
      </trkpt>
      <trkpt lat="44.24822" lon="2.52074">
        <ele>676</ele>
        <time>2022-06-12T07:39:08.972Z</time>
      </trkpt>
      <trkpt lat="44.24822" lon="2.52075">
        <ele>677</ele>
        <time>2022-06-12T07:39:09.972Z</time>
      </trkpt>
      <trkpt lat="44.24823" lon="2.52076">
        <ele>677</ele>
        <time>2022-06-12T07:39:10.972Z</time>
      </trkpt>
      <trkpt lat="44.24823" lon="2.52078">
        <ele>677</ele>
        <time>2022-06-12T07:39:11.972Z</time>
      </trkpt>
      <trkpt lat="44.24824" lon="2.52079">
        <ele>677</ele>
        <time>2022-06-12T07:39:12.972Z</time>
      </trkpt>
      <trkpt lat="44.24824" lon="2.5208">
        <ele>677</ele>
        <time>2022-06-12T07:39:13.972Z</time>
      </trkpt>
      <trkpt lat="44.24824" lon="2.52081">
        <ele>678</ele>
        <time>2022-06-12T07:39:14.972Z</time>
      </trkpt>
      <trkpt lat="44.24825" lon="2.52083">
        <ele>678</ele>
        <time>2022-06-12T07:39:15.972Z</time>
      </trkpt>
      <trkpt lat="44.24825" lon="2.52085">
        <ele>678</ele>
        <time>2022-06-12T07:39:16.972Z</time>
      </trkpt>
      <trkpt lat="44.24825" lon="2.52086">
        <ele>678</ele>
        <time>2022-06-12T07:39:17.972Z</time>
      </trkpt>
      <trkpt lat="44.24826" lon="2.52087">
        <ele>678</ele>
        <time>2022-06-12T07:39:18.972Z</time>
      </trkpt>
      <trkpt lat="44.24826" lon="2.52089">
        <ele>679</ele>
        <time>2022-06-12T07:39:19.972Z</time>
      </trkpt>
      <trkpt lat="44.24826" lon="2.5209">
        <ele>679</ele>
        <time>2022-06-12T07:39:20.972Z</time>
      </trkpt>
      <trkpt lat="44.24827" lon="2.52091">
        <ele>679</ele>
        <time>2022-06-12T07:39:21.972Z</time>
      </trkpt>
      <trkpt lat="44.24827" lon="2.52092">
        <ele>679</ele>
        <time>2022-06-12T07:39:22.972Z</time>
      </trkpt>
      <trkpt lat="44.24827" lon="2.52094">
        <ele>679</ele>
        <time>2022-06-12T07:39:23.972Z</time>
      </trkpt>
      <trkpt lat="44.24827" lon="2.52095">
        <ele>679</ele>
        <time>2022-06-12T07:39:24.972Z</time>
      </trkpt>
      <trkpt lat="44.24828" lon="2.52096">
        <ele>680</ele>
        <time>2022-06-12T07:39:25.972Z</time>
      </trkpt>
      <trkpt lat="44.24828" lon="2.52097">
        <ele>680</ele>
        <time>2022-06-12T07:39:26.972Z</time>
      </trkpt>
      <trkpt lat="44.24828" lon="2.52099">
        <ele>680</ele>
        <time>2022-06-12T07:39:27.972Z</time>
      </trkpt>
      <trkpt lat="44.24829" lon="2.521">
        <ele>680</ele>
        <time>2022-06-12T07:39:28.972Z</time>
      </trkpt>
      <trkpt lat="44.24829" lon="2.52101">
        <ele>680</ele>
        <time>2022-06-12T07:39:29.972Z</time>
      </trkpt>
      <trkpt lat="44.24829" lon="2.52102">
        <ele>680</ele>
        <time>2022-06-12T07:39:30.972Z</time>
      </trkpt>
      <trkpt lat="44.2483" lon="2.52103">
        <ele>681</ele>
        <time>2022-06-12T07:39:31.972Z</time>
      </trkpt>
      <trkpt lat="44.2483" lon="2.52105">
        <ele>681</ele>
        <time>2022-06-12T07:39:32.972Z</time>
      </trkpt>
      <trkpt lat="44.2483" lon="2.52106">
        <ele>681</ele>
        <time>2022-06-12T07:39:33.972Z</time>
      </trkpt>
      <trkpt lat="44.2483" lon="2.52107">
        <ele>681</ele>
        <time>2022-06-12T07:39:34.972Z</time>
      </trkpt>
      <trkpt lat="44.24831" lon="2.52108">
        <ele>681</ele>
        <time>2022-06-12T07:39:35.972Z</time>
      </trkpt>
      <trkpt lat="44.24831" lon="2.5211">
        <ele>681</ele>
        <time>2022-06-12T07:39:36.972Z</time>
      </trkpt>
      <trkpt lat="44.24831" lon="2.52111">
        <ele>681</ele>
        <time>2022-06-12T07:39:37.972Z</time>
      </trkpt>
      <trkpt lat="44.24831" lon="2.52113">
        <ele>681</ele>
        <time>2022-06-12T07:39:38.972Z</time>
      </trkpt>
      <trkpt lat="44.24832" lon="2.52114">
        <ele>681</ele>
        <time>2022-06-12T07:39:39.972Z</time>
      </trkpt>
      <trkpt lat="44.24832" lon="2.52115">
        <ele>682</ele>
        <time>2022-06-12T07:39:40.972Z</time>
      </trkpt>
      <trkpt lat="44.24832" lon="2.52116">
        <ele>682</ele>
        <time>2022-06-12T07:39:41.972Z</time>
      </trkpt>
      <trkpt lat="44.24833" lon="2.52117">
        <ele>682</ele>
        <time>2022-06-12T07:39:42.972Z</time>
      </trkpt>
      <trkpt lat="44.24833" lon="2.52118">
        <ele>682</ele>
        <time>2022-06-12T07:39:43.972Z</time>
      </trkpt>
      <trkpt lat="44.24834" lon="2.52119">
        <ele>682</ele>
        <time>2022-06-12T07:39:44.972Z</time>
      </trkpt>
      <trkpt lat="44.24834" lon="2.52121">
        <ele>682</ele>
        <time>2022-06-12T07:39:45.972Z</time>
      </trkpt>
      <trkpt lat="44.24834" lon="2.52122">
        <ele>683</ele>
        <time>2022-06-12T07:39:46.972Z</time>
      </trkpt>
      <trkpt lat="44.24835" lon="2.52123">
        <ele>683</ele>
        <time>2022-06-12T07:39:47.972Z</time>
      </trkpt>
      <trkpt lat="44.24835" lon="2.52124">
        <ele>683</ele>
        <time>2022-06-12T07:39:48.972Z</time>
      </trkpt>
      <trkpt lat="44.24836" lon="2.52125">
        <ele>683</ele>
        <time>2022-06-12T07:39:49.972Z</time>
      </trkpt>
      <trkpt lat="44.24836" lon="2.52126">
        <ele>683</ele>
        <time>2022-06-12T07:39:50.972Z</time>
      </trkpt>
      <trkpt lat="44.24836" lon="2.52128">
        <ele>683</ele>
        <time>2022-06-12T07:39:51.972Z</time>
      </trkpt>
      <trkpt lat="44.24836" lon="2.52129">
        <ele>683</ele>
        <time>2022-06-12T07:39:52.972Z</time>
      </trkpt>
      <trkpt lat="44.24837" lon="2.52131">
        <ele>683</ele>
        <time>2022-06-12T07:39:53.972Z</time>
      </trkpt>
      <trkpt lat="44.24837" lon="2.52132">
        <ele>683</ele>
        <time>2022-06-12T07:39:54.972Z</time>
      </trkpt>
      <trkpt lat="44.24838" lon="2.52133">
        <ele>683</ele>
        <time>2022-06-12T07:39:55.972Z</time>
      </trkpt>
      <trkpt lat="44.24838" lon="2.52135">
        <ele>683</ele>
        <time>2022-06-12T07:39:56.972Z</time>
      </trkpt>
      <trkpt lat="44.24838" lon="2.52136">
        <ele>683</ele>
        <time>2022-06-12T07:39:57.972Z</time>
      </trkpt>
      <trkpt lat="44.24839" lon="2.52137">
        <ele>683</ele>
        <time>2022-06-12T07:39:58.972Z</time>
      </trkpt>
      <trkpt lat="44.24839" lon="2.52139">
        <ele>683</ele>
        <time>2022-06-12T07:39:59.972Z</time>
      </trkpt>
      <trkpt lat="44.24839" lon="2.5214">
        <ele>683</ele>
        <time>2022-06-12T07:40:00.972Z</time>
      </trkpt>
      <trkpt lat="44.2484" lon="2.52141">
        <ele>683</ele>
        <time>2022-06-12T07:40:01.972Z</time>
      </trkpt>
      <trkpt lat="44.2484" lon="2.52142">
        <ele>683</ele>
        <time>2022-06-12T07:40:02.972Z</time>
      </trkpt>
      <trkpt lat="44.24841" lon="2.52144">
        <ele>683</ele>
        <time>2022-06-12T07:40:03.972Z</time>
      </trkpt>
      <trkpt lat="44.24841" lon="2.52145">
        <ele>683</ele>
        <time>2022-06-12T07:40:04.972Z</time>
      </trkpt>
      <trkpt lat="44.24841" lon="2.52147">
        <ele>683</ele>
        <time>2022-06-12T07:40:05.972Z</time>
      </trkpt>
      <trkpt lat="44.24842" lon="2.52148">
        <ele>683</ele>
        <time>2022-06-12T07:40:06.972Z</time>
      </trkpt>
      <trkpt lat="44.24842" lon="2.52149">
        <ele>683</ele>
        <time>2022-06-12T07:40:07.972Z</time>
      </trkpt>
      <trkpt lat="44.24843" lon="2.52151">
        <ele>683</ele>
        <time>2022-06-12T07:40:08.972Z</time>
      </trkpt>
      <trkpt lat="44.24843" lon="2.52152">
        <ele>683</ele>
        <time>2022-06-12T07:40:09.972Z</time>
      </trkpt>
      <trkpt lat="44.24843" lon="2.52153">
        <ele>683</ele>
        <time>2022-06-12T07:40:10.972Z</time>
      </trkpt>
      <trkpt lat="44.24844" lon="2.52155">
        <ele>683</ele>
        <time>2022-06-12T07:40:11.972Z</time>
      </trkpt>
      <trkpt lat="44.24844" lon="2.52156">
        <ele>683</ele>
        <time>2022-06-12T07:40:12.972Z</time>
      </trkpt>
      <trkpt lat="44.24845" lon="2.52158">
        <ele>683</ele>
        <time>2022-06-12T07:40:13.972Z</time>
      </trkpt>
      <trkpt lat="44.24845" lon="2.52159">
        <ele>683</ele>
        <time>2022-06-12T07:40:14.972Z</time>
      </trkpt>
      <trkpt lat="44.24845" lon="2.5216">
        <ele>683</ele>
        <time>2022-06-12T07:40:15.972Z</time>
      </trkpt>
      <trkpt lat="44.24846" lon="2.52162">
        <ele>683</ele>
        <time>2022-06-12T07:40:16.972Z</time>
      </trkpt>
      <trkpt lat="44.24846" lon="2.52163">
        <ele>683</ele>
        <time>2022-06-12T07:40:17.972Z</time>
      </trkpt>
      <trkpt lat="44.24847" lon="2.52165">
        <ele>683</ele>
        <time>2022-06-12T07:40:18.972Z</time>
      </trkpt>
      <trkpt lat="44.24847" lon="2.52166">
        <ele>683</ele>
        <time>2022-06-12T07:40:19.972Z</time>
      </trkpt>
      <trkpt lat="44.24847" lon="2.52168">
        <ele>684</ele>
        <time>2022-06-12T07:40:20.972Z</time>
      </trkpt>
      <trkpt lat="44.24848" lon="2.52169">
        <ele>684</ele>
        <time>2022-06-12T07:40:21.972Z</time>
      </trkpt>
      <trkpt lat="44.24848" lon="2.5217">
        <ele>684</ele>
        <time>2022-06-12T07:40:22.972Z</time>
      </trkpt>
      <trkpt lat="44.24848" lon="2.52172">
        <ele>684</ele>
        <time>2022-06-12T07:40:23.972Z</time>
      </trkpt>
      <trkpt lat="44.24849" lon="2.52173">
        <ele>684</ele>
        <time>2022-06-12T07:40:24.972Z</time>
      </trkpt>
      <trkpt lat="44.24849" lon="2.52175">
        <ele>684</ele>
        <time>2022-06-12T07:40:25.972Z</time>
      </trkpt>
      <trkpt lat="44.24849" lon="2.52176">
        <ele>684</ele>
        <time>2022-06-12T07:40:26.972Z</time>
      </trkpt>
      <trkpt lat="44.2485" lon="2.52178">
        <ele>684</ele>
        <time>2022-06-12T07:40:27.972Z</time>
      </trkpt>
      <trkpt lat="44.2485" lon="2.52179">
        <ele>684</ele>
        <time>2022-06-12T07:40:28.972Z</time>
      </trkpt>
      <trkpt lat="44.24851" lon="2.5218">
        <ele>684</ele>
        <time>2022-06-12T07:40:29.972Z</time>
      </trkpt>
      <trkpt lat="44.24851" lon="2.52182">
        <ele>684</ele>
        <time>2022-06-12T07:40:30.972Z</time>
      </trkpt>
      <trkpt lat="44.24851" lon="2.52183">
        <ele>684</ele>
        <time>2022-06-12T07:40:31.972Z</time>
      </trkpt>
      <trkpt lat="44.24852" lon="2.52185">
        <ele>684</ele>
        <time>2022-06-12T07:40:32.972Z</time>
      </trkpt>
      <trkpt lat="44.24852" lon="2.52186">
        <ele>684</ele>
        <time>2022-06-12T07:40:33.972Z</time>
      </trkpt>
      <trkpt lat="44.24853" lon="2.52187">
        <ele>685</ele>
        <time>2022-06-12T07:40:34.972Z</time>
      </trkpt>
      <trkpt lat="44.24853" lon="2.52189">
        <ele>685</ele>
        <time>2022-06-12T07:40:35.972Z</time>
      </trkpt>
      <trkpt lat="44.24853" lon="2.5219">
        <ele>685</ele>
        <time>2022-06-12T07:40:36.972Z</time>
      </trkpt>
      <trkpt lat="44.24854" lon="2.52191">
        <ele>685</ele>
        <time>2022-06-12T07:40:37.972Z</time>
      </trkpt>
      <trkpt lat="44.24854" lon="2.52192">
        <ele>685</ele>
        <time>2022-06-12T07:40:38.972Z</time>
      </trkpt>
      <trkpt lat="44.24855" lon="2.52194">
        <ele>685</ele>
        <time>2022-06-12T07:40:39.972Z</time>
      </trkpt>
      <trkpt lat="44.24855" lon="2.52195">
        <ele>685</ele>
        <time>2022-06-12T07:40:40.972Z</time>
      </trkpt>
      <trkpt lat="44.24856" lon="2.52196">
        <ele>685</ele>
        <time>2022-06-12T07:40:41.972Z</time>
      </trkpt>
      <trkpt lat="44.24856" lon="2.52198">
        <ele>685</ele>
        <time>2022-06-12T07:40:42.972Z</time>
      </trkpt>
      <trkpt lat="44.24856" lon="2.52199">
        <ele>685</ele>
        <time>2022-06-12T07:40:43.972Z</time>
      </trkpt>
      <trkpt lat="44.24857" lon="2.52201">
        <ele>685</ele>
        <time>2022-06-12T07:40:44.972Z</time>
      </trkpt>
      <trkpt lat="44.24857" lon="2.52202">
        <ele>685</ele>
        <time>2022-06-12T07:40:45.972Z</time>
      </trkpt>
      <trkpt lat="44.24857" lon="2.52203">
        <ele>685</ele>
        <time>2022-06-12T07:40:46.972Z</time>
      </trkpt>
      <trkpt lat="44.24857" lon="2.52205">
        <ele>685</ele>
        <time>2022-06-12T07:40:47.972Z</time>
      </trkpt>
      <trkpt lat="44.24858" lon="2.52206">
        <ele>685</ele>
        <time>2022-06-12T07:40:48.972Z</time>
      </trkpt>
      <trkpt lat="44.24858" lon="2.52208">
        <ele>686</ele>
        <time>2022-06-12T07:40:49.972Z</time>
      </trkpt>
      <trkpt lat="44.24859" lon="2.52209">
        <ele>686</ele>
        <time>2022-06-12T07:40:50.972Z</time>
      </trkpt>
      <trkpt lat="44.24859" lon="2.52211">
        <ele>686</ele>
        <time>2022-06-12T07:40:51.972Z</time>
      </trkpt>
      <trkpt lat="44.24859" lon="2.52212">
        <ele>686</ele>
        <time>2022-06-12T07:40:52.972Z</time>
      </trkpt>
      <trkpt lat="44.2486" lon="2.52214">
        <ele>686</ele>
        <time>2022-06-12T07:40:53.972Z</time>
      </trkpt>
      <trkpt lat="44.2486" lon="2.52215">
        <ele>686</ele>
        <time>2022-06-12T07:40:54.972Z</time>
      </trkpt>
      <trkpt lat="44.24861" lon="2.52217">
        <ele>686</ele>
        <time>2022-06-12T07:40:55.972Z</time>
      </trkpt>
      <trkpt lat="44.24861" lon="2.52218">
        <ele>686</ele>
        <time>2022-06-12T07:40:56.972Z</time>
      </trkpt>
      <trkpt lat="44.24861" lon="2.52219">
        <ele>686</ele>
        <time>2022-06-12T07:40:57.972Z</time>
      </trkpt>
      <trkpt lat="44.24862" lon="2.52221">
        <ele>686</ele>
        <time>2022-06-12T07:40:58.972Z</time>
      </trkpt>
      <trkpt lat="44.24862" lon="2.52222">
        <ele>686</ele>
        <time>2022-06-12T07:40:59.972Z</time>
      </trkpt>
      <trkpt lat="44.24863" lon="2.52224">
        <ele>686</ele>
        <time>2022-06-12T07:41:00.972Z</time>
      </trkpt>
      <trkpt lat="44.24863" lon="2.52225">
        <ele>686</ele>
        <time>2022-06-12T07:41:01.972Z</time>
      </trkpt>
      <trkpt lat="44.24863" lon="2.52227">
        <ele>686</ele>
        <time>2022-06-12T07:41:02.972Z</time>
      </trkpt>
      <trkpt lat="44.24864" lon="2.52228">
        <ele>686</ele>
        <time>2022-06-12T07:41:03.972Z</time>
      </trkpt>
      <trkpt lat="44.24864" lon="2.52229">
        <ele>686</ele>
        <time>2022-06-12T07:41:04.972Z</time>
      </trkpt>
      <trkpt lat="44.24865" lon="2.52231">
        <ele>687</ele>
        <time>2022-06-12T07:41:05.972Z</time>
      </trkpt>
      <trkpt lat="44.24865" lon="2.52232">
        <ele>687</ele>
        <time>2022-06-12T07:41:06.972Z</time>
      </trkpt>
      <trkpt lat="44.24865" lon="2.52233">
        <ele>687</ele>
        <time>2022-06-12T07:41:07.972Z</time>
      </trkpt>
      <trkpt lat="44.24866" lon="2.52235">
        <ele>687</ele>
        <time>2022-06-12T07:41:08.972Z</time>
      </trkpt>
      <trkpt lat="44.24866" lon="2.52236">
        <ele>687</ele>
        <time>2022-06-12T07:41:09.972Z</time>
      </trkpt>
      <trkpt lat="44.24867" lon="2.52238">
        <ele>687</ele>
        <time>2022-06-12T07:41:10.972Z</time>
      </trkpt>
      <trkpt lat="44.24867" lon="2.52239">
        <ele>687</ele>
        <time>2022-06-12T07:41:11.972Z</time>
      </trkpt>
      <trkpt lat="44.24867" lon="2.5224">
        <ele>687</ele>
        <time>2022-06-12T07:41:12.972Z</time>
      </trkpt>
      <trkpt lat="44.24868" lon="2.52242">
        <ele>687</ele>
        <time>2022-06-12T07:41:13.972Z</time>
      </trkpt>
      <trkpt lat="44.24868" lon="2.52243">
        <ele>687</ele>
        <time>2022-06-12T07:41:14.972Z</time>
      </trkpt>
      <trkpt lat="44.24868" lon="2.52245">
        <ele>688</ele>
        <time>2022-06-12T07:41:15.972Z</time>
      </trkpt>
      <trkpt lat="44.24869" lon="2.52246">
        <ele>688</ele>
        <time>2022-06-12T07:41:16.972Z</time>
      </trkpt>
      <trkpt lat="44.24869" lon="2.52247">
        <ele>688</ele>
        <time>2022-06-12T07:41:17.972Z</time>
      </trkpt>
      <trkpt lat="44.24869" lon="2.52249">
        <ele>688</ele>
        <time>2022-06-12T07:41:18.972Z</time>
      </trkpt>
      <trkpt lat="44.2487" lon="2.5225">
        <ele>688</ele>
        <time>2022-06-12T07:41:19.972Z</time>
      </trkpt>
      <trkpt lat="44.2487" lon="2.52251">
        <ele>688</ele>
        <time>2022-06-12T07:41:20.972Z</time>
      </trkpt>
      <trkpt lat="44.24871" lon="2.52253">
        <ele>688</ele>
        <time>2022-06-12T07:41:21.972Z</time>
      </trkpt>
      <trkpt lat="44.24871" lon="2.52254">
        <ele>688</ele>
        <time>2022-06-12T07:41:22.972Z</time>
      </trkpt>
      <trkpt lat="44.24871" lon="2.52256">
        <ele>688</ele>
        <time>2022-06-12T07:41:23.972Z</time>
      </trkpt>
      <trkpt lat="44.24872" lon="2.52257">
        <ele>688</ele>
        <time>2022-06-12T07:41:24.972Z</time>
      </trkpt>
      <trkpt lat="44.24872" lon="2.52259">
        <ele>688</ele>
        <time>2022-06-12T07:41:25.972Z</time>
      </trkpt>
      <trkpt lat="44.24872" lon="2.5226">
        <ele>689</ele>
        <time>2022-06-12T07:41:26.972Z</time>
      </trkpt>
      <trkpt lat="44.24873" lon="2.52261">
        <ele>689</ele>
        <time>2022-06-12T07:41:27.972Z</time>
      </trkpt>
      <trkpt lat="44.24873" lon="2.52262">
        <ele>689</ele>
        <time>2022-06-12T07:41:28.972Z</time>
      </trkpt>
      <trkpt lat="44.24873" lon="2.52264">
        <ele>689</ele>
        <time>2022-06-12T07:41:29.972Z</time>
      </trkpt>
      <trkpt lat="44.24874" lon="2.52265">
        <ele>689</ele>
        <time>2022-06-12T07:41:30.972Z</time>
      </trkpt>
      <trkpt lat="44.24874" lon="2.52266">
        <ele>689</ele>
        <time>2022-06-12T07:41:31.972Z</time>
      </trkpt>
      <trkpt lat="44.24875" lon="2.52267">
        <ele>689</ele>
        <time>2022-06-12T07:41:32.972Z</time>
      </trkpt>
      <trkpt lat="44.24875" lon="2.52269">
        <ele>689</ele>
        <time>2022-06-12T07:41:33.972Z</time>
      </trkpt>
      <trkpt lat="44.24876" lon="2.5227">
        <ele>690</ele>
        <time>2022-06-12T07:41:34.972Z</time>
      </trkpt>
      <trkpt lat="44.24876" lon="2.52272">
        <ele>690</ele>
        <time>2022-06-12T07:41:35.972Z</time>
      </trkpt>
      <trkpt lat="44.24876" lon="2.52273">
        <ele>690</ele>
        <time>2022-06-12T07:41:36.972Z</time>
      </trkpt>
      <trkpt lat="44.24876" lon="2.52274">
        <ele>690</ele>
        <time>2022-06-12T07:41:37.972Z</time>
      </trkpt>
      <trkpt lat="44.24877" lon="2.52276">
        <ele>690</ele>
        <time>2022-06-12T07:41:38.972Z</time>
      </trkpt>
      <trkpt lat="44.24877" lon="2.52277">
        <ele>690</ele>
        <time>2022-06-12T07:41:39.972Z</time>
      </trkpt>
      <trkpt lat="44.24877" lon="2.52278">
        <ele>690</ele>
        <time>2022-06-12T07:41:40.972Z</time>
      </trkpt>
      <trkpt lat="44.24878" lon="2.5228">
        <ele>690</ele>
        <time>2022-06-12T07:41:41.972Z</time>
      </trkpt>
      <trkpt lat="44.24878" lon="2.52281">
        <ele>690</ele>
        <time>2022-06-12T07:41:42.972Z</time>
      </trkpt>
      <trkpt lat="44.24878" lon="2.52282">
        <ele>691</ele>
        <time>2022-06-12T07:41:43.972Z</time>
      </trkpt>
      <trkpt lat="44.24879" lon="2.52284">
        <ele>691</ele>
        <time>2022-06-12T07:41:44.972Z</time>
      </trkpt>
      <trkpt lat="44.24879" lon="2.52285">
        <ele>691</ele>
        <time>2022-06-12T07:41:45.972Z</time>
      </trkpt>
      <trkpt lat="44.24879" lon="2.52286">
        <ele>691</ele>
        <time>2022-06-12T07:41:46.972Z</time>
      </trkpt>
      <trkpt lat="44.2488" lon="2.52288">
        <ele>691</ele>
        <time>2022-06-12T07:41:47.972Z</time>
      </trkpt>
      <trkpt lat="44.2488" lon="2.52289">
        <ele>691</ele>
        <time>2022-06-12T07:41:48.972Z</time>
      </trkpt>
      <trkpt lat="44.2488" lon="2.5229">
        <ele>691</ele>
        <time>2022-06-12T07:41:49.972Z</time>
      </trkpt>
      <trkpt lat="44.24881" lon="2.52292">
        <ele>691</ele>
        <time>2022-06-12T07:41:50.972Z</time>
      </trkpt>
      <trkpt lat="44.24881" lon="2.52293">
        <ele>692</ele>
        <time>2022-06-12T07:41:51.972Z</time>
      </trkpt>
      <trkpt lat="44.24882" lon="2.52295">
        <ele>692</ele>
        <time>2022-06-12T07:41:52.972Z</time>
      </trkpt>
      <trkpt lat="44.24882" lon="2.52296">
        <ele>692</ele>
        <time>2022-06-12T07:41:53.972Z</time>
      </trkpt>
      <trkpt lat="44.24883" lon="2.52297">
        <ele>692</ele>
        <time>2022-06-12T07:41:54.972Z</time>
      </trkpt>
      <trkpt lat="44.24883" lon="2.52299">
        <ele>692</ele>
        <time>2022-06-12T07:41:55.972Z</time>
      </trkpt>
      <trkpt lat="44.24883" lon="2.523">
        <ele>692</ele>
        <time>2022-06-12T07:41:56.972Z</time>
      </trkpt>
      <trkpt lat="44.24884" lon="2.52301">
        <ele>692</ele>
        <time>2022-06-12T07:41:57.972Z</time>
      </trkpt>
      <trkpt lat="44.24884" lon="2.52303">
        <ele>692</ele>
        <time>2022-06-12T07:41:58.972Z</time>
      </trkpt>
      <trkpt lat="44.24885" lon="2.52304">
        <ele>692</ele>
        <time>2022-06-12T07:41:59.972Z</time>
      </trkpt>
      <trkpt lat="44.24885" lon="2.52306">
        <ele>692</ele>
        <time>2022-06-12T07:42:00.972Z</time>
      </trkpt>
      <trkpt lat="44.24886" lon="2.52307">
        <ele>693</ele>
        <time>2022-06-12T07:42:01.972Z</time>
      </trkpt>
      <trkpt lat="44.24886" lon="2.52308">
        <ele>693</ele>
        <time>2022-06-12T07:42:02.972Z</time>
      </trkpt>
      <trkpt lat="44.24886" lon="2.5231">
        <ele>693</ele>
        <time>2022-06-12T07:42:03.972Z</time>
      </trkpt>
      <trkpt lat="44.24887" lon="2.52311">
        <ele>693</ele>
        <time>2022-06-12T07:42:04.972Z</time>
      </trkpt>
      <trkpt lat="44.24887" lon="2.52313">
        <ele>693</ele>
        <time>2022-06-12T07:42:05.972Z</time>
      </trkpt>
      <trkpt lat="44.24888" lon="2.52314">
        <ele>693</ele>
        <time>2022-06-12T07:42:06.972Z</time>
      </trkpt>
      <trkpt lat="44.24888" lon="2.52315">
        <ele>693</ele>
        <time>2022-06-12T07:42:07.972Z</time>
      </trkpt>
      <trkpt lat="44.24888" lon="2.52317">
        <ele>693</ele>
        <time>2022-06-12T07:42:08.972Z</time>
      </trkpt>
      <trkpt lat="44.24889" lon="2.52318">
        <ele>693</ele>
        <time>2022-06-12T07:42:09.972Z</time>
      </trkpt>
      <trkpt lat="44.24889" lon="2.52319">
        <ele>693</ele>
        <time>2022-06-12T07:42:10.972Z</time>
      </trkpt>
      <trkpt lat="44.2489" lon="2.5232">
        <ele>693</ele>
        <time>2022-06-12T07:42:11.972Z</time>
      </trkpt>
      <trkpt lat="44.2489" lon="2.52322">
        <ele>693</ele>
        <time>2022-06-12T07:42:12.972Z</time>
      </trkpt>
      <trkpt lat="44.2489" lon="2.52323">
        <ele>693</ele>
        <time>2022-06-12T07:42:13.972Z</time>
      </trkpt>
      <trkpt lat="44.24891" lon="2.52324">
        <ele>693</ele>
        <time>2022-06-12T07:42:14.972Z</time>
      </trkpt>
      <trkpt lat="44.24891" lon="2.52325">
        <ele>693</ele>
        <time>2022-06-12T07:42:15.972Z</time>
      </trkpt>
      <trkpt lat="44.24891" lon="2.52327">
        <ele>693</ele>
        <time>2022-06-12T07:42:16.972Z</time>
      </trkpt>
      <trkpt lat="44.24892" lon="2.52328">
        <ele>694</ele>
        <time>2022-06-12T07:42:17.972Z</time>
      </trkpt>
      <trkpt lat="44.24892" lon="2.52329">
        <ele>694</ele>
        <time>2022-06-12T07:42:18.972Z</time>
      </trkpt>
      <trkpt lat="44.24892" lon="2.52331">
        <ele>694</ele>
        <time>2022-06-12T07:42:19.972Z</time>
      </trkpt>
      <trkpt lat="44.24893" lon="2.52332">
        <ele>694</ele>
        <time>2022-06-12T07:42:20.972Z</time>
      </trkpt>
      <trkpt lat="44.24893" lon="2.52333">
        <ele>694</ele>
        <time>2022-06-12T07:42:21.972Z</time>
      </trkpt>
      <trkpt lat="44.24893" lon="2.52334">
        <ele>694</ele>
        <time>2022-06-12T07:42:22.972Z</time>
      </trkpt>
      <trkpt lat="44.24894" lon="2.52335">
        <ele>694</ele>
        <time>2022-06-12T07:42:23.972Z</time>
      </trkpt>
      <trkpt lat="44.24894" lon="2.52336">
        <ele>694</ele>
        <time>2022-06-12T07:42:24.972Z</time>
      </trkpt>
      <trkpt lat="44.24894" lon="2.52337">
        <ele>694</ele>
        <time>2022-06-12T07:42:25.972Z</time>
      </trkpt>
      <trkpt lat="44.24894" lon="2.52338">
        <ele>694</ele>
        <time>2022-06-12T07:42:26.972Z</time>
      </trkpt>
      <trkpt lat="44.24895" lon="2.52339">
        <ele>694</ele>
        <time>2022-06-12T07:42:27.972Z</time>
      </trkpt>
      <trkpt lat="44.24895" lon="2.5234">
        <ele>695</ele>
        <time>2022-06-12T07:42:28.972Z</time>
      </trkpt>
      <trkpt lat="44.24895" lon="2.52341">
        <ele>695</ele>
        <time>2022-06-12T07:42:29.972Z</time>
      </trkpt>
      <trkpt lat="44.24896" lon="2.52342">
        <ele>695</ele>
        <time>2022-06-12T07:42:30.972Z</time>
      </trkpt>
      <trkpt lat="44.24896" lon="2.52343">
        <ele>695</ele>
        <time>2022-06-12T07:42:31.972Z</time>
      </trkpt>
      <trkpt lat="44.24896" lon="2.52344">
        <ele>695</ele>
        <time>2022-06-12T07:42:32.972Z</time>
      </trkpt>
      <trkpt lat="44.24896" lon="2.52345">
        <ele>695</ele>
        <time>2022-06-12T07:42:33.972Z</time>
      </trkpt>
      <trkpt lat="44.24896" lon="2.52346">
        <ele>695</ele>
        <time>2022-06-12T07:42:34.972Z</time>
      </trkpt>
      <trkpt lat="44.24896" lon="2.52347">
        <ele>695</ele>
        <time>2022-06-12T07:42:35.972Z</time>
      </trkpt>
      <trkpt lat="44.24896" lon="2.52348">
        <ele>695</ele>
        <time>2022-06-12T07:42:36.972Z</time>
      </trkpt>
      <trkpt lat="44.24896" lon="2.5235">
        <ele>695</ele>
        <time>2022-06-12T07:42:37.972Z</time>
      </trkpt>
      <trkpt lat="44.24896" lon="2.52351">
        <ele>696</ele>
        <time>2022-06-12T07:42:38.972Z</time>
      </trkpt>
      <trkpt lat="44.24896" lon="2.52352">
        <ele>696</ele>
        <time>2022-06-12T07:42:39.972Z</time>
      </trkpt>
      <trkpt lat="44.24896" lon="2.52353">
        <ele>696</ele>
        <time>2022-06-12T07:42:40.972Z</time>
      </trkpt>
      <trkpt lat="44.24897" lon="2.52354">
        <ele>696</ele>
        <time>2022-06-12T07:42:41.972Z</time>
      </trkpt>
      <trkpt lat="44.24897" lon="2.52356">
        <ele>696</ele>
        <time>2022-06-12T07:42:42.972Z</time>
      </trkpt>
      <trkpt lat="44.24897" lon="2.52357">
        <ele>696</ele>
        <time>2022-06-12T07:42:43.972Z</time>
      </trkpt>
      <trkpt lat="44.24897" lon="2.52358">
        <ele>696</ele>
        <time>2022-06-12T07:42:44.972Z</time>
      </trkpt>
      <trkpt lat="44.24897" lon="2.52358">
        <ele>696</ele>
        <time>2022-06-12T07:42:45.972Z</time>
      </trkpt>
      <trkpt lat="44.24897" lon="2.52357">
        <ele>696</ele>
        <time>2022-06-12T07:42:46.972Z</time>
      </trkpt>
      <trkpt lat="44.24897" lon="2.52358">
        <ele>696</ele>
        <time>2022-06-12T07:42:47.972Z</time>
      </trkpt>
      <trkpt lat="44.24897" lon="2.5236">
        <ele>696</ele>
        <time>2022-06-12T07:42:48.972Z</time>
      </trkpt>
      <trkpt lat="44.24896" lon="2.52361">
        <ele>696</ele>
        <time>2022-06-12T07:42:49.972Z</time>
      </trkpt>
      <trkpt lat="44.24895" lon="2.52362">
        <ele>696</ele>
        <time>2022-06-12T07:42:50.972Z</time>
      </trkpt>
      <trkpt lat="44.24895" lon="2.52363">
        <ele>696</ele>
        <time>2022-06-12T07:42:51.972Z</time>
      </trkpt>
      <trkpt lat="44.24894" lon="2.52364">
        <ele>696</ele>
        <time>2022-06-12T07:42:52.972Z</time>
      </trkpt>
      <trkpt lat="44.24894" lon="2.52365">
        <ele>696</ele>
        <time>2022-06-12T07:42:53.972Z</time>
      </trkpt>
      <trkpt lat="44.24893" lon="2.52366">
        <ele>696</ele>
        <time>2022-06-12T07:42:54.972Z</time>
      </trkpt>
      <trkpt lat="44.24893" lon="2.52367">
        <ele>696</ele>
        <time>2022-06-12T07:42:55.972Z</time>
      </trkpt>
      <trkpt lat="44.24892" lon="2.52368">
        <ele>696</ele>
        <time>2022-06-12T07:42:56.972Z</time>
      </trkpt>
      <trkpt lat="44.24892" lon="2.5237">
        <ele>696</ele>
        <time>2022-06-12T07:42:57.972Z</time>
      </trkpt>
      <trkpt lat="44.24892" lon="2.52371">
        <ele>696</ele>
        <time>2022-06-12T07:42:58.972Z</time>
      </trkpt>
      <trkpt lat="44.24892" lon="2.52372">
        <ele>696</ele>
        <time>2022-06-12T07:42:59.972Z</time>
      </trkpt>
      <trkpt lat="44.24892" lon="2.52372">
        <ele>695</ele>
        <time>2022-06-12T07:43:00.972Z</time>
      </trkpt>
      <trkpt lat="44.24891" lon="2.52373">
        <ele>695</ele>
        <time>2022-06-12T07:43:01.972Z</time>
      </trkpt>
      <trkpt lat="44.24891" lon="2.52373">
        <ele>695</ele>
        <time>2022-06-12T07:43:02.972Z</time>
      </trkpt>
      <trkpt lat="44.24891" lon="2.52373">
        <ele>696</ele>
        <time>2022-06-12T07:43:03.972Z</time>
      </trkpt>
      <trkpt lat="44.24892" lon="2.52372">
        <ele>696</ele>
        <time>2022-06-12T07:43:51.970Z</time>
      </trkpt>
      <trkpt lat="44.24892" lon="2.52371">
        <ele>695</ele>
        <time>2022-06-12T07:43:52.970Z</time>
      </trkpt>
      <trkpt lat="44.24893" lon="2.5237">
        <ele>695</ele>
        <time>2022-06-12T07:43:53.970Z</time>
      </trkpt>
      <trkpt lat="44.24893" lon="2.52369">
        <ele>695</ele>
        <time>2022-06-12T07:43:54.970Z</time>
      </trkpt>
      <trkpt lat="44.24894" lon="2.52369">
        <ele>695</ele>
        <time>2022-06-12T07:43:55.970Z</time>
      </trkpt>
      <trkpt lat="44.24895" lon="2.52368">
        <ele>695</ele>
        <time>2022-06-12T07:43:56.970Z</time>
      </trkpt>
      <trkpt lat="44.24895" lon="2.52367">
        <ele>695</ele>
        <time>2022-06-12T07:43:57.970Z</time>
      </trkpt>
      <trkpt lat="44.24896" lon="2.52367">
        <ele>695</ele>
        <time>2022-06-12T07:43:58.970Z</time>
      </trkpt>
      <trkpt lat="44.24896" lon="2.52366">
        <ele>696</ele>
        <time>2022-06-12T07:43:59.970Z</time>
      </trkpt>
      <trkpt lat="44.24897" lon="2.52365">
        <ele>695</ele>
        <time>2022-06-12T07:44:00.970Z</time>
      </trkpt>
      <trkpt lat="44.24898" lon="2.52365">
        <ele>695</ele>
        <time>2022-06-12T07:44:01.970Z</time>
      </trkpt>
      <trkpt lat="44.24898" lon="2.52364">
        <ele>695</ele>
        <time>2022-06-12T07:44:02.970Z</time>
      </trkpt>
      <trkpt lat="44.24899" lon="2.52363">
        <ele>695</ele>
        <time>2022-06-12T07:44:03.970Z</time>
      </trkpt>
      <trkpt lat="44.24899" lon="2.52363">
        <ele>695</ele>
        <time>2022-06-12T07:44:04.970Z</time>
      </trkpt>
      <trkpt lat="44.249" lon="2.52363">
        <ele>695</ele>
        <time>2022-06-12T07:44:05.970Z</time>
      </trkpt>
      <trkpt lat="44.249" lon="2.52362">
        <ele>695</ele>
        <time>2022-06-12T07:44:06.970Z</time>
      </trkpt>
      <trkpt lat="44.249" lon="2.52362">
        <ele>695</ele>
        <time>2022-06-12T07:44:07.970Z</time>
      </trkpt>
      <trkpt lat="44.24899" lon="2.52359">
        <ele>696</ele>
        <time>2022-06-12T07:44:22.969Z</time>
      </trkpt>
      <trkpt lat="44.249" lon="2.52358">
        <ele>696</ele>
        <time>2022-06-12T07:44:23.969Z</time>
      </trkpt>
      <trkpt lat="44.249" lon="2.52357">
        <ele>696</ele>
        <time>2022-06-12T07:45:18.969Z</time>
      </trkpt>
      <trkpt lat="44.24901" lon="2.52358">
        <ele>696</ele>
        <time>2022-06-12T07:45:19.969Z</time>
      </trkpt>
      <trkpt lat="44.24901" lon="2.52358">
        <ele>696</ele>
        <time>2022-06-12T07:45:20.969Z</time>
      </trkpt>
      <trkpt lat="44.24902" lon="2.52359">
        <ele>696</ele>
        <time>2022-06-12T07:45:21.969Z</time>
      </trkpt>
      <trkpt lat="44.24903" lon="2.5236">
        <ele>696</ele>
        <time>2022-06-12T07:45:22.969Z</time>
      </trkpt>
      <trkpt lat="44.24904" lon="2.52361">
        <ele>696</ele>
        <time>2022-06-12T07:45:23.969Z</time>
      </trkpt>
      <trkpt lat="44.24905" lon="2.52362">
        <ele>696</ele>
        <time>2022-06-12T07:45:24.969Z</time>
      </trkpt>
      <trkpt lat="44.24906" lon="2.52363">
        <ele>696</ele>
        <time>2022-06-12T07:45:25.969Z</time>
      </trkpt>
      <trkpt lat="44.24906" lon="2.52365">
        <ele>696</ele>
        <time>2022-06-12T07:45:26.969Z</time>
      </trkpt>
      <trkpt lat="44.24907" lon="2.52366">
        <ele>696</ele>
        <time>2022-06-12T07:45:27.969Z</time>
      </trkpt>
      <trkpt lat="44.24908" lon="2.52367">
        <ele>696</ele>
        <time>2022-06-12T07:45:28.969Z</time>
      </trkpt>
      <trkpt lat="44.24909" lon="2.52368">
        <ele>696</ele>
        <time>2022-06-12T07:45:29.969Z</time>
      </trkpt>
      <trkpt lat="44.24909" lon="2.52369">
        <ele>696</ele>
        <time>2022-06-12T07:45:30.969Z</time>
      </trkpt>
      <trkpt lat="44.2491" lon="2.5237">
        <ele>696</ele>
        <time>2022-06-12T07:45:31.969Z</time>
      </trkpt>
      <trkpt lat="44.2491" lon="2.52371">
        <ele>696</ele>
        <time>2022-06-12T07:45:32.969Z</time>
      </trkpt>
      <trkpt lat="44.24911" lon="2.52373">
        <ele>696</ele>
        <time>2022-06-12T07:45:33.969Z</time>
      </trkpt>
      <trkpt lat="44.24912" lon="2.52374">
        <ele>696</ele>
        <time>2022-06-12T07:45:34.969Z</time>
      </trkpt>
      <trkpt lat="44.24912" lon="2.52375">
        <ele>696</ele>
        <time>2022-06-12T07:45:35.969Z</time>
      </trkpt>
      <trkpt lat="44.24913" lon="2.52377">
        <ele>696</ele>
        <time>2022-06-12T07:45:36.969Z</time>
      </trkpt>
      <trkpt lat="44.24913" lon="2.52378">
        <ele>696</ele>
        <time>2022-06-12T07:45:37.969Z</time>
      </trkpt>
      <trkpt lat="44.24914" lon="2.52379">
        <ele>696</ele>
        <time>2022-06-12T07:45:38.969Z</time>
      </trkpt>
      <trkpt lat="44.24915" lon="2.52381">
        <ele>696</ele>
        <time>2022-06-12T07:45:39.969Z</time>
      </trkpt>
      <trkpt lat="44.24915" lon="2.52382">
        <ele>696</ele>
        <time>2022-06-12T07:45:40.969Z</time>
      </trkpt>
      <trkpt lat="44.24916" lon="2.52383">
        <ele>696</ele>
        <time>2022-06-12T07:45:41.969Z</time>
      </trkpt>
      <trkpt lat="44.24917" lon="2.52385">
        <ele>696</ele>
        <time>2022-06-12T07:45:42.969Z</time>
      </trkpt>
      <trkpt lat="44.24918" lon="2.52386">
        <ele>696</ele>
        <time>2022-06-12T07:45:43.969Z</time>
      </trkpt>
      <trkpt lat="44.24918" lon="2.52387">
        <ele>696</ele>
        <time>2022-06-12T07:45:44.969Z</time>
      </trkpt>
      <trkpt lat="44.24919" lon="2.52388">
        <ele>696</ele>
        <time>2022-06-12T07:45:45.969Z</time>
      </trkpt>
      <trkpt lat="44.2492" lon="2.5239">
        <ele>696</ele>
        <time>2022-06-12T07:45:46.969Z</time>
      </trkpt>
      <trkpt lat="44.24921" lon="2.52391">
        <ele>696</ele>
        <time>2022-06-12T07:45:47.969Z</time>
      </trkpt>
      <trkpt lat="44.24921" lon="2.52392">
        <ele>696</ele>
        <time>2022-06-12T07:45:48.969Z</time>
      </trkpt>
      <trkpt lat="44.24922" lon="2.52393">
        <ele>696</ele>
        <time>2022-06-12T07:45:49.969Z</time>
      </trkpt>
      <trkpt lat="44.24922" lon="2.52395">
        <ele>695</ele>
        <time>2022-06-12T07:45:50.969Z</time>
      </trkpt>
      <trkpt lat="44.24923" lon="2.52396">
        <ele>695</ele>
        <time>2022-06-12T07:45:51.969Z</time>
      </trkpt>
      <trkpt lat="44.24923" lon="2.52398">
        <ele>695</ele>
        <time>2022-06-12T07:45:52.969Z</time>
      </trkpt>
      <trkpt lat="44.24924" lon="2.52399">
        <ele>695</ele>
        <time>2022-06-12T07:45:53.969Z</time>
      </trkpt>
      <trkpt lat="44.24925" lon="2.524">
        <ele>695</ele>
        <time>2022-06-12T07:45:54.969Z</time>
      </trkpt>
      <trkpt lat="44.24925" lon="2.52402">
        <ele>695</ele>
        <time>2022-06-12T07:45:55.969Z</time>
      </trkpt>
      <trkpt lat="44.24926" lon="2.52403">
        <ele>695</ele>
        <time>2022-06-12T07:45:56.969Z</time>
      </trkpt>
      <trkpt lat="44.24927" lon="2.52405">
        <ele>695</ele>
        <time>2022-06-12T07:45:57.969Z</time>
      </trkpt>
      <trkpt lat="44.24927" lon="2.52406">
        <ele>695</ele>
        <time>2022-06-12T07:45:58.969Z</time>
      </trkpt>
      <trkpt lat="44.24928" lon="2.52408">
        <ele>695</ele>
        <time>2022-06-12T07:45:59.969Z</time>
      </trkpt>
      <trkpt lat="44.24928" lon="2.52409">
        <ele>695</ele>
        <time>2022-06-12T07:46:00.969Z</time>
      </trkpt>
      <trkpt lat="44.24929" lon="2.5241">
        <ele>695</ele>
        <time>2022-06-12T07:46:01.969Z</time>
      </trkpt>
      <trkpt lat="44.2493" lon="2.52412">
        <ele>695</ele>
        <time>2022-06-12T07:46:02.969Z</time>
      </trkpt>
      <trkpt lat="44.2493" lon="2.52414">
        <ele>695</ele>
        <time>2022-06-12T07:46:03.969Z</time>
      </trkpt>
      <trkpt lat="44.24931" lon="2.52415">
        <ele>694</ele>
        <time>2022-06-12T07:46:04.969Z</time>
      </trkpt>
      <trkpt lat="44.24932" lon="2.52417">
        <ele>694</ele>
        <time>2022-06-12T07:46:05.969Z</time>
      </trkpt>
      <trkpt lat="44.24932" lon="2.52418">
        <ele>694</ele>
        <time>2022-06-12T07:46:06.969Z</time>
      </trkpt>
      <trkpt lat="44.24933" lon="2.5242">
        <ele>694</ele>
        <time>2022-06-12T07:46:07.969Z</time>
      </trkpt>
      <trkpt lat="44.24934" lon="2.52421">
        <ele>694</ele>
        <time>2022-06-12T07:46:08.969Z</time>
      </trkpt>
      <trkpt lat="44.24934" lon="2.52423">
        <ele>694</ele>
        <time>2022-06-12T07:46:09.969Z</time>
      </trkpt>
      <trkpt lat="44.24935" lon="2.52424">
        <ele>694</ele>
        <time>2022-06-12T07:46:10.969Z</time>
      </trkpt>
      <trkpt lat="44.24936" lon="2.52426">
        <ele>694</ele>
        <time>2022-06-12T07:46:11.969Z</time>
      </trkpt>
      <trkpt lat="44.24936" lon="2.52427">
        <ele>694</ele>
        <time>2022-06-12T07:46:12.969Z</time>
      </trkpt>
      <trkpt lat="44.24937" lon="2.52429">
        <ele>694</ele>
        <time>2022-06-12T07:46:13.969Z</time>
      </trkpt>
      <trkpt lat="44.24938" lon="2.5243">
        <ele>694</ele>
        <time>2022-06-12T07:46:14.969Z</time>
      </trkpt>
      <trkpt lat="44.24938" lon="2.52432">
        <ele>694</ele>
        <time>2022-06-12T07:46:15.969Z</time>
      </trkpt>
      <trkpt lat="44.24939" lon="2.52433">
        <ele>693</ele>
        <time>2022-06-12T07:46:16.969Z</time>
      </trkpt>
      <trkpt lat="44.2494" lon="2.52435">
        <ele>693</ele>
        <time>2022-06-12T07:46:17.969Z</time>
      </trkpt>
      <trkpt lat="44.2494" lon="2.52436">
        <ele>693</ele>
        <time>2022-06-12T07:46:18.969Z</time>
      </trkpt>
      <trkpt lat="44.24941" lon="2.52438">
        <ele>693</ele>
        <time>2022-06-12T07:46:19.969Z</time>
      </trkpt>
      <trkpt lat="44.24941" lon="2.52439">
        <ele>693</ele>
        <time>2022-06-12T07:46:20.969Z</time>
      </trkpt>
      <trkpt lat="44.24942" lon="2.52441">
        <ele>693</ele>
        <time>2022-06-12T07:46:21.969Z</time>
      </trkpt>
      <trkpt lat="44.24943" lon="2.52442">
        <ele>693</ele>
        <time>2022-06-12T07:46:22.969Z</time>
      </trkpt>
      <trkpt lat="44.24943" lon="2.52444">
        <ele>693</ele>
        <time>2022-06-12T07:46:23.969Z</time>
      </trkpt>
      <trkpt lat="44.24944" lon="2.52445">
        <ele>693</ele>
        <time>2022-06-12T07:46:24.969Z</time>
      </trkpt>
      <trkpt lat="44.24945" lon="2.52447">
        <ele>693</ele>
        <time>2022-06-12T07:46:25.969Z</time>
      </trkpt>
      <trkpt lat="44.24945" lon="2.52448">
        <ele>693</ele>
        <time>2022-06-12T07:46:26.969Z</time>
      </trkpt>
      <trkpt lat="44.24946" lon="2.5245">
        <ele>692</ele>
        <time>2022-06-12T07:46:27.969Z</time>
      </trkpt>
      <trkpt lat="44.24947" lon="2.52451">
        <ele>692</ele>
        <time>2022-06-12T07:46:28.969Z</time>
      </trkpt>
      <trkpt lat="44.24947" lon="2.52453">
        <ele>692</ele>
        <time>2022-06-12T07:46:29.969Z</time>
      </trkpt>
      <trkpt lat="44.24948" lon="2.52454">
        <ele>692</ele>
        <time>2022-06-12T07:46:30.969Z</time>
      </trkpt>
      <trkpt lat="44.24949" lon="2.52456">
        <ele>692</ele>
        <time>2022-06-12T07:46:31.969Z</time>
      </trkpt>
      <trkpt lat="44.24949" lon="2.52457">
        <ele>692</ele>
        <time>2022-06-12T07:46:32.969Z</time>
      </trkpt>
      <trkpt lat="44.2495" lon="2.52459">
        <ele>692</ele>
        <time>2022-06-12T07:46:33.969Z</time>
      </trkpt>
      <trkpt lat="44.2495" lon="2.5246">
        <ele>692</ele>
        <time>2022-06-12T07:46:34.969Z</time>
      </trkpt>
      <trkpt lat="44.24951" lon="2.52462">
        <ele>692</ele>
        <time>2022-06-12T07:46:35.969Z</time>
      </trkpt>
      <trkpt lat="44.24952" lon="2.52464">
        <ele>692</ele>
        <time>2022-06-12T07:46:36.969Z</time>
      </trkpt>
      <trkpt lat="44.24952" lon="2.52465">
        <ele>692</ele>
        <time>2022-06-12T07:46:37.969Z</time>
      </trkpt>
      <trkpt lat="44.24953" lon="2.52467">
        <ele>692</ele>
        <time>2022-06-12T07:46:38.969Z</time>
      </trkpt>
      <trkpt lat="44.24954" lon="2.52468">
        <ele>691</ele>
        <time>2022-06-12T07:46:39.969Z</time>
      </trkpt>
      <trkpt lat="44.24954" lon="2.5247">
        <ele>691</ele>
        <time>2022-06-12T07:46:40.969Z</time>
      </trkpt>
      <trkpt lat="44.24955" lon="2.52471">
        <ele>691</ele>
        <time>2022-06-12T07:46:41.969Z</time>
      </trkpt>
      <trkpt lat="44.24955" lon="2.52473">
        <ele>691</ele>
        <time>2022-06-12T07:46:42.969Z</time>
      </trkpt>
      <trkpt lat="44.24956" lon="2.52474">
        <ele>691</ele>
        <time>2022-06-12T07:46:43.969Z</time>
      </trkpt>
      <trkpt lat="44.24956" lon="2.52476">
        <ele>691</ele>
        <time>2022-06-12T07:46:44.969Z</time>
      </trkpt>
      <trkpt lat="44.24957" lon="2.52477">
        <ele>691</ele>
        <time>2022-06-12T07:46:45.969Z</time>
      </trkpt>
      <trkpt lat="44.24958" lon="2.52479">
        <ele>691</ele>
        <time>2022-06-12T07:46:46.969Z</time>
      </trkpt>
      <trkpt lat="44.24958" lon="2.52481">
        <ele>691</ele>
        <time>2022-06-12T07:46:47.969Z</time>
      </trkpt>
      <trkpt lat="44.24959" lon="2.52482">
        <ele>691</ele>
        <time>2022-06-12T07:46:48.969Z</time>
      </trkpt>
      <trkpt lat="44.24959" lon="2.52484">
        <ele>691</ele>
        <time>2022-06-12T07:46:49.969Z</time>
      </trkpt>
      <trkpt lat="44.2496" lon="2.52486">
        <ele>691</ele>
        <time>2022-06-12T07:46:50.969Z</time>
      </trkpt>
      <trkpt lat="44.24961" lon="2.52487">
        <ele>691</ele>
        <time>2022-06-12T07:46:51.969Z</time>
      </trkpt>
      <trkpt lat="44.24961" lon="2.52489">
        <ele>691</ele>
        <time>2022-06-12T07:46:52.969Z</time>
      </trkpt>
      <trkpt lat="44.24962" lon="2.52491">
        <ele>691</ele>
        <time>2022-06-12T07:46:53.969Z</time>
      </trkpt>
      <trkpt lat="44.24962" lon="2.52492">
        <ele>691</ele>
        <time>2022-06-12T07:46:54.969Z</time>
      </trkpt>
      <trkpt lat="44.24963" lon="2.52494">
        <ele>691</ele>
        <time>2022-06-12T07:46:55.969Z</time>
      </trkpt>
      <trkpt lat="44.24963" lon="2.52495">
        <ele>691</ele>
        <time>2022-06-12T07:46:56.969Z</time>
      </trkpt>
      <trkpt lat="44.24964" lon="2.52497">
        <ele>691</ele>
        <time>2022-06-12T07:46:57.969Z</time>
      </trkpt>
      <trkpt lat="44.24965" lon="2.52499">
        <ele>691</ele>
        <time>2022-06-12T07:46:58.969Z</time>
      </trkpt>
      <trkpt lat="44.24965" lon="2.52501">
        <ele>691</ele>
        <time>2022-06-12T07:46:59.969Z</time>
      </trkpt>
      <trkpt lat="44.24966" lon="2.52502">
        <ele>691</ele>
        <time>2022-06-12T07:47:00.969Z</time>
      </trkpt>
      <trkpt lat="44.24966" lon="2.52504">
        <ele>690</ele>
        <time>2022-06-12T07:47:01.969Z</time>
      </trkpt>
      <trkpt lat="44.24967" lon="2.52505">
        <ele>690</ele>
        <time>2022-06-12T07:47:02.969Z</time>
      </trkpt>
      <trkpt lat="44.24967" lon="2.52507">
        <ele>690</ele>
        <time>2022-06-12T07:47:03.969Z</time>
      </trkpt>
      <trkpt lat="44.24968" lon="2.52509">
        <ele>691</ele>
        <time>2022-06-12T07:47:04.969Z</time>
      </trkpt>
      <trkpt lat="44.24968" lon="2.5251">
        <ele>691</ele>
        <time>2022-06-12T07:47:05.969Z</time>
      </trkpt>
      <trkpt lat="44.24969" lon="2.52512">
        <ele>691</ele>
        <time>2022-06-12T07:47:06.969Z</time>
      </trkpt>
      <trkpt lat="44.24969" lon="2.52513">
        <ele>691</ele>
        <time>2022-06-12T07:47:07.969Z</time>
      </trkpt>
      <trkpt lat="44.2497" lon="2.52515">
        <ele>691</ele>
        <time>2022-06-12T07:47:08.969Z</time>
      </trkpt>
      <trkpt lat="44.2497" lon="2.52517">
        <ele>691</ele>
        <time>2022-06-12T07:47:09.969Z</time>
      </trkpt>
      <trkpt lat="44.24971" lon="2.52518">
        <ele>691</ele>
        <time>2022-06-12T07:47:10.969Z</time>
      </trkpt>
      <trkpt lat="44.24972" lon="2.52519">
        <ele>691</ele>
        <time>2022-06-12T07:47:11.969Z</time>
      </trkpt>
      <trkpt lat="44.24972" lon="2.52521">
        <ele>691</ele>
        <time>2022-06-12T07:47:12.969Z</time>
      </trkpt>
      <trkpt lat="44.24973" lon="2.52522">
        <ele>691</ele>
        <time>2022-06-12T07:47:13.969Z</time>
      </trkpt>
      <trkpt lat="44.24973" lon="2.52523">
        <ele>691</ele>
        <time>2022-06-12T07:47:14.969Z</time>
      </trkpt>
      <trkpt lat="44.24974" lon="2.52525">
        <ele>691</ele>
        <time>2022-06-12T07:47:15.969Z</time>
      </trkpt>
      <trkpt lat="44.24975" lon="2.52526">
        <ele>691</ele>
        <time>2022-06-12T07:47:16.969Z</time>
      </trkpt>
      <trkpt lat="44.24975" lon="2.52528">
        <ele>691</ele>
        <time>2022-06-12T07:47:17.969Z</time>
      </trkpt>
      <trkpt lat="44.24976" lon="2.52529">
        <ele>691</ele>
        <time>2022-06-12T07:47:18.969Z</time>
      </trkpt>
      <trkpt lat="44.24977" lon="2.5253">
        <ele>691</ele>
        <time>2022-06-12T07:47:19.969Z</time>
      </trkpt>
      <trkpt lat="44.24979" lon="2.52531">
        <ele>691</ele>
        <time>2022-06-12T07:47:20.969Z</time>
      </trkpt>
      <trkpt lat="44.24979" lon="2.52532">
        <ele>691</ele>
        <time>2022-06-12T07:47:21.969Z</time>
      </trkpt>
      <trkpt lat="44.2498" lon="2.52533">
        <ele>691</ele>
        <time>2022-06-12T07:47:22.969Z</time>
      </trkpt>
      <trkpt lat="44.24981" lon="2.52534">
        <ele>691</ele>
        <time>2022-06-12T07:47:23.969Z</time>
      </trkpt>
      <trkpt lat="44.24982" lon="2.52535">
        <ele>691</ele>
        <time>2022-06-12T07:47:24.969Z</time>
      </trkpt>
      <trkpt lat="44.24984" lon="2.52536">
        <ele>691</ele>
        <time>2022-06-12T07:47:25.969Z</time>
      </trkpt>
      <trkpt lat="44.24985" lon="2.52537">
        <ele>691</ele>
        <time>2022-06-12T07:47:26.969Z</time>
      </trkpt>
      <trkpt lat="44.24986" lon="2.52538">
        <ele>691</ele>
        <time>2022-06-12T07:47:27.969Z</time>
      </trkpt>
      <trkpt lat="44.24987" lon="2.52539">
        <ele>691</ele>
        <time>2022-06-12T07:47:28.969Z</time>
      </trkpt>
      <trkpt lat="44.24988" lon="2.52539">
        <ele>691</ele>
        <time>2022-06-12T07:47:29.969Z</time>
      </trkpt>
      <trkpt lat="44.24989" lon="2.5254">
        <ele>691</ele>
        <time>2022-06-12T07:47:30.969Z</time>
      </trkpt>
      <trkpt lat="44.24991" lon="2.52541">
        <ele>691</ele>
        <time>2022-06-12T07:47:31.969Z</time>
      </trkpt>
      <trkpt lat="44.24992" lon="2.52542">
        <ele>691</ele>
        <time>2022-06-12T07:47:32.969Z</time>
      </trkpt>
      <trkpt lat="44.24993" lon="2.52543">
        <ele>691</ele>
        <time>2022-06-12T07:47:33.969Z</time>
      </trkpt>
      <trkpt lat="44.24994" lon="2.52544">
        <ele>691</ele>
        <time>2022-06-12T07:47:34.969Z</time>
      </trkpt>
      <trkpt lat="44.24995" lon="2.52545">
        <ele>691</ele>
        <time>2022-06-12T07:47:35.969Z</time>
      </trkpt>
      <trkpt lat="44.24996" lon="2.52546">
        <ele>691</ele>
        <time>2022-06-12T07:47:36.969Z</time>
      </trkpt>
      <trkpt lat="44.24997" lon="2.52547">
        <ele>691</ele>
        <time>2022-06-12T07:47:37.969Z</time>
      </trkpt>
      <trkpt lat="44.24998" lon="2.52548">
        <ele>691</ele>
        <time>2022-06-12T07:47:38.969Z</time>
      </trkpt>
      <trkpt lat="44.24999" lon="2.52548">
        <ele>690</ele>
        <time>2022-06-12T07:47:39.969Z</time>
      </trkpt>
      <trkpt lat="44.25001" lon="2.52549">
        <ele>690</ele>
        <time>2022-06-12T07:47:40.969Z</time>
      </trkpt>
      <trkpt lat="44.25002" lon="2.5255">
        <ele>690</ele>
        <time>2022-06-12T07:47:41.969Z</time>
      </trkpt>
      <trkpt lat="44.25003" lon="2.52551">
        <ele>690</ele>
        <time>2022-06-12T07:47:42.969Z</time>
      </trkpt>
      <trkpt lat="44.25004" lon="2.52552">
        <ele>690</ele>
        <time>2022-06-12T07:47:43.969Z</time>
      </trkpt>
      <trkpt lat="44.25005" lon="2.52553">
        <ele>690</ele>
        <time>2022-06-12T07:47:44.969Z</time>
      </trkpt>
      <trkpt lat="44.25006" lon="2.52554">
        <ele>690</ele>
        <time>2022-06-12T07:47:45.969Z</time>
      </trkpt>
      <trkpt lat="44.25007" lon="2.52555">
        <ele>690</ele>
        <time>2022-06-12T07:47:46.969Z</time>
      </trkpt>
      <trkpt lat="44.25008" lon="2.52556">
        <ele>690</ele>
        <time>2022-06-12T07:47:47.969Z</time>
      </trkpt>
      <trkpt lat="44.25009" lon="2.52557">
        <ele>690</ele>
        <time>2022-06-12T07:47:48.969Z</time>
      </trkpt>
      <trkpt lat="44.2501" lon="2.52559">
        <ele>690</ele>
        <time>2022-06-12T07:47:49.969Z</time>
      </trkpt>
      <trkpt lat="44.25011" lon="2.5256">
        <ele>690</ele>
        <time>2022-06-12T07:47:50.969Z</time>
      </trkpt>
      <trkpt lat="44.25012" lon="2.52561">
        <ele>690</ele>
        <time>2022-06-12T07:47:51.969Z</time>
      </trkpt>
      <trkpt lat="44.25013" lon="2.52562">
        <ele>690</ele>
        <time>2022-06-12T07:47:52.969Z</time>
      </trkpt>
      <trkpt lat="44.25014" lon="2.52563">
        <ele>690</ele>
        <time>2022-06-12T07:47:53.969Z</time>
      </trkpt>
      <trkpt lat="44.25015" lon="2.52564">
        <ele>690</ele>
        <time>2022-06-12T07:47:54.969Z</time>
      </trkpt>
      <trkpt lat="44.25015" lon="2.52566">
        <ele>691</ele>
        <time>2022-06-12T07:47:55.969Z</time>
      </trkpt>
      <trkpt lat="44.25016" lon="2.52567">
        <ele>691</ele>
        <time>2022-06-12T07:47:56.969Z</time>
      </trkpt>
      <trkpt lat="44.25017" lon="2.52568">
        <ele>691</ele>
        <time>2022-06-12T07:47:57.969Z</time>
      </trkpt>
      <trkpt lat="44.25018" lon="2.52569">
        <ele>691</ele>
        <time>2022-06-12T07:47:58.969Z</time>
      </trkpt>
      <trkpt lat="44.25019" lon="2.52571">
        <ele>691</ele>
        <time>2022-06-12T07:47:59.969Z</time>
      </trkpt>
      <trkpt lat="44.25019" lon="2.52572">
        <ele>691</ele>
        <time>2022-06-12T07:48:00.969Z</time>
      </trkpt>
      <trkpt lat="44.2502" lon="2.52573">
        <ele>691</ele>
        <time>2022-06-12T07:48:01.969Z</time>
      </trkpt>
      <trkpt lat="44.25021" lon="2.52574">
        <ele>691</ele>
        <time>2022-06-12T07:48:02.969Z</time>
      </trkpt>
      <trkpt lat="44.25021" lon="2.52576">
        <ele>691</ele>
        <time>2022-06-12T07:48:03.969Z</time>
      </trkpt>
      <trkpt lat="44.25022" lon="2.52577">
        <ele>691</ele>
        <time>2022-06-12T07:48:04.969Z</time>
      </trkpt>
      <trkpt lat="44.25022" lon="2.52578">
        <ele>691</ele>
        <time>2022-06-12T07:48:05.969Z</time>
      </trkpt>
      <trkpt lat="44.25023" lon="2.5258">
        <ele>691</ele>
        <time>2022-06-12T07:48:06.969Z</time>
      </trkpt>
      <trkpt lat="44.25023" lon="2.52581">
        <ele>691</ele>
        <time>2022-06-12T07:48:07.969Z</time>
      </trkpt>
      <trkpt lat="44.25023" lon="2.52582">
        <ele>691</ele>
        <time>2022-06-12T07:48:08.969Z</time>
      </trkpt>
      <trkpt lat="44.25024" lon="2.52584">
        <ele>691</ele>
        <time>2022-06-12T07:48:09.969Z</time>
      </trkpt>
      <trkpt lat="44.25024" lon="2.52585">
        <ele>691</ele>
        <time>2022-06-12T07:48:10.969Z</time>
      </trkpt>
      <trkpt lat="44.25025" lon="2.52586">
        <ele>691</ele>
        <time>2022-06-12T07:48:11.969Z</time>
      </trkpt>
      <trkpt lat="44.25025" lon="2.52588">
        <ele>691</ele>
        <time>2022-06-12T07:48:12.969Z</time>
      </trkpt>
      <trkpt lat="44.25026" lon="2.52589">
        <ele>691</ele>
        <time>2022-06-12T07:48:13.969Z</time>
      </trkpt>
      <trkpt lat="44.25026" lon="2.52591">
        <ele>691</ele>
        <time>2022-06-12T07:48:14.969Z</time>
      </trkpt>
      <trkpt lat="44.25027" lon="2.52592">
        <ele>691</ele>
        <time>2022-06-12T07:48:15.969Z</time>
      </trkpt>
      <trkpt lat="44.25027" lon="2.52594">
        <ele>691</ele>
        <time>2022-06-12T07:48:16.969Z</time>
      </trkpt>
      <trkpt lat="44.25027" lon="2.52595">
        <ele>691</ele>
        <time>2022-06-12T07:48:17.969Z</time>
      </trkpt>
      <trkpt lat="44.25028" lon="2.52596">
        <ele>691</ele>
        <time>2022-06-12T07:48:18.969Z</time>
      </trkpt>
      <trkpt lat="44.25028" lon="2.52598">
        <ele>691</ele>
        <time>2022-06-12T07:48:19.969Z</time>
      </trkpt>
      <trkpt lat="44.25029" lon="2.52599">
        <ele>691</ele>
        <time>2022-06-12T07:48:20.969Z</time>
      </trkpt>
      <trkpt lat="44.25029" lon="2.52601">
        <ele>691</ele>
        <time>2022-06-12T07:48:21.969Z</time>
      </trkpt>
      <trkpt lat="44.2503" lon="2.52602">
        <ele>691</ele>
        <time>2022-06-12T07:48:22.969Z</time>
      </trkpt>
      <trkpt lat="44.2503" lon="2.52604">
        <ele>691</ele>
        <time>2022-06-12T07:48:23.969Z</time>
      </trkpt>
      <trkpt lat="44.25031" lon="2.52605">
        <ele>692</ele>
        <time>2022-06-12T07:48:24.969Z</time>
      </trkpt>
      <trkpt lat="44.25031" lon="2.52607">
        <ele>692</ele>
        <time>2022-06-12T07:48:25.969Z</time>
      </trkpt>
      <trkpt lat="44.25032" lon="2.52608">
        <ele>691</ele>
        <time>2022-06-12T07:48:26.969Z</time>
      </trkpt>
      <trkpt lat="44.25032" lon="2.5261">
        <ele>691</ele>
        <time>2022-06-12T07:48:27.969Z</time>
      </trkpt>
      <trkpt lat="44.25033" lon="2.52611">
        <ele>691</ele>
        <time>2022-06-12T07:48:28.969Z</time>
      </trkpt>
      <trkpt lat="44.25033" lon="2.52613">
        <ele>691</ele>
        <time>2022-06-12T07:48:29.969Z</time>
      </trkpt>
      <trkpt lat="44.25034" lon="2.52614">
        <ele>692</ele>
        <time>2022-06-12T07:48:30.969Z</time>
      </trkpt>
      <trkpt lat="44.25034" lon="2.52616">
        <ele>692</ele>
        <time>2022-06-12T07:48:31.969Z</time>
      </trkpt>
      <trkpt lat="44.25035" lon="2.52617">
        <ele>692</ele>
        <time>2022-06-12T07:48:32.969Z</time>
      </trkpt>
      <trkpt lat="44.25035" lon="2.52619">
        <ele>692</ele>
        <time>2022-06-12T07:48:33.969Z</time>
      </trkpt>
      <trkpt lat="44.25036" lon="2.5262">
        <ele>692</ele>
        <time>2022-06-12T07:48:34.969Z</time>
      </trkpt>
      <trkpt lat="44.25036" lon="2.52622">
        <ele>692</ele>
        <time>2022-06-12T07:48:35.969Z</time>
      </trkpt>
      <trkpt lat="44.25037" lon="2.52624">
        <ele>692</ele>
        <time>2022-06-12T07:48:36.969Z</time>
      </trkpt>
      <trkpt lat="44.25037" lon="2.52625">
        <ele>692</ele>
        <time>2022-06-12T07:48:37.969Z</time>
      </trkpt>
      <trkpt lat="44.25038" lon="2.52626">
        <ele>693</ele>
        <time>2022-06-12T07:48:38.969Z</time>
      </trkpt>
      <trkpt lat="44.25038" lon="2.52628">
        <ele>693</ele>
        <time>2022-06-12T07:48:39.969Z</time>
      </trkpt>
      <trkpt lat="44.25039" lon="2.52629">
        <ele>693</ele>
        <time>2022-06-12T07:48:40.969Z</time>
      </trkpt>
      <trkpt lat="44.25039" lon="2.52631">
        <ele>693</ele>
        <time>2022-06-12T07:48:41.969Z</time>
      </trkpt>
      <trkpt lat="44.2504" lon="2.52632">
        <ele>693</ele>
        <time>2022-06-12T07:48:42.969Z</time>
      </trkpt>
      <trkpt lat="44.25041" lon="2.52634">
        <ele>693</ele>
        <time>2022-06-12T07:48:43.969Z</time>
      </trkpt>
      <trkpt lat="44.25041" lon="2.52635">
        <ele>693</ele>
        <time>2022-06-12T07:48:44.969Z</time>
      </trkpt>
      <trkpt lat="44.25042" lon="2.52637">
        <ele>694</ele>
        <time>2022-06-12T07:48:45.969Z</time>
      </trkpt>
      <trkpt lat="44.25042" lon="2.52639">
        <ele>694</ele>
        <time>2022-06-12T07:48:46.969Z</time>
      </trkpt>
      <trkpt lat="44.25043" lon="2.5264">
        <ele>694</ele>
        <time>2022-06-12T07:48:47.969Z</time>
      </trkpt>
      <trkpt lat="44.25043" lon="2.52641">
        <ele>694</ele>
        <time>2022-06-12T07:48:48.969Z</time>
      </trkpt>
      <trkpt lat="44.25044" lon="2.52643">
        <ele>694</ele>
        <time>2022-06-12T07:48:49.969Z</time>
      </trkpt>
      <trkpt lat="44.25044" lon="2.52644">
        <ele>695</ele>
        <time>2022-06-12T07:48:50.969Z</time>
      </trkpt>
      <trkpt lat="44.25045" lon="2.52646">
        <ele>695</ele>
        <time>2022-06-12T07:48:51.969Z</time>
      </trkpt>
      <trkpt lat="44.25046" lon="2.52647">
        <ele>695</ele>
        <time>2022-06-12T07:48:52.969Z</time>
      </trkpt>
      <trkpt lat="44.25046" lon="2.52649">
        <ele>695</ele>
        <time>2022-06-12T07:48:53.969Z</time>
      </trkpt>
      <trkpt lat="44.25046" lon="2.5265">
        <ele>695</ele>
        <time>2022-06-12T07:48:54.969Z</time>
      </trkpt>
      <trkpt lat="44.25047" lon="2.52651">
        <ele>695</ele>
        <time>2022-06-12T07:48:55.969Z</time>
      </trkpt>
      <trkpt lat="44.25048" lon="2.52653">
        <ele>695</ele>
        <time>2022-06-12T07:48:56.969Z</time>
      </trkpt>
      <trkpt lat="44.25048" lon="2.52654">
        <ele>695</ele>
        <time>2022-06-12T07:48:57.969Z</time>
      </trkpt>
      <trkpt lat="44.25049" lon="2.52656">
        <ele>695</ele>
        <time>2022-06-12T07:48:58.969Z</time>
      </trkpt>
      <trkpt lat="44.25049" lon="2.52657">
        <ele>695</ele>
        <time>2022-06-12T07:48:59.969Z</time>
      </trkpt>
      <trkpt lat="44.2505" lon="2.52658">
        <ele>695</ele>
        <time>2022-06-12T07:49:00.969Z</time>
      </trkpt>
      <trkpt lat="44.2505" lon="2.5266">
        <ele>695</ele>
        <time>2022-06-12T07:49:01.969Z</time>
      </trkpt>
      <trkpt lat="44.25051" lon="2.52661">
        <ele>695</ele>
        <time>2022-06-12T07:49:02.969Z</time>
      </trkpt>
      <trkpt lat="44.25052" lon="2.52662">
        <ele>695</ele>
        <time>2022-06-12T07:49:03.969Z</time>
      </trkpt>
      <trkpt lat="44.25052" lon="2.52664">
        <ele>695</ele>
        <time>2022-06-12T07:49:04.969Z</time>
      </trkpt>
      <trkpt lat="44.25053" lon="2.52665">
        <ele>695</ele>
        <time>2022-06-12T07:49:05.969Z</time>
      </trkpt>
      <trkpt lat="44.25053" lon="2.52666">
        <ele>696</ele>
        <time>2022-06-12T07:49:06.969Z</time>
      </trkpt>
      <trkpt lat="44.25054" lon="2.52668">
        <ele>696</ele>
        <time>2022-06-12T07:49:07.969Z</time>
      </trkpt>
      <trkpt lat="44.25054" lon="2.52669">
        <ele>696</ele>
        <time>2022-06-12T07:49:08.969Z</time>
      </trkpt>
      <trkpt lat="44.25055" lon="2.5267">
        <ele>696</ele>
        <time>2022-06-12T07:49:09.969Z</time>
      </trkpt>
      <trkpt lat="44.25055" lon="2.52672">
        <ele>696</ele>
        <time>2022-06-12T07:49:10.969Z</time>
      </trkpt>
      <trkpt lat="44.25056" lon="2.52673">
        <ele>696</ele>
        <time>2022-06-12T07:49:11.969Z</time>
      </trkpt>
      <trkpt lat="44.25056" lon="2.52675">
        <ele>696</ele>
        <time>2022-06-12T07:49:12.969Z</time>
      </trkpt>
      <trkpt lat="44.25057" lon="2.52676">
        <ele>696</ele>
        <time>2022-06-12T07:49:13.969Z</time>
      </trkpt>
      <trkpt lat="44.25058" lon="2.52677">
        <ele>696</ele>
        <time>2022-06-12T07:49:14.969Z</time>
      </trkpt>
      <trkpt lat="44.25058" lon="2.52679">
        <ele>696</ele>
        <time>2022-06-12T07:49:15.969Z</time>
      </trkpt>
      <trkpt lat="44.25059" lon="2.5268">
        <ele>696</ele>
        <time>2022-06-12T07:49:16.969Z</time>
      </trkpt>
      <trkpt lat="44.25059" lon="2.52682">
        <ele>697</ele>
        <time>2022-06-12T07:49:17.969Z</time>
      </trkpt>
      <trkpt lat="44.2506" lon="2.52684">
        <ele>697</ele>
        <time>2022-06-12T07:49:18.969Z</time>
      </trkpt>
      <trkpt lat="44.2506" lon="2.52685">
        <ele>697</ele>
        <time>2022-06-12T07:49:19.969Z</time>
      </trkpt>
      <trkpt lat="44.25061" lon="2.52686">
        <ele>697</ele>
        <time>2022-06-12T07:49:20.969Z</time>
      </trkpt>
      <trkpt lat="44.25061" lon="2.52688">
        <ele>697</ele>
        <time>2022-06-12T07:49:21.969Z</time>
      </trkpt>
      <trkpt lat="44.25062" lon="2.52689">
        <ele>697</ele>
        <time>2022-06-12T07:49:22.969Z</time>
      </trkpt>
      <trkpt lat="44.25062" lon="2.52691">
        <ele>697</ele>
        <time>2022-06-12T07:49:23.969Z</time>
      </trkpt>
      <trkpt lat="44.25063" lon="2.52692">
        <ele>697</ele>
        <time>2022-06-12T07:49:24.969Z</time>
      </trkpt>
      <trkpt lat="44.25064" lon="2.52694">
        <ele>697</ele>
        <time>2022-06-12T07:49:25.969Z</time>
      </trkpt>
      <trkpt lat="44.25064" lon="2.52695">
        <ele>697</ele>
        <time>2022-06-12T07:49:26.969Z</time>
      </trkpt>
      <trkpt lat="44.25065" lon="2.52696">
        <ele>697</ele>
        <time>2022-06-12T07:49:27.969Z</time>
      </trkpt>
      <trkpt lat="44.25065" lon="2.52698">
        <ele>697</ele>
        <time>2022-06-12T07:49:28.969Z</time>
      </trkpt>
      <trkpt lat="44.25066" lon="2.52699">
        <ele>698</ele>
        <time>2022-06-12T07:49:29.969Z</time>
      </trkpt>
      <trkpt lat="44.25066" lon="2.52701">
        <ele>698</ele>
        <time>2022-06-12T07:49:30.969Z</time>
      </trkpt>
      <trkpt lat="44.25067" lon="2.52702">
        <ele>698</ele>
        <time>2022-06-12T07:49:31.969Z</time>
      </trkpt>
      <trkpt lat="44.25067" lon="2.52704">
        <ele>698</ele>
        <time>2022-06-12T07:49:32.969Z</time>
      </trkpt>
      <trkpt lat="44.25068" lon="2.52705">
        <ele>698</ele>
        <time>2022-06-12T07:49:33.969Z</time>
      </trkpt>
      <trkpt lat="44.25068" lon="2.52707">
        <ele>698</ele>
        <time>2022-06-12T07:49:34.969Z</time>
      </trkpt>
      <trkpt lat="44.25069" lon="2.52708">
        <ele>698</ele>
        <time>2022-06-12T07:49:35.969Z</time>
      </trkpt>
      <trkpt lat="44.25069" lon="2.52709">
        <ele>698</ele>
        <time>2022-06-12T07:49:36.969Z</time>
      </trkpt>
      <trkpt lat="44.2507" lon="2.52711">
        <ele>698</ele>
        <time>2022-06-12T07:49:37.969Z</time>
      </trkpt>
      <trkpt lat="44.2507" lon="2.52712">
        <ele>699</ele>
        <time>2022-06-12T07:49:38.969Z</time>
      </trkpt>
      <trkpt lat="44.25071" lon="2.52714">
        <ele>699</ele>
        <time>2022-06-12T07:49:39.969Z</time>
      </trkpt>
      <trkpt lat="44.25072" lon="2.52715">
        <ele>699</ele>
        <time>2022-06-12T07:49:40.969Z</time>
      </trkpt>
      <trkpt lat="44.25072" lon="2.52717">
        <ele>699</ele>
        <time>2022-06-12T07:49:41.969Z</time>
      </trkpt>
      <trkpt lat="44.25073" lon="2.52718">
        <ele>699</ele>
        <time>2022-06-12T07:49:42.969Z</time>
      </trkpt>
      <trkpt lat="44.25073" lon="2.5272">
        <ele>699</ele>
        <time>2022-06-12T07:49:43.969Z</time>
      </trkpt>
      <trkpt lat="44.25074" lon="2.52722">
        <ele>699</ele>
        <time>2022-06-12T07:49:44.969Z</time>
      </trkpt>
      <trkpt lat="44.25074" lon="2.52723">
        <ele>700</ele>
        <time>2022-06-12T07:49:45.969Z</time>
      </trkpt>
      <trkpt lat="44.25075" lon="2.52724">
        <ele>700</ele>
        <time>2022-06-12T07:49:46.969Z</time>
      </trkpt>
      <trkpt lat="44.25075" lon="2.52726">
        <ele>700</ele>
        <time>2022-06-12T07:49:47.969Z</time>
      </trkpt>
      <trkpt lat="44.25076" lon="2.52727">
        <ele>700</ele>
        <time>2022-06-12T07:49:48.969Z</time>
      </trkpt>
      <trkpt lat="44.25076" lon="2.52729">
        <ele>700</ele>
        <time>2022-06-12T07:49:49.969Z</time>
      </trkpt>
      <trkpt lat="44.25077" lon="2.5273">
        <ele>700</ele>
        <time>2022-06-12T07:49:50.969Z</time>
      </trkpt>
      <trkpt lat="44.25077" lon="2.52731">
        <ele>700</ele>
        <time>2022-06-12T07:49:51.969Z</time>
      </trkpt>
      <trkpt lat="44.25078" lon="2.52732">
        <ele>700</ele>
        <time>2022-06-12T07:49:52.969Z</time>
      </trkpt>
      <trkpt lat="44.25078" lon="2.52734">
        <ele>700</ele>
        <time>2022-06-12T07:49:53.969Z</time>
      </trkpt>
      <trkpt lat="44.25079" lon="2.52735">
        <ele>700</ele>
        <time>2022-06-12T07:49:54.969Z</time>
      </trkpt>
      <trkpt lat="44.25079" lon="2.52737">
        <ele>700</ele>
        <time>2022-06-12T07:49:55.969Z</time>
      </trkpt>
      <trkpt lat="44.2508" lon="2.52738">
        <ele>700</ele>
        <time>2022-06-12T07:49:56.969Z</time>
      </trkpt>
      <trkpt lat="44.2508" lon="2.52739">
        <ele>700</ele>
        <time>2022-06-12T07:49:57.969Z</time>
      </trkpt>
      <trkpt lat="44.25081" lon="2.52741">
        <ele>700</ele>
        <time>2022-06-12T07:49:58.969Z</time>
      </trkpt>
      <trkpt lat="44.25081" lon="2.52742">
        <ele>700</ele>
        <time>2022-06-12T07:49:59.969Z</time>
      </trkpt>
      <trkpt lat="44.25082" lon="2.52744">
        <ele>700</ele>
        <time>2022-06-12T07:50:00.969Z</time>
      </trkpt>
      <trkpt lat="44.25082" lon="2.52745">
        <ele>700</ele>
        <time>2022-06-12T07:50:01.969Z</time>
      </trkpt>
      <trkpt lat="44.25083" lon="2.52747">
        <ele>701</ele>
        <time>2022-06-12T07:50:02.969Z</time>
      </trkpt>
      <trkpt lat="44.25084" lon="2.52748">
        <ele>701</ele>
        <time>2022-06-12T07:50:03.969Z</time>
      </trkpt>
      <trkpt lat="44.25084" lon="2.52749">
        <ele>701</ele>
        <time>2022-06-12T07:50:04.969Z</time>
      </trkpt>
      <trkpt lat="44.25085" lon="2.5275">
        <ele>701</ele>
        <time>2022-06-12T07:50:05.969Z</time>
      </trkpt>
      <trkpt lat="44.25085" lon="2.52751">
        <ele>701</ele>
        <time>2022-06-12T07:50:06.969Z</time>
      </trkpt>
      <trkpt lat="44.25086" lon="2.52753">
        <ele>701</ele>
        <time>2022-06-12T07:50:07.969Z</time>
      </trkpt>
      <trkpt lat="44.25086" lon="2.52754">
        <ele>701</ele>
        <time>2022-06-12T07:50:08.969Z</time>
      </trkpt>
      <trkpt lat="44.25087" lon="2.52756">
        <ele>701</ele>
        <time>2022-06-12T07:50:09.969Z</time>
      </trkpt>
      <trkpt lat="44.25087" lon="2.52757">
        <ele>701</ele>
        <time>2022-06-12T07:50:10.969Z</time>
      </trkpt>
      <trkpt lat="44.25088" lon="2.52758">
        <ele>702</ele>
        <time>2022-06-12T07:50:11.969Z</time>
      </trkpt>
      <trkpt lat="44.25089" lon="2.5276">
        <ele>702</ele>
        <time>2022-06-12T07:50:12.969Z</time>
      </trkpt>
      <trkpt lat="44.2509" lon="2.52761">
        <ele>702</ele>
        <time>2022-06-12T07:50:13.969Z</time>
      </trkpt>
      <trkpt lat="44.2509" lon="2.52762">
        <ele>702</ele>
        <time>2022-06-12T07:50:14.969Z</time>
      </trkpt>
      <trkpt lat="44.25091" lon="2.52763">
        <ele>702</ele>
        <time>2022-06-12T07:50:15.969Z</time>
      </trkpt>
      <trkpt lat="44.25091" lon="2.52765">
        <ele>702</ele>
        <time>2022-06-12T07:50:16.969Z</time>
      </trkpt>
      <trkpt lat="44.25092" lon="2.52766">
        <ele>702</ele>
        <time>2022-06-12T07:50:17.969Z</time>
      </trkpt>
      <trkpt lat="44.25093" lon="2.52768">
        <ele>702</ele>
        <time>2022-06-12T07:50:18.969Z</time>
      </trkpt>
      <trkpt lat="44.25093" lon="2.52769">
        <ele>702</ele>
        <time>2022-06-12T07:50:19.969Z</time>
      </trkpt>
      <trkpt lat="44.25094" lon="2.5277">
        <ele>702</ele>
        <time>2022-06-12T07:50:20.969Z</time>
      </trkpt>
      <trkpt lat="44.25094" lon="2.52771">
        <ele>702</ele>
        <time>2022-06-12T07:50:21.969Z</time>
      </trkpt>
      <trkpt lat="44.25095" lon="2.52772">
        <ele>702</ele>
        <time>2022-06-12T07:50:22.969Z</time>
      </trkpt>
      <trkpt lat="44.25096" lon="2.52774">
        <ele>702</ele>
        <time>2022-06-12T07:50:23.969Z</time>
      </trkpt>
      <trkpt lat="44.25097" lon="2.52775">
        <ele>702</ele>
        <time>2022-06-12T07:50:24.969Z</time>
      </trkpt>
      <trkpt lat="44.25098" lon="2.52776">
        <ele>702</ele>
        <time>2022-06-12T07:50:25.969Z</time>
      </trkpt>
      <trkpt lat="44.25098" lon="2.52777">
        <ele>702</ele>
        <time>2022-06-12T07:50:26.969Z</time>
      </trkpt>
      <trkpt lat="44.25099" lon="2.52779">
        <ele>703</ele>
        <time>2022-06-12T07:50:27.969Z</time>
      </trkpt>
      <trkpt lat="44.251" lon="2.5278">
        <ele>703</ele>
        <time>2022-06-12T07:50:28.969Z</time>
      </trkpt>
      <trkpt lat="44.251" lon="2.52781">
        <ele>703</ele>
        <time>2022-06-12T07:50:29.969Z</time>
      </trkpt>
      <trkpt lat="44.25101" lon="2.52783">
        <ele>703</ele>
        <time>2022-06-12T07:50:30.969Z</time>
      </trkpt>
      <trkpt lat="44.25102" lon="2.52784">
        <ele>703</ele>
        <time>2022-06-12T07:50:31.969Z</time>
      </trkpt>
      <trkpt lat="44.25102" lon="2.52785">
        <ele>703</ele>
        <time>2022-06-12T07:50:32.969Z</time>
      </trkpt>
      <trkpt lat="44.25103" lon="2.52787">
        <ele>704</ele>
        <time>2022-06-12T07:50:33.969Z</time>
      </trkpt>
      <trkpt lat="44.25104" lon="2.52788">
        <ele>704</ele>
        <time>2022-06-12T07:50:34.969Z</time>
      </trkpt>
      <trkpt lat="44.25104" lon="2.52789">
        <ele>704</ele>
        <time>2022-06-12T07:50:35.969Z</time>
      </trkpt>
      <trkpt lat="44.25105" lon="2.5279">
        <ele>704</ele>
        <time>2022-06-12T07:50:36.969Z</time>
      </trkpt>
      <trkpt lat="44.25106" lon="2.52792">
        <ele>704</ele>
        <time>2022-06-12T07:50:37.969Z</time>
      </trkpt>
      <trkpt lat="44.25106" lon="2.52793">
        <ele>705</ele>
        <time>2022-06-12T07:50:38.969Z</time>
      </trkpt>
      <trkpt lat="44.25107" lon="2.52794">
        <ele>705</ele>
        <time>2022-06-12T07:50:39.969Z</time>
      </trkpt>
      <trkpt lat="44.25108" lon="2.52795">
        <ele>705</ele>
        <time>2022-06-12T07:50:40.969Z</time>
      </trkpt>
      <trkpt lat="44.25108" lon="2.52796">
        <ele>705</ele>
        <time>2022-06-12T07:50:41.969Z</time>
      </trkpt>
      <trkpt lat="44.25109" lon="2.52798">
        <ele>705</ele>
        <time>2022-06-12T07:50:42.969Z</time>
      </trkpt>
      <trkpt lat="44.2511" lon="2.52799">
        <ele>705</ele>
        <time>2022-06-12T07:50:43.969Z</time>
      </trkpt>
      <trkpt lat="44.25111" lon="2.528">
        <ele>705</ele>
        <time>2022-06-12T07:50:44.969Z</time>
      </trkpt>
      <trkpt lat="44.25112" lon="2.52801">
        <ele>705</ele>
        <time>2022-06-12T07:50:45.969Z</time>
      </trkpt>
      <trkpt lat="44.25112" lon="2.52803">
        <ele>706</ele>
        <time>2022-06-12T07:50:46.969Z</time>
      </trkpt>
      <trkpt lat="44.25113" lon="2.52804">
        <ele>706</ele>
        <time>2022-06-12T07:50:47.969Z</time>
      </trkpt>
      <trkpt lat="44.25114" lon="2.52805">
        <ele>706</ele>
        <time>2022-06-12T07:50:48.969Z</time>
      </trkpt>
      <trkpt lat="44.25115" lon="2.52807">
        <ele>706</ele>
        <time>2022-06-12T07:50:49.969Z</time>
      </trkpt>
      <trkpt lat="44.25115" lon="2.52808">
        <ele>706</ele>
        <time>2022-06-12T07:50:50.969Z</time>
      </trkpt>
      <trkpt lat="44.25116" lon="2.52809">
        <ele>706</ele>
        <time>2022-06-12T07:50:51.969Z</time>
      </trkpt>
      <trkpt lat="44.25117" lon="2.5281">
        <ele>706</ele>
        <time>2022-06-12T07:50:52.969Z</time>
      </trkpt>
      <trkpt lat="44.25118" lon="2.52811">
        <ele>706</ele>
        <time>2022-06-12T07:50:53.969Z</time>
      </trkpt>
      <trkpt lat="44.25119" lon="2.52813">
        <ele>706</ele>
        <time>2022-06-12T07:50:54.969Z</time>
      </trkpt>
      <trkpt lat="44.2512" lon="2.52814">
        <ele>706</ele>
        <time>2022-06-12T07:50:55.969Z</time>
      </trkpt>
      <trkpt lat="44.2512" lon="2.52815">
        <ele>707</ele>
        <time>2022-06-12T07:50:56.969Z</time>
      </trkpt>
      <trkpt lat="44.25121" lon="2.52816">
        <ele>707</ele>
        <time>2022-06-12T07:50:57.969Z</time>
      </trkpt>
      <trkpt lat="44.25122" lon="2.52818">
        <ele>707</ele>
        <time>2022-06-12T07:50:58.969Z</time>
      </trkpt>
      <trkpt lat="44.25123" lon="2.52819">
        <ele>707</ele>
        <time>2022-06-12T07:50:59.969Z</time>
      </trkpt>
      <trkpt lat="44.25124" lon="2.5282">
        <ele>707</ele>
        <time>2022-06-12T07:51:00.969Z</time>
      </trkpt>
      <trkpt lat="44.25125" lon="2.52821">
        <ele>707</ele>
        <time>2022-06-12T07:51:01.969Z</time>
      </trkpt>
      <trkpt lat="44.25126" lon="2.52822">
        <ele>707</ele>
        <time>2022-06-12T07:51:02.969Z</time>
      </trkpt>
      <trkpt lat="44.25126" lon="2.52823">
        <ele>707</ele>
        <time>2022-06-12T07:51:03.969Z</time>
      </trkpt>
      <trkpt lat="44.25127" lon="2.52825">
        <ele>707</ele>
        <time>2022-06-12T07:51:04.969Z</time>
      </trkpt>
      <trkpt lat="44.25128" lon="2.52826">
        <ele>707</ele>
        <time>2022-06-12T07:51:05.969Z</time>
      </trkpt>
      <trkpt lat="44.25129" lon="2.52827">
        <ele>708</ele>
        <time>2022-06-12T07:51:06.969Z</time>
      </trkpt>
      <trkpt lat="44.2513" lon="2.52828">
        <ele>708</ele>
        <time>2022-06-12T07:51:07.969Z</time>
      </trkpt>
      <trkpt lat="44.25131" lon="2.52829">
        <ele>708</ele>
        <time>2022-06-12T07:51:08.969Z</time>
      </trkpt>
      <trkpt lat="44.25132" lon="2.5283">
        <ele>708</ele>
        <time>2022-06-12T07:51:09.969Z</time>
      </trkpt>
      <trkpt lat="44.25132" lon="2.52831">
        <ele>708</ele>
        <time>2022-06-12T07:51:10.969Z</time>
      </trkpt>
      <trkpt lat="44.25133" lon="2.52832">
        <ele>708</ele>
        <time>2022-06-12T07:51:11.969Z</time>
      </trkpt>
      <trkpt lat="44.25134" lon="2.52833">
        <ele>708</ele>
        <time>2022-06-12T07:51:12.969Z</time>
      </trkpt>
      <trkpt lat="44.25135" lon="2.52834">
        <ele>708</ele>
        <time>2022-06-12T07:51:13.969Z</time>
      </trkpt>
      <trkpt lat="44.25136" lon="2.52836">
        <ele>709</ele>
        <time>2022-06-12T07:51:14.969Z</time>
      </trkpt>
      <trkpt lat="44.25137" lon="2.52837">
        <ele>709</ele>
        <time>2022-06-12T07:51:15.969Z</time>
      </trkpt>
      <trkpt lat="44.25138" lon="2.52837">
        <ele>709</ele>
        <time>2022-06-12T07:51:16.969Z</time>
      </trkpt>
      <trkpt lat="44.25139" lon="2.52838">
        <ele>709</ele>
        <time>2022-06-12T07:51:17.969Z</time>
      </trkpt>
      <trkpt lat="44.2514" lon="2.52839">
        <ele>709</ele>
        <time>2022-06-12T07:51:18.969Z</time>
      </trkpt>
      <trkpt lat="44.25141" lon="2.52841">
        <ele>709</ele>
        <time>2022-06-12T07:51:19.969Z</time>
      </trkpt>
      <trkpt lat="44.25141" lon="2.52842">
        <ele>710</ele>
        <time>2022-06-12T07:51:20.969Z</time>
      </trkpt>
      <trkpt lat="44.25142" lon="2.52843">
        <ele>710</ele>
        <time>2022-06-12T07:51:21.969Z</time>
      </trkpt>
      <trkpt lat="44.25143" lon="2.52843">
        <ele>710</ele>
        <time>2022-06-12T07:51:22.969Z</time>
      </trkpt>
      <trkpt lat="44.25144" lon="2.52844">
        <ele>710</ele>
        <time>2022-06-12T07:51:23.969Z</time>
      </trkpt>
      <trkpt lat="44.25145" lon="2.52845">
        <ele>710</ele>
        <time>2022-06-12T07:51:24.969Z</time>
      </trkpt>
      <trkpt lat="44.25146" lon="2.52846">
        <ele>710</ele>
        <time>2022-06-12T07:51:25.969Z</time>
      </trkpt>
      <trkpt lat="44.25147" lon="2.52847">
        <ele>711</ele>
        <time>2022-06-12T07:51:26.969Z</time>
      </trkpt>
      <trkpt lat="44.25147" lon="2.52848">
        <ele>711</ele>
        <time>2022-06-12T07:51:27.969Z</time>
      </trkpt>
      <trkpt lat="44.25148" lon="2.5285">
        <ele>711</ele>
        <time>2022-06-12T07:51:28.969Z</time>
      </trkpt>
      <trkpt lat="44.25149" lon="2.52851">
        <ele>711</ele>
        <time>2022-06-12T07:51:29.969Z</time>
      </trkpt>
      <trkpt lat="44.2515" lon="2.52852">
        <ele>711</ele>
        <time>2022-06-12T07:51:30.969Z</time>
      </trkpt>
      <trkpt lat="44.25151" lon="2.52853">
        <ele>711</ele>
        <time>2022-06-12T07:51:31.969Z</time>
      </trkpt>
      <trkpt lat="44.25152" lon="2.52854">
        <ele>711</ele>
        <time>2022-06-12T07:51:32.969Z</time>
      </trkpt>
      <trkpt lat="44.25153" lon="2.52855">
        <ele>711</ele>
        <time>2022-06-12T07:51:33.969Z</time>
      </trkpt>
      <trkpt lat="44.25154" lon="2.52856">
        <ele>712</ele>
        <time>2022-06-12T07:51:34.969Z</time>
      </trkpt>
      <trkpt lat="44.25155" lon="2.52857">
        <ele>712</ele>
        <time>2022-06-12T07:51:35.969Z</time>
      </trkpt>
      <trkpt lat="44.25155" lon="2.52858">
        <ele>712</ele>
        <time>2022-06-12T07:51:36.969Z</time>
      </trkpt>
      <trkpt lat="44.25156" lon="2.52859">
        <ele>712</ele>
        <time>2022-06-12T07:51:37.969Z</time>
      </trkpt>
      <trkpt lat="44.25157" lon="2.5286">
        <ele>712</ele>
        <time>2022-06-12T07:51:38.969Z</time>
      </trkpt>
      <trkpt lat="44.25158" lon="2.52861">
        <ele>712</ele>
        <time>2022-06-12T07:51:39.969Z</time>
      </trkpt>
      <trkpt lat="44.25159" lon="2.52862">
        <ele>712</ele>
        <time>2022-06-12T07:51:40.969Z</time>
      </trkpt>
      <trkpt lat="44.2516" lon="2.52863">
        <ele>712</ele>
        <time>2022-06-12T07:51:41.969Z</time>
      </trkpt>
      <trkpt lat="44.25161" lon="2.52863">
        <ele>712</ele>
        <time>2022-06-12T07:51:42.969Z</time>
      </trkpt>
      <trkpt lat="44.25162" lon="2.52864">
        <ele>712</ele>
        <time>2022-06-12T07:51:43.969Z</time>
      </trkpt>
      <trkpt lat="44.25163" lon="2.52866">
        <ele>712</ele>
        <time>2022-06-12T07:51:44.969Z</time>
      </trkpt>
      <trkpt lat="44.25164" lon="2.52867">
        <ele>712</ele>
        <time>2022-06-12T07:51:45.969Z</time>
      </trkpt>
      <trkpt lat="44.25164" lon="2.52868">
        <ele>712</ele>
        <time>2022-06-12T07:51:46.969Z</time>
      </trkpt>
      <trkpt lat="44.25165" lon="2.52869">
        <ele>712</ele>
        <time>2022-06-12T07:51:47.969Z</time>
      </trkpt>
      <trkpt lat="44.25166" lon="2.5287">
        <ele>713</ele>
        <time>2022-06-12T07:51:48.969Z</time>
      </trkpt>
      <trkpt lat="44.25167" lon="2.52871">
        <ele>713</ele>
        <time>2022-06-12T07:51:49.969Z</time>
      </trkpt>
      <trkpt lat="44.25168" lon="2.52873">
        <ele>713</ele>
        <time>2022-06-12T07:51:50.969Z</time>
      </trkpt>
      <trkpt lat="44.25169" lon="2.52874">
        <ele>713</ele>
        <time>2022-06-12T07:51:51.969Z</time>
      </trkpt>
      <trkpt lat="44.2517" lon="2.52875">
        <ele>713</ele>
        <time>2022-06-12T07:51:52.969Z</time>
      </trkpt>
      <trkpt lat="44.2517" lon="2.52876">
        <ele>713</ele>
        <time>2022-06-12T07:51:53.969Z</time>
      </trkpt>
      <trkpt lat="44.25171" lon="2.52877">
        <ele>713</ele>
        <time>2022-06-12T07:51:54.969Z</time>
      </trkpt>
      <trkpt lat="44.25172" lon="2.52878">
        <ele>713</ele>
        <time>2022-06-12T07:51:55.969Z</time>
      </trkpt>
      <trkpt lat="44.25173" lon="2.52879">
        <ele>714</ele>
        <time>2022-06-12T07:51:56.969Z</time>
      </trkpt>
      <trkpt lat="44.25174" lon="2.5288">
        <ele>714</ele>
        <time>2022-06-12T07:51:57.969Z</time>
      </trkpt>
      <trkpt lat="44.25175" lon="2.52881">
        <ele>714</ele>
        <time>2022-06-12T07:51:58.969Z</time>
      </trkpt>
      <trkpt lat="44.25176" lon="2.52882">
        <ele>714</ele>
        <time>2022-06-12T07:51:59.969Z</time>
      </trkpt>
      <trkpt lat="44.25177" lon="2.52883">
        <ele>714</ele>
        <time>2022-06-12T07:52:00.969Z</time>
      </trkpt>
      <trkpt lat="44.25178" lon="2.52885">
        <ele>715</ele>
        <time>2022-06-12T07:52:01.969Z</time>
      </trkpt>
      <trkpt lat="44.25179" lon="2.52885">
        <ele>715</ele>
        <time>2022-06-12T07:52:02.969Z</time>
      </trkpt>
      <trkpt lat="44.2518" lon="2.52886">
        <ele>715</ele>
        <time>2022-06-12T07:52:03.969Z</time>
      </trkpt>
      <trkpt lat="44.25181" lon="2.52887">
        <ele>715</ele>
        <time>2022-06-12T07:52:04.969Z</time>
      </trkpt>
      <trkpt lat="44.25182" lon="2.52888">
        <ele>715</ele>
        <time>2022-06-12T07:52:05.969Z</time>
      </trkpt>
      <trkpt lat="44.25183" lon="2.52889">
        <ele>715</ele>
        <time>2022-06-12T07:52:06.969Z</time>
      </trkpt>
      <trkpt lat="44.25184" lon="2.5289">
        <ele>715</ele>
        <time>2022-06-12T07:52:07.969Z</time>
      </trkpt>
      <trkpt lat="44.25185" lon="2.52891">
        <ele>715</ele>
        <time>2022-06-12T07:52:08.969Z</time>
      </trkpt>
      <trkpt lat="44.25185" lon="2.52892">
        <ele>715</ele>
        <time>2022-06-12T07:52:09.969Z</time>
      </trkpt>
      <trkpt lat="44.25186" lon="2.52893">
        <ele>715</ele>
        <time>2022-06-12T07:52:10.969Z</time>
      </trkpt>
      <trkpt lat="44.25187" lon="2.52894">
        <ele>716</ele>
        <time>2022-06-12T07:52:11.969Z</time>
      </trkpt>
      <trkpt lat="44.25188" lon="2.52896">
        <ele>716</ele>
        <time>2022-06-12T07:52:12.969Z</time>
      </trkpt>
      <trkpt lat="44.25189" lon="2.52897">
        <ele>716</ele>
        <time>2022-06-12T07:52:13.969Z</time>
      </trkpt>
      <trkpt lat="44.25189" lon="2.52898">
        <ele>716</ele>
        <time>2022-06-12T07:52:14.969Z</time>
      </trkpt>
      <trkpt lat="44.2519" lon="2.52899">
        <ele>716</ele>
        <time>2022-06-12T07:52:15.969Z</time>
      </trkpt>
      <trkpt lat="44.25191" lon="2.529">
        <ele>716</ele>
        <time>2022-06-12T07:52:16.969Z</time>
      </trkpt>
      <trkpt lat="44.25191" lon="2.52902">
        <ele>716</ele>
        <time>2022-06-12T07:52:17.969Z</time>
      </trkpt>
      <trkpt lat="44.25192" lon="2.52903">
        <ele>716</ele>
        <time>2022-06-12T07:52:18.969Z</time>
      </trkpt>
      <trkpt lat="44.25192" lon="2.52904">
        <ele>716</ele>
        <time>2022-06-12T07:52:19.969Z</time>
      </trkpt>
      <trkpt lat="44.25193" lon="2.52905">
        <ele>717</ele>
        <time>2022-06-12T07:52:20.969Z</time>
      </trkpt>
      <trkpt lat="44.25193" lon="2.52906">
        <ele>717</ele>
        <time>2022-06-12T07:52:21.969Z</time>
      </trkpt>
      <trkpt lat="44.25193" lon="2.52907">
        <ele>717</ele>
        <time>2022-06-12T07:52:22.969Z</time>
      </trkpt>
      <trkpt lat="44.25194" lon="2.52908">
        <ele>717</ele>
        <time>2022-06-12T07:52:23.969Z</time>
      </trkpt>
      <trkpt lat="44.25194" lon="2.52908">
        <ele>717</ele>
        <time>2022-06-12T07:52:24.969Z</time>
      </trkpt>
      <trkpt lat="44.25194" lon="2.52909">
        <ele>717</ele>
        <time>2022-06-12T07:52:25.969Z</time>
      </trkpt>
      <trkpt lat="44.25194" lon="2.52909">
        <ele>717</ele>
        <time>2022-06-12T07:52:26.969Z</time>
      </trkpt>
      <trkpt lat="44.25194" lon="2.52909">
        <ele>717</ele>
        <time>2022-06-12T07:52:27.969Z</time>
      </trkpt>
      <trkpt lat="44.25192" lon="2.52911">
        <ele>717</ele>
        <time>2022-06-12T07:53:41.969Z</time>
      </trkpt>
      <trkpt lat="44.25192" lon="2.52912">
        <ele>717</ele>
        <time>2022-06-12T07:53:42.969Z</time>
      </trkpt>
      <trkpt lat="44.25191" lon="2.52913">
        <ele>717</ele>
        <time>2022-06-12T07:53:43.969Z</time>
      </trkpt>
      <trkpt lat="44.2519" lon="2.52914">
        <ele>717</ele>
        <time>2022-06-12T07:53:44.969Z</time>
      </trkpt>
      <trkpt lat="44.2519" lon="2.52916">
        <ele>717</ele>
        <time>2022-06-12T07:53:45.969Z</time>
      </trkpt>
      <trkpt lat="44.25189" lon="2.52917">
        <ele>717</ele>
        <time>2022-06-12T07:53:46.969Z</time>
      </trkpt>
      <trkpt lat="44.25188" lon="2.52918">
        <ele>717</ele>
        <time>2022-06-12T07:53:47.969Z</time>
      </trkpt>
      <trkpt lat="44.25188" lon="2.52919">
        <ele>716</ele>
        <time>2022-06-12T07:53:48.969Z</time>
      </trkpt>
      <trkpt lat="44.25187" lon="2.52921">
        <ele>716</ele>
        <time>2022-06-12T07:53:49.969Z</time>
      </trkpt>
      <trkpt lat="44.25187" lon="2.52922">
        <ele>716</ele>
        <time>2022-06-12T07:53:50.969Z</time>
      </trkpt>
      <trkpt lat="44.25186" lon="2.52922">
        <ele>716</ele>
        <time>2022-06-12T07:53:51.969Z</time>
      </trkpt>
      <trkpt lat="44.25186" lon="2.52923">
        <ele>716</ele>
        <time>2022-06-12T07:53:52.969Z</time>
      </trkpt>
      <trkpt lat="44.25185" lon="2.52924">
        <ele>716</ele>
        <time>2022-06-12T07:53:53.969Z</time>
      </trkpt>
      <trkpt lat="44.25185" lon="2.52925">
        <ele>716</ele>
        <time>2022-06-12T07:53:54.969Z</time>
      </trkpt>
      <trkpt lat="44.25184" lon="2.52926">
        <ele>716</ele>
        <time>2022-06-12T07:53:55.969Z</time>
      </trkpt>
      <trkpt lat="44.25184" lon="2.52927">
        <ele>716</ele>
        <time>2022-06-12T07:53:56.969Z</time>
      </trkpt>
      <trkpt lat="44.25183" lon="2.52928">
        <ele>716</ele>
        <time>2022-06-12T07:53:57.969Z</time>
      </trkpt>
      <trkpt lat="44.25183" lon="2.52929">
        <ele>716</ele>
        <time>2022-06-12T07:53:58.969Z</time>
      </trkpt>
      <trkpt lat="44.25183" lon="2.5293">
        <ele>716</ele>
        <time>2022-06-12T07:53:59.969Z</time>
      </trkpt>
      <trkpt lat="44.25182" lon="2.52931">
        <ele>716</ele>
        <time>2022-06-12T07:54:00.969Z</time>
      </trkpt>
      <trkpt lat="44.25182" lon="2.52932">
        <ele>716</ele>
        <time>2022-06-12T07:54:01.969Z</time>
      </trkpt>
      <trkpt lat="44.25181" lon="2.52933">
        <ele>716</ele>
        <time>2022-06-12T07:54:02.969Z</time>
      </trkpt>
      <trkpt lat="44.25181" lon="2.52934">
        <ele>716</ele>
        <time>2022-06-12T07:54:03.969Z</time>
      </trkpt>
      <trkpt lat="44.2518" lon="2.52935">
        <ele>716</ele>
        <time>2022-06-12T07:54:04.969Z</time>
      </trkpt>
      <trkpt lat="44.2518" lon="2.52936">
        <ele>715</ele>
        <time>2022-06-12T07:54:05.969Z</time>
      </trkpt>
      <trkpt lat="44.25179" lon="2.52937">
        <ele>715</ele>
        <time>2022-06-12T07:54:06.969Z</time>
      </trkpt>
      <trkpt lat="44.25179" lon="2.52938">
        <ele>715</ele>
        <time>2022-06-12T07:54:07.969Z</time>
      </trkpt>
      <trkpt lat="44.25179" lon="2.52939">
        <ele>715</ele>
        <time>2022-06-12T07:54:08.969Z</time>
      </trkpt>
      <trkpt lat="44.25178" lon="2.5294">
        <ele>715</ele>
        <time>2022-06-12T07:54:09.969Z</time>
      </trkpt>
      <trkpt lat="44.25178" lon="2.52941">
        <ele>715</ele>
        <time>2022-06-12T07:54:10.969Z</time>
      </trkpt>
      <trkpt lat="44.25177" lon="2.52942">
        <ele>715</ele>
        <time>2022-06-12T07:54:11.969Z</time>
      </trkpt>
      <trkpt lat="44.25176" lon="2.52943">
        <ele>715</ele>
        <time>2022-06-12T07:54:12.969Z</time>
      </trkpt>
      <trkpt lat="44.25176" lon="2.52944">
        <ele>715</ele>
        <time>2022-06-12T07:54:13.969Z</time>
      </trkpt>
      <trkpt lat="44.25175" lon="2.52945">
        <ele>715</ele>
        <time>2022-06-12T07:54:14.969Z</time>
      </trkpt>
      <trkpt lat="44.25175" lon="2.52946">
        <ele>715</ele>
        <time>2022-06-12T07:54:15.969Z</time>
      </trkpt>
      <trkpt lat="44.25174" lon="2.52947">
        <ele>715</ele>
        <time>2022-06-12T07:54:16.969Z</time>
      </trkpt>
      <trkpt lat="44.25174" lon="2.52948">
        <ele>715</ele>
        <time>2022-06-12T07:54:17.969Z</time>
      </trkpt>
      <trkpt lat="44.25173" lon="2.52949">
        <ele>715</ele>
        <time>2022-06-12T07:54:18.969Z</time>
      </trkpt>
      <trkpt lat="44.25173" lon="2.5295">
        <ele>715</ele>
        <time>2022-06-12T07:54:19.969Z</time>
      </trkpt>
      <trkpt lat="44.25172" lon="2.52951">
        <ele>715</ele>
        <time>2022-06-12T07:54:20.969Z</time>
      </trkpt>
      <trkpt lat="44.25171" lon="2.52953">
        <ele>715</ele>
        <time>2022-06-12T07:54:21.969Z</time>
      </trkpt>
      <trkpt lat="44.25171" lon="2.52954">
        <ele>715</ele>
        <time>2022-06-12T07:54:22.969Z</time>
      </trkpt>
      <trkpt lat="44.2517" lon="2.52955">
        <ele>715</ele>
        <time>2022-06-12T07:54:23.969Z</time>
      </trkpt>
      <trkpt lat="44.2517" lon="2.52956">
        <ele>715</ele>
        <time>2022-06-12T07:54:24.969Z</time>
      </trkpt>
      <trkpt lat="44.25169" lon="2.52957">
        <ele>715</ele>
        <time>2022-06-12T07:54:25.969Z</time>
      </trkpt>
      <trkpt lat="44.25168" lon="2.52959">
        <ele>715</ele>
        <time>2022-06-12T07:54:26.969Z</time>
      </trkpt>
      <trkpt lat="44.25168" lon="2.5296">
        <ele>715</ele>
        <time>2022-06-12T07:54:27.969Z</time>
      </trkpt>
      <trkpt lat="44.25167" lon="2.52961">
        <ele>715</ele>
        <time>2022-06-12T07:54:28.969Z</time>
      </trkpt>
      <trkpt lat="44.25167" lon="2.52962">
        <ele>715</ele>
        <time>2022-06-12T07:54:29.969Z</time>
      </trkpt>
      <trkpt lat="44.25166" lon="2.52963">
        <ele>715</ele>
        <time>2022-06-12T07:54:30.969Z</time>
      </trkpt>
      <trkpt lat="44.25166" lon="2.52965">
        <ele>715</ele>
        <time>2022-06-12T07:54:31.969Z</time>
      </trkpt>
      <trkpt lat="44.25165" lon="2.52966">
        <ele>715</ele>
        <time>2022-06-12T07:54:32.969Z</time>
      </trkpt>
      <trkpt lat="44.25165" lon="2.52967">
        <ele>715</ele>
        <time>2022-06-12T07:54:33.969Z</time>
      </trkpt>
      <trkpt lat="44.25164" lon="2.52968">
        <ele>715</ele>
        <time>2022-06-12T07:54:34.969Z</time>
      </trkpt>
      <trkpt lat="44.25163" lon="2.5297">
        <ele>715</ele>
        <time>2022-06-12T07:54:35.969Z</time>
      </trkpt>
      <trkpt lat="44.25163" lon="2.52971">
        <ele>715</ele>
        <time>2022-06-12T07:54:36.969Z</time>
      </trkpt>
      <trkpt lat="44.25162" lon="2.52972">
        <ele>715</ele>
        <time>2022-06-12T07:54:37.969Z</time>
      </trkpt>
      <trkpt lat="44.25161" lon="2.52974">
        <ele>715</ele>
        <time>2022-06-12T07:54:38.969Z</time>
      </trkpt>
      <trkpt lat="44.25161" lon="2.52975">
        <ele>715</ele>
        <time>2022-06-12T07:54:39.969Z</time>
      </trkpt>
      <trkpt lat="44.2516" lon="2.52977">
        <ele>715</ele>
        <time>2022-06-12T07:54:40.969Z</time>
      </trkpt>
      <trkpt lat="44.25159" lon="2.52978">
        <ele>715</ele>
        <time>2022-06-12T07:54:41.969Z</time>
      </trkpt>
      <trkpt lat="44.25159" lon="2.52979">
        <ele>715</ele>
        <time>2022-06-12T07:54:42.969Z</time>
      </trkpt>
      <trkpt lat="44.25158" lon="2.5298">
        <ele>715</ele>
        <time>2022-06-12T07:54:43.969Z</time>
      </trkpt>
      <trkpt lat="44.25157" lon="2.52981">
        <ele>715</ele>
        <time>2022-06-12T07:54:44.969Z</time>
      </trkpt>
      <trkpt lat="44.25157" lon="2.52983">
        <ele>715</ele>
        <time>2022-06-12T07:54:45.969Z</time>
      </trkpt>
      <trkpt lat="44.25156" lon="2.52984">
        <ele>715</ele>
        <time>2022-06-12T07:54:46.969Z</time>
      </trkpt>
      <trkpt lat="44.25156" lon="2.52985">
        <ele>715</ele>
        <time>2022-06-12T07:54:47.969Z</time>
      </trkpt>
      <trkpt lat="44.25155" lon="2.52986">
        <ele>715</ele>
        <time>2022-06-12T07:54:48.969Z</time>
      </trkpt>
      <trkpt lat="44.25155" lon="2.52988">
        <ele>714</ele>
        <time>2022-06-12T07:54:49.969Z</time>
      </trkpt>
      <trkpt lat="44.25154" lon="2.52989">
        <ele>714</ele>
        <time>2022-06-12T07:54:50.969Z</time>
      </trkpt>
      <trkpt lat="44.25154" lon="2.5299">
        <ele>714</ele>
        <time>2022-06-12T07:54:51.969Z</time>
      </trkpt>
      <trkpt lat="44.25153" lon="2.52992">
        <ele>714</ele>
        <time>2022-06-12T07:54:52.969Z</time>
      </trkpt>
      <trkpt lat="44.25152" lon="2.52993">
        <ele>714</ele>
        <time>2022-06-12T07:54:53.969Z</time>
      </trkpt>
      <trkpt lat="44.25152" lon="2.52995">
        <ele>714</ele>
        <time>2022-06-12T07:54:54.969Z</time>
      </trkpt>
      <trkpt lat="44.25151" lon="2.52996">
        <ele>714</ele>
        <time>2022-06-12T07:54:55.969Z</time>
      </trkpt>
      <trkpt lat="44.2515" lon="2.52997">
        <ele>714</ele>
        <time>2022-06-12T07:54:56.969Z</time>
      </trkpt>
      <trkpt lat="44.25149" lon="2.52999">
        <ele>714</ele>
        <time>2022-06-12T07:54:57.969Z</time>
      </trkpt>
      <trkpt lat="44.25149" lon="2.53">
        <ele>714</ele>
        <time>2022-06-12T07:54:58.969Z</time>
      </trkpt>
      <trkpt lat="44.25148" lon="2.53001">
        <ele>714</ele>
        <time>2022-06-12T07:54:59.969Z</time>
      </trkpt>
      <trkpt lat="44.25148" lon="2.53002">
        <ele>714</ele>
        <time>2022-06-12T07:55:00.969Z</time>
      </trkpt>
      <trkpt lat="44.25147" lon="2.53004">
        <ele>714</ele>
        <time>2022-06-12T07:55:01.969Z</time>
      </trkpt>
      <trkpt lat="44.25146" lon="2.53005">
        <ele>714</ele>
        <time>2022-06-12T07:55:02.969Z</time>
      </trkpt>
      <trkpt lat="44.25146" lon="2.53006">
        <ele>714</ele>
        <time>2022-06-12T07:55:03.969Z</time>
      </trkpt>
      <trkpt lat="44.25145" lon="2.53008">
        <ele>714</ele>
        <time>2022-06-12T07:55:04.969Z</time>
      </trkpt>
      <trkpt lat="44.25145" lon="2.53009">
        <ele>714</ele>
        <time>2022-06-12T07:55:05.969Z</time>
      </trkpt>
      <trkpt lat="44.25144" lon="2.5301">
        <ele>714</ele>
        <time>2022-06-12T07:55:06.969Z</time>
      </trkpt>
      <trkpt lat="44.25143" lon="2.53012">
        <ele>714</ele>
        <time>2022-06-12T07:55:07.969Z</time>
      </trkpt>
      <trkpt lat="44.25143" lon="2.53013">
        <ele>714</ele>
        <time>2022-06-12T07:55:08.969Z</time>
      </trkpt>
      <trkpt lat="44.25142" lon="2.53014">
        <ele>714</ele>
        <time>2022-06-12T07:55:09.969Z</time>
      </trkpt>
      <trkpt lat="44.25142" lon="2.53016">
        <ele>713</ele>
        <time>2022-06-12T07:55:10.969Z</time>
      </trkpt>
      <trkpt lat="44.25141" lon="2.53017">
        <ele>713</ele>
        <time>2022-06-12T07:55:11.969Z</time>
      </trkpt>
      <trkpt lat="44.2514" lon="2.53018">
        <ele>713</ele>
        <time>2022-06-12T07:55:12.969Z</time>
      </trkpt>
      <trkpt lat="44.2514" lon="2.5302">
        <ele>713</ele>
        <time>2022-06-12T07:55:13.969Z</time>
      </trkpt>
      <trkpt lat="44.25139" lon="2.53021">
        <ele>713</ele>
        <time>2022-06-12T07:55:14.969Z</time>
      </trkpt>
      <trkpt lat="44.25139" lon="2.53022">
        <ele>713</ele>
        <time>2022-06-12T07:55:15.969Z</time>
      </trkpt>
      <trkpt lat="44.25138" lon="2.53023">
        <ele>713</ele>
        <time>2022-06-12T07:55:16.969Z</time>
      </trkpt>
      <trkpt lat="44.25137" lon="2.53024">
        <ele>713</ele>
        <time>2022-06-12T07:55:17.969Z</time>
      </trkpt>
      <trkpt lat="44.25137" lon="2.53026">
        <ele>713</ele>
        <time>2022-06-12T07:55:18.969Z</time>
      </trkpt>
      <trkpt lat="44.25136" lon="2.53027">
        <ele>713</ele>
        <time>2022-06-12T07:55:19.969Z</time>
      </trkpt>
      <trkpt lat="44.25135" lon="2.53028">
        <ele>713</ele>
        <time>2022-06-12T07:55:20.969Z</time>
      </trkpt>
      <trkpt lat="44.25135" lon="2.53029">
        <ele>713</ele>
        <time>2022-06-12T07:55:21.969Z</time>
      </trkpt>
      <trkpt lat="44.25134" lon="2.5303">
        <ele>713</ele>
        <time>2022-06-12T07:55:22.969Z</time>
      </trkpt>
      <trkpt lat="44.25134" lon="2.53032">
        <ele>713</ele>
        <time>2022-06-12T07:55:23.969Z</time>
      </trkpt>
      <trkpt lat="44.25133" lon="2.53033">
        <ele>713</ele>
        <time>2022-06-12T07:55:24.969Z</time>
      </trkpt>
      <trkpt lat="44.25132" lon="2.53034">
        <ele>713</ele>
        <time>2022-06-12T07:55:25.969Z</time>
      </trkpt>
      <trkpt lat="44.25132" lon="2.53035">
        <ele>713</ele>
        <time>2022-06-12T07:55:26.969Z</time>
      </trkpt>
      <trkpt lat="44.25131" lon="2.53036">
        <ele>713</ele>
        <time>2022-06-12T07:55:27.969Z</time>
      </trkpt>
      <trkpt lat="44.25131" lon="2.53038">
        <ele>713</ele>
        <time>2022-06-12T07:55:28.969Z</time>
      </trkpt>
      <trkpt lat="44.2513" lon="2.53039">
        <ele>713</ele>
        <time>2022-06-12T07:55:29.969Z</time>
      </trkpt>
      <trkpt lat="44.2513" lon="2.5304">
        <ele>713</ele>
        <time>2022-06-12T07:55:30.969Z</time>
      </trkpt>
      <trkpt lat="44.25129" lon="2.53041">
        <ele>713</ele>
        <time>2022-06-12T07:55:31.969Z</time>
      </trkpt>
      <trkpt lat="44.25128" lon="2.53042">
        <ele>713</ele>
        <time>2022-06-12T07:55:32.969Z</time>
      </trkpt>
      <trkpt lat="44.25128" lon="2.53043">
        <ele>713</ele>
        <time>2022-06-12T07:55:33.969Z</time>
      </trkpt>
      <trkpt lat="44.25127" lon="2.53044">
        <ele>713</ele>
        <time>2022-06-12T07:55:34.969Z</time>
      </trkpt>
      <trkpt lat="44.25127" lon="2.53045">
        <ele>713</ele>
        <time>2022-06-12T07:55:35.969Z</time>
      </trkpt>
      <trkpt lat="44.25126" lon="2.53046">
        <ele>713</ele>
        <time>2022-06-12T07:55:36.969Z</time>
      </trkpt>
      <trkpt lat="44.25126" lon="2.53047">
        <ele>713</ele>
        <time>2022-06-12T07:55:37.969Z</time>
      </trkpt>
      <trkpt lat="44.25125" lon="2.53048">
        <ele>713</ele>
        <time>2022-06-12T07:55:38.969Z</time>
      </trkpt>
      <trkpt lat="44.25125" lon="2.53049">
        <ele>713</ele>
        <time>2022-06-12T07:55:39.969Z</time>
      </trkpt>
      <trkpt lat="44.25124" lon="2.53051">
        <ele>713</ele>
        <time>2022-06-12T07:55:40.969Z</time>
      </trkpt>
      <trkpt lat="44.25124" lon="2.53052">
        <ele>713</ele>
        <time>2022-06-12T07:55:41.969Z</time>
      </trkpt>
      <trkpt lat="44.25123" lon="2.53053">
        <ele>713</ele>
        <time>2022-06-12T07:55:42.969Z</time>
      </trkpt>
      <trkpt lat="44.25123" lon="2.53055">
        <ele>713</ele>
        <time>2022-06-12T07:55:43.969Z</time>
      </trkpt>
      <trkpt lat="44.25122" lon="2.53056">
        <ele>713</ele>
        <time>2022-06-12T07:55:44.969Z</time>
      </trkpt>
      <trkpt lat="44.25122" lon="2.53057">
        <ele>713</ele>
        <time>2022-06-12T07:55:45.969Z</time>
      </trkpt>
      <trkpt lat="44.25121" lon="2.53058">
        <ele>713</ele>
        <time>2022-06-12T07:55:46.969Z</time>
      </trkpt>
      <trkpt lat="44.2512" lon="2.5306">
        <ele>713</ele>
        <time>2022-06-12T07:55:47.969Z</time>
      </trkpt>
      <trkpt lat="44.2512" lon="2.53061">
        <ele>713</ele>
        <time>2022-06-12T07:55:48.969Z</time>
      </trkpt>
      <trkpt lat="44.25119" lon="2.53062">
        <ele>713</ele>
        <time>2022-06-12T07:55:49.969Z</time>
      </trkpt>
      <trkpt lat="44.25119" lon="2.53063">
        <ele>713</ele>
        <time>2022-06-12T07:55:50.969Z</time>
      </trkpt>
      <trkpt lat="44.25118" lon="2.53064">
        <ele>713</ele>
        <time>2022-06-12T07:55:51.969Z</time>
      </trkpt>
      <trkpt lat="44.25117" lon="2.53065">
        <ele>713</ele>
        <time>2022-06-12T07:55:52.969Z</time>
      </trkpt>
      <trkpt lat="44.25117" lon="2.53066">
        <ele>713</ele>
        <time>2022-06-12T07:55:53.969Z</time>
      </trkpt>
      <trkpt lat="44.25116" lon="2.53067">
        <ele>713</ele>
        <time>2022-06-12T07:55:54.969Z</time>
      </trkpt>
      <trkpt lat="44.25116" lon="2.53069">
        <ele>713</ele>
        <time>2022-06-12T07:55:55.969Z</time>
      </trkpt>
      <trkpt lat="44.25115" lon="2.5307">
        <ele>713</ele>
        <time>2022-06-12T07:55:56.969Z</time>
      </trkpt>
      <trkpt lat="44.25115" lon="2.53071">
        <ele>713</ele>
        <time>2022-06-12T07:55:57.969Z</time>
      </trkpt>
      <trkpt lat="44.25114" lon="2.53072">
        <ele>712</ele>
        <time>2022-06-12T07:55:58.969Z</time>
      </trkpt>
      <trkpt lat="44.25113" lon="2.53073">
        <ele>712</ele>
        <time>2022-06-12T07:55:59.969Z</time>
      </trkpt>
      <trkpt lat="44.25113" lon="2.53074">
        <ele>712</ele>
        <time>2022-06-12T07:56:00.969Z</time>
      </trkpt>
      <trkpt lat="44.25112" lon="2.53076">
        <ele>712</ele>
        <time>2022-06-12T07:56:01.969Z</time>
      </trkpt>
      <trkpt lat="44.25111" lon="2.53077">
        <ele>712</ele>
        <time>2022-06-12T07:56:02.969Z</time>
      </trkpt>
      <trkpt lat="44.25111" lon="2.53078">
        <ele>712</ele>
        <time>2022-06-12T07:56:03.969Z</time>
      </trkpt>
      <trkpt lat="44.2511" lon="2.53079">
        <ele>712</ele>
        <time>2022-06-12T07:56:04.969Z</time>
      </trkpt>
      <trkpt lat="44.25109" lon="2.5308">
        <ele>712</ele>
        <time>2022-06-12T07:56:05.969Z</time>
      </trkpt>
      <trkpt lat="44.25108" lon="2.53081">
        <ele>712</ele>
        <time>2022-06-12T07:56:06.969Z</time>
      </trkpt>
      <trkpt lat="44.25108" lon="2.53082">
        <ele>712</ele>
        <time>2022-06-12T07:56:07.969Z</time>
      </trkpt>
      <trkpt lat="44.25107" lon="2.53084">
        <ele>712</ele>
        <time>2022-06-12T07:56:08.969Z</time>
      </trkpt>
      <trkpt lat="44.25106" lon="2.53085">
        <ele>712</ele>
        <time>2022-06-12T07:56:09.969Z</time>
      </trkpt>
      <trkpt lat="44.25105" lon="2.53086">
        <ele>712</ele>
        <time>2022-06-12T07:56:10.969Z</time>
      </trkpt>
      <trkpt lat="44.25105" lon="2.53087">
        <ele>712</ele>
        <time>2022-06-12T07:56:11.969Z</time>
      </trkpt>
      <trkpt lat="44.25105" lon="2.53089">
        <ele>712</ele>
        <time>2022-06-12T07:56:12.969Z</time>
      </trkpt>
      <trkpt lat="44.25104" lon="2.5309">
        <ele>712</ele>
        <time>2022-06-12T07:56:13.969Z</time>
      </trkpt>
      <trkpt lat="44.25104" lon="2.5309">
        <ele>712</ele>
        <time>2022-06-12T07:56:14.969Z</time>
      </trkpt>
      <trkpt lat="44.25104" lon="2.53091">
        <ele>712</ele>
        <time>2022-06-12T07:56:15.969Z</time>
      </trkpt>
      <trkpt lat="44.25103" lon="2.53092">
        <ele>712</ele>
        <time>2022-06-12T07:56:16.969Z</time>
      </trkpt>
      <trkpt lat="44.25103" lon="2.53093">
        <ele>712</ele>
        <time>2022-06-12T07:56:17.969Z</time>
      </trkpt>
      <trkpt lat="44.25102" lon="2.53094">
        <ele>712</ele>
        <time>2022-06-12T07:56:18.969Z</time>
      </trkpt>
      <trkpt lat="44.25102" lon="2.53095">
        <ele>712</ele>
        <time>2022-06-12T07:56:19.969Z</time>
      </trkpt>
      <trkpt lat="44.25101" lon="2.53096">
        <ele>712</ele>
        <time>2022-06-12T07:56:20.969Z</time>
      </trkpt>
      <trkpt lat="44.25101" lon="2.53096">
        <ele>712</ele>
        <time>2022-06-12T07:56:21.969Z</time>
      </trkpt>
      <trkpt lat="44.251" lon="2.53097">
        <ele>712</ele>
        <time>2022-06-12T07:56:22.969Z</time>
      </trkpt>
      <trkpt lat="44.251" lon="2.53098">
        <ele>711</ele>
        <time>2022-06-12T07:56:23.969Z</time>
      </trkpt>
      <trkpt lat="44.25099" lon="2.531">
        <ele>711</ele>
        <time>2022-06-12T07:56:24.969Z</time>
      </trkpt>
      <trkpt lat="44.25099" lon="2.53101">
        <ele>711</ele>
        <time>2022-06-12T07:56:25.969Z</time>
      </trkpt>
      <trkpt lat="44.25098" lon="2.53103">
        <ele>711</ele>
        <time>2022-06-12T07:56:26.969Z</time>
      </trkpt>
      <trkpt lat="44.25098" lon="2.53104">
        <ele>711</ele>
        <time>2022-06-12T07:56:27.969Z</time>
      </trkpt>
      <trkpt lat="44.25098" lon="2.53105">
        <ele>711</ele>
        <time>2022-06-12T07:56:28.969Z</time>
      </trkpt>
      <trkpt lat="44.25097" lon="2.53106">
        <ele>711</ele>
        <time>2022-06-12T07:56:29.969Z</time>
      </trkpt>
      <trkpt lat="44.25096" lon="2.53107">
        <ele>711</ele>
        <time>2022-06-12T07:56:30.969Z</time>
      </trkpt>
      <trkpt lat="44.25096" lon="2.53108">
        <ele>711</ele>
        <time>2022-06-12T07:56:31.969Z</time>
      </trkpt>
      <trkpt lat="44.25095" lon="2.53109">
        <ele>711</ele>
        <time>2022-06-12T07:56:32.969Z</time>
      </trkpt>
      <trkpt lat="44.25094" lon="2.5311">
        <ele>711</ele>
        <time>2022-06-12T07:56:33.969Z</time>
      </trkpt>
      <trkpt lat="44.25094" lon="2.53111">
        <ele>711</ele>
        <time>2022-06-12T07:56:34.969Z</time>
      </trkpt>
      <trkpt lat="44.25093" lon="2.53112">
        <ele>710</ele>
        <time>2022-06-12T07:56:35.969Z</time>
      </trkpt>
      <trkpt lat="44.25092" lon="2.53113">
        <ele>710</ele>
        <time>2022-06-12T07:56:36.969Z</time>
      </trkpt>
      <trkpt lat="44.25092" lon="2.53114">
        <ele>710</ele>
        <time>2022-06-12T07:56:37.969Z</time>
      </trkpt>
      <trkpt lat="44.25091" lon="2.53115">
        <ele>710</ele>
        <time>2022-06-12T07:56:38.969Z</time>
      </trkpt>
      <trkpt lat="44.25091" lon="2.53116">
        <ele>710</ele>
        <time>2022-06-12T07:56:39.969Z</time>
      </trkpt>
      <trkpt lat="44.2509" lon="2.53117">
        <ele>710</ele>
        <time>2022-06-12T07:56:40.969Z</time>
      </trkpt>
      <trkpt lat="44.25089" lon="2.53118">
        <ele>710</ele>
        <time>2022-06-12T07:56:41.969Z</time>
      </trkpt>
      <trkpt lat="44.25089" lon="2.53119">
        <ele>710</ele>
        <time>2022-06-12T07:56:42.969Z</time>
      </trkpt>
      <trkpt lat="44.25088" lon="2.5312">
        <ele>710</ele>
        <time>2022-06-12T07:56:43.969Z</time>
      </trkpt>
      <trkpt lat="44.25088" lon="2.5312">
        <ele>710</ele>
        <time>2022-06-12T07:56:44.969Z</time>
      </trkpt>
      <trkpt lat="44.25087" lon="2.53121">
        <ele>710</ele>
        <time>2022-06-12T07:56:45.969Z</time>
      </trkpt>
      <trkpt lat="44.25087" lon="2.53123">
        <ele>710</ele>
        <time>2022-06-12T07:56:46.969Z</time>
      </trkpt>
      <trkpt lat="44.25086" lon="2.53124">
        <ele>710</ele>
        <time>2022-06-12T07:56:47.969Z</time>
      </trkpt>
      <trkpt lat="44.25085" lon="2.53125">
        <ele>710</ele>
        <time>2022-06-12T07:56:48.969Z</time>
      </trkpt>
      <trkpt lat="44.25085" lon="2.53127">
        <ele>710</ele>
        <time>2022-06-12T07:56:49.969Z</time>
      </trkpt>
      <trkpt lat="44.25084" lon="2.53128">
        <ele>710</ele>
        <time>2022-06-12T07:56:50.969Z</time>
      </trkpt>
      <trkpt lat="44.25084" lon="2.53129">
        <ele>710</ele>
        <time>2022-06-12T07:56:51.969Z</time>
      </trkpt>
      <trkpt lat="44.25083" lon="2.5313">
        <ele>710</ele>
        <time>2022-06-12T07:56:52.969Z</time>
      </trkpt>
      <trkpt lat="44.25082" lon="2.53131">
        <ele>710</ele>
        <time>2022-06-12T07:56:53.969Z</time>
      </trkpt>
      <trkpt lat="44.25082" lon="2.53132">
        <ele>710</ele>
        <time>2022-06-12T07:56:54.969Z</time>
      </trkpt>
      <trkpt lat="44.25081" lon="2.53134">
        <ele>710</ele>
        <time>2022-06-12T07:56:55.969Z</time>
      </trkpt>
      <trkpt lat="44.25081" lon="2.53135">
        <ele>710</ele>
        <time>2022-06-12T07:56:56.969Z</time>
      </trkpt>
      <trkpt lat="44.2508" lon="2.53136">
        <ele>710</ele>
        <time>2022-06-12T07:56:57.969Z</time>
      </trkpt>
      <trkpt lat="44.25079" lon="2.53137">
        <ele>710</ele>
        <time>2022-06-12T07:56:58.969Z</time>
      </trkpt>
      <trkpt lat="44.25079" lon="2.53138">
        <ele>710</ele>
        <time>2022-06-12T07:56:59.969Z</time>
      </trkpt>
      <trkpt lat="44.25078" lon="2.53139">
        <ele>710</ele>
        <time>2022-06-12T07:57:00.969Z</time>
      </trkpt>
      <trkpt lat="44.25078" lon="2.53141">
        <ele>710</ele>
        <time>2022-06-12T07:57:01.969Z</time>
      </trkpt>
      <trkpt lat="44.25077" lon="2.53142">
        <ele>710</ele>
        <time>2022-06-12T07:57:02.969Z</time>
      </trkpt>
      <trkpt lat="44.25076" lon="2.53143">
        <ele>710</ele>
        <time>2022-06-12T07:57:03.969Z</time>
      </trkpt>
      <trkpt lat="44.25076" lon="2.53143">
        <ele>710</ele>
        <time>2022-06-12T07:57:04.969Z</time>
      </trkpt>
      <trkpt lat="44.25075" lon="2.53144">
        <ele>710</ele>
        <time>2022-06-12T07:57:05.969Z</time>
      </trkpt>
      <trkpt lat="44.25074" lon="2.53145">
        <ele>710</ele>
        <time>2022-06-12T07:57:06.969Z</time>
      </trkpt>
      <trkpt lat="44.25074" lon="2.53147">
        <ele>710</ele>
        <time>2022-06-12T07:57:07.969Z</time>
      </trkpt>
      <trkpt lat="44.25073" lon="2.53148">
        <ele>710</ele>
        <time>2022-06-12T07:57:08.969Z</time>
      </trkpt>
      <trkpt lat="44.25072" lon="2.53149">
        <ele>710</ele>
        <time>2022-06-12T07:57:09.969Z</time>
      </trkpt>
      <trkpt lat="44.25072" lon="2.53151">
        <ele>710</ele>
        <time>2022-06-12T07:57:10.969Z</time>
      </trkpt>
      <trkpt lat="44.25071" lon="2.53152">
        <ele>710</ele>
        <time>2022-06-12T07:57:11.969Z</time>
      </trkpt>
      <trkpt lat="44.25071" lon="2.53154">
        <ele>710</ele>
        <time>2022-06-12T07:57:12.969Z</time>
      </trkpt>
      <trkpt lat="44.2507" lon="2.53155">
        <ele>710</ele>
        <time>2022-06-12T07:57:13.969Z</time>
      </trkpt>
      <trkpt lat="44.25069" lon="2.53157">
        <ele>710</ele>
        <time>2022-06-12T07:57:14.969Z</time>
      </trkpt>
      <trkpt lat="44.25069" lon="2.53159">
        <ele>710</ele>
        <time>2022-06-12T07:57:15.969Z</time>
      </trkpt>
      <trkpt lat="44.25068" lon="2.5316">
        <ele>710</ele>
        <time>2022-06-12T07:57:16.969Z</time>
      </trkpt>
      <trkpt lat="44.25067" lon="2.53162">
        <ele>710</ele>
        <time>2022-06-12T07:57:17.969Z</time>
      </trkpt>
      <trkpt lat="44.25067" lon="2.53164">
        <ele>710</ele>
        <time>2022-06-12T07:57:18.969Z</time>
      </trkpt>
      <trkpt lat="44.25066" lon="2.53165">
        <ele>710</ele>
        <time>2022-06-12T07:57:19.969Z</time>
      </trkpt>
      <trkpt lat="44.25066" lon="2.53167">
        <ele>710</ele>
        <time>2022-06-12T07:57:20.969Z</time>
      </trkpt>
      <trkpt lat="44.25065" lon="2.53169">
        <ele>710</ele>
        <time>2022-06-12T07:57:21.969Z</time>
      </trkpt>
      <trkpt lat="44.25064" lon="2.5317">
        <ele>711</ele>
        <time>2022-06-12T07:57:22.969Z</time>
      </trkpt>
      <trkpt lat="44.25064" lon="2.53172">
        <ele>711</ele>
        <time>2022-06-12T07:57:23.969Z</time>
      </trkpt>
      <trkpt lat="44.25063" lon="2.53173">
        <ele>711</ele>
        <time>2022-06-12T07:57:24.969Z</time>
      </trkpt>
      <trkpt lat="44.25062" lon="2.53175">
        <ele>711</ele>
        <time>2022-06-12T07:57:25.969Z</time>
      </trkpt>
      <trkpt lat="44.25062" lon="2.53176">
        <ele>711</ele>
        <time>2022-06-12T07:57:26.969Z</time>
      </trkpt>
      <trkpt lat="44.25061" lon="2.53178">
        <ele>711</ele>
        <time>2022-06-12T07:57:27.969Z</time>
      </trkpt>
      <trkpt lat="44.2506" lon="2.53179">
        <ele>711</ele>
        <time>2022-06-12T07:57:28.969Z</time>
      </trkpt>
      <trkpt lat="44.2506" lon="2.53181">
        <ele>711</ele>
        <time>2022-06-12T07:57:29.969Z</time>
      </trkpt>
      <trkpt lat="44.25059" lon="2.53182">
        <ele>711</ele>
        <time>2022-06-12T07:57:30.969Z</time>
      </trkpt>
      <trkpt lat="44.25059" lon="2.53183">
        <ele>711</ele>
        <time>2022-06-12T07:57:31.969Z</time>
      </trkpt>
      <trkpt lat="44.25058" lon="2.53184">
        <ele>711</ele>
        <time>2022-06-12T07:57:32.969Z</time>
      </trkpt>
      <trkpt lat="44.25057" lon="2.53186">
        <ele>711</ele>
        <time>2022-06-12T07:57:33.969Z</time>
      </trkpt>
      <trkpt lat="44.25057" lon="2.53187">
        <ele>711</ele>
        <time>2022-06-12T07:57:34.969Z</time>
      </trkpt>
      <trkpt lat="44.25056" lon="2.53189">
        <ele>711</ele>
        <time>2022-06-12T07:57:35.969Z</time>
      </trkpt>
      <trkpt lat="44.25055" lon="2.5319">
        <ele>711</ele>
        <time>2022-06-12T07:57:36.969Z</time>
      </trkpt>
      <trkpt lat="44.25054" lon="2.53191">
        <ele>711</ele>
        <time>2022-06-12T07:57:37.969Z</time>
      </trkpt>
      <trkpt lat="44.25054" lon="2.53193">
        <ele>711</ele>
        <time>2022-06-12T07:57:38.969Z</time>
      </trkpt>
      <trkpt lat="44.25053" lon="2.53194">
        <ele>711</ele>
        <time>2022-06-12T07:57:39.969Z</time>
      </trkpt>
      <trkpt lat="44.25052" lon="2.53195">
        <ele>711</ele>
        <time>2022-06-12T07:57:40.969Z</time>
      </trkpt>
      <trkpt lat="44.25052" lon="2.53196">
        <ele>711</ele>
        <time>2022-06-12T07:57:41.969Z</time>
      </trkpt>
      <trkpt lat="44.25051" lon="2.53197">
        <ele>711</ele>
        <time>2022-06-12T07:57:42.969Z</time>
      </trkpt>
      <trkpt lat="44.2505" lon="2.53199">
        <ele>711</ele>
        <time>2022-06-12T07:57:43.969Z</time>
      </trkpt>
      <trkpt lat="44.2505" lon="2.532">
        <ele>711</ele>
        <time>2022-06-12T07:57:44.969Z</time>
      </trkpt>
      <trkpt lat="44.25049" lon="2.53201">
        <ele>711</ele>
        <time>2022-06-12T07:57:45.969Z</time>
      </trkpt>
      <trkpt lat="44.25048" lon="2.53203">
        <ele>711</ele>
        <time>2022-06-12T07:57:46.969Z</time>
      </trkpt>
      <trkpt lat="44.25048" lon="2.53204">
        <ele>710</ele>
        <time>2022-06-12T07:57:47.969Z</time>
      </trkpt>
      <trkpt lat="44.25047" lon="2.53205">
        <ele>710</ele>
        <time>2022-06-12T07:57:48.969Z</time>
      </trkpt>
      <trkpt lat="44.25046" lon="2.53206">
        <ele>710</ele>
        <time>2022-06-12T07:57:49.969Z</time>
      </trkpt>
      <trkpt lat="44.25046" lon="2.53207">
        <ele>710</ele>
        <time>2022-06-12T07:57:50.969Z</time>
      </trkpt>
      <trkpt lat="44.25045" lon="2.53209">
        <ele>710</ele>
        <time>2022-06-12T07:57:51.969Z</time>
      </trkpt>
      <trkpt lat="44.25044" lon="2.5321">
        <ele>710</ele>
        <time>2022-06-12T07:57:52.969Z</time>
      </trkpt>
      <trkpt lat="44.25044" lon="2.53211">
        <ele>710</ele>
        <time>2022-06-12T07:57:53.969Z</time>
      </trkpt>
      <trkpt lat="44.25043" lon="2.53212">
        <ele>710</ele>
        <time>2022-06-12T07:57:54.969Z</time>
      </trkpt>
      <trkpt lat="44.25043" lon="2.53213">
        <ele>710</ele>
        <time>2022-06-12T07:57:55.969Z</time>
      </trkpt>
      <trkpt lat="44.25042" lon="2.53214">
        <ele>710</ele>
        <time>2022-06-12T07:57:56.969Z</time>
      </trkpt>
      <trkpt lat="44.25041" lon="2.53216">
        <ele>710</ele>
        <time>2022-06-12T07:57:57.969Z</time>
      </trkpt>
      <trkpt lat="44.25041" lon="2.53217">
        <ele>710</ele>
        <time>2022-06-12T07:57:58.969Z</time>
      </trkpt>
      <trkpt lat="44.2504" lon="2.53218">
        <ele>710</ele>
        <time>2022-06-12T07:57:59.969Z</time>
      </trkpt>
      <trkpt lat="44.25039" lon="2.53219">
        <ele>710</ele>
        <time>2022-06-12T07:58:00.969Z</time>
      </trkpt>
      <trkpt lat="44.25038" lon="2.5322">
        <ele>710</ele>
        <time>2022-06-12T07:58:01.969Z</time>
      </trkpt>
      <trkpt lat="44.25038" lon="2.53221">
        <ele>710</ele>
        <time>2022-06-12T07:58:02.969Z</time>
      </trkpt>
      <trkpt lat="44.25037" lon="2.53222">
        <ele>710</ele>
        <time>2022-06-12T07:58:03.969Z</time>
      </trkpt>
      <trkpt lat="44.25036" lon="2.53223">
        <ele>710</ele>
        <time>2022-06-12T07:58:04.969Z</time>
      </trkpt>
      <trkpt lat="44.25036" lon="2.53225">
        <ele>710</ele>
        <time>2022-06-12T07:58:05.969Z</time>
      </trkpt>
      <trkpt lat="44.25035" lon="2.53225">
        <ele>710</ele>
        <time>2022-06-12T07:58:06.969Z</time>
      </trkpt>
      <trkpt lat="44.25035" lon="2.53226">
        <ele>710</ele>
        <time>2022-06-12T07:58:07.969Z</time>
      </trkpt>
      <trkpt lat="44.25034" lon="2.53227">
        <ele>710</ele>
        <time>2022-06-12T07:58:08.969Z</time>
      </trkpt>
      <trkpt lat="44.25034" lon="2.53228">
        <ele>710</ele>
        <time>2022-06-12T07:58:09.969Z</time>
      </trkpt>
      <trkpt lat="44.25033" lon="2.53229">
        <ele>710</ele>
        <time>2022-06-12T07:58:10.969Z</time>
      </trkpt>
      <trkpt lat="44.25032" lon="2.53231">
        <ele>710</ele>
        <time>2022-06-12T07:58:11.969Z</time>
      </trkpt>
      <trkpt lat="44.25032" lon="2.53232">
        <ele>710</ele>
        <time>2022-06-12T07:58:12.969Z</time>
      </trkpt>
      <trkpt lat="44.25031" lon="2.53233">
        <ele>710</ele>
        <time>2022-06-12T07:58:13.969Z</time>
      </trkpt>
      <trkpt lat="44.2503" lon="2.53234">
        <ele>710</ele>
        <time>2022-06-12T07:58:14.969Z</time>
      </trkpt>
      <trkpt lat="44.2503" lon="2.53236">
        <ele>710</ele>
        <time>2022-06-12T07:58:15.969Z</time>
      </trkpt>
      <trkpt lat="44.25029" lon="2.53237">
        <ele>710</ele>
        <time>2022-06-12T07:58:16.969Z</time>
      </trkpt>
      <trkpt lat="44.25028" lon="2.53238">
        <ele>710</ele>
        <time>2022-06-12T07:58:17.969Z</time>
      </trkpt>
      <trkpt lat="44.25027" lon="2.53239">
        <ele>710</ele>
        <time>2022-06-12T07:58:18.969Z</time>
      </trkpt>
      <trkpt lat="44.25026" lon="2.5324">
        <ele>710</ele>
        <time>2022-06-12T07:58:19.969Z</time>
      </trkpt>
      <trkpt lat="44.25025" lon="2.53242">
        <ele>710</ele>
        <time>2022-06-12T07:58:20.969Z</time>
      </trkpt>
      <trkpt lat="44.25024" lon="2.53243">
        <ele>710</ele>
        <time>2022-06-12T07:58:21.969Z</time>
      </trkpt>
      <trkpt lat="44.25023" lon="2.53244">
        <ele>710</ele>
        <time>2022-06-12T07:58:22.969Z</time>
      </trkpt>
      <trkpt lat="44.25022" lon="2.53245">
        <ele>710</ele>
        <time>2022-06-12T07:58:23.969Z</time>
      </trkpt>
      <trkpt lat="44.25022" lon="2.53246">
        <ele>710</ele>
        <time>2022-06-12T07:58:24.969Z</time>
      </trkpt>
      <trkpt lat="44.25021" lon="2.53248">
        <ele>710</ele>
        <time>2022-06-12T07:58:25.969Z</time>
      </trkpt>
      <trkpt lat="44.2502" lon="2.53249">
        <ele>710</ele>
        <time>2022-06-12T07:58:26.969Z</time>
      </trkpt>
      <trkpt lat="44.25019" lon="2.5325">
        <ele>709</ele>
        <time>2022-06-12T07:58:27.969Z</time>
      </trkpt>
      <trkpt lat="44.25018" lon="2.53251">
        <ele>709</ele>
        <time>2022-06-12T07:58:28.969Z</time>
      </trkpt>
      <trkpt lat="44.25018" lon="2.53252">
        <ele>709</ele>
        <time>2022-06-12T07:58:29.969Z</time>
      </trkpt>
      <trkpt lat="44.25017" lon="2.53253">
        <ele>709</ele>
        <time>2022-06-12T07:58:30.969Z</time>
      </trkpt>
      <trkpt lat="44.25016" lon="2.53255">
        <ele>709</ele>
        <time>2022-06-12T07:58:31.969Z</time>
      </trkpt>
      <trkpt lat="44.25015" lon="2.53256">
        <ele>709</ele>
        <time>2022-06-12T07:58:32.969Z</time>
      </trkpt>
      <trkpt lat="44.25015" lon="2.53257">
        <ele>709</ele>
        <time>2022-06-12T07:58:33.969Z</time>
      </trkpt>
      <trkpt lat="44.25014" lon="2.53258">
        <ele>709</ele>
        <time>2022-06-12T07:58:34.969Z</time>
      </trkpt>
      <trkpt lat="44.25013" lon="2.53259">
        <ele>709</ele>
        <time>2022-06-12T07:58:35.969Z</time>
      </trkpt>
      <trkpt lat="44.25012" lon="2.53261">
        <ele>709</ele>
        <time>2022-06-12T07:58:36.969Z</time>
      </trkpt>
      <trkpt lat="44.25012" lon="2.53262">
        <ele>709</ele>
        <time>2022-06-12T07:58:37.969Z</time>
      </trkpt>
      <trkpt lat="44.25011" lon="2.53263">
        <ele>709</ele>
        <time>2022-06-12T07:58:38.969Z</time>
      </trkpt>
      <trkpt lat="44.2501" lon="2.53264">
        <ele>709</ele>
        <time>2022-06-12T07:58:39.969Z</time>
      </trkpt>
      <trkpt lat="44.25009" lon="2.53265">
        <ele>709</ele>
        <time>2022-06-12T07:58:40.969Z</time>
      </trkpt>
      <trkpt lat="44.25008" lon="2.53266">
        <ele>709</ele>
        <time>2022-06-12T07:58:41.969Z</time>
      </trkpt>
      <trkpt lat="44.25008" lon="2.53268">
        <ele>709</ele>
        <time>2022-06-12T07:58:42.969Z</time>
      </trkpt>
      <trkpt lat="44.25007" lon="2.53269">
        <ele>709</ele>
        <time>2022-06-12T07:58:43.969Z</time>
      </trkpt>
      <trkpt lat="44.25006" lon="2.5327">
        <ele>709</ele>
        <time>2022-06-12T07:58:44.969Z</time>
      </trkpt>
      <trkpt lat="44.25006" lon="2.53272">
        <ele>709</ele>
        <time>2022-06-12T07:58:45.969Z</time>
      </trkpt>
      <trkpt lat="44.25005" lon="2.53273">
        <ele>709</ele>
        <time>2022-06-12T07:58:46.969Z</time>
      </trkpt>
      <trkpt lat="44.25004" lon="2.53274">
        <ele>709</ele>
        <time>2022-06-12T07:58:47.969Z</time>
      </trkpt>
      <trkpt lat="44.25004" lon="2.53276">
        <ele>709</ele>
        <time>2022-06-12T07:58:48.969Z</time>
      </trkpt>
      <trkpt lat="44.25003" lon="2.53277">
        <ele>709</ele>
        <time>2022-06-12T07:58:49.969Z</time>
      </trkpt>
      <trkpt lat="44.25002" lon="2.53279">
        <ele>709</ele>
        <time>2022-06-12T07:58:50.969Z</time>
      </trkpt>
      <trkpt lat="44.25002" lon="2.5328">
        <ele>709</ele>
        <time>2022-06-12T07:58:51.969Z</time>
      </trkpt>
      <trkpt lat="44.25001" lon="2.53282">
        <ele>709</ele>
        <time>2022-06-12T07:58:52.969Z</time>
      </trkpt>
      <trkpt lat="44.25" lon="2.53283">
        <ele>708</ele>
        <time>2022-06-12T07:58:53.969Z</time>
      </trkpt>
      <trkpt lat="44.24999" lon="2.53284">
        <ele>708</ele>
        <time>2022-06-12T07:58:54.969Z</time>
      </trkpt>
      <trkpt lat="44.24998" lon="2.53285">
        <ele>708</ele>
        <time>2022-06-12T07:58:55.969Z</time>
      </trkpt>
      <trkpt lat="44.24997" lon="2.53287">
        <ele>708</ele>
        <time>2022-06-12T07:58:56.969Z</time>
      </trkpt>
      <trkpt lat="44.24997" lon="2.53288">
        <ele>708</ele>
        <time>2022-06-12T07:58:57.969Z</time>
      </trkpt>
      <trkpt lat="44.24996" lon="2.53289">
        <ele>708</ele>
        <time>2022-06-12T07:58:58.969Z</time>
      </trkpt>
      <trkpt lat="44.24995" lon="2.53291">
        <ele>708</ele>
        <time>2022-06-12T07:58:59.969Z</time>
      </trkpt>
      <trkpt lat="44.24995" lon="2.53292">
        <ele>708</ele>
        <time>2022-06-12T07:59:00.969Z</time>
      </trkpt>
      <trkpt lat="44.24994" lon="2.53293">
        <ele>708</ele>
        <time>2022-06-12T07:59:01.969Z</time>
      </trkpt>
      <trkpt lat="44.24993" lon="2.53295">
        <ele>708</ele>
        <time>2022-06-12T07:59:02.969Z</time>
      </trkpt>
      <trkpt lat="44.24992" lon="2.53296">
        <ele>708</ele>
        <time>2022-06-12T07:59:03.969Z</time>
      </trkpt>
      <trkpt lat="44.24991" lon="2.53297">
        <ele>708</ele>
        <time>2022-06-12T07:59:04.969Z</time>
      </trkpt>
      <trkpt lat="44.2499" lon="2.53299">
        <ele>708</ele>
        <time>2022-06-12T07:59:05.969Z</time>
      </trkpt>
      <trkpt lat="44.2499" lon="2.533">
        <ele>708</ele>
        <time>2022-06-12T07:59:06.969Z</time>
      </trkpt>
      <trkpt lat="44.24989" lon="2.53301">
        <ele>707</ele>
        <time>2022-06-12T07:59:07.969Z</time>
      </trkpt>
      <trkpt lat="44.24988" lon="2.53303">
        <ele>707</ele>
        <time>2022-06-12T07:59:08.969Z</time>
      </trkpt>
      <trkpt lat="44.24987" lon="2.53304">
        <ele>707</ele>
        <time>2022-06-12T07:59:09.969Z</time>
      </trkpt>
      <trkpt lat="44.24986" lon="2.53305">
        <ele>707</ele>
        <time>2022-06-12T07:59:10.969Z</time>
      </trkpt>
      <trkpt lat="44.24985" lon="2.53306">
        <ele>707</ele>
        <time>2022-06-12T07:59:11.969Z</time>
      </trkpt>
      <trkpt lat="44.24985" lon="2.53308">
        <ele>707</ele>
        <time>2022-06-12T07:59:12.969Z</time>
      </trkpt>
      <trkpt lat="44.24984" lon="2.53309">
        <ele>707</ele>
        <time>2022-06-12T07:59:13.969Z</time>
      </trkpt>
      <trkpt lat="44.24983" lon="2.5331">
        <ele>707</ele>
        <time>2022-06-12T07:59:14.969Z</time>
      </trkpt>
      <trkpt lat="44.24983" lon="2.53311">
        <ele>707</ele>
        <time>2022-06-12T07:59:15.969Z</time>
      </trkpt>
      <trkpt lat="44.24982" lon="2.53313">
        <ele>707</ele>
        <time>2022-06-12T07:59:16.969Z</time>
      </trkpt>
      <trkpt lat="44.24981" lon="2.53314">
        <ele>707</ele>
        <time>2022-06-12T07:59:17.969Z</time>
      </trkpt>
      <trkpt lat="44.2498" lon="2.53316">
        <ele>706</ele>
        <time>2022-06-12T07:59:18.969Z</time>
      </trkpt>
      <trkpt lat="44.24979" lon="2.53317">
        <ele>706</ele>
        <time>2022-06-12T07:59:19.969Z</time>
      </trkpt>
      <trkpt lat="44.24978" lon="2.53319">
        <ele>706</ele>
        <time>2022-06-12T07:59:20.969Z</time>
      </trkpt>
      <trkpt lat="44.24978" lon="2.5332">
        <ele>706</ele>
        <time>2022-06-12T07:59:21.969Z</time>
      </trkpt>
      <trkpt lat="44.24977" lon="2.53321">
        <ele>706</ele>
        <time>2022-06-12T07:59:22.969Z</time>
      </trkpt>
      <trkpt lat="44.24977" lon="2.53322">
        <ele>706</ele>
        <time>2022-06-12T07:59:23.969Z</time>
      </trkpt>
      <trkpt lat="44.24976" lon="2.53323">
        <ele>706</ele>
        <time>2022-06-12T07:59:24.969Z</time>
      </trkpt>
      <trkpt lat="44.24975" lon="2.53325">
        <ele>706</ele>
        <time>2022-06-12T07:59:25.969Z</time>
      </trkpt>
      <trkpt lat="44.24975" lon="2.53326">
        <ele>706</ele>
        <time>2022-06-12T07:59:26.969Z</time>
      </trkpt>
      <trkpt lat="44.24974" lon="2.53327">
        <ele>706</ele>
        <time>2022-06-12T07:59:27.969Z</time>
      </trkpt>
      <trkpt lat="44.24973" lon="2.53328">
        <ele>706</ele>
        <time>2022-06-12T07:59:28.969Z</time>
      </trkpt>
      <trkpt lat="44.24973" lon="2.5333">
        <ele>706</ele>
        <time>2022-06-12T07:59:29.969Z</time>
      </trkpt>
      <trkpt lat="44.24972" lon="2.53331">
        <ele>706</ele>
        <time>2022-06-12T07:59:30.969Z</time>
      </trkpt>
      <trkpt lat="44.24972" lon="2.53332">
        <ele>706</ele>
        <time>2022-06-12T07:59:31.969Z</time>
      </trkpt>
      <trkpt lat="44.24971" lon="2.53334">
        <ele>706</ele>
        <time>2022-06-12T07:59:32.969Z</time>
      </trkpt>
      <trkpt lat="44.2497" lon="2.53335">
        <ele>705</ele>
        <time>2022-06-12T07:59:33.969Z</time>
      </trkpt>
      <trkpt lat="44.2497" lon="2.53336">
        <ele>705</ele>
        <time>2022-06-12T07:59:34.969Z</time>
      </trkpt>
      <trkpt lat="44.24969" lon="2.53337">
        <ele>705</ele>
        <time>2022-06-12T07:59:35.969Z</time>
      </trkpt>
      <trkpt lat="44.24968" lon="2.53338">
        <ele>705</ele>
        <time>2022-06-12T07:59:36.969Z</time>
      </trkpt>
      <trkpt lat="44.24968" lon="2.53339">
        <ele>705</ele>
        <time>2022-06-12T07:59:37.969Z</time>
      </trkpt>
      <trkpt lat="44.24967" lon="2.53341">
        <ele>705</ele>
        <time>2022-06-12T07:59:38.969Z</time>
      </trkpt>
      <trkpt lat="44.24967" lon="2.53342">
        <ele>705</ele>
        <time>2022-06-12T07:59:39.969Z</time>
      </trkpt>
      <trkpt lat="44.24966" lon="2.53344">
        <ele>705</ele>
        <time>2022-06-12T07:59:40.969Z</time>
      </trkpt>
      <trkpt lat="44.24965" lon="2.53345">
        <ele>705</ele>
        <time>2022-06-12T07:59:41.969Z</time>
      </trkpt>
      <trkpt lat="44.24964" lon="2.53347">
        <ele>704</ele>
        <time>2022-06-12T07:59:42.969Z</time>
      </trkpt>
      <trkpt lat="44.24964" lon="2.53348">
        <ele>704</ele>
        <time>2022-06-12T07:59:43.969Z</time>
      </trkpt>
      <trkpt lat="44.24963" lon="2.53349">
        <ele>704</ele>
        <time>2022-06-12T07:59:44.969Z</time>
      </trkpt>
      <trkpt lat="44.24962" lon="2.5335">
        <ele>704</ele>
        <time>2022-06-12T07:59:45.969Z</time>
      </trkpt>
      <trkpt lat="44.24961" lon="2.53352">
        <ele>704</ele>
        <time>2022-06-12T07:59:46.969Z</time>
      </trkpt>
      <trkpt lat="44.24961" lon="2.53353">
        <ele>704</ele>
        <time>2022-06-12T07:59:47.969Z</time>
      </trkpt>
      <trkpt lat="44.2496" lon="2.53355">
        <ele>704</ele>
        <time>2022-06-12T07:59:48.969Z</time>
      </trkpt>
      <trkpt lat="44.24959" lon="2.53356">
        <ele>704</ele>
        <time>2022-06-12T07:59:49.969Z</time>
      </trkpt>
      <trkpt lat="44.24958" lon="2.53357">
        <ele>704</ele>
        <time>2022-06-12T07:59:50.969Z</time>
      </trkpt>
      <trkpt lat="44.24957" lon="2.53358">
        <ele>704</ele>
        <time>2022-06-12T07:59:51.969Z</time>
      </trkpt>
      <trkpt lat="44.24957" lon="2.53359">
        <ele>704</ele>
        <time>2022-06-12T07:59:52.969Z</time>
      </trkpt>
      <trkpt lat="44.24956" lon="2.53361">
        <ele>704</ele>
        <time>2022-06-12T07:59:53.969Z</time>
      </trkpt>
      <trkpt lat="44.24955" lon="2.53362">
        <ele>704</ele>
        <time>2022-06-12T07:59:54.969Z</time>
      </trkpt>
      <trkpt lat="44.24954" lon="2.53364">
        <ele>704</ele>
        <time>2022-06-12T07:59:55.969Z</time>
      </trkpt>
      <trkpt lat="44.24953" lon="2.53365">
        <ele>704</ele>
        <time>2022-06-12T07:59:56.969Z</time>
      </trkpt>
      <trkpt lat="44.24953" lon="2.53366">
        <ele>704</ele>
        <time>2022-06-12T07:59:57.969Z</time>
      </trkpt>
      <trkpt lat="44.24952" lon="2.53368">
        <ele>704</ele>
        <time>2022-06-12T07:59:58.969Z</time>
      </trkpt>
      <trkpt lat="44.24951" lon="2.53369">
        <ele>704</ele>
        <time>2022-06-12T07:59:59.969Z</time>
      </trkpt>
      <trkpt lat="44.2495" lon="2.5337">
        <ele>704</ele>
        <time>2022-06-12T08:00:00.969Z</time>
      </trkpt>
      <trkpt lat="44.24949" lon="2.53372">
        <ele>704</ele>
        <time>2022-06-12T08:00:01.969Z</time>
      </trkpt>
      <trkpt lat="44.24948" lon="2.53373">
        <ele>704</ele>
        <time>2022-06-12T08:00:02.969Z</time>
      </trkpt>
      <trkpt lat="44.24948" lon="2.53374">
        <ele>704</ele>
        <time>2022-06-12T08:00:03.969Z</time>
      </trkpt>
      <trkpt lat="44.24947" lon="2.53375">
        <ele>704</ele>
        <time>2022-06-12T08:00:04.969Z</time>
      </trkpt>
      <trkpt lat="44.24946" lon="2.53376">
        <ele>704</ele>
        <time>2022-06-12T08:00:05.969Z</time>
      </trkpt>
      <trkpt lat="44.24945" lon="2.53378">
        <ele>704</ele>
        <time>2022-06-12T08:00:06.969Z</time>
      </trkpt>
      <trkpt lat="44.24944" lon="2.53379">
        <ele>704</ele>
        <time>2022-06-12T08:00:07.969Z</time>
      </trkpt>
      <trkpt lat="44.24943" lon="2.5338">
        <ele>704</ele>
        <time>2022-06-12T08:00:08.969Z</time>
      </trkpt>
      <trkpt lat="44.24942" lon="2.53382">
        <ele>704</ele>
        <time>2022-06-12T08:00:09.969Z</time>
      </trkpt>
      <trkpt lat="44.24942" lon="2.53383">
        <ele>704</ele>
        <time>2022-06-12T08:00:10.969Z</time>
      </trkpt>
      <trkpt lat="44.24941" lon="2.53384">
        <ele>704</ele>
        <time>2022-06-12T08:00:11.969Z</time>
      </trkpt>
      <trkpt lat="44.2494" lon="2.53385">
        <ele>704</ele>
        <time>2022-06-12T08:00:12.969Z</time>
      </trkpt>
      <trkpt lat="44.24939" lon="2.53386">
        <ele>704</ele>
        <time>2022-06-12T08:00:13.969Z</time>
      </trkpt>
      <trkpt lat="44.24939" lon="2.53387">
        <ele>704</ele>
        <time>2022-06-12T08:00:14.969Z</time>
      </trkpt>
      <trkpt lat="44.24938" lon="2.53388">
        <ele>704</ele>
        <time>2022-06-12T08:00:15.969Z</time>
      </trkpt>
      <trkpt lat="44.24937" lon="2.53389">
        <ele>704</ele>
        <time>2022-06-12T08:00:16.969Z</time>
      </trkpt>
      <trkpt lat="44.24937" lon="2.5339">
        <ele>704</ele>
        <time>2022-06-12T08:00:17.969Z</time>
      </trkpt>
      <trkpt lat="44.24936" lon="2.53392">
        <ele>704</ele>
        <time>2022-06-12T08:00:18.969Z</time>
      </trkpt>
      <trkpt lat="44.24935" lon="2.53393">
        <ele>704</ele>
        <time>2022-06-12T08:00:19.969Z</time>
      </trkpt>
      <trkpt lat="44.24935" lon="2.53394">
        <ele>704</ele>
        <time>2022-06-12T08:00:20.969Z</time>
      </trkpt>
      <trkpt lat="44.24934" lon="2.53395">
        <ele>704</ele>
        <time>2022-06-12T08:00:21.969Z</time>
      </trkpt>
      <trkpt lat="44.24933" lon="2.53397">
        <ele>704</ele>
        <time>2022-06-12T08:00:22.969Z</time>
      </trkpt>
      <trkpt lat="44.24933" lon="2.53398">
        <ele>705</ele>
        <time>2022-06-12T08:00:23.969Z</time>
      </trkpt>
      <trkpt lat="44.24932" lon="2.53399">
        <ele>705</ele>
        <time>2022-06-12T08:00:24.969Z</time>
      </trkpt>
      <trkpt lat="44.24932" lon="2.53401">
        <ele>705</ele>
        <time>2022-06-12T08:00:25.969Z</time>
      </trkpt>
      <trkpt lat="44.24931" lon="2.53402">
        <ele>705</ele>
        <time>2022-06-12T08:00:26.969Z</time>
      </trkpt>
      <trkpt lat="44.2493" lon="2.53403">
        <ele>705</ele>
        <time>2022-06-12T08:00:27.969Z</time>
      </trkpt>
      <trkpt lat="44.2493" lon="2.53404">
        <ele>705</ele>
        <time>2022-06-12T08:00:28.969Z</time>
      </trkpt>
      <trkpt lat="44.24929" lon="2.53406">
        <ele>705</ele>
        <time>2022-06-12T08:00:29.969Z</time>
      </trkpt>
      <trkpt lat="44.24929" lon="2.53407">
        <ele>705</ele>
        <time>2022-06-12T08:00:30.969Z</time>
      </trkpt>
      <trkpt lat="44.24929" lon="2.53408">
        <ele>706</ele>
        <time>2022-06-12T08:00:31.969Z</time>
      </trkpt>
      <trkpt lat="44.24928" lon="2.5341">
        <ele>706</ele>
        <time>2022-06-12T08:00:32.969Z</time>
      </trkpt>
      <trkpt lat="44.24928" lon="2.53411">
        <ele>706</ele>
        <time>2022-06-12T08:00:33.969Z</time>
      </trkpt>
      <trkpt lat="44.24927" lon="2.53413">
        <ele>706</ele>
        <time>2022-06-12T08:00:34.969Z</time>
      </trkpt>
      <trkpt lat="44.24927" lon="2.53414">
        <ele>706</ele>
        <time>2022-06-12T08:00:35.969Z</time>
      </trkpt>
      <trkpt lat="44.24926" lon="2.53415">
        <ele>706</ele>
        <time>2022-06-12T08:00:36.969Z</time>
      </trkpt>
      <trkpt lat="44.24926" lon="2.53416">
        <ele>706</ele>
        <time>2022-06-12T08:00:37.969Z</time>
      </trkpt>
      <trkpt lat="44.24925" lon="2.53417">
        <ele>706</ele>
        <time>2022-06-12T08:00:38.969Z</time>
      </trkpt>
      <trkpt lat="44.24925" lon="2.53418">
        <ele>707</ele>
        <time>2022-06-12T08:00:39.969Z</time>
      </trkpt>
      <trkpt lat="44.24925" lon="2.5342">
        <ele>707</ele>
        <time>2022-06-12T08:00:40.969Z</time>
      </trkpt>
      <trkpt lat="44.24924" lon="2.53421">
        <ele>707</ele>
        <time>2022-06-12T08:00:41.969Z</time>
      </trkpt>
      <trkpt lat="44.24924" lon="2.53422">
        <ele>707</ele>
        <time>2022-06-12T08:00:42.969Z</time>
      </trkpt>
      <trkpt lat="44.24924" lon="2.53423">
        <ele>707</ele>
        <time>2022-06-12T08:00:43.969Z</time>
      </trkpt>
      <trkpt lat="44.24923" lon="2.53424">
        <ele>708</ele>
        <time>2022-06-12T08:00:44.969Z</time>
      </trkpt>
      <trkpt lat="44.24922" lon="2.53426">
        <ele>708</ele>
        <time>2022-06-12T08:00:45.969Z</time>
      </trkpt>
      <trkpt lat="44.24922" lon="2.53427">
        <ele>708</ele>
        <time>2022-06-12T08:00:46.969Z</time>
      </trkpt>
      <trkpt lat="44.24921" lon="2.53428">
        <ele>708</ele>
        <time>2022-06-12T08:00:47.969Z</time>
      </trkpt>
      <trkpt lat="44.2492" lon="2.53429">
        <ele>708</ele>
        <time>2022-06-12T08:00:48.969Z</time>
      </trkpt>
      <trkpt lat="44.2492" lon="2.5343">
        <ele>708</ele>
        <time>2022-06-12T08:00:49.969Z</time>
      </trkpt>
      <trkpt lat="44.24919" lon="2.53431">
        <ele>709</ele>
        <time>2022-06-12T08:00:50.969Z</time>
      </trkpt>
      <trkpt lat="44.24918" lon="2.53432">
        <ele>709</ele>
        <time>2022-06-12T08:00:51.969Z</time>
      </trkpt>
      <trkpt lat="44.24918" lon="2.53433">
        <ele>709</ele>
        <time>2022-06-12T08:00:52.969Z</time>
      </trkpt>
      <trkpt lat="44.24917" lon="2.53434">
        <ele>709</ele>
        <time>2022-06-12T08:00:53.969Z</time>
      </trkpt>
      <trkpt lat="44.24916" lon="2.53435">
        <ele>709</ele>
        <time>2022-06-12T08:00:54.969Z</time>
      </trkpt>
      <trkpt lat="44.24916" lon="2.53436">
        <ele>709</ele>
        <time>2022-06-12T08:00:55.969Z</time>
      </trkpt>
      <trkpt lat="44.24915" lon="2.53437">
        <ele>709</ele>
        <time>2022-06-12T08:00:56.969Z</time>
      </trkpt>
      <trkpt lat="44.24914" lon="2.53438">
        <ele>709</ele>
        <time>2022-06-12T08:00:57.969Z</time>
      </trkpt>
      <trkpt lat="44.24914" lon="2.53439">
        <ele>709</ele>
        <time>2022-06-12T08:00:58.969Z</time>
      </trkpt>
      <trkpt lat="44.24913" lon="2.53441">
        <ele>709</ele>
        <time>2022-06-12T08:00:59.969Z</time>
      </trkpt>
      <trkpt lat="44.24912" lon="2.53442">
        <ele>709</ele>
        <time>2022-06-12T08:01:00.969Z</time>
      </trkpt>
      <trkpt lat="44.24911" lon="2.53443">
        <ele>709</ele>
        <time>2022-06-12T08:01:01.969Z</time>
      </trkpt>
      <trkpt lat="44.24911" lon="2.53444">
        <ele>710</ele>
        <time>2022-06-12T08:01:02.969Z</time>
      </trkpt>
      <trkpt lat="44.2491" lon="2.53445">
        <ele>710</ele>
        <time>2022-06-12T08:01:03.969Z</time>
      </trkpt>
      <trkpt lat="44.2491" lon="2.53447">
        <ele>710</ele>
        <time>2022-06-12T08:01:04.969Z</time>
      </trkpt>
      <trkpt lat="44.24909" lon="2.53448">
        <ele>710</ele>
        <time>2022-06-12T08:01:05.969Z</time>
      </trkpt>
      <trkpt lat="44.24908" lon="2.53449">
        <ele>710</ele>
        <time>2022-06-12T08:01:06.969Z</time>
      </trkpt>
      <trkpt lat="44.24907" lon="2.5345">
        <ele>710</ele>
        <time>2022-06-12T08:01:07.969Z</time>
      </trkpt>
      <trkpt lat="44.24907" lon="2.53451">
        <ele>710</ele>
        <time>2022-06-12T08:01:08.969Z</time>
      </trkpt>
      <trkpt lat="44.24906" lon="2.53452">
        <ele>710</ele>
        <time>2022-06-12T08:01:09.969Z</time>
      </trkpt>
      <trkpt lat="44.24905" lon="2.53454">
        <ele>710</ele>
        <time>2022-06-12T08:01:10.969Z</time>
      </trkpt>
      <trkpt lat="44.24905" lon="2.53455">
        <ele>710</ele>
        <time>2022-06-12T08:01:11.969Z</time>
      </trkpt>
      <trkpt lat="44.24904" lon="2.53456">
        <ele>710</ele>
        <time>2022-06-12T08:01:12.969Z</time>
      </trkpt>
      <trkpt lat="44.24904" lon="2.53458">
        <ele>710</ele>
        <time>2022-06-12T08:01:13.969Z</time>
      </trkpt>
      <trkpt lat="44.24903" lon="2.53459">
        <ele>711</ele>
        <time>2022-06-12T08:01:14.969Z</time>
      </trkpt>
      <trkpt lat="44.24902" lon="2.5346">
        <ele>711</ele>
        <time>2022-06-12T08:01:15.969Z</time>
      </trkpt>
      <trkpt lat="44.24902" lon="2.53461">
        <ele>711</ele>
        <time>2022-06-12T08:01:16.969Z</time>
      </trkpt>
      <trkpt lat="44.24901" lon="2.53462">
        <ele>711</ele>
        <time>2022-06-12T08:01:17.969Z</time>
      </trkpt>
      <trkpt lat="44.249" lon="2.53463">
        <ele>711</ele>
        <time>2022-06-12T08:01:18.969Z</time>
      </trkpt>
      <trkpt lat="44.249" lon="2.53465">
        <ele>711</ele>
        <time>2022-06-12T08:01:19.969Z</time>
      </trkpt>
      <trkpt lat="44.24899" lon="2.53466">
        <ele>711</ele>
        <time>2022-06-12T08:01:20.969Z</time>
      </trkpt>
      <trkpt lat="44.24899" lon="2.53467">
        <ele>711</ele>
        <time>2022-06-12T08:01:21.969Z</time>
      </trkpt>
      <trkpt lat="44.24898" lon="2.53468">
        <ele>711</ele>
        <time>2022-06-12T08:01:22.969Z</time>
      </trkpt>
      <trkpt lat="44.24897" lon="2.53469">
        <ele>711</ele>
        <time>2022-06-12T08:01:23.969Z</time>
      </trkpt>
      <trkpt lat="44.24897" lon="2.5347">
        <ele>711</ele>
        <time>2022-06-12T08:01:24.969Z</time>
      </trkpt>
      <trkpt lat="44.24896" lon="2.53471">
        <ele>711</ele>
        <time>2022-06-12T08:01:25.969Z</time>
      </trkpt>
      <trkpt lat="44.24895" lon="2.53472">
        <ele>711</ele>
        <time>2022-06-12T08:01:26.969Z</time>
      </trkpt>
      <trkpt lat="44.24894" lon="2.53474">
        <ele>711</ele>
        <time>2022-06-12T08:01:27.969Z</time>
      </trkpt>
      <trkpt lat="44.24894" lon="2.53475">
        <ele>712</ele>
        <time>2022-06-12T08:01:28.969Z</time>
      </trkpt>
      <trkpt lat="44.24893" lon="2.53476">
        <ele>712</ele>
        <time>2022-06-12T08:01:29.969Z</time>
      </trkpt>
      <trkpt lat="44.24892" lon="2.53477">
        <ele>712</ele>
        <time>2022-06-12T08:01:30.969Z</time>
      </trkpt>
      <trkpt lat="44.24891" lon="2.53478">
        <ele>712</ele>
        <time>2022-06-12T08:01:31.969Z</time>
      </trkpt>
      <trkpt lat="44.24891" lon="2.53479">
        <ele>712</ele>
        <time>2022-06-12T08:01:32.969Z</time>
      </trkpt>
      <trkpt lat="44.2489" lon="2.5348">
        <ele>712</ele>
        <time>2022-06-12T08:01:33.969Z</time>
      </trkpt>
      <trkpt lat="44.24889" lon="2.53482">
        <ele>712</ele>
        <time>2022-06-12T08:01:34.969Z</time>
      </trkpt>
      <trkpt lat="44.24888" lon="2.53483">
        <ele>712</ele>
        <time>2022-06-12T08:01:35.969Z</time>
      </trkpt>
      <trkpt lat="44.24887" lon="2.53484">
        <ele>712</ele>
        <time>2022-06-12T08:01:36.969Z</time>
      </trkpt>
      <trkpt lat="44.24887" lon="2.53485">
        <ele>712</ele>
        <time>2022-06-12T08:01:37.969Z</time>
      </trkpt>
      <trkpt lat="44.24886" lon="2.53486">
        <ele>712</ele>
        <time>2022-06-12T08:01:38.969Z</time>
      </trkpt>
      <trkpt lat="44.24885" lon="2.53487">
        <ele>712</ele>
        <time>2022-06-12T08:01:39.969Z</time>
      </trkpt>
      <trkpt lat="44.24885" lon="2.53488">
        <ele>713</ele>
        <time>2022-06-12T08:01:40.969Z</time>
      </trkpt>
      <trkpt lat="44.24884" lon="2.53489">
        <ele>713</ele>
        <time>2022-06-12T08:01:41.969Z</time>
      </trkpt>
      <trkpt lat="44.24883" lon="2.53491">
        <ele>713</ele>
        <time>2022-06-12T08:01:42.969Z</time>
      </trkpt>
      <trkpt lat="44.24882" lon="2.53492">
        <ele>713</ele>
        <time>2022-06-12T08:01:43.969Z</time>
      </trkpt>
      <trkpt lat="44.24881" lon="2.53493">
        <ele>713</ele>
        <time>2022-06-12T08:01:44.969Z</time>
      </trkpt>
      <trkpt lat="44.24881" lon="2.53494">
        <ele>713</ele>
        <time>2022-06-12T08:01:45.969Z</time>
      </trkpt>
      <trkpt lat="44.2488" lon="2.53495">
        <ele>713</ele>
        <time>2022-06-12T08:01:46.969Z</time>
      </trkpt>
      <trkpt lat="44.24879" lon="2.53496">
        <ele>713</ele>
        <time>2022-06-12T08:01:47.969Z</time>
      </trkpt>
      <trkpt lat="44.24878" lon="2.53498">
        <ele>713</ele>
        <time>2022-06-12T08:01:48.969Z</time>
      </trkpt>
      <trkpt lat="44.24878" lon="2.53499">
        <ele>713</ele>
        <time>2022-06-12T08:01:49.969Z</time>
      </trkpt>
      <trkpt lat="44.24877" lon="2.535">
        <ele>713</ele>
        <time>2022-06-12T08:01:50.969Z</time>
      </trkpt>
      <trkpt lat="44.24876" lon="2.53501">
        <ele>713</ele>
        <time>2022-06-12T08:01:51.969Z</time>
      </trkpt>
      <trkpt lat="44.24876" lon="2.53503">
        <ele>713</ele>
        <time>2022-06-12T08:01:52.969Z</time>
      </trkpt>
      <trkpt lat="44.24875" lon="2.53504">
        <ele>713</ele>
        <time>2022-06-12T08:01:53.969Z</time>
      </trkpt>
      <trkpt lat="44.24874" lon="2.53505">
        <ele>713</ele>
        <time>2022-06-12T08:01:54.969Z</time>
      </trkpt>
      <trkpt lat="44.24873" lon="2.53506">
        <ele>714</ele>
        <time>2022-06-12T08:01:55.969Z</time>
      </trkpt>
      <trkpt lat="44.24872" lon="2.53507">
        <ele>714</ele>
        <time>2022-06-12T08:01:56.969Z</time>
      </trkpt>
      <trkpt lat="44.24872" lon="2.53509">
        <ele>714</ele>
        <time>2022-06-12T08:01:57.969Z</time>
      </trkpt>
      <trkpt lat="44.24871" lon="2.5351">
        <ele>714</ele>
        <time>2022-06-12T08:01:58.969Z</time>
      </trkpt>
      <trkpt lat="44.2487" lon="2.53511">
        <ele>714</ele>
        <time>2022-06-12T08:01:59.969Z</time>
      </trkpt>
      <trkpt lat="44.24869" lon="2.53512">
        <ele>714</ele>
        <time>2022-06-12T08:02:00.969Z</time>
      </trkpt>
      <trkpt lat="44.24869" lon="2.53514">
        <ele>714</ele>
        <time>2022-06-12T08:02:01.969Z</time>
      </trkpt>
      <trkpt lat="44.24868" lon="2.53515">
        <ele>714</ele>
        <time>2022-06-12T08:02:02.969Z</time>
      </trkpt>
      <trkpt lat="44.24867" lon="2.53516">
        <ele>714</ele>
        <time>2022-06-12T08:02:03.969Z</time>
      </trkpt>
      <trkpt lat="44.24866" lon="2.53517">
        <ele>714</ele>
        <time>2022-06-12T08:02:04.969Z</time>
      </trkpt>
      <trkpt lat="44.24866" lon="2.53518">
        <ele>714</ele>
        <time>2022-06-12T08:02:05.969Z</time>
      </trkpt>
      <trkpt lat="44.24865" lon="2.53519">
        <ele>714</ele>
        <time>2022-06-12T08:02:06.969Z</time>
      </trkpt>
      <trkpt lat="44.24864" lon="2.5352">
        <ele>714</ele>
        <time>2022-06-12T08:02:07.969Z</time>
      </trkpt>
      <trkpt lat="44.24864" lon="2.53521">
        <ele>714</ele>
        <time>2022-06-12T08:02:08.969Z</time>
      </trkpt>
      <trkpt lat="44.24863" lon="2.53523">
        <ele>714</ele>
        <time>2022-06-12T08:02:09.969Z</time>
      </trkpt>
      <trkpt lat="44.24862" lon="2.53524">
        <ele>714</ele>
        <time>2022-06-12T08:02:10.969Z</time>
      </trkpt>
      <trkpt lat="44.24861" lon="2.53525">
        <ele>714</ele>
        <time>2022-06-12T08:02:11.969Z</time>
      </trkpt>
      <trkpt lat="44.24861" lon="2.53526">
        <ele>714</ele>
        <time>2022-06-12T08:02:12.969Z</time>
      </trkpt>
      <trkpt lat="44.2486" lon="2.53527">
        <ele>714</ele>
        <time>2022-06-12T08:02:13.969Z</time>
      </trkpt>
      <trkpt lat="44.24859" lon="2.53529">
        <ele>714</ele>
        <time>2022-06-12T08:02:14.969Z</time>
      </trkpt>
      <trkpt lat="44.24858" lon="2.5353">
        <ele>714</ele>
        <time>2022-06-12T08:02:15.969Z</time>
      </trkpt>
      <trkpt lat="44.24857" lon="2.53531">
        <ele>714</ele>
        <time>2022-06-12T08:02:16.969Z</time>
      </trkpt>
      <trkpt lat="44.24856" lon="2.53532">
        <ele>714</ele>
        <time>2022-06-12T08:02:17.969Z</time>
      </trkpt>
      <trkpt lat="44.24856" lon="2.53534">
        <ele>714</ele>
        <time>2022-06-12T08:02:18.969Z</time>
      </trkpt>
      <trkpt lat="44.24855" lon="2.53535">
        <ele>714</ele>
        <time>2022-06-12T08:02:19.969Z</time>
      </trkpt>
      <trkpt lat="44.24854" lon="2.53536">
        <ele>714</ele>
        <time>2022-06-12T08:02:20.969Z</time>
      </trkpt>
      <trkpt lat="44.24853" lon="2.53538">
        <ele>715</ele>
        <time>2022-06-12T08:02:21.969Z</time>
      </trkpt>
      <trkpt lat="44.24852" lon="2.53539">
        <ele>715</ele>
        <time>2022-06-12T08:02:22.969Z</time>
      </trkpt>
      <trkpt lat="44.24852" lon="2.53541">
        <ele>715</ele>
        <time>2022-06-12T08:02:23.969Z</time>
      </trkpt>
      <trkpt lat="44.24851" lon="2.53542">
        <ele>715</ele>
        <time>2022-06-12T08:02:24.969Z</time>
      </trkpt>
      <trkpt lat="44.2485" lon="2.53543">
        <ele>715</ele>
        <time>2022-06-12T08:02:25.969Z</time>
      </trkpt>
      <trkpt lat="44.24849" lon="2.53544">
        <ele>715</ele>
        <time>2022-06-12T08:02:26.969Z</time>
      </trkpt>
      <trkpt lat="44.24848" lon="2.53545">
        <ele>715</ele>
        <time>2022-06-12T08:02:27.969Z</time>
      </trkpt>
      <trkpt lat="44.24848" lon="2.53547">
        <ele>715</ele>
        <time>2022-06-12T08:02:28.969Z</time>
      </trkpt>
      <trkpt lat="44.24847" lon="2.53548">
        <ele>715</ele>
        <time>2022-06-12T08:02:29.969Z</time>
      </trkpt>
      <trkpt lat="44.24846" lon="2.53549">
        <ele>715</ele>
        <time>2022-06-12T08:02:30.969Z</time>
      </trkpt>
      <trkpt lat="44.24845" lon="2.5355">
        <ele>715</ele>
        <time>2022-06-12T08:02:31.969Z</time>
      </trkpt>
      <trkpt lat="44.24844" lon="2.53552">
        <ele>715</ele>
        <time>2022-06-12T08:02:32.969Z</time>
      </trkpt>
      <trkpt lat="44.24843" lon="2.53553">
        <ele>715</ele>
        <time>2022-06-12T08:02:33.969Z</time>
      </trkpt>
      <trkpt lat="44.24842" lon="2.53554">
        <ele>716</ele>
        <time>2022-06-12T08:02:34.969Z</time>
      </trkpt>
      <trkpt lat="44.24842" lon="2.53555">
        <ele>716</ele>
        <time>2022-06-12T08:02:35.969Z</time>
      </trkpt>
      <trkpt lat="44.24841" lon="2.53557">
        <ele>716</ele>
        <time>2022-06-12T08:02:36.969Z</time>
      </trkpt>
      <trkpt lat="44.2484" lon="2.53558">
        <ele>716</ele>
        <time>2022-06-12T08:02:37.969Z</time>
      </trkpt>
      <trkpt lat="44.24839" lon="2.53559">
        <ele>716</ele>
        <time>2022-06-12T08:02:38.969Z</time>
      </trkpt>
      <trkpt lat="44.24838" lon="2.53561">
        <ele>716</ele>
        <time>2022-06-12T08:02:39.969Z</time>
      </trkpt>
      <trkpt lat="44.24837" lon="2.53562">
        <ele>716</ele>
        <time>2022-06-12T08:02:40.969Z</time>
      </trkpt>
      <trkpt lat="44.24837" lon="2.53564">
        <ele>716</ele>
        <time>2022-06-12T08:02:41.969Z</time>
      </trkpt>
      <trkpt lat="44.24836" lon="2.53565">
        <ele>716</ele>
        <time>2022-06-12T08:02:42.969Z</time>
      </trkpt>
      <trkpt lat="44.24835" lon="2.53566">
        <ele>716</ele>
        <time>2022-06-12T08:02:43.969Z</time>
      </trkpt>
      <trkpt lat="44.24834" lon="2.53568">
        <ele>716</ele>
        <time>2022-06-12T08:02:44.969Z</time>
      </trkpt>
      <trkpt lat="44.24833" lon="2.53569">
        <ele>716</ele>
        <time>2022-06-12T08:02:45.969Z</time>
      </trkpt>
      <trkpt lat="44.24832" lon="2.5357">
        <ele>717</ele>
        <time>2022-06-12T08:02:46.969Z</time>
      </trkpt>
      <trkpt lat="44.24831" lon="2.53571">
        <ele>717</ele>
        <time>2022-06-12T08:02:47.969Z</time>
      </trkpt>
      <trkpt lat="44.24831" lon="2.53573">
        <ele>717</ele>
        <time>2022-06-12T08:02:48.969Z</time>
      </trkpt>
      <trkpt lat="44.2483" lon="2.53574">
        <ele>717</ele>
        <time>2022-06-12T08:02:49.969Z</time>
      </trkpt>
      <trkpt lat="44.24829" lon="2.53575">
        <ele>717</ele>
        <time>2022-06-12T08:02:50.969Z</time>
      </trkpt>
      <trkpt lat="44.24828" lon="2.53577">
        <ele>717</ele>
        <time>2022-06-12T08:02:51.969Z</time>
      </trkpt>
      <trkpt lat="44.24827" lon="2.53578">
        <ele>717</ele>
        <time>2022-06-12T08:02:52.969Z</time>
      </trkpt>
      <trkpt lat="44.24827" lon="2.53579">
        <ele>717</ele>
        <time>2022-06-12T08:02:53.969Z</time>
      </trkpt>
      <trkpt lat="44.24826" lon="2.5358">
        <ele>717</ele>
        <time>2022-06-12T08:02:54.969Z</time>
      </trkpt>
      <trkpt lat="44.24825" lon="2.53582">
        <ele>717</ele>
        <time>2022-06-12T08:02:55.969Z</time>
      </trkpt>
      <trkpt lat="44.24824" lon="2.53583">
        <ele>717</ele>
        <time>2022-06-12T08:02:56.969Z</time>
      </trkpt>
      <trkpt lat="44.24823" lon="2.53584">
        <ele>717</ele>
        <time>2022-06-12T08:02:57.969Z</time>
      </trkpt>
      <trkpt lat="44.24823" lon="2.53585">
        <ele>717</ele>
        <time>2022-06-12T08:02:58.969Z</time>
      </trkpt>
      <trkpt lat="44.24822" lon="2.53587">
        <ele>717</ele>
        <time>2022-06-12T08:02:59.969Z</time>
      </trkpt>
      <trkpt lat="44.24821" lon="2.53588">
        <ele>717</ele>
        <time>2022-06-12T08:03:00.969Z</time>
      </trkpt>
      <trkpt lat="44.2482" lon="2.5359">
        <ele>717</ele>
        <time>2022-06-12T08:03:01.969Z</time>
      </trkpt>
      <trkpt lat="44.24819" lon="2.53591">
        <ele>717</ele>
        <time>2022-06-12T08:03:02.969Z</time>
      </trkpt>
      <trkpt lat="44.24819" lon="2.53592">
        <ele>717</ele>
        <time>2022-06-12T08:03:03.969Z</time>
      </trkpt>
      <trkpt lat="44.24818" lon="2.53593">
        <ele>718</ele>
        <time>2022-06-12T08:03:04.969Z</time>
      </trkpt>
      <trkpt lat="44.24817" lon="2.53595">
        <ele>718</ele>
        <time>2022-06-12T08:03:05.969Z</time>
      </trkpt>
      <trkpt lat="44.24817" lon="2.53596">
        <ele>718</ele>
        <time>2022-06-12T08:03:06.969Z</time>
      </trkpt>
      <trkpt lat="44.24816" lon="2.53597">
        <ele>718</ele>
        <time>2022-06-12T08:03:07.969Z</time>
      </trkpt>
      <trkpt lat="44.24815" lon="2.53598">
        <ele>718</ele>
        <time>2022-06-12T08:03:08.969Z</time>
      </trkpt>
      <trkpt lat="44.24814" lon="2.53599">
        <ele>718</ele>
        <time>2022-06-12T08:03:09.969Z</time>
      </trkpt>
      <trkpt lat="44.24814" lon="2.536">
        <ele>718</ele>
        <time>2022-06-12T08:03:10.969Z</time>
      </trkpt>
      <trkpt lat="44.24813" lon="2.536">
        <ele>718</ele>
        <time>2022-06-12T08:03:11.969Z</time>
      </trkpt>
      <trkpt lat="44.24813" lon="2.53601">
        <ele>718</ele>
        <time>2022-06-12T08:03:12.969Z</time>
      </trkpt>
      <trkpt lat="44.24813" lon="2.53601">
        <ele>718</ele>
        <time>2022-06-12T08:03:13.969Z</time>
      </trkpt>
      <trkpt lat="44.24813" lon="2.53601">
        <ele>718</ele>
        <time>2022-06-12T08:03:14.969Z</time>
      </trkpt>
      <trkpt lat="44.24813" lon="2.53601">
        <ele>718</ele>
        <time>2022-06-12T08:03:15.969Z</time>
      </trkpt>
      <trkpt lat="44.24811" lon="2.53602">
        <ele>719</ele>
        <time>2022-06-12T08:03:56.977Z</time>
      </trkpt>
      <trkpt lat="44.24811" lon="2.53603">
        <ele>719</ele>
        <time>2022-06-12T08:03:57.977Z</time>
      </trkpt>
      <trkpt lat="44.24811" lon="2.53604">
        <ele>719</ele>
        <time>2022-06-12T08:03:58.977Z</time>
      </trkpt>
      <trkpt lat="44.2481" lon="2.53604">
        <ele>719</ele>
        <time>2022-06-12T08:03:59.977Z</time>
      </trkpt>
      <trkpt lat="44.24809" lon="2.53605">
        <ele>719</ele>
        <time>2022-06-12T08:04:00.977Z</time>
      </trkpt>
      <trkpt lat="44.24808" lon="2.53606">
        <ele>719</ele>
        <time>2022-06-12T08:04:01.977Z</time>
      </trkpt>
      <trkpt lat="44.24807" lon="2.53606">
        <ele>719</ele>
        <time>2022-06-12T08:04:02.977Z</time>
      </trkpt>
      <trkpt lat="44.24806" lon="2.53607">
        <ele>719</ele>
        <time>2022-06-12T08:04:03.977Z</time>
      </trkpt>
      <trkpt lat="44.24806" lon="2.53609">
        <ele>719</ele>
        <time>2022-06-12T08:04:04.977Z</time>
      </trkpt>
      <trkpt lat="44.24805" lon="2.5361">
        <ele>719</ele>
        <time>2022-06-12T08:04:05.977Z</time>
      </trkpt>
      <trkpt lat="44.24805" lon="2.53612">
        <ele>719</ele>
        <time>2022-06-12T08:04:06.977Z</time>
      </trkpt>
      <trkpt lat="44.24805" lon="2.53614">
        <ele>719</ele>
        <time>2022-06-12T08:04:07.977Z</time>
      </trkpt>
      <trkpt lat="44.24805" lon="2.53615">
        <ele>719</ele>
        <time>2022-06-12T08:04:08.977Z</time>
      </trkpt>
      <trkpt lat="44.24805" lon="2.53617">
        <ele>719</ele>
        <time>2022-06-12T08:04:09.977Z</time>
      </trkpt>
      <trkpt lat="44.24805" lon="2.53618">
        <ele>719</ele>
        <time>2022-06-12T08:04:10.977Z</time>
      </trkpt>
      <trkpt lat="44.24805" lon="2.53619">
        <ele>719</ele>
        <time>2022-06-12T08:04:11.977Z</time>
      </trkpt>
      <trkpt lat="44.24804" lon="2.5362">
        <ele>719</ele>
        <time>2022-06-12T08:04:12.977Z</time>
      </trkpt>
      <trkpt lat="44.24804" lon="2.53622">
        <ele>719</ele>
        <time>2022-06-12T08:04:13.977Z</time>
      </trkpt>
      <trkpt lat="44.24804" lon="2.53623">
        <ele>719</ele>
        <time>2022-06-12T08:04:14.977Z</time>
      </trkpt>
      <trkpt lat="44.24804" lon="2.53624">
        <ele>719</ele>
        <time>2022-06-12T08:04:15.977Z</time>
      </trkpt>
      <trkpt lat="44.24804" lon="2.53626">
        <ele>719</ele>
        <time>2022-06-12T08:04:16.977Z</time>
      </trkpt>
      <trkpt lat="44.24804" lon="2.53627">
        <ele>719</ele>
        <time>2022-06-12T08:04:17.977Z</time>
      </trkpt>
      <trkpt lat="44.24804" lon="2.53629">
        <ele>719</ele>
        <time>2022-06-12T08:04:18.977Z</time>
      </trkpt>
      <trkpt lat="44.24803" lon="2.53631">
        <ele>719</ele>
        <time>2022-06-12T08:04:19.977Z</time>
      </trkpt>
      <trkpt lat="44.24803" lon="2.53632">
        <ele>719</ele>
        <time>2022-06-12T08:04:20.977Z</time>
      </trkpt>
      <trkpt lat="44.24803" lon="2.53633">
        <ele>719</ele>
        <time>2022-06-12T08:04:21.977Z</time>
      </trkpt>
      <trkpt lat="44.24803" lon="2.53635">
        <ele>719</ele>
        <time>2022-06-12T08:04:22.977Z</time>
      </trkpt>
      <trkpt lat="44.24803" lon="2.53636">
        <ele>719</ele>
        <time>2022-06-12T08:04:23.977Z</time>
      </trkpt>
      <trkpt lat="44.24802" lon="2.53638">
        <ele>719</ele>
        <time>2022-06-12T08:04:24.977Z</time>
      </trkpt>
      <trkpt lat="44.24802" lon="2.53639">
        <ele>719</ele>
        <time>2022-06-12T08:04:25.977Z</time>
      </trkpt>
      <trkpt lat="44.24802" lon="2.53641">
        <ele>719</ele>
        <time>2022-06-12T08:04:26.977Z</time>
      </trkpt>
      <trkpt lat="44.24802" lon="2.53642">
        <ele>719</ele>
        <time>2022-06-12T08:04:27.977Z</time>
      </trkpt>
      <trkpt lat="44.24801" lon="2.53644">
        <ele>719</ele>
        <time>2022-06-12T08:04:28.977Z</time>
      </trkpt>
      <trkpt lat="44.24801" lon="2.53646">
        <ele>719</ele>
        <time>2022-06-12T08:04:29.977Z</time>
      </trkpt>
      <trkpt lat="44.248" lon="2.53647">
        <ele>719</ele>
        <time>2022-06-12T08:04:30.977Z</time>
      </trkpt>
      <trkpt lat="44.248" lon="2.53649">
        <ele>719</ele>
        <time>2022-06-12T08:04:31.977Z</time>
      </trkpt>
      <trkpt lat="44.248" lon="2.5365">
        <ele>719</ele>
        <time>2022-06-12T08:04:32.977Z</time>
      </trkpt>
      <trkpt lat="44.248" lon="2.53652">
        <ele>719</ele>
        <time>2022-06-12T08:04:33.977Z</time>
      </trkpt>
      <trkpt lat="44.24799" lon="2.53654">
        <ele>719</ele>
        <time>2022-06-12T08:04:34.977Z</time>
      </trkpt>
      <trkpt lat="44.24799" lon="2.53655">
        <ele>719</ele>
        <time>2022-06-12T08:04:35.977Z</time>
      </trkpt>
      <trkpt lat="44.24799" lon="2.53657">
        <ele>719</ele>
        <time>2022-06-12T08:04:36.977Z</time>
      </trkpt>
      <trkpt lat="44.24798" lon="2.53659">
        <ele>719</ele>
        <time>2022-06-12T08:04:37.977Z</time>
      </trkpt>
      <trkpt lat="44.24798" lon="2.5366">
        <ele>719</ele>
        <time>2022-06-12T08:04:38.977Z</time>
      </trkpt>
      <trkpt lat="44.24798" lon="2.53662">
        <ele>719</ele>
        <time>2022-06-12T08:04:39.977Z</time>
      </trkpt>
      <trkpt lat="44.24798" lon="2.53664">
        <ele>719</ele>
        <time>2022-06-12T08:04:40.977Z</time>
      </trkpt>
      <trkpt lat="44.24797" lon="2.53666">
        <ele>719</ele>
        <time>2022-06-12T08:04:41.977Z</time>
      </trkpt>
      <trkpt lat="44.24797" lon="2.53668">
        <ele>719</ele>
        <time>2022-06-12T08:04:42.977Z</time>
      </trkpt>
      <trkpt lat="44.24797" lon="2.53669">
        <ele>719</ele>
        <time>2022-06-12T08:04:43.977Z</time>
      </trkpt>
      <trkpt lat="44.24796" lon="2.53671">
        <ele>719</ele>
        <time>2022-06-12T08:04:44.977Z</time>
      </trkpt>
      <trkpt lat="44.24796" lon="2.53673">
        <ele>719</ele>
        <time>2022-06-12T08:04:45.977Z</time>
      </trkpt>
      <trkpt lat="44.24796" lon="2.53675">
        <ele>719</ele>
        <time>2022-06-12T08:04:46.977Z</time>
      </trkpt>
      <trkpt lat="44.24795" lon="2.53676">
        <ele>719</ele>
        <time>2022-06-12T08:04:47.977Z</time>
      </trkpt>
      <trkpt lat="44.24795" lon="2.53678">
        <ele>719</ele>
        <time>2022-06-12T08:04:48.977Z</time>
      </trkpt>
      <trkpt lat="44.24794" lon="2.5368">
        <ele>719</ele>
        <time>2022-06-12T08:04:49.977Z</time>
      </trkpt>
      <trkpt lat="44.24794" lon="2.53682">
        <ele>719</ele>
        <time>2022-06-12T08:04:50.977Z</time>
      </trkpt>
      <trkpt lat="44.24794" lon="2.53683">
        <ele>719</ele>
        <time>2022-06-12T08:04:51.977Z</time>
      </trkpt>
      <trkpt lat="44.24794" lon="2.53685">
        <ele>719</ele>
        <time>2022-06-12T08:04:52.977Z</time>
      </trkpt>
      <trkpt lat="44.24793" lon="2.53687">
        <ele>719</ele>
        <time>2022-06-12T08:04:53.977Z</time>
      </trkpt>
      <trkpt lat="44.24793" lon="2.53689">
        <ele>719</ele>
        <time>2022-06-12T08:04:54.977Z</time>
      </trkpt>
      <trkpt lat="44.24793" lon="2.53691">
        <ele>718</ele>
        <time>2022-06-12T08:04:55.977Z</time>
      </trkpt>
      <trkpt lat="44.24792" lon="2.53693">
        <ele>718</ele>
        <time>2022-06-12T08:04:56.977Z</time>
      </trkpt>
      <trkpt lat="44.24792" lon="2.53694">
        <ele>718</ele>
        <time>2022-06-12T08:04:57.977Z</time>
      </trkpt>
      <trkpt lat="44.24792" lon="2.53696">
        <ele>718</ele>
        <time>2022-06-12T08:04:58.977Z</time>
      </trkpt>
      <trkpt lat="44.24791" lon="2.53698">
        <ele>718</ele>
        <time>2022-06-12T08:04:59.977Z</time>
      </trkpt>
      <trkpt lat="44.24791" lon="2.537">
        <ele>718</ele>
        <time>2022-06-12T08:05:00.977Z</time>
      </trkpt>
      <trkpt lat="44.24791" lon="2.53702">
        <ele>718</ele>
        <time>2022-06-12T08:05:01.977Z</time>
      </trkpt>
      <trkpt lat="44.2479" lon="2.53704">
        <ele>718</ele>
        <time>2022-06-12T08:05:02.977Z</time>
      </trkpt>
      <trkpt lat="44.2479" lon="2.53705">
        <ele>718</ele>
        <time>2022-06-12T08:05:03.977Z</time>
      </trkpt>
      <trkpt lat="44.2479" lon="2.53707">
        <ele>718</ele>
        <time>2022-06-12T08:05:04.977Z</time>
      </trkpt>
      <trkpt lat="44.2479" lon="2.53709">
        <ele>718</ele>
        <time>2022-06-12T08:05:05.977Z</time>
      </trkpt>
      <trkpt lat="44.24789" lon="2.53711">
        <ele>718</ele>
        <time>2022-06-12T08:05:06.977Z</time>
      </trkpt>
      <trkpt lat="44.24789" lon="2.53713">
        <ele>718</ele>
        <time>2022-06-12T08:05:07.977Z</time>
      </trkpt>
      <trkpt lat="44.24789" lon="2.53715">
        <ele>718</ele>
        <time>2022-06-12T08:05:08.977Z</time>
      </trkpt>
      <trkpt lat="44.24788" lon="2.53716">
        <ele>718</ele>
        <time>2022-06-12T08:05:09.977Z</time>
      </trkpt>
      <trkpt lat="44.24788" lon="2.53718">
        <ele>718</ele>
        <time>2022-06-12T08:05:10.977Z</time>
      </trkpt>
      <trkpt lat="44.24788" lon="2.5372">
        <ele>718</ele>
        <time>2022-06-12T08:05:11.977Z</time>
      </trkpt>
      <trkpt lat="44.24787" lon="2.53722">
        <ele>718</ele>
        <time>2022-06-12T08:05:12.977Z</time>
      </trkpt>
      <trkpt lat="44.24787" lon="2.53724">
        <ele>718</ele>
        <time>2022-06-12T08:05:13.977Z</time>
      </trkpt>
      <trkpt lat="44.24787" lon="2.53726">
        <ele>717</ele>
        <time>2022-06-12T08:05:14.977Z</time>
      </trkpt>
      <trkpt lat="44.24786" lon="2.53727">
        <ele>717</ele>
        <time>2022-06-12T08:05:15.977Z</time>
      </trkpt>
      <trkpt lat="44.24786" lon="2.53729">
        <ele>717</ele>
        <time>2022-06-12T08:05:16.977Z</time>
      </trkpt>
      <trkpt lat="44.24786" lon="2.53731">
        <ele>717</ele>
        <time>2022-06-12T08:05:17.977Z</time>
      </trkpt>
      <trkpt lat="44.24785" lon="2.53733">
        <ele>717</ele>
        <time>2022-06-12T08:05:18.977Z</time>
      </trkpt>
      <trkpt lat="44.24785" lon="2.53735">
        <ele>717</ele>
        <time>2022-06-12T08:05:19.977Z</time>
      </trkpt>
      <trkpt lat="44.24785" lon="2.53737">
        <ele>717</ele>
        <time>2022-06-12T08:05:20.977Z</time>
      </trkpt>
      <trkpt lat="44.24784" lon="2.53739">
        <ele>717</ele>
        <time>2022-06-12T08:05:21.977Z</time>
      </trkpt>
      <trkpt lat="44.24784" lon="2.53741">
        <ele>717</ele>
        <time>2022-06-12T08:05:22.977Z</time>
      </trkpt>
      <trkpt lat="44.24784" lon="2.53742">
        <ele>717</ele>
        <time>2022-06-12T08:05:23.977Z</time>
      </trkpt>
      <trkpt lat="44.24783" lon="2.53744">
        <ele>717</ele>
        <time>2022-06-12T08:05:24.977Z</time>
      </trkpt>
      <trkpt lat="44.24783" lon="2.53746">
        <ele>717</ele>
        <time>2022-06-12T08:05:25.977Z</time>
      </trkpt>
      <trkpt lat="44.24783" lon="2.53748">
        <ele>717</ele>
        <time>2022-06-12T08:05:26.977Z</time>
      </trkpt>
      <trkpt lat="44.24782" lon="2.5375">
        <ele>717</ele>
        <time>2022-06-12T08:05:27.977Z</time>
      </trkpt>
      <trkpt lat="44.24782" lon="2.53751">
        <ele>717</ele>
        <time>2022-06-12T08:05:28.977Z</time>
      </trkpt>
      <trkpt lat="44.24782" lon="2.53753">
        <ele>717</ele>
        <time>2022-06-12T08:05:29.977Z</time>
      </trkpt>
      <trkpt lat="44.24781" lon="2.53755">
        <ele>717</ele>
        <time>2022-06-12T08:05:30.977Z</time>
      </trkpt>
      <trkpt lat="44.24781" lon="2.53757">
        <ele>717</ele>
        <time>2022-06-12T08:05:31.977Z</time>
      </trkpt>
      <trkpt lat="44.24781" lon="2.53759">
        <ele>717</ele>
        <time>2022-06-12T08:05:32.977Z</time>
      </trkpt>
      <trkpt lat="44.2478" lon="2.53761">
        <ele>716</ele>
        <time>2022-06-12T08:05:33.977Z</time>
      </trkpt>
      <trkpt lat="44.2478" lon="2.53762">
        <ele>716</ele>
        <time>2022-06-12T08:05:34.977Z</time>
      </trkpt>
      <trkpt lat="44.24779" lon="2.53764">
        <ele>716</ele>
        <time>2022-06-12T08:05:35.977Z</time>
      </trkpt>
      <trkpt lat="44.24779" lon="2.53766">
        <ele>716</ele>
        <time>2022-06-12T08:05:36.977Z</time>
      </trkpt>
      <trkpt lat="44.24779" lon="2.53768">
        <ele>716</ele>
        <time>2022-06-12T08:05:37.977Z</time>
      </trkpt>
      <trkpt lat="44.24778" lon="2.53769">
        <ele>716</ele>
        <time>2022-06-12T08:05:38.977Z</time>
      </trkpt>
      <trkpt lat="44.24778" lon="2.53771">
        <ele>716</ele>
        <time>2022-06-12T08:05:39.977Z</time>
      </trkpt>
      <trkpt lat="44.24778" lon="2.53773">
        <ele>716</ele>
        <time>2022-06-12T08:05:40.977Z</time>
      </trkpt>
      <trkpt lat="44.24777" lon="2.53775">
        <ele>716</ele>
        <time>2022-06-12T08:05:41.977Z</time>
      </trkpt>
      <trkpt lat="44.24777" lon="2.53777">
        <ele>716</ele>
        <time>2022-06-12T08:05:42.977Z</time>
      </trkpt>
      <trkpt lat="44.24777" lon="2.53778">
        <ele>716</ele>
        <time>2022-06-12T08:05:43.977Z</time>
      </trkpt>
      <trkpt lat="44.24776" lon="2.5378">
        <ele>715</ele>
        <time>2022-06-12T08:05:44.977Z</time>
      </trkpt>
      <trkpt lat="44.24776" lon="2.53782">
        <ele>715</ele>
        <time>2022-06-12T08:05:45.977Z</time>
      </trkpt>
      <trkpt lat="44.24776" lon="2.53783">
        <ele>715</ele>
        <time>2022-06-12T08:05:46.977Z</time>
      </trkpt>
      <trkpt lat="44.24775" lon="2.53785">
        <ele>715</ele>
        <time>2022-06-12T08:05:47.977Z</time>
      </trkpt>
      <trkpt lat="44.24774" lon="2.53787">
        <ele>715</ele>
        <time>2022-06-12T08:05:48.977Z</time>
      </trkpt>
      <trkpt lat="44.24774" lon="2.53788">
        <ele>715</ele>
        <time>2022-06-12T08:05:49.977Z</time>
      </trkpt>
      <trkpt lat="44.24774" lon="2.5379">
        <ele>715</ele>
        <time>2022-06-12T08:05:50.977Z</time>
      </trkpt>
      <trkpt lat="44.24773" lon="2.53792">
        <ele>715</ele>
        <time>2022-06-12T08:05:51.977Z</time>
      </trkpt>
      <trkpt lat="44.24773" lon="2.53794">
        <ele>715</ele>
        <time>2022-06-12T08:05:52.977Z</time>
      </trkpt>
      <trkpt lat="44.24772" lon="2.53795">
        <ele>715</ele>
        <time>2022-06-12T08:05:53.977Z</time>
      </trkpt>
      <trkpt lat="44.24772" lon="2.53797">
        <ele>715</ele>
        <time>2022-06-12T08:05:54.977Z</time>
      </trkpt>
      <trkpt lat="44.24772" lon="2.53799">
        <ele>715</ele>
        <time>2022-06-12T08:05:55.977Z</time>
      </trkpt>
      <trkpt lat="44.24771" lon="2.538">
        <ele>714</ele>
        <time>2022-06-12T08:05:56.977Z</time>
      </trkpt>
      <trkpt lat="44.24771" lon="2.53802">
        <ele>714</ele>
        <time>2022-06-12T08:05:57.977Z</time>
      </trkpt>
      <trkpt lat="44.24771" lon="2.53804">
        <ele>714</ele>
        <time>2022-06-12T08:05:58.977Z</time>
      </trkpt>
      <trkpt lat="44.2477" lon="2.53806">
        <ele>714</ele>
        <time>2022-06-12T08:05:59.977Z</time>
      </trkpt>
      <trkpt lat="44.2477" lon="2.53808">
        <ele>714</ele>
        <time>2022-06-12T08:06:00.977Z</time>
      </trkpt>
      <trkpt lat="44.24769" lon="2.53809">
        <ele>714</ele>
        <time>2022-06-12T08:06:01.977Z</time>
      </trkpt>
      <trkpt lat="44.24769" lon="2.53811">
        <ele>714</ele>
        <time>2022-06-12T08:06:02.977Z</time>
      </trkpt>
      <trkpt lat="44.24768" lon="2.53813">
        <ele>714</ele>
        <time>2022-06-12T08:06:03.977Z</time>
      </trkpt>
      <trkpt lat="44.24768" lon="2.53815">
        <ele>714</ele>
        <time>2022-06-12T08:06:04.977Z</time>
      </trkpt>
      <trkpt lat="44.24767" lon="2.53816">
        <ele>714</ele>
        <time>2022-06-12T08:06:05.977Z</time>
      </trkpt>
      <trkpt lat="44.24767" lon="2.53818">
        <ele>714</ele>
        <time>2022-06-12T08:06:06.977Z</time>
      </trkpt>
      <trkpt lat="44.24767" lon="2.5382">
        <ele>714</ele>
        <time>2022-06-12T08:06:07.977Z</time>
      </trkpt>
      <trkpt lat="44.24766" lon="2.53822">
        <ele>714</ele>
        <time>2022-06-12T08:06:08.977Z</time>
      </trkpt>
      <trkpt lat="44.24765" lon="2.53823">
        <ele>714</ele>
        <time>2022-06-12T08:06:09.977Z</time>
      </trkpt>
      <trkpt lat="44.24765" lon="2.53825">
        <ele>714</ele>
        <time>2022-06-12T08:06:10.977Z</time>
      </trkpt>
      <trkpt lat="44.24764" lon="2.53827">
        <ele>714</ele>
        <time>2022-06-12T08:06:11.977Z</time>
      </trkpt>
      <trkpt lat="44.24764" lon="2.53828">
        <ele>714</ele>
        <time>2022-06-12T08:06:12.977Z</time>
      </trkpt>
      <trkpt lat="44.24763" lon="2.5383">
        <ele>714</ele>
        <time>2022-06-12T08:06:13.977Z</time>
      </trkpt>
      <trkpt lat="44.24762" lon="2.53832">
        <ele>714</ele>
        <time>2022-06-12T08:06:14.977Z</time>
      </trkpt>
      <trkpt lat="44.24762" lon="2.53833">
        <ele>714</ele>
        <time>2022-06-12T08:06:15.977Z</time>
      </trkpt>
      <trkpt lat="44.24761" lon="2.53835">
        <ele>714</ele>
        <time>2022-06-12T08:06:16.977Z</time>
      </trkpt>
      <trkpt lat="44.2476" lon="2.53837">
        <ele>714</ele>
        <time>2022-06-12T08:06:17.977Z</time>
      </trkpt>
      <trkpt lat="44.2476" lon="2.53838">
        <ele>714</ele>
        <time>2022-06-12T08:06:18.977Z</time>
      </trkpt>
      <trkpt lat="44.24759" lon="2.5384">
        <ele>714</ele>
        <time>2022-06-12T08:06:19.977Z</time>
      </trkpt>
      <trkpt lat="44.24758" lon="2.53841">
        <ele>714</ele>
        <time>2022-06-12T08:06:20.977Z</time>
      </trkpt>
      <trkpt lat="44.24757" lon="2.53843">
        <ele>714</ele>
        <time>2022-06-12T08:06:21.977Z</time>
      </trkpt>
      <trkpt lat="44.24756" lon="2.53844">
        <ele>714</ele>
        <time>2022-06-12T08:06:22.977Z</time>
      </trkpt>
      <trkpt lat="44.24755" lon="2.53845">
        <ele>714</ele>
        <time>2022-06-12T08:06:23.977Z</time>
      </trkpt>
      <trkpt lat="44.24754" lon="2.53847">
        <ele>714</ele>
        <time>2022-06-12T08:06:24.977Z</time>
      </trkpt>
      <trkpt lat="44.24754" lon="2.53848">
        <ele>714</ele>
        <time>2022-06-12T08:06:25.977Z</time>
      </trkpt>
      <trkpt lat="44.24753" lon="2.5385">
        <ele>714</ele>
        <time>2022-06-12T08:06:26.977Z</time>
      </trkpt>
      <trkpt lat="44.24752" lon="2.53851">
        <ele>714</ele>
        <time>2022-06-12T08:06:27.977Z</time>
      </trkpt>
      <trkpt lat="44.24751" lon="2.53852">
        <ele>714</ele>
        <time>2022-06-12T08:06:28.977Z</time>
      </trkpt>
      <trkpt lat="44.2475" lon="2.53854">
        <ele>714</ele>
        <time>2022-06-12T08:06:29.977Z</time>
      </trkpt>
      <trkpt lat="44.24749" lon="2.53855">
        <ele>714</ele>
        <time>2022-06-12T08:06:30.977Z</time>
      </trkpt>
      <trkpt lat="44.24748" lon="2.53857">
        <ele>714</ele>
        <time>2022-06-12T08:06:31.977Z</time>
      </trkpt>
      <trkpt lat="44.24748" lon="2.53858">
        <ele>714</ele>
        <time>2022-06-12T08:06:32.977Z</time>
      </trkpt>
      <trkpt lat="44.24747" lon="2.5386">
        <ele>714</ele>
        <time>2022-06-12T08:06:33.977Z</time>
      </trkpt>
      <trkpt lat="44.24746" lon="2.53861">
        <ele>713</ele>
        <time>2022-06-12T08:06:34.977Z</time>
      </trkpt>
      <trkpt lat="44.24745" lon="2.53862">
        <ele>713</ele>
        <time>2022-06-12T08:06:35.977Z</time>
      </trkpt>
      <trkpt lat="44.24744" lon="2.53863">
        <ele>713</ele>
        <time>2022-06-12T08:06:36.977Z</time>
      </trkpt>
      <trkpt lat="44.24743" lon="2.53865">
        <ele>713</ele>
        <time>2022-06-12T08:06:37.977Z</time>
      </trkpt>
      <trkpt lat="44.24742" lon="2.53865">
        <ele>713</ele>
        <time>2022-06-12T08:06:38.977Z</time>
      </trkpt>
      <trkpt lat="44.24741" lon="2.53866">
        <ele>713</ele>
        <time>2022-06-12T08:06:39.977Z</time>
      </trkpt>
      <trkpt lat="44.2474" lon="2.53867">
        <ele>713</ele>
        <time>2022-06-12T08:06:40.977Z</time>
      </trkpt>
      <trkpt lat="44.24739" lon="2.53868">
        <ele>713</ele>
        <time>2022-06-12T08:06:41.977Z</time>
      </trkpt>
      <trkpt lat="44.24738" lon="2.53869">
        <ele>713</ele>
        <time>2022-06-12T08:06:42.977Z</time>
      </trkpt>
      <trkpt lat="44.24737" lon="2.5387">
        <ele>713</ele>
        <time>2022-06-12T08:06:43.977Z</time>
      </trkpt>
      <trkpt lat="44.24736" lon="2.53871">
        <ele>713</ele>
        <time>2022-06-12T08:06:44.977Z</time>
      </trkpt>
      <trkpt lat="44.24735" lon="2.53872">
        <ele>713</ele>
        <time>2022-06-12T08:06:45.977Z</time>
      </trkpt>
      <trkpt lat="44.24734" lon="2.53873">
        <ele>713</ele>
        <time>2022-06-12T08:06:46.977Z</time>
      </trkpt>
      <trkpt lat="44.24733" lon="2.53874">
        <ele>713</ele>
        <time>2022-06-12T08:06:47.977Z</time>
      </trkpt>
      <trkpt lat="44.24732" lon="2.53875">
        <ele>713</ele>
        <time>2022-06-12T08:06:48.977Z</time>
      </trkpt>
      <trkpt lat="44.24731" lon="2.53876">
        <ele>713</ele>
        <time>2022-06-12T08:06:49.977Z</time>
      </trkpt>
      <trkpt lat="44.2473" lon="2.53878">
        <ele>713</ele>
        <time>2022-06-12T08:06:50.977Z</time>
      </trkpt>
      <trkpt lat="44.24729" lon="2.53879">
        <ele>713</ele>
        <time>2022-06-12T08:06:51.977Z</time>
      </trkpt>
      <trkpt lat="44.24728" lon="2.53881">
        <ele>713</ele>
        <time>2022-06-12T08:06:52.977Z</time>
      </trkpt>
      <trkpt lat="44.24728" lon="2.53882">
        <ele>713</ele>
        <time>2022-06-12T08:06:53.977Z</time>
      </trkpt>
      <trkpt lat="44.24727" lon="2.53884">
        <ele>713</ele>
        <time>2022-06-12T08:06:54.977Z</time>
      </trkpt>
      <trkpt lat="44.24726" lon="2.53885">
        <ele>713</ele>
        <time>2022-06-12T08:06:55.977Z</time>
      </trkpt>
      <trkpt lat="44.24726" lon="2.53887">
        <ele>713</ele>
        <time>2022-06-12T08:06:56.977Z</time>
      </trkpt>
      <trkpt lat="44.24725" lon="2.53888">
        <ele>713</ele>
        <time>2022-06-12T08:06:57.977Z</time>
      </trkpt>
      <trkpt lat="44.24724" lon="2.53889">
        <ele>713</ele>
        <time>2022-06-12T08:06:58.977Z</time>
      </trkpt>
      <trkpt lat="44.24723" lon="2.5389">
        <ele>713</ele>
        <time>2022-06-12T08:06:59.977Z</time>
      </trkpt>
      <trkpt lat="44.24722" lon="2.53891">
        <ele>713</ele>
        <time>2022-06-12T08:07:00.977Z</time>
      </trkpt>
      <trkpt lat="44.24721" lon="2.53892">
        <ele>713</ele>
        <time>2022-06-12T08:07:01.977Z</time>
      </trkpt>
      <trkpt lat="44.2472" lon="2.53894">
        <ele>713</ele>
        <time>2022-06-12T08:07:02.977Z</time>
      </trkpt>
      <trkpt lat="44.24719" lon="2.53895">
        <ele>713</ele>
        <time>2022-06-12T08:07:03.977Z</time>
      </trkpt>
      <trkpt lat="44.24718" lon="2.53896">
        <ele>713</ele>
        <time>2022-06-12T08:07:04.977Z</time>
      </trkpt>
      <trkpt lat="44.24717" lon="2.53897">
        <ele>713</ele>
        <time>2022-06-12T08:07:05.977Z</time>
      </trkpt>
      <trkpt lat="44.24716" lon="2.53898">
        <ele>713</ele>
        <time>2022-06-12T08:07:06.977Z</time>
      </trkpt>
      <trkpt lat="44.24715" lon="2.53899">
        <ele>713</ele>
        <time>2022-06-12T08:07:07.977Z</time>
      </trkpt>
      <trkpt lat="44.24714" lon="2.539">
        <ele>713</ele>
        <time>2022-06-12T08:07:08.977Z</time>
      </trkpt>
      <trkpt lat="44.24713" lon="2.53902">
        <ele>714</ele>
        <time>2022-06-12T08:07:09.977Z</time>
      </trkpt>
      <trkpt lat="44.24712" lon="2.53903">
        <ele>714</ele>
        <time>2022-06-12T08:07:10.977Z</time>
      </trkpt>
      <trkpt lat="44.24711" lon="2.53904">
        <ele>714</ele>
        <time>2022-06-12T08:07:11.977Z</time>
      </trkpt>
      <trkpt lat="44.2471" lon="2.53906">
        <ele>714</ele>
        <time>2022-06-12T08:07:12.977Z</time>
      </trkpt>
      <trkpt lat="44.24709" lon="2.53907">
        <ele>714</ele>
        <time>2022-06-12T08:07:13.977Z</time>
      </trkpt>
      <trkpt lat="44.24708" lon="2.53908">
        <ele>714</ele>
        <time>2022-06-12T08:07:14.977Z</time>
      </trkpt>
      <trkpt lat="44.24707" lon="2.53909">
        <ele>714</ele>
        <time>2022-06-12T08:07:15.977Z</time>
      </trkpt>
      <trkpt lat="44.24706" lon="2.53911">
        <ele>714</ele>
        <time>2022-06-12T08:07:16.977Z</time>
      </trkpt>
      <trkpt lat="44.24705" lon="2.53912">
        <ele>714</ele>
        <time>2022-06-12T08:07:17.977Z</time>
      </trkpt>
      <trkpt lat="44.24704" lon="2.53913">
        <ele>714</ele>
        <time>2022-06-12T08:07:18.977Z</time>
      </trkpt>
      <trkpt lat="44.24703" lon="2.53915">
        <ele>714</ele>
        <time>2022-06-12T08:07:19.977Z</time>
      </trkpt>
      <trkpt lat="44.24702" lon="2.53916">
        <ele>714</ele>
        <time>2022-06-12T08:07:20.977Z</time>
      </trkpt>
      <trkpt lat="44.24701" lon="2.53917">
        <ele>714</ele>
        <time>2022-06-12T08:07:21.977Z</time>
      </trkpt>
      <trkpt lat="44.24701" lon="2.53919">
        <ele>714</ele>
        <time>2022-06-12T08:07:22.977Z</time>
      </trkpt>
      <trkpt lat="44.247" lon="2.5392">
        <ele>714</ele>
        <time>2022-06-12T08:07:23.977Z</time>
      </trkpt>
      <trkpt lat="44.24699" lon="2.53922">
        <ele>714</ele>
        <time>2022-06-12T08:07:24.977Z</time>
      </trkpt>
      <trkpt lat="44.24698" lon="2.53923">
        <ele>714</ele>
        <time>2022-06-12T08:07:25.977Z</time>
      </trkpt>
      <trkpt lat="44.24697" lon="2.53925">
        <ele>714</ele>
        <time>2022-06-12T08:07:26.977Z</time>
      </trkpt>
      <trkpt lat="44.24696" lon="2.53926">
        <ele>714</ele>
        <time>2022-06-12T08:07:27.977Z</time>
      </trkpt>
      <trkpt lat="44.24695" lon="2.53927">
        <ele>714</ele>
        <time>2022-06-12T08:07:28.977Z</time>
      </trkpt>
      <trkpt lat="44.24695" lon="2.53929">
        <ele>714</ele>
        <time>2022-06-12T08:07:29.977Z</time>
      </trkpt>
      <trkpt lat="44.24694" lon="2.5393">
        <ele>714</ele>
        <time>2022-06-12T08:07:30.977Z</time>
      </trkpt>
      <trkpt lat="44.24693" lon="2.53932">
        <ele>714</ele>
        <time>2022-06-12T08:07:31.977Z</time>
      </trkpt>
      <trkpt lat="44.24692" lon="2.53933">
        <ele>714</ele>
        <time>2022-06-12T08:07:32.977Z</time>
      </trkpt>
      <trkpt lat="44.24691" lon="2.53934">
        <ele>714</ele>
        <time>2022-06-12T08:07:33.977Z</time>
      </trkpt>
      <trkpt lat="44.24691" lon="2.53936">
        <ele>714</ele>
        <time>2022-06-12T08:07:34.977Z</time>
      </trkpt>
      <trkpt lat="44.2469" lon="2.53937">
        <ele>714</ele>
        <time>2022-06-12T08:07:35.977Z</time>
      </trkpt>
      <trkpt lat="44.24689" lon="2.53939">
        <ele>714</ele>
        <time>2022-06-12T08:07:36.977Z</time>
      </trkpt>
      <trkpt lat="44.24688" lon="2.5394">
        <ele>714</ele>
        <time>2022-06-12T08:07:37.977Z</time>
      </trkpt>
      <trkpt lat="44.24688" lon="2.53941">
        <ele>714</ele>
        <time>2022-06-12T08:07:38.977Z</time>
      </trkpt>
      <trkpt lat="44.24687" lon="2.53943">
        <ele>714</ele>
        <time>2022-06-12T08:07:39.977Z</time>
      </trkpt>
      <trkpt lat="44.24686" lon="2.53944">
        <ele>714</ele>
        <time>2022-06-12T08:07:40.977Z</time>
      </trkpt>
      <trkpt lat="44.24686" lon="2.53945">
        <ele>714</ele>
        <time>2022-06-12T08:07:41.977Z</time>
      </trkpt>
      <trkpt lat="44.24685" lon="2.53946">
        <ele>714</ele>
        <time>2022-06-12T08:07:42.977Z</time>
      </trkpt>
      <trkpt lat="44.24684" lon="2.53947">
        <ele>714</ele>
        <time>2022-06-12T08:07:43.977Z</time>
      </trkpt>
      <trkpt lat="44.24684" lon="2.53948">
        <ele>714</ele>
        <time>2022-06-12T08:07:44.977Z</time>
      </trkpt>
      <trkpt lat="44.24683" lon="2.53949">
        <ele>714</ele>
        <time>2022-06-12T08:07:45.977Z</time>
      </trkpt>
      <trkpt lat="44.24683" lon="2.5395">
        <ele>714</ele>
        <time>2022-06-12T08:07:46.977Z</time>
      </trkpt>
      <trkpt lat="44.24682" lon="2.53951">
        <ele>714</ele>
        <time>2022-06-12T08:07:47.977Z</time>
      </trkpt>
      <trkpt lat="44.24682" lon="2.53953">
        <ele>714</ele>
        <time>2022-06-12T08:07:48.977Z</time>
      </trkpt>
      <trkpt lat="44.24682" lon="2.53954">
        <ele>714</ele>
        <time>2022-06-12T08:07:49.977Z</time>
      </trkpt>
      <trkpt lat="44.24682" lon="2.53955">
        <ele>714</ele>
        <time>2022-06-12T08:07:50.977Z</time>
      </trkpt>
      <trkpt lat="44.24681" lon="2.53956">
        <ele>714</ele>
        <time>2022-06-12T08:07:51.977Z</time>
      </trkpt>
      <trkpt lat="44.24681" lon="2.53957">
        <ele>714</ele>
        <time>2022-06-12T08:07:52.977Z</time>
      </trkpt>
      <trkpt lat="44.24681" lon="2.53958">
        <ele>714</ele>
        <time>2022-06-12T08:07:53.977Z</time>
      </trkpt>
      <trkpt lat="44.2468" lon="2.53958">
        <ele>714</ele>
        <time>2022-06-12T08:07:54.977Z</time>
      </trkpt>
      <trkpt lat="44.2468" lon="2.53959">
        <ele>714</ele>
        <time>2022-06-12T08:07:55.977Z</time>
      </trkpt>
      <trkpt lat="44.2468" lon="2.53959">
        <ele>714</ele>
        <time>2022-06-12T08:07:56.977Z</time>
      </trkpt>
      <trkpt lat="44.2468" lon="2.53959">
        <ele>714</ele>
        <time>2022-06-12T08:07:57.977Z</time>
      </trkpt>
      <trkpt lat="44.24679" lon="2.53961">
        <ele>714</ele>
        <time>2022-06-12T08:08:18.986Z</time>
      </trkpt>
      <trkpt lat="44.24679" lon="2.53961">
        <ele>714</ele>
        <time>2022-06-12T08:08:19.986Z</time>
      </trkpt>
      <trkpt lat="44.24678" lon="2.53962">
        <ele>714</ele>
        <time>2022-06-12T08:08:20.986Z</time>
      </trkpt>
      <trkpt lat="44.24678" lon="2.53964">
        <ele>714</ele>
        <time>2022-06-12T08:08:21.986Z</time>
      </trkpt>
      <trkpt lat="44.24677" lon="2.53965">
        <ele>715</ele>
        <time>2022-06-12T08:08:22.986Z</time>
      </trkpt>
      <trkpt lat="44.24676" lon="2.53966">
        <ele>715</ele>
        <time>2022-06-12T08:08:23.986Z</time>
      </trkpt>
      <trkpt lat="44.24675" lon="2.53967">
        <ele>715</ele>
        <time>2022-06-12T08:08:24.986Z</time>
      </trkpt>
      <trkpt lat="44.24675" lon="2.53968">
        <ele>715</ele>
        <time>2022-06-12T08:08:25.986Z</time>
      </trkpt>
      <trkpt lat="44.24674" lon="2.53969">
        <ele>715</ele>
        <time>2022-06-12T08:08:26.986Z</time>
      </trkpt>
      <trkpt lat="44.24674" lon="2.5397">
        <ele>715</ele>
        <time>2022-06-12T08:08:27.986Z</time>
      </trkpt>
      <trkpt lat="44.24673" lon="2.53971">
        <ele>715</ele>
        <time>2022-06-12T08:08:28.986Z</time>
      </trkpt>
      <trkpt lat="44.24672" lon="2.53971">
        <ele>715</ele>
        <time>2022-06-12T08:08:29.986Z</time>
      </trkpt>
      <trkpt lat="44.24672" lon="2.53972">
        <ele>715</ele>
        <time>2022-06-12T08:08:30.986Z</time>
      </trkpt>
      <trkpt lat="44.24671" lon="2.53972">
        <ele>715</ele>
        <time>2022-06-12T08:08:31.986Z</time>
      </trkpt>
      <trkpt lat="44.24671" lon="2.53972">
        <ele>715</ele>
        <time>2022-06-12T08:08:32.986Z</time>
      </trkpt>
      <trkpt lat="44.24671" lon="2.53972">
        <ele>715</ele>
        <time>2022-06-12T08:08:33.986Z</time>
      </trkpt>
      <trkpt lat="44.24671" lon="2.53972">
        <ele>715</ele>
        <time>2022-06-12T08:08:34.986Z</time>
      </trkpt>
      <trkpt lat="44.24671" lon="2.53975">
        <ele>715</ele>
        <time>2022-06-12T08:08:38.265Z</time>
      </trkpt>
      <trkpt lat="44.2467" lon="2.53976">
        <ele>715</ele>
        <time>2022-06-12T08:08:39.265Z</time>
      </trkpt>
      <trkpt lat="44.2467" lon="2.53976">
        <ele>715</ele>
        <time>2022-06-12T08:08:40.265Z</time>
      </trkpt>
      <trkpt lat="44.2467" lon="2.53977">
        <ele>715</ele>
        <time>2022-06-12T08:08:41.265Z</time>
      </trkpt>
      <trkpt lat="44.24669" lon="2.53979">
        <ele>715</ele>
        <time>2022-06-12T08:08:42.265Z</time>
      </trkpt>
      <trkpt lat="44.24669" lon="2.5398">
        <ele>715</ele>
        <time>2022-06-12T08:08:43.265Z</time>
      </trkpt>
      <trkpt lat="44.24668" lon="2.53981">
        <ele>715</ele>
        <time>2022-06-12T08:08:44.265Z</time>
      </trkpt>
      <trkpt lat="44.24667" lon="2.53982">
        <ele>715</ele>
        <time>2022-06-12T08:08:45.265Z</time>
      </trkpt>
      <trkpt lat="44.24667" lon="2.53984">
        <ele>715</ele>
        <time>2022-06-12T08:08:46.265Z</time>
      </trkpt>
      <trkpt lat="44.24666" lon="2.53985">
        <ele>715</ele>
        <time>2022-06-12T08:08:47.265Z</time>
      </trkpt>
      <trkpt lat="44.24665" lon="2.53986">
        <ele>715</ele>
        <time>2022-06-12T08:08:48.265Z</time>
      </trkpt>
      <trkpt lat="44.24664" lon="2.53987">
        <ele>715</ele>
        <time>2022-06-12T08:08:49.265Z</time>
      </trkpt>
      <trkpt lat="44.24664" lon="2.53988">
        <ele>715</ele>
        <time>2022-06-12T08:08:50.265Z</time>
      </trkpt>
      <trkpt lat="44.24663" lon="2.53989">
        <ele>715</ele>
        <time>2022-06-12T08:08:51.265Z</time>
      </trkpt>
      <trkpt lat="44.24663" lon="2.53991">
        <ele>715</ele>
        <time>2022-06-12T08:08:52.265Z</time>
      </trkpt>
      <trkpt lat="44.24662" lon="2.53992">
        <ele>715</ele>
        <time>2022-06-12T08:08:53.265Z</time>
      </trkpt>
      <trkpt lat="44.24661" lon="2.53993">
        <ele>715</ele>
        <time>2022-06-12T08:08:54.265Z</time>
      </trkpt>
      <trkpt lat="44.24661" lon="2.53994">
        <ele>715</ele>
        <time>2022-06-12T08:08:55.265Z</time>
      </trkpt>
      <trkpt lat="44.2466" lon="2.53995">
        <ele>715</ele>
        <time>2022-06-12T08:08:56.265Z</time>
      </trkpt>
      <trkpt lat="44.24659" lon="2.53997">
        <ele>715</ele>
        <time>2022-06-12T08:08:57.265Z</time>
      </trkpt>
      <trkpt lat="44.24659" lon="2.53998">
        <ele>715</ele>
        <time>2022-06-12T08:08:58.265Z</time>
      </trkpt>
      <trkpt lat="44.24658" lon="2.53999">
        <ele>715</ele>
        <time>2022-06-12T08:08:59.265Z</time>
      </trkpt>
      <trkpt lat="44.24658" lon="2.54">
        <ele>715</ele>
        <time>2022-06-12T08:09:00.265Z</time>
      </trkpt>
      <trkpt lat="44.24657" lon="2.54002">
        <ele>715</ele>
        <time>2022-06-12T08:09:01.265Z</time>
      </trkpt>
      <trkpt lat="44.24657" lon="2.54003">
        <ele>715</ele>
        <time>2022-06-12T08:09:02.265Z</time>
      </trkpt>
      <trkpt lat="44.24656" lon="2.54005">
        <ele>715</ele>
        <time>2022-06-12T08:09:03.265Z</time>
      </trkpt>
      <trkpt lat="44.24656" lon="2.54006">
        <ele>715</ele>
        <time>2022-06-12T08:09:04.265Z</time>
      </trkpt>
      <trkpt lat="44.24655" lon="2.54008">
        <ele>715</ele>
        <time>2022-06-12T08:09:05.265Z</time>
      </trkpt>
      <trkpt lat="44.24655" lon="2.54009">
        <ele>715</ele>
        <time>2022-06-12T08:09:06.265Z</time>
      </trkpt>
      <trkpt lat="44.24654" lon="2.54011">
        <ele>715</ele>
        <time>2022-06-12T08:09:07.265Z</time>
      </trkpt>
      <trkpt lat="44.24654" lon="2.54012">
        <ele>715</ele>
        <time>2022-06-12T08:09:08.265Z</time>
      </trkpt>
      <trkpt lat="44.24653" lon="2.54014">
        <ele>715</ele>
        <time>2022-06-12T08:09:09.265Z</time>
      </trkpt>
      <trkpt lat="44.24653" lon="2.54015">
        <ele>715</ele>
        <time>2022-06-12T08:09:10.265Z</time>
      </trkpt>
      <trkpt lat="44.24653" lon="2.54017">
        <ele>715</ele>
        <time>2022-06-12T08:09:11.265Z</time>
      </trkpt>
      <trkpt lat="44.24652" lon="2.54018">
        <ele>715</ele>
        <time>2022-06-12T08:09:12.265Z</time>
      </trkpt>
      <trkpt lat="44.24652" lon="2.5402">
        <ele>715</ele>
        <time>2022-06-12T08:09:13.265Z</time>
      </trkpt>
      <trkpt lat="44.24651" lon="2.54022">
        <ele>715</ele>
        <time>2022-06-12T08:09:14.265Z</time>
      </trkpt>
      <trkpt lat="44.24651" lon="2.54023">
        <ele>715</ele>
        <time>2022-06-12T08:09:15.265Z</time>
      </trkpt>
      <trkpt lat="44.2465" lon="2.54024">
        <ele>715</ele>
        <time>2022-06-12T08:09:16.265Z</time>
      </trkpt>
      <trkpt lat="44.2465" lon="2.54026">
        <ele>715</ele>
        <time>2022-06-12T08:09:17.265Z</time>
      </trkpt>
      <trkpt lat="44.24649" lon="2.54027">
        <ele>715</ele>
        <time>2022-06-12T08:09:18.265Z</time>
      </trkpt>
      <trkpt lat="44.24649" lon="2.54029">
        <ele>715</ele>
        <time>2022-06-12T08:09:19.265Z</time>
      </trkpt>
      <trkpt lat="44.24648" lon="2.5403">
        <ele>715</ele>
        <time>2022-06-12T08:09:20.265Z</time>
      </trkpt>
      <trkpt lat="44.24648" lon="2.54032">
        <ele>715</ele>
        <time>2022-06-12T08:09:21.265Z</time>
      </trkpt>
      <trkpt lat="44.24647" lon="2.54033">
        <ele>715</ele>
        <time>2022-06-12T08:09:22.265Z</time>
      </trkpt>
      <trkpt lat="44.24647" lon="2.54035">
        <ele>715</ele>
        <time>2022-06-12T08:09:23.265Z</time>
      </trkpt>
      <trkpt lat="44.24647" lon="2.54036">
        <ele>715</ele>
        <time>2022-06-12T08:09:24.265Z</time>
      </trkpt>
      <trkpt lat="44.24646" lon="2.54038">
        <ele>715</ele>
        <time>2022-06-12T08:09:25.265Z</time>
      </trkpt>
      <trkpt lat="44.24646" lon="2.54039">
        <ele>715</ele>
        <time>2022-06-12T08:09:26.265Z</time>
      </trkpt>
      <trkpt lat="44.24645" lon="2.54041">
        <ele>715</ele>
        <time>2022-06-12T08:09:27.265Z</time>
      </trkpt>
      <trkpt lat="44.24645" lon="2.54042">
        <ele>715</ele>
        <time>2022-06-12T08:09:28.265Z</time>
      </trkpt>
      <trkpt lat="44.24644" lon="2.54044">
        <ele>715</ele>
        <time>2022-06-12T08:09:29.265Z</time>
      </trkpt>
      <trkpt lat="44.24644" lon="2.54045">
        <ele>715</ele>
        <time>2022-06-12T08:09:30.265Z</time>
      </trkpt>
      <trkpt lat="44.24643" lon="2.54047">
        <ele>715</ele>
        <time>2022-06-12T08:09:31.265Z</time>
      </trkpt>
      <trkpt lat="44.24643" lon="2.54048">
        <ele>715</ele>
        <time>2022-06-12T08:09:32.265Z</time>
      </trkpt>
      <trkpt lat="44.24642" lon="2.5405">
        <ele>715</ele>
        <time>2022-06-12T08:09:33.265Z</time>
      </trkpt>
      <trkpt lat="44.24642" lon="2.54052">
        <ele>715</ele>
        <time>2022-06-12T08:09:34.265Z</time>
      </trkpt>
      <trkpt lat="44.24641" lon="2.54053">
        <ele>715</ele>
        <time>2022-06-12T08:09:35.265Z</time>
      </trkpt>
      <trkpt lat="44.24641" lon="2.54055">
        <ele>715</ele>
        <time>2022-06-12T08:09:36.265Z</time>
      </trkpt>
      <trkpt lat="44.2464" lon="2.54056">
        <ele>715</ele>
        <time>2022-06-12T08:09:37.265Z</time>
      </trkpt>
      <trkpt lat="44.2464" lon="2.54058">
        <ele>715</ele>
        <time>2022-06-12T08:09:38.265Z</time>
      </trkpt>
      <trkpt lat="44.2464" lon="2.54059">
        <ele>714</ele>
        <time>2022-06-12T08:09:39.265Z</time>
      </trkpt>
      <trkpt lat="44.24639" lon="2.54061">
        <ele>714</ele>
        <time>2022-06-12T08:09:40.265Z</time>
      </trkpt>
      <trkpt lat="44.24639" lon="2.54062">
        <ele>714</ele>
        <time>2022-06-12T08:09:41.265Z</time>
      </trkpt>
      <trkpt lat="44.24639" lon="2.54064">
        <ele>714</ele>
        <time>2022-06-12T08:09:42.265Z</time>
      </trkpt>
      <trkpt lat="44.24638" lon="2.54066">
        <ele>714</ele>
        <time>2022-06-12T08:09:43.265Z</time>
      </trkpt>
      <trkpt lat="44.24638" lon="2.54067">
        <ele>714</ele>
        <time>2022-06-12T08:09:44.265Z</time>
      </trkpt>
      <trkpt lat="44.24637" lon="2.54069">
        <ele>714</ele>
        <time>2022-06-12T08:09:45.265Z</time>
      </trkpt>
      <trkpt lat="44.24637" lon="2.54071">
        <ele>714</ele>
        <time>2022-06-12T08:09:46.265Z</time>
      </trkpt>
      <trkpt lat="44.24636" lon="2.54072">
        <ele>714</ele>
        <time>2022-06-12T08:09:47.265Z</time>
      </trkpt>
      <trkpt lat="44.24636" lon="2.54074">
        <ele>714</ele>
        <time>2022-06-12T08:09:48.265Z</time>
      </trkpt>
      <trkpt lat="44.24635" lon="2.54075">
        <ele>714</ele>
        <time>2022-06-12T08:09:49.265Z</time>
      </trkpt>
      <trkpt lat="44.24635" lon="2.54077">
        <ele>714</ele>
        <time>2022-06-12T08:09:50.265Z</time>
      </trkpt>
      <trkpt lat="44.24635" lon="2.54079">
        <ele>714</ele>
        <time>2022-06-12T08:09:51.265Z</time>
      </trkpt>
      <trkpt lat="44.24634" lon="2.5408">
        <ele>714</ele>
        <time>2022-06-12T08:09:52.265Z</time>
      </trkpt>
      <trkpt lat="44.24634" lon="2.54082">
        <ele>714</ele>
        <time>2022-06-12T08:09:53.265Z</time>
      </trkpt>
      <trkpt lat="44.24633" lon="2.54083">
        <ele>714</ele>
        <time>2022-06-12T08:09:54.265Z</time>
      </trkpt>
      <trkpt lat="44.24633" lon="2.54085">
        <ele>714</ele>
        <time>2022-06-12T08:09:55.265Z</time>
      </trkpt>
      <trkpt lat="44.24633" lon="2.54087">
        <ele>714</ele>
        <time>2022-06-12T08:09:56.265Z</time>
      </trkpt>
      <trkpt lat="44.24632" lon="2.54088">
        <ele>714</ele>
        <time>2022-06-12T08:09:57.265Z</time>
      </trkpt>
      <trkpt lat="44.24632" lon="2.5409">
        <ele>714</ele>
        <time>2022-06-12T08:09:58.265Z</time>
      </trkpt>
      <trkpt lat="44.24632" lon="2.54091">
        <ele>714</ele>
        <time>2022-06-12T08:09:59.265Z</time>
      </trkpt>
      <trkpt lat="44.24631" lon="2.54093">
        <ele>714</ele>
        <time>2022-06-12T08:10:00.265Z</time>
      </trkpt>
      <trkpt lat="44.24631" lon="2.54094">
        <ele>714</ele>
        <time>2022-06-12T08:10:01.265Z</time>
      </trkpt>
      <trkpt lat="44.2463" lon="2.54096">
        <ele>713</ele>
        <time>2022-06-12T08:10:02.265Z</time>
      </trkpt>
      <trkpt lat="44.2463" lon="2.54097">
        <ele>713</ele>
        <time>2022-06-12T08:10:03.265Z</time>
      </trkpt>
      <trkpt lat="44.24629" lon="2.54099">
        <ele>713</ele>
        <time>2022-06-12T08:10:04.265Z</time>
      </trkpt>
      <trkpt lat="44.24629" lon="2.541">
        <ele>713</ele>
        <time>2022-06-12T08:10:05.265Z</time>
      </trkpt>
      <trkpt lat="44.24629" lon="2.54102">
        <ele>713</ele>
        <time>2022-06-12T08:10:06.265Z</time>
      </trkpt>
      <trkpt lat="44.24628" lon="2.54103">
        <ele>713</ele>
        <time>2022-06-12T08:10:07.265Z</time>
      </trkpt>
      <trkpt lat="44.24628" lon="2.54105">
        <ele>713</ele>
        <time>2022-06-12T08:10:08.265Z</time>
      </trkpt>
      <trkpt lat="44.24627" lon="2.54107">
        <ele>713</ele>
        <time>2022-06-12T08:10:09.265Z</time>
      </trkpt>
      <trkpt lat="44.24627" lon="2.54108">
        <ele>713</ele>
        <time>2022-06-12T08:10:10.265Z</time>
      </trkpt>
      <trkpt lat="44.24627" lon="2.5411">
        <ele>713</ele>
        <time>2022-06-12T08:10:11.265Z</time>
      </trkpt>
      <trkpt lat="44.24626" lon="2.54111">
        <ele>713</ele>
        <time>2022-06-12T08:10:12.265Z</time>
      </trkpt>
      <trkpt lat="44.24626" lon="2.54113">
        <ele>712</ele>
        <time>2022-06-12T08:10:13.265Z</time>
      </trkpt>
      <trkpt lat="44.24626" lon="2.54114">
        <ele>712</ele>
        <time>2022-06-12T08:10:14.265Z</time>
      </trkpt>
      <trkpt lat="44.24625" lon="2.54116">
        <ele>712</ele>
        <time>2022-06-12T08:10:15.265Z</time>
      </trkpt>
      <trkpt lat="44.24625" lon="2.54117">
        <ele>712</ele>
        <time>2022-06-12T08:10:16.265Z</time>
      </trkpt>
      <trkpt lat="44.24625" lon="2.54119">
        <ele>712</ele>
        <time>2022-06-12T08:10:17.265Z</time>
      </trkpt>
      <trkpt lat="44.24624" lon="2.54121">
        <ele>712</ele>
        <time>2022-06-12T08:10:18.265Z</time>
      </trkpt>
      <trkpt lat="44.24624" lon="2.54123">
        <ele>712</ele>
        <time>2022-06-12T08:10:19.265Z</time>
      </trkpt>
      <trkpt lat="44.24623" lon="2.54124">
        <ele>712</ele>
        <time>2022-06-12T08:10:20.265Z</time>
      </trkpt>
      <trkpt lat="44.24623" lon="2.54126">
        <ele>712</ele>
        <time>2022-06-12T08:10:21.265Z</time>
      </trkpt>
      <trkpt lat="44.24622" lon="2.54127">
        <ele>712</ele>
        <time>2022-06-12T08:10:22.265Z</time>
      </trkpt>
      <trkpt lat="44.24622" lon="2.54129">
        <ele>712</ele>
        <time>2022-06-12T08:10:23.265Z</time>
      </trkpt>
      <trkpt lat="44.24621" lon="2.5413">
        <ele>712</ele>
        <time>2022-06-12T08:10:24.265Z</time>
      </trkpt>
      <trkpt lat="44.24621" lon="2.54132">
        <ele>712</ele>
        <time>2022-06-12T08:10:25.265Z</time>
      </trkpt>
      <trkpt lat="44.2462" lon="2.54134">
        <ele>712</ele>
        <time>2022-06-12T08:10:26.265Z</time>
      </trkpt>
      <trkpt lat="44.2462" lon="2.54135">
        <ele>712</ele>
        <time>2022-06-12T08:10:27.265Z</time>
      </trkpt>
      <trkpt lat="44.24619" lon="2.54137">
        <ele>712</ele>
        <time>2022-06-12T08:10:28.265Z</time>
      </trkpt>
      <trkpt lat="44.24619" lon="2.54139">
        <ele>712</ele>
        <time>2022-06-12T08:10:29.265Z</time>
      </trkpt>
      <trkpt lat="44.24618" lon="2.5414">
        <ele>712</ele>
        <time>2022-06-12T08:10:30.265Z</time>
      </trkpt>
      <trkpt lat="44.24618" lon="2.54142">
        <ele>712</ele>
        <time>2022-06-12T08:10:31.265Z</time>
      </trkpt>
      <trkpt lat="44.24617" lon="2.54144">
        <ele>712</ele>
        <time>2022-06-12T08:10:32.265Z</time>
      </trkpt>
      <trkpt lat="44.24617" lon="2.54145">
        <ele>712</ele>
        <time>2022-06-12T08:10:33.265Z</time>
      </trkpt>
      <trkpt lat="44.24617" lon="2.54147">
        <ele>712</ele>
        <time>2022-06-12T08:10:34.265Z</time>
      </trkpt>
      <trkpt lat="44.24616" lon="2.54148">
        <ele>712</ele>
        <time>2022-06-12T08:10:35.265Z</time>
      </trkpt>
      <trkpt lat="44.24616" lon="2.5415">
        <ele>712</ele>
        <time>2022-06-12T08:10:36.265Z</time>
      </trkpt>
      <trkpt lat="44.24616" lon="2.54152">
        <ele>712</ele>
        <time>2022-06-12T08:10:37.265Z</time>
      </trkpt>
      <trkpt lat="44.24615" lon="2.54153">
        <ele>712</ele>
        <time>2022-06-12T08:10:38.265Z</time>
      </trkpt>
      <trkpt lat="44.24615" lon="2.54155">
        <ele>712</ele>
        <time>2022-06-12T08:10:39.265Z</time>
      </trkpt>
      <trkpt lat="44.24614" lon="2.54157">
        <ele>712</ele>
        <time>2022-06-12T08:10:40.265Z</time>
      </trkpt>
      <trkpt lat="44.24614" lon="2.54158">
        <ele>712</ele>
        <time>2022-06-12T08:10:41.265Z</time>
      </trkpt>
      <trkpt lat="44.24614" lon="2.5416">
        <ele>712</ele>
        <time>2022-06-12T08:10:42.265Z</time>
      </trkpt>
      <trkpt lat="44.24613" lon="2.54162">
        <ele>711</ele>
        <time>2022-06-12T08:10:43.265Z</time>
      </trkpt>
      <trkpt lat="44.24613" lon="2.54163">
        <ele>711</ele>
        <time>2022-06-12T08:10:44.265Z</time>
      </trkpt>
      <trkpt lat="44.24613" lon="2.54165">
        <ele>711</ele>
        <time>2022-06-12T08:10:45.265Z</time>
      </trkpt>
      <trkpt lat="44.24612" lon="2.54167">
        <ele>711</ele>
        <time>2022-06-12T08:10:46.265Z</time>
      </trkpt>
      <trkpt lat="44.24612" lon="2.54168">
        <ele>711</ele>
        <time>2022-06-12T08:10:47.265Z</time>
      </trkpt>
      <trkpt lat="44.24611" lon="2.5417">
        <ele>711</ele>
        <time>2022-06-12T08:10:48.265Z</time>
      </trkpt>
      <trkpt lat="44.24611" lon="2.54171">
        <ele>711</ele>
        <time>2022-06-12T08:10:49.265Z</time>
      </trkpt>
      <trkpt lat="44.24611" lon="2.54173">
        <ele>711</ele>
        <time>2022-06-12T08:10:50.265Z</time>
      </trkpt>
      <trkpt lat="44.2461" lon="2.54174">
        <ele>711</ele>
        <time>2022-06-12T08:10:51.265Z</time>
      </trkpt>
      <trkpt lat="44.2461" lon="2.54176">
        <ele>711</ele>
        <time>2022-06-12T08:10:52.265Z</time>
      </trkpt>
      <trkpt lat="44.2461" lon="2.54178">
        <ele>711</ele>
        <time>2022-06-12T08:10:53.265Z</time>
      </trkpt>
      <trkpt lat="44.24609" lon="2.54179">
        <ele>711</ele>
        <time>2022-06-12T08:10:54.265Z</time>
      </trkpt>
      <trkpt lat="44.24609" lon="2.54181">
        <ele>711</ele>
        <time>2022-06-12T08:10:55.265Z</time>
      </trkpt>
      <trkpt lat="44.24608" lon="2.54183">
        <ele>711</ele>
        <time>2022-06-12T08:10:56.265Z</time>
      </trkpt>
      <trkpt lat="44.24608" lon="2.54184">
        <ele>711</ele>
        <time>2022-06-12T08:10:57.265Z</time>
      </trkpt>
      <trkpt lat="44.24608" lon="2.54186">
        <ele>711</ele>
        <time>2022-06-12T08:10:58.265Z</time>
      </trkpt>
      <trkpt lat="44.24608" lon="2.54188">
        <ele>711</ele>
        <time>2022-06-12T08:10:59.265Z</time>
      </trkpt>
      <trkpt lat="44.24607" lon="2.54189">
        <ele>711</ele>
        <time>2022-06-12T08:11:00.265Z</time>
      </trkpt>
      <trkpt lat="44.24607" lon="2.54191">
        <ele>711</ele>
        <time>2022-06-12T08:11:01.265Z</time>
      </trkpt>
      <trkpt lat="44.24607" lon="2.54193">
        <ele>711</ele>
        <time>2022-06-12T08:11:02.265Z</time>
      </trkpt>
      <trkpt lat="44.24606" lon="2.54194">
        <ele>711</ele>
        <time>2022-06-12T08:11:03.265Z</time>
      </trkpt>
      <trkpt lat="44.24606" lon="2.54196">
        <ele>711</ele>
        <time>2022-06-12T08:11:04.265Z</time>
      </trkpt>
      <trkpt lat="44.24606" lon="2.54198">
        <ele>711</ele>
        <time>2022-06-12T08:11:05.265Z</time>
      </trkpt>
      <trkpt lat="44.24605" lon="2.54199">
        <ele>711</ele>
        <time>2022-06-12T08:11:06.265Z</time>
      </trkpt>
      <trkpt lat="44.24605" lon="2.54201">
        <ele>711</ele>
        <time>2022-06-12T08:11:07.265Z</time>
      </trkpt>
      <trkpt lat="44.24605" lon="2.54203">
        <ele>711</ele>
        <time>2022-06-12T08:11:08.265Z</time>
      </trkpt>
      <trkpt lat="44.24604" lon="2.54205">
        <ele>711</ele>
        <time>2022-06-12T08:11:09.265Z</time>
      </trkpt>
      <trkpt lat="44.24604" lon="2.54207">
        <ele>711</ele>
        <time>2022-06-12T08:11:10.265Z</time>
      </trkpt>
      <trkpt lat="44.24604" lon="2.54208">
        <ele>711</ele>
        <time>2022-06-12T08:11:11.265Z</time>
      </trkpt>
      <trkpt lat="44.24603" lon="2.5421">
        <ele>711</ele>
        <time>2022-06-12T08:11:12.265Z</time>
      </trkpt>
      <trkpt lat="44.24603" lon="2.54212">
        <ele>711</ele>
        <time>2022-06-12T08:11:13.265Z</time>
      </trkpt>
      <trkpt lat="44.24602" lon="2.54214">
        <ele>711</ele>
        <time>2022-06-12T08:11:14.265Z</time>
      </trkpt>
      <trkpt lat="44.24602" lon="2.54215">
        <ele>711</ele>
        <time>2022-06-12T08:11:15.265Z</time>
      </trkpt>
      <trkpt lat="44.24602" lon="2.54217">
        <ele>711</ele>
        <time>2022-06-12T08:11:16.265Z</time>
      </trkpt>
      <trkpt lat="44.24601" lon="2.54219">
        <ele>711</ele>
        <time>2022-06-12T08:11:17.265Z</time>
      </trkpt>
      <trkpt lat="44.24601" lon="2.54221">
        <ele>711</ele>
        <time>2022-06-12T08:11:18.265Z</time>
      </trkpt>
      <trkpt lat="44.246" lon="2.54222">
        <ele>711</ele>
        <time>2022-06-12T08:11:19.265Z</time>
      </trkpt>
      <trkpt lat="44.246" lon="2.54224">
        <ele>711</ele>
        <time>2022-06-12T08:11:20.265Z</time>
      </trkpt>
      <trkpt lat="44.24599" lon="2.54226">
        <ele>710</ele>
        <time>2022-06-12T08:11:21.265Z</time>
      </trkpt>
      <trkpt lat="44.24599" lon="2.54227">
        <ele>710</ele>
        <time>2022-06-12T08:11:22.265Z</time>
      </trkpt>
      <trkpt lat="44.24599" lon="2.54229">
        <ele>710</ele>
        <time>2022-06-12T08:11:23.265Z</time>
      </trkpt>
      <trkpt lat="44.24599" lon="2.54231">
        <ele>710</ele>
        <time>2022-06-12T08:11:24.265Z</time>
      </trkpt>
      <trkpt lat="44.24598" lon="2.54232">
        <ele>710</ele>
        <time>2022-06-12T08:11:25.265Z</time>
      </trkpt>
      <trkpt lat="44.24598" lon="2.54234">
        <ele>710</ele>
        <time>2022-06-12T08:11:26.265Z</time>
      </trkpt>
      <trkpt lat="44.24597" lon="2.54236">
        <ele>710</ele>
        <time>2022-06-12T08:11:27.265Z</time>
      </trkpt>
      <trkpt lat="44.24597" lon="2.54237">
        <ele>710</ele>
        <time>2022-06-12T08:11:28.265Z</time>
      </trkpt>
      <trkpt lat="44.24596" lon="2.54239">
        <ele>710</ele>
        <time>2022-06-12T08:11:29.265Z</time>
      </trkpt>
      <trkpt lat="44.24596" lon="2.54241">
        <ele>710</ele>
        <time>2022-06-12T08:11:30.265Z</time>
      </trkpt>
      <trkpt lat="44.24595" lon="2.54242">
        <ele>709</ele>
        <time>2022-06-12T08:11:31.265Z</time>
      </trkpt>
      <trkpt lat="44.24595" lon="2.54244">
        <ele>709</ele>
        <time>2022-06-12T08:11:32.265Z</time>
      </trkpt>
      <trkpt lat="44.24594" lon="2.54246">
        <ele>710</ele>
        <time>2022-06-12T08:11:33.265Z</time>
      </trkpt>
      <trkpt lat="44.24594" lon="2.54247">
        <ele>709</ele>
        <time>2022-06-12T08:11:34.265Z</time>
      </trkpt>
      <trkpt lat="44.24594" lon="2.54249">
        <ele>709</ele>
        <time>2022-06-12T08:11:35.265Z</time>
      </trkpt>
      <trkpt lat="44.24593" lon="2.54251">
        <ele>709</ele>
        <time>2022-06-12T08:11:36.265Z</time>
      </trkpt>
      <trkpt lat="44.24593" lon="2.54253">
        <ele>709</ele>
        <time>2022-06-12T08:11:37.265Z</time>
      </trkpt>
      <trkpt lat="44.24592" lon="2.54254">
        <ele>709</ele>
        <time>2022-06-12T08:11:38.265Z</time>
      </trkpt>
      <trkpt lat="44.24592" lon="2.54256">
        <ele>709</ele>
        <time>2022-06-12T08:11:39.265Z</time>
      </trkpt>
      <trkpt lat="44.24591" lon="2.54258">
        <ele>709</ele>
        <time>2022-06-12T08:11:40.265Z</time>
      </trkpt>
      <trkpt lat="44.24591" lon="2.54259">
        <ele>709</ele>
        <time>2022-06-12T08:11:41.265Z</time>
      </trkpt>
      <trkpt lat="44.2459" lon="2.54261">
        <ele>709</ele>
        <time>2022-06-12T08:11:42.265Z</time>
      </trkpt>
      <trkpt lat="44.2459" lon="2.54263">
        <ele>709</ele>
        <time>2022-06-12T08:11:43.265Z</time>
      </trkpt>
      <trkpt lat="44.24589" lon="2.54264">
        <ele>709</ele>
        <time>2022-06-12T08:11:44.265Z</time>
      </trkpt>
      <trkpt lat="44.24589" lon="2.54266">
        <ele>709</ele>
        <time>2022-06-12T08:11:45.265Z</time>
      </trkpt>
      <trkpt lat="44.24588" lon="2.54268">
        <ele>709</ele>
        <time>2022-06-12T08:11:46.265Z</time>
      </trkpt>
      <trkpt lat="44.24588" lon="2.54269">
        <ele>709</ele>
        <time>2022-06-12T08:11:47.265Z</time>
      </trkpt>
      <trkpt lat="44.24587" lon="2.54271">
        <ele>709</ele>
        <time>2022-06-12T08:11:48.265Z</time>
      </trkpt>
      <trkpt lat="44.24587" lon="2.54273">
        <ele>709</ele>
        <time>2022-06-12T08:11:49.265Z</time>
      </trkpt>
      <trkpt lat="44.24586" lon="2.54274">
        <ele>709</ele>
        <time>2022-06-12T08:11:50.265Z</time>
      </trkpt>
      <trkpt lat="44.24586" lon="2.54276">
        <ele>709</ele>
        <time>2022-06-12T08:11:51.265Z</time>
      </trkpt>
      <trkpt lat="44.24585" lon="2.54278">
        <ele>709</ele>
        <time>2022-06-12T08:11:52.265Z</time>
      </trkpt>
      <trkpt lat="44.24585" lon="2.54279">
        <ele>709</ele>
        <time>2022-06-12T08:11:53.265Z</time>
      </trkpt>
      <trkpt lat="44.24584" lon="2.54281">
        <ele>709</ele>
        <time>2022-06-12T08:11:54.265Z</time>
      </trkpt>
      <trkpt lat="44.24584" lon="2.54282">
        <ele>709</ele>
        <time>2022-06-12T08:11:55.265Z</time>
      </trkpt>
      <trkpt lat="44.24583" lon="2.54284">
        <ele>709</ele>
        <time>2022-06-12T08:11:56.265Z</time>
      </trkpt>
      <trkpt lat="44.24582" lon="2.54285">
        <ele>709</ele>
        <time>2022-06-12T08:11:57.265Z</time>
      </trkpt>
      <trkpt lat="44.24582" lon="2.54287">
        <ele>709</ele>
        <time>2022-06-12T08:11:58.265Z</time>
      </trkpt>
      <trkpt lat="44.24581" lon="2.54288">
        <ele>709</ele>
        <time>2022-06-12T08:11:59.265Z</time>
      </trkpt>
      <trkpt lat="44.24581" lon="2.5429">
        <ele>709</ele>
        <time>2022-06-12T08:12:00.265Z</time>
      </trkpt>
      <trkpt lat="44.2458" lon="2.54291">
        <ele>709</ele>
        <time>2022-06-12T08:12:01.265Z</time>
      </trkpt>
      <trkpt lat="44.24579" lon="2.54293">
        <ele>709</ele>
        <time>2022-06-12T08:12:02.265Z</time>
      </trkpt>
      <trkpt lat="44.24578" lon="2.54294">
        <ele>709</ele>
        <time>2022-06-12T08:12:03.265Z</time>
      </trkpt>
      <trkpt lat="44.24578" lon="2.54296">
        <ele>709</ele>
        <time>2022-06-12T08:12:04.265Z</time>
      </trkpt>
      <trkpt lat="44.24577" lon="2.54297">
        <ele>709</ele>
        <time>2022-06-12T08:12:05.265Z</time>
      </trkpt>
      <trkpt lat="44.24576" lon="2.54298">
        <ele>709</ele>
        <time>2022-06-12T08:12:06.265Z</time>
      </trkpt>
      <trkpt lat="44.24575" lon="2.543">
        <ele>709</ele>
        <time>2022-06-12T08:12:07.265Z</time>
      </trkpt>
      <trkpt lat="44.24575" lon="2.54301">
        <ele>709</ele>
        <time>2022-06-12T08:12:08.265Z</time>
      </trkpt>
      <trkpt lat="44.24574" lon="2.54303">
        <ele>709</ele>
        <time>2022-06-12T08:12:09.265Z</time>
      </trkpt>
      <trkpt lat="44.24573" lon="2.54304">
        <ele>709</ele>
        <time>2022-06-12T08:12:10.265Z</time>
      </trkpt>
      <trkpt lat="44.24573" lon="2.54306">
        <ele>709</ele>
        <time>2022-06-12T08:12:11.265Z</time>
      </trkpt>
      <trkpt lat="44.24572" lon="2.54307">
        <ele>709</ele>
        <time>2022-06-12T08:12:12.265Z</time>
      </trkpt>
      <trkpt lat="44.24572" lon="2.54309">
        <ele>709</ele>
        <time>2022-06-12T08:12:13.265Z</time>
      </trkpt>
      <trkpt lat="44.24571" lon="2.5431">
        <ele>709</ele>
        <time>2022-06-12T08:12:14.265Z</time>
      </trkpt>
      <trkpt lat="44.2457" lon="2.54312">
        <ele>709</ele>
        <time>2022-06-12T08:12:15.265Z</time>
      </trkpt>
      <trkpt lat="44.24569" lon="2.54313">
        <ele>709</ele>
        <time>2022-06-12T08:12:16.265Z</time>
      </trkpt>
      <trkpt lat="44.24569" lon="2.54315">
        <ele>709</ele>
        <time>2022-06-12T08:12:17.265Z</time>
      </trkpt>
      <trkpt lat="44.24568" lon="2.54316">
        <ele>709</ele>
        <time>2022-06-12T08:12:18.265Z</time>
      </trkpt>
      <trkpt lat="44.24567" lon="2.54317">
        <ele>709</ele>
        <time>2022-06-12T08:12:19.265Z</time>
      </trkpt>
      <trkpt lat="44.24567" lon="2.54319">
        <ele>709</ele>
        <time>2022-06-12T08:12:20.265Z</time>
      </trkpt>
      <trkpt lat="44.24566" lon="2.5432">
        <ele>709</ele>
        <time>2022-06-12T08:12:21.265Z</time>
      </trkpt>
      <trkpt lat="44.24565" lon="2.54322">
        <ele>709</ele>
        <time>2022-06-12T08:12:22.265Z</time>
      </trkpt>
      <trkpt lat="44.24565" lon="2.54324">
        <ele>709</ele>
        <time>2022-06-12T08:12:23.265Z</time>
      </trkpt>
      <trkpt lat="44.24564" lon="2.54325">
        <ele>709</ele>
        <time>2022-06-12T08:12:24.265Z</time>
      </trkpt>
      <trkpt lat="44.24563" lon="2.54327">
        <ele>709</ele>
        <time>2022-06-12T08:12:25.265Z</time>
      </trkpt>
      <trkpt lat="44.24563" lon="2.54328">
        <ele>709</ele>
        <time>2022-06-12T08:12:26.265Z</time>
      </trkpt>
      <trkpt lat="44.24562" lon="2.5433">
        <ele>709</ele>
        <time>2022-06-12T08:12:27.265Z</time>
      </trkpt>
      <trkpt lat="44.24561" lon="2.54331">
        <ele>709</ele>
        <time>2022-06-12T08:12:28.265Z</time>
      </trkpt>
      <trkpt lat="44.24561" lon="2.54333">
        <ele>709</ele>
        <time>2022-06-12T08:12:29.265Z</time>
      </trkpt>
      <trkpt lat="44.2456" lon="2.54334">
        <ele>709</ele>
        <time>2022-06-12T08:12:30.265Z</time>
      </trkpt>
      <trkpt lat="44.24559" lon="2.54336">
        <ele>709</ele>
        <time>2022-06-12T08:12:31.265Z</time>
      </trkpt>
      <trkpt lat="44.24559" lon="2.54337">
        <ele>709</ele>
        <time>2022-06-12T08:12:32.265Z</time>
      </trkpt>
      <trkpt lat="44.24558" lon="2.54338">
        <ele>709</ele>
        <time>2022-06-12T08:12:33.265Z</time>
      </trkpt>
      <trkpt lat="44.24558" lon="2.5434">
        <ele>709</ele>
        <time>2022-06-12T08:12:34.265Z</time>
      </trkpt>
      <trkpt lat="44.24557" lon="2.54341">
        <ele>709</ele>
        <time>2022-06-12T08:12:35.265Z</time>
      </trkpt>
      <trkpt lat="44.24556" lon="2.54343">
        <ele>709</ele>
        <time>2022-06-12T08:12:36.265Z</time>
      </trkpt>
      <trkpt lat="44.24556" lon="2.54344">
        <ele>709</ele>
        <time>2022-06-12T08:12:37.265Z</time>
      </trkpt>
      <trkpt lat="44.24555" lon="2.54346">
        <ele>709</ele>
        <time>2022-06-12T08:12:38.265Z</time>
      </trkpt>
      <trkpt lat="44.24555" lon="2.54347">
        <ele>709</ele>
        <time>2022-06-12T08:12:39.265Z</time>
      </trkpt>
      <trkpt lat="44.24554" lon="2.54349">
        <ele>709</ele>
        <time>2022-06-12T08:12:40.265Z</time>
      </trkpt>
      <trkpt lat="44.24553" lon="2.5435">
        <ele>709</ele>
        <time>2022-06-12T08:12:41.265Z</time>
      </trkpt>
      <trkpt lat="44.24553" lon="2.54352">
        <ele>709</ele>
        <time>2022-06-12T08:12:42.265Z</time>
      </trkpt>
      <trkpt lat="44.24552" lon="2.54353">
        <ele>709</ele>
        <time>2022-06-12T08:12:43.265Z</time>
      </trkpt>
      <trkpt lat="44.24552" lon="2.54355">
        <ele>709</ele>
        <time>2022-06-12T08:12:44.265Z</time>
      </trkpt>
      <trkpt lat="44.24551" lon="2.54356">
        <ele>709</ele>
        <time>2022-06-12T08:12:45.265Z</time>
      </trkpt>
      <trkpt lat="44.24551" lon="2.54358">
        <ele>709</ele>
        <time>2022-06-12T08:12:46.265Z</time>
      </trkpt>
      <trkpt lat="44.2455" lon="2.5436">
        <ele>709</ele>
        <time>2022-06-12T08:12:47.265Z</time>
      </trkpt>
      <trkpt lat="44.2455" lon="2.54361">
        <ele>709</ele>
        <time>2022-06-12T08:12:48.265Z</time>
      </trkpt>
      <trkpt lat="44.24549" lon="2.54363">
        <ele>709</ele>
        <time>2022-06-12T08:12:49.265Z</time>
      </trkpt>
      <trkpt lat="44.24549" lon="2.54365">
        <ele>709</ele>
        <time>2022-06-12T08:12:50.265Z</time>
      </trkpt>
      <trkpt lat="44.24548" lon="2.54366">
        <ele>709</ele>
        <time>2022-06-12T08:12:51.265Z</time>
      </trkpt>
      <trkpt lat="44.24548" lon="2.54368">
        <ele>709</ele>
        <time>2022-06-12T08:12:52.265Z</time>
      </trkpt>
      <trkpt lat="44.24548" lon="2.5437">
        <ele>709</ele>
        <time>2022-06-12T08:12:53.265Z</time>
      </trkpt>
      <trkpt lat="44.24547" lon="2.54371">
        <ele>709</ele>
        <time>2022-06-12T08:12:54.265Z</time>
      </trkpt>
      <trkpt lat="44.24547" lon="2.54373">
        <ele>709</ele>
        <time>2022-06-12T08:12:55.265Z</time>
      </trkpt>
      <trkpt lat="44.24546" lon="2.54374">
        <ele>709</ele>
        <time>2022-06-12T08:12:56.265Z</time>
      </trkpt>
      <trkpt lat="44.24546" lon="2.54376">
        <ele>709</ele>
        <time>2022-06-12T08:12:57.265Z</time>
      </trkpt>
      <trkpt lat="44.24545" lon="2.54377">
        <ele>710</ele>
        <time>2022-06-12T08:12:58.265Z</time>
      </trkpt>
      <trkpt lat="44.24545" lon="2.54379">
        <ele>710</ele>
        <time>2022-06-12T08:12:59.265Z</time>
      </trkpt>
      <trkpt lat="44.24545" lon="2.54381">
        <ele>710</ele>
        <time>2022-06-12T08:13:00.265Z</time>
      </trkpt>
      <trkpt lat="44.24544" lon="2.54382">
        <ele>710</ele>
        <time>2022-06-12T08:13:01.265Z</time>
      </trkpt>
      <trkpt lat="44.24544" lon="2.54384">
        <ele>710</ele>
        <time>2022-06-12T08:13:02.265Z</time>
      </trkpt>
      <trkpt lat="44.24544" lon="2.54385">
        <ele>710</ele>
        <time>2022-06-12T08:13:03.265Z</time>
      </trkpt>
      <trkpt lat="44.24543" lon="2.54387">
        <ele>710</ele>
        <time>2022-06-12T08:13:04.265Z</time>
      </trkpt>
      <trkpt lat="44.24543" lon="2.54388">
        <ele>710</ele>
        <time>2022-06-12T08:13:05.265Z</time>
      </trkpt>
      <trkpt lat="44.24543" lon="2.5439">
        <ele>711</ele>
        <time>2022-06-12T08:13:06.265Z</time>
      </trkpt>
      <trkpt lat="44.24543" lon="2.54391">
        <ele>711</ele>
        <time>2022-06-12T08:13:07.265Z</time>
      </trkpt>
      <trkpt lat="44.24543" lon="2.54393">
        <ele>711</ele>
        <time>2022-06-12T08:13:08.265Z</time>
      </trkpt>
      <trkpt lat="44.24542" lon="2.54395">
        <ele>711</ele>
        <time>2022-06-12T08:13:09.265Z</time>
      </trkpt>
      <trkpt lat="44.24542" lon="2.54397">
        <ele>711</ele>
        <time>2022-06-12T08:13:10.265Z</time>
      </trkpt>
      <trkpt lat="44.24542" lon="2.54398">
        <ele>711</ele>
        <time>2022-06-12T08:13:11.265Z</time>
      </trkpt>
      <trkpt lat="44.24542" lon="2.544">
        <ele>711</ele>
        <time>2022-06-12T08:13:12.265Z</time>
      </trkpt>
      <trkpt lat="44.24542" lon="2.54401">
        <ele>711</ele>
        <time>2022-06-12T08:13:13.265Z</time>
      </trkpt>
      <trkpt lat="44.24542" lon="2.54403">
        <ele>711</ele>
        <time>2022-06-12T08:13:14.265Z</time>
      </trkpt>
      <trkpt lat="44.24542" lon="2.54405">
        <ele>711</ele>
        <time>2022-06-12T08:13:15.265Z</time>
      </trkpt>
      <trkpt lat="44.24542" lon="2.54406">
        <ele>711</ele>
        <time>2022-06-12T08:13:16.265Z</time>
      </trkpt>
      <trkpt lat="44.24542" lon="2.54408">
        <ele>711</ele>
        <time>2022-06-12T08:13:17.265Z</time>
      </trkpt>
      <trkpt lat="44.24542" lon="2.5441">
        <ele>711</ele>
        <time>2022-06-12T08:13:18.265Z</time>
      </trkpt>
      <trkpt lat="44.24542" lon="2.54412">
        <ele>711</ele>
        <time>2022-06-12T08:13:19.265Z</time>
      </trkpt>
      <trkpt lat="44.24542" lon="2.54413">
        <ele>711</ele>
        <time>2022-06-12T08:13:20.265Z</time>
      </trkpt>
      <trkpt lat="44.24542" lon="2.54415">
        <ele>711</ele>
        <time>2022-06-12T08:13:21.265Z</time>
      </trkpt>
      <trkpt lat="44.24541" lon="2.54417">
        <ele>711</ele>
        <time>2022-06-12T08:13:22.265Z</time>
      </trkpt>
      <trkpt lat="44.24541" lon="2.54418">
        <ele>711</ele>
        <time>2022-06-12T08:13:23.265Z</time>
      </trkpt>
      <trkpt lat="44.24541" lon="2.5442">
        <ele>711</ele>
        <time>2022-06-12T08:13:24.265Z</time>
      </trkpt>
      <trkpt lat="44.24541" lon="2.54421">
        <ele>711</ele>
        <time>2022-06-12T08:13:25.265Z</time>
      </trkpt>
      <trkpt lat="44.24541" lon="2.54423">
        <ele>711</ele>
        <time>2022-06-12T08:13:26.265Z</time>
      </trkpt>
      <trkpt lat="44.24541" lon="2.54424">
        <ele>711</ele>
        <time>2022-06-12T08:13:27.265Z</time>
      </trkpt>
      <trkpt lat="44.24541" lon="2.54424">
        <ele>711</ele>
        <time>2022-06-12T08:13:28.265Z</time>
      </trkpt>
      <trkpt lat="44.2454" lon="2.54425">
        <ele>711</ele>
        <time>2022-06-12T08:13:29.265Z</time>
      </trkpt>
      <trkpt lat="44.2454" lon="2.54425">
        <ele>711</ele>
        <time>2022-06-12T08:13:30.265Z</time>
      </trkpt>
      <trkpt lat="44.2454" lon="2.54425">
        <ele>711</ele>
        <time>2022-06-12T08:13:31.265Z</time>
      </trkpt>
      <trkpt lat="44.24541" lon="2.54427">
        <ele>711</ele>
        <time>2022-06-12T08:15:59.270Z</time>
      </trkpt>
      <trkpt lat="44.24542" lon="2.54428">
        <ele>711</ele>
        <time>2022-06-12T08:16:00.270Z</time>
      </trkpt>
      <trkpt lat="44.24542" lon="2.54429">
        <ele>711</ele>
        <time>2022-06-12T08:16:01.270Z</time>
      </trkpt>
      <trkpt lat="44.24543" lon="2.54431">
        <ele>711</ele>
        <time>2022-06-12T08:16:02.270Z</time>
      </trkpt>
      <trkpt lat="44.24543" lon="2.54432">
        <ele>711</ele>
        <time>2022-06-12T08:16:03.270Z</time>
      </trkpt>
      <trkpt lat="44.24543" lon="2.54433">
        <ele>711</ele>
        <time>2022-06-12T08:16:04.270Z</time>
      </trkpt>
      <trkpt lat="44.24543" lon="2.54435">
        <ele>711</ele>
        <time>2022-06-12T08:16:05.270Z</time>
      </trkpt>
      <trkpt lat="44.24544" lon="2.54436">
        <ele>711</ele>
        <time>2022-06-12T08:16:06.270Z</time>
      </trkpt>
      <trkpt lat="44.24544" lon="2.54437">
        <ele>711</ele>
        <time>2022-06-12T08:16:07.270Z</time>
      </trkpt>
      <trkpt lat="44.24545" lon="2.54438">
        <ele>711</ele>
        <time>2022-06-12T08:16:08.270Z</time>
      </trkpt>
      <trkpt lat="44.24545" lon="2.54439">
        <ele>711</ele>
        <time>2022-06-12T08:16:09.270Z</time>
      </trkpt>
      <trkpt lat="44.24545" lon="2.54441">
        <ele>711</ele>
        <time>2022-06-12T08:16:10.270Z</time>
      </trkpt>
      <trkpt lat="44.24546" lon="2.54442">
        <ele>711</ele>
        <time>2022-06-12T08:16:11.270Z</time>
      </trkpt>
      <trkpt lat="44.24547" lon="2.54443">
        <ele>711</ele>
        <time>2022-06-12T08:16:12.270Z</time>
      </trkpt>
      <trkpt lat="44.24548" lon="2.54444">
        <ele>711</ele>
        <time>2022-06-12T08:16:13.270Z</time>
      </trkpt>
      <trkpt lat="44.24549" lon="2.54445">
        <ele>710</ele>
        <time>2022-06-12T08:16:14.270Z</time>
      </trkpt>
      <trkpt lat="44.2455" lon="2.54446">
        <ele>710</ele>
        <time>2022-06-12T08:16:15.270Z</time>
      </trkpt>
      <trkpt lat="44.24551" lon="2.54448">
        <ele>710</ele>
        <time>2022-06-12T08:16:16.270Z</time>
      </trkpt>
      <trkpt lat="44.24552" lon="2.54449">
        <ele>710</ele>
        <time>2022-06-12T08:16:17.270Z</time>
      </trkpt>
      <trkpt lat="44.24552" lon="2.5445">
        <ele>710</ele>
        <time>2022-06-12T08:16:18.270Z</time>
      </trkpt>
      <trkpt lat="44.24553" lon="2.54452">
        <ele>710</ele>
        <time>2022-06-12T08:16:19.270Z</time>
      </trkpt>
      <trkpt lat="44.24554" lon="2.54453">
        <ele>710</ele>
        <time>2022-06-12T08:16:20.270Z</time>
      </trkpt>
      <trkpt lat="44.24554" lon="2.54454">
        <ele>710</ele>
        <time>2022-06-12T08:16:21.270Z</time>
      </trkpt>
      <trkpt lat="44.24555" lon="2.54456">
        <ele>710</ele>
        <time>2022-06-12T08:16:22.270Z</time>
      </trkpt>
      <trkpt lat="44.24555" lon="2.54457">
        <ele>710</ele>
        <time>2022-06-12T08:16:23.270Z</time>
      </trkpt>
      <trkpt lat="44.24556" lon="2.54458">
        <ele>710</ele>
        <time>2022-06-12T08:16:24.270Z</time>
      </trkpt>
      <trkpt lat="44.24556" lon="2.54459">
        <ele>710</ele>
        <time>2022-06-12T08:16:25.270Z</time>
      </trkpt>
      <trkpt lat="44.24557" lon="2.54461">
        <ele>710</ele>
        <time>2022-06-12T08:16:26.270Z</time>
      </trkpt>
      <trkpt lat="44.24558" lon="2.54462">
        <ele>710</ele>
        <time>2022-06-12T08:16:27.270Z</time>
      </trkpt>
      <trkpt lat="44.24559" lon="2.54463">
        <ele>710</ele>
        <time>2022-06-12T08:16:28.270Z</time>
      </trkpt>
      <trkpt lat="44.24559" lon="2.54464">
        <ele>710</ele>
        <time>2022-06-12T08:16:29.270Z</time>
      </trkpt>
      <trkpt lat="44.2456" lon="2.54465">
        <ele>710</ele>
        <time>2022-06-12T08:16:30.270Z</time>
      </trkpt>
      <trkpt lat="44.24561" lon="2.54466">
        <ele>710</ele>
        <time>2022-06-12T08:16:31.270Z</time>
      </trkpt>
      <trkpt lat="44.24562" lon="2.54467">
        <ele>710</ele>
        <time>2022-06-12T08:16:32.270Z</time>
      </trkpt>
      <trkpt lat="44.24562" lon="2.54468">
        <ele>710</ele>
        <time>2022-06-12T08:16:33.270Z</time>
      </trkpt>
      <trkpt lat="44.24563" lon="2.54468">
        <ele>710</ele>
        <time>2022-06-12T08:16:34.270Z</time>
      </trkpt>
      <trkpt lat="44.24563" lon="2.54469">
        <ele>710</ele>
        <time>2022-06-12T08:16:35.270Z</time>
      </trkpt>
      <trkpt lat="44.24564" lon="2.5447">
        <ele>710</ele>
        <time>2022-06-12T08:16:36.270Z</time>
      </trkpt>
      <trkpt lat="44.24564" lon="2.54471">
        <ele>710</ele>
        <time>2022-06-12T08:16:37.270Z</time>
      </trkpt>
      <trkpt lat="44.24565" lon="2.54473">
        <ele>710</ele>
        <time>2022-06-12T08:16:38.270Z</time>
      </trkpt>
      <trkpt lat="44.24565" lon="2.54474">
        <ele>710</ele>
        <time>2022-06-12T08:16:39.270Z</time>
      </trkpt>
      <trkpt lat="44.24566" lon="2.54475">
        <ele>710</ele>
        <time>2022-06-12T08:16:40.270Z</time>
      </trkpt>
      <trkpt lat="44.24566" lon="2.54476">
        <ele>710</ele>
        <time>2022-06-12T08:16:41.270Z</time>
      </trkpt>
      <trkpt lat="44.24566" lon="2.54478">
        <ele>710</ele>
        <time>2022-06-12T08:16:42.270Z</time>
      </trkpt>
      <trkpt lat="44.24566" lon="2.54479">
        <ele>710</ele>
        <time>2022-06-12T08:16:43.270Z</time>
      </trkpt>
      <trkpt lat="44.24567" lon="2.54481">
        <ele>710</ele>
        <time>2022-06-12T08:16:44.270Z</time>
      </trkpt>
      <trkpt lat="44.24567" lon="2.54482">
        <ele>710</ele>
        <time>2022-06-12T08:16:45.270Z</time>
      </trkpt>
      <trkpt lat="44.24567" lon="2.54483">
        <ele>710</ele>
        <time>2022-06-12T08:16:46.270Z</time>
      </trkpt>
      <trkpt lat="44.24567" lon="2.54484">
        <ele>710</ele>
        <time>2022-06-12T08:16:47.270Z</time>
      </trkpt>
      <trkpt lat="44.24567" lon="2.54484">
        <ele>710</ele>
        <time>2022-06-12T08:16:48.270Z</time>
      </trkpt>
      <trkpt lat="44.24567" lon="2.54485">
        <ele>710</ele>
        <time>2022-06-12T08:16:49.270Z</time>
      </trkpt>
      <trkpt lat="44.24567" lon="2.54485">
        <ele>710</ele>
        <time>2022-06-12T08:16:50.270Z</time>
      </trkpt>
      <trkpt lat="44.24567" lon="2.54486">
        <ele>710</ele>
        <time>2022-06-12T08:16:51.270Z</time>
      </trkpt>
      <trkpt lat="44.24567" lon="2.54488">
        <ele>710</ele>
        <time>2022-06-12T08:16:52.270Z</time>
      </trkpt>
      <trkpt lat="44.24568" lon="2.54489">
        <ele>710</ele>
        <time>2022-06-12T08:16:53.270Z</time>
      </trkpt>
      <trkpt lat="44.24568" lon="2.5449">
        <ele>710</ele>
        <time>2022-06-12T08:16:54.270Z</time>
      </trkpt>
      <trkpt lat="44.24568" lon="2.54492">
        <ele>710</ele>
        <time>2022-06-12T08:16:55.270Z</time>
      </trkpt>
      <trkpt lat="44.24568" lon="2.54493">
        <ele>710</ele>
        <time>2022-06-12T08:16:56.270Z</time>
      </trkpt>
      <trkpt lat="44.24568" lon="2.54495">
        <ele>710</ele>
        <time>2022-06-12T08:16:57.270Z</time>
      </trkpt>
      <trkpt lat="44.24569" lon="2.54496">
        <ele>710</ele>
        <time>2022-06-12T08:16:58.270Z</time>
      </trkpt>
      <trkpt lat="44.24569" lon="2.54498">
        <ele>710</ele>
        <time>2022-06-12T08:16:59.270Z</time>
      </trkpt>
      <trkpt lat="44.24569" lon="2.54499">
        <ele>709</ele>
        <time>2022-06-12T08:17:00.270Z</time>
      </trkpt>
      <trkpt lat="44.24569" lon="2.545">
        <ele>709</ele>
        <time>2022-06-12T08:17:01.270Z</time>
      </trkpt>
      <trkpt lat="44.24569" lon="2.54502">
        <ele>709</ele>
        <time>2022-06-12T08:17:02.270Z</time>
      </trkpt>
      <trkpt lat="44.24568" lon="2.54503">
        <ele>709</ele>
        <time>2022-06-12T08:17:03.270Z</time>
      </trkpt>
      <trkpt lat="44.24568" lon="2.54504">
        <ele>709</ele>
        <time>2022-06-12T08:17:04.270Z</time>
      </trkpt>
      <trkpt lat="44.24567" lon="2.54505">
        <ele>709</ele>
        <time>2022-06-12T08:17:05.270Z</time>
      </trkpt>
      <trkpt lat="44.24566" lon="2.54506">
        <ele>709</ele>
        <time>2022-06-12T08:17:06.270Z</time>
      </trkpt>
      <trkpt lat="44.24565" lon="2.54507">
        <ele>710</ele>
        <time>2022-06-12T08:17:07.270Z</time>
      </trkpt>
      <trkpt lat="44.24564" lon="2.54508">
        <ele>710</ele>
        <time>2022-06-12T08:17:08.270Z</time>
      </trkpt>
      <trkpt lat="44.24563" lon="2.54508">
        <ele>710</ele>
        <time>2022-06-12T08:17:09.270Z</time>
      </trkpt>
      <trkpt lat="44.24562" lon="2.54508">
        <ele>710</ele>
        <time>2022-06-12T08:17:10.270Z</time>
      </trkpt>
      <trkpt lat="44.24561" lon="2.54508">
        <ele>710</ele>
        <time>2022-06-12T08:17:11.270Z</time>
      </trkpt>
      <trkpt lat="44.2456" lon="2.54509">
        <ele>710</ele>
        <time>2022-06-12T08:17:12.270Z</time>
      </trkpt>
      <trkpt lat="44.24559" lon="2.54509">
        <ele>710</ele>
        <time>2022-06-12T08:17:13.270Z</time>
      </trkpt>
      <trkpt lat="44.24557" lon="2.54509">
        <ele>710</ele>
        <time>2022-06-12T08:17:14.270Z</time>
      </trkpt>
      <trkpt lat="44.24556" lon="2.54509">
        <ele>710</ele>
        <time>2022-06-12T08:17:15.270Z</time>
      </trkpt>
      <trkpt lat="44.24555" lon="2.54508">
        <ele>710</ele>
        <time>2022-06-12T08:17:16.270Z</time>
      </trkpt>
      <trkpt lat="44.24554" lon="2.54508">
        <ele>710</ele>
        <time>2022-06-12T08:17:17.270Z</time>
      </trkpt>
      <trkpt lat="44.24553" lon="2.54508">
        <ele>710</ele>
        <time>2022-06-12T08:17:18.270Z</time>
      </trkpt>
      <trkpt lat="44.24552" lon="2.54508">
        <ele>710</ele>
        <time>2022-06-12T08:17:19.270Z</time>
      </trkpt>
      <trkpt lat="44.24551" lon="2.54508">
        <ele>710</ele>
        <time>2022-06-12T08:17:20.270Z</time>
      </trkpt>
      <trkpt lat="44.24549" lon="2.54507">
        <ele>710</ele>
        <time>2022-06-12T08:17:21.270Z</time>
      </trkpt>
      <trkpt lat="44.24548" lon="2.54507">
        <ele>710</ele>
        <time>2022-06-12T08:17:22.270Z</time>
      </trkpt>
      <trkpt lat="44.24547" lon="2.54506">
        <ele>710</ele>
        <time>2022-06-12T08:17:23.270Z</time>
      </trkpt>
      <trkpt lat="44.24546" lon="2.54506">
        <ele>710</ele>
        <time>2022-06-12T08:17:24.270Z</time>
      </trkpt>
      <trkpt lat="44.24545" lon="2.54505">
        <ele>710</ele>
        <time>2022-06-12T08:17:25.270Z</time>
      </trkpt>
      <trkpt lat="44.24545" lon="2.54505">
        <ele>710</ele>
        <time>2022-06-12T08:17:26.270Z</time>
      </trkpt>
      <trkpt lat="44.24544" lon="2.54504">
        <ele>710</ele>
        <time>2022-06-12T08:17:27.270Z</time>
      </trkpt>
      <trkpt lat="44.24544" lon="2.54504">
        <ele>710</ele>
        <time>2022-06-12T08:17:28.270Z</time>
      </trkpt>
      <trkpt lat="44.24544" lon="2.54504">
        <ele>710</ele>
        <time>2022-06-12T08:17:29.270Z</time>
      </trkpt>
      <trkpt lat="44.24544" lon="2.54504">
        <ele>710</ele>
        <time>2022-06-12T08:17:30.270Z</time>
      </trkpt>
      <trkpt lat="44.24544" lon="2.54504">
        <ele>710</ele>
        <time>2022-06-12T08:17:31.270Z</time>
      </trkpt>
      <trkpt lat="44.24543" lon="2.54503">
        <ele>710</ele>
        <time>2022-06-12T08:17:37.278Z</time>
      </trkpt>
      <trkpt lat="44.24542" lon="2.54502">
        <ele>710</ele>
        <time>2022-06-12T08:17:38.278Z</time>
      </trkpt>
      <trkpt lat="44.24541" lon="2.545">
        <ele>710</ele>
        <time>2022-06-12T08:17:39.278Z</time>
      </trkpt>
      <trkpt lat="44.24541" lon="2.54499">
        <ele>710</ele>
        <time>2022-06-12T08:17:40.278Z</time>
      </trkpt>
      <trkpt lat="44.2454" lon="2.54498">
        <ele>710</ele>
        <time>2022-06-12T08:17:41.278Z</time>
      </trkpt>
      <trkpt lat="44.24539" lon="2.54498">
        <ele>710</ele>
        <time>2022-06-12T08:17:42.278Z</time>
      </trkpt>
      <trkpt lat="44.24538" lon="2.54498">
        <ele>710</ele>
        <time>2022-06-12T08:17:43.278Z</time>
      </trkpt>
      <trkpt lat="44.24537" lon="2.54497">
        <ele>710</ele>
        <time>2022-06-12T08:17:44.278Z</time>
      </trkpt>
      <trkpt lat="44.24536" lon="2.54497">
        <ele>710</ele>
        <time>2022-06-12T08:17:45.278Z</time>
      </trkpt>
      <trkpt lat="44.24534" lon="2.54496">
        <ele>710</ele>
        <time>2022-06-12T08:17:46.278Z</time>
      </trkpt>
      <trkpt lat="44.24533" lon="2.54496">
        <ele>710</ele>
        <time>2022-06-12T08:17:47.278Z</time>
      </trkpt>
      <trkpt lat="44.24532" lon="2.54495">
        <ele>710</ele>
        <time>2022-06-12T08:17:48.278Z</time>
      </trkpt>
      <trkpt lat="44.24531" lon="2.54495">
        <ele>710</ele>
        <time>2022-06-12T08:17:49.278Z</time>
      </trkpt>
      <trkpt lat="44.2453" lon="2.54495">
        <ele>710</ele>
        <time>2022-06-12T08:17:50.278Z</time>
      </trkpt>
      <trkpt lat="44.24529" lon="2.54495">
        <ele>710</ele>
        <time>2022-06-12T08:17:51.278Z</time>
      </trkpt>
      <trkpt lat="44.24528" lon="2.54495">
        <ele>710</ele>
        <time>2022-06-12T08:17:52.278Z</time>
      </trkpt>
      <trkpt lat="44.24527" lon="2.54495">
        <ele>710</ele>
        <time>2022-06-12T08:17:53.278Z</time>
      </trkpt>
      <trkpt lat="44.24526" lon="2.54495">
        <ele>710</ele>
        <time>2022-06-12T08:17:54.278Z</time>
      </trkpt>
      <trkpt lat="44.24524" lon="2.54495">
        <ele>710</ele>
        <time>2022-06-12T08:17:55.278Z</time>
      </trkpt>
      <trkpt lat="44.24523" lon="2.54495">
        <ele>710</ele>
        <time>2022-06-12T08:17:56.278Z</time>
      </trkpt>
      <trkpt lat="44.24522" lon="2.54496">
        <ele>709</ele>
        <time>2022-06-12T08:17:57.278Z</time>
      </trkpt>
      <trkpt lat="44.24521" lon="2.54497">
        <ele>709</ele>
        <time>2022-06-12T08:17:58.278Z</time>
      </trkpt>
      <trkpt lat="44.2452" lon="2.54498">
        <ele>709</ele>
        <time>2022-06-12T08:17:59.278Z</time>
      </trkpt>
      <trkpt lat="44.24519" lon="2.54499">
        <ele>709</ele>
        <time>2022-06-12T08:18:00.278Z</time>
      </trkpt>
      <trkpt lat="44.24518" lon="2.545">
        <ele>709</ele>
        <time>2022-06-12T08:18:01.278Z</time>
      </trkpt>
      <trkpt lat="44.24517" lon="2.545">
        <ele>709</ele>
        <time>2022-06-12T08:18:02.278Z</time>
      </trkpt>
      <trkpt lat="44.24516" lon="2.545">
        <ele>709</ele>
        <time>2022-06-12T08:18:03.278Z</time>
      </trkpt>
      <trkpt lat="44.24515" lon="2.545">
        <ele>710</ele>
        <time>2022-06-12T08:18:04.278Z</time>
      </trkpt>
      <trkpt lat="44.24514" lon="2.545">
        <ele>710</ele>
        <time>2022-06-12T08:18:05.278Z</time>
      </trkpt>
      <trkpt lat="44.24514" lon="2.545">
        <ele>710</ele>
        <time>2022-06-12T08:18:06.278Z</time>
      </trkpt>
      <trkpt lat="44.24514" lon="2.545">
        <ele>710</ele>
        <time>2022-06-12T08:18:07.278Z</time>
      </trkpt>
      <trkpt lat="44.24514" lon="2.54499">
        <ele>710</ele>
        <time>2022-06-12T08:18:08.278Z</time>
      </trkpt>
      <trkpt lat="44.24514" lon="2.54499">
        <ele>710</ele>
        <time>2022-06-12T08:18:09.278Z</time>
      </trkpt>
      <trkpt lat="44.24514" lon="2.54501">
        <ele>710</ele>
        <time>2022-06-12T08:18:14.285Z</time>
      </trkpt>
      <trkpt lat="44.24514" lon="2.54501">
        <ele>710</ele>
        <time>2022-06-12T08:18:15.285Z</time>
      </trkpt>
      <trkpt lat="44.24514" lon="2.54501">
        <ele>710</ele>
        <time>2022-06-12T08:18:16.285Z</time>
      </trkpt>
      <trkpt lat="44.24514" lon="2.54501">
        <ele>710</ele>
        <time>2022-06-12T08:18:17.285Z</time>
      </trkpt>
      <trkpt lat="44.24514" lon="2.54501">
        <ele>709</ele>
        <time>2022-06-12T08:18:18.285Z</time>
      </trkpt>
      <trkpt lat="44.24514" lon="2.54502">
        <ele>709</ele>
        <time>2022-06-12T08:18:21.540Z</time>
      </trkpt>
      <trkpt lat="44.24515" lon="2.54503">
        <ele>709</ele>
        <time>2022-06-12T08:18:22.540Z</time>
      </trkpt>
      <trkpt lat="44.24515" lon="2.54505">
        <ele>709</ele>
        <time>2022-06-12T08:18:23.540Z</time>
      </trkpt>
      <trkpt lat="44.24515" lon="2.54506">
        <ele>709</ele>
        <time>2022-06-12T08:18:24.540Z</time>
      </trkpt>
      <trkpt lat="44.24515" lon="2.54508">
        <ele>709</ele>
        <time>2022-06-12T08:18:25.540Z</time>
      </trkpt>
      <trkpt lat="44.24515" lon="2.54509">
        <ele>709</ele>
        <time>2022-06-12T08:18:26.540Z</time>
      </trkpt>
      <trkpt lat="44.24515" lon="2.5451">
        <ele>709</ele>
        <time>2022-06-12T08:18:27.540Z</time>
      </trkpt>
      <trkpt lat="44.24515" lon="2.54512">
        <ele>710</ele>
        <time>2022-06-12T08:18:28.540Z</time>
      </trkpt>
      <trkpt lat="44.24515" lon="2.54513">
        <ele>710</ele>
        <time>2022-06-12T08:18:29.540Z</time>
      </trkpt>
      <trkpt lat="44.24515" lon="2.54513">
        <ele>710</ele>
        <time>2022-06-12T08:18:30.540Z</time>
      </trkpt>
      <trkpt lat="44.24516" lon="2.54514">
        <ele>710</ele>
        <time>2022-06-12T08:18:31.540Z</time>
      </trkpt>
      <trkpt lat="44.24515" lon="2.54514">
        <ele>710</ele>
        <time>2022-06-12T08:18:32.540Z</time>
      </trkpt>
      <trkpt lat="44.24515" lon="2.54514">
        <ele>710</ele>
        <time>2022-06-12T08:18:33.540Z</time>
      </trkpt>
      <trkpt lat="44.24516" lon="2.54514">
        <ele>710</ele>
        <time>2022-06-12T08:18:34.540Z</time>
      </trkpt>
      <trkpt lat="44.24516" lon="2.54512">
        <ele>710</ele>
        <time>2022-06-12T08:18:41.547Z</time>
      </trkpt>
      <trkpt lat="44.24516" lon="2.54511">
        <ele>710</ele>
        <time>2022-06-12T08:18:42.547Z</time>
      </trkpt>
      <trkpt lat="44.24517" lon="2.5451">
        <ele>710</ele>
        <time>2022-06-12T08:18:43.547Z</time>
      </trkpt>
      <trkpt lat="44.24517" lon="2.54508">
        <ele>710</ele>
        <time>2022-06-12T08:18:44.547Z</time>
      </trkpt>
      <trkpt lat="44.24517" lon="2.54507">
        <ele>710</ele>
        <time>2022-06-12T08:18:45.547Z</time>
      </trkpt>
      <trkpt lat="44.24517" lon="2.54505">
        <ele>710</ele>
        <time>2022-06-12T08:18:46.547Z</time>
      </trkpt>
      <trkpt lat="44.24517" lon="2.54504">
        <ele>710</ele>
        <time>2022-06-12T08:18:47.547Z</time>
      </trkpt>
      <trkpt lat="44.24517" lon="2.54502">
        <ele>710</ele>
        <time>2022-06-12T08:18:48.547Z</time>
      </trkpt>
      <trkpt lat="44.24518" lon="2.54501">
        <ele>710</ele>
        <time>2022-06-12T08:18:49.547Z</time>
      </trkpt>
      <trkpt lat="44.24518" lon="2.545">
        <ele>710</ele>
        <time>2022-06-12T08:18:50.547Z</time>
      </trkpt>
      <trkpt lat="44.24518" lon="2.54499">
        <ele>710</ele>
        <time>2022-06-12T08:18:51.547Z</time>
      </trkpt>
      <trkpt lat="44.24518" lon="2.54498">
        <ele>710</ele>
        <time>2022-06-12T08:18:52.547Z</time>
      </trkpt>
      <trkpt lat="44.24519" lon="2.54498">
        <ele>710</ele>
        <time>2022-06-12T08:18:53.547Z</time>
      </trkpt>
      <trkpt lat="44.24519" lon="2.54497">
        <ele>710</ele>
        <time>2022-06-12T08:18:54.547Z</time>
      </trkpt>
      <trkpt lat="44.24519" lon="2.54497">
        <ele>710</ele>
        <time>2022-06-12T08:18:55.547Z</time>
      </trkpt>
      <trkpt lat="44.24519" lon="2.54497">
        <ele>710</ele>
        <time>2022-06-12T08:18:56.547Z</time>
      </trkpt>
      <trkpt lat="44.2452" lon="2.54495">
        <ele>710</ele>
        <time>2022-06-12T08:18:59.801Z</time>
      </trkpt>
      <trkpt lat="44.2452" lon="2.54495">
        <ele>710</ele>
        <time>2022-06-12T08:19:00.801Z</time>
      </trkpt>
      <trkpt lat="44.24521" lon="2.54494">
        <ele>710</ele>
        <time>2022-06-12T08:19:01.801Z</time>
      </trkpt>
      <trkpt lat="44.24521" lon="2.54494">
        <ele>710</ele>
        <time>2022-06-12T08:19:02.801Z</time>
      </trkpt>
      <trkpt lat="44.24522" lon="2.54493">
        <ele>710</ele>
        <time>2022-06-12T08:19:03.801Z</time>
      </trkpt>
      <trkpt lat="44.24522" lon="2.54493">
        <ele>711</ele>
        <time>2022-06-12T08:19:04.801Z</time>
      </trkpt>
      <trkpt lat="44.24523" lon="2.54493">
        <ele>711</ele>
        <time>2022-06-12T08:19:05.801Z</time>
      </trkpt>
      <trkpt lat="44.24524" lon="2.54492">
        <ele>711</ele>
        <time>2022-06-12T08:19:06.801Z</time>
      </trkpt>
      <trkpt lat="44.24525" lon="2.54492">
        <ele>711</ele>
        <time>2022-06-12T08:19:07.801Z</time>
      </trkpt>
      <trkpt lat="44.24526" lon="2.54492">
        <ele>711</ele>
        <time>2022-06-12T08:19:08.801Z</time>
      </trkpt>
      <trkpt lat="44.24527" lon="2.54492">
        <ele>711</ele>
        <time>2022-06-12T08:19:09.801Z</time>
      </trkpt>
      <trkpt lat="44.24528" lon="2.54492">
        <ele>711</ele>
        <time>2022-06-12T08:19:10.801Z</time>
      </trkpt>
      <trkpt lat="44.24529" lon="2.54492">
        <ele>711</ele>
        <time>2022-06-12T08:19:11.801Z</time>
      </trkpt>
      <trkpt lat="44.2453" lon="2.54493">
        <ele>711</ele>
        <time>2022-06-12T08:19:12.801Z</time>
      </trkpt>
      <trkpt lat="44.24531" lon="2.54493">
        <ele>711</ele>
        <time>2022-06-12T08:19:13.801Z</time>
      </trkpt>
      <trkpt lat="44.24532" lon="2.54493">
        <ele>711</ele>
        <time>2022-06-12T08:19:14.801Z</time>
      </trkpt>
      <trkpt lat="44.24533" lon="2.54494">
        <ele>711</ele>
        <time>2022-06-12T08:19:15.801Z</time>
      </trkpt>
      <trkpt lat="44.24535" lon="2.54494">
        <ele>711</ele>
        <time>2022-06-12T08:19:16.801Z</time>
      </trkpt>
      <trkpt lat="44.24536" lon="2.54495">
        <ele>711</ele>
        <time>2022-06-12T08:19:17.801Z</time>
      </trkpt>
      <trkpt lat="44.24537" lon="2.54496">
        <ele>711</ele>
        <time>2022-06-12T08:19:18.801Z</time>
      </trkpt>
      <trkpt lat="44.24538" lon="2.54497">
        <ele>711</ele>
        <time>2022-06-12T08:19:19.801Z</time>
      </trkpt>
      <trkpt lat="44.24539" lon="2.54498">
        <ele>711</ele>
        <time>2022-06-12T08:19:20.801Z</time>
      </trkpt>
      <trkpt lat="44.2454" lon="2.54499">
        <ele>711</ele>
        <time>2022-06-12T08:19:21.801Z</time>
      </trkpt>
      <trkpt lat="44.24541" lon="2.545">
        <ele>711</ele>
        <time>2022-06-12T08:19:22.801Z</time>
      </trkpt>
      <trkpt lat="44.24542" lon="2.54501">
        <ele>711</ele>
        <time>2022-06-12T08:19:23.801Z</time>
      </trkpt>
      <trkpt lat="44.24543" lon="2.54501">
        <ele>711</ele>
        <time>2022-06-12T08:19:24.801Z</time>
      </trkpt>
      <trkpt lat="44.24544" lon="2.54502">
        <ele>710</ele>
        <time>2022-06-12T08:19:25.801Z</time>
      </trkpt>
      <trkpt lat="44.24544" lon="2.54503">
        <ele>710</ele>
        <time>2022-06-12T08:19:26.801Z</time>
      </trkpt>
      <trkpt lat="44.24546" lon="2.54504">
        <ele>710</ele>
        <time>2022-06-12T08:19:27.801Z</time>
      </trkpt>
      <trkpt lat="44.24547" lon="2.54504">
        <ele>710</ele>
        <time>2022-06-12T08:19:28.801Z</time>
      </trkpt>
      <trkpt lat="44.24548" lon="2.54505">
        <ele>710</ele>
        <time>2022-06-12T08:19:29.801Z</time>
      </trkpt>
      <trkpt lat="44.24548" lon="2.54505">
        <ele>710</ele>
        <time>2022-06-12T08:19:30.801Z</time>
      </trkpt>
      <trkpt lat="44.24549" lon="2.54506">
        <ele>710</ele>
        <time>2022-06-12T08:19:31.801Z</time>
      </trkpt>
      <trkpt lat="44.2455" lon="2.54506">
        <ele>710</ele>
        <time>2022-06-12T08:19:32.801Z</time>
      </trkpt>
      <trkpt lat="44.24551" lon="2.54507">
        <ele>709</ele>
        <time>2022-06-12T08:19:33.801Z</time>
      </trkpt>
      <trkpt lat="44.24552" lon="2.54507">
        <ele>709</ele>
        <time>2022-06-12T08:19:34.801Z</time>
      </trkpt>
      <trkpt lat="44.24553" lon="2.54507">
        <ele>709</ele>
        <time>2022-06-12T08:19:35.801Z</time>
      </trkpt>
      <trkpt lat="44.24554" lon="2.54507">
        <ele>709</ele>
        <time>2022-06-12T08:19:36.801Z</time>
      </trkpt>
      <trkpt lat="44.24555" lon="2.54507">
        <ele>709</ele>
        <time>2022-06-12T08:19:37.801Z</time>
      </trkpt>
      <trkpt lat="44.24556" lon="2.54506">
        <ele>709</ele>
        <time>2022-06-12T08:19:38.801Z</time>
      </trkpt>
      <trkpt lat="44.24557" lon="2.54506">
        <ele>709</ele>
        <time>2022-06-12T08:19:39.801Z</time>
      </trkpt>
      <trkpt lat="44.24558" lon="2.54506">
        <ele>709</ele>
        <time>2022-06-12T08:19:40.801Z</time>
      </trkpt>
      <trkpt lat="44.24559" lon="2.54505">
        <ele>709</ele>
        <time>2022-06-12T08:19:41.801Z</time>
      </trkpt>
      <trkpt lat="44.24561" lon="2.54505">
        <ele>709</ele>
        <time>2022-06-12T08:19:42.801Z</time>
      </trkpt>
      <trkpt lat="44.24562" lon="2.54504">
        <ele>709</ele>
        <time>2022-06-12T08:19:43.801Z</time>
      </trkpt>
      <trkpt lat="44.24562" lon="2.54504">
        <ele>709</ele>
        <time>2022-06-12T08:19:44.801Z</time>
      </trkpt>
      <trkpt lat="44.24563" lon="2.54503">
        <ele>709</ele>
        <time>2022-06-12T08:19:45.801Z</time>
      </trkpt>
      <trkpt lat="44.24564" lon="2.54501">
        <ele>709</ele>
        <time>2022-06-12T08:19:46.801Z</time>
      </trkpt>
      <trkpt lat="44.24565" lon="2.545">
        <ele>709</ele>
        <time>2022-06-12T08:19:47.801Z</time>
      </trkpt>
      <trkpt lat="44.24566" lon="2.54499">
        <ele>709</ele>
        <time>2022-06-12T08:19:48.801Z</time>
      </trkpt>
      <trkpt lat="44.24566" lon="2.54497">
        <ele>709</ele>
        <time>2022-06-12T08:19:49.801Z</time>
      </trkpt>
      <trkpt lat="44.24566" lon="2.54496">
        <ele>709</ele>
        <time>2022-06-12T08:19:50.801Z</time>
      </trkpt>
      <trkpt lat="44.24566" lon="2.54494">
        <ele>709</ele>
        <time>2022-06-12T08:19:51.801Z</time>
      </trkpt>
      <trkpt lat="44.24566" lon="2.54493">
        <ele>709</ele>
        <time>2022-06-12T08:19:52.801Z</time>
      </trkpt>
      <trkpt lat="44.24566" lon="2.54491">
        <ele>709</ele>
        <time>2022-06-12T08:19:53.801Z</time>
      </trkpt>
      <trkpt lat="44.24566" lon="2.5449">
        <ele>710</ele>
        <time>2022-06-12T08:19:54.801Z</time>
      </trkpt>
      <trkpt lat="44.24566" lon="2.54488">
        <ele>710</ele>
        <time>2022-06-12T08:19:55.801Z</time>
      </trkpt>
      <trkpt lat="44.24566" lon="2.54487">
        <ele>710</ele>
        <time>2022-06-12T08:19:56.801Z</time>
      </trkpt>
      <trkpt lat="44.24566" lon="2.54486">
        <ele>710</ele>
        <time>2022-06-12T08:19:57.801Z</time>
      </trkpt>
      <trkpt lat="44.24567" lon="2.54484">
        <ele>710</ele>
        <time>2022-06-12T08:19:58.801Z</time>
      </trkpt>
      <trkpt lat="44.24567" lon="2.54483">
        <ele>710</ele>
        <time>2022-06-12T08:19:59.801Z</time>
      </trkpt>
      <trkpt lat="44.24568" lon="2.54482">
        <ele>710</ele>
        <time>2022-06-12T08:20:00.801Z</time>
      </trkpt>
      <trkpt lat="44.24569" lon="2.5448">
        <ele>710</ele>
        <time>2022-06-12T08:20:01.801Z</time>
      </trkpt>
      <trkpt lat="44.2457" lon="2.5448">
        <ele>710</ele>
        <time>2022-06-12T08:20:02.801Z</time>
      </trkpt>
      <trkpt lat="44.24571" lon="2.54479">
        <ele>710</ele>
        <time>2022-06-12T08:20:03.801Z</time>
      </trkpt>
      <trkpt lat="44.24572" lon="2.54478">
        <ele>711</ele>
        <time>2022-06-12T08:20:04.801Z</time>
      </trkpt>
      <trkpt lat="44.24574" lon="2.54477">
        <ele>711</ele>
        <time>2022-06-12T08:20:05.801Z</time>
      </trkpt>
      <trkpt lat="44.24575" lon="2.54477">
        <ele>711</ele>
        <time>2022-06-12T08:20:06.801Z</time>
      </trkpt>
      <trkpt lat="44.24576" lon="2.54476">
        <ele>711</ele>
        <time>2022-06-12T08:20:07.801Z</time>
      </trkpt>
      <trkpt lat="44.24577" lon="2.54476">
        <ele>711</ele>
        <time>2022-06-12T08:20:08.801Z</time>
      </trkpt>
      <trkpt lat="44.24578" lon="2.54475">
        <ele>711</ele>
        <time>2022-06-12T08:20:09.801Z</time>
      </trkpt>
      <trkpt lat="44.2458" lon="2.54475">
        <ele>711</ele>
        <time>2022-06-12T08:20:10.801Z</time>
      </trkpt>
      <trkpt lat="44.24581" lon="2.54474">
        <ele>711</ele>
        <time>2022-06-12T08:20:11.801Z</time>
      </trkpt>
      <trkpt lat="44.24582" lon="2.54474">
        <ele>711</ele>
        <time>2022-06-12T08:20:12.801Z</time>
      </trkpt>
      <trkpt lat="44.24583" lon="2.54474">
        <ele>711</ele>
        <time>2022-06-12T08:20:13.801Z</time>
      </trkpt>
      <trkpt lat="44.24584" lon="2.54473">
        <ele>711</ele>
        <time>2022-06-12T08:20:14.801Z</time>
      </trkpt>
      <trkpt lat="44.24585" lon="2.54473">
        <ele>712</ele>
        <time>2022-06-12T08:20:15.801Z</time>
      </trkpt>
      <trkpt lat="44.24586" lon="2.54473">
        <ele>712</ele>
        <time>2022-06-12T08:20:16.801Z</time>
      </trkpt>
      <trkpt lat="44.24587" lon="2.54472">
        <ele>712</ele>
        <time>2022-06-12T08:20:17.801Z</time>
      </trkpt>
      <trkpt lat="44.24588" lon="2.54472">
        <ele>712</ele>
        <time>2022-06-12T08:20:18.801Z</time>
      </trkpt>
      <trkpt lat="44.24589" lon="2.54471">
        <ele>712</ele>
        <time>2022-06-12T08:20:19.801Z</time>
      </trkpt>
      <trkpt lat="44.2459" lon="2.54471">
        <ele>712</ele>
        <time>2022-06-12T08:20:20.801Z</time>
      </trkpt>
      <trkpt lat="44.24591" lon="2.54471">
        <ele>712</ele>
        <time>2022-06-12T08:20:21.801Z</time>
      </trkpt>
      <trkpt lat="44.24591" lon="2.54471">
        <ele>712</ele>
        <time>2022-06-12T08:20:22.801Z</time>
      </trkpt>
      <trkpt lat="44.24592" lon="2.54471">
        <ele>712</ele>
        <time>2022-06-12T08:20:23.801Z</time>
      </trkpt>
      <trkpt lat="44.24592" lon="2.54471">
        <ele>712</ele>
        <time>2022-06-12T08:20:24.801Z</time>
      </trkpt>
      <trkpt lat="44.24594" lon="2.54471">
        <ele>712</ele>
        <time>2022-06-12T08:20:41.805Z</time>
      </trkpt>
      <trkpt lat="44.24595" lon="2.54471">
        <ele>712</ele>
        <time>2022-06-12T08:20:42.805Z</time>
      </trkpt>
      <trkpt lat="44.24596" lon="2.5447">
        <ele>712</ele>
        <time>2022-06-12T08:20:43.805Z</time>
      </trkpt>
      <trkpt lat="44.24596" lon="2.5447">
        <ele>712</ele>
        <time>2022-06-12T08:20:44.805Z</time>
      </trkpt>
      <trkpt lat="44.24597" lon="2.5447">
        <ele>712</ele>
        <time>2022-06-12T08:20:45.805Z</time>
      </trkpt>
      <trkpt lat="44.24598" lon="2.5447">
        <ele>712</ele>
        <time>2022-06-12T08:20:46.805Z</time>
      </trkpt>
      <trkpt lat="44.24599" lon="2.5447">
        <ele>712</ele>
        <time>2022-06-12T08:20:47.805Z</time>
      </trkpt>
      <trkpt lat="44.246" lon="2.5447">
        <ele>712</ele>
        <time>2022-06-12T08:20:48.805Z</time>
      </trkpt>
      <trkpt lat="44.24601" lon="2.54469">
        <ele>712</ele>
        <time>2022-06-12T08:20:49.805Z</time>
      </trkpt>
      <trkpt lat="44.24602" lon="2.54469">
        <ele>712</ele>
        <time>2022-06-12T08:20:50.805Z</time>
      </trkpt>
      <trkpt lat="44.24603" lon="2.54469">
        <ele>712</ele>
        <time>2022-06-12T08:20:51.805Z</time>
      </trkpt>
      <trkpt lat="44.24604" lon="2.54469">
        <ele>712</ele>
        <time>2022-06-12T08:20:52.805Z</time>
      </trkpt>
      <trkpt lat="44.24605" lon="2.54468">
        <ele>712</ele>
        <time>2022-06-12T08:20:53.805Z</time>
      </trkpt>
      <trkpt lat="44.24606" lon="2.54468">
        <ele>712</ele>
        <time>2022-06-12T08:20:54.805Z</time>
      </trkpt>
      <trkpt lat="44.24607" lon="2.54467">
        <ele>712</ele>
        <time>2022-06-12T08:20:55.805Z</time>
      </trkpt>
      <trkpt lat="44.24608" lon="2.54467">
        <ele>712</ele>
        <time>2022-06-12T08:20:56.805Z</time>
      </trkpt>
      <trkpt lat="44.24609" lon="2.54467">
        <ele>712</ele>
        <time>2022-06-12T08:20:57.805Z</time>
      </trkpt>
      <trkpt lat="44.2461" lon="2.54466">
        <ele>713</ele>
        <time>2022-06-12T08:20:58.805Z</time>
      </trkpt>
      <trkpt lat="44.24611" lon="2.54466">
        <ele>713</ele>
        <time>2022-06-12T08:20:59.805Z</time>
      </trkpt>
      <trkpt lat="44.24612" lon="2.54466">
        <ele>713</ele>
        <time>2022-06-12T08:21:00.805Z</time>
      </trkpt>
      <trkpt lat="44.24613" lon="2.54466">
        <ele>713</ele>
        <time>2022-06-12T08:21:01.805Z</time>
      </trkpt>
      <trkpt lat="44.24613" lon="2.54465">
        <ele>713</ele>
        <time>2022-06-12T08:21:02.805Z</time>
      </trkpt>
      <trkpt lat="44.24614" lon="2.54465">
        <ele>713</ele>
        <time>2022-06-12T08:21:03.805Z</time>
      </trkpt>
      <trkpt lat="44.24615" lon="2.54466">
        <ele>713</ele>
        <time>2022-06-12T08:21:04.805Z</time>
      </trkpt>
      <trkpt lat="44.24616" lon="2.54465">
        <ele>713</ele>
        <time>2022-06-12T08:21:05.805Z</time>
      </trkpt>
      <trkpt lat="44.24616" lon="2.54465">
        <ele>713</ele>
        <time>2022-06-12T08:21:06.805Z</time>
      </trkpt>
      <trkpt lat="44.24617" lon="2.54465">
        <ele>713</ele>
        <time>2022-06-12T08:21:07.805Z</time>
      </trkpt>
      <trkpt lat="44.24617" lon="2.54465">
        <ele>713</ele>
        <time>2022-06-12T08:21:08.805Z</time>
      </trkpt>
      <trkpt lat="44.24617" lon="2.54465">
        <ele>713</ele>
        <time>2022-06-12T08:21:09.805Z</time>
      </trkpt>
      <trkpt lat="44.24618" lon="2.54465">
        <ele>713</ele>
        <time>2022-06-12T08:21:14.804Z</time>
      </trkpt>
      <trkpt lat="44.24619" lon="2.54464">
        <ele>713</ele>
        <time>2022-06-12T08:21:15.804Z</time>
      </trkpt>
      <trkpt lat="44.2462" lon="2.54464">
        <ele>713</ele>
        <time>2022-06-12T08:21:16.804Z</time>
      </trkpt>
      <trkpt lat="44.24621" lon="2.54463">
        <ele>713</ele>
        <time>2022-06-12T08:21:17.804Z</time>
      </trkpt>
      <trkpt lat="44.24622" lon="2.54463">
        <ele>713</ele>
        <time>2022-06-12T08:21:18.804Z</time>
      </trkpt>
      <trkpt lat="44.24623" lon="2.54463">
        <ele>713</ele>
        <time>2022-06-12T08:21:19.804Z</time>
      </trkpt>
      <trkpt lat="44.24624" lon="2.54462">
        <ele>713</ele>
        <time>2022-06-12T08:21:20.804Z</time>
      </trkpt>
      <trkpt lat="44.24625" lon="2.54462">
        <ele>713</ele>
        <time>2022-06-12T08:21:21.804Z</time>
      </trkpt>
      <trkpt lat="44.24626" lon="2.54461">
        <ele>713</ele>
        <time>2022-06-12T08:21:22.804Z</time>
      </trkpt>
      <trkpt lat="44.24626" lon="2.54461">
        <ele>713</ele>
        <time>2022-06-12T08:21:23.804Z</time>
      </trkpt>
      <trkpt lat="44.24627" lon="2.54461">
        <ele>713</ele>
        <time>2022-06-12T08:21:24.804Z</time>
      </trkpt>
      <trkpt lat="44.24628" lon="2.54461">
        <ele>713</ele>
        <time>2022-06-12T08:21:25.804Z</time>
      </trkpt>
      <trkpt lat="44.24628" lon="2.54461">
        <ele>713</ele>
        <time>2022-06-12T08:21:26.804Z</time>
      </trkpt>
      <trkpt lat="44.24628" lon="2.54461">
        <ele>713</ele>
        <time>2022-06-12T08:21:27.804Z</time>
      </trkpt>
      <trkpt lat="44.24628" lon="2.54461">
        <ele>713</ele>
        <time>2022-06-12T08:21:28.804Z</time>
      </trkpt>
      <trkpt lat="44.24628" lon="2.5446">
        <ele>713</ele>
        <time>2022-06-12T08:21:29.804Z</time>
      </trkpt>
      <trkpt lat="44.24629" lon="2.5446">
        <ele>714</ele>
        <time>2022-06-12T08:21:33.057Z</time>
      </trkpt>
      <trkpt lat="44.2463" lon="2.5446">
        <ele>714</ele>
        <time>2022-06-12T08:21:34.057Z</time>
      </trkpt>
      <trkpt lat="44.2463" lon="2.54461">
        <ele>714</ele>
        <time>2022-06-12T08:21:35.057Z</time>
      </trkpt>
      <trkpt lat="44.2463" lon="2.54461">
        <ele>714</ele>
        <time>2022-06-12T08:21:36.057Z</time>
      </trkpt>
      <trkpt lat="44.2463" lon="2.54461">
        <ele>714</ele>
        <time>2022-06-12T08:21:37.057Z</time>
      </trkpt>
      <trkpt lat="44.2463" lon="2.54461">
        <ele>714</ele>
        <time>2022-06-12T08:21:38.057Z</time>
      </trkpt>
      <trkpt lat="44.24631" lon="2.5446">
        <ele>715</ele>
        <time>2022-06-12T08:22:07.062Z</time>
      </trkpt>
      <trkpt lat="44.24631" lon="2.54459">
        <ele>715</ele>
        <time>2022-06-12T08:22:08.062Z</time>
      </trkpt>
      <trkpt lat="44.24632" lon="2.54459">
        <ele>715</ele>
        <time>2022-06-12T08:22:09.062Z</time>
      </trkpt>
      <trkpt lat="44.24633" lon="2.54459">
        <ele>715</ele>
        <time>2022-06-12T08:22:10.062Z</time>
      </trkpt>
      <trkpt lat="44.24633" lon="2.54458">
        <ele>715</ele>
        <time>2022-06-12T08:22:11.062Z</time>
      </trkpt>
      <trkpt lat="44.24634" lon="2.54458">
        <ele>715</ele>
        <time>2022-06-12T08:22:12.062Z</time>
      </trkpt>
      <trkpt lat="44.24635" lon="2.54458">
        <ele>715</ele>
        <time>2022-06-12T08:22:13.062Z</time>
      </trkpt>
      <trkpt lat="44.24636" lon="2.54457">
        <ele>715</ele>
        <time>2022-06-12T08:22:14.062Z</time>
      </trkpt>
      <trkpt lat="44.24637" lon="2.54456">
        <ele>714</ele>
        <time>2022-06-12T08:22:15.062Z</time>
      </trkpt>
      <trkpt lat="44.24638" lon="2.54456">
        <ele>714</ele>
        <time>2022-06-12T08:22:16.062Z</time>
      </trkpt>
      <trkpt lat="44.24639" lon="2.54455">
        <ele>714</ele>
        <time>2022-06-12T08:22:17.062Z</time>
      </trkpt>
      <trkpt lat="44.2464" lon="2.54454">
        <ele>714</ele>
        <time>2022-06-12T08:22:18.062Z</time>
      </trkpt>
      <trkpt lat="44.24641" lon="2.54453">
        <ele>714</ele>
        <time>2022-06-12T08:22:19.062Z</time>
      </trkpt>
      <trkpt lat="44.24642" lon="2.54452">
        <ele>714</ele>
        <time>2022-06-12T08:22:20.062Z</time>
      </trkpt>
      <trkpt lat="44.24643" lon="2.54452">
        <ele>714</ele>
        <time>2022-06-12T08:22:21.062Z</time>
      </trkpt>
      <trkpt lat="44.24644" lon="2.54451">
        <ele>714</ele>
        <time>2022-06-12T08:22:22.062Z</time>
      </trkpt>
      <trkpt lat="44.24646" lon="2.5445">
        <ele>714</ele>
        <time>2022-06-12T08:22:23.062Z</time>
      </trkpt>
      <trkpt lat="44.24647" lon="2.5445">
        <ele>714</ele>
        <time>2022-06-12T08:22:24.062Z</time>
      </trkpt>
      <trkpt lat="44.24648" lon="2.5445">
        <ele>713</ele>
        <time>2022-06-12T08:22:25.062Z</time>
      </trkpt>
      <trkpt lat="44.24649" lon="2.54449">
        <ele>714</ele>
        <time>2022-06-12T08:22:26.062Z</time>
      </trkpt>
      <trkpt lat="44.2465" lon="2.54449">
        <ele>714</ele>
        <time>2022-06-12T08:22:27.062Z</time>
      </trkpt>
      <trkpt lat="44.24651" lon="2.54448">
        <ele>714</ele>
        <time>2022-06-12T08:22:28.062Z</time>
      </trkpt>
      <trkpt lat="44.24652" lon="2.54448">
        <ele>714</ele>
        <time>2022-06-12T08:22:29.062Z</time>
      </trkpt>
      <trkpt lat="44.24653" lon="2.54447">
        <ele>714</ele>
        <time>2022-06-12T08:22:30.062Z</time>
      </trkpt>
      <trkpt lat="44.24654" lon="2.54446">
        <ele>714</ele>
        <time>2022-06-12T08:22:31.062Z</time>
      </trkpt>
      <trkpt lat="44.24655" lon="2.54446">
        <ele>714</ele>
        <time>2022-06-12T08:22:32.062Z</time>
      </trkpt>
      <trkpt lat="44.24656" lon="2.54445">
        <ele>714</ele>
        <time>2022-06-12T08:22:33.062Z</time>
      </trkpt>
      <trkpt lat="44.24657" lon="2.54444">
        <ele>714</ele>
        <time>2022-06-12T08:22:34.062Z</time>
      </trkpt>
      <trkpt lat="44.24659" lon="2.54443">
        <ele>714</ele>
        <time>2022-06-12T08:22:35.062Z</time>
      </trkpt>
      <trkpt lat="44.24659" lon="2.54443">
        <ele>714</ele>
        <time>2022-06-12T08:22:36.062Z</time>
      </trkpt>
      <trkpt lat="44.2466" lon="2.54442">
        <ele>715</ele>
        <time>2022-06-12T08:22:37.062Z</time>
      </trkpt>
      <trkpt lat="44.24661" lon="2.54441">
        <ele>715</ele>
        <time>2022-06-12T08:22:38.062Z</time>
      </trkpt>
      <trkpt lat="44.24663" lon="2.5444">
        <ele>715</ele>
        <time>2022-06-12T08:22:39.062Z</time>
      </trkpt>
      <trkpt lat="44.24664" lon="2.54439">
        <ele>715</ele>
        <time>2022-06-12T08:22:40.062Z</time>
      </trkpt>
      <trkpt lat="44.24664" lon="2.54439">
        <ele>715</ele>
        <time>2022-06-12T08:22:41.062Z</time>
      </trkpt>
      <trkpt lat="44.24665" lon="2.54438">
        <ele>715</ele>
        <time>2022-06-12T08:22:42.062Z</time>
      </trkpt>
      <trkpt lat="44.24666" lon="2.54437">
        <ele>715</ele>
        <time>2022-06-12T08:22:43.062Z</time>
      </trkpt>
      <trkpt lat="44.24666" lon="2.54437">
        <ele>715</ele>
        <time>2022-06-12T08:22:44.062Z</time>
      </trkpt>
      <trkpt lat="44.24666" lon="2.54437">
        <ele>715</ele>
        <time>2022-06-12T08:22:45.062Z</time>
      </trkpt>
      <trkpt lat="44.24666" lon="2.54437">
        <ele>715</ele>
        <time>2022-06-12T08:22:46.062Z</time>
      </trkpt>
      <trkpt lat="44.24667" lon="2.54437">
        <ele>715</ele>
        <time>2022-06-12T08:22:47.062Z</time>
      </trkpt>
      <trkpt lat="44.24668" lon="2.54437">
        <ele>715</ele>
        <time>2022-06-12T08:22:48.062Z</time>
      </trkpt>
      <trkpt lat="44.24669" lon="2.54438">
        <ele>715</ele>
        <time>2022-06-12T08:22:49.062Z</time>
      </trkpt>
      <trkpt lat="44.2467" lon="2.54438">
        <ele>716</ele>
        <time>2022-06-12T08:22:50.062Z</time>
      </trkpt>
      <trkpt lat="44.24671" lon="2.54438">
        <ele>716</ele>
        <time>2022-06-12T08:22:51.062Z</time>
      </trkpt>
      <trkpt lat="44.24671" lon="2.54438">
        <ele>716</ele>
        <time>2022-06-12T08:22:52.062Z</time>
      </trkpt>
      <trkpt lat="44.24672" lon="2.54439">
        <ele>716</ele>
        <time>2022-06-12T08:22:53.062Z</time>
      </trkpt>
      <trkpt lat="44.24673" lon="2.54439">
        <ele>716</ele>
        <time>2022-06-12T08:22:54.062Z</time>
      </trkpt>
      <trkpt lat="44.24674" lon="2.5444">
        <ele>716</ele>
        <time>2022-06-12T08:22:55.062Z</time>
      </trkpt>
      <trkpt lat="44.24675" lon="2.5444">
        <ele>716</ele>
        <time>2022-06-12T08:22:56.062Z</time>
      </trkpt>
      <trkpt lat="44.24676" lon="2.54441">
        <ele>717</ele>
        <time>2022-06-12T08:22:57.062Z</time>
      </trkpt>
      <trkpt lat="44.24677" lon="2.54441">
        <ele>717</ele>
        <time>2022-06-12T08:22:58.062Z</time>
      </trkpt>
      <trkpt lat="44.24678" lon="2.54441">
        <ele>717</ele>
        <time>2022-06-12T08:22:59.062Z</time>
      </trkpt>
      <trkpt lat="44.2468" lon="2.54441">
        <ele>717</ele>
        <time>2022-06-12T08:23:00.062Z</time>
      </trkpt>
      <trkpt lat="44.24681" lon="2.54441">
        <ele>718</ele>
        <time>2022-06-12T08:23:01.062Z</time>
      </trkpt>
      <trkpt lat="44.24682" lon="2.54441">
        <ele>718</ele>
        <time>2022-06-12T08:23:02.062Z</time>
      </trkpt>
      <trkpt lat="44.24683" lon="2.54441">
        <ele>718</ele>
        <time>2022-06-12T08:23:03.062Z</time>
      </trkpt>
      <trkpt lat="44.24684" lon="2.54442">
        <ele>718</ele>
        <time>2022-06-12T08:23:04.062Z</time>
      </trkpt>
      <trkpt lat="44.24685" lon="2.54442">
        <ele>718</ele>
        <time>2022-06-12T08:23:05.062Z</time>
      </trkpt>
      <trkpt lat="44.24686" lon="2.54443">
        <ele>718</ele>
        <time>2022-06-12T08:23:06.062Z</time>
      </trkpt>
      <trkpt lat="44.24687" lon="2.54443">
        <ele>718</ele>
        <time>2022-06-12T08:23:07.062Z</time>
      </trkpt>
      <trkpt lat="44.24688" lon="2.54444">
        <ele>719</ele>
        <time>2022-06-12T08:23:08.062Z</time>
      </trkpt>
      <trkpt lat="44.24689" lon="2.54444">
        <ele>719</ele>
        <time>2022-06-12T08:23:09.062Z</time>
      </trkpt>
      <trkpt lat="44.2469" lon="2.54445">
        <ele>719</ele>
        <time>2022-06-12T08:23:10.062Z</time>
      </trkpt>
      <trkpt lat="44.24692" lon="2.54445">
        <ele>719</ele>
        <time>2022-06-12T08:23:11.062Z</time>
      </trkpt>
      <trkpt lat="44.24693" lon="2.54446">
        <ele>719</ele>
        <time>2022-06-12T08:23:12.062Z</time>
      </trkpt>
      <trkpt lat="44.24694" lon="2.54446">
        <ele>719</ele>
        <time>2022-06-12T08:23:13.062Z</time>
      </trkpt>
      <trkpt lat="44.24695" lon="2.54446">
        <ele>719</ele>
        <time>2022-06-12T08:23:14.062Z</time>
      </trkpt>
      <trkpt lat="44.24696" lon="2.54446">
        <ele>719</ele>
        <time>2022-06-12T08:23:15.062Z</time>
      </trkpt>
      <trkpt lat="44.24697" lon="2.54447">
        <ele>719</ele>
        <time>2022-06-12T08:23:16.062Z</time>
      </trkpt>
      <trkpt lat="44.24698" lon="2.54447">
        <ele>719</ele>
        <time>2022-06-12T08:23:17.062Z</time>
      </trkpt>
      <trkpt lat="44.247" lon="2.54447">
        <ele>719</ele>
        <time>2022-06-12T08:23:18.062Z</time>
      </trkpt>
      <trkpt lat="44.24701" lon="2.54447">
        <ele>719</ele>
        <time>2022-06-12T08:23:19.062Z</time>
      </trkpt>
      <trkpt lat="44.24702" lon="2.54448">
        <ele>719</ele>
        <time>2022-06-12T08:23:20.062Z</time>
      </trkpt>
      <trkpt lat="44.24703" lon="2.54448">
        <ele>719</ele>
        <time>2022-06-12T08:23:21.062Z</time>
      </trkpt>
      <trkpt lat="44.24704" lon="2.54448">
        <ele>720</ele>
        <time>2022-06-12T08:23:22.062Z</time>
      </trkpt>
      <trkpt lat="44.24705" lon="2.54449">
        <ele>720</ele>
        <time>2022-06-12T08:23:23.062Z</time>
      </trkpt>
      <trkpt lat="44.24706" lon="2.54449">
        <ele>720</ele>
        <time>2022-06-12T08:23:24.062Z</time>
      </trkpt>
      <trkpt lat="44.24707" lon="2.54449">
        <ele>720</ele>
        <time>2022-06-12T08:23:25.062Z</time>
      </trkpt>
      <trkpt lat="44.24708" lon="2.54449">
        <ele>720</ele>
        <time>2022-06-12T08:23:26.062Z</time>
      </trkpt>
      <trkpt lat="44.24709" lon="2.54449">
        <ele>720</ele>
        <time>2022-06-12T08:23:27.062Z</time>
      </trkpt>
      <trkpt lat="44.24711" lon="2.5445">
        <ele>720</ele>
        <time>2022-06-12T08:23:28.062Z</time>
      </trkpt>
      <trkpt lat="44.24712" lon="2.5445">
        <ele>720</ele>
        <time>2022-06-12T08:23:29.062Z</time>
      </trkpt>
      <trkpt lat="44.24713" lon="2.54451">
        <ele>720</ele>
        <time>2022-06-12T08:23:30.062Z</time>
      </trkpt>
      <trkpt lat="44.24714" lon="2.54451">
        <ele>720</ele>
        <time>2022-06-12T08:23:31.062Z</time>
      </trkpt>
      <trkpt lat="44.24715" lon="2.54452">
        <ele>720</ele>
        <time>2022-06-12T08:23:32.062Z</time>
      </trkpt>
      <trkpt lat="44.24716" lon="2.54452">
        <ele>720</ele>
        <time>2022-06-12T08:23:33.062Z</time>
      </trkpt>
      <trkpt lat="44.24717" lon="2.54452">
        <ele>720</ele>
        <time>2022-06-12T08:23:34.062Z</time>
      </trkpt>
      <trkpt lat="44.24719" lon="2.54453">
        <ele>720</ele>
        <time>2022-06-12T08:23:35.062Z</time>
      </trkpt>
      <trkpt lat="44.2472" lon="2.54453">
        <ele>720</ele>
        <time>2022-06-12T08:23:36.062Z</time>
      </trkpt>
      <trkpt lat="44.24721" lon="2.54453">
        <ele>720</ele>
        <time>2022-06-12T08:23:37.062Z</time>
      </trkpt>
      <trkpt lat="44.24722" lon="2.54454">
        <ele>720</ele>
        <time>2022-06-12T08:23:38.062Z</time>
      </trkpt>
      <trkpt lat="44.24724" lon="2.54454">
        <ele>720</ele>
        <time>2022-06-12T08:23:39.062Z</time>
      </trkpt>
      <trkpt lat="44.24725" lon="2.54455">
        <ele>720</ele>
        <time>2022-06-12T08:23:40.062Z</time>
      </trkpt>
      <trkpt lat="44.24726" lon="2.54455">
        <ele>720</ele>
        <time>2022-06-12T08:23:41.062Z</time>
      </trkpt>
      <trkpt lat="44.24727" lon="2.54455">
        <ele>720</ele>
        <time>2022-06-12T08:23:42.062Z</time>
      </trkpt>
      <trkpt lat="44.24729" lon="2.54455">
        <ele>720</ele>
        <time>2022-06-12T08:23:43.062Z</time>
      </trkpt>
      <trkpt lat="44.2473" lon="2.54455">
        <ele>720</ele>
        <time>2022-06-12T08:23:44.062Z</time>
      </trkpt>
      <trkpt lat="44.24731" lon="2.54456">
        <ele>719</ele>
        <time>2022-06-12T08:23:45.062Z</time>
      </trkpt>
      <trkpt lat="44.24732" lon="2.54456">
        <ele>719</ele>
        <time>2022-06-12T08:23:46.062Z</time>
      </trkpt>
      <trkpt lat="44.24733" lon="2.54457">
        <ele>719</ele>
        <time>2022-06-12T08:23:47.062Z</time>
      </trkpt>
      <trkpt lat="44.24735" lon="2.54457">
        <ele>719</ele>
        <time>2022-06-12T08:23:48.062Z</time>
      </trkpt>
      <trkpt lat="44.24736" lon="2.54458">
        <ele>719</ele>
        <time>2022-06-12T08:23:49.062Z</time>
      </trkpt>
      <trkpt lat="44.24737" lon="2.54458">
        <ele>719</ele>
        <time>2022-06-12T08:23:50.062Z</time>
      </trkpt>
      <trkpt lat="44.24738" lon="2.54458">
        <ele>719</ele>
        <time>2022-06-12T08:23:51.062Z</time>
      </trkpt>
      <trkpt lat="44.2474" lon="2.54459">
        <ele>719</ele>
        <time>2022-06-12T08:23:52.062Z</time>
      </trkpt>
      <trkpt lat="44.24741" lon="2.54459">
        <ele>719</ele>
        <time>2022-06-12T08:23:53.062Z</time>
      </trkpt>
      <trkpt lat="44.24742" lon="2.54459">
        <ele>718</ele>
        <time>2022-06-12T08:23:54.062Z</time>
      </trkpt>
      <trkpt lat="44.24743" lon="2.5446">
        <ele>718</ele>
        <time>2022-06-12T08:23:55.062Z</time>
      </trkpt>
      <trkpt lat="44.24744" lon="2.5446">
        <ele>718</ele>
        <time>2022-06-12T08:23:56.062Z</time>
      </trkpt>
      <trkpt lat="44.24746" lon="2.5446">
        <ele>718</ele>
        <time>2022-06-12T08:23:57.062Z</time>
      </trkpt>
      <trkpt lat="44.24747" lon="2.5446">
        <ele>718</ele>
        <time>2022-06-12T08:23:58.062Z</time>
      </trkpt>
      <trkpt lat="44.24748" lon="2.5446">
        <ele>718</ele>
        <time>2022-06-12T08:23:59.062Z</time>
      </trkpt>
      <trkpt lat="44.24749" lon="2.54461">
        <ele>718</ele>
        <time>2022-06-12T08:24:00.062Z</time>
      </trkpt>
      <trkpt lat="44.2475" lon="2.54461">
        <ele>718</ele>
        <time>2022-06-12T08:24:01.062Z</time>
      </trkpt>
      <trkpt lat="44.24752" lon="2.54462">
        <ele>718</ele>
        <time>2022-06-12T08:24:02.062Z</time>
      </trkpt>
      <trkpt lat="44.24753" lon="2.54462">
        <ele>717</ele>
        <time>2022-06-12T08:24:03.062Z</time>
      </trkpt>
      <trkpt lat="44.24754" lon="2.54463">
        <ele>717</ele>
        <time>2022-06-12T08:24:04.062Z</time>
      </trkpt>
      <trkpt lat="44.24756" lon="2.54463">
        <ele>717</ele>
        <time>2022-06-12T08:24:05.062Z</time>
      </trkpt>
      <trkpt lat="44.24757" lon="2.54463">
        <ele>717</ele>
        <time>2022-06-12T08:24:06.062Z</time>
      </trkpt>
      <trkpt lat="44.24758" lon="2.54464">
        <ele>717</ele>
        <time>2022-06-12T08:24:07.062Z</time>
      </trkpt>
      <trkpt lat="44.24759" lon="2.54464">
        <ele>717</ele>
        <time>2022-06-12T08:24:08.062Z</time>
      </trkpt>
      <trkpt lat="44.2476" lon="2.54465">
        <ele>717</ele>
        <time>2022-06-12T08:24:09.062Z</time>
      </trkpt>
      <trkpt lat="44.24762" lon="2.54465">
        <ele>717</ele>
        <time>2022-06-12T08:24:10.062Z</time>
      </trkpt>
      <trkpt lat="44.24763" lon="2.54465">
        <ele>717</ele>
        <time>2022-06-12T08:24:11.062Z</time>
      </trkpt>
      <trkpt lat="44.24764" lon="2.54465">
        <ele>717</ele>
        <time>2022-06-12T08:24:12.062Z</time>
      </trkpt>
      <trkpt lat="44.24765" lon="2.54465">
        <ele>717</ele>
        <time>2022-06-12T08:24:13.062Z</time>
      </trkpt>
      <trkpt lat="44.24767" lon="2.54465">
        <ele>717</ele>
        <time>2022-06-12T08:24:14.062Z</time>
      </trkpt>
      <trkpt lat="44.24768" lon="2.54466">
        <ele>717</ele>
        <time>2022-06-12T08:24:15.062Z</time>
      </trkpt>
      <trkpt lat="44.24769" lon="2.54465">
        <ele>717</ele>
        <time>2022-06-12T08:24:16.062Z</time>
      </trkpt>
      <trkpt lat="44.2477" lon="2.54465">
        <ele>717</ele>
        <time>2022-06-12T08:24:17.062Z</time>
      </trkpt>
      <trkpt lat="44.24771" lon="2.54465">
        <ele>717</ele>
        <time>2022-06-12T08:24:18.062Z</time>
      </trkpt>
      <trkpt lat="44.24772" lon="2.54465">
        <ele>717</ele>
        <time>2022-06-12T08:24:19.062Z</time>
      </trkpt>
      <trkpt lat="44.24773" lon="2.54466">
        <ele>717</ele>
        <time>2022-06-12T08:24:20.062Z</time>
      </trkpt>
      <trkpt lat="44.24774" lon="2.54466">
        <ele>717</ele>
        <time>2022-06-12T08:24:21.062Z</time>
      </trkpt>
      <trkpt lat="44.24774" lon="2.54467">
        <ele>717</ele>
        <time>2022-06-12T08:24:22.062Z</time>
      </trkpt>
      <trkpt lat="44.24774" lon="2.54467">
        <ele>717</ele>
        <time>2022-06-12T08:24:23.062Z</time>
      </trkpt>
      <trkpt lat="44.24774" lon="2.54467">
        <ele>717</ele>
        <time>2022-06-12T08:24:24.062Z</time>
      </trkpt>
      <trkpt lat="44.24775" lon="2.54467">
        <ele>717</ele>
        <time>2022-06-12T08:24:25.062Z</time>
      </trkpt>
      <trkpt lat="44.24776" lon="2.54467">
        <ele>717</ele>
        <time>2022-06-12T08:24:26.062Z</time>
      </trkpt>
      <trkpt lat="44.24777" lon="2.54467">
        <ele>717</ele>
        <time>2022-06-12T08:24:27.062Z</time>
      </trkpt>
      <trkpt lat="44.24777" lon="2.54467">
        <ele>717</ele>
        <time>2022-06-12T08:24:28.062Z</time>
      </trkpt>
      <trkpt lat="44.24778" lon="2.54467">
        <ele>717</ele>
        <time>2022-06-12T08:24:29.062Z</time>
      </trkpt>
      <trkpt lat="44.24778" lon="2.54468">
        <ele>717</ele>
        <time>2022-06-12T08:24:30.062Z</time>
      </trkpt>
      <trkpt lat="44.24778" lon="2.54468">
        <ele>717</ele>
        <time>2022-06-12T08:24:31.062Z</time>
      </trkpt>
      <trkpt lat="44.24778" lon="2.54467">
        <ele>717</ele>
        <time>2022-06-12T08:24:32.062Z</time>
      </trkpt>
      <trkpt lat="44.2478" lon="2.54468">
        <ele>717</ele>
        <time>2022-06-12T08:24:35.317Z</time>
      </trkpt>
      <trkpt lat="44.24781" lon="2.54469">
        <ele>717</ele>
        <time>2022-06-12T08:24:36.317Z</time>
      </trkpt>
      <trkpt lat="44.24782" lon="2.54469">
        <ele>717</ele>
        <time>2022-06-12T08:24:37.317Z</time>
      </trkpt>
      <trkpt lat="44.24783" lon="2.54469">
        <ele>717</ele>
        <time>2022-06-12T08:24:38.317Z</time>
      </trkpt>
      <trkpt lat="44.24784" lon="2.54469">
        <ele>717</ele>
        <time>2022-06-12T08:24:39.317Z</time>
      </trkpt>
      <trkpt lat="44.24785" lon="2.54469">
        <ele>717</ele>
        <time>2022-06-12T08:24:40.317Z</time>
      </trkpt>
      <trkpt lat="44.24786" lon="2.5447">
        <ele>717</ele>
        <time>2022-06-12T08:24:41.317Z</time>
      </trkpt>
      <trkpt lat="44.24787" lon="2.5447">
        <ele>717</ele>
        <time>2022-06-12T08:24:42.317Z</time>
      </trkpt>
      <trkpt lat="44.24788" lon="2.5447">
        <ele>718</ele>
        <time>2022-06-12T08:24:43.317Z</time>
      </trkpt>
      <trkpt lat="44.24789" lon="2.5447">
        <ele>718</ele>
        <time>2022-06-12T08:24:44.317Z</time>
      </trkpt>
      <trkpt lat="44.24791" lon="2.5447">
        <ele>718</ele>
        <time>2022-06-12T08:24:45.317Z</time>
      </trkpt>
      <trkpt lat="44.24792" lon="2.54471">
        <ele>718</ele>
        <time>2022-06-12T08:24:46.317Z</time>
      </trkpt>
      <trkpt lat="44.24793" lon="2.54471">
        <ele>718</ele>
        <time>2022-06-12T08:24:47.317Z</time>
      </trkpt>
      <trkpt lat="44.24794" lon="2.54471">
        <ele>718</ele>
        <time>2022-06-12T08:24:48.317Z</time>
      </trkpt>
      <trkpt lat="44.24795" lon="2.54471">
        <ele>718</ele>
        <time>2022-06-12T08:24:49.317Z</time>
      </trkpt>
      <trkpt lat="44.24796" lon="2.54471">
        <ele>718</ele>
        <time>2022-06-12T08:24:50.317Z</time>
      </trkpt>
      <trkpt lat="44.24796" lon="2.54471">
        <ele>718</ele>
        <time>2022-06-12T08:24:51.317Z</time>
      </trkpt>
      <trkpt lat="44.24797" lon="2.54472">
        <ele>718</ele>
        <time>2022-06-12T08:24:52.317Z</time>
      </trkpt>
      <trkpt lat="44.24797" lon="2.54472">
        <ele>718</ele>
        <time>2022-06-12T08:24:53.317Z</time>
      </trkpt>
      <trkpt lat="44.24798" lon="2.54471">
        <ele>718</ele>
        <time>2022-06-12T08:24:54.317Z</time>
      </trkpt>
      <trkpt lat="44.24799" lon="2.54471">
        <ele>718</ele>
        <time>2022-06-12T08:24:55.317Z</time>
      </trkpt>
      <trkpt lat="44.24801" lon="2.54471">
        <ele>719</ele>
        <time>2022-06-12T08:24:56.317Z</time>
      </trkpt>
      <trkpt lat="44.24802" lon="2.54471">
        <ele>719</ele>
        <time>2022-06-12T08:24:57.317Z</time>
      </trkpt>
      <trkpt lat="44.24803" lon="2.54471">
        <ele>718</ele>
        <time>2022-06-12T08:24:58.317Z</time>
      </trkpt>
      <trkpt lat="44.24804" lon="2.54471">
        <ele>718</ele>
        <time>2022-06-12T08:24:59.317Z</time>
      </trkpt>
      <trkpt lat="44.24805" lon="2.54471">
        <ele>718</ele>
        <time>2022-06-12T08:25:00.317Z</time>
      </trkpt>
      <trkpt lat="44.24806" lon="2.54471">
        <ele>718</ele>
        <time>2022-06-12T08:25:01.317Z</time>
      </trkpt>
      <trkpt lat="44.24807" lon="2.54471">
        <ele>718</ele>
        <time>2022-06-12T08:25:02.317Z</time>
      </trkpt>
      <trkpt lat="44.24809" lon="2.54471">
        <ele>718</ele>
        <time>2022-06-12T08:25:03.317Z</time>
      </trkpt>
      <trkpt lat="44.2481" lon="2.54471">
        <ele>718</ele>
        <time>2022-06-12T08:25:04.317Z</time>
      </trkpt>
      <trkpt lat="44.24811" lon="2.54471">
        <ele>718</ele>
        <time>2022-06-12T08:25:05.317Z</time>
      </trkpt>
      <trkpt lat="44.24812" lon="2.54471">
        <ele>718</ele>
        <time>2022-06-12T08:25:06.317Z</time>
      </trkpt>
      <trkpt lat="44.24813" lon="2.54471">
        <ele>718</ele>
        <time>2022-06-12T08:25:07.317Z</time>
      </trkpt>
      <trkpt lat="44.24814" lon="2.54471">
        <ele>718</ele>
        <time>2022-06-12T08:25:08.317Z</time>
      </trkpt>
      <trkpt lat="44.24816" lon="2.54471">
        <ele>718</ele>
        <time>2022-06-12T08:25:09.317Z</time>
      </trkpt>
      <trkpt lat="44.24817" lon="2.54471">
        <ele>718</ele>
        <time>2022-06-12T08:25:10.317Z</time>
      </trkpt>
      <trkpt lat="44.24818" lon="2.54471">
        <ele>718</ele>
        <time>2022-06-12T08:25:11.317Z</time>
      </trkpt>
      <trkpt lat="44.24819" lon="2.54471">
        <ele>718</ele>
        <time>2022-06-12T08:25:12.317Z</time>
      </trkpt>
      <trkpt lat="44.2482" lon="2.54471">
        <ele>718</ele>
        <time>2022-06-12T08:25:13.317Z</time>
      </trkpt>
      <trkpt lat="44.24821" lon="2.54471">
        <ele>718</ele>
        <time>2022-06-12T08:25:14.317Z</time>
      </trkpt>
      <trkpt lat="44.24822" lon="2.54471">
        <ele>718</ele>
        <time>2022-06-12T08:25:15.317Z</time>
      </trkpt>
      <trkpt lat="44.24823" lon="2.54471">
        <ele>718</ele>
        <time>2022-06-12T08:25:16.317Z</time>
      </trkpt>
      <trkpt lat="44.24824" lon="2.54471">
        <ele>718</ele>
        <time>2022-06-12T08:25:17.317Z</time>
      </trkpt>
      <trkpt lat="44.24825" lon="2.5447">
        <ele>718</ele>
        <time>2022-06-12T08:25:18.317Z</time>
      </trkpt>
      <trkpt lat="44.24826" lon="2.5447">
        <ele>718</ele>
        <time>2022-06-12T08:25:19.317Z</time>
      </trkpt>
      <trkpt lat="44.24827" lon="2.5447">
        <ele>718</ele>
        <time>2022-06-12T08:25:20.317Z</time>
      </trkpt>
      <trkpt lat="44.24829" lon="2.5447">
        <ele>718</ele>
        <time>2022-06-12T08:25:21.317Z</time>
      </trkpt>
      <trkpt lat="44.2483" lon="2.5447">
        <ele>718</ele>
        <time>2022-06-12T08:25:22.317Z</time>
      </trkpt>
      <trkpt lat="44.24831" lon="2.5447">
        <ele>718</ele>
        <time>2022-06-12T08:25:23.317Z</time>
      </trkpt>
      <trkpt lat="44.24832" lon="2.54469">
        <ele>718</ele>
        <time>2022-06-12T08:25:24.317Z</time>
      </trkpt>
      <trkpt lat="44.24833" lon="2.54469">
        <ele>718</ele>
        <time>2022-06-12T08:25:25.317Z</time>
      </trkpt>
      <trkpt lat="44.24834" lon="2.54469">
        <ele>718</ele>
        <time>2022-06-12T08:25:26.317Z</time>
      </trkpt>
      <trkpt lat="44.24835" lon="2.54469">
        <ele>719</ele>
        <time>2022-06-12T08:25:27.317Z</time>
      </trkpt>
      <trkpt lat="44.24836" lon="2.54469">
        <ele>719</ele>
        <time>2022-06-12T08:25:28.317Z</time>
      </trkpt>
      <trkpt lat="44.24837" lon="2.54469">
        <ele>719</ele>
        <time>2022-06-12T08:25:29.317Z</time>
      </trkpt>
      <trkpt lat="44.24838" lon="2.54468">
        <ele>719</ele>
        <time>2022-06-12T08:25:30.317Z</time>
      </trkpt>
      <trkpt lat="44.24839" lon="2.54468">
        <ele>719</ele>
        <time>2022-06-12T08:25:31.317Z</time>
      </trkpt>
      <trkpt lat="44.2484" lon="2.54468">
        <ele>719</ele>
        <time>2022-06-12T08:25:32.317Z</time>
      </trkpt>
      <trkpt lat="44.24842" lon="2.54468">
        <ele>719</ele>
        <time>2022-06-12T08:25:33.317Z</time>
      </trkpt>
      <trkpt lat="44.24843" lon="2.54468">
        <ele>719</ele>
        <time>2022-06-12T08:25:34.317Z</time>
      </trkpt>
      <trkpt lat="44.24844" lon="2.54467">
        <ele>719</ele>
        <time>2022-06-12T08:25:35.317Z</time>
      </trkpt>
      <trkpt lat="44.24845" lon="2.54467">
        <ele>719</ele>
        <time>2022-06-12T08:25:36.317Z</time>
      </trkpt>
      <trkpt lat="44.24846" lon="2.54467">
        <ele>719</ele>
        <time>2022-06-12T08:25:37.317Z</time>
      </trkpt>
      <trkpt lat="44.24847" lon="2.54467">
        <ele>719</ele>
        <time>2022-06-12T08:25:38.317Z</time>
      </trkpt>
      <trkpt lat="44.24849" lon="2.54467">
        <ele>719</ele>
        <time>2022-06-12T08:25:39.317Z</time>
      </trkpt>
      <trkpt lat="44.2485" lon="2.54467">
        <ele>719</ele>
        <time>2022-06-12T08:25:40.317Z</time>
      </trkpt>
      <trkpt lat="44.24851" lon="2.54467">
        <ele>719</ele>
        <time>2022-06-12T08:25:41.317Z</time>
      </trkpt>
      <trkpt lat="44.24852" lon="2.54467">
        <ele>719</ele>
        <time>2022-06-12T08:25:42.317Z</time>
      </trkpt>
      <trkpt lat="44.24853" lon="2.54467">
        <ele>719</ele>
        <time>2022-06-12T08:25:43.317Z</time>
      </trkpt>
      <trkpt lat="44.24855" lon="2.54467">
        <ele>719</ele>
        <time>2022-06-12T08:25:44.317Z</time>
      </trkpt>
      <trkpt lat="44.24856" lon="2.54467">
        <ele>719</ele>
        <time>2022-06-12T08:25:45.317Z</time>
      </trkpt>
      <trkpt lat="44.24857" lon="2.54467">
        <ele>719</ele>
        <time>2022-06-12T08:25:46.317Z</time>
      </trkpt>
      <trkpt lat="44.24858" lon="2.54466">
        <ele>719</ele>
        <time>2022-06-12T08:25:47.317Z</time>
      </trkpt>
      <trkpt lat="44.24859" lon="2.54466">
        <ele>720</ele>
        <time>2022-06-12T08:25:48.317Z</time>
      </trkpt>
      <trkpt lat="44.24861" lon="2.54466">
        <ele>720</ele>
        <time>2022-06-12T08:25:49.317Z</time>
      </trkpt>
      <trkpt lat="44.24862" lon="2.54466">
        <ele>720</ele>
        <time>2022-06-12T08:25:50.317Z</time>
      </trkpt>
      <trkpt lat="44.24863" lon="2.54466">
        <ele>720</ele>
        <time>2022-06-12T08:25:51.317Z</time>
      </trkpt>
      <trkpt lat="44.24864" lon="2.54465">
        <ele>720</ele>
        <time>2022-06-12T08:25:52.317Z</time>
      </trkpt>
      <trkpt lat="44.24865" lon="2.54465">
        <ele>720</ele>
        <time>2022-06-12T08:25:53.317Z</time>
      </trkpt>
      <trkpt lat="44.24867" lon="2.54465">
        <ele>720</ele>
        <time>2022-06-12T08:25:54.317Z</time>
      </trkpt>
      <trkpt lat="44.24868" lon="2.54465">
        <ele>720</ele>
        <time>2022-06-12T08:25:55.317Z</time>
      </trkpt>
      <trkpt lat="44.24869" lon="2.54465">
        <ele>721</ele>
        <time>2022-06-12T08:25:56.317Z</time>
      </trkpt>
      <trkpt lat="44.2487" lon="2.54465">
        <ele>721</ele>
        <time>2022-06-12T08:25:57.317Z</time>
      </trkpt>
      <trkpt lat="44.24872" lon="2.54464">
        <ele>721</ele>
        <time>2022-06-12T08:25:58.317Z</time>
      </trkpt>
      <trkpt lat="44.24873" lon="2.54464">
        <ele>721</ele>
        <time>2022-06-12T08:25:59.317Z</time>
      </trkpt>
      <trkpt lat="44.24874" lon="2.54464">
        <ele>721</ele>
        <time>2022-06-12T08:26:00.317Z</time>
      </trkpt>
      <trkpt lat="44.24876" lon="2.54464">
        <ele>720</ele>
        <time>2022-06-12T08:26:01.317Z</time>
      </trkpt>
      <trkpt lat="44.24877" lon="2.54464">
        <ele>720</ele>
        <time>2022-06-12T08:26:02.317Z</time>
      </trkpt>
      <trkpt lat="44.24878" lon="2.54465">
        <ele>720</ele>
        <time>2022-06-12T08:26:03.317Z</time>
      </trkpt>
      <trkpt lat="44.24879" lon="2.54465">
        <ele>720</ele>
        <time>2022-06-12T08:26:04.317Z</time>
      </trkpt>
      <trkpt lat="44.24881" lon="2.54465">
        <ele>720</ele>
        <time>2022-06-12T08:26:05.317Z</time>
      </trkpt>
      <trkpt lat="44.24882" lon="2.54465">
        <ele>720</ele>
        <time>2022-06-12T08:26:06.317Z</time>
      </trkpt>
      <trkpt lat="44.24884" lon="2.54464">
        <ele>720</ele>
        <time>2022-06-12T08:26:07.317Z</time>
      </trkpt>
      <trkpt lat="44.24885" lon="2.54464">
        <ele>720</ele>
        <time>2022-06-12T08:26:08.317Z</time>
      </trkpt>
      <trkpt lat="44.24886" lon="2.54464">
        <ele>720</ele>
        <time>2022-06-12T08:26:09.317Z</time>
      </trkpt>
      <trkpt lat="44.24887" lon="2.54464">
        <ele>720</ele>
        <time>2022-06-12T08:26:10.317Z</time>
      </trkpt>
      <trkpt lat="44.24889" lon="2.54464">
        <ele>720</ele>
        <time>2022-06-12T08:26:11.317Z</time>
      </trkpt>
      <trkpt lat="44.2489" lon="2.54464">
        <ele>720</ele>
        <time>2022-06-12T08:26:12.317Z</time>
      </trkpt>
      <trkpt lat="44.24891" lon="2.54464">
        <ele>720</ele>
        <time>2022-06-12T08:26:13.317Z</time>
      </trkpt>
      <trkpt lat="44.24893" lon="2.54464">
        <ele>719</ele>
        <time>2022-06-12T08:26:14.317Z</time>
      </trkpt>
      <trkpt lat="44.24894" lon="2.54464">
        <ele>719</ele>
        <time>2022-06-12T08:26:15.317Z</time>
      </trkpt>
      <trkpt lat="44.24895" lon="2.54464">
        <ele>719</ele>
        <time>2022-06-12T08:26:16.317Z</time>
      </trkpt>
      <trkpt lat="44.24896" lon="2.54464">
        <ele>719</ele>
        <time>2022-06-12T08:26:17.317Z</time>
      </trkpt>
      <trkpt lat="44.24898" lon="2.54464">
        <ele>719</ele>
        <time>2022-06-12T08:26:18.317Z</time>
      </trkpt>
      <trkpt lat="44.24899" lon="2.54464">
        <ele>719</ele>
        <time>2022-06-12T08:26:19.317Z</time>
      </trkpt>
      <trkpt lat="44.249" lon="2.54464">
        <ele>719</ele>
        <time>2022-06-12T08:26:20.317Z</time>
      </trkpt>
      <trkpt lat="44.24901" lon="2.54464">
        <ele>719</ele>
        <time>2022-06-12T08:26:21.317Z</time>
      </trkpt>
      <trkpt lat="44.24903" lon="2.54464">
        <ele>719</ele>
        <time>2022-06-12T08:26:22.317Z</time>
      </trkpt>
      <trkpt lat="44.24904" lon="2.54463">
        <ele>719</ele>
        <time>2022-06-12T08:26:23.317Z</time>
      </trkpt>
      <trkpt lat="44.24905" lon="2.54463">
        <ele>719</ele>
        <time>2022-06-12T08:26:24.317Z</time>
      </trkpt>
      <trkpt lat="44.24906" lon="2.54463">
        <ele>719</ele>
        <time>2022-06-12T08:26:25.317Z</time>
      </trkpt>
      <trkpt lat="44.24907" lon="2.54463">
        <ele>719</ele>
        <time>2022-06-12T08:26:26.317Z</time>
      </trkpt>
      <trkpt lat="44.24908" lon="2.54463">
        <ele>719</ele>
        <time>2022-06-12T08:26:27.317Z</time>
      </trkpt>
      <trkpt lat="44.2491" lon="2.54462">
        <ele>719</ele>
        <time>2022-06-12T08:26:28.317Z</time>
      </trkpt>
      <trkpt lat="44.24911" lon="2.54462">
        <ele>719</ele>
        <time>2022-06-12T08:26:29.317Z</time>
      </trkpt>
      <trkpt lat="44.24912" lon="2.54462">
        <ele>719</ele>
        <time>2022-06-12T08:26:30.317Z</time>
      </trkpt>
      <trkpt lat="44.24913" lon="2.54462">
        <ele>719</ele>
        <time>2022-06-12T08:26:31.317Z</time>
      </trkpt>
      <trkpt lat="44.24914" lon="2.54462">
        <ele>719</ele>
        <time>2022-06-12T08:26:32.317Z</time>
      </trkpt>
      <trkpt lat="44.24916" lon="2.54462">
        <ele>719</ele>
        <time>2022-06-12T08:26:33.317Z</time>
      </trkpt>
      <trkpt lat="44.24917" lon="2.54462">
        <ele>719</ele>
        <time>2022-06-12T08:26:34.317Z</time>
      </trkpt>
      <trkpt lat="44.24918" lon="2.54461">
        <ele>719</ele>
        <time>2022-06-12T08:26:35.317Z</time>
      </trkpt>
      <trkpt lat="44.24919" lon="2.54461">
        <ele>720</ele>
        <time>2022-06-12T08:26:36.317Z</time>
      </trkpt>
      <trkpt lat="44.24921" lon="2.54461">
        <ele>720</ele>
        <time>2022-06-12T08:26:37.317Z</time>
      </trkpt>
      <trkpt lat="44.24922" lon="2.54461">
        <ele>720</ele>
        <time>2022-06-12T08:26:38.317Z</time>
      </trkpt>
      <trkpt lat="44.24923" lon="2.54461">
        <ele>720</ele>
        <time>2022-06-12T08:26:39.317Z</time>
      </trkpt>
      <trkpt lat="44.24924" lon="2.54461">
        <ele>720</ele>
        <time>2022-06-12T08:26:40.317Z</time>
      </trkpt>
      <trkpt lat="44.24925" lon="2.54461">
        <ele>720</ele>
        <time>2022-06-12T08:26:41.317Z</time>
      </trkpt>
      <trkpt lat="44.24927" lon="2.5446">
        <ele>720</ele>
        <time>2022-06-12T08:26:42.317Z</time>
      </trkpt>
      <trkpt lat="44.24928" lon="2.5446">
        <ele>720</ele>
        <time>2022-06-12T08:26:43.317Z</time>
      </trkpt>
      <trkpt lat="44.24929" lon="2.5446">
        <ele>720</ele>
        <time>2022-06-12T08:26:44.317Z</time>
      </trkpt>
      <trkpt lat="44.2493" lon="2.5446">
        <ele>720</ele>
        <time>2022-06-12T08:26:45.317Z</time>
      </trkpt>
      <trkpt lat="44.24931" lon="2.54459">
        <ele>720</ele>
        <time>2022-06-12T08:26:46.317Z</time>
      </trkpt>
      <trkpt lat="44.24932" lon="2.54459">
        <ele>720</ele>
        <time>2022-06-12T08:26:47.317Z</time>
      </trkpt>
      <trkpt lat="44.24934" lon="2.54459">
        <ele>720</ele>
        <time>2022-06-12T08:26:48.317Z</time>
      </trkpt>
      <trkpt lat="44.24935" lon="2.54458">
        <ele>720</ele>
        <time>2022-06-12T08:26:49.317Z</time>
      </trkpt>
      <trkpt lat="44.24936" lon="2.54458">
        <ele>720</ele>
        <time>2022-06-12T08:26:50.317Z</time>
      </trkpt>
      <trkpt lat="44.24937" lon="2.54458">
        <ele>720</ele>
        <time>2022-06-12T08:26:51.317Z</time>
      </trkpt>
      <trkpt lat="44.24938" lon="2.54458">
        <ele>720</ele>
        <time>2022-06-12T08:26:52.317Z</time>
      </trkpt>
      <trkpt lat="44.24939" lon="2.54457">
        <ele>720</ele>
        <time>2022-06-12T08:26:53.317Z</time>
      </trkpt>
      <trkpt lat="44.2494" lon="2.54457">
        <ele>720</ele>
        <time>2022-06-12T08:26:54.317Z</time>
      </trkpt>
      <trkpt lat="44.24942" lon="2.54457">
        <ele>720</ele>
        <time>2022-06-12T08:26:55.317Z</time>
      </trkpt>
      <trkpt lat="44.24943" lon="2.54457">
        <ele>720</ele>
        <time>2022-06-12T08:26:56.317Z</time>
      </trkpt>
      <trkpt lat="44.24944" lon="2.54456">
        <ele>720</ele>
        <time>2022-06-12T08:26:57.317Z</time>
      </trkpt>
      <trkpt lat="44.24945" lon="2.54456">
        <ele>720</ele>
        <time>2022-06-12T08:26:58.317Z</time>
      </trkpt>
      <trkpt lat="44.24946" lon="2.54456">
        <ele>720</ele>
        <time>2022-06-12T08:26:59.317Z</time>
      </trkpt>
      <trkpt lat="44.24947" lon="2.54456">
        <ele>720</ele>
        <time>2022-06-12T08:27:00.317Z</time>
      </trkpt>
      <trkpt lat="44.24948" lon="2.54456">
        <ele>720</ele>
        <time>2022-06-12T08:27:01.317Z</time>
      </trkpt>
      <trkpt lat="44.2495" lon="2.54456">
        <ele>720</ele>
        <time>2022-06-12T08:27:02.317Z</time>
      </trkpt>
      <trkpt lat="44.24951" lon="2.54456">
        <ele>720</ele>
        <time>2022-06-12T08:27:03.317Z</time>
      </trkpt>
      <trkpt lat="44.24952" lon="2.54456">
        <ele>720</ele>
        <time>2022-06-12T08:27:04.317Z</time>
      </trkpt>
      <trkpt lat="44.24953" lon="2.54456">
        <ele>720</ele>
        <time>2022-06-12T08:27:05.317Z</time>
      </trkpt>
      <trkpt lat="44.24955" lon="2.54457">
        <ele>720</ele>
        <time>2022-06-12T08:27:06.317Z</time>
      </trkpt>
      <trkpt lat="44.24956" lon="2.54457">
        <ele>719</ele>
        <time>2022-06-12T08:27:07.317Z</time>
      </trkpt>
      <trkpt lat="44.24957" lon="2.54457">
        <ele>719</ele>
        <time>2022-06-12T08:27:08.317Z</time>
      </trkpt>
      <trkpt lat="44.24958" lon="2.54458">
        <ele>719</ele>
        <time>2022-06-12T08:27:09.317Z</time>
      </trkpt>
      <trkpt lat="44.24959" lon="2.54458">
        <ele>719</ele>
        <time>2022-06-12T08:27:10.317Z</time>
      </trkpt>
      <trkpt lat="44.2496" lon="2.54458">
        <ele>719</ele>
        <time>2022-06-12T08:27:11.317Z</time>
      </trkpt>
      <trkpt lat="44.24962" lon="2.54458">
        <ele>719</ele>
        <time>2022-06-12T08:27:12.317Z</time>
      </trkpt>
      <trkpt lat="44.24963" lon="2.54459">
        <ele>719</ele>
        <time>2022-06-12T08:27:13.317Z</time>
      </trkpt>
      <trkpt lat="44.24964" lon="2.54459">
        <ele>719</ele>
        <time>2022-06-12T08:27:14.317Z</time>
      </trkpt>
      <trkpt lat="44.24965" lon="2.5446">
        <ele>719</ele>
        <time>2022-06-12T08:27:15.317Z</time>
      </trkpt>
      <trkpt lat="44.24967" lon="2.5446">
        <ele>719</ele>
        <time>2022-06-12T08:27:16.317Z</time>
      </trkpt>
      <trkpt lat="44.24968" lon="2.5446">
        <ele>719</ele>
        <time>2022-06-12T08:27:17.317Z</time>
      </trkpt>
      <trkpt lat="44.24969" lon="2.54461">
        <ele>719</ele>
        <time>2022-06-12T08:27:18.317Z</time>
      </trkpt>
      <trkpt lat="44.2497" lon="2.54461">
        <ele>719</ele>
        <time>2022-06-12T08:27:19.317Z</time>
      </trkpt>
      <trkpt lat="44.24971" lon="2.54461">
        <ele>719</ele>
        <time>2022-06-12T08:27:20.317Z</time>
      </trkpt>
      <trkpt lat="44.24973" lon="2.54462">
        <ele>719</ele>
        <time>2022-06-12T08:27:21.317Z</time>
      </trkpt>
      <trkpt lat="44.24974" lon="2.54462">
        <ele>719</ele>
        <time>2022-06-12T08:27:22.317Z</time>
      </trkpt>
      <trkpt lat="44.24975" lon="2.54463">
        <ele>719</ele>
        <time>2022-06-12T08:27:23.317Z</time>
      </trkpt>
      <trkpt lat="44.24976" lon="2.54463">
        <ele>719</ele>
        <time>2022-06-12T08:27:24.317Z</time>
      </trkpt>
      <trkpt lat="44.24978" lon="2.54463">
        <ele>719</ele>
        <time>2022-06-12T08:27:25.317Z</time>
      </trkpt>
      <trkpt lat="44.24979" lon="2.54464">
        <ele>719</ele>
        <time>2022-06-12T08:27:26.317Z</time>
      </trkpt>
      <trkpt lat="44.2498" lon="2.54464">
        <ele>719</ele>
        <time>2022-06-12T08:27:27.317Z</time>
      </trkpt>
      <trkpt lat="44.24982" lon="2.54464">
        <ele>719</ele>
        <time>2022-06-12T08:27:28.317Z</time>
      </trkpt>
      <trkpt lat="44.24983" lon="2.54465">
        <ele>719</ele>
        <time>2022-06-12T08:27:29.317Z</time>
      </trkpt>
      <trkpt lat="44.24984" lon="2.54465">
        <ele>719</ele>
        <time>2022-06-12T08:27:30.317Z</time>
      </trkpt>
      <trkpt lat="44.24986" lon="2.54466">
        <ele>719</ele>
        <time>2022-06-12T08:27:31.317Z</time>
      </trkpt>
      <trkpt lat="44.24987" lon="2.54466">
        <ele>719</ele>
        <time>2022-06-12T08:27:32.317Z</time>
      </trkpt>
      <trkpt lat="44.24988" lon="2.54466">
        <ele>719</ele>
        <time>2022-06-12T08:27:33.317Z</time>
      </trkpt>
      <trkpt lat="44.2499" lon="2.54467">
        <ele>720</ele>
        <time>2022-06-12T08:27:34.317Z</time>
      </trkpt>
      <trkpt lat="44.24991" lon="2.54467">
        <ele>720</ele>
        <time>2022-06-12T08:27:35.317Z</time>
      </trkpt>
      <trkpt lat="44.24992" lon="2.54467">
        <ele>720</ele>
        <time>2022-06-12T08:27:36.317Z</time>
      </trkpt>
      <trkpt lat="44.24994" lon="2.54467">
        <ele>720</ele>
        <time>2022-06-12T08:27:37.317Z</time>
      </trkpt>
      <trkpt lat="44.24995" lon="2.54468">
        <ele>720</ele>
        <time>2022-06-12T08:27:38.317Z</time>
      </trkpt>
      <trkpt lat="44.24996" lon="2.54468">
        <ele>720</ele>
        <time>2022-06-12T08:27:39.317Z</time>
      </trkpt>
      <trkpt lat="44.24997" lon="2.54468">
        <ele>720</ele>
        <time>2022-06-12T08:27:40.317Z</time>
      </trkpt>
      <trkpt lat="44.24999" lon="2.54469">
        <ele>720</ele>
        <time>2022-06-12T08:27:41.317Z</time>
      </trkpt>
      <trkpt lat="44.25" lon="2.54469">
        <ele>720</ele>
        <time>2022-06-12T08:27:42.317Z</time>
      </trkpt>
      <trkpt lat="44.25001" lon="2.54469">
        <ele>720</ele>
        <time>2022-06-12T08:27:43.317Z</time>
      </trkpt>
      <trkpt lat="44.25003" lon="2.5447">
        <ele>720</ele>
        <time>2022-06-12T08:27:44.317Z</time>
      </trkpt>
      <trkpt lat="44.25004" lon="2.5447">
        <ele>721</ele>
        <time>2022-06-12T08:27:45.317Z</time>
      </trkpt>
      <trkpt lat="44.25005" lon="2.5447">
        <ele>721</ele>
        <time>2022-06-12T08:27:46.317Z</time>
      </trkpt>
      <trkpt lat="44.25006" lon="2.5447">
        <ele>721</ele>
        <time>2022-06-12T08:27:47.317Z</time>
      </trkpt>
      <trkpt lat="44.25008" lon="2.54471">
        <ele>721</ele>
        <time>2022-06-12T08:27:48.317Z</time>
      </trkpt>
      <trkpt lat="44.25009" lon="2.54471">
        <ele>721</ele>
        <time>2022-06-12T08:27:49.317Z</time>
      </trkpt>
      <trkpt lat="44.2501" lon="2.54471">
        <ele>721</ele>
        <time>2022-06-12T08:27:50.317Z</time>
      </trkpt>
      <trkpt lat="44.25011" lon="2.54471">
        <ele>721</ele>
        <time>2022-06-12T08:27:51.317Z</time>
      </trkpt>
      <trkpt lat="44.25012" lon="2.54471">
        <ele>721</ele>
        <time>2022-06-12T08:27:52.317Z</time>
      </trkpt>
      <trkpt lat="44.25013" lon="2.54471">
        <ele>721</ele>
        <time>2022-06-12T08:27:53.317Z</time>
      </trkpt>
      <trkpt lat="44.25015" lon="2.54471">
        <ele>721</ele>
        <time>2022-06-12T08:27:54.317Z</time>
      </trkpt>
      <trkpt lat="44.25016" lon="2.54472">
        <ele>721</ele>
        <time>2022-06-12T08:27:55.317Z</time>
      </trkpt>
      <trkpt lat="44.25017" lon="2.54472">
        <ele>721</ele>
        <time>2022-06-12T08:27:56.317Z</time>
      </trkpt>
      <trkpt lat="44.25018" lon="2.54472">
        <ele>721</ele>
        <time>2022-06-12T08:27:57.317Z</time>
      </trkpt>
      <trkpt lat="44.25019" lon="2.54473">
        <ele>721</ele>
        <time>2022-06-12T08:27:58.317Z</time>
      </trkpt>
      <trkpt lat="44.2502" lon="2.54473">
        <ele>721</ele>
        <time>2022-06-12T08:27:59.317Z</time>
      </trkpt>
      <trkpt lat="44.25022" lon="2.54473">
        <ele>721</ele>
        <time>2022-06-12T08:28:00.317Z</time>
      </trkpt>
      <trkpt lat="44.25023" lon="2.54473">
        <ele>721</ele>
        <time>2022-06-12T08:28:01.317Z</time>
      </trkpt>
      <trkpt lat="44.25024" lon="2.54473">
        <ele>721</ele>
        <time>2022-06-12T08:28:02.317Z</time>
      </trkpt>
      <trkpt lat="44.25025" lon="2.54473">
        <ele>721</ele>
        <time>2022-06-12T08:28:03.317Z</time>
      </trkpt>
      <trkpt lat="44.25026" lon="2.54474">
        <ele>721</ele>
        <time>2022-06-12T08:28:04.317Z</time>
      </trkpt>
      <trkpt lat="44.25028" lon="2.54474">
        <ele>722</ele>
        <time>2022-06-12T08:28:05.317Z</time>
      </trkpt>
      <trkpt lat="44.25029" lon="2.54475">
        <ele>722</ele>
        <time>2022-06-12T08:28:06.317Z</time>
      </trkpt>
      <trkpt lat="44.2503" lon="2.54475">
        <ele>722</ele>
        <time>2022-06-12T08:28:07.317Z</time>
      </trkpt>
      <trkpt lat="44.25031" lon="2.54475">
        <ele>722</ele>
        <time>2022-06-12T08:28:08.317Z</time>
      </trkpt>
      <trkpt lat="44.25032" lon="2.54475">
        <ele>722</ele>
        <time>2022-06-12T08:28:09.317Z</time>
      </trkpt>
      <trkpt lat="44.25033" lon="2.54476">
        <ele>722</ele>
        <time>2022-06-12T08:28:10.317Z</time>
      </trkpt>
      <trkpt lat="44.25035" lon="2.54476">
        <ele>722</ele>
        <time>2022-06-12T08:28:11.317Z</time>
      </trkpt>
      <trkpt lat="44.25036" lon="2.54476">
        <ele>722</ele>
        <time>2022-06-12T08:28:12.317Z</time>
      </trkpt>
      <trkpt lat="44.25037" lon="2.54477">
        <ele>722</ele>
        <time>2022-06-12T08:28:13.317Z</time>
      </trkpt>
      <trkpt lat="44.25037" lon="2.54477">
        <ele>722</ele>
        <time>2022-06-12T08:28:14.317Z</time>
      </trkpt>
      <trkpt lat="44.25038" lon="2.54478">
        <ele>722</ele>
        <time>2022-06-12T08:28:15.317Z</time>
      </trkpt>
      <trkpt lat="44.25039" lon="2.54478">
        <ele>722</ele>
        <time>2022-06-12T08:28:16.317Z</time>
      </trkpt>
      <trkpt lat="44.2504" lon="2.54478">
        <ele>722</ele>
        <time>2022-06-12T08:28:17.317Z</time>
      </trkpt>
      <trkpt lat="44.25041" lon="2.54478">
        <ele>722</ele>
        <time>2022-06-12T08:28:18.317Z</time>
      </trkpt>
      <trkpt lat="44.25042" lon="2.54479">
        <ele>722</ele>
        <time>2022-06-12T08:28:19.317Z</time>
      </trkpt>
      <trkpt lat="44.25042" lon="2.54479">
        <ele>722</ele>
        <time>2022-06-12T08:28:20.317Z</time>
      </trkpt>
      <trkpt lat="44.25043" lon="2.54479">
        <ele>722</ele>
        <time>2022-06-12T08:28:21.317Z</time>
      </trkpt>
      <trkpt lat="44.25042" lon="2.54479">
        <ele>722</ele>
        <time>2022-06-12T08:28:22.317Z</time>
      </trkpt>
      <trkpt lat="44.25044" lon="2.54478">
        <ele>723</ele>
        <time>2022-06-12T08:28:27.323Z</time>
      </trkpt>
      <trkpt lat="44.25045" lon="2.54479">
        <ele>723</ele>
        <time>2022-06-12T08:28:28.323Z</time>
      </trkpt>
      <trkpt lat="44.25046" lon="2.54479">
        <ele>723</ele>
        <time>2022-06-12T08:28:29.323Z</time>
      </trkpt>
      <trkpt lat="44.25047" lon="2.54479">
        <ele>723</ele>
        <time>2022-06-12T08:28:30.323Z</time>
      </trkpt>
      <trkpt lat="44.25049" lon="2.5448">
        <ele>723</ele>
        <time>2022-06-12T08:28:31.323Z</time>
      </trkpt>
      <trkpt lat="44.2505" lon="2.5448">
        <ele>723</ele>
        <time>2022-06-12T08:28:32.323Z</time>
      </trkpt>
      <trkpt lat="44.25051" lon="2.54481">
        <ele>723</ele>
        <time>2022-06-12T08:28:33.323Z</time>
      </trkpt>
      <trkpt lat="44.25052" lon="2.54481">
        <ele>723</ele>
        <time>2022-06-12T08:28:34.323Z</time>
      </trkpt>
      <trkpt lat="44.25053" lon="2.54481">
        <ele>723</ele>
        <time>2022-06-12T08:28:35.323Z</time>
      </trkpt>
      <trkpt lat="44.25054" lon="2.54482">
        <ele>723</ele>
        <time>2022-06-12T08:28:36.323Z</time>
      </trkpt>
      <trkpt lat="44.25056" lon="2.54483">
        <ele>723</ele>
        <time>2022-06-12T08:28:37.323Z</time>
      </trkpt>
      <trkpt lat="44.25057" lon="2.54483">
        <ele>723</ele>
        <time>2022-06-12T08:28:38.323Z</time>
      </trkpt>
      <trkpt lat="44.25058" lon="2.54484">
        <ele>723</ele>
        <time>2022-06-12T08:28:39.323Z</time>
      </trkpt>
      <trkpt lat="44.25059" lon="2.54485">
        <ele>724</ele>
        <time>2022-06-12T08:28:40.323Z</time>
      </trkpt>
      <trkpt lat="44.2506" lon="2.54485">
        <ele>724</ele>
        <time>2022-06-12T08:28:41.323Z</time>
      </trkpt>
      <trkpt lat="44.25062" lon="2.54486">
        <ele>724</ele>
        <time>2022-06-12T08:28:42.323Z</time>
      </trkpt>
      <trkpt lat="44.25063" lon="2.54486">
        <ele>724</ele>
        <time>2022-06-12T08:28:43.323Z</time>
      </trkpt>
      <trkpt lat="44.25064" lon="2.54487">
        <ele>724</ele>
        <time>2022-06-12T08:28:44.323Z</time>
      </trkpt>
      <trkpt lat="44.25065" lon="2.54488">
        <ele>724</ele>
        <time>2022-06-12T08:28:45.323Z</time>
      </trkpt>
      <trkpt lat="44.25066" lon="2.54489">
        <ele>724</ele>
        <time>2022-06-12T08:28:46.323Z</time>
      </trkpt>
      <trkpt lat="44.25067" lon="2.54489">
        <ele>724</ele>
        <time>2022-06-12T08:28:47.323Z</time>
      </trkpt>
      <trkpt lat="44.25068" lon="2.5449">
        <ele>724</ele>
        <time>2022-06-12T08:28:48.323Z</time>
      </trkpt>
      <trkpt lat="44.25069" lon="2.5449">
        <ele>725</ele>
        <time>2022-06-12T08:28:49.323Z</time>
      </trkpt>
      <trkpt lat="44.2507" lon="2.54491">
        <ele>725</ele>
        <time>2022-06-12T08:28:50.323Z</time>
      </trkpt>
      <trkpt lat="44.2507" lon="2.54492">
        <ele>725</ele>
        <time>2022-06-12T08:28:51.323Z</time>
      </trkpt>
      <trkpt lat="44.25071" lon="2.54492">
        <ele>725</ele>
        <time>2022-06-12T08:28:52.323Z</time>
      </trkpt>
      <trkpt lat="44.25073" lon="2.54493">
        <ele>725</ele>
        <time>2022-06-12T08:28:53.323Z</time>
      </trkpt>
      <trkpt lat="44.25074" lon="2.54493">
        <ele>725</ele>
        <time>2022-06-12T08:28:54.323Z</time>
      </trkpt>
      <trkpt lat="44.25075" lon="2.54494">
        <ele>725</ele>
        <time>2022-06-12T08:28:55.323Z</time>
      </trkpt>
      <trkpt lat="44.25075" lon="2.54494">
        <ele>725</ele>
        <time>2022-06-12T08:28:56.323Z</time>
      </trkpt>
      <trkpt lat="44.25076" lon="2.54495">
        <ele>725</ele>
        <time>2022-06-12T08:28:57.323Z</time>
      </trkpt>
      <trkpt lat="44.25077" lon="2.54495">
        <ele>725</ele>
        <time>2022-06-12T08:28:58.323Z</time>
      </trkpt>
      <trkpt lat="44.25078" lon="2.54496">
        <ele>725</ele>
        <time>2022-06-12T08:28:59.323Z</time>
      </trkpt>
      <trkpt lat="44.25079" lon="2.54496">
        <ele>725</ele>
        <time>2022-06-12T08:29:00.323Z</time>
      </trkpt>
      <trkpt lat="44.2508" lon="2.54497">
        <ele>725</ele>
        <time>2022-06-12T08:29:01.323Z</time>
      </trkpt>
      <trkpt lat="44.25081" lon="2.54497">
        <ele>725</ele>
        <time>2022-06-12T08:29:02.323Z</time>
      </trkpt>
      <trkpt lat="44.25083" lon="2.54498">
        <ele>725</ele>
        <time>2022-06-12T08:29:03.323Z</time>
      </trkpt>
      <trkpt lat="44.25084" lon="2.54498">
        <ele>725</ele>
        <time>2022-06-12T08:29:04.323Z</time>
      </trkpt>
      <trkpt lat="44.25085" lon="2.54499">
        <ele>726</ele>
        <time>2022-06-12T08:29:05.323Z</time>
      </trkpt>
      <trkpt lat="44.25086" lon="2.545">
        <ele>726</ele>
        <time>2022-06-12T08:29:06.323Z</time>
      </trkpt>
      <trkpt lat="44.25087" lon="2.545">
        <ele>726</ele>
        <time>2022-06-12T08:29:07.323Z</time>
      </trkpt>
      <trkpt lat="44.25088" lon="2.54501">
        <ele>726</ele>
        <time>2022-06-12T08:29:08.323Z</time>
      </trkpt>
      <trkpt lat="44.25089" lon="2.54501">
        <ele>726</ele>
        <time>2022-06-12T08:29:09.323Z</time>
      </trkpt>
      <trkpt lat="44.25091" lon="2.54502">
        <ele>726</ele>
        <time>2022-06-12T08:29:10.323Z</time>
      </trkpt>
      <trkpt lat="44.25092" lon="2.54502">
        <ele>726</ele>
        <time>2022-06-12T08:29:11.323Z</time>
      </trkpt>
      <trkpt lat="44.25093" lon="2.54503">
        <ele>726</ele>
        <time>2022-06-12T08:29:12.323Z</time>
      </trkpt>
      <trkpt lat="44.25094" lon="2.54503">
        <ele>726</ele>
        <time>2022-06-12T08:29:13.323Z</time>
      </trkpt>
      <trkpt lat="44.25095" lon="2.54504">
        <ele>726</ele>
        <time>2022-06-12T08:29:14.323Z</time>
      </trkpt>
      <trkpt lat="44.25096" lon="2.54505">
        <ele>726</ele>
        <time>2022-06-12T08:29:15.323Z</time>
      </trkpt>
      <trkpt lat="44.25097" lon="2.54506">
        <ele>726</ele>
        <time>2022-06-12T08:29:16.323Z</time>
      </trkpt>
      <trkpt lat="44.25098" lon="2.54506">
        <ele>726</ele>
        <time>2022-06-12T08:29:17.323Z</time>
      </trkpt>
      <trkpt lat="44.25099" lon="2.54507">
        <ele>726</ele>
        <time>2022-06-12T08:29:18.323Z</time>
      </trkpt>
      <trkpt lat="44.251" lon="2.54508">
        <ele>726</ele>
        <time>2022-06-12T08:29:19.323Z</time>
      </trkpt>
      <trkpt lat="44.25101" lon="2.54508">
        <ele>726</ele>
        <time>2022-06-12T08:29:20.323Z</time>
      </trkpt>
      <trkpt lat="44.25102" lon="2.54509">
        <ele>726</ele>
        <time>2022-06-12T08:29:21.323Z</time>
      </trkpt>
      <trkpt lat="44.25103" lon="2.54509">
        <ele>726</ele>
        <time>2022-06-12T08:29:22.323Z</time>
      </trkpt>
      <trkpt lat="44.25104" lon="2.5451">
        <ele>726</ele>
        <time>2022-06-12T08:29:23.323Z</time>
      </trkpt>
      <trkpt lat="44.25105" lon="2.5451">
        <ele>726</ele>
        <time>2022-06-12T08:29:24.323Z</time>
      </trkpt>
      <trkpt lat="44.25106" lon="2.54511">
        <ele>726</ele>
        <time>2022-06-12T08:29:25.323Z</time>
      </trkpt>
      <trkpt lat="44.25108" lon="2.54511">
        <ele>726</ele>
        <time>2022-06-12T08:29:26.323Z</time>
      </trkpt>
      <trkpt lat="44.25109" lon="2.54512">
        <ele>726</ele>
        <time>2022-06-12T08:29:27.323Z</time>
      </trkpt>
      <trkpt lat="44.2511" lon="2.54513">
        <ele>726</ele>
        <time>2022-06-12T08:29:28.323Z</time>
      </trkpt>
      <trkpt lat="44.25111" lon="2.54513">
        <ele>727</ele>
        <time>2022-06-12T08:29:29.323Z</time>
      </trkpt>
      <trkpt lat="44.25112" lon="2.54513">
        <ele>727</ele>
        <time>2022-06-12T08:29:30.323Z</time>
      </trkpt>
      <trkpt lat="44.25113" lon="2.54514">
        <ele>727</ele>
        <time>2022-06-12T08:29:31.323Z</time>
      </trkpt>
      <trkpt lat="44.25114" lon="2.54515">
        <ele>727</ele>
        <time>2022-06-12T08:29:32.323Z</time>
      </trkpt>
      <trkpt lat="44.25115" lon="2.54515">
        <ele>727</ele>
        <time>2022-06-12T08:29:33.323Z</time>
      </trkpt>
      <trkpt lat="44.25117" lon="2.54515">
        <ele>727</ele>
        <time>2022-06-12T08:29:34.323Z</time>
      </trkpt>
      <trkpt lat="44.25118" lon="2.54516">
        <ele>727</ele>
        <time>2022-06-12T08:29:35.323Z</time>
      </trkpt>
      <trkpt lat="44.25119" lon="2.54517">
        <ele>727</ele>
        <time>2022-06-12T08:29:36.323Z</time>
      </trkpt>
      <trkpt lat="44.2512" lon="2.54517">
        <ele>727</ele>
        <time>2022-06-12T08:29:37.323Z</time>
      </trkpt>
      <trkpt lat="44.25121" lon="2.54518">
        <ele>727</ele>
        <time>2022-06-12T08:29:38.323Z</time>
      </trkpt>
      <trkpt lat="44.25122" lon="2.54518">
        <ele>727</ele>
        <time>2022-06-12T08:29:39.323Z</time>
      </trkpt>
      <trkpt lat="44.25123" lon="2.54518">
        <ele>727</ele>
        <time>2022-06-12T08:29:40.323Z</time>
      </trkpt>
      <trkpt lat="44.25124" lon="2.54519">
        <ele>728</ele>
        <time>2022-06-12T08:29:41.323Z</time>
      </trkpt>
      <trkpt lat="44.25125" lon="2.54519">
        <ele>728</ele>
        <time>2022-06-12T08:29:42.323Z</time>
      </trkpt>
      <trkpt lat="44.25126" lon="2.54519">
        <ele>728</ele>
        <time>2022-06-12T08:29:43.323Z</time>
      </trkpt>
      <trkpt lat="44.25127" lon="2.54519">
        <ele>728</ele>
        <time>2022-06-12T08:29:44.323Z</time>
      </trkpt>
      <trkpt lat="44.25128" lon="2.5452">
        <ele>728</ele>
        <time>2022-06-12T08:29:45.323Z</time>
      </trkpt>
      <trkpt lat="44.25129" lon="2.5452">
        <ele>728</ele>
        <time>2022-06-12T08:29:46.323Z</time>
      </trkpt>
      <trkpt lat="44.25131" lon="2.5452">
        <ele>728</ele>
        <time>2022-06-12T08:29:47.323Z</time>
      </trkpt>
      <trkpt lat="44.25132" lon="2.54519">
        <ele>728</ele>
        <time>2022-06-12T08:29:48.323Z</time>
      </trkpt>
      <trkpt lat="44.25133" lon="2.54519">
        <ele>728</ele>
        <time>2022-06-12T08:29:49.323Z</time>
      </trkpt>
      <trkpt lat="44.25134" lon="2.54519">
        <ele>728</ele>
        <time>2022-06-12T08:29:50.323Z</time>
      </trkpt>
      <trkpt lat="44.25135" lon="2.54519">
        <ele>728</ele>
        <time>2022-06-12T08:29:51.323Z</time>
      </trkpt>
      <trkpt lat="44.25136" lon="2.54519">
        <ele>728</ele>
        <time>2022-06-12T08:29:52.323Z</time>
      </trkpt>
      <trkpt lat="44.25137" lon="2.54519">
        <ele>728</ele>
        <time>2022-06-12T08:29:53.323Z</time>
      </trkpt>
      <trkpt lat="44.25138" lon="2.54519">
        <ele>729</ele>
        <time>2022-06-12T08:29:54.323Z</time>
      </trkpt>
      <trkpt lat="44.25139" lon="2.54519">
        <ele>729</ele>
        <time>2022-06-12T08:29:55.323Z</time>
      </trkpt>
      <trkpt lat="44.2514" lon="2.54519">
        <ele>729</ele>
        <time>2022-06-12T08:29:56.323Z</time>
      </trkpt>
      <trkpt lat="44.25141" lon="2.54518">
        <ele>729</ele>
        <time>2022-06-12T08:29:57.323Z</time>
      </trkpt>
      <trkpt lat="44.25142" lon="2.54518">
        <ele>729</ele>
        <time>2022-06-12T08:29:58.323Z</time>
      </trkpt>
      <trkpt lat="44.25143" lon="2.54518">
        <ele>729</ele>
        <time>2022-06-12T08:29:59.323Z</time>
      </trkpt>
      <trkpt lat="44.25144" lon="2.54517">
        <ele>729</ele>
        <time>2022-06-12T08:30:00.323Z</time>
      </trkpt>
      <trkpt lat="44.25145" lon="2.54517">
        <ele>729</ele>
        <time>2022-06-12T08:30:01.323Z</time>
      </trkpt>
      <trkpt lat="44.25146" lon="2.54517">
        <ele>729</ele>
        <time>2022-06-12T08:30:02.323Z</time>
      </trkpt>
      <trkpt lat="44.25147" lon="2.54517">
        <ele>729</ele>
        <time>2022-06-12T08:30:03.323Z</time>
      </trkpt>
      <trkpt lat="44.25148" lon="2.54516">
        <ele>729</ele>
        <time>2022-06-12T08:30:04.323Z</time>
      </trkpt>
      <trkpt lat="44.25149" lon="2.54516">
        <ele>729</ele>
        <time>2022-06-12T08:30:05.323Z</time>
      </trkpt>
      <trkpt lat="44.2515" lon="2.54516">
        <ele>729</ele>
        <time>2022-06-12T08:30:06.323Z</time>
      </trkpt>
      <trkpt lat="44.25151" lon="2.54516">
        <ele>729</ele>
        <time>2022-06-12T08:30:07.323Z</time>
      </trkpt>
      <trkpt lat="44.25152" lon="2.54515">
        <ele>729</ele>
        <time>2022-06-12T08:30:08.323Z</time>
      </trkpt>
      <trkpt lat="44.25153" lon="2.54515">
        <ele>729</ele>
        <time>2022-06-12T08:30:09.323Z</time>
      </trkpt>
      <trkpt lat="44.25154" lon="2.54514">
        <ele>729</ele>
        <time>2022-06-12T08:30:10.323Z</time>
      </trkpt>
      <trkpt lat="44.25156" lon="2.54514">
        <ele>729</ele>
        <time>2022-06-12T08:30:11.323Z</time>
      </trkpt>
      <trkpt lat="44.25157" lon="2.54513">
        <ele>729</ele>
        <time>2022-06-12T08:30:12.323Z</time>
      </trkpt>
      <trkpt lat="44.25158" lon="2.54513">
        <ele>729</ele>
        <time>2022-06-12T08:30:13.323Z</time>
      </trkpt>
      <trkpt lat="44.25159" lon="2.54513">
        <ele>729</ele>
        <time>2022-06-12T08:30:14.323Z</time>
      </trkpt>
      <trkpt lat="44.2516" lon="2.54512">
        <ele>729</ele>
        <time>2022-06-12T08:30:15.323Z</time>
      </trkpt>
      <trkpt lat="44.25161" lon="2.54512">
        <ele>729</ele>
        <time>2022-06-12T08:30:16.323Z</time>
      </trkpt>
      <trkpt lat="44.25163" lon="2.54512">
        <ele>729</ele>
        <time>2022-06-12T08:30:17.323Z</time>
      </trkpt>
      <trkpt lat="44.25164" lon="2.54511">
        <ele>729</ele>
        <time>2022-06-12T08:30:18.323Z</time>
      </trkpt>
      <trkpt lat="44.25165" lon="2.54511">
        <ele>729</ele>
        <time>2022-06-12T08:30:19.323Z</time>
      </trkpt>
      <trkpt lat="44.25166" lon="2.5451">
        <ele>729</ele>
        <time>2022-06-12T08:30:20.323Z</time>
      </trkpt>
      <trkpt lat="44.25168" lon="2.5451">
        <ele>729</ele>
        <time>2022-06-12T08:30:21.323Z</time>
      </trkpt>
      <trkpt lat="44.25169" lon="2.5451">
        <ele>729</ele>
        <time>2022-06-12T08:30:22.323Z</time>
      </trkpt>
      <trkpt lat="44.2517" lon="2.5451">
        <ele>729</ele>
        <time>2022-06-12T08:30:23.323Z</time>
      </trkpt>
      <trkpt lat="44.25171" lon="2.5451">
        <ele>729</ele>
        <time>2022-06-12T08:30:24.323Z</time>
      </trkpt>
      <trkpt lat="44.25172" lon="2.54509">
        <ele>729</ele>
        <time>2022-06-12T08:30:25.323Z</time>
      </trkpt>
      <trkpt lat="44.25174" lon="2.54509">
        <ele>729</ele>
        <time>2022-06-12T08:30:26.323Z</time>
      </trkpt>
      <trkpt lat="44.25175" lon="2.54509">
        <ele>729</ele>
        <time>2022-06-12T08:30:27.323Z</time>
      </trkpt>
      <trkpt lat="44.25176" lon="2.54508">
        <ele>729</ele>
        <time>2022-06-12T08:30:28.323Z</time>
      </trkpt>
      <trkpt lat="44.25177" lon="2.54508">
        <ele>729</ele>
        <time>2022-06-12T08:30:29.323Z</time>
      </trkpt>
      <trkpt lat="44.25178" lon="2.54508">
        <ele>729</ele>
        <time>2022-06-12T08:30:30.323Z</time>
      </trkpt>
      <trkpt lat="44.2518" lon="2.54508">
        <ele>729</ele>
        <time>2022-06-12T08:30:31.323Z</time>
      </trkpt>
      <trkpt lat="44.25181" lon="2.54507">
        <ele>729</ele>
        <time>2022-06-12T08:30:32.323Z</time>
      </trkpt>
      <trkpt lat="44.25182" lon="2.54507">
        <ele>729</ele>
        <time>2022-06-12T08:30:33.323Z</time>
      </trkpt>
      <trkpt lat="44.25183" lon="2.54507">
        <ele>729</ele>
        <time>2022-06-12T08:30:34.323Z</time>
      </trkpt>
      <trkpt lat="44.25185" lon="2.54507">
        <ele>729</ele>
        <time>2022-06-12T08:30:35.323Z</time>
      </trkpt>
      <trkpt lat="44.25186" lon="2.54506">
        <ele>730</ele>
        <time>2022-06-12T08:30:36.323Z</time>
      </trkpt>
      <trkpt lat="44.25187" lon="2.54506">
        <ele>730</ele>
        <time>2022-06-12T08:30:37.323Z</time>
      </trkpt>
      <trkpt lat="44.25188" lon="2.54506">
        <ele>730</ele>
        <time>2022-06-12T08:30:38.323Z</time>
      </trkpt>
      <trkpt lat="44.2519" lon="2.54506">
        <ele>730</ele>
        <time>2022-06-12T08:30:39.323Z</time>
      </trkpt>
      <trkpt lat="44.25191" lon="2.54505">
        <ele>730</ele>
        <time>2022-06-12T08:30:40.323Z</time>
      </trkpt>
      <trkpt lat="44.25192" lon="2.54505">
        <ele>730</ele>
        <time>2022-06-12T08:30:41.323Z</time>
      </trkpt>
      <trkpt lat="44.25193" lon="2.54505">
        <ele>730</ele>
        <time>2022-06-12T08:30:42.323Z</time>
      </trkpt>
      <trkpt lat="44.25194" lon="2.54505">
        <ele>730</ele>
        <time>2022-06-12T08:30:43.323Z</time>
      </trkpt>
      <trkpt lat="44.25195" lon="2.54505">
        <ele>730</ele>
        <time>2022-06-12T08:30:44.323Z</time>
      </trkpt>
      <trkpt lat="44.25196" lon="2.54505">
        <ele>730</ele>
        <time>2022-06-12T08:30:45.323Z</time>
      </trkpt>
      <trkpt lat="44.25198" lon="2.54504">
        <ele>730</ele>
        <time>2022-06-12T08:30:46.323Z</time>
      </trkpt>
      <trkpt lat="44.25199" lon="2.54504">
        <ele>730</ele>
        <time>2022-06-12T08:30:47.323Z</time>
      </trkpt>
      <trkpt lat="44.252" lon="2.54504">
        <ele>730</ele>
        <time>2022-06-12T08:30:48.323Z</time>
      </trkpt>
      <trkpt lat="44.25201" lon="2.54504">
        <ele>730</ele>
        <time>2022-06-12T08:30:49.323Z</time>
      </trkpt>
      <trkpt lat="44.25203" lon="2.54504">
        <ele>730</ele>
        <time>2022-06-12T08:30:50.323Z</time>
      </trkpt>
      <trkpt lat="44.25204" lon="2.54504">
        <ele>730</ele>
        <time>2022-06-12T08:30:51.323Z</time>
      </trkpt>
      <trkpt lat="44.25205" lon="2.54503">
        <ele>730</ele>
        <time>2022-06-12T08:30:52.323Z</time>
      </trkpt>
      <trkpt lat="44.25206" lon="2.54503">
        <ele>731</ele>
        <time>2022-06-12T08:30:53.323Z</time>
      </trkpt>
      <trkpt lat="44.25208" lon="2.54503">
        <ele>731</ele>
        <time>2022-06-12T08:30:54.323Z</time>
      </trkpt>
      <trkpt lat="44.25209" lon="2.54503">
        <ele>731</ele>
        <time>2022-06-12T08:30:55.323Z</time>
      </trkpt>
      <trkpt lat="44.2521" lon="2.54503">
        <ele>731</ele>
        <time>2022-06-12T08:30:56.323Z</time>
      </trkpt>
      <trkpt lat="44.25211" lon="2.54502">
        <ele>731</ele>
        <time>2022-06-12T08:30:57.323Z</time>
      </trkpt>
      <trkpt lat="44.25213" lon="2.54502">
        <ele>731</ele>
        <time>2022-06-12T08:30:58.323Z</time>
      </trkpt>
      <trkpt lat="44.25214" lon="2.54502">
        <ele>731</ele>
        <time>2022-06-12T08:30:59.323Z</time>
      </trkpt>
      <trkpt lat="44.25215" lon="2.54502">
        <ele>731</ele>
        <time>2022-06-12T08:31:00.323Z</time>
      </trkpt>
      <trkpt lat="44.25216" lon="2.54501">
        <ele>731</ele>
        <time>2022-06-12T08:31:01.323Z</time>
      </trkpt>
      <trkpt lat="44.25217" lon="2.54501">
        <ele>731</ele>
        <time>2022-06-12T08:31:02.323Z</time>
      </trkpt>
      <trkpt lat="44.25219" lon="2.54501">
        <ele>731</ele>
        <time>2022-06-12T08:31:03.323Z</time>
      </trkpt>
      <trkpt lat="44.2522" lon="2.545">
        <ele>731</ele>
        <time>2022-06-12T08:31:04.323Z</time>
      </trkpt>
      <trkpt lat="44.25221" lon="2.545">
        <ele>731</ele>
        <time>2022-06-12T08:31:05.323Z</time>
      </trkpt>
      <trkpt lat="44.25222" lon="2.545">
        <ele>731</ele>
        <time>2022-06-12T08:31:06.323Z</time>
      </trkpt>
      <trkpt lat="44.25223" lon="2.545">
        <ele>731</ele>
        <time>2022-06-12T08:31:07.323Z</time>
      </trkpt>
      <trkpt lat="44.25225" lon="2.54499">
        <ele>731</ele>
        <time>2022-06-12T08:31:08.323Z</time>
      </trkpt>
      <trkpt lat="44.25226" lon="2.54499">
        <ele>731</ele>
        <time>2022-06-12T08:31:09.323Z</time>
      </trkpt>
      <trkpt lat="44.25227" lon="2.54499">
        <ele>731</ele>
        <time>2022-06-12T08:31:10.323Z</time>
      </trkpt>
      <trkpt lat="44.25228" lon="2.54499">
        <ele>731</ele>
        <time>2022-06-12T08:31:11.323Z</time>
      </trkpt>
      <trkpt lat="44.2523" lon="2.54498">
        <ele>731</ele>
        <time>2022-06-12T08:31:12.323Z</time>
      </trkpt>
      <trkpt lat="44.25231" lon="2.54498">
        <ele>731</ele>
        <time>2022-06-12T08:31:13.323Z</time>
      </trkpt>
      <trkpt lat="44.25232" lon="2.54497">
        <ele>731</ele>
        <time>2022-06-12T08:31:14.323Z</time>
      </trkpt>
      <trkpt lat="44.25233" lon="2.54497">
        <ele>731</ele>
        <time>2022-06-12T08:31:15.323Z</time>
      </trkpt>
      <trkpt lat="44.25234" lon="2.54497">
        <ele>731</ele>
        <time>2022-06-12T08:31:16.323Z</time>
      </trkpt>
      <trkpt lat="44.25236" lon="2.54497">
        <ele>731</ele>
        <time>2022-06-12T08:31:17.323Z</time>
      </trkpt>
      <trkpt lat="44.25237" lon="2.54497">
        <ele>731</ele>
        <time>2022-06-12T08:31:18.323Z</time>
      </trkpt>
      <trkpt lat="44.25238" lon="2.54496">
        <ele>731</ele>
        <time>2022-06-12T08:31:19.323Z</time>
      </trkpt>
      <trkpt lat="44.25239" lon="2.54496">
        <ele>731</ele>
        <time>2022-06-12T08:31:20.323Z</time>
      </trkpt>
      <trkpt lat="44.2524" lon="2.54496">
        <ele>731</ele>
        <time>2022-06-12T08:31:21.323Z</time>
      </trkpt>
      <trkpt lat="44.25241" lon="2.54495">
        <ele>731</ele>
        <time>2022-06-12T08:31:22.323Z</time>
      </trkpt>
      <trkpt lat="44.25243" lon="2.54495">
        <ele>731</ele>
        <time>2022-06-12T08:31:23.323Z</time>
      </trkpt>
      <trkpt lat="44.25244" lon="2.54495">
        <ele>732</ele>
        <time>2022-06-12T08:31:24.323Z</time>
      </trkpt>
      <trkpt lat="44.25245" lon="2.54495">
        <ele>732</ele>
        <time>2022-06-12T08:31:25.323Z</time>
      </trkpt>
      <trkpt lat="44.25246" lon="2.54494">
        <ele>732</ele>
        <time>2022-06-12T08:31:26.323Z</time>
      </trkpt>
      <trkpt lat="44.25247" lon="2.54494">
        <ele>732</ele>
        <time>2022-06-12T08:31:27.323Z</time>
      </trkpt>
      <trkpt lat="44.25249" lon="2.54494">
        <ele>732</ele>
        <time>2022-06-12T08:31:28.323Z</time>
      </trkpt>
      <trkpt lat="44.2525" lon="2.54493">
        <ele>732</ele>
        <time>2022-06-12T08:31:29.323Z</time>
      </trkpt>
      <trkpt lat="44.25251" lon="2.54493">
        <ele>732</ele>
        <time>2022-06-12T08:31:30.323Z</time>
      </trkpt>
      <trkpt lat="44.25252" lon="2.54493">
        <ele>732</ele>
        <time>2022-06-12T08:31:31.323Z</time>
      </trkpt>
      <trkpt lat="44.25253" lon="2.54493">
        <ele>732</ele>
        <time>2022-06-12T08:31:32.323Z</time>
      </trkpt>
      <trkpt lat="44.25255" lon="2.54493">
        <ele>732</ele>
        <time>2022-06-12T08:31:33.323Z</time>
      </trkpt>
      <trkpt lat="44.25256" lon="2.54492">
        <ele>732</ele>
        <time>2022-06-12T08:31:34.323Z</time>
      </trkpt>
      <trkpt lat="44.25257" lon="2.54492">
        <ele>732</ele>
        <time>2022-06-12T08:31:35.323Z</time>
      </trkpt>
      <trkpt lat="44.25258" lon="2.54491">
        <ele>732</ele>
        <time>2022-06-12T08:31:36.323Z</time>
      </trkpt>
      <trkpt lat="44.25259" lon="2.54491">
        <ele>732</ele>
        <time>2022-06-12T08:31:37.323Z</time>
      </trkpt>
      <trkpt lat="44.25261" lon="2.54491">
        <ele>732</ele>
        <time>2022-06-12T08:31:38.323Z</time>
      </trkpt>
      <trkpt lat="44.25262" lon="2.5449">
        <ele>733</ele>
        <time>2022-06-12T08:31:39.323Z</time>
      </trkpt>
      <trkpt lat="44.25263" lon="2.5449">
        <ele>733</ele>
        <time>2022-06-12T08:31:40.323Z</time>
      </trkpt>
      <trkpt lat="44.25264" lon="2.54489">
        <ele>733</ele>
        <time>2022-06-12T08:31:41.323Z</time>
      </trkpt>
      <trkpt lat="44.25265" lon="2.54489">
        <ele>732</ele>
        <time>2022-06-12T08:31:42.323Z</time>
      </trkpt>
      <trkpt lat="44.25266" lon="2.54489">
        <ele>733</ele>
        <time>2022-06-12T08:31:43.323Z</time>
      </trkpt>
      <trkpt lat="44.25268" lon="2.54488">
        <ele>733</ele>
        <time>2022-06-12T08:31:44.323Z</time>
      </trkpt>
      <trkpt lat="44.25269" lon="2.54488">
        <ele>733</ele>
        <time>2022-06-12T08:31:45.323Z</time>
      </trkpt>
      <trkpt lat="44.2527" lon="2.54487">
        <ele>733</ele>
        <time>2022-06-12T08:31:46.323Z</time>
      </trkpt>
      <trkpt lat="44.25271" lon="2.54487">
        <ele>733</ele>
        <time>2022-06-12T08:31:47.323Z</time>
      </trkpt>
      <trkpt lat="44.25272" lon="2.54487">
        <ele>733</ele>
        <time>2022-06-12T08:31:48.323Z</time>
      </trkpt>
      <trkpt lat="44.25273" lon="2.54486">
        <ele>733</ele>
        <time>2022-06-12T08:31:49.323Z</time>
      </trkpt>
      <trkpt lat="44.25274" lon="2.54486">
        <ele>733</ele>
        <time>2022-06-12T08:31:50.323Z</time>
      </trkpt>
      <trkpt lat="44.25275" lon="2.54485">
        <ele>733</ele>
        <time>2022-06-12T08:31:51.323Z</time>
      </trkpt>
      <trkpt lat="44.25276" lon="2.54485">
        <ele>733</ele>
        <time>2022-06-12T08:31:52.323Z</time>
      </trkpt>
      <trkpt lat="44.25277" lon="2.54485">
        <ele>732</ele>
        <time>2022-06-12T08:31:53.323Z</time>
      </trkpt>
      <trkpt lat="44.25279" lon="2.54484">
        <ele>733</ele>
        <time>2022-06-12T08:31:54.323Z</time>
      </trkpt>
      <trkpt lat="44.2528" lon="2.54484">
        <ele>733</ele>
        <time>2022-06-12T08:31:55.323Z</time>
      </trkpt>
      <trkpt lat="44.25281" lon="2.54484">
        <ele>733</ele>
        <time>2022-06-12T08:31:56.323Z</time>
      </trkpt>
      <trkpt lat="44.25282" lon="2.54483">
        <ele>733</ele>
        <time>2022-06-12T08:31:57.323Z</time>
      </trkpt>
      <trkpt lat="44.25283" lon="2.54482">
        <ele>733</ele>
        <time>2022-06-12T08:31:58.323Z</time>
      </trkpt>
      <trkpt lat="44.25284" lon="2.54481">
        <ele>733</ele>
        <time>2022-06-12T08:31:59.323Z</time>
      </trkpt>
      <trkpt lat="44.25286" lon="2.54481">
        <ele>733</ele>
        <time>2022-06-12T08:32:00.323Z</time>
      </trkpt>
      <trkpt lat="44.25287" lon="2.54481">
        <ele>733</ele>
        <time>2022-06-12T08:32:01.323Z</time>
      </trkpt>
      <trkpt lat="44.25288" lon="2.5448">
        <ele>733</ele>
        <time>2022-06-12T08:32:02.323Z</time>
      </trkpt>
      <trkpt lat="44.25289" lon="2.5448">
        <ele>733</ele>
        <time>2022-06-12T08:32:03.323Z</time>
      </trkpt>
      <trkpt lat="44.2529" lon="2.54479">
        <ele>733</ele>
        <time>2022-06-12T08:32:04.323Z</time>
      </trkpt>
      <trkpt lat="44.25291" lon="2.54478">
        <ele>733</ele>
        <time>2022-06-12T08:32:05.323Z</time>
      </trkpt>
      <trkpt lat="44.25293" lon="2.54478">
        <ele>733</ele>
        <time>2022-06-12T08:32:06.323Z</time>
      </trkpt>
      <trkpt lat="44.25294" lon="2.54478">
        <ele>733</ele>
        <time>2022-06-12T08:32:07.323Z</time>
      </trkpt>
      <trkpt lat="44.25295" lon="2.54477">
        <ele>733</ele>
        <time>2022-06-12T08:32:08.323Z</time>
      </trkpt>
      <trkpt lat="44.25296" lon="2.54477">
        <ele>733</ele>
        <time>2022-06-12T08:32:09.323Z</time>
      </trkpt>
      <trkpt lat="44.25298" lon="2.54477">
        <ele>733</ele>
        <time>2022-06-12T08:32:10.323Z</time>
      </trkpt>
      <trkpt lat="44.25299" lon="2.54477">
        <ele>733</ele>
        <time>2022-06-12T08:32:11.323Z</time>
      </trkpt>
      <trkpt lat="44.253" lon="2.54476">
        <ele>733</ele>
        <time>2022-06-12T08:32:12.323Z</time>
      </trkpt>
      <trkpt lat="44.25302" lon="2.54476">
        <ele>733</ele>
        <time>2022-06-12T08:32:13.323Z</time>
      </trkpt>
      <trkpt lat="44.25303" lon="2.54476">
        <ele>733</ele>
        <time>2022-06-12T08:32:14.323Z</time>
      </trkpt>
      <trkpt lat="44.25304" lon="2.54476">
        <ele>733</ele>
        <time>2022-06-12T08:32:15.323Z</time>
      </trkpt>
      <trkpt lat="44.25306" lon="2.54476">
        <ele>733</ele>
        <time>2022-06-12T08:32:16.323Z</time>
      </trkpt>
      <trkpt lat="44.25307" lon="2.54476">
        <ele>733</ele>
        <time>2022-06-12T08:32:17.323Z</time>
      </trkpt>
      <trkpt lat="44.25308" lon="2.54476">
        <ele>733</ele>
        <time>2022-06-12T08:32:18.323Z</time>
      </trkpt>
      <trkpt lat="44.25309" lon="2.54476">
        <ele>733</ele>
        <time>2022-06-12T08:32:19.323Z</time>
      </trkpt>
      <trkpt lat="44.2531" lon="2.54476">
        <ele>733</ele>
        <time>2022-06-12T08:32:20.323Z</time>
      </trkpt>
      <trkpt lat="44.2531" lon="2.54476">
        <ele>733</ele>
        <time>2022-06-12T08:32:21.323Z</time>
      </trkpt>
      <trkpt lat="44.2531" lon="2.54476">
        <ele>733</ele>
        <time>2022-06-12T08:32:22.323Z</time>
      </trkpt>
      <trkpt lat="44.2531" lon="2.54476">
        <ele>733</ele>
        <time>2022-06-12T08:32:23.323Z</time>
      </trkpt>
      <trkpt lat="44.25311" lon="2.54475">
        <ele>733</ele>
        <time>2022-06-12T08:32:24.323Z</time>
      </trkpt>
      <trkpt lat="44.25312" lon="2.54475">
        <ele>733</ele>
        <time>2022-06-12T08:32:25.323Z</time>
      </trkpt>
      <trkpt lat="44.25313" lon="2.54475">
        <ele>732</ele>
        <time>2022-06-12T08:32:26.323Z</time>
      </trkpt>
      <trkpt lat="44.25314" lon="2.54475">
        <ele>732</ele>
        <time>2022-06-12T08:32:27.323Z</time>
      </trkpt>
      <trkpt lat="44.25315" lon="2.54475">
        <ele>732</ele>
        <time>2022-06-12T08:32:28.323Z</time>
      </trkpt>
      <trkpt lat="44.25317" lon="2.54475">
        <ele>732</ele>
        <time>2022-06-12T08:32:29.323Z</time>
      </trkpt>
      <trkpt lat="44.25318" lon="2.54475">
        <ele>732</ele>
        <time>2022-06-12T08:32:30.323Z</time>
      </trkpt>
      <trkpt lat="44.25319" lon="2.54475">
        <ele>732</ele>
        <time>2022-06-12T08:32:31.323Z</time>
      </trkpt>
      <trkpt lat="44.25321" lon="2.54475">
        <ele>732</ele>
        <time>2022-06-12T08:32:32.323Z</time>
      </trkpt>
      <trkpt lat="44.25322" lon="2.54475">
        <ele>732</ele>
        <time>2022-06-12T08:32:33.323Z</time>
      </trkpt>
      <trkpt lat="44.25323" lon="2.54475">
        <ele>732</ele>
        <time>2022-06-12T08:32:34.323Z</time>
      </trkpt>
      <trkpt lat="44.25325" lon="2.54475">
        <ele>732</ele>
        <time>2022-06-12T08:32:35.323Z</time>
      </trkpt>
      <trkpt lat="44.25326" lon="2.54475">
        <ele>732</ele>
        <time>2022-06-12T08:32:36.323Z</time>
      </trkpt>
      <trkpt lat="44.25327" lon="2.54475">
        <ele>732</ele>
        <time>2022-06-12T08:32:37.323Z</time>
      </trkpt>
      <trkpt lat="44.25329" lon="2.54475">
        <ele>732</ele>
        <time>2022-06-12T08:32:38.323Z</time>
      </trkpt>
      <trkpt lat="44.2533" lon="2.54475">
        <ele>732</ele>
        <time>2022-06-12T08:32:39.323Z</time>
      </trkpt>
      <trkpt lat="44.25331" lon="2.54475">
        <ele>732</ele>
        <time>2022-06-12T08:32:40.323Z</time>
      </trkpt>
      <trkpt lat="44.25333" lon="2.54476">
        <ele>732</ele>
        <time>2022-06-12T08:32:41.323Z</time>
      </trkpt>
      <trkpt lat="44.25334" lon="2.54476">
        <ele>732</ele>
        <time>2022-06-12T08:32:42.323Z</time>
      </trkpt>
      <trkpt lat="44.25335" lon="2.54476">
        <ele>732</ele>
        <time>2022-06-12T08:32:43.323Z</time>
      </trkpt>
      <trkpt lat="44.25337" lon="2.54476">
        <ele>732</ele>
        <time>2022-06-12T08:32:44.323Z</time>
      </trkpt>
      <trkpt lat="44.25338" lon="2.54476">
        <ele>733</ele>
        <time>2022-06-12T08:32:45.323Z</time>
      </trkpt>
      <trkpt lat="44.25339" lon="2.54477">
        <ele>733</ele>
        <time>2022-06-12T08:32:46.323Z</time>
      </trkpt>
      <trkpt lat="44.2534" lon="2.54477">
        <ele>733</ele>
        <time>2022-06-12T08:32:47.323Z</time>
      </trkpt>
      <trkpt lat="44.25341" lon="2.54477">
        <ele>733</ele>
        <time>2022-06-12T08:32:48.323Z</time>
      </trkpt>
      <trkpt lat="44.25343" lon="2.54477">
        <ele>733</ele>
        <time>2022-06-12T08:32:49.323Z</time>
      </trkpt>
      <trkpt lat="44.25344" lon="2.54478">
        <ele>733</ele>
        <time>2022-06-12T08:32:50.323Z</time>
      </trkpt>
      <trkpt lat="44.25345" lon="2.54478">
        <ele>733</ele>
        <time>2022-06-12T08:32:51.323Z</time>
      </trkpt>
      <trkpt lat="44.25346" lon="2.54479">
        <ele>733</ele>
        <time>2022-06-12T08:32:52.323Z</time>
      </trkpt>
      <trkpt lat="44.25347" lon="2.54479">
        <ele>733</ele>
        <time>2022-06-12T08:32:53.323Z</time>
      </trkpt>
      <trkpt lat="44.25349" lon="2.54479">
        <ele>733</ele>
        <time>2022-06-12T08:32:54.323Z</time>
      </trkpt>
      <trkpt lat="44.2535" lon="2.5448">
        <ele>733</ele>
        <time>2022-06-12T08:32:55.323Z</time>
      </trkpt>
      <trkpt lat="44.25351" lon="2.5448">
        <ele>733</ele>
        <time>2022-06-12T08:32:56.323Z</time>
      </trkpt>
      <trkpt lat="44.25352" lon="2.54481">
        <ele>733</ele>
        <time>2022-06-12T08:32:57.323Z</time>
      </trkpt>
      <trkpt lat="44.25353" lon="2.54481">
        <ele>733</ele>
        <time>2022-06-12T08:32:58.323Z</time>
      </trkpt>
      <trkpt lat="44.25354" lon="2.54482">
        <ele>733</ele>
        <time>2022-06-12T08:32:59.323Z</time>
      </trkpt>
      <trkpt lat="44.25355" lon="2.54482">
        <ele>733</ele>
        <time>2022-06-12T08:33:00.323Z</time>
      </trkpt>
      <trkpt lat="44.25356" lon="2.54482">
        <ele>733</ele>
        <time>2022-06-12T08:33:01.323Z</time>
      </trkpt>
      <trkpt lat="44.25357" lon="2.54483">
        <ele>733</ele>
        <time>2022-06-12T08:33:02.323Z</time>
      </trkpt>
      <trkpt lat="44.25358" lon="2.54483">
        <ele>733</ele>
        <time>2022-06-12T08:33:03.323Z</time>
      </trkpt>
      <trkpt lat="44.2536" lon="2.54483">
        <ele>733</ele>
        <time>2022-06-12T08:33:04.323Z</time>
      </trkpt>
      <trkpt lat="44.25361" lon="2.54483">
        <ele>733</ele>
        <time>2022-06-12T08:33:05.323Z</time>
      </trkpt>
      <trkpt lat="44.25361" lon="2.54483">
        <ele>733</ele>
        <time>2022-06-12T08:33:06.323Z</time>
      </trkpt>
      <trkpt lat="44.25362" lon="2.54483">
        <ele>733</ele>
        <time>2022-06-12T08:33:07.323Z</time>
      </trkpt>
      <trkpt lat="44.25364" lon="2.54483">
        <ele>733</ele>
        <time>2022-06-12T08:33:08.323Z</time>
      </trkpt>
      <trkpt lat="44.25365" lon="2.54483">
        <ele>733</ele>
        <time>2022-06-12T08:33:09.323Z</time>
      </trkpt>
      <trkpt lat="44.25366" lon="2.54483">
        <ele>733</ele>
        <time>2022-06-12T08:33:10.323Z</time>
      </trkpt>
      <trkpt lat="44.25367" lon="2.54483">
        <ele>733</ele>
        <time>2022-06-12T08:33:11.323Z</time>
      </trkpt>
      <trkpt lat="44.25368" lon="2.54483">
        <ele>733</ele>
        <time>2022-06-12T08:33:12.323Z</time>
      </trkpt>
      <trkpt lat="44.25369" lon="2.54483">
        <ele>733</ele>
        <time>2022-06-12T08:33:13.323Z</time>
      </trkpt>
      <trkpt lat="44.2537" lon="2.54483">
        <ele>733</ele>
        <time>2022-06-12T08:33:14.323Z</time>
      </trkpt>
      <trkpt lat="44.25371" lon="2.54483">
        <ele>733</ele>
        <time>2022-06-12T08:33:15.323Z</time>
      </trkpt>
      <trkpt lat="44.25373" lon="2.54483">
        <ele>733</ele>
        <time>2022-06-12T08:33:16.323Z</time>
      </trkpt>
      <trkpt lat="44.25374" lon="2.54483">
        <ele>733</ele>
        <time>2022-06-12T08:33:17.323Z</time>
      </trkpt>
      <trkpt lat="44.25375" lon="2.54483">
        <ele>733</ele>
        <time>2022-06-12T08:33:18.323Z</time>
      </trkpt>
      <trkpt lat="44.25376" lon="2.54483">
        <ele>733</ele>
        <time>2022-06-12T08:33:19.323Z</time>
      </trkpt>
      <trkpt lat="44.25377" lon="2.54483">
        <ele>733</ele>
        <time>2022-06-12T08:33:20.323Z</time>
      </trkpt>
      <trkpt lat="44.25378" lon="2.54483">
        <ele>733</ele>
        <time>2022-06-12T08:33:21.323Z</time>
      </trkpt>
      <trkpt lat="44.2538" lon="2.54483">
        <ele>733</ele>
        <time>2022-06-12T08:33:22.323Z</time>
      </trkpt>
      <trkpt lat="44.25381" lon="2.54483">
        <ele>734</ele>
        <time>2022-06-12T08:33:23.323Z</time>
      </trkpt>
      <trkpt lat="44.25382" lon="2.54484">
        <ele>734</ele>
        <time>2022-06-12T08:33:24.323Z</time>
      </trkpt>
      <trkpt lat="44.25383" lon="2.54484">
        <ele>734</ele>
        <time>2022-06-12T08:33:25.323Z</time>
      </trkpt>
      <trkpt lat="44.25384" lon="2.54484">
        <ele>734</ele>
        <time>2022-06-12T08:33:26.323Z</time>
      </trkpt>
      <trkpt lat="44.25385" lon="2.54484">
        <ele>734</ele>
        <time>2022-06-12T08:33:27.323Z</time>
      </trkpt>
      <trkpt lat="44.25386" lon="2.54484">
        <ele>734</ele>
        <time>2022-06-12T08:33:28.323Z</time>
      </trkpt>
      <trkpt lat="44.25387" lon="2.54484">
        <ele>734</ele>
        <time>2022-06-12T08:33:29.323Z</time>
      </trkpt>
      <trkpt lat="44.25389" lon="2.54484">
        <ele>734</ele>
        <time>2022-06-12T08:33:30.323Z</time>
      </trkpt>
      <trkpt lat="44.2539" lon="2.54484">
        <ele>734</ele>
        <time>2022-06-12T08:33:31.323Z</time>
      </trkpt>
      <trkpt lat="44.25391" lon="2.54484">
        <ele>734</ele>
        <time>2022-06-12T08:33:32.323Z</time>
      </trkpt>
      <trkpt lat="44.25392" lon="2.54484">
        <ele>734</ele>
        <time>2022-06-12T08:33:33.323Z</time>
      </trkpt>
      <trkpt lat="44.25393" lon="2.54484">
        <ele>734</ele>
        <time>2022-06-12T08:33:34.323Z</time>
      </trkpt>
      <trkpt lat="44.25394" lon="2.54485">
        <ele>734</ele>
        <time>2022-06-12T08:33:35.323Z</time>
      </trkpt>
      <trkpt lat="44.25395" lon="2.54485">
        <ele>734</ele>
        <time>2022-06-12T08:33:36.323Z</time>
      </trkpt>
      <trkpt lat="44.25396" lon="2.54485">
        <ele>734</ele>
        <time>2022-06-12T08:33:37.323Z</time>
      </trkpt>
      <trkpt lat="44.25398" lon="2.54485">
        <ele>734</ele>
        <time>2022-06-12T08:33:38.323Z</time>
      </trkpt>
      <trkpt lat="44.25399" lon="2.54485">
        <ele>734</ele>
        <time>2022-06-12T08:33:39.323Z</time>
      </trkpt>
      <trkpt lat="44.254" lon="2.54485">
        <ele>734</ele>
        <time>2022-06-12T08:33:40.323Z</time>
      </trkpt>
      <trkpt lat="44.25401" lon="2.54485">
        <ele>734</ele>
        <time>2022-06-12T08:33:41.323Z</time>
      </trkpt>
      <trkpt lat="44.25403" lon="2.54485">
        <ele>734</ele>
        <time>2022-06-12T08:33:42.323Z</time>
      </trkpt>
      <trkpt lat="44.25404" lon="2.54485">
        <ele>734</ele>
        <time>2022-06-12T08:33:43.323Z</time>
      </trkpt>
      <trkpt lat="44.25405" lon="2.54485">
        <ele>734</ele>
        <time>2022-06-12T08:33:44.323Z</time>
      </trkpt>
      <trkpt lat="44.25406" lon="2.54485">
        <ele>734</ele>
        <time>2022-06-12T08:33:45.323Z</time>
      </trkpt>
      <trkpt lat="44.25408" lon="2.54485">
        <ele>733</ele>
        <time>2022-06-12T08:33:46.323Z</time>
      </trkpt>
      <trkpt lat="44.25409" lon="2.54485">
        <ele>733</ele>
        <time>2022-06-12T08:33:47.323Z</time>
      </trkpt>
      <trkpt lat="44.2541" lon="2.54485">
        <ele>733</ele>
        <time>2022-06-12T08:33:48.323Z</time>
      </trkpt>
      <trkpt lat="44.25411" lon="2.54485">
        <ele>733</ele>
        <time>2022-06-12T08:33:49.323Z</time>
      </trkpt>
      <trkpt lat="44.25413" lon="2.54485">
        <ele>733</ele>
        <time>2022-06-12T08:33:50.323Z</time>
      </trkpt>
      <trkpt lat="44.25414" lon="2.54485">
        <ele>733</ele>
        <time>2022-06-12T08:33:51.323Z</time>
      </trkpt>
      <trkpt lat="44.25415" lon="2.54485">
        <ele>733</ele>
        <time>2022-06-12T08:33:52.323Z</time>
      </trkpt>
      <trkpt lat="44.25417" lon="2.54485">
        <ele>733</ele>
        <time>2022-06-12T08:33:53.323Z</time>
      </trkpt>
      <trkpt lat="44.25418" lon="2.54485">
        <ele>733</ele>
        <time>2022-06-12T08:33:54.323Z</time>
      </trkpt>
      <trkpt lat="44.25419" lon="2.54485">
        <ele>733</ele>
        <time>2022-06-12T08:33:55.323Z</time>
      </trkpt>
      <trkpt lat="44.25421" lon="2.54485">
        <ele>733</ele>
        <time>2022-06-12T08:33:56.323Z</time>
      </trkpt>
      <trkpt lat="44.25422" lon="2.54485">
        <ele>733</ele>
        <time>2022-06-12T08:33:57.323Z</time>
      </trkpt>
      <trkpt lat="44.25423" lon="2.54485">
        <ele>733</ele>
        <time>2022-06-12T08:33:58.323Z</time>
      </trkpt>
      <trkpt lat="44.25424" lon="2.54486">
        <ele>733</ele>
        <time>2022-06-12T08:33:59.323Z</time>
      </trkpt>
      <trkpt lat="44.25426" lon="2.54486">
        <ele>733</ele>
        <time>2022-06-12T08:34:00.323Z</time>
      </trkpt>
      <trkpt lat="44.25427" lon="2.54486">
        <ele>733</ele>
        <time>2022-06-12T08:34:01.323Z</time>
      </trkpt>
      <trkpt lat="44.25428" lon="2.54486">
        <ele>733</ele>
        <time>2022-06-12T08:34:02.323Z</time>
      </trkpt>
      <trkpt lat="44.25429" lon="2.54486">
        <ele>733</ele>
        <time>2022-06-12T08:34:03.323Z</time>
      </trkpt>
      <trkpt lat="44.25431" lon="2.54486">
        <ele>733</ele>
        <time>2022-06-12T08:34:04.323Z</time>
      </trkpt>
      <trkpt lat="44.25432" lon="2.54486">
        <ele>733</ele>
        <time>2022-06-12T08:34:05.323Z</time>
      </trkpt>
      <trkpt lat="44.25433" lon="2.54486">
        <ele>733</ele>
        <time>2022-06-12T08:34:06.323Z</time>
      </trkpt>
      <trkpt lat="44.25434" lon="2.54486">
        <ele>732</ele>
        <time>2022-06-12T08:34:07.323Z</time>
      </trkpt>
      <trkpt lat="44.25435" lon="2.54487">
        <ele>732</ele>
        <time>2022-06-12T08:34:08.323Z</time>
      </trkpt>
      <trkpt lat="44.25437" lon="2.54487">
        <ele>732</ele>
        <time>2022-06-12T08:34:09.323Z</time>
      </trkpt>
      <trkpt lat="44.25438" lon="2.54487">
        <ele>732</ele>
        <time>2022-06-12T08:34:10.323Z</time>
      </trkpt>
      <trkpt lat="44.25439" lon="2.54487">
        <ele>732</ele>
        <time>2022-06-12T08:34:11.323Z</time>
      </trkpt>
      <trkpt lat="44.2544" lon="2.54487">
        <ele>732</ele>
        <time>2022-06-12T08:34:12.323Z</time>
      </trkpt>
      <trkpt lat="44.25442" lon="2.54487">
        <ele>732</ele>
        <time>2022-06-12T08:34:13.323Z</time>
      </trkpt>
      <trkpt lat="44.25443" lon="2.54488">
        <ele>732</ele>
        <time>2022-06-12T08:34:14.323Z</time>
      </trkpt>
      <trkpt lat="44.25444" lon="2.54488">
        <ele>732</ele>
        <time>2022-06-12T08:34:15.323Z</time>
      </trkpt>
      <trkpt lat="44.25446" lon="2.54488">
        <ele>732</ele>
        <time>2022-06-12T08:34:16.323Z</time>
      </trkpt>
      <trkpt lat="44.25447" lon="2.54488">
        <ele>732</ele>
        <time>2022-06-12T08:34:17.323Z</time>
      </trkpt>
      <trkpt lat="44.25448" lon="2.54488">
        <ele>732</ele>
        <time>2022-06-12T08:34:18.323Z</time>
      </trkpt>
      <trkpt lat="44.25449" lon="2.54488">
        <ele>732</ele>
        <time>2022-06-12T08:34:19.323Z</time>
      </trkpt>
      <trkpt lat="44.2545" lon="2.54488">
        <ele>732</ele>
        <time>2022-06-12T08:34:20.323Z</time>
      </trkpt>
      <trkpt lat="44.25452" lon="2.54488">
        <ele>732</ele>
        <time>2022-06-12T08:34:21.323Z</time>
      </trkpt>
      <trkpt lat="44.25453" lon="2.54488">
        <ele>732</ele>
        <time>2022-06-12T08:34:22.323Z</time>
      </trkpt>
      <trkpt lat="44.25454" lon="2.54488">
        <ele>732</ele>
        <time>2022-06-12T08:34:23.323Z</time>
      </trkpt>
      <trkpt lat="44.25455" lon="2.54488">
        <ele>732</ele>
        <time>2022-06-12T08:34:24.323Z</time>
      </trkpt>
      <trkpt lat="44.25457" lon="2.54489">
        <ele>732</ele>
        <time>2022-06-12T08:34:25.323Z</time>
      </trkpt>
      <trkpt lat="44.25458" lon="2.54489">
        <ele>732</ele>
        <time>2022-06-12T08:34:26.323Z</time>
      </trkpt>
      <trkpt lat="44.25459" lon="2.54489">
        <ele>732</ele>
        <time>2022-06-12T08:34:27.323Z</time>
      </trkpt>
      <trkpt lat="44.25461" lon="2.5449">
        <ele>732</ele>
        <time>2022-06-12T08:34:28.323Z</time>
      </trkpt>
      <trkpt lat="44.25462" lon="2.5449">
        <ele>732</ele>
        <time>2022-06-12T08:34:29.323Z</time>
      </trkpt>
      <trkpt lat="44.25463" lon="2.5449">
        <ele>732</ele>
        <time>2022-06-12T08:34:30.323Z</time>
      </trkpt>
      <trkpt lat="44.25464" lon="2.54491">
        <ele>732</ele>
        <time>2022-06-12T08:34:31.323Z</time>
      </trkpt>
      <trkpt lat="44.25465" lon="2.54491">
        <ele>732</ele>
        <time>2022-06-12T08:34:32.323Z</time>
      </trkpt>
      <trkpt lat="44.25467" lon="2.54491">
        <ele>732</ele>
        <time>2022-06-12T08:34:33.323Z</time>
      </trkpt>
      <trkpt lat="44.25468" lon="2.54491">
        <ele>732</ele>
        <time>2022-06-12T08:34:34.323Z</time>
      </trkpt>
      <trkpt lat="44.25469" lon="2.54491">
        <ele>732</ele>
        <time>2022-06-12T08:34:35.323Z</time>
      </trkpt>
      <trkpt lat="44.2547" lon="2.54492">
        <ele>732</ele>
        <time>2022-06-12T08:34:36.323Z</time>
      </trkpt>
      <trkpt lat="44.25471" lon="2.54492">
        <ele>732</ele>
        <time>2022-06-12T08:34:37.323Z</time>
      </trkpt>
      <trkpt lat="44.25473" lon="2.54492">
        <ele>732</ele>
        <time>2022-06-12T08:34:38.323Z</time>
      </trkpt>
      <trkpt lat="44.25474" lon="2.54493">
        <ele>732</ele>
        <time>2022-06-12T08:34:39.323Z</time>
      </trkpt>
      <trkpt lat="44.25475" lon="2.54493">
        <ele>732</ele>
        <time>2022-06-12T08:34:40.323Z</time>
      </trkpt>
      <trkpt lat="44.25476" lon="2.54493">
        <ele>732</ele>
        <time>2022-06-12T08:34:41.323Z</time>
      </trkpt>
      <trkpt lat="44.25478" lon="2.54494">
        <ele>732</ele>
        <time>2022-06-12T08:34:42.323Z</time>
      </trkpt>
      <trkpt lat="44.25479" lon="2.54494">
        <ele>732</ele>
        <time>2022-06-12T08:34:43.323Z</time>
      </trkpt>
      <trkpt lat="44.2548" lon="2.54494">
        <ele>732</ele>
        <time>2022-06-12T08:34:44.323Z</time>
      </trkpt>
      <trkpt lat="44.25481" lon="2.54495">
        <ele>732</ele>
        <time>2022-06-12T08:34:45.323Z</time>
      </trkpt>
      <trkpt lat="44.25483" lon="2.54495">
        <ele>732</ele>
        <time>2022-06-12T08:34:46.323Z</time>
      </trkpt>
      <trkpt lat="44.25484" lon="2.54496">
        <ele>732</ele>
        <time>2022-06-12T08:34:47.323Z</time>
      </trkpt>
      <trkpt lat="44.25485" lon="2.54496">
        <ele>732</ele>
        <time>2022-06-12T08:34:48.323Z</time>
      </trkpt>
      <trkpt lat="44.25486" lon="2.54496">
        <ele>732</ele>
        <time>2022-06-12T08:34:49.323Z</time>
      </trkpt>
      <trkpt lat="44.25487" lon="2.54497">
        <ele>732</ele>
        <time>2022-06-12T08:34:50.323Z</time>
      </trkpt>
      <trkpt lat="44.25489" lon="2.54497">
        <ele>732</ele>
        <time>2022-06-12T08:34:51.323Z</time>
      </trkpt>
      <trkpt lat="44.2549" lon="2.54497">
        <ele>732</ele>
        <time>2022-06-12T08:34:52.323Z</time>
      </trkpt>
      <trkpt lat="44.25491" lon="2.54498">
        <ele>732</ele>
        <time>2022-06-12T08:34:53.323Z</time>
      </trkpt>
      <trkpt lat="44.25492" lon="2.54498">
        <ele>733</ele>
        <time>2022-06-12T08:34:54.323Z</time>
      </trkpt>
      <trkpt lat="44.25493" lon="2.54499">
        <ele>733</ele>
        <time>2022-06-12T08:34:55.323Z</time>
      </trkpt>
      <trkpt lat="44.25495" lon="2.54499">
        <ele>733</ele>
        <time>2022-06-12T08:34:56.323Z</time>
      </trkpt>
      <trkpt lat="44.25496" lon="2.54499">
        <ele>733</ele>
        <time>2022-06-12T08:34:57.323Z</time>
      </trkpt>
      <trkpt lat="44.25497" lon="2.545">
        <ele>733</ele>
        <time>2022-06-12T08:34:58.323Z</time>
      </trkpt>
      <trkpt lat="44.25498" lon="2.545">
        <ele>733</ele>
        <time>2022-06-12T08:34:59.323Z</time>
      </trkpt>
      <trkpt lat="44.25499" lon="2.54501">
        <ele>733</ele>
        <time>2022-06-12T08:35:00.323Z</time>
      </trkpt>
      <trkpt lat="44.255" lon="2.54502">
        <ele>733</ele>
        <time>2022-06-12T08:35:01.323Z</time>
      </trkpt>
      <trkpt lat="44.25502" lon="2.54502">
        <ele>733</ele>
        <time>2022-06-12T08:35:02.323Z</time>
      </trkpt>
      <trkpt lat="44.25503" lon="2.54502">
        <ele>733</ele>
        <time>2022-06-12T08:35:03.323Z</time>
      </trkpt>
      <trkpt lat="44.25504" lon="2.54503">
        <ele>733</ele>
        <time>2022-06-12T08:35:04.323Z</time>
      </trkpt>
      <trkpt lat="44.25505" lon="2.54504">
        <ele>733</ele>
        <time>2022-06-12T08:35:05.323Z</time>
      </trkpt>
      <trkpt lat="44.25506" lon="2.54504">
        <ele>733</ele>
        <time>2022-06-12T08:35:06.323Z</time>
      </trkpt>
      <trkpt lat="44.25507" lon="2.54505">
        <ele>733</ele>
        <time>2022-06-12T08:35:07.323Z</time>
      </trkpt>
      <trkpt lat="44.25508" lon="2.54505">
        <ele>733</ele>
        <time>2022-06-12T08:35:08.323Z</time>
      </trkpt>
      <trkpt lat="44.2551" lon="2.54506">
        <ele>733</ele>
        <time>2022-06-12T08:35:09.323Z</time>
      </trkpt>
      <trkpt lat="44.25511" lon="2.54507">
        <ele>733</ele>
        <time>2022-06-12T08:35:10.323Z</time>
      </trkpt>
      <trkpt lat="44.25512" lon="2.54507">
        <ele>734</ele>
        <time>2022-06-12T08:35:11.323Z</time>
      </trkpt>
      <trkpt lat="44.25513" lon="2.54508">
        <ele>734</ele>
        <time>2022-06-12T08:35:12.323Z</time>
      </trkpt>
      <trkpt lat="44.25514" lon="2.54509">
        <ele>734</ele>
        <time>2022-06-12T08:35:13.323Z</time>
      </trkpt>
      <trkpt lat="44.25515" lon="2.54509">
        <ele>734</ele>
        <time>2022-06-12T08:35:14.323Z</time>
      </trkpt>
      <trkpt lat="44.25516" lon="2.5451">
        <ele>734</ele>
        <time>2022-06-12T08:35:15.323Z</time>
      </trkpt>
      <trkpt lat="44.25517" lon="2.5451">
        <ele>734</ele>
        <time>2022-06-12T08:35:16.323Z</time>
      </trkpt>
      <trkpt lat="44.25518" lon="2.54511">
        <ele>734</ele>
        <time>2022-06-12T08:35:17.323Z</time>
      </trkpt>
      <trkpt lat="44.25519" lon="2.54512">
        <ele>734</ele>
        <time>2022-06-12T08:35:18.323Z</time>
      </trkpt>
      <trkpt lat="44.2552" lon="2.54512">
        <ele>734</ele>
        <time>2022-06-12T08:35:19.323Z</time>
      </trkpt>
      <trkpt lat="44.25521" lon="2.54513">
        <ele>734</ele>
        <time>2022-06-12T08:35:20.323Z</time>
      </trkpt>
      <trkpt lat="44.25522" lon="2.54514">
        <ele>734</ele>
        <time>2022-06-12T08:35:21.323Z</time>
      </trkpt>
      <trkpt lat="44.25524" lon="2.54515">
        <ele>735</ele>
        <time>2022-06-12T08:35:22.323Z</time>
      </trkpt>
      <trkpt lat="44.25524" lon="2.54515">
        <ele>735</ele>
        <time>2022-06-12T08:35:23.323Z</time>
      </trkpt>
      <trkpt lat="44.25525" lon="2.54516">
        <ele>735</ele>
        <time>2022-06-12T08:35:24.323Z</time>
      </trkpt>
      <trkpt lat="44.25526" lon="2.54517">
        <ele>735</ele>
        <time>2022-06-12T08:35:25.323Z</time>
      </trkpt>
      <trkpt lat="44.25527" lon="2.54517">
        <ele>735</ele>
        <time>2022-06-12T08:35:26.323Z</time>
      </trkpt>
      <trkpt lat="44.25528" lon="2.54518">
        <ele>735</ele>
        <time>2022-06-12T08:35:27.323Z</time>
      </trkpt>
      <trkpt lat="44.25529" lon="2.54519">
        <ele>735</ele>
        <time>2022-06-12T08:35:28.323Z</time>
      </trkpt>
      <trkpt lat="44.2553" lon="2.5452">
        <ele>735</ele>
        <time>2022-06-12T08:35:29.323Z</time>
      </trkpt>
      <trkpt lat="44.25531" lon="2.5452">
        <ele>735</ele>
        <time>2022-06-12T08:35:30.323Z</time>
      </trkpt>
      <trkpt lat="44.25532" lon="2.54521">
        <ele>735</ele>
        <time>2022-06-12T08:35:31.323Z</time>
      </trkpt>
      <trkpt lat="44.25533" lon="2.54522">
        <ele>735</ele>
        <time>2022-06-12T08:35:32.323Z</time>
      </trkpt>
      <trkpt lat="44.25534" lon="2.54522">
        <ele>735</ele>
        <time>2022-06-12T08:35:33.323Z</time>
      </trkpt>
      <trkpt lat="44.25535" lon="2.54523">
        <ele>735</ele>
        <time>2022-06-12T08:35:34.323Z</time>
      </trkpt>
      <trkpt lat="44.25536" lon="2.54524">
        <ele>735</ele>
        <time>2022-06-12T08:35:35.323Z</time>
      </trkpt>
      <trkpt lat="44.25537" lon="2.54525">
        <ele>735</ele>
        <time>2022-06-12T08:35:36.323Z</time>
      </trkpt>
      <trkpt lat="44.25538" lon="2.54525">
        <ele>735</ele>
        <time>2022-06-12T08:35:37.323Z</time>
      </trkpt>
      <trkpt lat="44.25539" lon="2.54526">
        <ele>735</ele>
        <time>2022-06-12T08:35:38.323Z</time>
      </trkpt>
      <trkpt lat="44.25541" lon="2.54527">
        <ele>735</ele>
        <time>2022-06-12T08:35:39.323Z</time>
      </trkpt>
      <trkpt lat="44.25542" lon="2.54528">
        <ele>735</ele>
        <time>2022-06-12T08:35:40.323Z</time>
      </trkpt>
      <trkpt lat="44.25543" lon="2.54529">
        <ele>735</ele>
        <time>2022-06-12T08:35:41.323Z</time>
      </trkpt>
      <trkpt lat="44.25544" lon="2.54529">
        <ele>735</ele>
        <time>2022-06-12T08:35:42.323Z</time>
      </trkpt>
      <trkpt lat="44.25545" lon="2.5453">
        <ele>735</ele>
        <time>2022-06-12T08:35:43.323Z</time>
      </trkpt>
      <trkpt lat="44.25546" lon="2.54531">
        <ele>735</ele>
        <time>2022-06-12T08:35:44.323Z</time>
      </trkpt>
      <trkpt lat="44.25547" lon="2.54532">
        <ele>735</ele>
        <time>2022-06-12T08:35:45.323Z</time>
      </trkpt>
      <trkpt lat="44.25548" lon="2.54532">
        <ele>735</ele>
        <time>2022-06-12T08:35:46.323Z</time>
      </trkpt>
      <trkpt lat="44.25549" lon="2.54533">
        <ele>736</ele>
        <time>2022-06-12T08:35:47.323Z</time>
      </trkpt>
      <trkpt lat="44.2555" lon="2.54534">
        <ele>736</ele>
        <time>2022-06-12T08:35:48.323Z</time>
      </trkpt>
      <trkpt lat="44.25551" lon="2.54535">
        <ele>736</ele>
        <time>2022-06-12T08:35:49.323Z</time>
      </trkpt>
      <trkpt lat="44.25552" lon="2.54536">
        <ele>736</ele>
        <time>2022-06-12T08:35:50.323Z</time>
      </trkpt>
      <trkpt lat="44.25553" lon="2.54537">
        <ele>736</ele>
        <time>2022-06-12T08:35:51.323Z</time>
      </trkpt>
      <trkpt lat="44.25554" lon="2.54537">
        <ele>736</ele>
        <time>2022-06-12T08:35:52.323Z</time>
      </trkpt>
      <trkpt lat="44.25555" lon="2.54538">
        <ele>736</ele>
        <time>2022-06-12T08:35:53.323Z</time>
      </trkpt>
      <trkpt lat="44.25556" lon="2.54539">
        <ele>736</ele>
        <time>2022-06-12T08:35:54.323Z</time>
      </trkpt>
      <trkpt lat="44.25557" lon="2.5454">
        <ele>736</ele>
        <time>2022-06-12T08:35:55.323Z</time>
      </trkpt>
      <trkpt lat="44.25558" lon="2.54541">
        <ele>736</ele>
        <time>2022-06-12T08:35:56.323Z</time>
      </trkpt>
      <trkpt lat="44.25559" lon="2.54541">
        <ele>736</ele>
        <time>2022-06-12T08:35:57.323Z</time>
      </trkpt>
      <trkpt lat="44.2556" lon="2.54542">
        <ele>737</ele>
        <time>2022-06-12T08:35:58.323Z</time>
      </trkpt>
      <trkpt lat="44.25561" lon="2.54543">
        <ele>737</ele>
        <time>2022-06-12T08:35:59.323Z</time>
      </trkpt>
      <trkpt lat="44.25563" lon="2.54544">
        <ele>737</ele>
        <time>2022-06-12T08:36:00.323Z</time>
      </trkpt>
      <trkpt lat="44.25564" lon="2.54545">
        <ele>737</ele>
        <time>2022-06-12T08:36:01.323Z</time>
      </trkpt>
      <trkpt lat="44.25564" lon="2.54545">
        <ele>737</ele>
        <time>2022-06-12T08:36:02.323Z</time>
      </trkpt>
      <trkpt lat="44.25566" lon="2.54546">
        <ele>737</ele>
        <time>2022-06-12T08:36:03.323Z</time>
      </trkpt>
      <trkpt lat="44.25567" lon="2.54547">
        <ele>737</ele>
        <time>2022-06-12T08:36:04.323Z</time>
      </trkpt>
      <trkpt lat="44.25568" lon="2.54547">
        <ele>737</ele>
        <time>2022-06-12T08:36:05.323Z</time>
      </trkpt>
      <trkpt lat="44.25569" lon="2.54548">
        <ele>737</ele>
        <time>2022-06-12T08:36:06.323Z</time>
      </trkpt>
      <trkpt lat="44.2557" lon="2.54549">
        <ele>737</ele>
        <time>2022-06-12T08:36:07.323Z</time>
      </trkpt>
      <trkpt lat="44.25571" lon="2.5455">
        <ele>737</ele>
        <time>2022-06-12T08:36:08.323Z</time>
      </trkpt>
      <trkpt lat="44.25572" lon="2.5455">
        <ele>737</ele>
        <time>2022-06-12T08:36:09.323Z</time>
      </trkpt>
      <trkpt lat="44.25573" lon="2.54551">
        <ele>737</ele>
        <time>2022-06-12T08:36:10.323Z</time>
      </trkpt>
      <trkpt lat="44.25574" lon="2.54552">
        <ele>737</ele>
        <time>2022-06-12T08:36:11.323Z</time>
      </trkpt>
      <trkpt lat="44.25575" lon="2.54552">
        <ele>737</ele>
        <time>2022-06-12T08:36:12.323Z</time>
      </trkpt>
      <trkpt lat="44.25576" lon="2.54553">
        <ele>737</ele>
        <time>2022-06-12T08:36:13.323Z</time>
      </trkpt>
      <trkpt lat="44.25577" lon="2.54554">
        <ele>737</ele>
        <time>2022-06-12T08:36:14.323Z</time>
      </trkpt>
      <trkpt lat="44.25578" lon="2.54554">
        <ele>737</ele>
        <time>2022-06-12T08:36:15.323Z</time>
      </trkpt>
      <trkpt lat="44.25579" lon="2.54555">
        <ele>737</ele>
        <time>2022-06-12T08:36:16.323Z</time>
      </trkpt>
      <trkpt lat="44.2558" lon="2.54556">
        <ele>738</ele>
        <time>2022-06-12T08:36:17.323Z</time>
      </trkpt>
      <trkpt lat="44.25581" lon="2.54557">
        <ele>738</ele>
        <time>2022-06-12T08:36:18.323Z</time>
      </trkpt>
      <trkpt lat="44.25582" lon="2.54557">
        <ele>738</ele>
        <time>2022-06-12T08:36:19.323Z</time>
      </trkpt>
      <trkpt lat="44.25583" lon="2.54558">
        <ele>738</ele>
        <time>2022-06-12T08:36:20.323Z</time>
      </trkpt>
      <trkpt lat="44.25584" lon="2.54559">
        <ele>738</ele>
        <time>2022-06-12T08:36:21.323Z</time>
      </trkpt>
      <trkpt lat="44.25585" lon="2.54559">
        <ele>738</ele>
        <time>2022-06-12T08:36:22.323Z</time>
      </trkpt>
      <trkpt lat="44.25586" lon="2.5456">
        <ele>738</ele>
        <time>2022-06-12T08:36:23.323Z</time>
      </trkpt>
      <trkpt lat="44.25588" lon="2.54561">
        <ele>738</ele>
        <time>2022-06-12T08:36:24.323Z</time>
      </trkpt>
      <trkpt lat="44.25589" lon="2.54561">
        <ele>738</ele>
        <time>2022-06-12T08:36:25.323Z</time>
      </trkpt>
      <trkpt lat="44.2559" lon="2.54562">
        <ele>738</ele>
        <time>2022-06-12T08:36:26.323Z</time>
      </trkpt>
      <trkpt lat="44.25591" lon="2.54562">
        <ele>738</ele>
        <time>2022-06-12T08:36:27.323Z</time>
      </trkpt>
      <trkpt lat="44.25592" lon="2.54563">
        <ele>738</ele>
        <time>2022-06-12T08:36:28.323Z</time>
      </trkpt>
      <trkpt lat="44.25593" lon="2.54564">
        <ele>739</ele>
        <time>2022-06-12T08:36:29.323Z</time>
      </trkpt>
      <trkpt lat="44.25594" lon="2.54564">
        <ele>739</ele>
        <time>2022-06-12T08:36:30.323Z</time>
      </trkpt>
      <trkpt lat="44.25595" lon="2.54565">
        <ele>739</ele>
        <time>2022-06-12T08:36:31.323Z</time>
      </trkpt>
      <trkpt lat="44.25596" lon="2.54565">
        <ele>739</ele>
        <time>2022-06-12T08:36:32.323Z</time>
      </trkpt>
      <trkpt lat="44.25597" lon="2.54566">
        <ele>739</ele>
        <time>2022-06-12T08:36:33.323Z</time>
      </trkpt>
      <trkpt lat="44.25598" lon="2.54567">
        <ele>739</ele>
        <time>2022-06-12T08:36:34.323Z</time>
      </trkpt>
      <trkpt lat="44.25599" lon="2.54567">
        <ele>739</ele>
        <time>2022-06-12T08:36:35.323Z</time>
      </trkpt>
      <trkpt lat="44.256" lon="2.54568">
        <ele>739</ele>
        <time>2022-06-12T08:36:36.323Z</time>
      </trkpt>
      <trkpt lat="44.25601" lon="2.54568">
        <ele>739</ele>
        <time>2022-06-12T08:36:37.323Z</time>
      </trkpt>
      <trkpt lat="44.25603" lon="2.54569">
        <ele>739</ele>
        <time>2022-06-12T08:36:38.323Z</time>
      </trkpt>
      <trkpt lat="44.25604" lon="2.54569">
        <ele>739</ele>
        <time>2022-06-12T08:36:39.323Z</time>
      </trkpt>
      <trkpt lat="44.25605" lon="2.5457">
        <ele>740</ele>
        <time>2022-06-12T08:36:40.323Z</time>
      </trkpt>
      <trkpt lat="44.25606" lon="2.5457">
        <ele>740</ele>
        <time>2022-06-12T08:36:41.323Z</time>
      </trkpt>
      <trkpt lat="44.25607" lon="2.54571">
        <ele>740</ele>
        <time>2022-06-12T08:36:42.323Z</time>
      </trkpt>
      <trkpt lat="44.25608" lon="2.54571">
        <ele>740</ele>
        <time>2022-06-12T08:36:43.323Z</time>
      </trkpt>
      <trkpt lat="44.25609" lon="2.54571">
        <ele>740</ele>
        <time>2022-06-12T08:36:44.323Z</time>
      </trkpt>
      <trkpt lat="44.2561" lon="2.54572">
        <ele>740</ele>
        <time>2022-06-12T08:36:45.323Z</time>
      </trkpt>
      <trkpt lat="44.25611" lon="2.54572">
        <ele>740</ele>
        <time>2022-06-12T08:36:46.323Z</time>
      </trkpt>
      <trkpt lat="44.25612" lon="2.54573">
        <ele>740</ele>
        <time>2022-06-12T08:36:47.323Z</time>
      </trkpt>
      <trkpt lat="44.25613" lon="2.54573">
        <ele>740</ele>
        <time>2022-06-12T08:36:48.323Z</time>
      </trkpt>
      <trkpt lat="44.25615" lon="2.54574">
        <ele>740</ele>
        <time>2022-06-12T08:36:49.323Z</time>
      </trkpt>
      <trkpt lat="44.25616" lon="2.54574">
        <ele>740</ele>
        <time>2022-06-12T08:36:50.323Z</time>
      </trkpt>
      <trkpt lat="44.25617" lon="2.54575">
        <ele>740</ele>
        <time>2022-06-12T08:36:51.323Z</time>
      </trkpt>
      <trkpt lat="44.25618" lon="2.54575">
        <ele>740</ele>
        <time>2022-06-12T08:36:52.323Z</time>
      </trkpt>
      <trkpt lat="44.25619" lon="2.54576">
        <ele>740</ele>
        <time>2022-06-12T08:36:53.323Z</time>
      </trkpt>
      <trkpt lat="44.2562" lon="2.54576">
        <ele>740</ele>
        <time>2022-06-12T08:36:54.323Z</time>
      </trkpt>
      <trkpt lat="44.25621" lon="2.54577">
        <ele>740</ele>
        <time>2022-06-12T08:36:55.323Z</time>
      </trkpt>
      <trkpt lat="44.25622" lon="2.54577">
        <ele>740</ele>
        <time>2022-06-12T08:36:56.323Z</time>
      </trkpt>
      <trkpt lat="44.25623" lon="2.54578">
        <ele>740</ele>
        <time>2022-06-12T08:36:57.323Z</time>
      </trkpt>
      <trkpt lat="44.25625" lon="2.54579">
        <ele>740</ele>
        <time>2022-06-12T08:36:58.323Z</time>
      </trkpt>
      <trkpt lat="44.25626" lon="2.54579">
        <ele>740</ele>
        <time>2022-06-12T08:36:59.323Z</time>
      </trkpt>
      <trkpt lat="44.25627" lon="2.5458">
        <ele>740</ele>
        <time>2022-06-12T08:37:00.323Z</time>
      </trkpt>
      <trkpt lat="44.25628" lon="2.54581">
        <ele>740</ele>
        <time>2022-06-12T08:37:01.323Z</time>
      </trkpt>
      <trkpt lat="44.25629" lon="2.54582">
        <ele>740</ele>
        <time>2022-06-12T08:37:02.323Z</time>
      </trkpt>
      <trkpt lat="44.2563" lon="2.54582">
        <ele>740</ele>
        <time>2022-06-12T08:37:03.323Z</time>
      </trkpt>
      <trkpt lat="44.25631" lon="2.54583">
        <ele>740</ele>
        <time>2022-06-12T08:37:04.323Z</time>
      </trkpt>
      <trkpt lat="44.25632" lon="2.54583">
        <ele>740</ele>
        <time>2022-06-12T08:37:05.323Z</time>
      </trkpt>
      <trkpt lat="44.25633" lon="2.54584">
        <ele>740</ele>
        <time>2022-06-12T08:37:06.323Z</time>
      </trkpt>
      <trkpt lat="44.25635" lon="2.54585">
        <ele>740</ele>
        <time>2022-06-12T08:37:07.323Z</time>
      </trkpt>
      <trkpt lat="44.25636" lon="2.54586">
        <ele>741</ele>
        <time>2022-06-12T08:37:08.323Z</time>
      </trkpt>
      <trkpt lat="44.25637" lon="2.54586">
        <ele>741</ele>
        <time>2022-06-12T08:37:09.323Z</time>
      </trkpt>
      <trkpt lat="44.25638" lon="2.54587">
        <ele>741</ele>
        <time>2022-06-12T08:37:10.323Z</time>
      </trkpt>
      <trkpt lat="44.25639" lon="2.54587">
        <ele>741</ele>
        <time>2022-06-12T08:37:11.323Z</time>
      </trkpt>
      <trkpt lat="44.2564" lon="2.54588">
        <ele>741</ele>
        <time>2022-06-12T08:37:12.323Z</time>
      </trkpt>
      <trkpt lat="44.25641" lon="2.54589">
        <ele>741</ele>
        <time>2022-06-12T08:37:13.323Z</time>
      </trkpt>
      <trkpt lat="44.25642" lon="2.54589">
        <ele>741</ele>
        <time>2022-06-12T08:37:14.323Z</time>
      </trkpt>
      <trkpt lat="44.25643" lon="2.5459">
        <ele>741</ele>
        <time>2022-06-12T08:37:15.323Z</time>
      </trkpt>
      <trkpt lat="44.25644" lon="2.54591">
        <ele>741</ele>
        <time>2022-06-12T08:37:16.323Z</time>
      </trkpt>
      <trkpt lat="44.25646" lon="2.54591">
        <ele>741</ele>
        <time>2022-06-12T08:37:17.323Z</time>
      </trkpt>
      <trkpt lat="44.25647" lon="2.54592">
        <ele>741</ele>
        <time>2022-06-12T08:37:18.323Z</time>
      </trkpt>
      <trkpt lat="44.25648" lon="2.54593">
        <ele>741</ele>
        <time>2022-06-12T08:37:19.323Z</time>
      </trkpt>
      <trkpt lat="44.25649" lon="2.54593">
        <ele>741</ele>
        <time>2022-06-12T08:37:20.323Z</time>
      </trkpt>
      <trkpt lat="44.2565" lon="2.54594">
        <ele>742</ele>
        <time>2022-06-12T08:37:21.323Z</time>
      </trkpt>
      <trkpt lat="44.25651" lon="2.54594">
        <ele>742</ele>
        <time>2022-06-12T08:37:22.323Z</time>
      </trkpt>
      <trkpt lat="44.25652" lon="2.54595">
        <ele>742</ele>
        <time>2022-06-12T08:37:23.323Z</time>
      </trkpt>
      <trkpt lat="44.25653" lon="2.54595">
        <ele>742</ele>
        <time>2022-06-12T08:37:24.323Z</time>
      </trkpt>
      <trkpt lat="44.25655" lon="2.54596">
        <ele>742</ele>
        <time>2022-06-12T08:37:25.323Z</time>
      </trkpt>
      <trkpt lat="44.25656" lon="2.54596">
        <ele>741</ele>
        <time>2022-06-12T08:37:26.323Z</time>
      </trkpt>
      <trkpt lat="44.25657" lon="2.54597">
        <ele>741</ele>
        <time>2022-06-12T08:37:27.323Z</time>
      </trkpt>
      <trkpt lat="44.25658" lon="2.54597">
        <ele>741</ele>
        <time>2022-06-12T08:37:28.323Z</time>
      </trkpt>
      <trkpt lat="44.25659" lon="2.54597">
        <ele>741</ele>
        <time>2022-06-12T08:37:29.323Z</time>
      </trkpt>
      <trkpt lat="44.25661" lon="2.54598">
        <ele>741</ele>
        <time>2022-06-12T08:37:30.323Z</time>
      </trkpt>
      <trkpt lat="44.25662" lon="2.54598">
        <ele>741</ele>
        <time>2022-06-12T08:37:31.323Z</time>
      </trkpt>
      <trkpt lat="44.25663" lon="2.54598">
        <ele>741</ele>
        <time>2022-06-12T08:37:32.323Z</time>
      </trkpt>
      <trkpt lat="44.25664" lon="2.54599">
        <ele>741</ele>
        <time>2022-06-12T08:37:33.323Z</time>
      </trkpt>
      <trkpt lat="44.25665" lon="2.54599">
        <ele>741</ele>
        <time>2022-06-12T08:37:34.323Z</time>
      </trkpt>
      <trkpt lat="44.25667" lon="2.546">
        <ele>741</ele>
        <time>2022-06-12T08:37:35.323Z</time>
      </trkpt>
      <trkpt lat="44.25668" lon="2.546">
        <ele>741</ele>
        <time>2022-06-12T08:37:36.323Z</time>
      </trkpt>
      <trkpt lat="44.25669" lon="2.546">
        <ele>741</ele>
        <time>2022-06-12T08:37:37.323Z</time>
      </trkpt>
      <trkpt lat="44.25671" lon="2.54601">
        <ele>741</ele>
        <time>2022-06-12T08:37:38.323Z</time>
      </trkpt>
      <trkpt lat="44.25672" lon="2.54601">
        <ele>741</ele>
        <time>2022-06-12T08:37:39.323Z</time>
      </trkpt>
      <trkpt lat="44.25673" lon="2.54602">
        <ele>741</ele>
        <time>2022-06-12T08:37:40.323Z</time>
      </trkpt>
      <trkpt lat="44.25674" lon="2.54602">
        <ele>741</ele>
        <time>2022-06-12T08:37:41.323Z</time>
      </trkpt>
      <trkpt lat="44.25676" lon="2.54602">
        <ele>741</ele>
        <time>2022-06-12T08:37:42.323Z</time>
      </trkpt>
      <trkpt lat="44.25677" lon="2.54603">
        <ele>741</ele>
        <time>2022-06-12T08:37:43.323Z</time>
      </trkpt>
      <trkpt lat="44.25678" lon="2.54603">
        <ele>741</ele>
        <time>2022-06-12T08:37:44.323Z</time>
      </trkpt>
      <trkpt lat="44.25679" lon="2.54603">
        <ele>741</ele>
        <time>2022-06-12T08:37:45.323Z</time>
      </trkpt>
      <trkpt lat="44.2568" lon="2.54604">
        <ele>741</ele>
        <time>2022-06-12T08:37:46.323Z</time>
      </trkpt>
      <trkpt lat="44.25681" lon="2.54604">
        <ele>741</ele>
        <time>2022-06-12T08:37:47.323Z</time>
      </trkpt>
      <trkpt lat="44.25683" lon="2.54604">
        <ele>741</ele>
        <time>2022-06-12T08:37:48.323Z</time>
      </trkpt>
      <trkpt lat="44.25684" lon="2.54605">
        <ele>741</ele>
        <time>2022-06-12T08:37:49.323Z</time>
      </trkpt>
      <trkpt lat="44.25685" lon="2.54605">
        <ele>741</ele>
        <time>2022-06-12T08:37:50.323Z</time>
      </trkpt>
      <trkpt lat="44.25686" lon="2.54606">
        <ele>741</ele>
        <time>2022-06-12T08:37:51.323Z</time>
      </trkpt>
      <trkpt lat="44.25688" lon="2.54606">
        <ele>741</ele>
        <time>2022-06-12T08:37:52.323Z</time>
      </trkpt>
      <trkpt lat="44.25689" lon="2.54606">
        <ele>741</ele>
        <time>2022-06-12T08:37:53.323Z</time>
      </trkpt>
      <trkpt lat="44.2569" lon="2.54607">
        <ele>741</ele>
        <time>2022-06-12T08:37:54.323Z</time>
      </trkpt>
      <trkpt lat="44.25691" lon="2.54607">
        <ele>741</ele>
        <time>2022-06-12T08:37:55.323Z</time>
      </trkpt>
      <trkpt lat="44.25692" lon="2.54607">
        <ele>741</ele>
        <time>2022-06-12T08:37:56.323Z</time>
      </trkpt>
      <trkpt lat="44.25694" lon="2.54608">
        <ele>741</ele>
        <time>2022-06-12T08:37:57.323Z</time>
      </trkpt>
      <trkpt lat="44.25695" lon="2.54608">
        <ele>741</ele>
        <time>2022-06-12T08:37:58.323Z</time>
      </trkpt>
      <trkpt lat="44.25696" lon="2.54608">
        <ele>741</ele>
        <time>2022-06-12T08:37:59.323Z</time>
      </trkpt>
      <trkpt lat="44.25697" lon="2.54609">
        <ele>741</ele>
        <time>2022-06-12T08:38:00.323Z</time>
      </trkpt>
      <trkpt lat="44.25699" lon="2.54609">
        <ele>741</ele>
        <time>2022-06-12T08:38:01.323Z</time>
      </trkpt>
      <trkpt lat="44.257" lon="2.5461">
        <ele>741</ele>
        <time>2022-06-12T08:38:02.323Z</time>
      </trkpt>
      <trkpt lat="44.25701" lon="2.5461">
        <ele>742</ele>
        <time>2022-06-12T08:38:03.323Z</time>
      </trkpt>
      <trkpt lat="44.25702" lon="2.5461">
        <ele>742</ele>
        <time>2022-06-12T08:38:04.323Z</time>
      </trkpt>
      <trkpt lat="44.25703" lon="2.54611">
        <ele>742</ele>
        <time>2022-06-12T08:38:05.323Z</time>
      </trkpt>
      <trkpt lat="44.25704" lon="2.54611">
        <ele>742</ele>
        <time>2022-06-12T08:38:06.323Z</time>
      </trkpt>
      <trkpt lat="44.25706" lon="2.54612">
        <ele>742</ele>
        <time>2022-06-12T08:38:07.323Z</time>
      </trkpt>
      <trkpt lat="44.25707" lon="2.54612">
        <ele>742</ele>
        <time>2022-06-12T08:38:08.323Z</time>
      </trkpt>
      <trkpt lat="44.25708" lon="2.54612">
        <ele>742</ele>
        <time>2022-06-12T08:38:09.323Z</time>
      </trkpt>
      <trkpt lat="44.25709" lon="2.54613">
        <ele>742</ele>
        <time>2022-06-12T08:38:10.323Z</time>
      </trkpt>
      <trkpt lat="44.25711" lon="2.54613">
        <ele>742</ele>
        <time>2022-06-12T08:38:11.323Z</time>
      </trkpt>
      <trkpt lat="44.25712" lon="2.54613">
        <ele>742</ele>
        <time>2022-06-12T08:38:12.323Z</time>
      </trkpt>
      <trkpt lat="44.25713" lon="2.54614">
        <ele>742</ele>
        <time>2022-06-12T08:38:13.323Z</time>
      </trkpt>
      <trkpt lat="44.25714" lon="2.54614">
        <ele>742</ele>
        <time>2022-06-12T08:38:14.323Z</time>
      </trkpt>
      <trkpt lat="44.25716" lon="2.54614">
        <ele>741</ele>
        <time>2022-06-12T08:38:15.323Z</time>
      </trkpt>
      <trkpt lat="44.25717" lon="2.54615">
        <ele>741</ele>
        <time>2022-06-12T08:38:16.323Z</time>
      </trkpt>
      <trkpt lat="44.25718" lon="2.54615">
        <ele>741</ele>
        <time>2022-06-12T08:38:17.323Z</time>
      </trkpt>
      <trkpt lat="44.2572" lon="2.54615">
        <ele>741</ele>
        <time>2022-06-12T08:38:18.323Z</time>
      </trkpt>
      <trkpt lat="44.25721" lon="2.54616">
        <ele>741</ele>
        <time>2022-06-12T08:38:19.323Z</time>
      </trkpt>
      <trkpt lat="44.25722" lon="2.54616">
        <ele>741</ele>
        <time>2022-06-12T08:38:20.323Z</time>
      </trkpt>
      <trkpt lat="44.25723" lon="2.54616">
        <ele>741</ele>
        <time>2022-06-12T08:38:21.323Z</time>
      </trkpt>
      <trkpt lat="44.25724" lon="2.54616">
        <ele>741</ele>
        <time>2022-06-12T08:38:22.323Z</time>
      </trkpt>
      <trkpt lat="44.25725" lon="2.54617">
        <ele>741</ele>
        <time>2022-06-12T08:38:23.323Z</time>
      </trkpt>
      <trkpt lat="44.25726" lon="2.54617">
        <ele>741</ele>
        <time>2022-06-12T08:38:24.323Z</time>
      </trkpt>
      <trkpt lat="44.25727" lon="2.54617">
        <ele>741</ele>
        <time>2022-06-12T08:38:25.323Z</time>
      </trkpt>
      <trkpt lat="44.25728" lon="2.54617">
        <ele>741</ele>
        <time>2022-06-12T08:38:26.323Z</time>
      </trkpt>
      <trkpt lat="44.25729" lon="2.54618">
        <ele>741</ele>
        <time>2022-06-12T08:38:27.323Z</time>
      </trkpt>
      <trkpt lat="44.25731" lon="2.54618">
        <ele>741</ele>
        <time>2022-06-12T08:38:28.323Z</time>
      </trkpt>
      <trkpt lat="44.25732" lon="2.54618">
        <ele>741</ele>
        <time>2022-06-12T08:38:29.323Z</time>
      </trkpt>
      <trkpt lat="44.25733" lon="2.54618">
        <ele>741</ele>
        <time>2022-06-12T08:38:30.323Z</time>
      </trkpt>
      <trkpt lat="44.25734" lon="2.54619">
        <ele>741</ele>
        <time>2022-06-12T08:38:31.323Z</time>
      </trkpt>
      <trkpt lat="44.25735" lon="2.54619">
        <ele>741</ele>
        <time>2022-06-12T08:38:32.323Z</time>
      </trkpt>
      <trkpt lat="44.25736" lon="2.54619">
        <ele>741</ele>
        <time>2022-06-12T08:38:33.323Z</time>
      </trkpt>
      <trkpt lat="44.25737" lon="2.54619">
        <ele>741</ele>
        <time>2022-06-12T08:38:34.323Z</time>
      </trkpt>
      <trkpt lat="44.25739" lon="2.5462">
        <ele>741</ele>
        <time>2022-06-12T08:38:35.323Z</time>
      </trkpt>
      <trkpt lat="44.2574" lon="2.5462">
        <ele>741</ele>
        <time>2022-06-12T08:38:36.323Z</time>
      </trkpt>
      <trkpt lat="44.25741" lon="2.5462">
        <ele>741</ele>
        <time>2022-06-12T08:38:37.323Z</time>
      </trkpt>
      <trkpt lat="44.25742" lon="2.54619">
        <ele>741</ele>
        <time>2022-06-12T08:38:38.323Z</time>
      </trkpt>
      <trkpt lat="44.25744" lon="2.5462">
        <ele>740</ele>
        <time>2022-06-12T08:38:39.323Z</time>
      </trkpt>
      <trkpt lat="44.25745" lon="2.54619">
        <ele>740</ele>
        <time>2022-06-12T08:38:40.323Z</time>
      </trkpt>
      <trkpt lat="44.25746" lon="2.54619">
        <ele>740</ele>
        <time>2022-06-12T08:38:41.323Z</time>
      </trkpt>
      <trkpt lat="44.25747" lon="2.54619">
        <ele>740</ele>
        <time>2022-06-12T08:38:42.323Z</time>
      </trkpt>
      <trkpt lat="44.25748" lon="2.54618">
        <ele>740</ele>
        <time>2022-06-12T08:38:43.323Z</time>
      </trkpt>
      <trkpt lat="44.25748" lon="2.54617">
        <ele>740</ele>
        <time>2022-06-12T08:38:44.323Z</time>
      </trkpt>
      <trkpt lat="44.25749" lon="2.54616">
        <ele>740</ele>
        <time>2022-06-12T08:38:45.323Z</time>
      </trkpt>
      <trkpt lat="44.2575" lon="2.54615">
        <ele>740</ele>
        <time>2022-06-12T08:38:46.323Z</time>
      </trkpt>
      <trkpt lat="44.25751" lon="2.54614">
        <ele>740</ele>
        <time>2022-06-12T08:38:47.323Z</time>
      </trkpt>
      <trkpt lat="44.25751" lon="2.54613">
        <ele>740</ele>
        <time>2022-06-12T08:38:48.323Z</time>
      </trkpt>
      <trkpt lat="44.25752" lon="2.54611">
        <ele>740</ele>
        <time>2022-06-12T08:38:49.323Z</time>
      </trkpt>
      <trkpt lat="44.25752" lon="2.5461">
        <ele>740</ele>
        <time>2022-06-12T08:38:50.323Z</time>
      </trkpt>
      <trkpt lat="44.25753" lon="2.54609">
        <ele>740</ele>
        <time>2022-06-12T08:38:51.323Z</time>
      </trkpt>
      <trkpt lat="44.25753" lon="2.54609">
        <ele>740</ele>
        <time>2022-06-12T08:38:52.323Z</time>
      </trkpt>
      <trkpt lat="44.25754" lon="2.54608">
        <ele>740</ele>
        <time>2022-06-12T08:38:53.323Z</time>
      </trkpt>
      <trkpt lat="44.25754" lon="2.54606">
        <ele>740</ele>
        <time>2022-06-12T08:38:54.323Z</time>
      </trkpt>
      <trkpt lat="44.25754" lon="2.54606">
        <ele>740</ele>
        <time>2022-06-12T08:38:55.323Z</time>
      </trkpt>
      <trkpt lat="44.25754" lon="2.54605">
        <ele>740</ele>
        <time>2022-06-12T08:38:56.323Z</time>
      </trkpt>
      <trkpt lat="44.25754" lon="2.54604">
        <ele>740</ele>
        <time>2022-06-12T08:38:57.323Z</time>
      </trkpt>
      <trkpt lat="44.25755" lon="2.54603">
        <ele>740</ele>
        <time>2022-06-12T08:38:58.323Z</time>
      </trkpt>
      <trkpt lat="44.25755" lon="2.54602">
        <ele>740</ele>
        <time>2022-06-12T08:38:59.323Z</time>
      </trkpt>
      <trkpt lat="44.25755" lon="2.54601">
        <ele>740</ele>
        <time>2022-06-12T08:39:00.323Z</time>
      </trkpt>
      <trkpt lat="44.25755" lon="2.54601">
        <ele>740</ele>
        <time>2022-06-12T08:39:01.323Z</time>
      </trkpt>
      <trkpt lat="44.25755" lon="2.54601">
        <ele>740</ele>
        <time>2022-06-12T08:39:02.323Z</time>
      </trkpt>
      <trkpt lat="44.25755" lon="2.54601">
        <ele>740</ele>
        <time>2022-06-12T08:39:03.323Z</time>
      </trkpt>
      <trkpt lat="44.25755" lon="2.54601">
        <ele>740</ele>
        <time>2022-06-12T08:39:04.323Z</time>
      </trkpt>
      <trkpt lat="44.25756" lon="2.54598">
        <ele>740</ele>
        <time>2022-06-12T08:39:22.335Z</time>
      </trkpt>
      <trkpt lat="44.25756" lon="2.54598">
        <ele>740</ele>
        <time>2022-06-12T08:39:23.335Z</time>
      </trkpt>
      <trkpt lat="44.25757" lon="2.54596">
        <ele>740</ele>
        <time>2022-06-12T08:39:27.224Z</time>
      </trkpt>
      <trkpt lat="44.25757" lon="2.54596">
        <ele>740</ele>
        <time>2022-06-12T08:39:28.224Z</time>
      </trkpt>
      <trkpt lat="44.25758" lon="2.54596">
        <ele>740</ele>
        <time>2022-06-12T08:39:29.224Z</time>
      </trkpt>
      <trkpt lat="44.25758" lon="2.54596">
        <ele>741</ele>
        <time>2022-06-12T08:39:30.224Z</time>
      </trkpt>
      <trkpt lat="44.25758" lon="2.54595">
        <ele>742</ele>
        <time>2022-06-12T08:43:16.242Z</time>
      </trkpt>
      <trkpt lat="44.25758" lon="2.54595">
        <ele>742</ele>
        <time>2022-06-12T08:43:17.242Z</time>
      </trkpt>
      <trkpt lat="44.25758" lon="2.54595">
        <ele>742</ele>
        <time>2022-06-12T08:43:18.242Z</time>
      </trkpt>
      <trkpt lat="44.25758" lon="2.54595">
        <ele>742</ele>
        <time>2022-06-12T08:43:19.242Z</time>
      </trkpt>
      <trkpt lat="44.25758" lon="2.54595">
        <ele>742</ele>
        <time>2022-06-12T08:43:20.242Z</time>
      </trkpt>
      <trkpt lat="44.25757" lon="2.54596">
        <ele>742</ele>
        <time>2022-06-12T08:47:32.255Z</time>
      </trkpt>
      <trkpt lat="44.25757" lon="2.54596">
        <ele>742</ele>
        <time>2022-06-12T08:47:33.255Z</time>
      </trkpt>
      <trkpt lat="44.25757" lon="2.54597">
        <ele>742</ele>
        <time>2022-06-12T08:47:34.255Z</time>
      </trkpt>
      <trkpt lat="44.25757" lon="2.54597">
        <ele>742</ele>
        <time>2022-06-12T08:47:35.255Z</time>
      </trkpt>
      <trkpt lat="44.25757" lon="2.54597">
        <ele>742</ele>
        <time>2022-06-12T08:47:36.255Z</time>
      </trkpt>
      <trkpt lat="44.25755" lon="2.54593">
        <ele>742</ele>
        <time>2022-06-12T08:48:54.269Z</time>
      </trkpt>
      <trkpt lat="44.25756" lon="2.54593">
        <ele>742</ele>
        <time>2022-06-12T08:48:55.269Z</time>
      </trkpt>
      <trkpt lat="44.25756" lon="2.54592">
        <ele>742</ele>
        <time>2022-06-12T08:48:58.547Z</time>
      </trkpt>
      <trkpt lat="44.25756" lon="2.54591">
        <ele>742</ele>
        <time>2022-06-12T08:48:59.547Z</time>
      </trkpt>
      <trkpt lat="44.25756" lon="2.5459">
        <ele>742</ele>
        <time>2022-06-12T08:49:00.547Z</time>
      </trkpt>
      <trkpt lat="44.25756" lon="2.54589">
        <ele>742</ele>
        <time>2022-06-12T08:49:01.547Z</time>
      </trkpt>
      <trkpt lat="44.25757" lon="2.54588">
        <ele>742</ele>
        <time>2022-06-12T08:49:02.547Z</time>
      </trkpt>
      <trkpt lat="44.25757" lon="2.54587">
        <ele>742</ele>
        <time>2022-06-12T08:49:03.547Z</time>
      </trkpt>
      <trkpt lat="44.25757" lon="2.54586">
        <ele>742</ele>
        <time>2022-06-12T08:49:04.547Z</time>
      </trkpt>
      <trkpt lat="44.25757" lon="2.54584">
        <ele>742</ele>
        <time>2022-06-12T08:49:05.547Z</time>
      </trkpt>
      <trkpt lat="44.25757" lon="2.54583">
        <ele>741</ele>
        <time>2022-06-12T08:49:06.547Z</time>
      </trkpt>
      <trkpt lat="44.25758" lon="2.54582">
        <ele>741</ele>
        <time>2022-06-12T08:49:07.547Z</time>
      </trkpt>
      <trkpt lat="44.25758" lon="2.5458">
        <ele>741</ele>
        <time>2022-06-12T08:49:08.547Z</time>
      </trkpt>
      <trkpt lat="44.25758" lon="2.54579">
        <ele>741</ele>
        <time>2022-06-12T08:49:09.547Z</time>
      </trkpt>
      <trkpt lat="44.25758" lon="2.54578">
        <ele>741</ele>
        <time>2022-06-12T08:49:10.547Z</time>
      </trkpt>
      <trkpt lat="44.25759" lon="2.54577">
        <ele>741</ele>
        <time>2022-06-12T08:49:11.547Z</time>
      </trkpt>
      <trkpt lat="44.25759" lon="2.54576">
        <ele>741</ele>
        <time>2022-06-12T08:49:12.547Z</time>
      </trkpt>
      <trkpt lat="44.25759" lon="2.54575">
        <ele>740</ele>
        <time>2022-06-12T08:49:13.547Z</time>
      </trkpt>
      <trkpt lat="44.25759" lon="2.54574">
        <ele>740</ele>
        <time>2022-06-12T08:49:14.547Z</time>
      </trkpt>
      <trkpt lat="44.25759" lon="2.54572">
        <ele>740</ele>
        <time>2022-06-12T08:49:15.547Z</time>
      </trkpt>
      <trkpt lat="44.2576" lon="2.54571">
        <ele>740</ele>
        <time>2022-06-12T08:49:16.547Z</time>
      </trkpt>
      <trkpt lat="44.2576" lon="2.5457">
        <ele>740</ele>
        <time>2022-06-12T08:49:17.547Z</time>
      </trkpt>
      <trkpt lat="44.2576" lon="2.54568">
        <ele>740</ele>
        <time>2022-06-12T08:49:18.547Z</time>
      </trkpt>
      <trkpt lat="44.2576" lon="2.54567">
        <ele>740</ele>
        <time>2022-06-12T08:49:19.547Z</time>
      </trkpt>
      <trkpt lat="44.2576" lon="2.54566">
        <ele>740</ele>
        <time>2022-06-12T08:49:20.547Z</time>
      </trkpt>
      <trkpt lat="44.2576" lon="2.54565">
        <ele>740</ele>
        <time>2022-06-12T08:49:21.547Z</time>
      </trkpt>
      <trkpt lat="44.25761" lon="2.54563">
        <ele>740</ele>
        <time>2022-06-12T08:49:22.547Z</time>
      </trkpt>
      <trkpt lat="44.25761" lon="2.54563">
        <ele>740</ele>
        <time>2022-06-12T08:49:23.547Z</time>
      </trkpt>
      <trkpt lat="44.25761" lon="2.54563">
        <ele>740</ele>
        <time>2022-06-12T08:49:24.547Z</time>
      </trkpt>
      <trkpt lat="44.25761" lon="2.54563">
        <ele>740</ele>
        <time>2022-06-12T08:49:25.547Z</time>
      </trkpt>
      <trkpt lat="44.25761" lon="2.54564">
        <ele>740</ele>
        <time>2022-06-12T08:49:26.547Z</time>
      </trkpt>
      <trkpt lat="44.25761" lon="2.54565">
        <ele>740</ele>
        <time>2022-06-12T08:49:27.547Z</time>
      </trkpt>
      <trkpt lat="44.25761" lon="2.54566">
        <ele>740</ele>
        <time>2022-06-12T08:49:28.547Z</time>
      </trkpt>
      <trkpt lat="44.25761" lon="2.54567">
        <ele>740</ele>
        <time>2022-06-12T08:49:29.547Z</time>
      </trkpt>
      <trkpt lat="44.2576" lon="2.54568">
        <ele>740</ele>
        <time>2022-06-12T08:49:30.547Z</time>
      </trkpt>
      <trkpt lat="44.2576" lon="2.54569">
        <ele>740</ele>
        <time>2022-06-12T08:49:31.547Z</time>
      </trkpt>
      <trkpt lat="44.2576" lon="2.5457">
        <ele>740</ele>
        <time>2022-06-12T08:49:32.547Z</time>
      </trkpt>
      <trkpt lat="44.2576" lon="2.54571">
        <ele>740</ele>
        <time>2022-06-12T08:49:33.547Z</time>
      </trkpt>
      <trkpt lat="44.2576" lon="2.54572">
        <ele>740</ele>
        <time>2022-06-12T08:49:34.547Z</time>
      </trkpt>
      <trkpt lat="44.2576" lon="2.54574">
        <ele>740</ele>
        <time>2022-06-12T08:49:35.547Z</time>
      </trkpt>
      <trkpt lat="44.2576" lon="2.54575">
        <ele>740</ele>
        <time>2022-06-12T08:49:36.547Z</time>
      </trkpt>
      <trkpt lat="44.2576" lon="2.54577">
        <ele>740</ele>
        <time>2022-06-12T08:49:37.547Z</time>
      </trkpt>
      <trkpt lat="44.2576" lon="2.54578">
        <ele>740</ele>
        <time>2022-06-12T08:49:38.547Z</time>
      </trkpt>
      <trkpt lat="44.2576" lon="2.5458">
        <ele>740</ele>
        <time>2022-06-12T08:49:39.547Z</time>
      </trkpt>
      <trkpt lat="44.2576" lon="2.54581">
        <ele>740</ele>
        <time>2022-06-12T08:49:40.547Z</time>
      </trkpt>
      <trkpt lat="44.2576" lon="2.54583">
        <ele>740</ele>
        <time>2022-06-12T08:49:41.547Z</time>
      </trkpt>
      <trkpt lat="44.2576" lon="2.54585">
        <ele>740</ele>
        <time>2022-06-12T08:49:42.547Z</time>
      </trkpt>
      <trkpt lat="44.2576" lon="2.54587">
        <ele>740</ele>
        <time>2022-06-12T08:49:43.547Z</time>
      </trkpt>
      <trkpt lat="44.2576" lon="2.54589">
        <ele>740</ele>
        <time>2022-06-12T08:49:44.547Z</time>
      </trkpt>
      <trkpt lat="44.25761" lon="2.54591">
        <ele>740</ele>
        <time>2022-06-12T08:49:45.547Z</time>
      </trkpt>
      <trkpt lat="44.25761" lon="2.54592">
        <ele>740</ele>
        <time>2022-06-12T08:49:46.547Z</time>
      </trkpt>
      <trkpt lat="44.25761" lon="2.54592">
        <ele>740</ele>
        <time>2022-06-12T08:49:47.547Z</time>
      </trkpt>
      <trkpt lat="44.25761" lon="2.54592">
        <ele>740</ele>
        <time>2022-06-12T08:49:48.547Z</time>
      </trkpt>
      <trkpt lat="44.25761" lon="2.54591">
        <ele>740</ele>
        <time>2022-06-12T08:49:49.547Z</time>
      </trkpt>
      <trkpt lat="44.2576" lon="2.5459">
        <ele>740</ele>
        <time>2022-06-12T08:49:50.547Z</time>
      </trkpt>
      <trkpt lat="44.2576" lon="2.54589">
        <ele>740</ele>
        <time>2022-06-12T08:49:51.547Z</time>
      </trkpt>
      <trkpt lat="44.2576" lon="2.54588">
        <ele>740</ele>
        <time>2022-06-12T08:49:52.547Z</time>
      </trkpt>
      <trkpt lat="44.2576" lon="2.54587">
        <ele>740</ele>
        <time>2022-06-12T08:49:53.547Z</time>
      </trkpt>
      <trkpt lat="44.25761" lon="2.54585">
        <ele>739</ele>
        <time>2022-06-12T08:49:54.547Z</time>
      </trkpt>
      <trkpt lat="44.25761" lon="2.54584">
        <ele>739</ele>
        <time>2022-06-12T08:49:55.547Z</time>
      </trkpt>
      <trkpt lat="44.25761" lon="2.54582">
        <ele>740</ele>
        <time>2022-06-12T08:49:56.547Z</time>
      </trkpt>
      <trkpt lat="44.25761" lon="2.5458">
        <ele>740</ele>
        <time>2022-06-12T08:49:57.547Z</time>
      </trkpt>
      <trkpt lat="44.25761" lon="2.54579">
        <ele>740</ele>
        <time>2022-06-12T08:49:58.547Z</time>
      </trkpt>
      <trkpt lat="44.25761" lon="2.54577">
        <ele>740</ele>
        <time>2022-06-12T08:49:59.547Z</time>
      </trkpt>
      <trkpt lat="44.25762" lon="2.54576">
        <ele>740</ele>
        <time>2022-06-12T08:50:00.547Z</time>
      </trkpt>
      <trkpt lat="44.25762" lon="2.54574">
        <ele>740</ele>
        <time>2022-06-12T08:50:01.547Z</time>
      </trkpt>
      <trkpt lat="44.25762" lon="2.54572">
        <ele>740</ele>
        <time>2022-06-12T08:50:02.547Z</time>
      </trkpt>
      <trkpt lat="44.25762" lon="2.5457">
        <ele>740</ele>
        <time>2022-06-12T08:50:03.547Z</time>
      </trkpt>
      <trkpt lat="44.25763" lon="2.54569">
        <ele>740</ele>
        <time>2022-06-12T08:50:04.547Z</time>
      </trkpt>
      <trkpt lat="44.25763" lon="2.54567">
        <ele>740</ele>
        <time>2022-06-12T08:50:05.547Z</time>
      </trkpt>
      <trkpt lat="44.25763" lon="2.54565">
        <ele>740</ele>
        <time>2022-06-12T08:50:06.547Z</time>
      </trkpt>
      <trkpt lat="44.25764" lon="2.54564">
        <ele>740</ele>
        <time>2022-06-12T08:50:07.547Z</time>
      </trkpt>
      <trkpt lat="44.25764" lon="2.54562">
        <ele>740</ele>
        <time>2022-06-12T08:50:08.547Z</time>
      </trkpt>
      <trkpt lat="44.25764" lon="2.54561">
        <ele>740</ele>
        <time>2022-06-12T08:50:09.547Z</time>
      </trkpt>
      <trkpt lat="44.25764" lon="2.54559">
        <ele>740</ele>
        <time>2022-06-12T08:50:10.547Z</time>
      </trkpt>
      <trkpt lat="44.25765" lon="2.54557">
        <ele>740</ele>
        <time>2022-06-12T08:50:11.547Z</time>
      </trkpt>
      <trkpt lat="44.25765" lon="2.54556">
        <ele>740</ele>
        <time>2022-06-12T08:50:12.547Z</time>
      </trkpt>
      <trkpt lat="44.25765" lon="2.54554">
        <ele>740</ele>
        <time>2022-06-12T08:50:13.547Z</time>
      </trkpt>
      <trkpt lat="44.25765" lon="2.54552">
        <ele>740</ele>
        <time>2022-06-12T08:50:14.547Z</time>
      </trkpt>
      <trkpt lat="44.25765" lon="2.54551">
        <ele>740</ele>
        <time>2022-06-12T08:50:15.547Z</time>
      </trkpt>
      <trkpt lat="44.25766" lon="2.54549">
        <ele>740</ele>
        <time>2022-06-12T08:50:16.547Z</time>
      </trkpt>
      <trkpt lat="44.25766" lon="2.54547">
        <ele>740</ele>
        <time>2022-06-12T08:50:17.547Z</time>
      </trkpt>
      <trkpt lat="44.25766" lon="2.54545">
        <ele>741</ele>
        <time>2022-06-12T08:50:18.547Z</time>
      </trkpt>
      <trkpt lat="44.25766" lon="2.54543">
        <ele>741</ele>
        <time>2022-06-12T08:50:19.547Z</time>
      </trkpt>
      <trkpt lat="44.25767" lon="2.54541">
        <ele>741</ele>
        <time>2022-06-12T08:50:20.547Z</time>
      </trkpt>
      <trkpt lat="44.25767" lon="2.54539">
        <ele>741</ele>
        <time>2022-06-12T08:50:21.547Z</time>
      </trkpt>
      <trkpt lat="44.25768" lon="2.54537">
        <ele>741</ele>
        <time>2022-06-12T08:50:22.547Z</time>
      </trkpt>
      <trkpt lat="44.2577" lon="2.54536">
        <ele>741</ele>
        <time>2022-06-12T08:50:23.547Z</time>
      </trkpt>
      <trkpt lat="44.25771" lon="2.54536">
        <ele>741</ele>
        <time>2022-06-12T08:50:24.547Z</time>
      </trkpt>
      <trkpt lat="44.25772" lon="2.54536">
        <ele>741</ele>
        <time>2022-06-12T08:50:25.547Z</time>
      </trkpt>
      <trkpt lat="44.25773" lon="2.54536">
        <ele>742</ele>
        <time>2022-06-12T08:50:26.547Z</time>
      </trkpt>
      <trkpt lat="44.25775" lon="2.54536">
        <ele>742</ele>
        <time>2022-06-12T08:50:27.547Z</time>
      </trkpt>
      <trkpt lat="44.25776" lon="2.54536">
        <ele>742</ele>
        <time>2022-06-12T08:50:28.547Z</time>
      </trkpt>
      <trkpt lat="44.25777" lon="2.54537">
        <ele>742</ele>
        <time>2022-06-12T08:50:29.547Z</time>
      </trkpt>
      <trkpt lat="44.25778" lon="2.54538">
        <ele>743</ele>
        <time>2022-06-12T08:50:30.547Z</time>
      </trkpt>
      <trkpt lat="44.25779" lon="2.54539">
        <ele>743</ele>
        <time>2022-06-12T08:50:31.547Z</time>
      </trkpt>
      <trkpt lat="44.2578" lon="2.5454">
        <ele>743</ele>
        <time>2022-06-12T08:50:32.547Z</time>
      </trkpt>
      <trkpt lat="44.25781" lon="2.54541">
        <ele>743</ele>
        <time>2022-06-12T08:50:33.547Z</time>
      </trkpt>
      <trkpt lat="44.25782" lon="2.54541">
        <ele>743</ele>
        <time>2022-06-12T08:50:34.547Z</time>
      </trkpt>
      <trkpt lat="44.25784" lon="2.54542">
        <ele>743</ele>
        <time>2022-06-12T08:50:35.547Z</time>
      </trkpt>
      <trkpt lat="44.25785" lon="2.54543">
        <ele>743</ele>
        <time>2022-06-12T08:50:36.547Z</time>
      </trkpt>
      <trkpt lat="44.25786" lon="2.54544">
        <ele>743</ele>
        <time>2022-06-12T08:50:37.547Z</time>
      </trkpt>
      <trkpt lat="44.25787" lon="2.54544">
        <ele>743</ele>
        <time>2022-06-12T08:50:38.547Z</time>
      </trkpt>
      <trkpt lat="44.25789" lon="2.54545">
        <ele>743</ele>
        <time>2022-06-12T08:50:39.547Z</time>
      </trkpt>
      <trkpt lat="44.2579" lon="2.54546">
        <ele>743</ele>
        <time>2022-06-12T08:50:40.547Z</time>
      </trkpt>
      <trkpt lat="44.25791" lon="2.54547">
        <ele>743</ele>
        <time>2022-06-12T08:50:41.547Z</time>
      </trkpt>
      <trkpt lat="44.25792" lon="2.54548">
        <ele>744</ele>
        <time>2022-06-12T08:50:42.547Z</time>
      </trkpt>
      <trkpt lat="44.25793" lon="2.54549">
        <ele>744</ele>
        <time>2022-06-12T08:50:43.547Z</time>
      </trkpt>
      <trkpt lat="44.25795" lon="2.5455">
        <ele>744</ele>
        <time>2022-06-12T08:50:44.547Z</time>
      </trkpt>
      <trkpt lat="44.25796" lon="2.54551">
        <ele>744</ele>
        <time>2022-06-12T08:50:45.547Z</time>
      </trkpt>
      <trkpt lat="44.25797" lon="2.54552">
        <ele>744</ele>
        <time>2022-06-12T08:50:46.547Z</time>
      </trkpt>
      <trkpt lat="44.25798" lon="2.54553">
        <ele>744</ele>
        <time>2022-06-12T08:50:47.547Z</time>
      </trkpt>
      <trkpt lat="44.25799" lon="2.54555">
        <ele>744</ele>
        <time>2022-06-12T08:50:48.547Z</time>
      </trkpt>
      <trkpt lat="44.258" lon="2.54556">
        <ele>744</ele>
        <time>2022-06-12T08:50:49.547Z</time>
      </trkpt>
      <trkpt lat="44.25802" lon="2.54557">
        <ele>744</ele>
        <time>2022-06-12T08:50:50.547Z</time>
      </trkpt>
      <trkpt lat="44.25803" lon="2.54559">
        <ele>744</ele>
        <time>2022-06-12T08:50:51.547Z</time>
      </trkpt>
      <trkpt lat="44.25804" lon="2.5456">
        <ele>744</ele>
        <time>2022-06-12T08:50:52.547Z</time>
      </trkpt>
      <trkpt lat="44.25805" lon="2.54561">
        <ele>744</ele>
        <time>2022-06-12T08:50:53.547Z</time>
      </trkpt>
      <trkpt lat="44.25806" lon="2.54563">
        <ele>744</ele>
        <time>2022-06-12T08:50:54.547Z</time>
      </trkpt>
      <trkpt lat="44.25807" lon="2.54564">
        <ele>744</ele>
        <time>2022-06-12T08:50:55.547Z</time>
      </trkpt>
      <trkpt lat="44.25808" lon="2.54566">
        <ele>744</ele>
        <time>2022-06-12T08:50:56.547Z</time>
      </trkpt>
      <trkpt lat="44.25809" lon="2.54567">
        <ele>744</ele>
        <time>2022-06-12T08:50:57.547Z</time>
      </trkpt>
      <trkpt lat="44.2581" lon="2.54568">
        <ele>744</ele>
        <time>2022-06-12T08:50:58.547Z</time>
      </trkpt>
      <trkpt lat="44.25811" lon="2.5457">
        <ele>745</ele>
        <time>2022-06-12T08:50:59.547Z</time>
      </trkpt>
      <trkpt lat="44.25812" lon="2.54571">
        <ele>745</ele>
        <time>2022-06-12T08:51:00.547Z</time>
      </trkpt>
      <trkpt lat="44.25813" lon="2.54573">
        <ele>745</ele>
        <time>2022-06-12T08:51:01.547Z</time>
      </trkpt>
      <trkpt lat="44.25815" lon="2.54574">
        <ele>745</ele>
        <time>2022-06-12T08:51:02.547Z</time>
      </trkpt>
      <trkpt lat="44.25816" lon="2.54576">
        <ele>745</ele>
        <time>2022-06-12T08:51:03.547Z</time>
      </trkpt>
      <trkpt lat="44.25817" lon="2.54577">
        <ele>745</ele>
        <time>2022-06-12T08:51:04.547Z</time>
      </trkpt>
      <trkpt lat="44.25818" lon="2.54579">
        <ele>745</ele>
        <time>2022-06-12T08:51:05.547Z</time>
      </trkpt>
      <trkpt lat="44.25819" lon="2.5458">
        <ele>745</ele>
        <time>2022-06-12T08:51:06.547Z</time>
      </trkpt>
      <trkpt lat="44.2582" lon="2.54581">
        <ele>745</ele>
        <time>2022-06-12T08:51:07.547Z</time>
      </trkpt>
      <trkpt lat="44.25821" lon="2.54583">
        <ele>745</ele>
        <time>2022-06-12T08:51:08.547Z</time>
      </trkpt>
      <trkpt lat="44.25822" lon="2.54584">
        <ele>745</ele>
        <time>2022-06-12T08:51:09.547Z</time>
      </trkpt>
      <trkpt lat="44.25823" lon="2.54586">
        <ele>745</ele>
        <time>2022-06-12T08:51:10.547Z</time>
      </trkpt>
      <trkpt lat="44.25824" lon="2.54587">
        <ele>745</ele>
        <time>2022-06-12T08:51:11.547Z</time>
      </trkpt>
      <trkpt lat="44.25825" lon="2.54589">
        <ele>745</ele>
        <time>2022-06-12T08:51:12.547Z</time>
      </trkpt>
      <trkpt lat="44.25826" lon="2.5459">
        <ele>745</ele>
        <time>2022-06-12T08:51:13.547Z</time>
      </trkpt>
      <trkpt lat="44.25827" lon="2.54592">
        <ele>745</ele>
        <time>2022-06-12T08:51:14.547Z</time>
      </trkpt>
      <trkpt lat="44.25828" lon="2.54593">
        <ele>745</ele>
        <time>2022-06-12T08:51:15.547Z</time>
      </trkpt>
      <trkpt lat="44.25829" lon="2.54594">
        <ele>745</ele>
        <time>2022-06-12T08:51:16.547Z</time>
      </trkpt>
      <trkpt lat="44.2583" lon="2.54595">
        <ele>745</ele>
        <time>2022-06-12T08:51:17.547Z</time>
      </trkpt>
      <trkpt lat="44.25831" lon="2.54597">
        <ele>745</ele>
        <time>2022-06-12T08:51:18.547Z</time>
      </trkpt>
      <trkpt lat="44.25832" lon="2.54598">
        <ele>745</ele>
        <time>2022-06-12T08:51:19.547Z</time>
      </trkpt>
      <trkpt lat="44.25833" lon="2.54599">
        <ele>745</ele>
        <time>2022-06-12T08:51:20.547Z</time>
      </trkpt>
      <trkpt lat="44.25834" lon="2.54601">
        <ele>745</ele>
        <time>2022-06-12T08:51:21.547Z</time>
      </trkpt>
      <trkpt lat="44.25835" lon="2.54602">
        <ele>745</ele>
        <time>2022-06-12T08:51:22.547Z</time>
      </trkpt>
      <trkpt lat="44.25836" lon="2.54603">
        <ele>745</ele>
        <time>2022-06-12T08:51:23.547Z</time>
      </trkpt>
      <trkpt lat="44.25837" lon="2.54605">
        <ele>745</ele>
        <time>2022-06-12T08:51:24.547Z</time>
      </trkpt>
      <trkpt lat="44.25838" lon="2.54606">
        <ele>745</ele>
        <time>2022-06-12T08:51:25.547Z</time>
      </trkpt>
      <trkpt lat="44.25838" lon="2.54607">
        <ele>745</ele>
        <time>2022-06-12T08:51:26.547Z</time>
      </trkpt>
      <trkpt lat="44.25839" lon="2.54608">
        <ele>746</ele>
        <time>2022-06-12T08:51:27.547Z</time>
      </trkpt>
      <trkpt lat="44.2584" lon="2.54609">
        <ele>746</ele>
        <time>2022-06-12T08:51:28.547Z</time>
      </trkpt>
      <trkpt lat="44.25841" lon="2.54611">
        <ele>746</ele>
        <time>2022-06-12T08:51:29.547Z</time>
      </trkpt>
      <trkpt lat="44.25841" lon="2.54611">
        <ele>746</ele>
        <time>2022-06-12T08:51:30.547Z</time>
      </trkpt>
      <trkpt lat="44.25842" lon="2.54612">
        <ele>746</ele>
        <time>2022-06-12T08:51:31.547Z</time>
      </trkpt>
      <trkpt lat="44.25842" lon="2.54612">
        <ele>746</ele>
        <time>2022-06-12T08:51:32.547Z</time>
      </trkpt>
      <trkpt lat="44.25842" lon="2.54612">
        <ele>746</ele>
        <time>2022-06-12T08:51:33.547Z</time>
      </trkpt>
      <trkpt lat="44.25842" lon="2.54612">
        <ele>746</ele>
        <time>2022-06-12T08:51:34.547Z</time>
      </trkpt>
      <trkpt lat="44.25842" lon="2.54612">
        <ele>746</ele>
        <time>2022-06-12T08:51:35.547Z</time>
      </trkpt>
      <trkpt lat="44.25843" lon="2.54613">
        <ele>746</ele>
        <time>2022-06-12T08:51:49.547Z</time>
      </trkpt>
      <trkpt lat="44.25843" lon="2.54615">
        <ele>746</ele>
        <time>2022-06-12T08:51:50.547Z</time>
      </trkpt>
      <trkpt lat="44.25844" lon="2.54616">
        <ele>746</ele>
        <time>2022-06-12T08:51:51.547Z</time>
      </trkpt>
      <trkpt lat="44.25845" lon="2.54618">
        <ele>746</ele>
        <time>2022-06-12T08:51:52.547Z</time>
      </trkpt>
      <trkpt lat="44.25846" lon="2.5462">
        <ele>746</ele>
        <time>2022-06-12T08:51:53.547Z</time>
      </trkpt>
      <trkpt lat="44.25847" lon="2.54621">
        <ele>746</ele>
        <time>2022-06-12T08:51:54.547Z</time>
      </trkpt>
      <trkpt lat="44.25848" lon="2.54622">
        <ele>746</ele>
        <time>2022-06-12T08:51:55.547Z</time>
      </trkpt>
      <trkpt lat="44.25849" lon="2.54624">
        <ele>746</ele>
        <time>2022-06-12T08:51:56.547Z</time>
      </trkpt>
      <trkpt lat="44.2585" lon="2.54625">
        <ele>746</ele>
        <time>2022-06-12T08:51:57.547Z</time>
      </trkpt>
      <trkpt lat="44.25851" lon="2.54627">
        <ele>746</ele>
        <time>2022-06-12T08:51:58.547Z</time>
      </trkpt>
      <trkpt lat="44.25852" lon="2.54628">
        <ele>746</ele>
        <time>2022-06-12T08:51:59.547Z</time>
      </trkpt>
      <trkpt lat="44.25853" lon="2.5463">
        <ele>746</ele>
        <time>2022-06-12T08:52:00.547Z</time>
      </trkpt>
      <trkpt lat="44.25854" lon="2.54631">
        <ele>746</ele>
        <time>2022-06-12T08:52:01.547Z</time>
      </trkpt>
      <trkpt lat="44.25855" lon="2.54632">
        <ele>746</ele>
        <time>2022-06-12T08:52:02.547Z</time>
      </trkpt>
      <trkpt lat="44.25856" lon="2.54634">
        <ele>746</ele>
        <time>2022-06-12T08:52:03.547Z</time>
      </trkpt>
      <trkpt lat="44.25857" lon="2.54635">
        <ele>746</ele>
        <time>2022-06-12T08:52:04.547Z</time>
      </trkpt>
      <trkpt lat="44.25858" lon="2.54636">
        <ele>746</ele>
        <time>2022-06-12T08:52:05.547Z</time>
      </trkpt>
      <trkpt lat="44.2586" lon="2.54637">
        <ele>746</ele>
        <time>2022-06-12T08:52:06.547Z</time>
      </trkpt>
      <trkpt lat="44.25861" lon="2.54638">
        <ele>746</ele>
        <time>2022-06-12T08:52:07.547Z</time>
      </trkpt>
      <trkpt lat="44.25862" lon="2.54639">
        <ele>746</ele>
        <time>2022-06-12T08:52:08.547Z</time>
      </trkpt>
      <trkpt lat="44.25863" lon="2.5464">
        <ele>746</ele>
        <time>2022-06-12T08:52:09.547Z</time>
      </trkpt>
      <trkpt lat="44.25865" lon="2.5464">
        <ele>745</ele>
        <time>2022-06-12T08:52:10.547Z</time>
      </trkpt>
      <trkpt lat="44.25866" lon="2.5464">
        <ele>745</ele>
        <time>2022-06-12T08:52:11.547Z</time>
      </trkpt>
      <trkpt lat="44.25867" lon="2.54641">
        <ele>745</ele>
        <time>2022-06-12T08:52:12.547Z</time>
      </trkpt>
      <trkpt lat="44.25869" lon="2.54641">
        <ele>745</ele>
        <time>2022-06-12T08:52:13.547Z</time>
      </trkpt>
      <trkpt lat="44.2587" lon="2.5464">
        <ele>745</ele>
        <time>2022-06-12T08:52:14.547Z</time>
      </trkpt>
      <trkpt lat="44.25871" lon="2.5464">
        <ele>745</ele>
        <time>2022-06-12T08:52:15.547Z</time>
      </trkpt>
      <trkpt lat="44.25872" lon="2.5464">
        <ele>745</ele>
        <time>2022-06-12T08:52:16.547Z</time>
      </trkpt>
      <trkpt lat="44.25873" lon="2.5464">
        <ele>745</ele>
        <time>2022-06-12T08:52:17.547Z</time>
      </trkpt>
      <trkpt lat="44.25874" lon="2.5464">
        <ele>745</ele>
        <time>2022-06-12T08:52:18.547Z</time>
      </trkpt>
      <trkpt lat="44.25874" lon="2.5464">
        <ele>745</ele>
        <time>2022-06-12T08:52:19.547Z</time>
      </trkpt>
      <trkpt lat="44.25874" lon="2.5464">
        <ele>745</ele>
        <time>2022-06-12T08:52:20.547Z</time>
      </trkpt>
      <trkpt lat="44.25874" lon="2.5464">
        <ele>745</ele>
        <time>2022-06-12T08:52:21.547Z</time>
      </trkpt>
      <trkpt lat="44.25875" lon="2.5464">
        <ele>745</ele>
        <time>2022-06-12T08:52:22.547Z</time>
      </trkpt>
      <trkpt lat="44.25876" lon="2.54639">
        <ele>746</ele>
        <time>2022-06-12T08:52:54.548Z</time>
      </trkpt>
      <trkpt lat="44.25877" lon="2.54638">
        <ele>746</ele>
        <time>2022-06-12T08:52:55.548Z</time>
      </trkpt>
      <trkpt lat="44.25877" lon="2.54638">
        <ele>746</ele>
        <time>2022-06-12T08:52:56.548Z</time>
      </trkpt>
      <trkpt lat="44.25878" lon="2.54638">
        <ele>746</ele>
        <time>2022-06-12T08:52:57.548Z</time>
      </trkpt>
      <trkpt lat="44.25879" lon="2.54638">
        <ele>746</ele>
        <time>2022-06-12T08:52:58.548Z</time>
      </trkpt>
      <trkpt lat="44.2588" lon="2.54638">
        <ele>746</ele>
        <time>2022-06-12T08:52:59.548Z</time>
      </trkpt>
      <trkpt lat="44.2588" lon="2.54637">
        <ele>746</ele>
        <time>2022-06-12T08:53:00.548Z</time>
      </trkpt>
      <trkpt lat="44.25881" lon="2.54637">
        <ele>746</ele>
        <time>2022-06-12T08:53:01.548Z</time>
      </trkpt>
      <trkpt lat="44.25882" lon="2.54637">
        <ele>746</ele>
        <time>2022-06-12T08:53:02.548Z</time>
      </trkpt>
      <trkpt lat="44.25884" lon="2.54636">
        <ele>746</ele>
        <time>2022-06-12T08:53:03.548Z</time>
      </trkpt>
      <trkpt lat="44.25885" lon="2.54635">
        <ele>746</ele>
        <time>2022-06-12T08:53:04.548Z</time>
      </trkpt>
      <trkpt lat="44.25886" lon="2.54634">
        <ele>746</ele>
        <time>2022-06-12T08:53:05.548Z</time>
      </trkpt>
      <trkpt lat="44.25888" lon="2.54633">
        <ele>746</ele>
        <time>2022-06-12T08:53:06.548Z</time>
      </trkpt>
      <trkpt lat="44.25889" lon="2.54633">
        <ele>746</ele>
        <time>2022-06-12T08:53:07.548Z</time>
      </trkpt>
      <trkpt lat="44.2589" lon="2.54632">
        <ele>746</ele>
        <time>2022-06-12T08:53:08.548Z</time>
      </trkpt>
      <trkpt lat="44.25891" lon="2.54632">
        <ele>745</ele>
        <time>2022-06-12T08:53:09.548Z</time>
      </trkpt>
      <trkpt lat="44.25893" lon="2.54631">
        <ele>745</ele>
        <time>2022-06-12T08:53:10.548Z</time>
      </trkpt>
      <trkpt lat="44.25894" lon="2.5463">
        <ele>745</ele>
        <time>2022-06-12T08:53:11.548Z</time>
      </trkpt>
      <trkpt lat="44.25896" lon="2.5463">
        <ele>745</ele>
        <time>2022-06-12T08:53:12.548Z</time>
      </trkpt>
      <trkpt lat="44.25897" lon="2.54629">
        <ele>745</ele>
        <time>2022-06-12T08:53:13.548Z</time>
      </trkpt>
      <trkpt lat="44.25898" lon="2.54629">
        <ele>745</ele>
        <time>2022-06-12T08:53:14.548Z</time>
      </trkpt>
      <trkpt lat="44.25899" lon="2.54628">
        <ele>745</ele>
        <time>2022-06-12T08:53:15.548Z</time>
      </trkpt>
      <trkpt lat="44.25901" lon="2.54628">
        <ele>745</ele>
        <time>2022-06-12T08:53:16.548Z</time>
      </trkpt>
      <trkpt lat="44.25902" lon="2.54627">
        <ele>745</ele>
        <time>2022-06-12T08:53:17.548Z</time>
      </trkpt>
      <trkpt lat="44.25904" lon="2.54627">
        <ele>745</ele>
        <time>2022-06-12T08:53:18.548Z</time>
      </trkpt>
      <trkpt lat="44.25905" lon="2.54626">
        <ele>745</ele>
        <time>2022-06-12T08:53:19.548Z</time>
      </trkpt>
      <trkpt lat="44.25907" lon="2.54626">
        <ele>745</ele>
        <time>2022-06-12T08:53:20.548Z</time>
      </trkpt>
      <trkpt lat="44.25908" lon="2.54626">
        <ele>745</ele>
        <time>2022-06-12T08:53:21.548Z</time>
      </trkpt>
      <trkpt lat="44.2591" lon="2.54625">
        <ele>745</ele>
        <time>2022-06-12T08:53:22.548Z</time>
      </trkpt>
      <trkpt lat="44.25911" lon="2.54625">
        <ele>745</ele>
        <time>2022-06-12T08:53:23.548Z</time>
      </trkpt>
      <trkpt lat="44.25913" lon="2.54624">
        <ele>745</ele>
        <time>2022-06-12T08:53:24.548Z</time>
      </trkpt>
      <trkpt lat="44.25914" lon="2.54624">
        <ele>745</ele>
        <time>2022-06-12T08:53:25.548Z</time>
      </trkpt>
      <trkpt lat="44.25916" lon="2.54623">
        <ele>745</ele>
        <time>2022-06-12T08:53:26.548Z</time>
      </trkpt>
      <trkpt lat="44.25917" lon="2.54623">
        <ele>745</ele>
        <time>2022-06-12T08:53:27.548Z</time>
      </trkpt>
      <trkpt lat="44.25919" lon="2.54623">
        <ele>745</ele>
        <time>2022-06-12T08:53:28.548Z</time>
      </trkpt>
      <trkpt lat="44.2592" lon="2.54622">
        <ele>745</ele>
        <time>2022-06-12T08:53:29.548Z</time>
      </trkpt>
      <trkpt lat="44.25921" lon="2.54622">
        <ele>745</ele>
        <time>2022-06-12T08:53:30.548Z</time>
      </trkpt>
      <trkpt lat="44.25923" lon="2.54621">
        <ele>745</ele>
        <time>2022-06-12T08:53:31.548Z</time>
      </trkpt>
      <trkpt lat="44.25924" lon="2.5462">
        <ele>745</ele>
        <time>2022-06-12T08:53:32.548Z</time>
      </trkpt>
      <trkpt lat="44.25925" lon="2.5462">
        <ele>745</ele>
        <time>2022-06-12T08:53:33.548Z</time>
      </trkpt>
      <trkpt lat="44.25927" lon="2.54619">
        <ele>745</ele>
        <time>2022-06-12T08:53:34.548Z</time>
      </trkpt>
      <trkpt lat="44.25928" lon="2.54618">
        <ele>745</ele>
        <time>2022-06-12T08:53:35.548Z</time>
      </trkpt>
      <trkpt lat="44.25929" lon="2.54618">
        <ele>745</ele>
        <time>2022-06-12T08:53:36.548Z</time>
      </trkpt>
      <trkpt lat="44.25931" lon="2.54618">
        <ele>745</ele>
        <time>2022-06-12T08:53:37.548Z</time>
      </trkpt>
      <trkpt lat="44.25932" lon="2.54618">
        <ele>746</ele>
        <time>2022-06-12T08:53:38.548Z</time>
      </trkpt>
      <trkpt lat="44.25933" lon="2.54617">
        <ele>746</ele>
        <time>2022-06-12T08:53:39.548Z</time>
      </trkpt>
      <trkpt lat="44.25935" lon="2.54617">
        <ele>746</ele>
        <time>2022-06-12T08:53:40.548Z</time>
      </trkpt>
      <trkpt lat="44.25936" lon="2.54616">
        <ele>746</ele>
        <time>2022-06-12T08:53:41.548Z</time>
      </trkpt>
      <trkpt lat="44.25937" lon="2.54616">
        <ele>746</ele>
        <time>2022-06-12T08:53:42.548Z</time>
      </trkpt>
      <trkpt lat="44.25939" lon="2.54615">
        <ele>747</ele>
        <time>2022-06-12T08:53:43.548Z</time>
      </trkpt>
      <trkpt lat="44.2594" lon="2.54615">
        <ele>747</ele>
        <time>2022-06-12T08:53:44.548Z</time>
      </trkpt>
      <trkpt lat="44.25941" lon="2.54614">
        <ele>747</ele>
        <time>2022-06-12T08:53:45.548Z</time>
      </trkpt>
      <trkpt lat="44.25943" lon="2.54614">
        <ele>747</ele>
        <time>2022-06-12T08:53:46.548Z</time>
      </trkpt>
      <trkpt lat="44.25944" lon="2.54613">
        <ele>748</ele>
        <time>2022-06-12T08:53:47.548Z</time>
      </trkpt>
      <trkpt lat="44.25946" lon="2.54613">
        <ele>748</ele>
        <time>2022-06-12T08:53:48.548Z</time>
      </trkpt>
      <trkpt lat="44.25947" lon="2.54613">
        <ele>748</ele>
        <time>2022-06-12T08:53:49.548Z</time>
      </trkpt>
      <trkpt lat="44.25948" lon="2.54613">
        <ele>748</ele>
        <time>2022-06-12T08:53:50.548Z</time>
      </trkpt>
      <trkpt lat="44.2595" lon="2.54612">
        <ele>748</ele>
        <time>2022-06-12T08:53:51.548Z</time>
      </trkpt>
      <trkpt lat="44.25951" lon="2.54612">
        <ele>749</ele>
        <time>2022-06-12T08:53:52.548Z</time>
      </trkpt>
      <trkpt lat="44.25953" lon="2.54611">
        <ele>749</ele>
        <time>2022-06-12T08:53:53.548Z</time>
      </trkpt>
      <trkpt lat="44.25954" lon="2.54611">
        <ele>749</ele>
        <time>2022-06-12T08:53:54.548Z</time>
      </trkpt>
      <trkpt lat="44.25956" lon="2.5461">
        <ele>749</ele>
        <time>2022-06-12T08:53:55.548Z</time>
      </trkpt>
      <trkpt lat="44.25957" lon="2.5461">
        <ele>749</ele>
        <time>2022-06-12T08:53:56.548Z</time>
      </trkpt>
      <trkpt lat="44.25958" lon="2.54609">
        <ele>749</ele>
        <time>2022-06-12T08:53:57.548Z</time>
      </trkpt>
      <trkpt lat="44.2596" lon="2.54609">
        <ele>749</ele>
        <time>2022-06-12T08:53:58.548Z</time>
      </trkpt>
      <trkpt lat="44.25962" lon="2.54609">
        <ele>749</ele>
        <time>2022-06-12T08:53:59.548Z</time>
      </trkpt>
      <trkpt lat="44.25963" lon="2.54609">
        <ele>748</ele>
        <time>2022-06-12T08:54:00.548Z</time>
      </trkpt>
      <trkpt lat="44.25965" lon="2.5461">
        <ele>748</ele>
        <time>2022-06-12T08:54:01.548Z</time>
      </trkpt>
      <trkpt lat="44.25967" lon="2.5461">
        <ele>748</ele>
        <time>2022-06-12T08:54:02.548Z</time>
      </trkpt>
      <trkpt lat="44.25969" lon="2.5461">
        <ele>747</ele>
        <time>2022-06-12T08:54:03.548Z</time>
      </trkpt>
      <trkpt lat="44.2597" lon="2.5461">
        <ele>747</ele>
        <time>2022-06-12T08:54:04.548Z</time>
      </trkpt>
      <trkpt lat="44.25972" lon="2.5461">
        <ele>747</ele>
        <time>2022-06-12T08:54:05.548Z</time>
      </trkpt>
      <trkpt lat="44.25974" lon="2.5461">
        <ele>747</ele>
        <time>2022-06-12T08:54:06.548Z</time>
      </trkpt>
      <trkpt lat="44.25976" lon="2.54611">
        <ele>746</ele>
        <time>2022-06-12T08:54:07.548Z</time>
      </trkpt>
      <trkpt lat="44.25977" lon="2.54611">
        <ele>746</ele>
        <time>2022-06-12T08:54:08.548Z</time>
      </trkpt>
      <trkpt lat="44.25979" lon="2.54611">
        <ele>746</ele>
        <time>2022-06-12T08:54:09.548Z</time>
      </trkpt>
      <trkpt lat="44.25981" lon="2.54611">
        <ele>746</ele>
        <time>2022-06-12T08:54:10.548Z</time>
      </trkpt>
      <trkpt lat="44.25982" lon="2.54611">
        <ele>745</ele>
        <time>2022-06-12T08:54:11.548Z</time>
      </trkpt>
      <trkpt lat="44.25984" lon="2.54612">
        <ele>745</ele>
        <time>2022-06-12T08:54:12.548Z</time>
      </trkpt>
      <trkpt lat="44.25986" lon="2.54612">
        <ele>745</ele>
        <time>2022-06-12T08:54:13.548Z</time>
      </trkpt>
      <trkpt lat="44.25987" lon="2.54612">
        <ele>745</ele>
        <time>2022-06-12T08:54:14.548Z</time>
      </trkpt>
      <trkpt lat="44.25988" lon="2.54612">
        <ele>744</ele>
        <time>2022-06-12T08:54:15.548Z</time>
      </trkpt>
      <trkpt lat="44.2599" lon="2.54612">
        <ele>744</ele>
        <time>2022-06-12T08:54:16.548Z</time>
      </trkpt>
      <trkpt lat="44.25991" lon="2.54613">
        <ele>744</ele>
        <time>2022-06-12T08:54:17.548Z</time>
      </trkpt>
      <trkpt lat="44.25993" lon="2.54613">
        <ele>744</ele>
        <time>2022-06-12T08:54:18.548Z</time>
      </trkpt>
      <trkpt lat="44.25994" lon="2.54614">
        <ele>743</ele>
        <time>2022-06-12T08:54:19.548Z</time>
      </trkpt>
      <trkpt lat="44.25996" lon="2.54614">
        <ele>743</ele>
        <time>2022-06-12T08:54:20.548Z</time>
      </trkpt>
      <trkpt lat="44.25997" lon="2.54614">
        <ele>743</ele>
        <time>2022-06-12T08:54:21.548Z</time>
      </trkpt>
      <trkpt lat="44.25999" lon="2.54614">
        <ele>743</ele>
        <time>2022-06-12T08:54:22.548Z</time>
      </trkpt>
      <trkpt lat="44.26" lon="2.54614">
        <ele>743</ele>
        <time>2022-06-12T08:54:23.548Z</time>
      </trkpt>
      <trkpt lat="44.26001" lon="2.54614">
        <ele>743</ele>
        <time>2022-06-12T08:54:24.548Z</time>
      </trkpt>
      <trkpt lat="44.26003" lon="2.54613">
        <ele>743</ele>
        <time>2022-06-12T08:54:25.548Z</time>
      </trkpt>
      <trkpt lat="44.26004" lon="2.54613">
        <ele>743</ele>
        <time>2022-06-12T08:54:26.548Z</time>
      </trkpt>
      <trkpt lat="44.26005" lon="2.54613">
        <ele>743</ele>
        <time>2022-06-12T08:54:27.548Z</time>
      </trkpt>
      <trkpt lat="44.26007" lon="2.54614">
        <ele>743</ele>
        <time>2022-06-12T08:54:28.548Z</time>
      </trkpt>
      <trkpt lat="44.26008" lon="2.54614">
        <ele>743</ele>
        <time>2022-06-12T08:54:29.548Z</time>
      </trkpt>
      <trkpt lat="44.2601" lon="2.54614">
        <ele>743</ele>
        <time>2022-06-12T08:54:30.548Z</time>
      </trkpt>
      <trkpt lat="44.26011" lon="2.54614">
        <ele>743</ele>
        <time>2022-06-12T08:54:31.548Z</time>
      </trkpt>
      <trkpt lat="44.26012" lon="2.54614">
        <ele>743</ele>
        <time>2022-06-12T08:54:32.548Z</time>
      </trkpt>
      <trkpt lat="44.26014" lon="2.54614">
        <ele>743</ele>
        <time>2022-06-12T08:54:33.548Z</time>
      </trkpt>
      <trkpt lat="44.26015" lon="2.54614">
        <ele>743</ele>
        <time>2022-06-12T08:54:34.548Z</time>
      </trkpt>
      <trkpt lat="44.26017" lon="2.54614">
        <ele>743</ele>
        <time>2022-06-12T08:54:35.548Z</time>
      </trkpt>
      <trkpt lat="44.26018" lon="2.54614">
        <ele>743</ele>
        <time>2022-06-12T08:54:36.548Z</time>
      </trkpt>
      <trkpt lat="44.2602" lon="2.54614">
        <ele>743</ele>
        <time>2022-06-12T08:54:37.548Z</time>
      </trkpt>
      <trkpt lat="44.26021" lon="2.54614">
        <ele>743</ele>
        <time>2022-06-12T08:54:38.548Z</time>
      </trkpt>
      <trkpt lat="44.26022" lon="2.54614">
        <ele>743</ele>
        <time>2022-06-12T08:54:39.548Z</time>
      </trkpt>
      <trkpt lat="44.26024" lon="2.54615">
        <ele>742</ele>
        <time>2022-06-12T08:54:40.548Z</time>
      </trkpt>
      <trkpt lat="44.26025" lon="2.54615">
        <ele>742</ele>
        <time>2022-06-12T08:54:41.548Z</time>
      </trkpt>
      <trkpt lat="44.26027" lon="2.54615">
        <ele>742</ele>
        <time>2022-06-12T08:54:42.548Z</time>
      </trkpt>
      <trkpt lat="44.26028" lon="2.54615">
        <ele>742</ele>
        <time>2022-06-12T08:54:43.548Z</time>
      </trkpt>
      <trkpt lat="44.2603" lon="2.54616">
        <ele>742</ele>
        <time>2022-06-12T08:54:44.548Z</time>
      </trkpt>
      <trkpt lat="44.26031" lon="2.54616">
        <ele>742</ele>
        <time>2022-06-12T08:54:45.548Z</time>
      </trkpt>
      <trkpt lat="44.26032" lon="2.54616">
        <ele>742</ele>
        <time>2022-06-12T08:54:46.548Z</time>
      </trkpt>
      <trkpt lat="44.26034" lon="2.54616">
        <ele>742</ele>
        <time>2022-06-12T08:54:47.548Z</time>
      </trkpt>
      <trkpt lat="44.26035" lon="2.54616">
        <ele>742</ele>
        <time>2022-06-12T08:54:48.548Z</time>
      </trkpt>
      <trkpt lat="44.26037" lon="2.54617">
        <ele>742</ele>
        <time>2022-06-12T08:54:49.548Z</time>
      </trkpt>
      <trkpt lat="44.26038" lon="2.54617">
        <ele>741</ele>
        <time>2022-06-12T08:54:50.548Z</time>
      </trkpt>
      <trkpt lat="44.2604" lon="2.54617">
        <ele>741</ele>
        <time>2022-06-12T08:54:51.548Z</time>
      </trkpt>
      <trkpt lat="44.26041" lon="2.54617">
        <ele>741</ele>
        <time>2022-06-12T08:54:52.548Z</time>
      </trkpt>
      <trkpt lat="44.26043" lon="2.54617">
        <ele>741</ele>
        <time>2022-06-12T08:54:53.548Z</time>
      </trkpt>
      <trkpt lat="44.26044" lon="2.54617">
        <ele>741</ele>
        <time>2022-06-12T08:54:54.548Z</time>
      </trkpt>
      <trkpt lat="44.26045" lon="2.54617">
        <ele>741</ele>
        <time>2022-06-12T08:54:55.548Z</time>
      </trkpt>
      <trkpt lat="44.26047" lon="2.54618">
        <ele>741</ele>
        <time>2022-06-12T08:54:56.548Z</time>
      </trkpt>
      <trkpt lat="44.26048" lon="2.54618">
        <ele>741</ele>
        <time>2022-06-12T08:54:57.548Z</time>
      </trkpt>
      <trkpt lat="44.2605" lon="2.54618">
        <ele>741</ele>
        <time>2022-06-12T08:54:58.548Z</time>
      </trkpt>
      <trkpt lat="44.26051" lon="2.54618">
        <ele>741</ele>
        <time>2022-06-12T08:54:59.548Z</time>
      </trkpt>
      <trkpt lat="44.26053" lon="2.54618">
        <ele>741</ele>
        <time>2022-06-12T08:55:00.548Z</time>
      </trkpt>
      <trkpt lat="44.26054" lon="2.54619">
        <ele>741</ele>
        <time>2022-06-12T08:55:01.548Z</time>
      </trkpt>
      <trkpt lat="44.26056" lon="2.54619">
        <ele>741</ele>
        <time>2022-06-12T08:55:02.548Z</time>
      </trkpt>
      <trkpt lat="44.26057" lon="2.54619">
        <ele>740</ele>
        <time>2022-06-12T08:55:03.548Z</time>
      </trkpt>
      <trkpt lat="44.26059" lon="2.5462">
        <ele>740</ele>
        <time>2022-06-12T08:55:04.548Z</time>
      </trkpt>
      <trkpt lat="44.2606" lon="2.5462">
        <ele>740</ele>
        <time>2022-06-12T08:55:05.548Z</time>
      </trkpt>
      <trkpt lat="44.26062" lon="2.5462">
        <ele>740</ele>
        <time>2022-06-12T08:55:06.548Z</time>
      </trkpt>
      <trkpt lat="44.26063" lon="2.54621">
        <ele>740</ele>
        <time>2022-06-12T08:55:07.548Z</time>
      </trkpt>
      <trkpt lat="44.26065" lon="2.54621">
        <ele>740</ele>
        <time>2022-06-12T08:55:08.548Z</time>
      </trkpt>
      <trkpt lat="44.26066" lon="2.54621">
        <ele>740</ele>
        <time>2022-06-12T08:55:09.548Z</time>
      </trkpt>
      <trkpt lat="44.26068" lon="2.54621">
        <ele>740</ele>
        <time>2022-06-12T08:55:10.548Z</time>
      </trkpt>
      <trkpt lat="44.26069" lon="2.54622">
        <ele>740</ele>
        <time>2022-06-12T08:55:11.548Z</time>
      </trkpt>
      <trkpt lat="44.26071" lon="2.54622">
        <ele>740</ele>
        <time>2022-06-12T08:55:12.548Z</time>
      </trkpt>
      <trkpt lat="44.26072" lon="2.54622">
        <ele>740</ele>
        <time>2022-06-12T08:55:13.548Z</time>
      </trkpt>
      <trkpt lat="44.26074" lon="2.54622">
        <ele>740</ele>
        <time>2022-06-12T08:55:14.548Z</time>
      </trkpt>
      <trkpt lat="44.26075" lon="2.54622">
        <ele>740</ele>
        <time>2022-06-12T08:55:15.548Z</time>
      </trkpt>
      <trkpt lat="44.26077" lon="2.54622">
        <ele>740</ele>
        <time>2022-06-12T08:55:16.548Z</time>
      </trkpt>
      <trkpt lat="44.26078" lon="2.54622">
        <ele>740</ele>
        <time>2022-06-12T08:55:17.548Z</time>
      </trkpt>
      <trkpt lat="44.2608" lon="2.54622">
        <ele>740</ele>
        <time>2022-06-12T08:55:18.548Z</time>
      </trkpt>
      <trkpt lat="44.26081" lon="2.54622">
        <ele>740</ele>
        <time>2022-06-12T08:55:19.548Z</time>
      </trkpt>
      <trkpt lat="44.26083" lon="2.54622">
        <ele>740</ele>
        <time>2022-06-12T08:55:20.548Z</time>
      </trkpt>
      <trkpt lat="44.26084" lon="2.54623">
        <ele>740</ele>
        <time>2022-06-12T08:55:21.548Z</time>
      </trkpt>
      <trkpt lat="44.26085" lon="2.54623">
        <ele>740</ele>
        <time>2022-06-12T08:55:22.548Z</time>
      </trkpt>
      <trkpt lat="44.26087" lon="2.54623">
        <ele>740</ele>
        <time>2022-06-12T08:55:23.548Z</time>
      </trkpt>
      <trkpt lat="44.26088" lon="2.54623">
        <ele>740</ele>
        <time>2022-06-12T08:55:24.548Z</time>
      </trkpt>
      <trkpt lat="44.2609" lon="2.54623">
        <ele>740</ele>
        <time>2022-06-12T08:55:25.548Z</time>
      </trkpt>
      <trkpt lat="44.26091" lon="2.54623">
        <ele>740</ele>
        <time>2022-06-12T08:55:26.548Z</time>
      </trkpt>
      <trkpt lat="44.26092" lon="2.54624">
        <ele>740</ele>
        <time>2022-06-12T08:55:27.548Z</time>
      </trkpt>
      <trkpt lat="44.26094" lon="2.54624">
        <ele>740</ele>
        <time>2022-06-12T08:55:28.548Z</time>
      </trkpt>
      <trkpt lat="44.26095" lon="2.54624">
        <ele>740</ele>
        <time>2022-06-12T08:55:29.548Z</time>
      </trkpt>
      <trkpt lat="44.26097" lon="2.54624">
        <ele>740</ele>
        <time>2022-06-12T08:55:30.548Z</time>
      </trkpt>
      <trkpt lat="44.26098" lon="2.54624">
        <ele>740</ele>
        <time>2022-06-12T08:55:31.548Z</time>
      </trkpt>
      <trkpt lat="44.261" lon="2.54624">
        <ele>740</ele>
        <time>2022-06-12T08:55:32.548Z</time>
      </trkpt>
      <trkpt lat="44.26101" lon="2.54624">
        <ele>740</ele>
        <time>2022-06-12T08:55:33.548Z</time>
      </trkpt>
      <trkpt lat="44.26103" lon="2.54624">
        <ele>740</ele>
        <time>2022-06-12T08:55:34.548Z</time>
      </trkpt>
      <trkpt lat="44.26104" lon="2.54624">
        <ele>740</ele>
        <time>2022-06-12T08:55:35.548Z</time>
      </trkpt>
      <trkpt lat="44.26105" lon="2.54624">
        <ele>740</ele>
        <time>2022-06-12T08:55:36.548Z</time>
      </trkpt>
      <trkpt lat="44.26107" lon="2.54624">
        <ele>740</ele>
        <time>2022-06-12T08:55:37.548Z</time>
      </trkpt>
      <trkpt lat="44.26108" lon="2.54624">
        <ele>740</ele>
        <time>2022-06-12T08:55:38.548Z</time>
      </trkpt>
      <trkpt lat="44.26109" lon="2.54624">
        <ele>740</ele>
        <time>2022-06-12T08:55:39.548Z</time>
      </trkpt>
      <trkpt lat="44.26111" lon="2.54624">
        <ele>740</ele>
        <time>2022-06-12T08:55:40.548Z</time>
      </trkpt>
      <trkpt lat="44.26112" lon="2.54624">
        <ele>740</ele>
        <time>2022-06-12T08:55:41.548Z</time>
      </trkpt>
      <trkpt lat="44.26113" lon="2.54623">
        <ele>740</ele>
        <time>2022-06-12T08:55:42.548Z</time>
      </trkpt>
      <trkpt lat="44.26115" lon="2.54623">
        <ele>740</ele>
        <time>2022-06-12T08:55:43.548Z</time>
      </trkpt>
      <trkpt lat="44.26116" lon="2.54622">
        <ele>740</ele>
        <time>2022-06-12T08:55:44.548Z</time>
      </trkpt>
      <trkpt lat="44.26117" lon="2.54622">
        <ele>740</ele>
        <time>2022-06-12T08:55:45.548Z</time>
      </trkpt>
      <trkpt lat="44.26118" lon="2.54622">
        <ele>740</ele>
        <time>2022-06-12T08:55:46.548Z</time>
      </trkpt>
      <trkpt lat="44.26119" lon="2.54622">
        <ele>740</ele>
        <time>2022-06-12T08:55:47.548Z</time>
      </trkpt>
      <trkpt lat="44.26121" lon="2.54621">
        <ele>740</ele>
        <time>2022-06-12T08:55:48.548Z</time>
      </trkpt>
      <trkpt lat="44.26122" lon="2.54621">
        <ele>740</ele>
        <time>2022-06-12T08:55:49.548Z</time>
      </trkpt>
      <trkpt lat="44.26123" lon="2.54621">
        <ele>740</ele>
        <time>2022-06-12T08:55:50.548Z</time>
      </trkpt>
      <trkpt lat="44.26124" lon="2.54621">
        <ele>740</ele>
        <time>2022-06-12T08:55:51.548Z</time>
      </trkpt>
      <trkpt lat="44.26126" lon="2.5462">
        <ele>740</ele>
        <time>2022-06-12T08:55:52.548Z</time>
      </trkpt>
      <trkpt lat="44.26128" lon="2.5462">
        <ele>740</ele>
        <time>2022-06-12T08:55:53.548Z</time>
      </trkpt>
      <trkpt lat="44.26129" lon="2.5462">
        <ele>740</ele>
        <time>2022-06-12T08:55:54.548Z</time>
      </trkpt>
      <trkpt lat="44.26131" lon="2.5462">
        <ele>740</ele>
        <time>2022-06-12T08:55:55.548Z</time>
      </trkpt>
      <trkpt lat="44.26132" lon="2.54619">
        <ele>741</ele>
        <time>2022-06-12T08:55:56.548Z</time>
      </trkpt>
      <trkpt lat="44.26134" lon="2.54619">
        <ele>741</ele>
        <time>2022-06-12T08:55:57.548Z</time>
      </trkpt>
      <trkpt lat="44.26135" lon="2.54619">
        <ele>741</ele>
        <time>2022-06-12T08:55:58.548Z</time>
      </trkpt>
      <trkpt lat="44.26136" lon="2.54619">
        <ele>741</ele>
        <time>2022-06-12T08:55:59.548Z</time>
      </trkpt>
      <trkpt lat="44.26138" lon="2.54619">
        <ele>741</ele>
        <time>2022-06-12T08:56:00.548Z</time>
      </trkpt>
      <trkpt lat="44.26139" lon="2.54619">
        <ele>741</ele>
        <time>2022-06-12T08:56:01.548Z</time>
      </trkpt>
      <trkpt lat="44.2614" lon="2.54619">
        <ele>741</ele>
        <time>2022-06-12T08:56:02.548Z</time>
      </trkpt>
      <trkpt lat="44.26141" lon="2.54619">
        <ele>741</ele>
        <time>2022-06-12T08:56:03.548Z</time>
      </trkpt>
      <trkpt lat="44.26141" lon="2.5462">
        <ele>741</ele>
        <time>2022-06-12T08:56:04.548Z</time>
      </trkpt>
      <trkpt lat="44.26141" lon="2.5462">
        <ele>741</ele>
        <time>2022-06-12T08:56:05.548Z</time>
      </trkpt>
      <trkpt lat="44.26142" lon="2.5462">
        <ele>741</ele>
        <time>2022-06-12T08:56:06.548Z</time>
      </trkpt>
      <trkpt lat="44.26142" lon="2.5462">
        <ele>741</ele>
        <time>2022-06-12T08:56:07.548Z</time>
      </trkpt>
      <trkpt lat="44.26145" lon="2.5462">
        <ele>741</ele>
        <time>2022-06-12T08:56:29.553Z</time>
      </trkpt>
      <trkpt lat="44.26146" lon="2.54619">
        <ele>741</ele>
        <time>2022-06-12T08:56:30.553Z</time>
      </trkpt>
      <trkpt lat="44.26147" lon="2.54619">
        <ele>741</ele>
        <time>2022-06-12T08:56:31.553Z</time>
      </trkpt>
      <trkpt lat="44.26148" lon="2.54618">
        <ele>741</ele>
        <time>2022-06-12T08:56:32.553Z</time>
      </trkpt>
      <trkpt lat="44.2615" lon="2.54618">
        <ele>741</ele>
        <time>2022-06-12T08:56:33.553Z</time>
      </trkpt>
      <trkpt lat="44.26151" lon="2.54618">
        <ele>741</ele>
        <time>2022-06-12T08:56:34.553Z</time>
      </trkpt>
      <trkpt lat="44.26152" lon="2.54618">
        <ele>740</ele>
        <time>2022-06-12T08:56:35.553Z</time>
      </trkpt>
      <trkpt lat="44.26154" lon="2.54617">
        <ele>740</ele>
        <time>2022-06-12T08:56:36.553Z</time>
      </trkpt>
      <trkpt lat="44.26155" lon="2.54618">
        <ele>740</ele>
        <time>2022-06-12T08:56:37.553Z</time>
      </trkpt>
      <trkpt lat="44.26156" lon="2.54618">
        <ele>740</ele>
        <time>2022-06-12T08:56:38.553Z</time>
      </trkpt>
      <trkpt lat="44.26158" lon="2.54618">
        <ele>740</ele>
        <time>2022-06-12T08:56:39.553Z</time>
      </trkpt>
      <trkpt lat="44.26159" lon="2.54618">
        <ele>740</ele>
        <time>2022-06-12T08:56:40.553Z</time>
      </trkpt>
      <trkpt lat="44.2616" lon="2.54618">
        <ele>740</ele>
        <time>2022-06-12T08:56:41.553Z</time>
      </trkpt>
      <trkpt lat="44.26162" lon="2.54618">
        <ele>740</ele>
        <time>2022-06-12T08:56:42.553Z</time>
      </trkpt>
      <trkpt lat="44.26163" lon="2.54618">
        <ele>740</ele>
        <time>2022-06-12T08:56:43.553Z</time>
      </trkpt>
      <trkpt lat="44.26164" lon="2.54618">
        <ele>740</ele>
        <time>2022-06-12T08:56:44.553Z</time>
      </trkpt>
      <trkpt lat="44.26165" lon="2.54618">
        <ele>740</ele>
        <time>2022-06-12T08:56:45.553Z</time>
      </trkpt>
      <trkpt lat="44.26167" lon="2.54618">
        <ele>740</ele>
        <time>2022-06-12T08:56:46.553Z</time>
      </trkpt>
      <trkpt lat="44.26168" lon="2.54617">
        <ele>740</ele>
        <time>2022-06-12T08:56:47.553Z</time>
      </trkpt>
      <trkpt lat="44.26169" lon="2.54617">
        <ele>739</ele>
        <time>2022-06-12T08:56:48.553Z</time>
      </trkpt>
      <trkpt lat="44.26171" lon="2.54617">
        <ele>739</ele>
        <time>2022-06-12T08:56:49.553Z</time>
      </trkpt>
      <trkpt lat="44.26172" lon="2.54617">
        <ele>739</ele>
        <time>2022-06-12T08:56:50.553Z</time>
      </trkpt>
      <trkpt lat="44.26173" lon="2.54617">
        <ele>739</ele>
        <time>2022-06-12T08:56:51.553Z</time>
      </trkpt>
      <trkpt lat="44.26175" lon="2.54617">
        <ele>739</ele>
        <time>2022-06-12T08:56:52.553Z</time>
      </trkpt>
      <trkpt lat="44.26176" lon="2.54617">
        <ele>739</ele>
        <time>2022-06-12T08:56:53.553Z</time>
      </trkpt>
      <trkpt lat="44.26177" lon="2.54617">
        <ele>739</ele>
        <time>2022-06-12T08:56:54.553Z</time>
      </trkpt>
      <trkpt lat="44.26179" lon="2.54617">
        <ele>739</ele>
        <time>2022-06-12T08:56:55.553Z</time>
      </trkpt>
      <trkpt lat="44.2618" lon="2.54617">
        <ele>740</ele>
        <time>2022-06-12T08:56:56.553Z</time>
      </trkpt>
      <trkpt lat="44.26181" lon="2.54617">
        <ele>740</ele>
        <time>2022-06-12T08:56:57.553Z</time>
      </trkpt>
      <trkpt lat="44.26183" lon="2.54617">
        <ele>740</ele>
        <time>2022-06-12T08:56:58.553Z</time>
      </trkpt>
      <trkpt lat="44.26184" lon="2.54616">
        <ele>740</ele>
        <time>2022-06-12T08:56:59.553Z</time>
      </trkpt>
      <trkpt lat="44.26185" lon="2.54616">
        <ele>740</ele>
        <time>2022-06-12T08:57:00.553Z</time>
      </trkpt>
      <trkpt lat="44.26187" lon="2.54616">
        <ele>740</ele>
        <time>2022-06-12T08:57:01.553Z</time>
      </trkpt>
      <trkpt lat="44.26188" lon="2.54616">
        <ele>740</ele>
        <time>2022-06-12T08:57:02.553Z</time>
      </trkpt>
      <trkpt lat="44.2619" lon="2.54616">
        <ele>740</ele>
        <time>2022-06-12T08:57:03.553Z</time>
      </trkpt>
      <trkpt lat="44.26191" lon="2.54616">
        <ele>740</ele>
        <time>2022-06-12T08:57:04.553Z</time>
      </trkpt>
      <trkpt lat="44.26192" lon="2.54615">
        <ele>740</ele>
        <time>2022-06-12T08:57:05.553Z</time>
      </trkpt>
      <trkpt lat="44.26194" lon="2.54615">
        <ele>740</ele>
        <time>2022-06-12T08:57:06.553Z</time>
      </trkpt>
      <trkpt lat="44.26195" lon="2.54615">
        <ele>740</ele>
        <time>2022-06-12T08:57:07.553Z</time>
      </trkpt>
      <trkpt lat="44.26197" lon="2.54615">
        <ele>740</ele>
        <time>2022-06-12T08:57:08.553Z</time>
      </trkpt>
      <trkpt lat="44.26198" lon="2.54614">
        <ele>740</ele>
        <time>2022-06-12T08:57:09.553Z</time>
      </trkpt>
      <trkpt lat="44.26199" lon="2.54614">
        <ele>740</ele>
        <time>2022-06-12T08:57:10.553Z</time>
      </trkpt>
      <trkpt lat="44.26201" lon="2.54614">
        <ele>740</ele>
        <time>2022-06-12T08:57:11.553Z</time>
      </trkpt>
      <trkpt lat="44.26202" lon="2.54614">
        <ele>740</ele>
        <time>2022-06-12T08:57:12.553Z</time>
      </trkpt>
      <trkpt lat="44.26203" lon="2.54614">
        <ele>740</ele>
        <time>2022-06-12T08:57:13.553Z</time>
      </trkpt>
      <trkpt lat="44.26205" lon="2.54614">
        <ele>740</ele>
        <time>2022-06-12T08:57:14.553Z</time>
      </trkpt>
      <trkpt lat="44.26206" lon="2.54614">
        <ele>740</ele>
        <time>2022-06-12T08:57:15.553Z</time>
      </trkpt>
      <trkpt lat="44.26207" lon="2.54614">
        <ele>740</ele>
        <time>2022-06-12T08:57:16.553Z</time>
      </trkpt>
      <trkpt lat="44.26207" lon="2.54614">
        <ele>740</ele>
        <time>2022-06-12T08:57:17.553Z</time>
      </trkpt>
      <trkpt lat="44.26209" lon="2.54614">
        <ele>740</ele>
        <time>2022-06-12T08:57:18.553Z</time>
      </trkpt>
      <trkpt lat="44.2621" lon="2.54613">
        <ele>740</ele>
        <time>2022-06-12T08:57:19.553Z</time>
      </trkpt>
      <trkpt lat="44.2621" lon="2.54613">
        <ele>740</ele>
        <time>2022-06-12T08:57:20.553Z</time>
      </trkpt>
      <trkpt lat="44.2621" lon="2.54613">
        <ele>740</ele>
        <time>2022-06-12T08:57:21.553Z</time>
      </trkpt>
      <trkpt lat="44.26211" lon="2.54613">
        <ele>740</ele>
        <time>2022-06-12T08:57:22.553Z</time>
      </trkpt>
      <trkpt lat="44.26211" lon="2.54613">
        <ele>740</ele>
        <time>2022-06-12T08:57:23.553Z</time>
      </trkpt>
      <trkpt lat="44.26212" lon="2.54613">
        <ele>740</ele>
        <time>2022-06-12T08:57:24.553Z</time>
      </trkpt>
      <trkpt lat="44.26213" lon="2.54613">
        <ele>740</ele>
        <time>2022-06-12T08:57:25.553Z</time>
      </trkpt>
      <trkpt lat="44.26214" lon="2.54614">
        <ele>740</ele>
        <time>2022-06-12T08:57:26.553Z</time>
      </trkpt>
      <trkpt lat="44.26215" lon="2.54613">
        <ele>740</ele>
        <time>2022-06-12T08:57:27.553Z</time>
      </trkpt>
      <trkpt lat="44.26216" lon="2.54613">
        <ele>740</ele>
        <time>2022-06-12T08:57:28.553Z</time>
      </trkpt>
      <trkpt lat="44.26216" lon="2.54613">
        <ele>740</ele>
        <time>2022-06-12T08:57:29.553Z</time>
      </trkpt>
      <trkpt lat="44.26216" lon="2.54613">
        <ele>740</ele>
        <time>2022-06-12T08:57:30.553Z</time>
      </trkpt>
      <trkpt lat="44.26217" lon="2.54613">
        <ele>740</ele>
        <time>2022-06-12T08:57:31.553Z</time>
      </trkpt>
      <trkpt lat="44.26218" lon="2.54615">
        <ele>739</ele>
        <time>2022-06-12T08:57:34.807Z</time>
      </trkpt>
      <trkpt lat="44.26218" lon="2.54615">
        <ele>739</ele>
        <time>2022-06-12T08:57:35.807Z</time>
      </trkpt>
      <trkpt lat="44.26218" lon="2.54615">
        <ele>739</ele>
        <time>2022-06-12T08:57:36.807Z</time>
      </trkpt>
      <trkpt lat="44.26218" lon="2.54615">
        <ele>739</ele>
        <time>2022-06-12T08:57:37.807Z</time>
      </trkpt>
      <trkpt lat="44.2622" lon="2.54614">
        <ele>738</ele>
        <time>2022-06-12T08:57:53.809Z</time>
      </trkpt>
      <trkpt lat="44.2622" lon="2.54613">
        <ele>738</ele>
        <time>2022-06-12T08:57:54.809Z</time>
      </trkpt>
      <trkpt lat="44.26221" lon="2.54612">
        <ele>738</ele>
        <time>2022-06-12T08:57:55.809Z</time>
      </trkpt>
      <trkpt lat="44.26223" lon="2.54612">
        <ele>738</ele>
        <time>2022-06-12T08:57:56.809Z</time>
      </trkpt>
      <trkpt lat="44.26224" lon="2.54612">
        <ele>738</ele>
        <time>2022-06-12T08:57:57.809Z</time>
      </trkpt>
      <trkpt lat="44.26225" lon="2.54612">
        <ele>738</ele>
        <time>2022-06-12T08:57:58.809Z</time>
      </trkpt>
      <trkpt lat="44.26226" lon="2.54612">
        <ele>738</ele>
        <time>2022-06-12T08:57:59.809Z</time>
      </trkpt>
      <trkpt lat="44.26227" lon="2.54612">
        <ele>738</ele>
        <time>2022-06-12T08:58:00.809Z</time>
      </trkpt>
      <trkpt lat="44.26229" lon="2.54612">
        <ele>738</ele>
        <time>2022-06-12T08:58:01.809Z</time>
      </trkpt>
      <trkpt lat="44.2623" lon="2.54611">
        <ele>738</ele>
        <time>2022-06-12T08:58:02.809Z</time>
      </trkpt>
      <trkpt lat="44.26231" lon="2.54611">
        <ele>738</ele>
        <time>2022-06-12T08:58:03.809Z</time>
      </trkpt>
      <trkpt lat="44.26232" lon="2.54611">
        <ele>738</ele>
        <time>2022-06-12T08:58:04.809Z</time>
      </trkpt>
      <trkpt lat="44.26233" lon="2.54611">
        <ele>738</ele>
        <time>2022-06-12T08:58:05.809Z</time>
      </trkpt>
      <trkpt lat="44.26235" lon="2.54611">
        <ele>738</ele>
        <time>2022-06-12T08:58:06.809Z</time>
      </trkpt>
      <trkpt lat="44.26236" lon="2.5461">
        <ele>738</ele>
        <time>2022-06-12T08:58:07.809Z</time>
      </trkpt>
      <trkpt lat="44.26237" lon="2.5461">
        <ele>739</ele>
        <time>2022-06-12T08:58:08.809Z</time>
      </trkpt>
      <trkpt lat="44.26238" lon="2.5461">
        <ele>739</ele>
        <time>2022-06-12T08:58:09.809Z</time>
      </trkpt>
      <trkpt lat="44.26239" lon="2.5461">
        <ele>739</ele>
        <time>2022-06-12T08:58:10.809Z</time>
      </trkpt>
      <trkpt lat="44.2624" lon="2.5461">
        <ele>739</ele>
        <time>2022-06-12T08:58:11.809Z</time>
      </trkpt>
      <trkpt lat="44.26241" lon="2.5461">
        <ele>739</ele>
        <time>2022-06-12T08:58:12.809Z</time>
      </trkpt>
      <trkpt lat="44.26242" lon="2.5461">
        <ele>739</ele>
        <time>2022-06-12T08:58:13.809Z</time>
      </trkpt>
      <trkpt lat="44.26243" lon="2.5461">
        <ele>739</ele>
        <time>2022-06-12T08:58:14.809Z</time>
      </trkpt>
      <trkpt lat="44.26244" lon="2.5461">
        <ele>739</ele>
        <time>2022-06-12T08:58:15.809Z</time>
      </trkpt>
      <trkpt lat="44.26245" lon="2.5461">
        <ele>739</ele>
        <time>2022-06-12T08:58:16.809Z</time>
      </trkpt>
      <trkpt lat="44.26246" lon="2.54609">
        <ele>739</ele>
        <time>2022-06-12T08:58:17.809Z</time>
      </trkpt>
      <trkpt lat="44.26247" lon="2.54609">
        <ele>739</ele>
        <time>2022-06-12T08:58:18.809Z</time>
      </trkpt>
      <trkpt lat="44.26249" lon="2.54609">
        <ele>739</ele>
        <time>2022-06-12T08:58:19.809Z</time>
      </trkpt>
      <trkpt lat="44.2625" lon="2.54609">
        <ele>739</ele>
        <time>2022-06-12T08:58:20.809Z</time>
      </trkpt>
      <trkpt lat="44.26251" lon="2.54609">
        <ele>739</ele>
        <time>2022-06-12T08:58:21.809Z</time>
      </trkpt>
      <trkpt lat="44.26252" lon="2.54609">
        <ele>739</ele>
        <time>2022-06-12T08:58:22.809Z</time>
      </trkpt>
      <trkpt lat="44.26253" lon="2.54609">
        <ele>740</ele>
        <time>2022-06-12T08:58:23.809Z</time>
      </trkpt>
      <trkpt lat="44.26254" lon="2.54608">
        <ele>740</ele>
        <time>2022-06-12T08:58:24.809Z</time>
      </trkpt>
      <trkpt lat="44.26256" lon="2.54608">
        <ele>740</ele>
        <time>2022-06-12T08:58:25.809Z</time>
      </trkpt>
      <trkpt lat="44.26257" lon="2.54608">
        <ele>740</ele>
        <time>2022-06-12T08:58:26.809Z</time>
      </trkpt>
      <trkpt lat="44.26258" lon="2.54607">
        <ele>740</ele>
        <time>2022-06-12T08:58:27.809Z</time>
      </trkpt>
      <trkpt lat="44.2626" lon="2.54607">
        <ele>740</ele>
        <time>2022-06-12T08:58:28.809Z</time>
      </trkpt>
      <trkpt lat="44.26261" lon="2.54606">
        <ele>740</ele>
        <time>2022-06-12T08:58:29.809Z</time>
      </trkpt>
      <trkpt lat="44.26263" lon="2.54606">
        <ele>740</ele>
        <time>2022-06-12T08:58:30.809Z</time>
      </trkpt>
      <trkpt lat="44.26264" lon="2.54605">
        <ele>740</ele>
        <time>2022-06-12T08:58:31.809Z</time>
      </trkpt>
      <trkpt lat="44.26265" lon="2.54605">
        <ele>740</ele>
        <time>2022-06-12T08:58:32.809Z</time>
      </trkpt>
      <trkpt lat="44.26266" lon="2.54605">
        <ele>740</ele>
        <time>2022-06-12T08:58:33.809Z</time>
      </trkpt>
      <trkpt lat="44.26267" lon="2.54604">
        <ele>741</ele>
        <time>2022-06-12T08:58:34.809Z</time>
      </trkpt>
      <trkpt lat="44.26269" lon="2.54604">
        <ele>741</ele>
        <time>2022-06-12T08:58:35.809Z</time>
      </trkpt>
      <trkpt lat="44.2627" lon="2.54603">
        <ele>741</ele>
        <time>2022-06-12T08:58:36.809Z</time>
      </trkpt>
      <trkpt lat="44.26271" lon="2.54602">
        <ele>741</ele>
        <time>2022-06-12T08:58:37.809Z</time>
      </trkpt>
      <trkpt lat="44.26272" lon="2.54602">
        <ele>741</ele>
        <time>2022-06-12T08:58:38.809Z</time>
      </trkpt>
      <trkpt lat="44.26273" lon="2.54601">
        <ele>741</ele>
        <time>2022-06-12T08:58:39.809Z</time>
      </trkpt>
      <trkpt lat="44.26274" lon="2.54601">
        <ele>741</ele>
        <time>2022-06-12T08:58:40.809Z</time>
      </trkpt>
      <trkpt lat="44.26276" lon="2.54601">
        <ele>742</ele>
        <time>2022-06-12T08:58:41.809Z</time>
      </trkpt>
      <trkpt lat="44.26277" lon="2.546">
        <ele>742</ele>
        <time>2022-06-12T08:58:42.809Z</time>
      </trkpt>
      <trkpt lat="44.26278" lon="2.546">
        <ele>742</ele>
        <time>2022-06-12T08:58:43.809Z</time>
      </trkpt>
      <trkpt lat="44.26279" lon="2.546">
        <ele>742</ele>
        <time>2022-06-12T08:58:44.809Z</time>
      </trkpt>
      <trkpt lat="44.2628" lon="2.54599">
        <ele>742</ele>
        <time>2022-06-12T08:58:45.809Z</time>
      </trkpt>
      <trkpt lat="44.26281" lon="2.54599">
        <ele>742</ele>
        <time>2022-06-12T08:58:46.809Z</time>
      </trkpt>
      <trkpt lat="44.26282" lon="2.54599">
        <ele>742</ele>
        <time>2022-06-12T08:58:47.809Z</time>
      </trkpt>
      <trkpt lat="44.26283" lon="2.54599">
        <ele>742</ele>
        <time>2022-06-12T08:58:48.809Z</time>
      </trkpt>
      <trkpt lat="44.26284" lon="2.54598">
        <ele>742</ele>
        <time>2022-06-12T08:58:49.809Z</time>
      </trkpt>
      <trkpt lat="44.26285" lon="2.54598">
        <ele>742</ele>
        <time>2022-06-12T08:58:50.809Z</time>
      </trkpt>
      <trkpt lat="44.26286" lon="2.54598">
        <ele>743</ele>
        <time>2022-06-12T08:58:51.809Z</time>
      </trkpt>
      <trkpt lat="44.26287" lon="2.54598">
        <ele>743</ele>
        <time>2022-06-12T08:58:52.809Z</time>
      </trkpt>
      <trkpt lat="44.26288" lon="2.54598">
        <ele>743</ele>
        <time>2022-06-12T08:58:53.809Z</time>
      </trkpt>
      <trkpt lat="44.26289" lon="2.54598">
        <ele>743</ele>
        <time>2022-06-12T08:58:54.809Z</time>
      </trkpt>
      <trkpt lat="44.2629" lon="2.54597">
        <ele>743</ele>
        <time>2022-06-12T08:58:55.809Z</time>
      </trkpt>
      <trkpt lat="44.26291" lon="2.54597">
        <ele>743</ele>
        <time>2022-06-12T08:58:56.809Z</time>
      </trkpt>
      <trkpt lat="44.26292" lon="2.54597">
        <ele>744</ele>
        <time>2022-06-12T08:58:57.809Z</time>
      </trkpt>
      <trkpt lat="44.26292" lon="2.54597">
        <ele>744</ele>
        <time>2022-06-12T08:58:58.809Z</time>
      </trkpt>
      <trkpt lat="44.26294" lon="2.54596">
        <ele>744</ele>
        <time>2022-06-12T08:58:59.809Z</time>
      </trkpt>
      <trkpt lat="44.26295" lon="2.54596">
        <ele>744</ele>
        <time>2022-06-12T08:59:00.809Z</time>
      </trkpt>
      <trkpt lat="44.26296" lon="2.54595">
        <ele>744</ele>
        <time>2022-06-12T08:59:01.809Z</time>
      </trkpt>
      <trkpt lat="44.26297" lon="2.54595">
        <ele>744</ele>
        <time>2022-06-12T08:59:02.809Z</time>
      </trkpt>
      <trkpt lat="44.26298" lon="2.54595">
        <ele>744</ele>
        <time>2022-06-12T08:59:03.809Z</time>
      </trkpt>
      <trkpt lat="44.26299" lon="2.54595">
        <ele>745</ele>
        <time>2022-06-12T08:59:04.809Z</time>
      </trkpt>
      <trkpt lat="44.263" lon="2.54595">
        <ele>745</ele>
        <time>2022-06-12T08:59:05.809Z</time>
      </trkpt>
      <trkpt lat="44.26301" lon="2.54595">
        <ele>745</ele>
        <time>2022-06-12T08:59:06.809Z</time>
      </trkpt>
      <trkpt lat="44.26303" lon="2.54594">
        <ele>745</ele>
        <time>2022-06-12T08:59:07.809Z</time>
      </trkpt>
      <trkpt lat="44.26304" lon="2.54594">
        <ele>745</ele>
        <time>2022-06-12T08:59:08.809Z</time>
      </trkpt>
      <trkpt lat="44.26304" lon="2.54594">
        <ele>745</ele>
        <time>2022-06-12T08:59:09.809Z</time>
      </trkpt>
      <trkpt lat="44.26305" lon="2.54593">
        <ele>745</ele>
        <time>2022-06-12T08:59:10.809Z</time>
      </trkpt>
      <trkpt lat="44.26306" lon="2.54593">
        <ele>745</ele>
        <time>2022-06-12T08:59:11.809Z</time>
      </trkpt>
      <trkpt lat="44.26307" lon="2.54593">
        <ele>745</ele>
        <time>2022-06-12T08:59:12.809Z</time>
      </trkpt>
      <trkpt lat="44.26308" lon="2.54592">
        <ele>746</ele>
        <time>2022-06-12T08:59:13.809Z</time>
      </trkpt>
      <trkpt lat="44.2631" lon="2.54592">
        <ele>746</ele>
        <time>2022-06-12T08:59:14.809Z</time>
      </trkpt>
      <trkpt lat="44.26311" lon="2.54592">
        <ele>746</ele>
        <time>2022-06-12T08:59:15.809Z</time>
      </trkpt>
      <trkpt lat="44.26312" lon="2.54591">
        <ele>746</ele>
        <time>2022-06-12T08:59:16.809Z</time>
      </trkpt>
      <trkpt lat="44.26313" lon="2.54591">
        <ele>746</ele>
        <time>2022-06-12T08:59:17.809Z</time>
      </trkpt>
      <trkpt lat="44.26314" lon="2.54591">
        <ele>746</ele>
        <time>2022-06-12T08:59:18.809Z</time>
      </trkpt>
      <trkpt lat="44.26316" lon="2.54591">
        <ele>746</ele>
        <time>2022-06-12T08:59:19.809Z</time>
      </trkpt>
      <trkpt lat="44.26317" lon="2.54591">
        <ele>747</ele>
        <time>2022-06-12T08:59:20.809Z</time>
      </trkpt>
      <trkpt lat="44.26318" lon="2.54591">
        <ele>747</ele>
        <time>2022-06-12T08:59:21.809Z</time>
      </trkpt>
      <trkpt lat="44.26319" lon="2.54591">
        <ele>747</ele>
        <time>2022-06-12T08:59:22.809Z</time>
      </trkpt>
      <trkpt lat="44.2632" lon="2.5459">
        <ele>747</ele>
        <time>2022-06-12T08:59:23.809Z</time>
      </trkpt>
      <trkpt lat="44.2632" lon="2.5459">
        <ele>747</ele>
        <time>2022-06-12T08:59:24.809Z</time>
      </trkpt>
      <trkpt lat="44.26321" lon="2.5459">
        <ele>747</ele>
        <time>2022-06-12T08:59:25.809Z</time>
      </trkpt>
      <trkpt lat="44.26322" lon="2.5459">
        <ele>747</ele>
        <time>2022-06-12T08:59:26.809Z</time>
      </trkpt>
      <trkpt lat="44.26323" lon="2.5459">
        <ele>747</ele>
        <time>2022-06-12T08:59:27.809Z</time>
      </trkpt>
      <trkpt lat="44.26324" lon="2.54589">
        <ele>748</ele>
        <time>2022-06-12T08:59:28.809Z</time>
      </trkpt>
      <trkpt lat="44.26325" lon="2.54589">
        <ele>748</ele>
        <time>2022-06-12T08:59:29.809Z</time>
      </trkpt>
      <trkpt lat="44.26326" lon="2.54589">
        <ele>748</ele>
        <time>2022-06-12T08:59:30.809Z</time>
      </trkpt>
      <trkpt lat="44.26327" lon="2.54589">
        <ele>748</ele>
        <time>2022-06-12T08:59:31.809Z</time>
      </trkpt>
      <trkpt lat="44.26328" lon="2.54589">
        <ele>748</ele>
        <time>2022-06-12T08:59:32.809Z</time>
      </trkpt>
      <trkpt lat="44.26329" lon="2.54589">
        <ele>748</ele>
        <time>2022-06-12T08:59:33.809Z</time>
      </trkpt>
      <trkpt lat="44.2633" lon="2.54588">
        <ele>749</ele>
        <time>2022-06-12T08:59:34.809Z</time>
      </trkpt>
      <trkpt lat="44.26331" lon="2.54588">
        <ele>749</ele>
        <time>2022-06-12T08:59:35.809Z</time>
      </trkpt>
      <trkpt lat="44.26332" lon="2.54588">
        <ele>749</ele>
        <time>2022-06-12T08:59:36.809Z</time>
      </trkpt>
      <trkpt lat="44.26333" lon="2.54588">
        <ele>749</ele>
        <time>2022-06-12T08:59:37.809Z</time>
      </trkpt>
      <trkpt lat="44.26334" lon="2.54588">
        <ele>749</ele>
        <time>2022-06-12T08:59:38.809Z</time>
      </trkpt>
      <trkpt lat="44.26335" lon="2.54587">
        <ele>749</ele>
        <time>2022-06-12T08:59:39.809Z</time>
      </trkpt>
      <trkpt lat="44.26336" lon="2.54587">
        <ele>749</ele>
        <time>2022-06-12T08:59:40.809Z</time>
      </trkpt>
      <trkpt lat="44.26338" lon="2.54586">
        <ele>750</ele>
        <time>2022-06-12T08:59:41.809Z</time>
      </trkpt>
      <trkpt lat="44.26339" lon="2.54586">
        <ele>750</ele>
        <time>2022-06-12T08:59:42.809Z</time>
      </trkpt>
      <trkpt lat="44.2634" lon="2.54586">
        <ele>750</ele>
        <time>2022-06-12T08:59:43.809Z</time>
      </trkpt>
      <trkpt lat="44.26341" lon="2.54586">
        <ele>750</ele>
        <time>2022-06-12T08:59:44.809Z</time>
      </trkpt>
      <trkpt lat="44.26342" lon="2.54585">
        <ele>750</ele>
        <time>2022-06-12T08:59:45.809Z</time>
      </trkpt>
      <trkpt lat="44.26343" lon="2.54585">
        <ele>750</ele>
        <time>2022-06-12T08:59:46.809Z</time>
      </trkpt>
      <trkpt lat="44.26344" lon="2.54585">
        <ele>750</ele>
        <time>2022-06-12T08:59:47.809Z</time>
      </trkpt>
      <trkpt lat="44.26345" lon="2.54585">
        <ele>750</ele>
        <time>2022-06-12T08:59:48.809Z</time>
      </trkpt>
      <trkpt lat="44.26346" lon="2.54585">
        <ele>750</ele>
        <time>2022-06-12T08:59:49.809Z</time>
      </trkpt>
      <trkpt lat="44.26347" lon="2.54584">
        <ele>751</ele>
        <time>2022-06-12T08:59:50.809Z</time>
      </trkpt>
      <trkpt lat="44.26349" lon="2.54584">
        <ele>751</ele>
        <time>2022-06-12T08:59:51.809Z</time>
      </trkpt>
      <trkpt lat="44.2635" lon="2.54584">
        <ele>751</ele>
        <time>2022-06-12T08:59:52.809Z</time>
      </trkpt>
      <trkpt lat="44.26351" lon="2.54584">
        <ele>751</ele>
        <time>2022-06-12T08:59:53.809Z</time>
      </trkpt>
      <trkpt lat="44.26352" lon="2.54583">
        <ele>751</ele>
        <time>2022-06-12T08:59:54.809Z</time>
      </trkpt>
      <trkpt lat="44.26353" lon="2.54583">
        <ele>751</ele>
        <time>2022-06-12T08:59:55.809Z</time>
      </trkpt>
      <trkpt lat="44.26354" lon="2.54583">
        <ele>751</ele>
        <time>2022-06-12T08:59:56.809Z</time>
      </trkpt>
      <trkpt lat="44.26355" lon="2.54583">
        <ele>751</ele>
        <time>2022-06-12T08:59:57.809Z</time>
      </trkpt>
      <trkpt lat="44.26356" lon="2.54583">
        <ele>751</ele>
        <time>2022-06-12T08:59:58.809Z</time>
      </trkpt>
      <trkpt lat="44.26357" lon="2.54582">
        <ele>751</ele>
        <time>2022-06-12T08:59:59.809Z</time>
      </trkpt>
      <trkpt lat="44.26358" lon="2.54582">
        <ele>751</ele>
        <time>2022-06-12T09:00:00.809Z</time>
      </trkpt>
      <trkpt lat="44.26359" lon="2.54581">
        <ele>751</ele>
        <time>2022-06-12T09:00:01.809Z</time>
      </trkpt>
      <trkpt lat="44.2636" lon="2.54581">
        <ele>751</ele>
        <time>2022-06-12T09:00:02.809Z</time>
      </trkpt>
      <trkpt lat="44.26361" lon="2.54581">
        <ele>751</ele>
        <time>2022-06-12T09:00:03.809Z</time>
      </trkpt>
      <trkpt lat="44.26363" lon="2.54581">
        <ele>751</ele>
        <time>2022-06-12T09:00:04.809Z</time>
      </trkpt>
      <trkpt lat="44.26364" lon="2.5458">
        <ele>751</ele>
        <time>2022-06-12T09:00:05.809Z</time>
      </trkpt>
      <trkpt lat="44.26365" lon="2.5458">
        <ele>751</ele>
        <time>2022-06-12T09:00:06.809Z</time>
      </trkpt>
      <trkpt lat="44.26366" lon="2.5458">
        <ele>751</ele>
        <time>2022-06-12T09:00:07.809Z</time>
      </trkpt>
      <trkpt lat="44.26367" lon="2.5458">
        <ele>751</ele>
        <time>2022-06-12T09:00:08.809Z</time>
      </trkpt>
      <trkpt lat="44.26368" lon="2.5458">
        <ele>751</ele>
        <time>2022-06-12T09:00:09.809Z</time>
      </trkpt>
      <trkpt lat="44.26369" lon="2.5458">
        <ele>751</ele>
        <time>2022-06-12T09:00:10.809Z</time>
      </trkpt>
      <trkpt lat="44.2637" lon="2.5458">
        <ele>751</ele>
        <time>2022-06-12T09:00:11.809Z</time>
      </trkpt>
      <trkpt lat="44.26371" lon="2.54579">
        <ele>751</ele>
        <time>2022-06-12T09:00:12.809Z</time>
      </trkpt>
      <trkpt lat="44.26372" lon="2.54579">
        <ele>751</ele>
        <time>2022-06-12T09:00:13.809Z</time>
      </trkpt>
      <trkpt lat="44.26374" lon="2.54579">
        <ele>751</ele>
        <time>2022-06-12T09:00:14.809Z</time>
      </trkpt>
      <trkpt lat="44.26375" lon="2.54579">
        <ele>751</ele>
        <time>2022-06-12T09:00:15.809Z</time>
      </trkpt>
      <trkpt lat="44.26376" lon="2.54579">
        <ele>751</ele>
        <time>2022-06-12T09:00:16.809Z</time>
      </trkpt>
      <trkpt lat="44.26377" lon="2.54579">
        <ele>751</ele>
        <time>2022-06-12T09:00:17.809Z</time>
      </trkpt>
      <trkpt lat="44.26379" lon="2.54578">
        <ele>751</ele>
        <time>2022-06-12T09:00:18.809Z</time>
      </trkpt>
      <trkpt lat="44.2638" lon="2.54578">
        <ele>751</ele>
        <time>2022-06-12T09:00:19.809Z</time>
      </trkpt>
      <trkpt lat="44.26381" lon="2.54578">
        <ele>751</ele>
        <time>2022-06-12T09:00:20.809Z</time>
      </trkpt>
      <trkpt lat="44.26382" lon="2.54578">
        <ele>751</ele>
        <time>2022-06-12T09:00:21.809Z</time>
      </trkpt>
      <trkpt lat="44.26383" lon="2.54578">
        <ele>752</ele>
        <time>2022-06-12T09:00:22.809Z</time>
      </trkpt>
      <trkpt lat="44.26385" lon="2.54577">
        <ele>752</ele>
        <time>2022-06-12T09:00:23.809Z</time>
      </trkpt>
      <trkpt lat="44.26386" lon="2.54577">
        <ele>752</ele>
        <time>2022-06-12T09:00:24.809Z</time>
      </trkpt>
      <trkpt lat="44.26387" lon="2.54577">
        <ele>752</ele>
        <time>2022-06-12T09:00:25.809Z</time>
      </trkpt>
      <trkpt lat="44.26389" lon="2.54577">
        <ele>752</ele>
        <time>2022-06-12T09:00:26.809Z</time>
      </trkpt>
      <trkpt lat="44.2639" lon="2.54577">
        <ele>752</ele>
        <time>2022-06-12T09:00:27.809Z</time>
      </trkpt>
      <trkpt lat="44.26391" lon="2.54576">
        <ele>752</ele>
        <time>2022-06-12T09:00:28.809Z</time>
      </trkpt>
      <trkpt lat="44.26392" lon="2.54576">
        <ele>752</ele>
        <time>2022-06-12T09:00:29.809Z</time>
      </trkpt>
      <trkpt lat="44.26393" lon="2.54576">
        <ele>752</ele>
        <time>2022-06-12T09:00:30.809Z</time>
      </trkpt>
      <trkpt lat="44.26395" lon="2.54576">
        <ele>752</ele>
        <time>2022-06-12T09:00:31.809Z</time>
      </trkpt>
      <trkpt lat="44.26396" lon="2.54576">
        <ele>752</ele>
        <time>2022-06-12T09:00:32.809Z</time>
      </trkpt>
      <trkpt lat="44.26397" lon="2.54576">
        <ele>752</ele>
        <time>2022-06-12T09:00:33.809Z</time>
      </trkpt>
      <trkpt lat="44.26398" lon="2.54576">
        <ele>752</ele>
        <time>2022-06-12T09:00:34.809Z</time>
      </trkpt>
      <trkpt lat="44.264" lon="2.54576">
        <ele>752</ele>
        <time>2022-06-12T09:00:35.809Z</time>
      </trkpt>
      <trkpt lat="44.26401" lon="2.54575">
        <ele>752</ele>
        <time>2022-06-12T09:00:36.809Z</time>
      </trkpt>
      <trkpt lat="44.26401" lon="2.54575">
        <ele>752</ele>
        <time>2022-06-12T09:00:37.809Z</time>
      </trkpt>
      <trkpt lat="44.26402" lon="2.54575">
        <ele>752</ele>
        <time>2022-06-12T09:00:38.809Z</time>
      </trkpt>
      <trkpt lat="44.26402" lon="2.54574">
        <ele>752</ele>
        <time>2022-06-12T09:00:39.809Z</time>
      </trkpt>
      <trkpt lat="44.26402" lon="2.54574">
        <ele>752</ele>
        <time>2022-06-12T09:00:40.809Z</time>
      </trkpt>
      <trkpt lat="44.26402" lon="2.54573">
        <ele>752</ele>
        <time>2022-06-12T09:00:41.809Z</time>
      </trkpt>
      <trkpt lat="44.26404" lon="2.5457">
        <ele>753</ele>
        <time>2022-06-12T09:00:54.816Z</time>
      </trkpt>
      <trkpt lat="44.26404" lon="2.54569">
        <ele>753</ele>
        <time>2022-06-12T09:00:55.816Z</time>
      </trkpt>
      <trkpt lat="44.26405" lon="2.54568">
        <ele>753</ele>
        <time>2022-06-12T09:00:56.816Z</time>
      </trkpt>
      <trkpt lat="44.26405" lon="2.54567">
        <ele>753</ele>
        <time>2022-06-12T09:00:57.816Z</time>
      </trkpt>
      <trkpt lat="44.26406" lon="2.54565">
        <ele>753</ele>
        <time>2022-06-12T09:00:58.816Z</time>
      </trkpt>
      <trkpt lat="44.26406" lon="2.54564">
        <ele>753</ele>
        <time>2022-06-12T09:00:59.816Z</time>
      </trkpt>
      <trkpt lat="44.26406" lon="2.54563">
        <ele>753</ele>
        <time>2022-06-12T09:01:00.816Z</time>
      </trkpt>
      <trkpt lat="44.26407" lon="2.54561">
        <ele>753</ele>
        <time>2022-06-12T09:01:01.816Z</time>
      </trkpt>
      <trkpt lat="44.26408" lon="2.5456">
        <ele>753</ele>
        <time>2022-06-12T09:01:02.816Z</time>
      </trkpt>
      <trkpt lat="44.26408" lon="2.54559">
        <ele>753</ele>
        <time>2022-06-12T09:01:03.816Z</time>
      </trkpt>
      <trkpt lat="44.26408" lon="2.54557">
        <ele>753</ele>
        <time>2022-06-12T09:01:04.816Z</time>
      </trkpt>
      <trkpt lat="44.26409" lon="2.54556">
        <ele>753</ele>
        <time>2022-06-12T09:01:05.816Z</time>
      </trkpt>
      <trkpt lat="44.26409" lon="2.54555">
        <ele>753</ele>
        <time>2022-06-12T09:01:06.816Z</time>
      </trkpt>
      <trkpt lat="44.26409" lon="2.54553">
        <ele>753</ele>
        <time>2022-06-12T09:01:07.816Z</time>
      </trkpt>
      <trkpt lat="44.26409" lon="2.54552">
        <ele>753</ele>
        <time>2022-06-12T09:01:08.816Z</time>
      </trkpt>
      <trkpt lat="44.2641" lon="2.5455">
        <ele>753</ele>
        <time>2022-06-12T09:01:09.816Z</time>
      </trkpt>
      <trkpt lat="44.2641" lon="2.54549">
        <ele>753</ele>
        <time>2022-06-12T09:01:10.816Z</time>
      </trkpt>
      <trkpt lat="44.2641" lon="2.54547">
        <ele>753</ele>
        <time>2022-06-12T09:01:11.816Z</time>
      </trkpt>
      <trkpt lat="44.2641" lon="2.54546">
        <ele>753</ele>
        <time>2022-06-12T09:01:12.816Z</time>
      </trkpt>
      <trkpt lat="44.2641" lon="2.54544">
        <ele>753</ele>
        <time>2022-06-12T09:01:13.816Z</time>
      </trkpt>
      <trkpt lat="44.2641" lon="2.54542">
        <ele>753</ele>
        <time>2022-06-12T09:01:14.816Z</time>
      </trkpt>
      <trkpt lat="44.2641" lon="2.54542">
        <ele>753</ele>
        <time>2022-06-12T09:01:15.816Z</time>
      </trkpt>
      <trkpt lat="44.2641" lon="2.54542">
        <ele>753</ele>
        <time>2022-06-12T09:01:16.816Z</time>
      </trkpt>
      <trkpt lat="44.26411" lon="2.54541">
        <ele>753</ele>
        <time>2022-06-12T09:01:17.816Z</time>
      </trkpt>
      <trkpt lat="44.26411" lon="2.5454">
        <ele>753</ele>
        <time>2022-06-12T09:01:18.816Z</time>
      </trkpt>
      <trkpt lat="44.26411" lon="2.54539">
        <ele>753</ele>
        <time>2022-06-12T09:01:19.816Z</time>
      </trkpt>
      <trkpt lat="44.26412" lon="2.54538">
        <ele>753</ele>
        <time>2022-06-12T09:01:20.816Z</time>
      </trkpt>
      <trkpt lat="44.26412" lon="2.54536">
        <ele>753</ele>
        <time>2022-06-12T09:01:21.816Z</time>
      </trkpt>
      <trkpt lat="44.26412" lon="2.54534">
        <ele>753</ele>
        <time>2022-06-12T09:01:22.816Z</time>
      </trkpt>
      <trkpt lat="44.26413" lon="2.54533">
        <ele>753</ele>
        <time>2022-06-12T09:01:23.816Z</time>
      </trkpt>
      <trkpt lat="44.26413" lon="2.54531">
        <ele>753</ele>
        <time>2022-06-12T09:01:24.816Z</time>
      </trkpt>
      <trkpt lat="44.26414" lon="2.54529">
        <ele>753</ele>
        <time>2022-06-12T09:01:25.816Z</time>
      </trkpt>
      <trkpt lat="44.26414" lon="2.54527">
        <ele>753</ele>
        <time>2022-06-12T09:01:26.816Z</time>
      </trkpt>
      <trkpt lat="44.26414" lon="2.54525">
        <ele>753</ele>
        <time>2022-06-12T09:01:27.816Z</time>
      </trkpt>
      <trkpt lat="44.26415" lon="2.54524">
        <ele>753</ele>
        <time>2022-06-12T09:01:28.816Z</time>
      </trkpt>
      <trkpt lat="44.26415" lon="2.54522">
        <ele>753</ele>
        <time>2022-06-12T09:01:29.816Z</time>
      </trkpt>
      <trkpt lat="44.26416" lon="2.5452">
        <ele>754</ele>
        <time>2022-06-12T09:01:30.816Z</time>
      </trkpt>
      <trkpt lat="44.26417" lon="2.54519">
        <ele>754</ele>
        <time>2022-06-12T09:01:31.816Z</time>
      </trkpt>
      <trkpt lat="44.26417" lon="2.54517">
        <ele>754</ele>
        <time>2022-06-12T09:01:32.816Z</time>
      </trkpt>
      <trkpt lat="44.26417" lon="2.54516">
        <ele>754</ele>
        <time>2022-06-12T09:01:33.816Z</time>
      </trkpt>
      <trkpt lat="44.26418" lon="2.54514">
        <ele>754</ele>
        <time>2022-06-12T09:01:34.816Z</time>
      </trkpt>
      <trkpt lat="44.26418" lon="2.54512">
        <ele>754</ele>
        <time>2022-06-12T09:01:35.816Z</time>
      </trkpt>
      <trkpt lat="44.26418" lon="2.54511">
        <ele>754</ele>
        <time>2022-06-12T09:01:36.816Z</time>
      </trkpt>
      <trkpt lat="44.26419" lon="2.54509">
        <ele>754</ele>
        <time>2022-06-12T09:01:37.816Z</time>
      </trkpt>
      <trkpt lat="44.26419" lon="2.54508">
        <ele>753</ele>
        <time>2022-06-12T09:01:38.816Z</time>
      </trkpt>
      <trkpt lat="44.26419" lon="2.54506">
        <ele>753</ele>
        <time>2022-06-12T09:01:39.816Z</time>
      </trkpt>
      <trkpt lat="44.26419" lon="2.54504">
        <ele>753</ele>
        <time>2022-06-12T09:01:40.816Z</time>
      </trkpt>
      <trkpt lat="44.2642" lon="2.54503">
        <ele>753</ele>
        <time>2022-06-12T09:01:41.816Z</time>
      </trkpt>
      <trkpt lat="44.2642" lon="2.54501">
        <ele>753</ele>
        <time>2022-06-12T09:01:42.816Z</time>
      </trkpt>
      <trkpt lat="44.2642" lon="2.545">
        <ele>753</ele>
        <time>2022-06-12T09:01:43.816Z</time>
      </trkpt>
      <trkpt lat="44.2642" lon="2.54498">
        <ele>753</ele>
        <time>2022-06-12T09:01:44.816Z</time>
      </trkpt>
      <trkpt lat="44.2642" lon="2.54497">
        <ele>753</ele>
        <time>2022-06-12T09:01:45.816Z</time>
      </trkpt>
      <trkpt lat="44.26421" lon="2.54495">
        <ele>753</ele>
        <time>2022-06-12T09:01:46.816Z</time>
      </trkpt>
      <trkpt lat="44.26421" lon="2.54493">
        <ele>753</ele>
        <time>2022-06-12T09:01:47.816Z</time>
      </trkpt>
      <trkpt lat="44.26421" lon="2.54491">
        <ele>753</ele>
        <time>2022-06-12T09:01:48.816Z</time>
      </trkpt>
      <trkpt lat="44.26421" lon="2.54489">
        <ele>753</ele>
        <time>2022-06-12T09:01:49.816Z</time>
      </trkpt>
      <trkpt lat="44.26421" lon="2.54488">
        <ele>753</ele>
        <time>2022-06-12T09:01:50.816Z</time>
      </trkpt>
      <trkpt lat="44.26421" lon="2.54486">
        <ele>753</ele>
        <time>2022-06-12T09:01:51.816Z</time>
      </trkpt>
      <trkpt lat="44.26422" lon="2.54484">
        <ele>753</ele>
        <time>2022-06-12T09:01:52.816Z</time>
      </trkpt>
      <trkpt lat="44.26422" lon="2.54482">
        <ele>753</ele>
        <time>2022-06-12T09:01:53.816Z</time>
      </trkpt>
      <trkpt lat="44.26422" lon="2.54481">
        <ele>753</ele>
        <time>2022-06-12T09:01:54.816Z</time>
      </trkpt>
      <trkpt lat="44.26422" lon="2.5448">
        <ele>753</ele>
        <time>2022-06-12T09:01:55.816Z</time>
      </trkpt>
      <trkpt lat="44.26423" lon="2.54479">
        <ele>754</ele>
        <time>2022-06-12T09:01:56.816Z</time>
      </trkpt>
      <trkpt lat="44.26423" lon="2.54478">
        <ele>754</ele>
        <time>2022-06-12T09:01:57.816Z</time>
      </trkpt>
      <trkpt lat="44.26423" lon="2.54478">
        <ele>754</ele>
        <time>2022-06-12T09:01:58.816Z</time>
      </trkpt>
      <trkpt lat="44.26423" lon="2.54478">
        <ele>754</ele>
        <time>2022-06-12T09:01:59.816Z</time>
      </trkpt>
      <trkpt lat="44.26423" lon="2.54477">
        <ele>754</ele>
        <time>2022-06-12T09:02:00.816Z</time>
      </trkpt>
      <trkpt lat="44.26423" lon="2.54473">
        <ele>755</ele>
        <time>2022-06-12T09:02:20.823Z</time>
      </trkpt>
      <trkpt lat="44.26423" lon="2.54472">
        <ele>755</ele>
        <time>2022-06-12T09:02:21.823Z</time>
      </trkpt>
      <trkpt lat="44.26421" lon="2.54469">
        <ele>756</ele>
        <time>2022-06-12T09:02:48.830Z</time>
      </trkpt>
      <trkpt lat="44.26421" lon="2.54469">
        <ele>756</ele>
        <time>2022-06-12T09:02:49.830Z</time>
      </trkpt>
      <trkpt lat="44.26421" lon="2.54468">
        <ele>756</ele>
        <time>2022-06-12T09:02:53.084Z</time>
      </trkpt>
      <trkpt lat="44.26421" lon="2.54467">
        <ele>756</ele>
        <time>2022-06-12T09:02:54.084Z</time>
      </trkpt>
      <trkpt lat="44.26421" lon="2.54465">
        <ele>757</ele>
        <time>2022-06-12T09:02:55.084Z</time>
      </trkpt>
      <trkpt lat="44.26421" lon="2.54464">
        <ele>757</ele>
        <time>2022-06-12T09:02:56.084Z</time>
      </trkpt>
      <trkpt lat="44.2642" lon="2.54463">
        <ele>757</ele>
        <time>2022-06-12T09:02:57.084Z</time>
      </trkpt>
      <trkpt lat="44.26419" lon="2.54462">
        <ele>757</ele>
        <time>2022-06-12T09:02:58.084Z</time>
      </trkpt>
      <trkpt lat="44.26419" lon="2.5446">
        <ele>757</ele>
        <time>2022-06-12T09:02:59.084Z</time>
      </trkpt>
      <trkpt lat="44.26418" lon="2.54459">
        <ele>757</ele>
        <time>2022-06-12T09:03:00.084Z</time>
      </trkpt>
      <trkpt lat="44.26418" lon="2.54458">
        <ele>757</ele>
        <time>2022-06-12T09:03:01.084Z</time>
      </trkpt>
      <trkpt lat="44.26417" lon="2.54457">
        <ele>756</ele>
        <time>2022-06-12T09:03:02.084Z</time>
      </trkpt>
      <trkpt lat="44.26417" lon="2.54455">
        <ele>756</ele>
        <time>2022-06-12T09:03:03.084Z</time>
      </trkpt>
      <trkpt lat="44.26417" lon="2.54454">
        <ele>756</ele>
        <time>2022-06-12T09:03:04.084Z</time>
      </trkpt>
      <trkpt lat="44.26416" lon="2.54454">
        <ele>756</ele>
        <time>2022-06-12T09:03:05.084Z</time>
      </trkpt>
      <trkpt lat="44.26416" lon="2.54453">
        <ele>756</ele>
        <time>2022-06-12T09:03:06.084Z</time>
      </trkpt>
      <trkpt lat="44.26416" lon="2.54453">
        <ele>756</ele>
        <time>2022-06-12T09:03:07.084Z</time>
      </trkpt>
      <trkpt lat="44.26416" lon="2.54452">
        <ele>756</ele>
        <time>2022-06-12T09:03:08.084Z</time>
      </trkpt>
      <trkpt lat="44.26415" lon="2.54451">
        <ele>756</ele>
        <time>2022-06-12T09:03:09.084Z</time>
      </trkpt>
      <trkpt lat="44.26415" lon="2.54451">
        <ele>756</ele>
        <time>2022-06-12T09:03:10.084Z</time>
      </trkpt>
      <trkpt lat="44.26415" lon="2.54451">
        <ele>756</ele>
        <time>2022-06-12T09:03:11.084Z</time>
      </trkpt>
      <trkpt lat="44.26416" lon="2.54451">
        <ele>756</ele>
        <time>2022-06-12T09:03:12.084Z</time>
      </trkpt>
      <trkpt lat="44.26416" lon="2.54452">
        <ele>756</ele>
        <time>2022-06-12T09:03:13.084Z</time>
      </trkpt>
      <trkpt lat="44.26417" lon="2.54453">
        <ele>756</ele>
        <time>2022-06-12T09:03:14.084Z</time>
      </trkpt>
      <trkpt lat="44.26418" lon="2.54454">
        <ele>756</ele>
        <time>2022-06-12T09:03:15.084Z</time>
      </trkpt>
      <trkpt lat="44.26418" lon="2.54455">
        <ele>756</ele>
        <time>2022-06-12T09:03:16.084Z</time>
      </trkpt>
      <trkpt lat="44.26419" lon="2.54457">
        <ele>756</ele>
        <time>2022-06-12T09:03:17.084Z</time>
      </trkpt>
      <trkpt lat="44.2642" lon="2.54458">
        <ele>755</ele>
        <time>2022-06-12T09:03:18.084Z</time>
      </trkpt>
      <trkpt lat="44.2642" lon="2.54459">
        <ele>755</ele>
        <time>2022-06-12T09:03:19.084Z</time>
      </trkpt>
      <trkpt lat="44.2642" lon="2.54459">
        <ele>755</ele>
        <time>2022-06-12T09:03:20.084Z</time>
      </trkpt>
      <trkpt lat="44.2642" lon="2.5446">
        <ele>755</ele>
        <time>2022-06-12T09:03:21.084Z</time>
      </trkpt>
      <trkpt lat="44.2642" lon="2.5446">
        <ele>755</ele>
        <time>2022-06-12T09:03:22.084Z</time>
      </trkpt>
      <trkpt lat="44.26421" lon="2.5446">
        <ele>755</ele>
        <time>2022-06-12T09:03:23.084Z</time>
      </trkpt>
      <trkpt lat="44.26421" lon="2.5446">
        <ele>755</ele>
        <time>2022-06-12T09:03:24.084Z</time>
      </trkpt>
      <trkpt lat="44.2642" lon="2.54459">
        <ele>754</ele>
        <time>2022-06-12T09:03:28.090Z</time>
      </trkpt>
      <trkpt lat="44.2642" lon="2.54458">
        <ele>754</ele>
        <time>2022-06-12T09:03:29.090Z</time>
      </trkpt>
      <trkpt lat="44.26419" lon="2.54456">
        <ele>754</ele>
        <time>2022-06-12T09:03:30.090Z</time>
      </trkpt>
      <trkpt lat="44.26419" lon="2.54455">
        <ele>754</ele>
        <time>2022-06-12T09:03:31.090Z</time>
      </trkpt>
      <trkpt lat="44.26419" lon="2.54454">
        <ele>754</ele>
        <time>2022-06-12T09:03:32.090Z</time>
      </trkpt>
      <trkpt lat="44.26418" lon="2.54454">
        <ele>754</ele>
        <time>2022-06-12T09:03:33.090Z</time>
      </trkpt>
      <trkpt lat="44.26418" lon="2.54453">
        <ele>754</ele>
        <time>2022-06-12T09:03:34.090Z</time>
      </trkpt>
      <trkpt lat="44.26417" lon="2.54452">
        <ele>754</ele>
        <time>2022-06-12T09:03:35.090Z</time>
      </trkpt>
      <trkpt lat="44.26416" lon="2.5445">
        <ele>754</ele>
        <time>2022-06-12T09:03:36.090Z</time>
      </trkpt>
      <trkpt lat="44.26415" lon="2.54449">
        <ele>754</ele>
        <time>2022-06-12T09:03:37.090Z</time>
      </trkpt>
      <trkpt lat="44.26415" lon="2.54448">
        <ele>754</ele>
        <time>2022-06-12T09:03:38.090Z</time>
      </trkpt>
      <trkpt lat="44.26414" lon="2.54446">
        <ele>754</ele>
        <time>2022-06-12T09:03:39.090Z</time>
      </trkpt>
      <trkpt lat="44.26413" lon="2.54445">
        <ele>754</ele>
        <time>2022-06-12T09:03:40.090Z</time>
      </trkpt>
      <trkpt lat="44.26412" lon="2.54444">
        <ele>754</ele>
        <time>2022-06-12T09:03:41.090Z</time>
      </trkpt>
      <trkpt lat="44.26411" lon="2.54444">
        <ele>754</ele>
        <time>2022-06-12T09:03:42.090Z</time>
      </trkpt>
      <trkpt lat="44.2641" lon="2.54443">
        <ele>754</ele>
        <time>2022-06-12T09:03:43.090Z</time>
      </trkpt>
      <trkpt lat="44.26409" lon="2.54443">
        <ele>754</ele>
        <time>2022-06-12T09:03:44.090Z</time>
      </trkpt>
      <trkpt lat="44.26407" lon="2.54442">
        <ele>754</ele>
        <time>2022-06-12T09:03:45.090Z</time>
      </trkpt>
      <trkpt lat="44.26406" lon="2.54441">
        <ele>754</ele>
        <time>2022-06-12T09:03:46.090Z</time>
      </trkpt>
      <trkpt lat="44.26405" lon="2.5444">
        <ele>754</ele>
        <time>2022-06-12T09:03:47.090Z</time>
      </trkpt>
      <trkpt lat="44.26404" lon="2.5444">
        <ele>754</ele>
        <time>2022-06-12T09:03:48.090Z</time>
      </trkpt>
      <trkpt lat="44.26403" lon="2.54438">
        <ele>754</ele>
        <time>2022-06-12T09:03:49.090Z</time>
      </trkpt>
      <trkpt lat="44.26402" lon="2.54437">
        <ele>754</ele>
        <time>2022-06-12T09:03:50.090Z</time>
      </trkpt>
      <trkpt lat="44.26401" lon="2.54435">
        <ele>754</ele>
        <time>2022-06-12T09:03:51.090Z</time>
      </trkpt>
      <trkpt lat="44.264" lon="2.54433">
        <ele>754</ele>
        <time>2022-06-12T09:03:52.090Z</time>
      </trkpt>
      <trkpt lat="44.264" lon="2.54431">
        <ele>754</ele>
        <time>2022-06-12T09:03:53.090Z</time>
      </trkpt>
      <trkpt lat="44.26399" lon="2.54429">
        <ele>754</ele>
        <time>2022-06-12T09:03:54.090Z</time>
      </trkpt>
      <trkpt lat="44.26399" lon="2.54428">
        <ele>754</ele>
        <time>2022-06-12T09:03:55.090Z</time>
      </trkpt>
      <trkpt lat="44.26398" lon="2.54426">
        <ele>754</ele>
        <time>2022-06-12T09:03:56.090Z</time>
      </trkpt>
      <trkpt lat="44.26398" lon="2.54424">
        <ele>754</ele>
        <time>2022-06-12T09:03:57.090Z</time>
      </trkpt>
      <trkpt lat="44.26398" lon="2.54422">
        <ele>754</ele>
        <time>2022-06-12T09:03:58.090Z</time>
      </trkpt>
      <trkpt lat="44.26397" lon="2.5442">
        <ele>754</ele>
        <time>2022-06-12T09:03:59.090Z</time>
      </trkpt>
      <trkpt lat="44.26397" lon="2.54418">
        <ele>754</ele>
        <time>2022-06-12T09:04:00.090Z</time>
      </trkpt>
      <trkpt lat="44.26397" lon="2.54416">
        <ele>754</ele>
        <time>2022-06-12T09:04:01.090Z</time>
      </trkpt>
      <trkpt lat="44.26397" lon="2.54414">
        <ele>754</ele>
        <time>2022-06-12T09:04:02.090Z</time>
      </trkpt>
      <trkpt lat="44.26396" lon="2.54412">
        <ele>754</ele>
        <time>2022-06-12T09:04:03.090Z</time>
      </trkpt>
      <trkpt lat="44.26396" lon="2.5441">
        <ele>754</ele>
        <time>2022-06-12T09:04:04.090Z</time>
      </trkpt>
      <trkpt lat="44.26395" lon="2.54409">
        <ele>754</ele>
        <time>2022-06-12T09:04:05.090Z</time>
      </trkpt>
      <trkpt lat="44.26394" lon="2.54408">
        <ele>754</ele>
        <time>2022-06-12T09:04:06.090Z</time>
      </trkpt>
      <trkpt lat="44.26393" lon="2.54406">
        <ele>754</ele>
        <time>2022-06-12T09:04:07.090Z</time>
      </trkpt>
      <trkpt lat="44.26392" lon="2.54404">
        <ele>755</ele>
        <time>2022-06-12T09:04:08.090Z</time>
      </trkpt>
      <trkpt lat="44.26392" lon="2.54403">
        <ele>755</ele>
        <time>2022-06-12T09:04:09.090Z</time>
      </trkpt>
      <trkpt lat="44.26391" lon="2.54402">
        <ele>755</ele>
        <time>2022-06-12T09:04:10.090Z</time>
      </trkpt>
      <trkpt lat="44.2639" lon="2.544">
        <ele>755</ele>
        <time>2022-06-12T09:04:11.090Z</time>
      </trkpt>
      <trkpt lat="44.2639" lon="2.54398">
        <ele>755</ele>
        <time>2022-06-12T09:04:12.090Z</time>
      </trkpt>
      <trkpt lat="44.26389" lon="2.54397">
        <ele>755</ele>
        <time>2022-06-12T09:04:13.090Z</time>
      </trkpt>
      <trkpt lat="44.26388" lon="2.54395">
        <ele>755</ele>
        <time>2022-06-12T09:04:14.090Z</time>
      </trkpt>
      <trkpt lat="44.26387" lon="2.54394">
        <ele>756</ele>
        <time>2022-06-12T09:04:15.090Z</time>
      </trkpt>
      <trkpt lat="44.26386" lon="2.54393">
        <ele>756</ele>
        <time>2022-06-12T09:04:16.090Z</time>
      </trkpt>
      <trkpt lat="44.26385" lon="2.54391">
        <ele>756</ele>
        <time>2022-06-12T09:04:17.090Z</time>
      </trkpt>
      <trkpt lat="44.26384" lon="2.5439">
        <ele>756</ele>
        <time>2022-06-12T09:04:18.090Z</time>
      </trkpt>
      <trkpt lat="44.26383" lon="2.54389">
        <ele>756</ele>
        <time>2022-06-12T09:04:19.090Z</time>
      </trkpt>
      <trkpt lat="44.26382" lon="2.54389">
        <ele>756</ele>
        <time>2022-06-12T09:04:20.090Z</time>
      </trkpt>
      <trkpt lat="44.2638" lon="2.54388">
        <ele>756</ele>
        <time>2022-06-12T09:04:21.090Z</time>
      </trkpt>
      <trkpt lat="44.26379" lon="2.54387">
        <ele>756</ele>
        <time>2022-06-12T09:04:22.090Z</time>
      </trkpt>
      <trkpt lat="44.26378" lon="2.54386">
        <ele>756</ele>
        <time>2022-06-12T09:04:23.090Z</time>
      </trkpt>
      <trkpt lat="44.26376" lon="2.54386">
        <ele>756</ele>
        <time>2022-06-12T09:04:24.090Z</time>
      </trkpt>
      <trkpt lat="44.26375" lon="2.54385">
        <ele>756</ele>
        <time>2022-06-12T09:04:25.090Z</time>
      </trkpt>
      <trkpt lat="44.26374" lon="2.54385">
        <ele>756</ele>
        <time>2022-06-12T09:04:26.090Z</time>
      </trkpt>
      <trkpt lat="44.26373" lon="2.54384">
        <ele>756</ele>
        <time>2022-06-12T09:04:27.090Z</time>
      </trkpt>
      <trkpt lat="44.26372" lon="2.54384">
        <ele>756</ele>
        <time>2022-06-12T09:04:28.090Z</time>
      </trkpt>
      <trkpt lat="44.26371" lon="2.54383">
        <ele>756</ele>
        <time>2022-06-12T09:04:29.090Z</time>
      </trkpt>
      <trkpt lat="44.2637" lon="2.54382">
        <ele>756</ele>
        <time>2022-06-12T09:04:30.090Z</time>
      </trkpt>
      <trkpt lat="44.26368" lon="2.5438">
        <ele>756</ele>
        <time>2022-06-12T09:04:31.090Z</time>
      </trkpt>
      <trkpt lat="44.26367" lon="2.54379">
        <ele>756</ele>
        <time>2022-06-12T09:04:32.090Z</time>
      </trkpt>
      <trkpt lat="44.26367" lon="2.54377">
        <ele>756</ele>
        <time>2022-06-12T09:04:33.090Z</time>
      </trkpt>
      <trkpt lat="44.26366" lon="2.54375">
        <ele>756</ele>
        <time>2022-06-12T09:04:34.090Z</time>
      </trkpt>
      <trkpt lat="44.26366" lon="2.54374">
        <ele>756</ele>
        <time>2022-06-12T09:04:35.090Z</time>
      </trkpt>
      <trkpt lat="44.26366" lon="2.54373">
        <ele>756</ele>
        <time>2022-06-12T09:04:36.090Z</time>
      </trkpt>
      <trkpt lat="44.26366" lon="2.54372">
        <ele>756</ele>
        <time>2022-06-12T09:04:37.090Z</time>
      </trkpt>
      <trkpt lat="44.26366" lon="2.54372">
        <ele>756</ele>
        <time>2022-06-12T09:04:38.090Z</time>
      </trkpt>
      <trkpt lat="44.26366" lon="2.54372">
        <ele>756</ele>
        <time>2022-06-12T09:04:39.090Z</time>
      </trkpt>
      <trkpt lat="44.26366" lon="2.54372">
        <ele>756</ele>
        <time>2022-06-12T09:04:40.090Z</time>
      </trkpt>
      <trkpt lat="44.26366" lon="2.5437">
        <ele>756</ele>
        <time>2022-06-12T09:04:45.097Z</time>
      </trkpt>
      <trkpt lat="44.26366" lon="2.54369">
        <ele>756</ele>
        <time>2022-06-12T09:04:46.097Z</time>
      </trkpt>
      <trkpt lat="44.26366" lon="2.54368">
        <ele>756</ele>
        <time>2022-06-12T09:04:47.097Z</time>
      </trkpt>
      <trkpt lat="44.26367" lon="2.54366">
        <ele>756</ele>
        <time>2022-06-12T09:04:48.097Z</time>
      </trkpt>
      <trkpt lat="44.26367" lon="2.54365">
        <ele>756</ele>
        <time>2022-06-12T09:04:49.097Z</time>
      </trkpt>
      <trkpt lat="44.26367" lon="2.54363">
        <ele>756</ele>
        <time>2022-06-12T09:04:50.097Z</time>
      </trkpt>
      <trkpt lat="44.26367" lon="2.54361">
        <ele>755</ele>
        <time>2022-06-12T09:04:51.097Z</time>
      </trkpt>
      <trkpt lat="44.26367" lon="2.54359">
        <ele>755</ele>
        <time>2022-06-12T09:04:52.097Z</time>
      </trkpt>
      <trkpt lat="44.26368" lon="2.54357">
        <ele>755</ele>
        <time>2022-06-12T09:04:53.097Z</time>
      </trkpt>
      <trkpt lat="44.26368" lon="2.54356">
        <ele>755</ele>
        <time>2022-06-12T09:04:54.097Z</time>
      </trkpt>
      <trkpt lat="44.26368" lon="2.54354">
        <ele>755</ele>
        <time>2022-06-12T09:04:55.097Z</time>
      </trkpt>
      <trkpt lat="44.26368" lon="2.54352">
        <ele>755</ele>
        <time>2022-06-12T09:04:56.097Z</time>
      </trkpt>
      <trkpt lat="44.26368" lon="2.54351">
        <ele>756</ele>
        <time>2022-06-12T09:04:57.097Z</time>
      </trkpt>
      <trkpt lat="44.26368" lon="2.54349">
        <ele>756</ele>
        <time>2022-06-12T09:04:58.097Z</time>
      </trkpt>
      <trkpt lat="44.26368" lon="2.54347">
        <ele>756</ele>
        <time>2022-06-12T09:04:59.097Z</time>
      </trkpt>
      <trkpt lat="44.26368" lon="2.54346">
        <ele>756</ele>
        <time>2022-06-12T09:05:00.097Z</time>
      </trkpt>
      <trkpt lat="44.26369" lon="2.54344">
        <ele>756</ele>
        <time>2022-06-12T09:05:01.097Z</time>
      </trkpt>
      <trkpt lat="44.26369" lon="2.54343">
        <ele>756</ele>
        <time>2022-06-12T09:05:02.097Z</time>
      </trkpt>
      <trkpt lat="44.26369" lon="2.54341">
        <ele>756</ele>
        <time>2022-06-12T09:05:03.097Z</time>
      </trkpt>
      <trkpt lat="44.26369" lon="2.54339">
        <ele>756</ele>
        <time>2022-06-12T09:05:04.097Z</time>
      </trkpt>
      <trkpt lat="44.26369" lon="2.54337">
        <ele>756</ele>
        <time>2022-06-12T09:05:05.097Z</time>
      </trkpt>
      <trkpt lat="44.26369" lon="2.54336">
        <ele>756</ele>
        <time>2022-06-12T09:05:06.097Z</time>
      </trkpt>
      <trkpt lat="44.26369" lon="2.54334">
        <ele>756</ele>
        <time>2022-06-12T09:05:07.097Z</time>
      </trkpt>
      <trkpt lat="44.26369" lon="2.54333">
        <ele>756</ele>
        <time>2022-06-12T09:05:08.097Z</time>
      </trkpt>
      <trkpt lat="44.26369" lon="2.54331">
        <ele>756</ele>
        <time>2022-06-12T09:05:09.097Z</time>
      </trkpt>
      <trkpt lat="44.2637" lon="2.54329">
        <ele>756</ele>
        <time>2022-06-12T09:05:10.097Z</time>
      </trkpt>
      <trkpt lat="44.2637" lon="2.54328">
        <ele>756</ele>
        <time>2022-06-12T09:05:11.097Z</time>
      </trkpt>
      <trkpt lat="44.2637" lon="2.54326">
        <ele>756</ele>
        <time>2022-06-12T09:05:12.097Z</time>
      </trkpt>
      <trkpt lat="44.2637" lon="2.54324">
        <ele>756</ele>
        <time>2022-06-12T09:05:13.097Z</time>
      </trkpt>
      <trkpt lat="44.2637" lon="2.54322">
        <ele>756</ele>
        <time>2022-06-12T09:05:14.097Z</time>
      </trkpt>
      <trkpt lat="44.2637" lon="2.54321">
        <ele>756</ele>
        <time>2022-06-12T09:05:15.097Z</time>
      </trkpt>
      <trkpt lat="44.2637" lon="2.54319">
        <ele>756</ele>
        <time>2022-06-12T09:05:16.097Z</time>
      </trkpt>
      <trkpt lat="44.26371" lon="2.54317">
        <ele>757</ele>
        <time>2022-06-12T09:05:17.097Z</time>
      </trkpt>
      <trkpt lat="44.26371" lon="2.54315">
        <ele>757</ele>
        <time>2022-06-12T09:05:18.097Z</time>
      </trkpt>
      <trkpt lat="44.26371" lon="2.54314">
        <ele>757</ele>
        <time>2022-06-12T09:05:19.097Z</time>
      </trkpt>
      <trkpt lat="44.26371" lon="2.54312">
        <ele>757</ele>
        <time>2022-06-12T09:05:20.097Z</time>
      </trkpt>
      <trkpt lat="44.26371" lon="2.5431">
        <ele>757</ele>
        <time>2022-06-12T09:05:21.097Z</time>
      </trkpt>
      <trkpt lat="44.26371" lon="2.54309">
        <ele>757</ele>
        <time>2022-06-12T09:05:22.097Z</time>
      </trkpt>
      <trkpt lat="44.26372" lon="2.54307">
        <ele>756</ele>
        <time>2022-06-12T09:05:23.097Z</time>
      </trkpt>
      <trkpt lat="44.26372" lon="2.54306">
        <ele>756</ele>
        <time>2022-06-12T09:05:24.097Z</time>
      </trkpt>
      <trkpt lat="44.26372" lon="2.54304">
        <ele>756</ele>
        <time>2022-06-12T09:05:25.097Z</time>
      </trkpt>
      <trkpt lat="44.26372" lon="2.54303">
        <ele>756</ele>
        <time>2022-06-12T09:05:26.097Z</time>
      </trkpt>
      <trkpt lat="44.26372" lon="2.54301">
        <ele>756</ele>
        <time>2022-06-12T09:05:27.097Z</time>
      </trkpt>
      <trkpt lat="44.26373" lon="2.54299">
        <ele>756</ele>
        <time>2022-06-12T09:05:28.097Z</time>
      </trkpt>
      <trkpt lat="44.26373" lon="2.54298">
        <ele>756</ele>
        <time>2022-06-12T09:05:29.097Z</time>
      </trkpt>
      <trkpt lat="44.26373" lon="2.54296">
        <ele>756</ele>
        <time>2022-06-12T09:05:30.097Z</time>
      </trkpt>
      <trkpt lat="44.26373" lon="2.54295">
        <ele>756</ele>
        <time>2022-06-12T09:05:31.097Z</time>
      </trkpt>
      <trkpt lat="44.26373" lon="2.54293">
        <ele>756</ele>
        <time>2022-06-12T09:05:32.097Z</time>
      </trkpt>
      <trkpt lat="44.26373" lon="2.54292">
        <ele>756</ele>
        <time>2022-06-12T09:05:33.097Z</time>
      </trkpt>
      <trkpt lat="44.26373" lon="2.5429">
        <ele>756</ele>
        <time>2022-06-12T09:05:34.097Z</time>
      </trkpt>
      <trkpt lat="44.26373" lon="2.54288">
        <ele>756</ele>
        <time>2022-06-12T09:05:35.097Z</time>
      </trkpt>
      <trkpt lat="44.26373" lon="2.54287">
        <ele>756</ele>
        <time>2022-06-12T09:05:36.097Z</time>
      </trkpt>
      <trkpt lat="44.26373" lon="2.54286">
        <ele>756</ele>
        <time>2022-06-12T09:05:37.097Z</time>
      </trkpt>
      <trkpt lat="44.26374" lon="2.54285">
        <ele>756</ele>
        <time>2022-06-12T09:05:38.097Z</time>
      </trkpt>
      <trkpt lat="44.26374" lon="2.54284">
        <ele>756</ele>
        <time>2022-06-12T09:05:39.097Z</time>
      </trkpt>
      <trkpt lat="44.26374" lon="2.54283">
        <ele>756</ele>
        <time>2022-06-12T09:05:40.097Z</time>
      </trkpt>
      <trkpt lat="44.26374" lon="2.54282">
        <ele>756</ele>
        <time>2022-06-12T09:05:41.097Z</time>
      </trkpt>
      <trkpt lat="44.26374" lon="2.54281">
        <ele>756</ele>
        <time>2022-06-12T09:05:42.097Z</time>
      </trkpt>
      <trkpt lat="44.26373" lon="2.5428">
        <ele>757</ele>
        <time>2022-06-12T09:05:43.097Z</time>
      </trkpt>
      <trkpt lat="44.26373" lon="2.54279">
        <ele>757</ele>
        <time>2022-06-12T09:05:44.097Z</time>
      </trkpt>
      <trkpt lat="44.26373" lon="2.54278">
        <ele>757</ele>
        <time>2022-06-12T09:05:45.097Z</time>
      </trkpt>
      <trkpt lat="44.26372" lon="2.54277">
        <ele>757</ele>
        <time>2022-06-12T09:05:46.097Z</time>
      </trkpt>
      <trkpt lat="44.26372" lon="2.54275">
        <ele>757</ele>
        <time>2022-06-12T09:05:47.097Z</time>
      </trkpt>
      <trkpt lat="44.26371" lon="2.54274">
        <ele>757</ele>
        <time>2022-06-12T09:05:48.097Z</time>
      </trkpt>
      <trkpt lat="44.2637" lon="2.54272">
        <ele>757</ele>
        <time>2022-06-12T09:05:49.097Z</time>
      </trkpt>
      <trkpt lat="44.2637" lon="2.54271">
        <ele>757</ele>
        <time>2022-06-12T09:05:50.097Z</time>
      </trkpt>
      <trkpt lat="44.26369" lon="2.54269">
        <ele>757</ele>
        <time>2022-06-12T09:05:51.097Z</time>
      </trkpt>
      <trkpt lat="44.26369" lon="2.54268">
        <ele>757</ele>
        <time>2022-06-12T09:05:52.097Z</time>
      </trkpt>
      <trkpt lat="44.26369" lon="2.54267">
        <ele>757</ele>
        <time>2022-06-12T09:05:53.097Z</time>
      </trkpt>
      <trkpt lat="44.26368" lon="2.54265">
        <ele>757</ele>
        <time>2022-06-12T09:05:54.097Z</time>
      </trkpt>
      <trkpt lat="44.26368" lon="2.54264">
        <ele>757</ele>
        <time>2022-06-12T09:05:55.097Z</time>
      </trkpt>
      <trkpt lat="44.26367" lon="2.54263">
        <ele>758</ele>
        <time>2022-06-12T09:05:56.097Z</time>
      </trkpt>
      <trkpt lat="44.26367" lon="2.54262">
        <ele>758</ele>
        <time>2022-06-12T09:05:57.097Z</time>
      </trkpt>
      <trkpt lat="44.26366" lon="2.54261">
        <ele>758</ele>
        <time>2022-06-12T09:05:58.097Z</time>
      </trkpt>
      <trkpt lat="44.26366" lon="2.5426">
        <ele>758</ele>
        <time>2022-06-12T09:05:59.097Z</time>
      </trkpt>
      <trkpt lat="44.26365" lon="2.54259">
        <ele>758</ele>
        <time>2022-06-12T09:06:00.097Z</time>
      </trkpt>
      <trkpt lat="44.26365" lon="2.54258">
        <ele>758</ele>
        <time>2022-06-12T09:06:01.097Z</time>
      </trkpt>
      <trkpt lat="44.26364" lon="2.54257">
        <ele>759</ele>
        <time>2022-06-12T09:06:02.097Z</time>
      </trkpt>
      <trkpt lat="44.26364" lon="2.54256">
        <ele>759</ele>
        <time>2022-06-12T09:06:03.097Z</time>
      </trkpt>
      <trkpt lat="44.26363" lon="2.54255">
        <ele>759</ele>
        <time>2022-06-12T09:06:04.097Z</time>
      </trkpt>
      <trkpt lat="44.26363" lon="2.54254">
        <ele>759</ele>
        <time>2022-06-12T09:06:05.097Z</time>
      </trkpt>
      <trkpt lat="44.26362" lon="2.54253">
        <ele>759</ele>
        <time>2022-06-12T09:06:06.097Z</time>
      </trkpt>
      <trkpt lat="44.26361" lon="2.54253">
        <ele>759</ele>
        <time>2022-06-12T09:06:07.097Z</time>
      </trkpt>
      <trkpt lat="44.26361" lon="2.54251">
        <ele>759</ele>
        <time>2022-06-12T09:06:08.097Z</time>
      </trkpt>
      <trkpt lat="44.2636" lon="2.5425">
        <ele>759</ele>
        <time>2022-06-12T09:06:09.097Z</time>
      </trkpt>
      <trkpt lat="44.2636" lon="2.54249">
        <ele>759</ele>
        <time>2022-06-12T09:06:10.097Z</time>
      </trkpt>
      <trkpt lat="44.2636" lon="2.54248">
        <ele>759</ele>
        <time>2022-06-12T09:06:11.097Z</time>
      </trkpt>
      <trkpt lat="44.26359" lon="2.54247">
        <ele>759</ele>
        <time>2022-06-12T09:06:12.097Z</time>
      </trkpt>
      <trkpt lat="44.26359" lon="2.54246">
        <ele>759</ele>
        <time>2022-06-12T09:06:13.097Z</time>
      </trkpt>
      <trkpt lat="44.26358" lon="2.54245">
        <ele>759</ele>
        <time>2022-06-12T09:06:14.097Z</time>
      </trkpt>
      <trkpt lat="44.26358" lon="2.54245">
        <ele>760</ele>
        <time>2022-06-12T09:06:15.097Z</time>
      </trkpt>
      <trkpt lat="44.26357" lon="2.54244">
        <ele>760</ele>
        <time>2022-06-12T09:06:16.097Z</time>
      </trkpt>
      <trkpt lat="44.26357" lon="2.54243">
        <ele>760</ele>
        <time>2022-06-12T09:06:17.097Z</time>
      </trkpt>
      <trkpt lat="44.26356" lon="2.54241">
        <ele>760</ele>
        <time>2022-06-12T09:06:18.097Z</time>
      </trkpt>
      <trkpt lat="44.26356" lon="2.5424">
        <ele>760</ele>
        <time>2022-06-12T09:06:19.097Z</time>
      </trkpt>
      <trkpt lat="44.26355" lon="2.5424">
        <ele>760</ele>
        <time>2022-06-12T09:06:20.097Z</time>
      </trkpt>
      <trkpt lat="44.26355" lon="2.54238">
        <ele>760</ele>
        <time>2022-06-12T09:06:21.097Z</time>
      </trkpt>
      <trkpt lat="44.26354" lon="2.54237">
        <ele>760</ele>
        <time>2022-06-12T09:06:22.097Z</time>
      </trkpt>
      <trkpt lat="44.26354" lon="2.54236">
        <ele>760</ele>
        <time>2022-06-12T09:06:23.097Z</time>
      </trkpt>
      <trkpt lat="44.26353" lon="2.54235">
        <ele>760</ele>
        <time>2022-06-12T09:06:24.097Z</time>
      </trkpt>
      <trkpt lat="44.26353" lon="2.54234">
        <ele>760</ele>
        <time>2022-06-12T09:06:25.097Z</time>
      </trkpt>
      <trkpt lat="44.26352" lon="2.54233">
        <ele>760</ele>
        <time>2022-06-12T09:06:26.097Z</time>
      </trkpt>
      <trkpt lat="44.26352" lon="2.54232">
        <ele>760</ele>
        <time>2022-06-12T09:06:27.097Z</time>
      </trkpt>
      <trkpt lat="44.26351" lon="2.54231">
        <ele>760</ele>
        <time>2022-06-12T09:06:28.097Z</time>
      </trkpt>
      <trkpt lat="44.26351" lon="2.5423">
        <ele>760</ele>
        <time>2022-06-12T09:06:29.097Z</time>
      </trkpt>
      <trkpt lat="44.2635" lon="2.54229">
        <ele>761</ele>
        <time>2022-06-12T09:06:30.097Z</time>
      </trkpt>
      <trkpt lat="44.26349" lon="2.54228">
        <ele>761</ele>
        <time>2022-06-12T09:06:31.097Z</time>
      </trkpt>
      <trkpt lat="44.26348" lon="2.54227">
        <ele>761</ele>
        <time>2022-06-12T09:06:32.097Z</time>
      </trkpt>
      <trkpt lat="44.26348" lon="2.54226">
        <ele>761</ele>
        <time>2022-06-12T09:06:33.097Z</time>
      </trkpt>
      <trkpt lat="44.26347" lon="2.54224">
        <ele>761</ele>
        <time>2022-06-12T09:06:34.097Z</time>
      </trkpt>
      <trkpt lat="44.26346" lon="2.54223">
        <ele>761</ele>
        <time>2022-06-12T09:06:35.097Z</time>
      </trkpt>
      <trkpt lat="44.26346" lon="2.54222">
        <ele>761</ele>
        <time>2022-06-12T09:06:36.097Z</time>
      </trkpt>
      <trkpt lat="44.26345" lon="2.5422">
        <ele>761</ele>
        <time>2022-06-12T09:06:37.097Z</time>
      </trkpt>
      <trkpt lat="44.26344" lon="2.54219">
        <ele>761</ele>
        <time>2022-06-12T09:06:38.097Z</time>
      </trkpt>
      <trkpt lat="44.26344" lon="2.54217">
        <ele>762</ele>
        <time>2022-06-12T09:06:39.097Z</time>
      </trkpt>
      <trkpt lat="44.26343" lon="2.54216">
        <ele>762</ele>
        <time>2022-06-12T09:06:40.097Z</time>
      </trkpt>
      <trkpt lat="44.26342" lon="2.54214">
        <ele>762</ele>
        <time>2022-06-12T09:06:41.097Z</time>
      </trkpt>
      <trkpt lat="44.26341" lon="2.54212">
        <ele>762</ele>
        <time>2022-06-12T09:06:42.097Z</time>
      </trkpt>
      <trkpt lat="44.2634" lon="2.54211">
        <ele>762</ele>
        <time>2022-06-12T09:06:43.097Z</time>
      </trkpt>
      <trkpt lat="44.2634" lon="2.5421">
        <ele>762</ele>
        <time>2022-06-12T09:06:44.097Z</time>
      </trkpt>
      <trkpt lat="44.2634" lon="2.5421">
        <ele>762</ele>
        <time>2022-06-12T09:06:45.097Z</time>
      </trkpt>
      <trkpt lat="44.26339" lon="2.54209">
        <ele>762</ele>
        <time>2022-06-12T09:06:46.097Z</time>
      </trkpt>
      <trkpt lat="44.26339" lon="2.54208">
        <ele>762</ele>
        <time>2022-06-12T09:06:47.097Z</time>
      </trkpt>
      <trkpt lat="44.26338" lon="2.54206">
        <ele>762</ele>
        <time>2022-06-12T09:06:48.097Z</time>
      </trkpt>
      <trkpt lat="44.26338" lon="2.54205">
        <ele>762</ele>
        <time>2022-06-12T09:06:49.097Z</time>
      </trkpt>
      <trkpt lat="44.26337" lon="2.54204">
        <ele>762</ele>
        <time>2022-06-12T09:06:50.097Z</time>
      </trkpt>
      <trkpt lat="44.26337" lon="2.54203">
        <ele>762</ele>
        <time>2022-06-12T09:06:51.097Z</time>
      </trkpt>
      <trkpt lat="44.26336" lon="2.54202">
        <ele>762</ele>
        <time>2022-06-12T09:06:52.097Z</time>
      </trkpt>
      <trkpt lat="44.26336" lon="2.54201">
        <ele>762</ele>
        <time>2022-06-12T09:06:53.097Z</time>
      </trkpt>
      <trkpt lat="44.26335" lon="2.542">
        <ele>762</ele>
        <time>2022-06-12T09:06:54.097Z</time>
      </trkpt>
      <trkpt lat="44.26335" lon="2.54199">
        <ele>762</ele>
        <time>2022-06-12T09:06:55.097Z</time>
      </trkpt>
      <trkpt lat="44.26334" lon="2.54198">
        <ele>762</ele>
        <time>2022-06-12T09:06:56.097Z</time>
      </trkpt>
      <trkpt lat="44.26334" lon="2.54196">
        <ele>762</ele>
        <time>2022-06-12T09:06:57.097Z</time>
      </trkpt>
      <trkpt lat="44.26333" lon="2.54195">
        <ele>762</ele>
        <time>2022-06-12T09:06:58.097Z</time>
      </trkpt>
      <trkpt lat="44.26332" lon="2.54193">
        <ele>762</ele>
        <time>2022-06-12T09:06:59.097Z</time>
      </trkpt>
      <trkpt lat="44.26331" lon="2.54191">
        <ele>762</ele>
        <time>2022-06-12T09:07:00.097Z</time>
      </trkpt>
      <trkpt lat="44.26331" lon="2.54189">
        <ele>762</ele>
        <time>2022-06-12T09:07:01.097Z</time>
      </trkpt>
      <trkpt lat="44.2633" lon="2.54188">
        <ele>762</ele>
        <time>2022-06-12T09:07:02.097Z</time>
      </trkpt>
      <trkpt lat="44.26329" lon="2.54186">
        <ele>762</ele>
        <time>2022-06-12T09:07:03.097Z</time>
      </trkpt>
      <trkpt lat="44.26328" lon="2.54185">
        <ele>762</ele>
        <time>2022-06-12T09:07:04.097Z</time>
      </trkpt>
      <trkpt lat="44.26327" lon="2.54183">
        <ele>762</ele>
        <time>2022-06-12T09:07:05.097Z</time>
      </trkpt>
      <trkpt lat="44.26326" lon="2.54182">
        <ele>762</ele>
        <time>2022-06-12T09:07:06.097Z</time>
      </trkpt>
      <trkpt lat="44.26325" lon="2.5418">
        <ele>762</ele>
        <time>2022-06-12T09:07:07.097Z</time>
      </trkpt>
      <trkpt lat="44.26324" lon="2.54178">
        <ele>762</ele>
        <time>2022-06-12T09:07:08.097Z</time>
      </trkpt>
      <trkpt lat="44.26323" lon="2.54177">
        <ele>762</ele>
        <time>2022-06-12T09:07:09.097Z</time>
      </trkpt>
      <trkpt lat="44.26322" lon="2.54175">
        <ele>762</ele>
        <time>2022-06-12T09:07:10.097Z</time>
      </trkpt>
      <trkpt lat="44.26321" lon="2.54174">
        <ele>761</ele>
        <time>2022-06-12T09:07:11.097Z</time>
      </trkpt>
      <trkpt lat="44.26321" lon="2.54172">
        <ele>761</ele>
        <time>2022-06-12T09:07:12.097Z</time>
      </trkpt>
      <trkpt lat="44.2632" lon="2.54171">
        <ele>761</ele>
        <time>2022-06-12T09:07:13.097Z</time>
      </trkpt>
      <trkpt lat="44.26319" lon="2.5417">
        <ele>761</ele>
        <time>2022-06-12T09:07:14.097Z</time>
      </trkpt>
      <trkpt lat="44.26318" lon="2.54168">
        <ele>761</ele>
        <time>2022-06-12T09:07:15.097Z</time>
      </trkpt>
      <trkpt lat="44.26317" lon="2.54167">
        <ele>761</ele>
        <time>2022-06-12T09:07:16.097Z</time>
      </trkpt>
      <trkpt lat="44.26316" lon="2.54166">
        <ele>761</ele>
        <time>2022-06-12T09:07:17.097Z</time>
      </trkpt>
      <trkpt lat="44.26316" lon="2.54165">
        <ele>761</ele>
        <time>2022-06-12T09:07:18.097Z</time>
      </trkpt>
      <trkpt lat="44.26315" lon="2.54164">
        <ele>761</ele>
        <time>2022-06-12T09:07:19.097Z</time>
      </trkpt>
      <trkpt lat="44.26314" lon="2.54163">
        <ele>761</ele>
        <time>2022-06-12T09:07:20.097Z</time>
      </trkpt>
      <trkpt lat="44.26314" lon="2.54161">
        <ele>761</ele>
        <time>2022-06-12T09:07:21.097Z</time>
      </trkpt>
      <trkpt lat="44.26313" lon="2.5416">
        <ele>761</ele>
        <time>2022-06-12T09:07:22.097Z</time>
      </trkpt>
      <trkpt lat="44.26312" lon="2.54159">
        <ele>760</ele>
        <time>2022-06-12T09:07:23.097Z</time>
      </trkpt>
      <trkpt lat="44.26311" lon="2.54158">
        <ele>760</ele>
        <time>2022-06-12T09:07:24.097Z</time>
      </trkpt>
      <trkpt lat="44.26311" lon="2.54156">
        <ele>760</ele>
        <time>2022-06-12T09:07:25.097Z</time>
      </trkpt>
      <trkpt lat="44.2631" lon="2.54155">
        <ele>760</ele>
        <time>2022-06-12T09:07:26.097Z</time>
      </trkpt>
      <trkpt lat="44.26309" lon="2.54154">
        <ele>760</ele>
        <time>2022-06-12T09:07:27.097Z</time>
      </trkpt>
      <trkpt lat="44.26308" lon="2.54153">
        <ele>760</ele>
        <time>2022-06-12T09:07:28.097Z</time>
      </trkpt>
      <trkpt lat="44.26308" lon="2.54151">
        <ele>760</ele>
        <time>2022-06-12T09:07:29.097Z</time>
      </trkpt>
      <trkpt lat="44.26307" lon="2.5415">
        <ele>760</ele>
        <time>2022-06-12T09:07:30.097Z</time>
      </trkpt>
      <trkpt lat="44.26307" lon="2.54149">
        <ele>760</ele>
        <time>2022-06-12T09:07:31.097Z</time>
      </trkpt>
      <trkpt lat="44.26306" lon="2.54148">
        <ele>760</ele>
        <time>2022-06-12T09:07:32.097Z</time>
      </trkpt>
      <trkpt lat="44.26305" lon="2.54147">
        <ele>760</ele>
        <time>2022-06-12T09:07:33.097Z</time>
      </trkpt>
      <trkpt lat="44.26305" lon="2.54146">
        <ele>760</ele>
        <time>2022-06-12T09:07:34.097Z</time>
      </trkpt>
      <trkpt lat="44.26304" lon="2.54144">
        <ele>760</ele>
        <time>2022-06-12T09:07:35.097Z</time>
      </trkpt>
      <trkpt lat="44.26303" lon="2.54143">
        <ele>760</ele>
        <time>2022-06-12T09:07:36.097Z</time>
      </trkpt>
      <trkpt lat="44.26303" lon="2.54142">
        <ele>760</ele>
        <time>2022-06-12T09:07:37.097Z</time>
      </trkpt>
      <trkpt lat="44.26302" lon="2.54141">
        <ele>760</ele>
        <time>2022-06-12T09:07:38.097Z</time>
      </trkpt>
      <trkpt lat="44.26301" lon="2.5414">
        <ele>759</ele>
        <time>2022-06-12T09:07:39.097Z</time>
      </trkpt>
      <trkpt lat="44.26301" lon="2.54138">
        <ele>759</ele>
        <time>2022-06-12T09:07:40.097Z</time>
      </trkpt>
      <trkpt lat="44.263" lon="2.54137">
        <ele>759</ele>
        <time>2022-06-12T09:07:41.097Z</time>
      </trkpt>
      <trkpt lat="44.263" lon="2.54137">
        <ele>759</ele>
        <time>2022-06-12T09:07:42.097Z</time>
      </trkpt>
      <trkpt lat="44.26299" lon="2.54136">
        <ele>759</ele>
        <time>2022-06-12T09:07:43.097Z</time>
      </trkpt>
      <trkpt lat="44.26299" lon="2.54135">
        <ele>760</ele>
        <time>2022-06-12T09:07:44.097Z</time>
      </trkpt>
      <trkpt lat="44.26298" lon="2.54133">
        <ele>760</ele>
        <time>2022-06-12T09:07:45.097Z</time>
      </trkpt>
      <trkpt lat="44.26297" lon="2.54131">
        <ele>760</ele>
        <time>2022-06-12T09:07:46.097Z</time>
      </trkpt>
      <trkpt lat="44.26296" lon="2.5413">
        <ele>760</ele>
        <time>2022-06-12T09:07:47.097Z</time>
      </trkpt>
      <trkpt lat="44.26295" lon="2.54128">
        <ele>760</ele>
        <time>2022-06-12T09:07:48.097Z</time>
      </trkpt>
      <trkpt lat="44.26294" lon="2.54127">
        <ele>760</ele>
        <time>2022-06-12T09:07:49.097Z</time>
      </trkpt>
      <trkpt lat="44.26293" lon="2.54125">
        <ele>760</ele>
        <time>2022-06-12T09:07:50.097Z</time>
      </trkpt>
      <trkpt lat="44.26292" lon="2.54123">
        <ele>760</ele>
        <time>2022-06-12T09:07:51.097Z</time>
      </trkpt>
      <trkpt lat="44.26291" lon="2.54122">
        <ele>760</ele>
        <time>2022-06-12T09:07:52.097Z</time>
      </trkpt>
      <trkpt lat="44.2629" lon="2.5412">
        <ele>760</ele>
        <time>2022-06-12T09:07:53.097Z</time>
      </trkpt>
      <trkpt lat="44.2629" lon="2.54118">
        <ele>760</ele>
        <time>2022-06-12T09:07:54.097Z</time>
      </trkpt>
      <trkpt lat="44.26289" lon="2.54116">
        <ele>761</ele>
        <time>2022-06-12T09:07:55.097Z</time>
      </trkpt>
      <trkpt lat="44.26288" lon="2.54115">
        <ele>761</ele>
        <time>2022-06-12T09:07:56.097Z</time>
      </trkpt>
      <trkpt lat="44.26287" lon="2.54113">
        <ele>761</ele>
        <time>2022-06-12T09:07:57.097Z</time>
      </trkpt>
      <trkpt lat="44.26287" lon="2.54112">
        <ele>761</ele>
        <time>2022-06-12T09:07:58.097Z</time>
      </trkpt>
      <trkpt lat="44.26286" lon="2.5411">
        <ele>761</ele>
        <time>2022-06-12T09:07:59.097Z</time>
      </trkpt>
      <trkpt lat="44.26285" lon="2.54109">
        <ele>761</ele>
        <time>2022-06-12T09:08:00.097Z</time>
      </trkpt>
      <trkpt lat="44.26285" lon="2.54107">
        <ele>761</ele>
        <time>2022-06-12T09:08:01.097Z</time>
      </trkpt>
      <trkpt lat="44.26284" lon="2.54106">
        <ele>761</ele>
        <time>2022-06-12T09:08:02.097Z</time>
      </trkpt>
      <trkpt lat="44.26283" lon="2.54104">
        <ele>761</ele>
        <time>2022-06-12T09:08:03.097Z</time>
      </trkpt>
      <trkpt lat="44.26282" lon="2.54103">
        <ele>761</ele>
        <time>2022-06-12T09:08:04.097Z</time>
      </trkpt>
      <trkpt lat="44.26281" lon="2.54101">
        <ele>761</ele>
        <time>2022-06-12T09:08:05.097Z</time>
      </trkpt>
      <trkpt lat="44.26281" lon="2.54099">
        <ele>761</ele>
        <time>2022-06-12T09:08:06.097Z</time>
      </trkpt>
      <trkpt lat="44.2628" lon="2.54098">
        <ele>761</ele>
        <time>2022-06-12T09:08:07.097Z</time>
      </trkpt>
      <trkpt lat="44.26279" lon="2.54096">
        <ele>761</ele>
        <time>2022-06-12T09:08:08.097Z</time>
      </trkpt>
      <trkpt lat="44.26278" lon="2.54095">
        <ele>761</ele>
        <time>2022-06-12T09:08:09.097Z</time>
      </trkpt>
      <trkpt lat="44.26278" lon="2.54093">
        <ele>760</ele>
        <time>2022-06-12T09:08:10.097Z</time>
      </trkpt>
      <trkpt lat="44.26277" lon="2.54092">
        <ele>760</ele>
        <time>2022-06-12T09:08:11.097Z</time>
      </trkpt>
      <trkpt lat="44.26276" lon="2.54091">
        <ele>760</ele>
        <time>2022-06-12T09:08:12.097Z</time>
      </trkpt>
      <trkpt lat="44.26276" lon="2.54089">
        <ele>760</ele>
        <time>2022-06-12T09:08:13.097Z</time>
      </trkpt>
      <trkpt lat="44.26275" lon="2.54088">
        <ele>760</ele>
        <time>2022-06-12T09:08:14.097Z</time>
      </trkpt>
      <trkpt lat="44.26274" lon="2.54086">
        <ele>760</ele>
        <time>2022-06-12T09:08:15.097Z</time>
      </trkpt>
      <trkpt lat="44.26273" lon="2.54085">
        <ele>760</ele>
        <time>2022-06-12T09:08:16.097Z</time>
      </trkpt>
      <trkpt lat="44.26273" lon="2.54083">
        <ele>760</ele>
        <time>2022-06-12T09:08:17.097Z</time>
      </trkpt>
      <trkpt lat="44.26272" lon="2.54082">
        <ele>760</ele>
        <time>2022-06-12T09:08:18.097Z</time>
      </trkpt>
      <trkpt lat="44.26272" lon="2.5408">
        <ele>760</ele>
        <time>2022-06-12T09:08:19.097Z</time>
      </trkpt>
      <trkpt lat="44.26271" lon="2.54079">
        <ele>760</ele>
        <time>2022-06-12T09:08:20.097Z</time>
      </trkpt>
      <trkpt lat="44.2627" lon="2.54078">
        <ele>760</ele>
        <time>2022-06-12T09:08:21.097Z</time>
      </trkpt>
      <trkpt lat="44.26269" lon="2.54076">
        <ele>760</ele>
        <time>2022-06-12T09:08:22.097Z</time>
      </trkpt>
      <trkpt lat="44.26269" lon="2.54075">
        <ele>760</ele>
        <time>2022-06-12T09:08:23.097Z</time>
      </trkpt>
      <trkpt lat="44.26268" lon="2.54074">
        <ele>760</ele>
        <time>2022-06-12T09:08:24.097Z</time>
      </trkpt>
      <trkpt lat="44.26267" lon="2.54073">
        <ele>759</ele>
        <time>2022-06-12T09:08:25.097Z</time>
      </trkpt>
      <trkpt lat="44.26267" lon="2.54072">
        <ele>759</ele>
        <time>2022-06-12T09:08:26.097Z</time>
      </trkpt>
      <trkpt lat="44.26267" lon="2.54071">
        <ele>759</ele>
        <time>2022-06-12T09:08:27.097Z</time>
      </trkpt>
      <trkpt lat="44.26266" lon="2.5407">
        <ele>759</ele>
        <time>2022-06-12T09:08:28.097Z</time>
      </trkpt>
      <trkpt lat="44.26265" lon="2.54068">
        <ele>759</ele>
        <time>2022-06-12T09:08:29.097Z</time>
      </trkpt>
      <trkpt lat="44.26265" lon="2.54067">
        <ele>759</ele>
        <time>2022-06-12T09:08:30.097Z</time>
      </trkpt>
      <trkpt lat="44.26264" lon="2.54066">
        <ele>759</ele>
        <time>2022-06-12T09:08:31.097Z</time>
      </trkpt>
      <trkpt lat="44.26263" lon="2.54064">
        <ele>759</ele>
        <time>2022-06-12T09:08:32.097Z</time>
      </trkpt>
      <trkpt lat="44.26263" lon="2.54063">
        <ele>759</ele>
        <time>2022-06-12T09:08:33.097Z</time>
      </trkpt>
      <trkpt lat="44.26262" lon="2.54062">
        <ele>759</ele>
        <time>2022-06-12T09:08:34.097Z</time>
      </trkpt>
      <trkpt lat="44.26262" lon="2.5406">
        <ele>759</ele>
        <time>2022-06-12T09:08:35.097Z</time>
      </trkpt>
      <trkpt lat="44.26261" lon="2.54059">
        <ele>759</ele>
        <time>2022-06-12T09:08:36.097Z</time>
      </trkpt>
      <trkpt lat="44.26261" lon="2.54058">
        <ele>759</ele>
        <time>2022-06-12T09:08:37.097Z</time>
      </trkpt>
      <trkpt lat="44.2626" lon="2.54057">
        <ele>759</ele>
        <time>2022-06-12T09:08:38.097Z</time>
      </trkpt>
      <trkpt lat="44.2626" lon="2.54056">
        <ele>758</ele>
        <time>2022-06-12T09:08:39.097Z</time>
      </trkpt>
      <trkpt lat="44.26259" lon="2.54055">
        <ele>758</ele>
        <time>2022-06-12T09:08:40.097Z</time>
      </trkpt>
      <trkpt lat="44.26259" lon="2.54054">
        <ele>758</ele>
        <time>2022-06-12T09:08:41.097Z</time>
      </trkpt>
      <trkpt lat="44.26258" lon="2.54052">
        <ele>758</ele>
        <time>2022-06-12T09:08:42.097Z</time>
      </trkpt>
      <trkpt lat="44.26258" lon="2.54051">
        <ele>758</ele>
        <time>2022-06-12T09:08:43.097Z</time>
      </trkpt>
      <trkpt lat="44.26257" lon="2.5405">
        <ele>758</ele>
        <time>2022-06-12T09:08:44.097Z</time>
      </trkpt>
      <trkpt lat="44.26256" lon="2.54049">
        <ele>758</ele>
        <time>2022-06-12T09:08:45.097Z</time>
      </trkpt>
      <trkpt lat="44.26256" lon="2.54047">
        <ele>758</ele>
        <time>2022-06-12T09:08:46.097Z</time>
      </trkpt>
      <trkpt lat="44.26255" lon="2.54046">
        <ele>758</ele>
        <time>2022-06-12T09:08:47.097Z</time>
      </trkpt>
      <trkpt lat="44.26255" lon="2.54045">
        <ele>758</ele>
        <time>2022-06-12T09:08:48.097Z</time>
      </trkpt>
      <trkpt lat="44.26254" lon="2.54043">
        <ele>758</ele>
        <time>2022-06-12T09:08:49.097Z</time>
      </trkpt>
      <trkpt lat="44.26253" lon="2.54042">
        <ele>758</ele>
        <time>2022-06-12T09:08:50.097Z</time>
      </trkpt>
      <trkpt lat="44.26252" lon="2.5404">
        <ele>758</ele>
        <time>2022-06-12T09:08:51.097Z</time>
      </trkpt>
      <trkpt lat="44.26251" lon="2.54038">
        <ele>758</ele>
        <time>2022-06-12T09:08:52.097Z</time>
      </trkpt>
      <trkpt lat="44.2625" lon="2.54037">
        <ele>758</ele>
        <time>2022-06-12T09:08:53.097Z</time>
      </trkpt>
      <trkpt lat="44.26249" lon="2.54036">
        <ele>758</ele>
        <time>2022-06-12T09:08:54.097Z</time>
      </trkpt>
      <trkpt lat="44.26248" lon="2.54035">
        <ele>758</ele>
        <time>2022-06-12T09:08:55.097Z</time>
      </trkpt>
      <trkpt lat="44.26247" lon="2.54033">
        <ele>758</ele>
        <time>2022-06-12T09:08:56.097Z</time>
      </trkpt>
      <trkpt lat="44.26246" lon="2.54032">
        <ele>758</ele>
        <time>2022-06-12T09:08:57.097Z</time>
      </trkpt>
      <trkpt lat="44.26245" lon="2.54031">
        <ele>758</ele>
        <time>2022-06-12T09:08:58.097Z</time>
      </trkpt>
      <trkpt lat="44.26245" lon="2.5403">
        <ele>758</ele>
        <time>2022-06-12T09:08:59.097Z</time>
      </trkpt>
      <trkpt lat="44.26244" lon="2.54028">
        <ele>758</ele>
        <time>2022-06-12T09:09:00.097Z</time>
      </trkpt>
      <trkpt lat="44.26244" lon="2.54027">
        <ele>758</ele>
        <time>2022-06-12T09:09:01.097Z</time>
      </trkpt>
      <trkpt lat="44.26243" lon="2.54026">
        <ele>758</ele>
        <time>2022-06-12T09:09:02.097Z</time>
      </trkpt>
      <trkpt lat="44.26243" lon="2.54025">
        <ele>758</ele>
        <time>2022-06-12T09:09:03.097Z</time>
      </trkpt>
      <trkpt lat="44.26242" lon="2.54024">
        <ele>758</ele>
        <time>2022-06-12T09:09:04.097Z</time>
      </trkpt>
      <trkpt lat="44.26241" lon="2.54022">
        <ele>757</ele>
        <time>2022-06-12T09:09:05.097Z</time>
      </trkpt>
      <trkpt lat="44.26241" lon="2.54021">
        <ele>757</ele>
        <time>2022-06-12T09:09:06.097Z</time>
      </trkpt>
      <trkpt lat="44.2624" lon="2.5402">
        <ele>757</ele>
        <time>2022-06-12T09:09:07.097Z</time>
      </trkpt>
      <trkpt lat="44.2624" lon="2.54019">
        <ele>757</ele>
        <time>2022-06-12T09:09:08.097Z</time>
      </trkpt>
      <trkpt lat="44.26239" lon="2.54018">
        <ele>757</ele>
        <time>2022-06-12T09:09:09.097Z</time>
      </trkpt>
      <trkpt lat="44.26239" lon="2.54016">
        <ele>757</ele>
        <time>2022-06-12T09:09:10.097Z</time>
      </trkpt>
      <trkpt lat="44.26238" lon="2.54015">
        <ele>757</ele>
        <time>2022-06-12T09:09:11.097Z</time>
      </trkpt>
      <trkpt lat="44.26237" lon="2.54014">
        <ele>757</ele>
        <time>2022-06-12T09:09:12.097Z</time>
      </trkpt>
      <trkpt lat="44.26236" lon="2.54012">
        <ele>756</ele>
        <time>2022-06-12T09:09:13.097Z</time>
      </trkpt>
      <trkpt lat="44.26236" lon="2.54011">
        <ele>756</ele>
        <time>2022-06-12T09:09:14.097Z</time>
      </trkpt>
      <trkpt lat="44.26235" lon="2.5401">
        <ele>756</ele>
        <time>2022-06-12T09:09:15.097Z</time>
      </trkpt>
      <trkpt lat="44.26234" lon="2.54009">
        <ele>756</ele>
        <time>2022-06-12T09:09:16.097Z</time>
      </trkpt>
      <trkpt lat="44.26234" lon="2.54007">
        <ele>756</ele>
        <time>2022-06-12T09:09:17.097Z</time>
      </trkpt>
      <trkpt lat="44.26233" lon="2.54006">
        <ele>756</ele>
        <time>2022-06-12T09:09:18.097Z</time>
      </trkpt>
      <trkpt lat="44.26232" lon="2.54005">
        <ele>756</ele>
        <time>2022-06-12T09:09:19.097Z</time>
      </trkpt>
      <trkpt lat="44.26231" lon="2.54003">
        <ele>756</ele>
        <time>2022-06-12T09:09:20.097Z</time>
      </trkpt>
      <trkpt lat="44.2623" lon="2.54002">
        <ele>756</ele>
        <time>2022-06-12T09:09:21.097Z</time>
      </trkpt>
      <trkpt lat="44.2623" lon="2.54001">
        <ele>756</ele>
        <time>2022-06-12T09:09:22.097Z</time>
      </trkpt>
      <trkpt lat="44.26229" lon="2.54">
        <ele>756</ele>
        <time>2022-06-12T09:09:23.097Z</time>
      </trkpt>
      <trkpt lat="44.26228" lon="2.53999">
        <ele>756</ele>
        <time>2022-06-12T09:09:24.097Z</time>
      </trkpt>
      <trkpt lat="44.26227" lon="2.53997">
        <ele>756</ele>
        <time>2022-06-12T09:09:25.097Z</time>
      </trkpt>
      <trkpt lat="44.26226" lon="2.53996">
        <ele>756</ele>
        <time>2022-06-12T09:09:26.097Z</time>
      </trkpt>
      <trkpt lat="44.26225" lon="2.53995">
        <ele>756</ele>
        <time>2022-06-12T09:09:27.097Z</time>
      </trkpt>
      <trkpt lat="44.26224" lon="2.53994">
        <ele>756</ele>
        <time>2022-06-12T09:09:28.097Z</time>
      </trkpt>
      <trkpt lat="44.26224" lon="2.53992">
        <ele>756</ele>
        <time>2022-06-12T09:09:29.097Z</time>
      </trkpt>
      <trkpt lat="44.26223" lon="2.53991">
        <ele>756</ele>
        <time>2022-06-12T09:09:30.097Z</time>
      </trkpt>
      <trkpt lat="44.26222" lon="2.53989">
        <ele>756</ele>
        <time>2022-06-12T09:09:31.097Z</time>
      </trkpt>
      <trkpt lat="44.26221" lon="2.53988">
        <ele>756</ele>
        <time>2022-06-12T09:09:32.097Z</time>
      </trkpt>
      <trkpt lat="44.2622" lon="2.53986">
        <ele>756</ele>
        <time>2022-06-12T09:09:33.097Z</time>
      </trkpt>
      <trkpt lat="44.2622" lon="2.53985">
        <ele>756</ele>
        <time>2022-06-12T09:09:34.097Z</time>
      </trkpt>
      <trkpt lat="44.26219" lon="2.53983">
        <ele>756</ele>
        <time>2022-06-12T09:09:35.097Z</time>
      </trkpt>
      <trkpt lat="44.26219" lon="2.53982">
        <ele>756</ele>
        <time>2022-06-12T09:09:36.097Z</time>
      </trkpt>
      <trkpt lat="44.26218" lon="2.53981">
        <ele>755</ele>
        <time>2022-06-12T09:09:37.097Z</time>
      </trkpt>
      <trkpt lat="44.26218" lon="2.53979">
        <ele>755</ele>
        <time>2022-06-12T09:09:38.097Z</time>
      </trkpt>
      <trkpt lat="44.26217" lon="2.53977">
        <ele>755</ele>
        <time>2022-06-12T09:09:39.097Z</time>
      </trkpt>
      <trkpt lat="44.26216" lon="2.53976">
        <ele>755</ele>
        <time>2022-06-12T09:09:40.097Z</time>
      </trkpt>
      <trkpt lat="44.26216" lon="2.53975">
        <ele>755</ele>
        <time>2022-06-12T09:09:41.097Z</time>
      </trkpt>
      <trkpt lat="44.26216" lon="2.53974">
        <ele>754</ele>
        <time>2022-06-12T09:09:42.097Z</time>
      </trkpt>
      <trkpt lat="44.26215" lon="2.53973">
        <ele>754</ele>
        <time>2022-06-12T09:09:43.097Z</time>
      </trkpt>
      <trkpt lat="44.26215" lon="2.53971">
        <ele>754</ele>
        <time>2022-06-12T09:09:44.097Z</time>
      </trkpt>
      <trkpt lat="44.26214" lon="2.5397">
        <ele>754</ele>
        <time>2022-06-12T09:09:45.097Z</time>
      </trkpt>
      <trkpt lat="44.26214" lon="2.53969">
        <ele>754</ele>
        <time>2022-06-12T09:09:46.097Z</time>
      </trkpt>
      <trkpt lat="44.26213" lon="2.53967">
        <ele>754</ele>
        <time>2022-06-12T09:09:47.097Z</time>
      </trkpt>
      <trkpt lat="44.26212" lon="2.53966">
        <ele>754</ele>
        <time>2022-06-12T09:09:48.097Z</time>
      </trkpt>
      <trkpt lat="44.26211" lon="2.53965">
        <ele>754</ele>
        <time>2022-06-12T09:09:49.097Z</time>
      </trkpt>
      <trkpt lat="44.26211" lon="2.53964">
        <ele>754</ele>
        <time>2022-06-12T09:09:50.097Z</time>
      </trkpt>
      <trkpt lat="44.2621" lon="2.53962">
        <ele>754</ele>
        <time>2022-06-12T09:09:51.097Z</time>
      </trkpt>
      <trkpt lat="44.26209" lon="2.53961">
        <ele>754</ele>
        <time>2022-06-12T09:09:52.097Z</time>
      </trkpt>
      <trkpt lat="44.26208" lon="2.53959">
        <ele>754</ele>
        <time>2022-06-12T09:09:53.097Z</time>
      </trkpt>
      <trkpt lat="44.26207" lon="2.53958">
        <ele>754</ele>
        <time>2022-06-12T09:09:54.097Z</time>
      </trkpt>
      <trkpt lat="44.26206" lon="2.53956">
        <ele>754</ele>
        <time>2022-06-12T09:09:55.097Z</time>
      </trkpt>
      <trkpt lat="44.26205" lon="2.53955">
        <ele>754</ele>
        <time>2022-06-12T09:09:56.097Z</time>
      </trkpt>
      <trkpt lat="44.26204" lon="2.53953">
        <ele>754</ele>
        <time>2022-06-12T09:09:57.097Z</time>
      </trkpt>
      <trkpt lat="44.26204" lon="2.53952">
        <ele>754</ele>
        <time>2022-06-12T09:09:58.097Z</time>
      </trkpt>
      <trkpt lat="44.26203" lon="2.53951">
        <ele>754</ele>
        <time>2022-06-12T09:09:59.097Z</time>
      </trkpt>
      <trkpt lat="44.26202" lon="2.5395">
        <ele>754</ele>
        <time>2022-06-12T09:10:00.097Z</time>
      </trkpt>
      <trkpt lat="44.26201" lon="2.53948">
        <ele>754</ele>
        <time>2022-06-12T09:10:01.097Z</time>
      </trkpt>
      <trkpt lat="44.26201" lon="2.53947">
        <ele>754</ele>
        <time>2022-06-12T09:10:02.097Z</time>
      </trkpt>
      <trkpt lat="44.262" lon="2.53946">
        <ele>754</ele>
        <time>2022-06-12T09:10:03.097Z</time>
      </trkpt>
      <trkpt lat="44.262" lon="2.53946">
        <ele>753</ele>
        <time>2022-06-12T09:10:04.097Z</time>
      </trkpt>
      <trkpt lat="44.26199" lon="2.53945">
        <ele>753</ele>
        <time>2022-06-12T09:10:05.097Z</time>
      </trkpt>
      <trkpt lat="44.26199" lon="2.53943">
        <ele>753</ele>
        <time>2022-06-12T09:10:06.097Z</time>
      </trkpt>
      <trkpt lat="44.26198" lon="2.53942">
        <ele>753</ele>
        <time>2022-06-12T09:10:07.097Z</time>
      </trkpt>
      <trkpt lat="44.26197" lon="2.53941">
        <ele>753</ele>
        <time>2022-06-12T09:10:08.097Z</time>
      </trkpt>
      <trkpt lat="44.26196" lon="2.5394">
        <ele>753</ele>
        <time>2022-06-12T09:10:09.097Z</time>
      </trkpt>
      <trkpt lat="44.26195" lon="2.53939">
        <ele>753</ele>
        <time>2022-06-12T09:10:10.097Z</time>
      </trkpt>
      <trkpt lat="44.26194" lon="2.53938">
        <ele>753</ele>
        <time>2022-06-12T09:10:11.097Z</time>
      </trkpt>
      <trkpt lat="44.26193" lon="2.53936">
        <ele>753</ele>
        <time>2022-06-12T09:10:12.097Z</time>
      </trkpt>
      <trkpt lat="44.26192" lon="2.53935">
        <ele>753</ele>
        <time>2022-06-12T09:10:13.097Z</time>
      </trkpt>
      <trkpt lat="44.26191" lon="2.53934">
        <ele>753</ele>
        <time>2022-06-12T09:10:14.097Z</time>
      </trkpt>
      <trkpt lat="44.2619" lon="2.53933">
        <ele>753</ele>
        <time>2022-06-12T09:10:15.097Z</time>
      </trkpt>
      <trkpt lat="44.26189" lon="2.53932">
        <ele>753</ele>
        <time>2022-06-12T09:10:16.097Z</time>
      </trkpt>
      <trkpt lat="44.26188" lon="2.5393">
        <ele>753</ele>
        <time>2022-06-12T09:10:17.097Z</time>
      </trkpt>
      <trkpt lat="44.26187" lon="2.53929">
        <ele>753</ele>
        <time>2022-06-12T09:10:18.097Z</time>
      </trkpt>
      <trkpt lat="44.26186" lon="2.53927">
        <ele>753</ele>
        <time>2022-06-12T09:10:19.097Z</time>
      </trkpt>
      <trkpt lat="44.26186" lon="2.53925">
        <ele>753</ele>
        <time>2022-06-12T09:10:20.097Z</time>
      </trkpt>
      <trkpt lat="44.26185" lon="2.53924">
        <ele>753</ele>
        <time>2022-06-12T09:10:21.097Z</time>
      </trkpt>
      <trkpt lat="44.26184" lon="2.53923">
        <ele>753</ele>
        <time>2022-06-12T09:10:22.097Z</time>
      </trkpt>
      <trkpt lat="44.26184" lon="2.53921">
        <ele>753</ele>
        <time>2022-06-12T09:10:23.097Z</time>
      </trkpt>
      <trkpt lat="44.26183" lon="2.5392">
        <ele>753</ele>
        <time>2022-06-12T09:10:24.097Z</time>
      </trkpt>
      <trkpt lat="44.26182" lon="2.53918">
        <ele>753</ele>
        <time>2022-06-12T09:10:25.097Z</time>
      </trkpt>
      <trkpt lat="44.26181" lon="2.53917">
        <ele>753</ele>
        <time>2022-06-12T09:10:26.097Z</time>
      </trkpt>
      <trkpt lat="44.2618" lon="2.53915">
        <ele>753</ele>
        <time>2022-06-12T09:10:27.097Z</time>
      </trkpt>
      <trkpt lat="44.2618" lon="2.53914">
        <ele>753</ele>
        <time>2022-06-12T09:10:28.097Z</time>
      </trkpt>
      <trkpt lat="44.26179" lon="2.53913">
        <ele>753</ele>
        <time>2022-06-12T09:10:29.097Z</time>
      </trkpt>
      <trkpt lat="44.26179" lon="2.53912">
        <ele>753</ele>
        <time>2022-06-12T09:10:30.097Z</time>
      </trkpt>
      <trkpt lat="44.26179" lon="2.5391">
        <ele>753</ele>
        <time>2022-06-12T09:10:31.097Z</time>
      </trkpt>
      <trkpt lat="44.26178" lon="2.53909">
        <ele>753</ele>
        <time>2022-06-12T09:10:32.097Z</time>
      </trkpt>
      <trkpt lat="44.26178" lon="2.53908">
        <ele>752</ele>
        <time>2022-06-12T09:10:33.097Z</time>
      </trkpt>
      <trkpt lat="44.26177" lon="2.53907">
        <ele>752</ele>
        <time>2022-06-12T09:10:34.097Z</time>
      </trkpt>
      <trkpt lat="44.26176" lon="2.53905">
        <ele>752</ele>
        <time>2022-06-12T09:10:35.097Z</time>
      </trkpt>
      <trkpt lat="44.26176" lon="2.53904">
        <ele>752</ele>
        <time>2022-06-12T09:10:36.097Z</time>
      </trkpt>
      <trkpt lat="44.26175" lon="2.53902">
        <ele>752</ele>
        <time>2022-06-12T09:10:37.097Z</time>
      </trkpt>
      <trkpt lat="44.26174" lon="2.53901">
        <ele>752</ele>
        <time>2022-06-12T09:10:38.097Z</time>
      </trkpt>
      <trkpt lat="44.26174" lon="2.53899">
        <ele>752</ele>
        <time>2022-06-12T09:10:39.097Z</time>
      </trkpt>
      <trkpt lat="44.26173" lon="2.53898">
        <ele>752</ele>
        <time>2022-06-12T09:10:40.097Z</time>
      </trkpt>
      <trkpt lat="44.26173" lon="2.53897">
        <ele>752</ele>
        <time>2022-06-12T09:10:41.097Z</time>
      </trkpt>
      <trkpt lat="44.26172" lon="2.53896">
        <ele>752</ele>
        <time>2022-06-12T09:10:42.097Z</time>
      </trkpt>
      <trkpt lat="44.26171" lon="2.53894">
        <ele>752</ele>
        <time>2022-06-12T09:10:43.097Z</time>
      </trkpt>
      <trkpt lat="44.26171" lon="2.53893">
        <ele>752</ele>
        <time>2022-06-12T09:10:44.097Z</time>
      </trkpt>
      <trkpt lat="44.2617" lon="2.53892">
        <ele>752</ele>
        <time>2022-06-12T09:10:45.097Z</time>
      </trkpt>
      <trkpt lat="44.2617" lon="2.53891">
        <ele>751</ele>
        <time>2022-06-12T09:10:46.097Z</time>
      </trkpt>
      <trkpt lat="44.2617" lon="2.53889">
        <ele>751</ele>
        <time>2022-06-12T09:10:47.097Z</time>
      </trkpt>
      <trkpt lat="44.26169" lon="2.53888">
        <ele>751</ele>
        <time>2022-06-12T09:10:48.097Z</time>
      </trkpt>
      <trkpt lat="44.26168" lon="2.53887">
        <ele>751</ele>
        <time>2022-06-12T09:10:49.097Z</time>
      </trkpt>
      <trkpt lat="44.26167" lon="2.53886">
        <ele>751</ele>
        <time>2022-06-12T09:10:50.097Z</time>
      </trkpt>
      <trkpt lat="44.26167" lon="2.53885">
        <ele>751</ele>
        <time>2022-06-12T09:10:51.097Z</time>
      </trkpt>
      <trkpt lat="44.26166" lon="2.53883">
        <ele>751</ele>
        <time>2022-06-12T09:10:52.097Z</time>
      </trkpt>
      <trkpt lat="44.26166" lon="2.53883">
        <ele>751</ele>
        <time>2022-06-12T09:10:53.097Z</time>
      </trkpt>
      <trkpt lat="44.26166" lon="2.53883">
        <ele>751</ele>
        <time>2022-06-12T09:10:54.097Z</time>
      </trkpt>
      <trkpt lat="44.26166" lon="2.53882">
        <ele>751</ele>
        <time>2022-06-12T09:10:55.097Z</time>
      </trkpt>
      <trkpt lat="44.26166" lon="2.53881">
        <ele>751</ele>
        <time>2022-06-12T09:10:56.097Z</time>
      </trkpt>
      <trkpt lat="44.26165" lon="2.53881">
        <ele>751</ele>
        <time>2022-06-12T09:10:57.097Z</time>
      </trkpt>
      <trkpt lat="44.26165" lon="2.5388">
        <ele>751</ele>
        <time>2022-06-12T09:10:58.097Z</time>
      </trkpt>
      <trkpt lat="44.26164" lon="2.53878">
        <ele>751</ele>
        <time>2022-06-12T09:10:59.097Z</time>
      </trkpt>
      <trkpt lat="44.26164" lon="2.53877">
        <ele>751</ele>
        <time>2022-06-12T09:11:00.097Z</time>
      </trkpt>
      <trkpt lat="44.26163" lon="2.53876">
        <ele>750</ele>
        <time>2022-06-12T09:11:01.097Z</time>
      </trkpt>
      <trkpt lat="44.26162" lon="2.53875">
        <ele>750</ele>
        <time>2022-06-12T09:11:02.097Z</time>
      </trkpt>
      <trkpt lat="44.26162" lon="2.53873">
        <ele>750</ele>
        <time>2022-06-12T09:11:03.097Z</time>
      </trkpt>
      <trkpt lat="44.26161" lon="2.53872">
        <ele>750</ele>
        <time>2022-06-12T09:11:04.097Z</time>
      </trkpt>
      <trkpt lat="44.2616" lon="2.53871">
        <ele>750</ele>
        <time>2022-06-12T09:11:05.097Z</time>
      </trkpt>
      <trkpt lat="44.26159" lon="2.53869">
        <ele>750</ele>
        <time>2022-06-12T09:11:06.097Z</time>
      </trkpt>
      <trkpt lat="44.26159" lon="2.53867">
        <ele>750</ele>
        <time>2022-06-12T09:11:07.097Z</time>
      </trkpt>
      <trkpt lat="44.26158" lon="2.53866">
        <ele>750</ele>
        <time>2022-06-12T09:11:08.097Z</time>
      </trkpt>
      <trkpt lat="44.26158" lon="2.53865">
        <ele>750</ele>
        <time>2022-06-12T09:11:09.097Z</time>
      </trkpt>
      <trkpt lat="44.26157" lon="2.53864">
        <ele>750</ele>
        <time>2022-06-12T09:11:10.097Z</time>
      </trkpt>
      <trkpt lat="44.26157" lon="2.53862">
        <ele>750</ele>
        <time>2022-06-12T09:11:11.097Z</time>
      </trkpt>
      <trkpt lat="44.26156" lon="2.53861">
        <ele>749</ele>
        <time>2022-06-12T09:11:12.097Z</time>
      </trkpt>
      <trkpt lat="44.26155" lon="2.5386">
        <ele>749</ele>
        <time>2022-06-12T09:11:13.097Z</time>
      </trkpt>
      <trkpt lat="44.26155" lon="2.53859">
        <ele>749</ele>
        <time>2022-06-12T09:11:14.097Z</time>
      </trkpt>
      <trkpt lat="44.26154" lon="2.53858">
        <ele>749</ele>
        <time>2022-06-12T09:11:15.097Z</time>
      </trkpt>
      <trkpt lat="44.26153" lon="2.53856">
        <ele>749</ele>
        <time>2022-06-12T09:11:16.097Z</time>
      </trkpt>
      <trkpt lat="44.26152" lon="2.53855">
        <ele>749</ele>
        <time>2022-06-12T09:11:17.097Z</time>
      </trkpt>
      <trkpt lat="44.26152" lon="2.53854">
        <ele>749</ele>
        <time>2022-06-12T09:11:18.097Z</time>
      </trkpt>
      <trkpt lat="44.26151" lon="2.53853">
        <ele>749</ele>
        <time>2022-06-12T09:11:19.097Z</time>
      </trkpt>
      <trkpt lat="44.2615" lon="2.53851">
        <ele>748</ele>
        <time>2022-06-12T09:11:20.097Z</time>
      </trkpt>
      <trkpt lat="44.26149" lon="2.5385">
        <ele>748</ele>
        <time>2022-06-12T09:11:21.097Z</time>
      </trkpt>
      <trkpt lat="44.26149" lon="2.53848">
        <ele>748</ele>
        <time>2022-06-12T09:11:22.097Z</time>
      </trkpt>
      <trkpt lat="44.26148" lon="2.53847">
        <ele>748</ele>
        <time>2022-06-12T09:11:23.097Z</time>
      </trkpt>
      <trkpt lat="44.26147" lon="2.53846">
        <ele>748</ele>
        <time>2022-06-12T09:11:24.097Z</time>
      </trkpt>
      <trkpt lat="44.26147" lon="2.53844">
        <ele>748</ele>
        <time>2022-06-12T09:11:25.097Z</time>
      </trkpt>
      <trkpt lat="44.26146" lon="2.53843">
        <ele>748</ele>
        <time>2022-06-12T09:11:26.097Z</time>
      </trkpt>
      <trkpt lat="44.26145" lon="2.53842">
        <ele>748</ele>
        <time>2022-06-12T09:11:27.097Z</time>
      </trkpt>
      <trkpt lat="44.26145" lon="2.5384">
        <ele>748</ele>
        <time>2022-06-12T09:11:28.097Z</time>
      </trkpt>
      <trkpt lat="44.26144" lon="2.53839">
        <ele>748</ele>
        <time>2022-06-12T09:11:29.097Z</time>
      </trkpt>
      <trkpt lat="44.26144" lon="2.53838">
        <ele>748</ele>
        <time>2022-06-12T09:11:30.097Z</time>
      </trkpt>
      <trkpt lat="44.26143" lon="2.53837">
        <ele>748</ele>
        <time>2022-06-12T09:11:31.097Z</time>
      </trkpt>
      <trkpt lat="44.26142" lon="2.53835">
        <ele>748</ele>
        <time>2022-06-12T09:11:32.097Z</time>
      </trkpt>
      <trkpt lat="44.26142" lon="2.53834">
        <ele>748</ele>
        <time>2022-06-12T09:11:33.097Z</time>
      </trkpt>
      <trkpt lat="44.26141" lon="2.53832">
        <ele>748</ele>
        <time>2022-06-12T09:11:34.097Z</time>
      </trkpt>
      <trkpt lat="44.2614" lon="2.53831">
        <ele>748</ele>
        <time>2022-06-12T09:11:35.097Z</time>
      </trkpt>
      <trkpt lat="44.2614" lon="2.5383">
        <ele>747</ele>
        <time>2022-06-12T09:11:36.097Z</time>
      </trkpt>
      <trkpt lat="44.26139" lon="2.53829">
        <ele>747</ele>
        <time>2022-06-12T09:11:37.097Z</time>
      </trkpt>
      <trkpt lat="44.26138" lon="2.53827">
        <ele>747</ele>
        <time>2022-06-12T09:11:38.097Z</time>
      </trkpt>
      <trkpt lat="44.26138" lon="2.53826">
        <ele>747</ele>
        <time>2022-06-12T09:11:39.097Z</time>
      </trkpt>
      <trkpt lat="44.26137" lon="2.53825">
        <ele>747</ele>
        <time>2022-06-12T09:11:40.097Z</time>
      </trkpt>
      <trkpt lat="44.26136" lon="2.53824">
        <ele>747</ele>
        <time>2022-06-12T09:11:41.097Z</time>
      </trkpt>
      <trkpt lat="44.26136" lon="2.53822">
        <ele>747</ele>
        <time>2022-06-12T09:11:42.097Z</time>
      </trkpt>
      <trkpt lat="44.26135" lon="2.53821">
        <ele>747</ele>
        <time>2022-06-12T09:11:43.097Z</time>
      </trkpt>
      <trkpt lat="44.26134" lon="2.5382">
        <ele>747</ele>
        <time>2022-06-12T09:11:44.097Z</time>
      </trkpt>
      <trkpt lat="44.26133" lon="2.53818">
        <ele>747</ele>
        <time>2022-06-12T09:11:45.097Z</time>
      </trkpt>
      <trkpt lat="44.26133" lon="2.53817">
        <ele>748</ele>
        <time>2022-06-12T09:11:46.097Z</time>
      </trkpt>
      <trkpt lat="44.26132" lon="2.53816">
        <ele>748</ele>
        <time>2022-06-12T09:11:47.097Z</time>
      </trkpt>
      <trkpt lat="44.26131" lon="2.53815">
        <ele>748</ele>
        <time>2022-06-12T09:11:48.097Z</time>
      </trkpt>
      <trkpt lat="44.26131" lon="2.53814">
        <ele>748</ele>
        <time>2022-06-12T09:11:49.097Z</time>
      </trkpt>
      <trkpt lat="44.2613" lon="2.53813">
        <ele>748</ele>
        <time>2022-06-12T09:11:50.097Z</time>
      </trkpt>
      <trkpt lat="44.2613" lon="2.53813">
        <ele>748</ele>
        <time>2022-06-12T09:11:51.097Z</time>
      </trkpt>
      <trkpt lat="44.2613" lon="2.53812">
        <ele>748</ele>
        <time>2022-06-12T09:11:52.097Z</time>
      </trkpt>
      <trkpt lat="44.2613" lon="2.53811">
        <ele>748</ele>
        <time>2022-06-12T09:11:53.097Z</time>
      </trkpt>
      <trkpt lat="44.26129" lon="2.53811">
        <ele>748</ele>
        <time>2022-06-12T09:11:54.097Z</time>
      </trkpt>
      <trkpt lat="44.26128" lon="2.53808">
        <ele>747</ele>
        <time>2022-06-12T09:11:57.352Z</time>
      </trkpt>
      <trkpt lat="44.26128" lon="2.53807">
        <ele>747</ele>
        <time>2022-06-12T09:11:58.352Z</time>
      </trkpt>
      <trkpt lat="44.26127" lon="2.53806">
        <ele>747</ele>
        <time>2022-06-12T09:11:59.352Z</time>
      </trkpt>
      <trkpt lat="44.26127" lon="2.53805">
        <ele>747</ele>
        <time>2022-06-12T09:12:00.352Z</time>
      </trkpt>
      <trkpt lat="44.26127" lon="2.53804">
        <ele>747</ele>
        <time>2022-06-12T09:12:01.352Z</time>
      </trkpt>
      <trkpt lat="44.26126" lon="2.53803">
        <ele>747</ele>
        <time>2022-06-12T09:12:02.352Z</time>
      </trkpt>
      <trkpt lat="44.26126" lon="2.53802">
        <ele>747</ele>
        <time>2022-06-12T09:12:03.352Z</time>
      </trkpt>
      <trkpt lat="44.26125" lon="2.538">
        <ele>747</ele>
        <time>2022-06-12T09:12:04.352Z</time>
      </trkpt>
      <trkpt lat="44.26125" lon="2.53799">
        <ele>747</ele>
        <time>2022-06-12T09:12:05.352Z</time>
      </trkpt>
      <trkpt lat="44.26124" lon="2.53798">
        <ele>747</ele>
        <time>2022-06-12T09:12:06.352Z</time>
      </trkpt>
      <trkpt lat="44.26124" lon="2.53797">
        <ele>746</ele>
        <time>2022-06-12T09:12:07.352Z</time>
      </trkpt>
      <trkpt lat="44.26123" lon="2.53796">
        <ele>746</ele>
        <time>2022-06-12T09:12:08.352Z</time>
      </trkpt>
      <trkpt lat="44.26123" lon="2.53795">
        <ele>746</ele>
        <time>2022-06-12T09:12:09.352Z</time>
      </trkpt>
      <trkpt lat="44.26122" lon="2.53794">
        <ele>746</ele>
        <time>2022-06-12T09:12:10.352Z</time>
      </trkpt>
      <trkpt lat="44.26119" lon="2.53782">
        <ele>745</ele>
        <time>2022-06-12T09:12:55.364Z</time>
      </trkpt>
      <trkpt lat="44.26119" lon="2.5378">
        <ele>745</ele>
        <time>2022-06-12T09:12:56.364Z</time>
      </trkpt>
      <trkpt lat="44.2612" lon="2.5378">
        <ele>745</ele>
        <time>2022-06-12T09:12:57.364Z</time>
      </trkpt>
      <trkpt lat="44.2612" lon="2.53779">
        <ele>745</ele>
        <time>2022-06-12T09:12:58.364Z</time>
      </trkpt>
      <trkpt lat="44.26121" lon="2.53778">
        <ele>745</ele>
        <time>2022-06-12T09:12:59.364Z</time>
      </trkpt>
      <trkpt lat="44.26122" lon="2.53777">
        <ele>745</ele>
        <time>2022-06-12T09:13:00.364Z</time>
      </trkpt>
      <trkpt lat="44.26123" lon="2.53776">
        <ele>745</ele>
        <time>2022-06-12T09:13:01.364Z</time>
      </trkpt>
      <trkpt lat="44.26123" lon="2.53775">
        <ele>745</ele>
        <time>2022-06-12T09:13:02.364Z</time>
      </trkpt>
      <trkpt lat="44.26124" lon="2.53774">
        <ele>744</ele>
        <time>2022-06-12T09:13:03.364Z</time>
      </trkpt>
      <trkpt lat="44.26125" lon="2.53773">
        <ele>744</ele>
        <time>2022-06-12T09:13:04.364Z</time>
      </trkpt>
      <trkpt lat="44.26126" lon="2.53772">
        <ele>744</ele>
        <time>2022-06-12T09:13:05.364Z</time>
      </trkpt>
      <trkpt lat="44.26126" lon="2.53771">
        <ele>744</ele>
        <time>2022-06-12T09:13:06.364Z</time>
      </trkpt>
      <trkpt lat="44.26127" lon="2.5377">
        <ele>744</ele>
        <time>2022-06-12T09:13:07.364Z</time>
      </trkpt>
      <trkpt lat="44.26128" lon="2.53768">
        <ele>744</ele>
        <time>2022-06-12T09:13:08.364Z</time>
      </trkpt>
      <trkpt lat="44.26129" lon="2.53767">
        <ele>744</ele>
        <time>2022-06-12T09:13:09.364Z</time>
      </trkpt>
      <trkpt lat="44.26129" lon="2.53766">
        <ele>744</ele>
        <time>2022-06-12T09:13:10.364Z</time>
      </trkpt>
      <trkpt lat="44.2613" lon="2.53765">
        <ele>744</ele>
        <time>2022-06-12T09:13:11.364Z</time>
      </trkpt>
      <trkpt lat="44.26131" lon="2.53764">
        <ele>743</ele>
        <time>2022-06-12T09:13:12.364Z</time>
      </trkpt>
      <trkpt lat="44.26131" lon="2.53763">
        <ele>743</ele>
        <time>2022-06-12T09:13:13.364Z</time>
      </trkpt>
      <trkpt lat="44.26132" lon="2.53762">
        <ele>743</ele>
        <time>2022-06-12T09:13:14.364Z</time>
      </trkpt>
      <trkpt lat="44.26133" lon="2.53761">
        <ele>743</ele>
        <time>2022-06-12T09:13:15.364Z</time>
      </trkpt>
      <trkpt lat="44.26133" lon="2.5376">
        <ele>743</ele>
        <time>2022-06-12T09:13:16.364Z</time>
      </trkpt>
      <trkpt lat="44.26134" lon="2.53759">
        <ele>743</ele>
        <time>2022-06-12T09:13:17.364Z</time>
      </trkpt>
      <trkpt lat="44.26135" lon="2.53757">
        <ele>743</ele>
        <time>2022-06-12T09:13:18.364Z</time>
      </trkpt>
      <trkpt lat="44.26135" lon="2.53756">
        <ele>743</ele>
        <time>2022-06-12T09:13:19.364Z</time>
      </trkpt>
      <trkpt lat="44.26136" lon="2.53755">
        <ele>743</ele>
        <time>2022-06-12T09:13:20.364Z</time>
      </trkpt>
      <trkpt lat="44.26136" lon="2.53754">
        <ele>743</ele>
        <time>2022-06-12T09:13:21.364Z</time>
      </trkpt>
      <trkpt lat="44.26137" lon="2.53752">
        <ele>743</ele>
        <time>2022-06-12T09:13:22.364Z</time>
      </trkpt>
      <trkpt lat="44.26137" lon="2.53751">
        <ele>743</ele>
        <time>2022-06-12T09:13:23.364Z</time>
      </trkpt>
      <trkpt lat="44.26138" lon="2.5375">
        <ele>743</ele>
        <time>2022-06-12T09:13:24.364Z</time>
      </trkpt>
      <trkpt lat="44.26138" lon="2.53748">
        <ele>743</ele>
        <time>2022-06-12T09:13:25.364Z</time>
      </trkpt>
      <trkpt lat="44.26138" lon="2.53747">
        <ele>743</ele>
        <time>2022-06-12T09:13:26.364Z</time>
      </trkpt>
      <trkpt lat="44.26138" lon="2.53746">
        <ele>743</ele>
        <time>2022-06-12T09:13:27.364Z</time>
      </trkpt>
      <trkpt lat="44.26139" lon="2.53744">
        <ele>743</ele>
        <time>2022-06-12T09:13:28.364Z</time>
      </trkpt>
      <trkpt lat="44.26139" lon="2.53743">
        <ele>743</ele>
        <time>2022-06-12T09:13:29.364Z</time>
      </trkpt>
      <trkpt lat="44.26139" lon="2.53741">
        <ele>743</ele>
        <time>2022-06-12T09:13:30.364Z</time>
      </trkpt>
      <trkpt lat="44.26139" lon="2.5374">
        <ele>743</ele>
        <time>2022-06-12T09:13:31.364Z</time>
      </trkpt>
      <trkpt lat="44.26139" lon="2.53739">
        <ele>743</ele>
        <time>2022-06-12T09:13:32.364Z</time>
      </trkpt>
      <trkpt lat="44.2614" lon="2.53737">
        <ele>743</ele>
        <time>2022-06-12T09:13:33.364Z</time>
      </trkpt>
      <trkpt lat="44.2614" lon="2.53736">
        <ele>743</ele>
        <time>2022-06-12T09:13:34.364Z</time>
      </trkpt>
      <trkpt lat="44.2614" lon="2.53735">
        <ele>743</ele>
        <time>2022-06-12T09:13:35.364Z</time>
      </trkpt>
      <trkpt lat="44.2614" lon="2.53734">
        <ele>743</ele>
        <time>2022-06-12T09:13:36.364Z</time>
      </trkpt>
      <trkpt lat="44.2614" lon="2.53733">
        <ele>743</ele>
        <time>2022-06-12T09:13:37.364Z</time>
      </trkpt>
      <trkpt lat="44.2614" lon="2.53732">
        <ele>744</ele>
        <time>2022-06-12T09:13:38.364Z</time>
      </trkpt>
      <trkpt lat="44.2614" lon="2.53731">
        <ele>744</ele>
        <time>2022-06-12T09:13:39.364Z</time>
      </trkpt>
      <trkpt lat="44.2614" lon="2.53729">
        <ele>744</ele>
        <time>2022-06-12T09:13:40.364Z</time>
      </trkpt>
      <trkpt lat="44.2614" lon="2.53728">
        <ele>744</ele>
        <time>2022-06-12T09:13:41.364Z</time>
      </trkpt>
      <trkpt lat="44.2614" lon="2.53726">
        <ele>744</ele>
        <time>2022-06-12T09:13:42.364Z</time>
      </trkpt>
      <trkpt lat="44.2614" lon="2.53725">
        <ele>744</ele>
        <time>2022-06-12T09:13:43.364Z</time>
      </trkpt>
      <trkpt lat="44.26139" lon="2.53723">
        <ele>744</ele>
        <time>2022-06-12T09:13:44.364Z</time>
      </trkpt>
      <trkpt lat="44.26139" lon="2.53722">
        <ele>744</ele>
        <time>2022-06-12T09:13:45.364Z</time>
      </trkpt>
      <trkpt lat="44.26139" lon="2.5372">
        <ele>744</ele>
        <time>2022-06-12T09:13:46.364Z</time>
      </trkpt>
      <trkpt lat="44.26139" lon="2.53719">
        <ele>744</ele>
        <time>2022-06-12T09:13:47.364Z</time>
      </trkpt>
      <trkpt lat="44.26138" lon="2.53717">
        <ele>744</ele>
        <time>2022-06-12T09:13:48.364Z</time>
      </trkpt>
      <trkpt lat="44.26138" lon="2.53715">
        <ele>744</ele>
        <time>2022-06-12T09:13:49.364Z</time>
      </trkpt>
      <trkpt lat="44.26138" lon="2.53714">
        <ele>744</ele>
        <time>2022-06-12T09:13:50.364Z</time>
      </trkpt>
      <trkpt lat="44.26138" lon="2.53712">
        <ele>745</ele>
        <time>2022-06-12T09:13:51.364Z</time>
      </trkpt>
      <trkpt lat="44.26138" lon="2.53711">
        <ele>745</ele>
        <time>2022-06-12T09:13:52.364Z</time>
      </trkpt>
      <trkpt lat="44.26138" lon="2.53709">
        <ele>745</ele>
        <time>2022-06-12T09:13:53.364Z</time>
      </trkpt>
      <trkpt lat="44.26138" lon="2.53707">
        <ele>745</ele>
        <time>2022-06-12T09:13:54.364Z</time>
      </trkpt>
      <trkpt lat="44.26137" lon="2.53706">
        <ele>745</ele>
        <time>2022-06-12T09:13:55.364Z</time>
      </trkpt>
      <trkpt lat="44.26137" lon="2.53704">
        <ele>745</ele>
        <time>2022-06-12T09:13:56.364Z</time>
      </trkpt>
      <trkpt lat="44.26137" lon="2.53702">
        <ele>746</ele>
        <time>2022-06-12T09:13:57.364Z</time>
      </trkpt>
      <trkpt lat="44.26136" lon="2.53701">
        <ele>746</ele>
        <time>2022-06-12T09:13:58.364Z</time>
      </trkpt>
      <trkpt lat="44.26136" lon="2.53699">
        <ele>746</ele>
        <time>2022-06-12T09:13:59.364Z</time>
      </trkpt>
      <trkpt lat="44.26135" lon="2.53697">
        <ele>746</ele>
        <time>2022-06-12T09:14:00.364Z</time>
      </trkpt>
      <trkpt lat="44.26134" lon="2.53695">
        <ele>746</ele>
        <time>2022-06-12T09:14:01.364Z</time>
      </trkpt>
      <trkpt lat="44.26134" lon="2.53694">
        <ele>746</ele>
        <time>2022-06-12T09:14:02.364Z</time>
      </trkpt>
      <trkpt lat="44.26133" lon="2.53692">
        <ele>747</ele>
        <time>2022-06-12T09:14:03.364Z</time>
      </trkpt>
      <trkpt lat="44.26133" lon="2.53691">
        <ele>747</ele>
        <time>2022-06-12T09:14:04.364Z</time>
      </trkpt>
      <trkpt lat="44.26132" lon="2.5369">
        <ele>747</ele>
        <time>2022-06-12T09:14:05.364Z</time>
      </trkpt>
      <trkpt lat="44.26132" lon="2.53688">
        <ele>747</ele>
        <time>2022-06-12T09:14:06.364Z</time>
      </trkpt>
      <trkpt lat="44.26131" lon="2.53687">
        <ele>747</ele>
        <time>2022-06-12T09:14:07.364Z</time>
      </trkpt>
      <trkpt lat="44.26131" lon="2.53685">
        <ele>747</ele>
        <time>2022-06-12T09:14:08.364Z</time>
      </trkpt>
      <trkpt lat="44.26131" lon="2.53684">
        <ele>747</ele>
        <time>2022-06-12T09:14:09.364Z</time>
      </trkpt>
      <trkpt lat="44.2613" lon="2.53682">
        <ele>747</ele>
        <time>2022-06-12T09:14:10.364Z</time>
      </trkpt>
      <trkpt lat="44.2613" lon="2.53681">
        <ele>747</ele>
        <time>2022-06-12T09:14:11.364Z</time>
      </trkpt>
      <trkpt lat="44.26129" lon="2.5368">
        <ele>747</ele>
        <time>2022-06-12T09:14:12.364Z</time>
      </trkpt>
      <trkpt lat="44.26129" lon="2.53678">
        <ele>747</ele>
        <time>2022-06-12T09:14:13.364Z</time>
      </trkpt>
      <trkpt lat="44.26128" lon="2.53677">
        <ele>748</ele>
        <time>2022-06-12T09:14:14.364Z</time>
      </trkpt>
      <trkpt lat="44.26128" lon="2.53675">
        <ele>748</ele>
        <time>2022-06-12T09:14:15.364Z</time>
      </trkpt>
      <trkpt lat="44.26128" lon="2.53674">
        <ele>748</ele>
        <time>2022-06-12T09:14:16.364Z</time>
      </trkpt>
      <trkpt lat="44.26128" lon="2.53673">
        <ele>748</ele>
        <time>2022-06-12T09:14:17.364Z</time>
      </trkpt>
      <trkpt lat="44.26127" lon="2.53672">
        <ele>748</ele>
        <time>2022-06-12T09:14:18.364Z</time>
      </trkpt>
      <trkpt lat="44.26127" lon="2.5367">
        <ele>748</ele>
        <time>2022-06-12T09:14:19.364Z</time>
      </trkpt>
      <trkpt lat="44.26127" lon="2.53669">
        <ele>748</ele>
        <time>2022-06-12T09:14:20.364Z</time>
      </trkpt>
      <trkpt lat="44.26126" lon="2.53668">
        <ele>748</ele>
        <time>2022-06-12T09:14:21.364Z</time>
      </trkpt>
      <trkpt lat="44.26126" lon="2.53666">
        <ele>748</ele>
        <time>2022-06-12T09:14:22.364Z</time>
      </trkpt>
      <trkpt lat="44.26126" lon="2.53665">
        <ele>749</ele>
        <time>2022-06-12T09:14:23.364Z</time>
      </trkpt>
      <trkpt lat="44.26125" lon="2.53664">
        <ele>749</ele>
        <time>2022-06-12T09:14:24.364Z</time>
      </trkpt>
      <trkpt lat="44.26125" lon="2.53662">
        <ele>749</ele>
        <time>2022-06-12T09:14:25.364Z</time>
      </trkpt>
      <trkpt lat="44.26125" lon="2.5366">
        <ele>749</ele>
        <time>2022-06-12T09:14:26.364Z</time>
      </trkpt>
      <trkpt lat="44.26125" lon="2.5366">
        <ele>749</ele>
        <time>2022-06-12T09:14:27.364Z</time>
      </trkpt>
      <trkpt lat="44.26125" lon="2.5366">
        <ele>749</ele>
        <time>2022-06-12T09:14:28.364Z</time>
      </trkpt>
      <trkpt lat="44.26125" lon="2.5366">
        <ele>749</ele>
        <time>2022-06-12T09:14:29.364Z</time>
      </trkpt>
      <trkpt lat="44.26125" lon="2.53659">
        <ele>749</ele>
        <time>2022-06-12T09:14:30.364Z</time>
      </trkpt>
      <trkpt lat="44.26124" lon="2.53657">
        <ele>749</ele>
        <time>2022-06-12T09:14:31.364Z</time>
      </trkpt>
      <trkpt lat="44.26124" lon="2.53656">
        <ele>749</ele>
        <time>2022-06-12T09:14:32.364Z</time>
      </trkpt>
      <trkpt lat="44.26123" lon="2.53655">
        <ele>749</ele>
        <time>2022-06-12T09:14:33.364Z</time>
      </trkpt>
      <trkpt lat="44.26123" lon="2.53653">
        <ele>749</ele>
        <time>2022-06-12T09:14:34.364Z</time>
      </trkpt>
      <trkpt lat="44.26122" lon="2.53651">
        <ele>749</ele>
        <time>2022-06-12T09:14:35.364Z</time>
      </trkpt>
      <trkpt lat="44.26122" lon="2.5365">
        <ele>750</ele>
        <time>2022-06-12T09:14:36.364Z</time>
      </trkpt>
      <trkpt lat="44.26122" lon="2.53648">
        <ele>750</ele>
        <time>2022-06-12T09:14:37.364Z</time>
      </trkpt>
      <trkpt lat="44.26121" lon="2.53646">
        <ele>750</ele>
        <time>2022-06-12T09:14:38.364Z</time>
      </trkpt>
      <trkpt lat="44.2612" lon="2.53645">
        <ele>750</ele>
        <time>2022-06-12T09:14:39.364Z</time>
      </trkpt>
      <trkpt lat="44.2612" lon="2.53643">
        <ele>750</ele>
        <time>2022-06-12T09:14:40.364Z</time>
      </trkpt>
      <trkpt lat="44.26119" lon="2.53642">
        <ele>750</ele>
        <time>2022-06-12T09:14:41.364Z</time>
      </trkpt>
      <trkpt lat="44.26119" lon="2.5364">
        <ele>750</ele>
        <time>2022-06-12T09:14:42.364Z</time>
      </trkpt>
      <trkpt lat="44.26118" lon="2.53639">
        <ele>750</ele>
        <time>2022-06-12T09:14:43.364Z</time>
      </trkpt>
      <trkpt lat="44.26117" lon="2.53637">
        <ele>750</ele>
        <time>2022-06-12T09:14:44.364Z</time>
      </trkpt>
      <trkpt lat="44.26117" lon="2.53635">
        <ele>750</ele>
        <time>2022-06-12T09:14:45.364Z</time>
      </trkpt>
      <trkpt lat="44.26116" lon="2.53633">
        <ele>751</ele>
        <time>2022-06-12T09:14:46.364Z</time>
      </trkpt>
      <trkpt lat="44.26115" lon="2.53632">
        <ele>751</ele>
        <time>2022-06-12T09:14:47.364Z</time>
      </trkpt>
      <trkpt lat="44.26115" lon="2.53631">
        <ele>751</ele>
        <time>2022-06-12T09:14:48.364Z</time>
      </trkpt>
      <trkpt lat="44.26114" lon="2.53629">
        <ele>751</ele>
        <time>2022-06-12T09:14:49.364Z</time>
      </trkpt>
      <trkpt lat="44.26114" lon="2.53627">
        <ele>751</ele>
        <time>2022-06-12T09:14:50.364Z</time>
      </trkpt>
      <trkpt lat="44.26113" lon="2.53626">
        <ele>751</ele>
        <time>2022-06-12T09:14:51.364Z</time>
      </trkpt>
      <trkpt lat="44.26113" lon="2.53625">
        <ele>751</ele>
        <time>2022-06-12T09:14:52.364Z</time>
      </trkpt>
      <trkpt lat="44.26113" lon="2.53623">
        <ele>751</ele>
        <time>2022-06-12T09:14:53.364Z</time>
      </trkpt>
      <trkpt lat="44.26112" lon="2.53621">
        <ele>751</ele>
        <time>2022-06-12T09:14:54.364Z</time>
      </trkpt>
      <trkpt lat="44.26112" lon="2.5362">
        <ele>751</ele>
        <time>2022-06-12T09:14:55.364Z</time>
      </trkpt>
      <trkpt lat="44.26111" lon="2.53618">
        <ele>751</ele>
        <time>2022-06-12T09:14:56.364Z</time>
      </trkpt>
      <trkpt lat="44.26111" lon="2.53617">
        <ele>751</ele>
        <time>2022-06-12T09:14:57.364Z</time>
      </trkpt>
      <trkpt lat="44.2611" lon="2.53615">
        <ele>751</ele>
        <time>2022-06-12T09:14:58.364Z</time>
      </trkpt>
      <trkpt lat="44.2611" lon="2.53614">
        <ele>751</ele>
        <time>2022-06-12T09:14:59.364Z</time>
      </trkpt>
      <trkpt lat="44.2611" lon="2.53613">
        <ele>751</ele>
        <time>2022-06-12T09:15:00.364Z</time>
      </trkpt>
      <trkpt lat="44.26109" lon="2.53611">
        <ele>751</ele>
        <time>2022-06-12T09:15:01.364Z</time>
      </trkpt>
      <trkpt lat="44.26109" lon="2.5361">
        <ele>752</ele>
        <time>2022-06-12T09:15:02.364Z</time>
      </trkpt>
      <trkpt lat="44.26109" lon="2.53608">
        <ele>752</ele>
        <time>2022-06-12T09:15:03.364Z</time>
      </trkpt>
      <trkpt lat="44.26108" lon="2.53607">
        <ele>752</ele>
        <time>2022-06-12T09:15:04.364Z</time>
      </trkpt>
      <trkpt lat="44.26108" lon="2.53605">
        <ele>752</ele>
        <time>2022-06-12T09:15:05.364Z</time>
      </trkpt>
      <trkpt lat="44.26107" lon="2.53604">
        <ele>752</ele>
        <time>2022-06-12T09:15:06.364Z</time>
      </trkpt>
      <trkpt lat="44.26107" lon="2.53603">
        <ele>752</ele>
        <time>2022-06-12T09:15:07.364Z</time>
      </trkpt>
      <trkpt lat="44.26106" lon="2.53602">
        <ele>752</ele>
        <time>2022-06-12T09:15:08.364Z</time>
      </trkpt>
      <trkpt lat="44.26106" lon="2.536">
        <ele>752</ele>
        <time>2022-06-12T09:15:09.364Z</time>
      </trkpt>
      <trkpt lat="44.26106" lon="2.53599">
        <ele>752</ele>
        <time>2022-06-12T09:15:10.364Z</time>
      </trkpt>
      <trkpt lat="44.26105" lon="2.53597">
        <ele>752</ele>
        <time>2022-06-12T09:15:11.364Z</time>
      </trkpt>
      <trkpt lat="44.26105" lon="2.53596">
        <ele>752</ele>
        <time>2022-06-12T09:15:12.364Z</time>
      </trkpt>
      <trkpt lat="44.26105" lon="2.53595">
        <ele>752</ele>
        <time>2022-06-12T09:15:13.364Z</time>
      </trkpt>
      <trkpt lat="44.26104" lon="2.53593">
        <ele>752</ele>
        <time>2022-06-12T09:15:14.364Z</time>
      </trkpt>
      <trkpt lat="44.26104" lon="2.53592">
        <ele>752</ele>
        <time>2022-06-12T09:15:15.364Z</time>
      </trkpt>
      <trkpt lat="44.26103" lon="2.5359">
        <ele>752</ele>
        <time>2022-06-12T09:15:16.364Z</time>
      </trkpt>
      <trkpt lat="44.26103" lon="2.53588">
        <ele>753</ele>
        <time>2022-06-12T09:15:17.364Z</time>
      </trkpt>
      <trkpt lat="44.26102" lon="2.53587">
        <ele>753</ele>
        <time>2022-06-12T09:15:18.364Z</time>
      </trkpt>
      <trkpt lat="44.26102" lon="2.53585">
        <ele>753</ele>
        <time>2022-06-12T09:15:19.364Z</time>
      </trkpt>
      <trkpt lat="44.26101" lon="2.53583">
        <ele>753</ele>
        <time>2022-06-12T09:15:20.364Z</time>
      </trkpt>
      <trkpt lat="44.26101" lon="2.53582">
        <ele>753</ele>
        <time>2022-06-12T09:15:21.364Z</time>
      </trkpt>
      <trkpt lat="44.261" lon="2.5358">
        <ele>753</ele>
        <time>2022-06-12T09:15:22.364Z</time>
      </trkpt>
      <trkpt lat="44.261" lon="2.53578">
        <ele>753</ele>
        <time>2022-06-12T09:15:23.364Z</time>
      </trkpt>
      <trkpt lat="44.261" lon="2.53576">
        <ele>753</ele>
        <time>2022-06-12T09:15:24.364Z</time>
      </trkpt>
      <trkpt lat="44.26099" lon="2.53575">
        <ele>753</ele>
        <time>2022-06-12T09:15:25.364Z</time>
      </trkpt>
      <trkpt lat="44.26099" lon="2.53573">
        <ele>753</ele>
        <time>2022-06-12T09:15:26.364Z</time>
      </trkpt>
      <trkpt lat="44.26098" lon="2.53572">
        <ele>753</ele>
        <time>2022-06-12T09:15:27.364Z</time>
      </trkpt>
      <trkpt lat="44.26098" lon="2.5357">
        <ele>753</ele>
        <time>2022-06-12T09:15:28.364Z</time>
      </trkpt>
      <trkpt lat="44.26097" lon="2.53568">
        <ele>753</ele>
        <time>2022-06-12T09:15:29.364Z</time>
      </trkpt>
      <trkpt lat="44.26097" lon="2.53566">
        <ele>753</ele>
        <time>2022-06-12T09:15:30.364Z</time>
      </trkpt>
      <trkpt lat="44.26096" lon="2.53565">
        <ele>753</ele>
        <time>2022-06-12T09:15:31.364Z</time>
      </trkpt>
      <trkpt lat="44.26096" lon="2.53563">
        <ele>753</ele>
        <time>2022-06-12T09:15:32.364Z</time>
      </trkpt>
      <trkpt lat="44.26095" lon="2.53562">
        <ele>753</ele>
        <time>2022-06-12T09:15:33.364Z</time>
      </trkpt>
      <trkpt lat="44.26095" lon="2.53561">
        <ele>753</ele>
        <time>2022-06-12T09:15:34.364Z</time>
      </trkpt>
      <trkpt lat="44.26095" lon="2.53559">
        <ele>753</ele>
        <time>2022-06-12T09:15:35.364Z</time>
      </trkpt>
      <trkpt lat="44.26094" lon="2.53558">
        <ele>753</ele>
        <time>2022-06-12T09:15:36.364Z</time>
      </trkpt>
      <trkpt lat="44.26094" lon="2.53556">
        <ele>753</ele>
        <time>2022-06-12T09:15:37.364Z</time>
      </trkpt>
      <trkpt lat="44.26094" lon="2.53555">
        <ele>753</ele>
        <time>2022-06-12T09:15:38.364Z</time>
      </trkpt>
      <trkpt lat="44.26093" lon="2.53554">
        <ele>753</ele>
        <time>2022-06-12T09:15:39.364Z</time>
      </trkpt>
      <trkpt lat="44.26093" lon="2.53552">
        <ele>753</ele>
        <time>2022-06-12T09:15:40.364Z</time>
      </trkpt>
      <trkpt lat="44.26092" lon="2.53551">
        <ele>753</ele>
        <time>2022-06-12T09:15:41.364Z</time>
      </trkpt>
      <trkpt lat="44.26092" lon="2.53549">
        <ele>753</ele>
        <time>2022-06-12T09:15:42.364Z</time>
      </trkpt>
      <trkpt lat="44.26091" lon="2.53547">
        <ele>753</ele>
        <time>2022-06-12T09:15:43.364Z</time>
      </trkpt>
      <trkpt lat="44.26091" lon="2.53545">
        <ele>753</ele>
        <time>2022-06-12T09:15:44.364Z</time>
      </trkpt>
      <trkpt lat="44.26091" lon="2.53544">
        <ele>753</ele>
        <time>2022-06-12T09:15:45.364Z</time>
      </trkpt>
      <trkpt lat="44.26091" lon="2.53542">
        <ele>753</ele>
        <time>2022-06-12T09:15:46.364Z</time>
      </trkpt>
      <trkpt lat="44.26091" lon="2.5354">
        <ele>753</ele>
        <time>2022-06-12T09:15:47.364Z</time>
      </trkpt>
      <trkpt lat="44.26091" lon="2.53538">
        <ele>753</ele>
        <time>2022-06-12T09:15:48.364Z</time>
      </trkpt>
      <trkpt lat="44.26091" lon="2.53537">
        <ele>753</ele>
        <time>2022-06-12T09:15:49.364Z</time>
      </trkpt>
      <trkpt lat="44.26092" lon="2.53536">
        <ele>752</ele>
        <time>2022-06-12T09:15:50.364Z</time>
      </trkpt>
      <trkpt lat="44.26092" lon="2.53535">
        <ele>752</ele>
        <time>2022-06-12T09:15:51.364Z</time>
      </trkpt>
      <trkpt lat="44.26093" lon="2.53533">
        <ele>752</ele>
        <time>2022-06-12T09:15:52.364Z</time>
      </trkpt>
      <trkpt lat="44.26094" lon="2.53532">
        <ele>752</ele>
        <time>2022-06-12T09:15:53.364Z</time>
      </trkpt>
      <trkpt lat="44.26094" lon="2.53531">
        <ele>752</ele>
        <time>2022-06-12T09:15:54.364Z</time>
      </trkpt>
      <trkpt lat="44.26095" lon="2.5353">
        <ele>752</ele>
        <time>2022-06-12T09:15:55.364Z</time>
      </trkpt>
      <trkpt lat="44.26096" lon="2.53529">
        <ele>752</ele>
        <time>2022-06-12T09:15:56.364Z</time>
      </trkpt>
      <trkpt lat="44.26097" lon="2.53528">
        <ele>752</ele>
        <time>2022-06-12T09:15:57.364Z</time>
      </trkpt>
      <trkpt lat="44.26098" lon="2.53527">
        <ele>752</ele>
        <time>2022-06-12T09:15:58.364Z</time>
      </trkpt>
      <trkpt lat="44.26099" lon="2.53526">
        <ele>751</ele>
        <time>2022-06-12T09:15:59.364Z</time>
      </trkpt>
      <trkpt lat="44.26099" lon="2.53525">
        <ele>751</ele>
        <time>2022-06-12T09:16:00.364Z</time>
      </trkpt>
      <trkpt lat="44.261" lon="2.53525">
        <ele>751</ele>
        <time>2022-06-12T09:16:01.364Z</time>
      </trkpt>
      <trkpt lat="44.26101" lon="2.53524">
        <ele>751</ele>
        <time>2022-06-12T09:16:02.364Z</time>
      </trkpt>
      <trkpt lat="44.26102" lon="2.53523">
        <ele>751</ele>
        <time>2022-06-12T09:16:03.364Z</time>
      </trkpt>
      <trkpt lat="44.26103" lon="2.53522">
        <ele>751</ele>
        <time>2022-06-12T09:16:04.364Z</time>
      </trkpt>
      <trkpt lat="44.26104" lon="2.53521">
        <ele>751</ele>
        <time>2022-06-12T09:16:05.364Z</time>
      </trkpt>
      <trkpt lat="44.26105" lon="2.5352">
        <ele>751</ele>
        <time>2022-06-12T09:16:06.364Z</time>
      </trkpt>
      <trkpt lat="44.26106" lon="2.53519">
        <ele>751</ele>
        <time>2022-06-12T09:16:07.364Z</time>
      </trkpt>
      <trkpt lat="44.26106" lon="2.53518">
        <ele>751</ele>
        <time>2022-06-12T09:16:08.364Z</time>
      </trkpt>
      <trkpt lat="44.26107" lon="2.53518">
        <ele>751</ele>
        <time>2022-06-12T09:16:09.364Z</time>
      </trkpt>
      <trkpt lat="44.26108" lon="2.53517">
        <ele>751</ele>
        <time>2022-06-12T09:16:10.364Z</time>
      </trkpt>
      <trkpt lat="44.26109" lon="2.53516">
        <ele>751</ele>
        <time>2022-06-12T09:16:11.364Z</time>
      </trkpt>
      <trkpt lat="44.2611" lon="2.53515">
        <ele>751</ele>
        <time>2022-06-12T09:16:12.364Z</time>
      </trkpt>
      <trkpt lat="44.26111" lon="2.53514">
        <ele>751</ele>
        <time>2022-06-12T09:16:13.364Z</time>
      </trkpt>
      <trkpt lat="44.26112" lon="2.53513">
        <ele>750</ele>
        <time>2022-06-12T09:16:14.364Z</time>
      </trkpt>
      <trkpt lat="44.26113" lon="2.53512">
        <ele>750</ele>
        <time>2022-06-12T09:16:15.364Z</time>
      </trkpt>
      <trkpt lat="44.26114" lon="2.53511">
        <ele>750</ele>
        <time>2022-06-12T09:16:16.364Z</time>
      </trkpt>
      <trkpt lat="44.26115" lon="2.5351">
        <ele>750</ele>
        <time>2022-06-12T09:16:17.364Z</time>
      </trkpt>
      <trkpt lat="44.26116" lon="2.53509">
        <ele>750</ele>
        <time>2022-06-12T09:16:18.364Z</time>
      </trkpt>
      <trkpt lat="44.26117" lon="2.53507">
        <ele>750</ele>
        <time>2022-06-12T09:16:19.364Z</time>
      </trkpt>
      <trkpt lat="44.26118" lon="2.53507">
        <ele>750</ele>
        <time>2022-06-12T09:16:20.364Z</time>
      </trkpt>
      <trkpt lat="44.26119" lon="2.53505">
        <ele>750</ele>
        <time>2022-06-12T09:16:21.364Z</time>
      </trkpt>
      <trkpt lat="44.2612" lon="2.53504">
        <ele>750</ele>
        <time>2022-06-12T09:16:22.364Z</time>
      </trkpt>
      <trkpt lat="44.26121" lon="2.53503">
        <ele>750</ele>
        <time>2022-06-12T09:16:23.364Z</time>
      </trkpt>
      <trkpt lat="44.26123" lon="2.53502">
        <ele>750</ele>
        <time>2022-06-12T09:16:24.364Z</time>
      </trkpt>
      <trkpt lat="44.26124" lon="2.53501">
        <ele>750</ele>
        <time>2022-06-12T09:16:25.364Z</time>
      </trkpt>
      <trkpt lat="44.26125" lon="2.535">
        <ele>750</ele>
        <time>2022-06-12T09:16:26.364Z</time>
      </trkpt>
      <trkpt lat="44.26126" lon="2.53499">
        <ele>749</ele>
        <time>2022-06-12T09:16:27.364Z</time>
      </trkpt>
      <trkpt lat="44.26127" lon="2.53498">
        <ele>749</ele>
        <time>2022-06-12T09:16:28.364Z</time>
      </trkpt>
      <trkpt lat="44.26127" lon="2.53497">
        <ele>749</ele>
        <time>2022-06-12T09:16:29.364Z</time>
      </trkpt>
      <trkpt lat="44.26128" lon="2.53496">
        <ele>749</ele>
        <time>2022-06-12T09:16:30.364Z</time>
      </trkpt>
      <trkpt lat="44.26129" lon="2.53495">
        <ele>749</ele>
        <time>2022-06-12T09:16:31.364Z</time>
      </trkpt>
      <trkpt lat="44.2613" lon="2.53494">
        <ele>749</ele>
        <time>2022-06-12T09:16:32.364Z</time>
      </trkpt>
      <trkpt lat="44.26131" lon="2.53494">
        <ele>749</ele>
        <time>2022-06-12T09:16:33.364Z</time>
      </trkpt>
      <trkpt lat="44.26132" lon="2.53493">
        <ele>749</ele>
        <time>2022-06-12T09:16:34.364Z</time>
      </trkpt>
      <trkpt lat="44.26133" lon="2.53492">
        <ele>749</ele>
        <time>2022-06-12T09:16:35.364Z</time>
      </trkpt>
      <trkpt lat="44.26134" lon="2.53491">
        <ele>749</ele>
        <time>2022-06-12T09:16:36.364Z</time>
      </trkpt>
      <trkpt lat="44.26135" lon="2.5349">
        <ele>749</ele>
        <time>2022-06-12T09:16:37.364Z</time>
      </trkpt>
      <trkpt lat="44.26136" lon="2.53489">
        <ele>749</ele>
        <time>2022-06-12T09:16:38.364Z</time>
      </trkpt>
      <trkpt lat="44.26136" lon="2.53489">
        <ele>749</ele>
        <time>2022-06-12T09:16:39.364Z</time>
      </trkpt>
      <trkpt lat="44.26137" lon="2.53487">
        <ele>749</ele>
        <time>2022-06-12T09:16:40.364Z</time>
      </trkpt>
      <trkpt lat="44.26138" lon="2.53486">
        <ele>749</ele>
        <time>2022-06-12T09:16:41.364Z</time>
      </trkpt>
      <trkpt lat="44.26139" lon="2.53485">
        <ele>749</ele>
        <time>2022-06-12T09:16:42.364Z</time>
      </trkpt>
      <trkpt lat="44.2614" lon="2.53484">
        <ele>749</ele>
        <time>2022-06-12T09:16:43.364Z</time>
      </trkpt>
      <trkpt lat="44.26141" lon="2.53483">
        <ele>749</ele>
        <time>2022-06-12T09:16:44.364Z</time>
      </trkpt>
      <trkpt lat="44.26142" lon="2.53482">
        <ele>749</ele>
        <time>2022-06-12T09:16:45.364Z</time>
      </trkpt>
      <trkpt lat="44.26143" lon="2.53481">
        <ele>749</ele>
        <time>2022-06-12T09:16:46.364Z</time>
      </trkpt>
      <trkpt lat="44.26144" lon="2.5348">
        <ele>749</ele>
        <time>2022-06-12T09:16:47.364Z</time>
      </trkpt>
      <trkpt lat="44.26145" lon="2.53478">
        <ele>749</ele>
        <time>2022-06-12T09:16:48.364Z</time>
      </trkpt>
      <trkpt lat="44.26146" lon="2.53477">
        <ele>749</ele>
        <time>2022-06-12T09:16:49.364Z</time>
      </trkpt>
      <trkpt lat="44.26147" lon="2.53476">
        <ele>748</ele>
        <time>2022-06-12T09:16:50.364Z</time>
      </trkpt>
      <trkpt lat="44.26148" lon="2.53475">
        <ele>748</ele>
        <time>2022-06-12T09:16:51.364Z</time>
      </trkpt>
      <trkpt lat="44.26149" lon="2.53475">
        <ele>748</ele>
        <time>2022-06-12T09:16:52.364Z</time>
      </trkpt>
      <trkpt lat="44.2615" lon="2.53474">
        <ele>748</ele>
        <time>2022-06-12T09:16:53.364Z</time>
      </trkpt>
      <trkpt lat="44.26151" lon="2.53473">
        <ele>748</ele>
        <time>2022-06-12T09:16:54.364Z</time>
      </trkpt>
      <trkpt lat="44.26152" lon="2.53472">
        <ele>748</ele>
        <time>2022-06-12T09:16:55.364Z</time>
      </trkpt>
      <trkpt lat="44.26153" lon="2.53471">
        <ele>748</ele>
        <time>2022-06-12T09:16:56.364Z</time>
      </trkpt>
      <trkpt lat="44.26154" lon="2.5347">
        <ele>748</ele>
        <time>2022-06-12T09:16:57.364Z</time>
      </trkpt>
      <trkpt lat="44.26155" lon="2.53469">
        <ele>748</ele>
        <time>2022-06-12T09:16:58.364Z</time>
      </trkpt>
      <trkpt lat="44.26156" lon="2.53468">
        <ele>748</ele>
        <time>2022-06-12T09:16:59.364Z</time>
      </trkpt>
      <trkpt lat="44.26158" lon="2.53467">
        <ele>748</ele>
        <time>2022-06-12T09:17:00.364Z</time>
      </trkpt>
      <trkpt lat="44.26159" lon="2.53466">
        <ele>748</ele>
        <time>2022-06-12T09:17:01.364Z</time>
      </trkpt>
      <trkpt lat="44.2616" lon="2.53465">
        <ele>747</ele>
        <time>2022-06-12T09:17:02.364Z</time>
      </trkpt>
      <trkpt lat="44.26161" lon="2.53464">
        <ele>747</ele>
        <time>2022-06-12T09:17:03.364Z</time>
      </trkpt>
      <trkpt lat="44.26161" lon="2.53463">
        <ele>747</ele>
        <time>2022-06-12T09:17:04.364Z</time>
      </trkpt>
      <trkpt lat="44.26162" lon="2.53462">
        <ele>747</ele>
        <time>2022-06-12T09:17:05.364Z</time>
      </trkpt>
      <trkpt lat="44.26163" lon="2.5346">
        <ele>747</ele>
        <time>2022-06-12T09:17:06.364Z</time>
      </trkpt>
      <trkpt lat="44.26165" lon="2.53459">
        <ele>747</ele>
        <time>2022-06-12T09:17:07.364Z</time>
      </trkpt>
      <trkpt lat="44.26166" lon="2.53459">
        <ele>747</ele>
        <time>2022-06-12T09:17:08.364Z</time>
      </trkpt>
      <trkpt lat="44.26167" lon="2.53458">
        <ele>747</ele>
        <time>2022-06-12T09:17:09.364Z</time>
      </trkpt>
      <trkpt lat="44.26168" lon="2.53456">
        <ele>747</ele>
        <time>2022-06-12T09:17:10.364Z</time>
      </trkpt>
      <trkpt lat="44.26169" lon="2.53455">
        <ele>747</ele>
        <time>2022-06-12T09:17:11.364Z</time>
      </trkpt>
      <trkpt lat="44.2617" lon="2.53454">
        <ele>747</ele>
        <time>2022-06-12T09:17:12.364Z</time>
      </trkpt>
      <trkpt lat="44.26171" lon="2.53453">
        <ele>747</ele>
        <time>2022-06-12T09:17:13.364Z</time>
      </trkpt>
      <trkpt lat="44.26172" lon="2.53451">
        <ele>747</ele>
        <time>2022-06-12T09:17:14.364Z</time>
      </trkpt>
      <trkpt lat="44.26173" lon="2.5345">
        <ele>747</ele>
        <time>2022-06-12T09:17:15.364Z</time>
      </trkpt>
      <trkpt lat="44.26174" lon="2.53449">
        <ele>747</ele>
        <time>2022-06-12T09:17:16.364Z</time>
      </trkpt>
      <trkpt lat="44.26176" lon="2.53448">
        <ele>747</ele>
        <time>2022-06-12T09:17:17.364Z</time>
      </trkpt>
      <trkpt lat="44.26177" lon="2.53447">
        <ele>747</ele>
        <time>2022-06-12T09:17:18.364Z</time>
      </trkpt>
      <trkpt lat="44.26178" lon="2.53446">
        <ele>747</ele>
        <time>2022-06-12T09:17:19.364Z</time>
      </trkpt>
      <trkpt lat="44.26179" lon="2.53445">
        <ele>747</ele>
        <time>2022-06-12T09:17:20.364Z</time>
      </trkpt>
      <trkpt lat="44.2618" lon="2.53444">
        <ele>747</ele>
        <time>2022-06-12T09:17:21.364Z</time>
      </trkpt>
      <trkpt lat="44.26182" lon="2.53443">
        <ele>747</ele>
        <time>2022-06-12T09:17:22.364Z</time>
      </trkpt>
      <trkpt lat="44.26183" lon="2.53442">
        <ele>747</ele>
        <time>2022-06-12T09:17:23.364Z</time>
      </trkpt>
      <trkpt lat="44.26184" lon="2.53441">
        <ele>747</ele>
        <time>2022-06-12T09:17:24.364Z</time>
      </trkpt>
      <trkpt lat="44.26185" lon="2.5344">
        <ele>747</ele>
        <time>2022-06-12T09:17:25.364Z</time>
      </trkpt>
      <trkpt lat="44.26186" lon="2.53439">
        <ele>747</ele>
        <time>2022-06-12T09:17:26.364Z</time>
      </trkpt>
      <trkpt lat="44.26187" lon="2.53438">
        <ele>747</ele>
        <time>2022-06-12T09:17:27.364Z</time>
      </trkpt>
      <trkpt lat="44.26188" lon="2.53437">
        <ele>747</ele>
        <time>2022-06-12T09:17:28.364Z</time>
      </trkpt>
      <trkpt lat="44.26189" lon="2.53436">
        <ele>747</ele>
        <time>2022-06-12T09:17:29.364Z</time>
      </trkpt>
      <trkpt lat="44.2619" lon="2.53435">
        <ele>748</ele>
        <time>2022-06-12T09:17:30.364Z</time>
      </trkpt>
      <trkpt lat="44.26191" lon="2.53434">
        <ele>748</ele>
        <time>2022-06-12T09:17:31.364Z</time>
      </trkpt>
      <trkpt lat="44.26192" lon="2.53433">
        <ele>748</ele>
        <time>2022-06-12T09:17:32.364Z</time>
      </trkpt>
      <trkpt lat="44.26194" lon="2.53432">
        <ele>748</ele>
        <time>2022-06-12T09:17:33.364Z</time>
      </trkpt>
      <trkpt lat="44.26195" lon="2.53431">
        <ele>748</ele>
        <time>2022-06-12T09:17:34.364Z</time>
      </trkpt>
      <trkpt lat="44.26196" lon="2.5343">
        <ele>748</ele>
        <time>2022-06-12T09:17:35.364Z</time>
      </trkpt>
      <trkpt lat="44.26197" lon="2.53429">
        <ele>748</ele>
        <time>2022-06-12T09:17:36.364Z</time>
      </trkpt>
      <trkpt lat="44.26198" lon="2.53428">
        <ele>748</ele>
        <time>2022-06-12T09:17:37.364Z</time>
      </trkpt>
      <trkpt lat="44.26199" lon="2.53427">
        <ele>748</ele>
        <time>2022-06-12T09:17:38.364Z</time>
      </trkpt>
      <trkpt lat="44.262" lon="2.53426">
        <ele>748</ele>
        <time>2022-06-12T09:17:39.364Z</time>
      </trkpt>
      <trkpt lat="44.26201" lon="2.53425">
        <ele>748</ele>
        <time>2022-06-12T09:17:40.364Z</time>
      </trkpt>
      <trkpt lat="44.26202" lon="2.53424">
        <ele>748</ele>
        <time>2022-06-12T09:17:41.364Z</time>
      </trkpt>
      <trkpt lat="44.26203" lon="2.53423">
        <ele>748</ele>
        <time>2022-06-12T09:17:42.364Z</time>
      </trkpt>
      <trkpt lat="44.26204" lon="2.53422">
        <ele>748</ele>
        <time>2022-06-12T09:17:43.364Z</time>
      </trkpt>
      <trkpt lat="44.26205" lon="2.53421">
        <ele>748</ele>
        <time>2022-06-12T09:17:44.364Z</time>
      </trkpt>
      <trkpt lat="44.26206" lon="2.5342">
        <ele>748</ele>
        <time>2022-06-12T09:17:45.364Z</time>
      </trkpt>
      <trkpt lat="44.26207" lon="2.5342">
        <ele>748</ele>
        <time>2022-06-12T09:17:46.364Z</time>
      </trkpt>
      <trkpt lat="44.26208" lon="2.53419">
        <ele>748</ele>
        <time>2022-06-12T09:17:47.364Z</time>
      </trkpt>
      <trkpt lat="44.26209" lon="2.53418">
        <ele>748</ele>
        <time>2022-06-12T09:17:48.364Z</time>
      </trkpt>
      <trkpt lat="44.2621" lon="2.53417">
        <ele>748</ele>
        <time>2022-06-12T09:17:49.364Z</time>
      </trkpt>
      <trkpt lat="44.26211" lon="2.53416">
        <ele>748</ele>
        <time>2022-06-12T09:17:50.364Z</time>
      </trkpt>
      <trkpt lat="44.26212" lon="2.53415">
        <ele>748</ele>
        <time>2022-06-12T09:17:51.364Z</time>
      </trkpt>
      <trkpt lat="44.26213" lon="2.53414">
        <ele>748</ele>
        <time>2022-06-12T09:17:52.364Z</time>
      </trkpt>
      <trkpt lat="44.26214" lon="2.53413">
        <ele>748</ele>
        <time>2022-06-12T09:17:53.364Z</time>
      </trkpt>
      <trkpt lat="44.26214" lon="2.53412">
        <ele>748</ele>
        <time>2022-06-12T09:17:54.364Z</time>
      </trkpt>
      <trkpt lat="44.26215" lon="2.53412">
        <ele>748</ele>
        <time>2022-06-12T09:17:55.364Z</time>
      </trkpt>
      <trkpt lat="44.26216" lon="2.53411">
        <ele>748</ele>
        <time>2022-06-12T09:17:56.364Z</time>
      </trkpt>
      <trkpt lat="44.26217" lon="2.53409">
        <ele>748</ele>
        <time>2022-06-12T09:17:57.364Z</time>
      </trkpt>
      <trkpt lat="44.26218" lon="2.53408">
        <ele>748</ele>
        <time>2022-06-12T09:17:58.364Z</time>
      </trkpt>
      <trkpt lat="44.26219" lon="2.53407">
        <ele>748</ele>
        <time>2022-06-12T09:17:59.364Z</time>
      </trkpt>
      <trkpt lat="44.2622" lon="2.53406">
        <ele>748</ele>
        <time>2022-06-12T09:18:00.364Z</time>
      </trkpt>
      <trkpt lat="44.26221" lon="2.53405">
        <ele>748</ele>
        <time>2022-06-12T09:18:01.364Z</time>
      </trkpt>
      <trkpt lat="44.26222" lon="2.53404">
        <ele>748</ele>
        <time>2022-06-12T09:18:02.364Z</time>
      </trkpt>
      <trkpt lat="44.26223" lon="2.53403">
        <ele>748</ele>
        <time>2022-06-12T09:18:03.364Z</time>
      </trkpt>
      <trkpt lat="44.26224" lon="2.53402">
        <ele>748</ele>
        <time>2022-06-12T09:18:04.364Z</time>
      </trkpt>
      <trkpt lat="44.26225" lon="2.53401">
        <ele>748</ele>
        <time>2022-06-12T09:18:05.364Z</time>
      </trkpt>
      <trkpt lat="44.26226" lon="2.534">
        <ele>748</ele>
        <time>2022-06-12T09:18:06.364Z</time>
      </trkpt>
      <trkpt lat="44.26227" lon="2.53399">
        <ele>748</ele>
        <time>2022-06-12T09:18:07.364Z</time>
      </trkpt>
      <trkpt lat="44.26228" lon="2.53397">
        <ele>748</ele>
        <time>2022-06-12T09:18:08.364Z</time>
      </trkpt>
      <trkpt lat="44.26229" lon="2.53396">
        <ele>748</ele>
        <time>2022-06-12T09:18:09.364Z</time>
      </trkpt>
      <trkpt lat="44.2623" lon="2.53395">
        <ele>748</ele>
        <time>2022-06-12T09:18:10.364Z</time>
      </trkpt>
      <trkpt lat="44.26231" lon="2.53394">
        <ele>748</ele>
        <time>2022-06-12T09:18:11.364Z</time>
      </trkpt>
      <trkpt lat="44.26232" lon="2.53394">
        <ele>748</ele>
        <time>2022-06-12T09:18:12.364Z</time>
      </trkpt>
      <trkpt lat="44.26233" lon="2.53393">
        <ele>748</ele>
        <time>2022-06-12T09:18:13.364Z</time>
      </trkpt>
      <trkpt lat="44.26234" lon="2.53392">
        <ele>748</ele>
        <time>2022-06-12T09:18:14.364Z</time>
      </trkpt>
      <trkpt lat="44.26234" lon="2.5339">
        <ele>749</ele>
        <time>2022-06-12T09:18:15.364Z</time>
      </trkpt>
      <trkpt lat="44.26235" lon="2.53389">
        <ele>749</ele>
        <time>2022-06-12T09:18:16.364Z</time>
      </trkpt>
      <trkpt lat="44.26236" lon="2.53388">
        <ele>749</ele>
        <time>2022-06-12T09:18:17.364Z</time>
      </trkpt>
      <trkpt lat="44.26237" lon="2.53387">
        <ele>749</ele>
        <time>2022-06-12T09:18:18.364Z</time>
      </trkpt>
      <trkpt lat="44.26238" lon="2.53386">
        <ele>749</ele>
        <time>2022-06-12T09:18:19.364Z</time>
      </trkpt>
      <trkpt lat="44.26239" lon="2.53386">
        <ele>749</ele>
        <time>2022-06-12T09:18:20.364Z</time>
      </trkpt>
      <trkpt lat="44.2624" lon="2.53385">
        <ele>749</ele>
        <time>2022-06-12T09:18:21.364Z</time>
      </trkpt>
      <trkpt lat="44.26241" lon="2.53384">
        <ele>749</ele>
        <time>2022-06-12T09:18:22.364Z</time>
      </trkpt>
      <trkpt lat="44.26242" lon="2.53383">
        <ele>749</ele>
        <time>2022-06-12T09:18:23.364Z</time>
      </trkpt>
      <trkpt lat="44.26243" lon="2.53382">
        <ele>749</ele>
        <time>2022-06-12T09:18:24.364Z</time>
      </trkpt>
      <trkpt lat="44.26243" lon="2.53382">
        <ele>749</ele>
        <time>2022-06-12T09:18:25.364Z</time>
      </trkpt>
      <trkpt lat="44.26244" lon="2.53381">
        <ele>749</ele>
        <time>2022-06-12T09:18:26.364Z</time>
      </trkpt>
      <trkpt lat="44.26245" lon="2.5338">
        <ele>749</ele>
        <time>2022-06-12T09:18:27.364Z</time>
      </trkpt>
      <trkpt lat="44.26246" lon="2.53379">
        <ele>750</ele>
        <time>2022-06-12T09:18:28.364Z</time>
      </trkpt>
      <trkpt lat="44.26247" lon="2.53378">
        <ele>750</ele>
        <time>2022-06-12T09:18:29.364Z</time>
      </trkpt>
      <trkpt lat="44.26248" lon="2.53377">
        <ele>750</ele>
        <time>2022-06-12T09:18:30.364Z</time>
      </trkpt>
      <trkpt lat="44.26248" lon="2.53376">
        <ele>750</ele>
        <time>2022-06-12T09:18:31.364Z</time>
      </trkpt>
      <trkpt lat="44.26249" lon="2.53375">
        <ele>750</ele>
        <time>2022-06-12T09:18:32.364Z</time>
      </trkpt>
      <trkpt lat="44.2625" lon="2.53374">
        <ele>750</ele>
        <time>2022-06-12T09:18:33.364Z</time>
      </trkpt>
      <trkpt lat="44.26251" lon="2.53373">
        <ele>750</ele>
        <time>2022-06-12T09:18:34.364Z</time>
      </trkpt>
      <trkpt lat="44.26252" lon="2.53372">
        <ele>750</ele>
        <time>2022-06-12T09:18:35.364Z</time>
      </trkpt>
      <trkpt lat="44.26252" lon="2.53371">
        <ele>750</ele>
        <time>2022-06-12T09:18:36.364Z</time>
      </trkpt>
      <trkpt lat="44.26253" lon="2.53371">
        <ele>750</ele>
        <time>2022-06-12T09:18:37.364Z</time>
      </trkpt>
      <trkpt lat="44.26253" lon="2.5337">
        <ele>750</ele>
        <time>2022-06-12T09:18:38.364Z</time>
      </trkpt>
      <trkpt lat="44.26255" lon="2.53368">
        <ele>750</ele>
        <time>2022-06-12T09:18:46.366Z</time>
      </trkpt>
      <trkpt lat="44.26256" lon="2.53368">
        <ele>750</ele>
        <time>2022-06-12T09:18:47.366Z</time>
      </trkpt>
      <trkpt lat="44.26257" lon="2.53367">
        <ele>750</ele>
        <time>2022-06-12T09:18:48.366Z</time>
      </trkpt>
      <trkpt lat="44.26258" lon="2.53367">
        <ele>750</ele>
        <time>2022-06-12T09:18:49.366Z</time>
      </trkpt>
      <trkpt lat="44.26258" lon="2.53366">
        <ele>750</ele>
        <time>2022-06-12T09:18:50.366Z</time>
      </trkpt>
      <trkpt lat="44.26259" lon="2.53365">
        <ele>750</ele>
        <time>2022-06-12T09:18:51.366Z</time>
      </trkpt>
      <trkpt lat="44.2626" lon="2.53365">
        <ele>750</ele>
        <time>2022-06-12T09:18:52.366Z</time>
      </trkpt>
      <trkpt lat="44.2626" lon="2.53364">
        <ele>750</ele>
        <time>2022-06-12T09:18:53.366Z</time>
      </trkpt>
      <trkpt lat="44.26261" lon="2.53363">
        <ele>750</ele>
        <time>2022-06-12T09:18:54.366Z</time>
      </trkpt>
      <trkpt lat="44.26262" lon="2.53362">
        <ele>750</ele>
        <time>2022-06-12T09:18:55.366Z</time>
      </trkpt>
      <trkpt lat="44.26263" lon="2.53361">
        <ele>750</ele>
        <time>2022-06-12T09:18:56.366Z</time>
      </trkpt>
      <trkpt lat="44.26264" lon="2.5336">
        <ele>750</ele>
        <time>2022-06-12T09:18:57.366Z</time>
      </trkpt>
      <trkpt lat="44.26265" lon="2.53359">
        <ele>750</ele>
        <time>2022-06-12T09:18:58.366Z</time>
      </trkpt>
      <trkpt lat="44.26266" lon="2.53358">
        <ele>750</ele>
        <time>2022-06-12T09:18:59.366Z</time>
      </trkpt>
      <trkpt lat="44.26267" lon="2.53357">
        <ele>751</ele>
        <time>2022-06-12T09:19:00.366Z</time>
      </trkpt>
      <trkpt lat="44.26268" lon="2.53356">
        <ele>751</ele>
        <time>2022-06-12T09:19:01.366Z</time>
      </trkpt>
      <trkpt lat="44.26269" lon="2.53355">
        <ele>751</ele>
        <time>2022-06-12T09:19:02.366Z</time>
      </trkpt>
      <trkpt lat="44.26271" lon="2.53354">
        <ele>751</ele>
        <time>2022-06-12T09:19:03.366Z</time>
      </trkpt>
      <trkpt lat="44.26272" lon="2.53353">
        <ele>751</ele>
        <time>2022-06-12T09:19:04.366Z</time>
      </trkpt>
      <trkpt lat="44.26273" lon="2.53352">
        <ele>751</ele>
        <time>2022-06-12T09:19:05.366Z</time>
      </trkpt>
      <trkpt lat="44.26274" lon="2.53351">
        <ele>752</ele>
        <time>2022-06-12T09:19:06.366Z</time>
      </trkpt>
      <trkpt lat="44.26275" lon="2.53351">
        <ele>752</ele>
        <time>2022-06-12T09:19:07.366Z</time>
      </trkpt>
      <trkpt lat="44.26277" lon="2.5335">
        <ele>752</ele>
        <time>2022-06-12T09:19:08.366Z</time>
      </trkpt>
      <trkpt lat="44.26278" lon="2.53349">
        <ele>752</ele>
        <time>2022-06-12T09:19:09.366Z</time>
      </trkpt>
      <trkpt lat="44.26279" lon="2.53349">
        <ele>752</ele>
        <time>2022-06-12T09:19:10.366Z</time>
      </trkpt>
      <trkpt lat="44.2628" lon="2.53348">
        <ele>752</ele>
        <time>2022-06-12T09:19:11.366Z</time>
      </trkpt>
      <trkpt lat="44.26281" lon="2.53347">
        <ele>753</ele>
        <time>2022-06-12T09:19:12.366Z</time>
      </trkpt>
      <trkpt lat="44.26283" lon="2.53346">
        <ele>753</ele>
        <time>2022-06-12T09:19:13.366Z</time>
      </trkpt>
      <trkpt lat="44.26284" lon="2.53346">
        <ele>753</ele>
        <time>2022-06-12T09:19:14.366Z</time>
      </trkpt>
      <trkpt lat="44.26285" lon="2.53345">
        <ele>753</ele>
        <time>2022-06-12T09:19:15.366Z</time>
      </trkpt>
      <trkpt lat="44.26286" lon="2.53345">
        <ele>753</ele>
        <time>2022-06-12T09:19:16.366Z</time>
      </trkpt>
      <trkpt lat="44.26287" lon="2.53344">
        <ele>753</ele>
        <time>2022-06-12T09:19:17.366Z</time>
      </trkpt>
      <trkpt lat="44.26288" lon="2.53343">
        <ele>753</ele>
        <time>2022-06-12T09:19:18.366Z</time>
      </trkpt>
      <trkpt lat="44.26289" lon="2.53342">
        <ele>753</ele>
        <time>2022-06-12T09:19:19.366Z</time>
      </trkpt>
      <trkpt lat="44.2629" lon="2.53342">
        <ele>753</ele>
        <time>2022-06-12T09:19:20.366Z</time>
      </trkpt>
      <trkpt lat="44.26291" lon="2.53341">
        <ele>753</ele>
        <time>2022-06-12T09:19:21.366Z</time>
      </trkpt>
      <trkpt lat="44.26293" lon="2.53341">
        <ele>753</ele>
        <time>2022-06-12T09:19:22.366Z</time>
      </trkpt>
      <trkpt lat="44.26294" lon="2.5334">
        <ele>753</ele>
        <time>2022-06-12T09:19:23.366Z</time>
      </trkpt>
      <trkpt lat="44.26295" lon="2.53339">
        <ele>753</ele>
        <time>2022-06-12T09:19:24.366Z</time>
      </trkpt>
      <trkpt lat="44.26296" lon="2.53338">
        <ele>753</ele>
        <time>2022-06-12T09:19:25.366Z</time>
      </trkpt>
      <trkpt lat="44.26297" lon="2.53337">
        <ele>753</ele>
        <time>2022-06-12T09:19:26.366Z</time>
      </trkpt>
      <trkpt lat="44.26298" lon="2.53337">
        <ele>753</ele>
        <time>2022-06-12T09:19:27.366Z</time>
      </trkpt>
      <trkpt lat="44.26299" lon="2.53336">
        <ele>753</ele>
        <time>2022-06-12T09:19:28.366Z</time>
      </trkpt>
      <trkpt lat="44.26301" lon="2.53335">
        <ele>753</ele>
        <time>2022-06-12T09:19:29.366Z</time>
      </trkpt>
      <trkpt lat="44.26302" lon="2.53334">
        <ele>753</ele>
        <time>2022-06-12T09:19:30.366Z</time>
      </trkpt>
      <trkpt lat="44.26303" lon="2.53334">
        <ele>753</ele>
        <time>2022-06-12T09:19:31.366Z</time>
      </trkpt>
      <trkpt lat="44.26304" lon="2.53333">
        <ele>754</ele>
        <time>2022-06-12T09:19:32.366Z</time>
      </trkpt>
      <trkpt lat="44.26305" lon="2.53332">
        <ele>754</ele>
        <time>2022-06-12T09:19:33.366Z</time>
      </trkpt>
      <trkpt lat="44.26306" lon="2.53331">
        <ele>754</ele>
        <time>2022-06-12T09:19:34.366Z</time>
      </trkpt>
      <trkpt lat="44.26307" lon="2.53331">
        <ele>754</ele>
        <time>2022-06-12T09:19:35.366Z</time>
      </trkpt>
      <trkpt lat="44.26308" lon="2.5333">
        <ele>754</ele>
        <time>2022-06-12T09:19:36.366Z</time>
      </trkpt>
      <trkpt lat="44.26309" lon="2.53329">
        <ele>754</ele>
        <time>2022-06-12T09:19:37.366Z</time>
      </trkpt>
      <trkpt lat="44.26309" lon="2.53329">
        <ele>754</ele>
        <time>2022-06-12T09:19:38.366Z</time>
      </trkpt>
      <trkpt lat="44.2631" lon="2.53328">
        <ele>754</ele>
        <time>2022-06-12T09:19:39.366Z</time>
      </trkpt>
      <trkpt lat="44.26311" lon="2.53327">
        <ele>754</ele>
        <time>2022-06-12T09:19:40.366Z</time>
      </trkpt>
      <trkpt lat="44.26312" lon="2.53326">
        <ele>754</ele>
        <time>2022-06-12T09:19:41.366Z</time>
      </trkpt>
      <trkpt lat="44.26313" lon="2.53325">
        <ele>754</ele>
        <time>2022-06-12T09:19:42.366Z</time>
      </trkpt>
      <trkpt lat="44.26314" lon="2.53324">
        <ele>754</ele>
        <time>2022-06-12T09:19:43.366Z</time>
      </trkpt>
      <trkpt lat="44.26315" lon="2.53324">
        <ele>754</ele>
        <time>2022-06-12T09:19:44.366Z</time>
      </trkpt>
      <trkpt lat="44.26316" lon="2.53323">
        <ele>754</ele>
        <time>2022-06-12T09:19:45.366Z</time>
      </trkpt>
      <trkpt lat="44.26317" lon="2.53322">
        <ele>754</ele>
        <time>2022-06-12T09:19:46.366Z</time>
      </trkpt>
      <trkpt lat="44.26318" lon="2.53321">
        <ele>754</ele>
        <time>2022-06-12T09:19:47.366Z</time>
      </trkpt>
      <trkpt lat="44.26319" lon="2.53321">
        <ele>754</ele>
        <time>2022-06-12T09:19:48.366Z</time>
      </trkpt>
      <trkpt lat="44.2632" lon="2.5332">
        <ele>754</ele>
        <time>2022-06-12T09:19:49.366Z</time>
      </trkpt>
      <trkpt lat="44.26321" lon="2.53319">
        <ele>754</ele>
        <time>2022-06-12T09:19:50.366Z</time>
      </trkpt>
      <trkpt lat="44.26322" lon="2.53318">
        <ele>754</ele>
        <time>2022-06-12T09:19:51.366Z</time>
      </trkpt>
      <trkpt lat="44.26323" lon="2.53317">
        <ele>754</ele>
        <time>2022-06-12T09:19:52.366Z</time>
      </trkpt>
      <trkpt lat="44.26324" lon="2.53316">
        <ele>754</ele>
        <time>2022-06-12T09:19:53.366Z</time>
      </trkpt>
      <trkpt lat="44.26325" lon="2.53316">
        <ele>754</ele>
        <time>2022-06-12T09:19:54.366Z</time>
      </trkpt>
      <trkpt lat="44.26325" lon="2.53315">
        <ele>754</ele>
        <time>2022-06-12T09:19:55.366Z</time>
      </trkpt>
      <trkpt lat="44.26326" lon="2.53314">
        <ele>754</ele>
        <time>2022-06-12T09:19:56.366Z</time>
      </trkpt>
      <trkpt lat="44.26327" lon="2.53313">
        <ele>754</ele>
        <time>2022-06-12T09:19:57.366Z</time>
      </trkpt>
      <trkpt lat="44.26329" lon="2.53312">
        <ele>754</ele>
        <time>2022-06-12T09:19:58.366Z</time>
      </trkpt>
      <trkpt lat="44.2633" lon="2.53312">
        <ele>754</ele>
        <time>2022-06-12T09:19:59.366Z</time>
      </trkpt>
      <trkpt lat="44.26331" lon="2.53311">
        <ele>754</ele>
        <time>2022-06-12T09:20:00.366Z</time>
      </trkpt>
      <trkpt lat="44.26331" lon="2.53311">
        <ele>754</ele>
        <time>2022-06-12T09:20:01.366Z</time>
      </trkpt>
      <trkpt lat="44.26332" lon="2.5331">
        <ele>754</ele>
        <time>2022-06-12T09:20:02.366Z</time>
      </trkpt>
      <trkpt lat="44.26333" lon="2.53309">
        <ele>754</ele>
        <time>2022-06-12T09:20:03.366Z</time>
      </trkpt>
      <trkpt lat="44.26334" lon="2.53308">
        <ele>754</ele>
        <time>2022-06-12T09:20:04.366Z</time>
      </trkpt>
      <trkpt lat="44.26335" lon="2.53307">
        <ele>754</ele>
        <time>2022-06-12T09:20:05.366Z</time>
      </trkpt>
      <trkpt lat="44.26336" lon="2.53306">
        <ele>754</ele>
        <time>2022-06-12T09:20:06.366Z</time>
      </trkpt>
      <trkpt lat="44.26337" lon="2.53305">
        <ele>754</ele>
        <time>2022-06-12T09:20:07.366Z</time>
      </trkpt>
      <trkpt lat="44.26338" lon="2.53305">
        <ele>754</ele>
        <time>2022-06-12T09:20:08.366Z</time>
      </trkpt>
      <trkpt lat="44.26339" lon="2.53304">
        <ele>754</ele>
        <time>2022-06-12T09:20:09.366Z</time>
      </trkpt>
      <trkpt lat="44.2634" lon="2.53303">
        <ele>754</ele>
        <time>2022-06-12T09:20:10.366Z</time>
      </trkpt>
      <trkpt lat="44.26341" lon="2.53302">
        <ele>754</ele>
        <time>2022-06-12T09:20:11.366Z</time>
      </trkpt>
      <trkpt lat="44.26342" lon="2.53301">
        <ele>754</ele>
        <time>2022-06-12T09:20:12.366Z</time>
      </trkpt>
      <trkpt lat="44.26343" lon="2.53301">
        <ele>754</ele>
        <time>2022-06-12T09:20:13.366Z</time>
      </trkpt>
      <trkpt lat="44.26344" lon="2.533">
        <ele>754</ele>
        <time>2022-06-12T09:20:14.366Z</time>
      </trkpt>
      <trkpt lat="44.26345" lon="2.53299">
        <ele>754</ele>
        <time>2022-06-12T09:20:15.366Z</time>
      </trkpt>
      <trkpt lat="44.26346" lon="2.53298">
        <ele>754</ele>
        <time>2022-06-12T09:20:16.366Z</time>
      </trkpt>
      <trkpt lat="44.26347" lon="2.53298">
        <ele>754</ele>
        <time>2022-06-12T09:20:17.366Z</time>
      </trkpt>
      <trkpt lat="44.26348" lon="2.53297">
        <ele>754</ele>
        <time>2022-06-12T09:20:18.366Z</time>
      </trkpt>
      <trkpt lat="44.26349" lon="2.53296">
        <ele>754</ele>
        <time>2022-06-12T09:20:19.366Z</time>
      </trkpt>
      <trkpt lat="44.2635" lon="2.53295">
        <ele>754</ele>
        <time>2022-06-12T09:20:20.366Z</time>
      </trkpt>
      <trkpt lat="44.26351" lon="2.53294">
        <ele>754</ele>
        <time>2022-06-12T09:20:21.366Z</time>
      </trkpt>
      <trkpt lat="44.26352" lon="2.53294">
        <ele>754</ele>
        <time>2022-06-12T09:20:22.366Z</time>
      </trkpt>
      <trkpt lat="44.26353" lon="2.53293">
        <ele>754</ele>
        <time>2022-06-12T09:20:23.366Z</time>
      </trkpt>
      <trkpt lat="44.26354" lon="2.53292">
        <ele>754</ele>
        <time>2022-06-12T09:20:24.366Z</time>
      </trkpt>
      <trkpt lat="44.26355" lon="2.53291">
        <ele>754</ele>
        <time>2022-06-12T09:20:25.366Z</time>
      </trkpt>
      <trkpt lat="44.26356" lon="2.5329">
        <ele>754</ele>
        <time>2022-06-12T09:20:26.366Z</time>
      </trkpt>
      <trkpt lat="44.26357" lon="2.53289">
        <ele>754</ele>
        <time>2022-06-12T09:20:27.366Z</time>
      </trkpt>
      <trkpt lat="44.26358" lon="2.53288">
        <ele>754</ele>
        <time>2022-06-12T09:20:28.366Z</time>
      </trkpt>
      <trkpt lat="44.26359" lon="2.53287">
        <ele>754</ele>
        <time>2022-06-12T09:20:29.366Z</time>
      </trkpt>
      <trkpt lat="44.2636" lon="2.53286">
        <ele>754</ele>
        <time>2022-06-12T09:20:30.366Z</time>
      </trkpt>
      <trkpt lat="44.26361" lon="2.53285">
        <ele>754</ele>
        <time>2022-06-12T09:20:31.366Z</time>
      </trkpt>
      <trkpt lat="44.26362" lon="2.53285">
        <ele>754</ele>
        <time>2022-06-12T09:20:32.366Z</time>
      </trkpt>
      <trkpt lat="44.26362" lon="2.53284">
        <ele>754</ele>
        <time>2022-06-12T09:20:33.366Z</time>
      </trkpt>
      <trkpt lat="44.26363" lon="2.53284">
        <ele>754</ele>
        <time>2022-06-12T09:20:34.366Z</time>
      </trkpt>
      <trkpt lat="44.26363" lon="2.53284">
        <ele>754</ele>
        <time>2022-06-12T09:20:35.366Z</time>
      </trkpt>
      <trkpt lat="44.26363" lon="2.53284">
        <ele>754</ele>
        <time>2022-06-12T09:20:36.366Z</time>
      </trkpt>
      <trkpt lat="44.26363" lon="2.53284">
        <ele>754</ele>
        <time>2022-06-12T09:20:37.366Z</time>
      </trkpt>
      <trkpt lat="44.26364" lon="2.53281">
        <ele>754</ele>
        <time>2022-06-12T09:21:21.371Z</time>
      </trkpt>
      <trkpt lat="44.26365" lon="2.5328">
        <ele>754</ele>
        <time>2022-06-12T09:21:22.371Z</time>
      </trkpt>
      <trkpt lat="44.26366" lon="2.53279">
        <ele>754</ele>
        <time>2022-06-12T09:21:23.371Z</time>
      </trkpt>
      <trkpt lat="44.26367" lon="2.53278">
        <ele>754</ele>
        <time>2022-06-12T09:21:24.371Z</time>
      </trkpt>
      <trkpt lat="44.26368" lon="2.53277">
        <ele>754</ele>
        <time>2022-06-12T09:21:25.371Z</time>
      </trkpt>
      <trkpt lat="44.26369" lon="2.53277">
        <ele>754</ele>
        <time>2022-06-12T09:21:26.371Z</time>
      </trkpt>
      <trkpt lat="44.26371" lon="2.53276">
        <ele>754</ele>
        <time>2022-06-12T09:21:27.371Z</time>
      </trkpt>
      <trkpt lat="44.26372" lon="2.53275">
        <ele>754</ele>
        <time>2022-06-12T09:21:28.371Z</time>
      </trkpt>
      <trkpt lat="44.26373" lon="2.53274">
        <ele>754</ele>
        <time>2022-06-12T09:21:29.371Z</time>
      </trkpt>
      <trkpt lat="44.26374" lon="2.53273">
        <ele>754</ele>
        <time>2022-06-12T09:21:30.371Z</time>
      </trkpt>
      <trkpt lat="44.26375" lon="2.53272">
        <ele>754</ele>
        <time>2022-06-12T09:21:31.371Z</time>
      </trkpt>
      <trkpt lat="44.26376" lon="2.53271">
        <ele>754</ele>
        <time>2022-06-12T09:21:32.371Z</time>
      </trkpt>
      <trkpt lat="44.26376" lon="2.5327">
        <ele>754</ele>
        <time>2022-06-12T09:21:33.371Z</time>
      </trkpt>
      <trkpt lat="44.26377" lon="2.53269">
        <ele>754</ele>
        <time>2022-06-12T09:21:34.371Z</time>
      </trkpt>
      <trkpt lat="44.26378" lon="2.53268">
        <ele>754</ele>
        <time>2022-06-12T09:21:35.371Z</time>
      </trkpt>
      <trkpt lat="44.2638" lon="2.53267">
        <ele>754</ele>
        <time>2022-06-12T09:21:36.371Z</time>
      </trkpt>
      <trkpt lat="44.26381" lon="2.53266">
        <ele>754</ele>
        <time>2022-06-12T09:21:37.371Z</time>
      </trkpt>
      <trkpt lat="44.26382" lon="2.53265">
        <ele>754</ele>
        <time>2022-06-12T09:21:38.371Z</time>
      </trkpt>
      <trkpt lat="44.26383" lon="2.53264">
        <ele>754</ele>
        <time>2022-06-12T09:21:39.371Z</time>
      </trkpt>
      <trkpt lat="44.26384" lon="2.53263">
        <ele>754</ele>
        <time>2022-06-12T09:21:40.371Z</time>
      </trkpt>
      <trkpt lat="44.26385" lon="2.53262">
        <ele>754</ele>
        <time>2022-06-12T09:21:41.371Z</time>
      </trkpt>
      <trkpt lat="44.26386" lon="2.53261">
        <ele>754</ele>
        <time>2022-06-12T09:21:42.371Z</time>
      </trkpt>
      <trkpt lat="44.26387" lon="2.5326">
        <ele>753</ele>
        <time>2022-06-12T09:21:43.371Z</time>
      </trkpt>
      <trkpt lat="44.26388" lon="2.53258">
        <ele>753</ele>
        <time>2022-06-12T09:21:44.371Z</time>
      </trkpt>
      <trkpt lat="44.26389" lon="2.53257">
        <ele>753</ele>
        <time>2022-06-12T09:21:45.371Z</time>
      </trkpt>
      <trkpt lat="44.2639" lon="2.53256">
        <ele>753</ele>
        <time>2022-06-12T09:21:46.371Z</time>
      </trkpt>
      <trkpt lat="44.26392" lon="2.53255">
        <ele>753</ele>
        <time>2022-06-12T09:21:47.371Z</time>
      </trkpt>
      <trkpt lat="44.26393" lon="2.53254">
        <ele>753</ele>
        <time>2022-06-12T09:21:48.371Z</time>
      </trkpt>
      <trkpt lat="44.26394" lon="2.53253">
        <ele>753</ele>
        <time>2022-06-12T09:21:49.371Z</time>
      </trkpt>
      <trkpt lat="44.26395" lon="2.53252">
        <ele>753</ele>
        <time>2022-06-12T09:21:50.371Z</time>
      </trkpt>
      <trkpt lat="44.26397" lon="2.5325">
        <ele>753</ele>
        <time>2022-06-12T09:21:51.371Z</time>
      </trkpt>
      <trkpt lat="44.26398" lon="2.53249">
        <ele>753</ele>
        <time>2022-06-12T09:21:52.371Z</time>
      </trkpt>
      <trkpt lat="44.26399" lon="2.53248">
        <ele>753</ele>
        <time>2022-06-12T09:21:53.371Z</time>
      </trkpt>
      <trkpt lat="44.264" lon="2.53247">
        <ele>753</ele>
        <time>2022-06-12T09:21:54.371Z</time>
      </trkpt>
      <trkpt lat="44.26401" lon="2.53245">
        <ele>753</ele>
        <time>2022-06-12T09:21:55.371Z</time>
      </trkpt>
      <trkpt lat="44.26402" lon="2.53244">
        <ele>753</ele>
        <time>2022-06-12T09:21:56.371Z</time>
      </trkpt>
      <trkpt lat="44.26403" lon="2.53243">
        <ele>753</ele>
        <time>2022-06-12T09:21:57.371Z</time>
      </trkpt>
      <trkpt lat="44.26405" lon="2.53241">
        <ele>753</ele>
        <time>2022-06-12T09:21:58.371Z</time>
      </trkpt>
      <trkpt lat="44.26406" lon="2.5324">
        <ele>753</ele>
        <time>2022-06-12T09:21:59.371Z</time>
      </trkpt>
      <trkpt lat="44.26407" lon="2.53239">
        <ele>753</ele>
        <time>2022-06-12T09:22:00.371Z</time>
      </trkpt>
      <trkpt lat="44.26408" lon="2.53238">
        <ele>753</ele>
        <time>2022-06-12T09:22:01.371Z</time>
      </trkpt>
      <trkpt lat="44.26409" lon="2.53236">
        <ele>753</ele>
        <time>2022-06-12T09:22:02.371Z</time>
      </trkpt>
      <trkpt lat="44.2641" lon="2.53235">
        <ele>753</ele>
        <time>2022-06-12T09:22:03.371Z</time>
      </trkpt>
      <trkpt lat="44.26411" lon="2.53233">
        <ele>753</ele>
        <time>2022-06-12T09:22:04.371Z</time>
      </trkpt>
      <trkpt lat="44.26412" lon="2.53232">
        <ele>753</ele>
        <time>2022-06-12T09:22:05.371Z</time>
      </trkpt>
      <trkpt lat="44.26413" lon="2.53231">
        <ele>753</ele>
        <time>2022-06-12T09:22:06.371Z</time>
      </trkpt>
      <trkpt lat="44.26414" lon="2.53229">
        <ele>753</ele>
        <time>2022-06-12T09:22:07.371Z</time>
      </trkpt>
      <trkpt lat="44.26416" lon="2.53228">
        <ele>753</ele>
        <time>2022-06-12T09:22:08.371Z</time>
      </trkpt>
      <trkpt lat="44.26416" lon="2.53226">
        <ele>753</ele>
        <time>2022-06-12T09:22:09.371Z</time>
      </trkpt>
      <trkpt lat="44.26417" lon="2.53225">
        <ele>753</ele>
        <time>2022-06-12T09:22:10.371Z</time>
      </trkpt>
      <trkpt lat="44.26419" lon="2.53224">
        <ele>753</ele>
        <time>2022-06-12T09:22:11.371Z</time>
      </trkpt>
      <trkpt lat="44.2642" lon="2.53222">
        <ele>753</ele>
        <time>2022-06-12T09:22:12.371Z</time>
      </trkpt>
      <trkpt lat="44.26421" lon="2.53221">
        <ele>753</ele>
        <time>2022-06-12T09:22:13.371Z</time>
      </trkpt>
      <trkpt lat="44.26422" lon="2.53219">
        <ele>753</ele>
        <time>2022-06-12T09:22:14.371Z</time>
      </trkpt>
      <trkpt lat="44.26423" lon="2.53218">
        <ele>752</ele>
        <time>2022-06-12T09:22:15.371Z</time>
      </trkpt>
      <trkpt lat="44.26424" lon="2.53216">
        <ele>752</ele>
        <time>2022-06-12T09:22:16.371Z</time>
      </trkpt>
      <trkpt lat="44.26425" lon="2.53215">
        <ele>752</ele>
        <time>2022-06-12T09:22:17.371Z</time>
      </trkpt>
      <trkpt lat="44.26426" lon="2.53213">
        <ele>752</ele>
        <time>2022-06-12T09:22:18.371Z</time>
      </trkpt>
      <trkpt lat="44.26427" lon="2.53212">
        <ele>752</ele>
        <time>2022-06-12T09:22:19.371Z</time>
      </trkpt>
      <trkpt lat="44.26428" lon="2.5321">
        <ele>752</ele>
        <time>2022-06-12T09:22:20.371Z</time>
      </trkpt>
      <trkpt lat="44.26429" lon="2.53209">
        <ele>752</ele>
        <time>2022-06-12T09:22:21.371Z</time>
      </trkpt>
      <trkpt lat="44.2643" lon="2.53207">
        <ele>752</ele>
        <time>2022-06-12T09:22:22.371Z</time>
      </trkpt>
      <trkpt lat="44.26431" lon="2.53206">
        <ele>752</ele>
        <time>2022-06-12T09:22:23.371Z</time>
      </trkpt>
      <trkpt lat="44.26432" lon="2.53204">
        <ele>752</ele>
        <time>2022-06-12T09:22:24.371Z</time>
      </trkpt>
      <trkpt lat="44.26433" lon="2.53203">
        <ele>752</ele>
        <time>2022-06-12T09:22:25.371Z</time>
      </trkpt>
      <trkpt lat="44.26434" lon="2.53201">
        <ele>752</ele>
        <time>2022-06-12T09:22:26.371Z</time>
      </trkpt>
      <trkpt lat="44.26435" lon="2.532">
        <ele>752</ele>
        <time>2022-06-12T09:22:27.371Z</time>
      </trkpt>
      <trkpt lat="44.26436" lon="2.53198">
        <ele>752</ele>
        <time>2022-06-12T09:22:28.371Z</time>
      </trkpt>
      <trkpt lat="44.26437" lon="2.53197">
        <ele>752</ele>
        <time>2022-06-12T09:22:29.371Z</time>
      </trkpt>
      <trkpt lat="44.26438" lon="2.53195">
        <ele>752</ele>
        <time>2022-06-12T09:22:30.371Z</time>
      </trkpt>
      <trkpt lat="44.26439" lon="2.53194">
        <ele>752</ele>
        <time>2022-06-12T09:22:31.371Z</time>
      </trkpt>
      <trkpt lat="44.2644" lon="2.53192">
        <ele>752</ele>
        <time>2022-06-12T09:22:32.371Z</time>
      </trkpt>
      <trkpt lat="44.26441" lon="2.53191">
        <ele>752</ele>
        <time>2022-06-12T09:22:33.371Z</time>
      </trkpt>
      <trkpt lat="44.26441" lon="2.53189">
        <ele>752</ele>
        <time>2022-06-12T09:22:34.371Z</time>
      </trkpt>
      <trkpt lat="44.26442" lon="2.53188">
        <ele>752</ele>
        <time>2022-06-12T09:22:35.371Z</time>
      </trkpt>
      <trkpt lat="44.26443" lon="2.53186">
        <ele>752</ele>
        <time>2022-06-12T09:22:36.371Z</time>
      </trkpt>
      <trkpt lat="44.26444" lon="2.53185">
        <ele>752</ele>
        <time>2022-06-12T09:22:37.371Z</time>
      </trkpt>
      <trkpt lat="44.26445" lon="2.53183">
        <ele>752</ele>
        <time>2022-06-12T09:22:38.371Z</time>
      </trkpt>
      <trkpt lat="44.26446" lon="2.53182">
        <ele>752</ele>
        <time>2022-06-12T09:22:39.371Z</time>
      </trkpt>
      <trkpt lat="44.26447" lon="2.5318">
        <ele>752</ele>
        <time>2022-06-12T09:22:40.371Z</time>
      </trkpt>
      <trkpt lat="44.26448" lon="2.53178">
        <ele>752</ele>
        <time>2022-06-12T09:22:41.371Z</time>
      </trkpt>
      <trkpt lat="44.26448" lon="2.53177">
        <ele>752</ele>
        <time>2022-06-12T09:22:42.371Z</time>
      </trkpt>
      <trkpt lat="44.26449" lon="2.53175">
        <ele>752</ele>
        <time>2022-06-12T09:22:43.371Z</time>
      </trkpt>
      <trkpt lat="44.2645" lon="2.53173">
        <ele>752</ele>
        <time>2022-06-12T09:22:44.371Z</time>
      </trkpt>
      <trkpt lat="44.26451" lon="2.53172">
        <ele>752</ele>
        <time>2022-06-12T09:22:45.371Z</time>
      </trkpt>
      <trkpt lat="44.26452" lon="2.53171">
        <ele>753</ele>
        <time>2022-06-12T09:22:46.371Z</time>
      </trkpt>
      <trkpt lat="44.26452" lon="2.53169">
        <ele>753</ele>
        <time>2022-06-12T09:22:47.371Z</time>
      </trkpt>
      <trkpt lat="44.26453" lon="2.53167">
        <ele>753</ele>
        <time>2022-06-12T09:22:48.371Z</time>
      </trkpt>
      <trkpt lat="44.26454" lon="2.53166">
        <ele>752</ele>
        <time>2022-06-12T09:22:49.371Z</time>
      </trkpt>
      <trkpt lat="44.26455" lon="2.53164">
        <ele>752</ele>
        <time>2022-06-12T09:22:50.371Z</time>
      </trkpt>
      <trkpt lat="44.26456" lon="2.53163">
        <ele>752</ele>
        <time>2022-06-12T09:22:51.371Z</time>
      </trkpt>
      <trkpt lat="44.26456" lon="2.53161">
        <ele>752</ele>
        <time>2022-06-12T09:22:52.371Z</time>
      </trkpt>
      <trkpt lat="44.26457" lon="2.5316">
        <ele>752</ele>
        <time>2022-06-12T09:22:53.371Z</time>
      </trkpt>
      <trkpt lat="44.26458" lon="2.53158">
        <ele>752</ele>
        <time>2022-06-12T09:22:54.371Z</time>
      </trkpt>
      <trkpt lat="44.26459" lon="2.53156">
        <ele>752</ele>
        <time>2022-06-12T09:22:55.371Z</time>
      </trkpt>
      <trkpt lat="44.2646" lon="2.53154">
        <ele>752</ele>
        <time>2022-06-12T09:22:56.371Z</time>
      </trkpt>
      <trkpt lat="44.2646" lon="2.53153">
        <ele>752</ele>
        <time>2022-06-12T09:22:57.371Z</time>
      </trkpt>
      <trkpt lat="44.26461" lon="2.53151">
        <ele>752</ele>
        <time>2022-06-12T09:22:58.371Z</time>
      </trkpt>
      <trkpt lat="44.26462" lon="2.53149">
        <ele>752</ele>
        <time>2022-06-12T09:22:59.371Z</time>
      </trkpt>
      <trkpt lat="44.26463" lon="2.53148">
        <ele>752</ele>
        <time>2022-06-12T09:23:00.371Z</time>
      </trkpt>
      <trkpt lat="44.26464" lon="2.53146">
        <ele>752</ele>
        <time>2022-06-12T09:23:01.371Z</time>
      </trkpt>
      <trkpt lat="44.26465" lon="2.53144">
        <ele>752</ele>
        <time>2022-06-12T09:23:02.371Z</time>
      </trkpt>
      <trkpt lat="44.26465" lon="2.53143">
        <ele>752</ele>
        <time>2022-06-12T09:23:03.371Z</time>
      </trkpt>
      <trkpt lat="44.26466" lon="2.53141">
        <ele>752</ele>
        <time>2022-06-12T09:23:04.371Z</time>
      </trkpt>
      <trkpt lat="44.26467" lon="2.5314">
        <ele>752</ele>
        <time>2022-06-12T09:23:05.371Z</time>
      </trkpt>
      <trkpt lat="44.26467" lon="2.53138">
        <ele>752</ele>
        <time>2022-06-12T09:23:06.371Z</time>
      </trkpt>
      <trkpt lat="44.26468" lon="2.53136">
        <ele>751</ele>
        <time>2022-06-12T09:23:07.371Z</time>
      </trkpt>
      <trkpt lat="44.26469" lon="2.53134">
        <ele>751</ele>
        <time>2022-06-12T09:23:08.371Z</time>
      </trkpt>
      <trkpt lat="44.26469" lon="2.53133">
        <ele>751</ele>
        <time>2022-06-12T09:23:09.371Z</time>
      </trkpt>
      <trkpt lat="44.2647" lon="2.53131">
        <ele>751</ele>
        <time>2022-06-12T09:23:10.371Z</time>
      </trkpt>
      <trkpt lat="44.26471" lon="2.53129">
        <ele>751</ele>
        <time>2022-06-12T09:23:11.371Z</time>
      </trkpt>
      <trkpt lat="44.26472" lon="2.53127">
        <ele>751</ele>
        <time>2022-06-12T09:23:12.371Z</time>
      </trkpt>
      <trkpt lat="44.26472" lon="2.53126">
        <ele>751</ele>
        <time>2022-06-12T09:23:13.371Z</time>
      </trkpt>
      <trkpt lat="44.26473" lon="2.53124">
        <ele>751</ele>
        <time>2022-06-12T09:23:14.371Z</time>
      </trkpt>
      <trkpt lat="44.26474" lon="2.53122">
        <ele>751</ele>
        <time>2022-06-12T09:23:15.371Z</time>
      </trkpt>
      <trkpt lat="44.26475" lon="2.5312">
        <ele>751</ele>
        <time>2022-06-12T09:23:16.371Z</time>
      </trkpt>
      <trkpt lat="44.26476" lon="2.53119">
        <ele>751</ele>
        <time>2022-06-12T09:23:17.371Z</time>
      </trkpt>
      <trkpt lat="44.26476" lon="2.53117">
        <ele>751</ele>
        <time>2022-06-12T09:23:18.371Z</time>
      </trkpt>
      <trkpt lat="44.26477" lon="2.53115">
        <ele>751</ele>
        <time>2022-06-12T09:23:19.371Z</time>
      </trkpt>
      <trkpt lat="44.26478" lon="2.53113">
        <ele>751</ele>
        <time>2022-06-12T09:23:20.371Z</time>
      </trkpt>
      <trkpt lat="44.26478" lon="2.53112">
        <ele>751</ele>
        <time>2022-06-12T09:23:21.371Z</time>
      </trkpt>
      <trkpt lat="44.26479" lon="2.5311">
        <ele>751</ele>
        <time>2022-06-12T09:23:22.371Z</time>
      </trkpt>
      <trkpt lat="44.2648" lon="2.53108">
        <ele>751</ele>
        <time>2022-06-12T09:23:23.371Z</time>
      </trkpt>
      <trkpt lat="44.2648" lon="2.53106">
        <ele>751</ele>
        <time>2022-06-12T09:23:24.371Z</time>
      </trkpt>
      <trkpt lat="44.26481" lon="2.53105">
        <ele>751</ele>
        <time>2022-06-12T09:23:25.371Z</time>
      </trkpt>
      <trkpt lat="44.26482" lon="2.53103">
        <ele>751</ele>
        <time>2022-06-12T09:23:26.371Z</time>
      </trkpt>
      <trkpt lat="44.26483" lon="2.53101">
        <ele>751</ele>
        <time>2022-06-12T09:23:27.371Z</time>
      </trkpt>
      <trkpt lat="44.26483" lon="2.53099">
        <ele>751</ele>
        <time>2022-06-12T09:23:28.371Z</time>
      </trkpt>
      <trkpt lat="44.26484" lon="2.53098">
        <ele>751</ele>
        <time>2022-06-12T09:23:29.371Z</time>
      </trkpt>
      <trkpt lat="44.26485" lon="2.53096">
        <ele>751</ele>
        <time>2022-06-12T09:23:30.371Z</time>
      </trkpt>
      <trkpt lat="44.26486" lon="2.53094">
        <ele>751</ele>
        <time>2022-06-12T09:23:31.371Z</time>
      </trkpt>
      <trkpt lat="44.26487" lon="2.53092">
        <ele>751</ele>
        <time>2022-06-12T09:23:32.371Z</time>
      </trkpt>
      <trkpt lat="44.26487" lon="2.5309">
        <ele>751</ele>
        <time>2022-06-12T09:23:33.371Z</time>
      </trkpt>
      <trkpt lat="44.26488" lon="2.53089">
        <ele>751</ele>
        <time>2022-06-12T09:23:34.371Z</time>
      </trkpt>
      <trkpt lat="44.26489" lon="2.53087">
        <ele>751</ele>
        <time>2022-06-12T09:23:35.371Z</time>
      </trkpt>
      <trkpt lat="44.2649" lon="2.53085">
        <ele>751</ele>
        <time>2022-06-12T09:23:36.371Z</time>
      </trkpt>
      <trkpt lat="44.26491" lon="2.53083">
        <ele>751</ele>
        <time>2022-06-12T09:23:37.371Z</time>
      </trkpt>
      <trkpt lat="44.26491" lon="2.53082">
        <ele>751</ele>
        <time>2022-06-12T09:23:38.371Z</time>
      </trkpt>
      <trkpt lat="44.26492" lon="2.5308">
        <ele>751</ele>
        <time>2022-06-12T09:23:39.371Z</time>
      </trkpt>
      <trkpt lat="44.26493" lon="2.53078">
        <ele>751</ele>
        <time>2022-06-12T09:23:40.371Z</time>
      </trkpt>
      <trkpt lat="44.26493" lon="2.53077">
        <ele>751</ele>
        <time>2022-06-12T09:23:41.371Z</time>
      </trkpt>
      <trkpt lat="44.26494" lon="2.53075">
        <ele>751</ele>
        <time>2022-06-12T09:23:42.371Z</time>
      </trkpt>
      <trkpt lat="44.26495" lon="2.53073">
        <ele>751</ele>
        <time>2022-06-12T09:23:43.371Z</time>
      </trkpt>
      <trkpt lat="44.26496" lon="2.53072">
        <ele>751</ele>
        <time>2022-06-12T09:23:44.371Z</time>
      </trkpt>
      <trkpt lat="44.26496" lon="2.5307">
        <ele>750</ele>
        <time>2022-06-12T09:23:45.371Z</time>
      </trkpt>
      <trkpt lat="44.26497" lon="2.53068">
        <ele>750</ele>
        <time>2022-06-12T09:23:46.371Z</time>
      </trkpt>
      <trkpt lat="44.26498" lon="2.53066">
        <ele>750</ele>
        <time>2022-06-12T09:23:47.371Z</time>
      </trkpt>
      <trkpt lat="44.26499" lon="2.53065">
        <ele>750</ele>
        <time>2022-06-12T09:23:48.371Z</time>
      </trkpt>
      <trkpt lat="44.26499" lon="2.53063">
        <ele>750</ele>
        <time>2022-06-12T09:23:49.371Z</time>
      </trkpt>
      <trkpt lat="44.265" lon="2.53061">
        <ele>750</ele>
        <time>2022-06-12T09:23:50.371Z</time>
      </trkpt>
      <trkpt lat="44.26501" lon="2.53059">
        <ele>750</ele>
        <time>2022-06-12T09:23:51.371Z</time>
      </trkpt>
      <trkpt lat="44.26502" lon="2.53057">
        <ele>750</ele>
        <time>2022-06-12T09:23:52.371Z</time>
      </trkpt>
      <trkpt lat="44.26502" lon="2.53055">
        <ele>750</ele>
        <time>2022-06-12T09:23:53.371Z</time>
      </trkpt>
      <trkpt lat="44.26503" lon="2.53054">
        <ele>750</ele>
        <time>2022-06-12T09:23:54.371Z</time>
      </trkpt>
      <trkpt lat="44.26504" lon="2.53052">
        <ele>750</ele>
        <time>2022-06-12T09:23:55.371Z</time>
      </trkpt>
      <trkpt lat="44.26504" lon="2.5305">
        <ele>750</ele>
        <time>2022-06-12T09:23:56.371Z</time>
      </trkpt>
      <trkpt lat="44.26505" lon="2.53048">
        <ele>750</ele>
        <time>2022-06-12T09:23:57.371Z</time>
      </trkpt>
      <trkpt lat="44.26506" lon="2.53047">
        <ele>750</ele>
        <time>2022-06-12T09:23:58.371Z</time>
      </trkpt>
      <trkpt lat="44.26506" lon="2.53045">
        <ele>750</ele>
        <time>2022-06-12T09:23:59.371Z</time>
      </trkpt>
      <trkpt lat="44.26507" lon="2.53043">
        <ele>750</ele>
        <time>2022-06-12T09:24:00.371Z</time>
      </trkpt>
      <trkpt lat="44.26508" lon="2.53042">
        <ele>750</ele>
        <time>2022-06-12T09:24:01.371Z</time>
      </trkpt>
      <trkpt lat="44.26508" lon="2.5304">
        <ele>750</ele>
        <time>2022-06-12T09:24:02.371Z</time>
      </trkpt>
      <trkpt lat="44.26509" lon="2.53038">
        <ele>750</ele>
        <time>2022-06-12T09:24:03.371Z</time>
      </trkpt>
      <trkpt lat="44.26509" lon="2.53036">
        <ele>750</ele>
        <time>2022-06-12T09:24:04.371Z</time>
      </trkpt>
      <trkpt lat="44.2651" lon="2.53035">
        <ele>750</ele>
        <time>2022-06-12T09:24:05.371Z</time>
      </trkpt>
      <trkpt lat="44.2651" lon="2.53035">
        <ele>750</ele>
        <time>2022-06-12T09:24:06.371Z</time>
      </trkpt>
      <trkpt lat="44.2651" lon="2.53035">
        <ele>750</ele>
        <time>2022-06-12T09:24:07.371Z</time>
      </trkpt>
      <trkpt lat="44.26511" lon="2.53035">
        <ele>750</ele>
        <time>2022-06-12T09:24:08.371Z</time>
      </trkpt>
      <trkpt lat="44.26511" lon="2.53035">
        <ele>750</ele>
        <time>2022-06-12T09:24:09.371Z</time>
      </trkpt>
      <trkpt lat="44.26511" lon="2.53034">
        <ele>749</ele>
        <time>2022-06-12T09:24:20.372Z</time>
      </trkpt>
      <trkpt lat="44.26511" lon="2.53032">
        <ele>749</ele>
        <time>2022-06-12T09:24:21.372Z</time>
      </trkpt>
      <trkpt lat="44.26512" lon="2.53031">
        <ele>749</ele>
        <time>2022-06-12T09:24:22.372Z</time>
      </trkpt>
      <trkpt lat="44.26512" lon="2.53029">
        <ele>749</ele>
        <time>2022-06-12T09:24:23.372Z</time>
      </trkpt>
      <trkpt lat="44.26513" lon="2.53027">
        <ele>749</ele>
        <time>2022-06-12T09:24:24.372Z</time>
      </trkpt>
      <trkpt lat="44.26514" lon="2.53026">
        <ele>749</ele>
        <time>2022-06-12T09:24:25.372Z</time>
      </trkpt>
      <trkpt lat="44.26514" lon="2.53024">
        <ele>749</ele>
        <time>2022-06-12T09:24:26.372Z</time>
      </trkpt>
      <trkpt lat="44.26515" lon="2.53022">
        <ele>749</ele>
        <time>2022-06-12T09:24:27.372Z</time>
      </trkpt>
      <trkpt lat="44.26516" lon="2.5302">
        <ele>749</ele>
        <time>2022-06-12T09:24:28.372Z</time>
      </trkpt>
      <trkpt lat="44.26516" lon="2.53019">
        <ele>749</ele>
        <time>2022-06-12T09:24:29.372Z</time>
      </trkpt>
      <trkpt lat="44.26517" lon="2.53017">
        <ele>749</ele>
        <time>2022-06-12T09:24:30.372Z</time>
      </trkpt>
      <trkpt lat="44.26517" lon="2.53015">
        <ele>749</ele>
        <time>2022-06-12T09:24:31.372Z</time>
      </trkpt>
      <trkpt lat="44.26518" lon="2.53013">
        <ele>749</ele>
        <time>2022-06-12T09:24:32.372Z</time>
      </trkpt>
      <trkpt lat="44.26518" lon="2.53011">
        <ele>749</ele>
        <time>2022-06-12T09:24:33.372Z</time>
      </trkpt>
      <trkpt lat="44.26519" lon="2.53009">
        <ele>749</ele>
        <time>2022-06-12T09:24:34.372Z</time>
      </trkpt>
      <trkpt lat="44.26519" lon="2.53007">
        <ele>749</ele>
        <time>2022-06-12T09:24:35.372Z</time>
      </trkpt>
      <trkpt lat="44.2652" lon="2.53006">
        <ele>749</ele>
        <time>2022-06-12T09:24:36.372Z</time>
      </trkpt>
      <trkpt lat="44.2652" lon="2.53004">
        <ele>749</ele>
        <time>2022-06-12T09:24:37.372Z</time>
      </trkpt>
      <trkpt lat="44.26521" lon="2.53002">
        <ele>749</ele>
        <time>2022-06-12T09:24:38.372Z</time>
      </trkpt>
      <trkpt lat="44.26521" lon="2.53">
        <ele>749</ele>
        <time>2022-06-12T09:24:39.372Z</time>
      </trkpt>
      <trkpt lat="44.26522" lon="2.52999">
        <ele>749</ele>
        <time>2022-06-12T09:24:40.372Z</time>
      </trkpt>
      <trkpt lat="44.26523" lon="2.52997">
        <ele>748</ele>
        <time>2022-06-12T09:24:41.372Z</time>
      </trkpt>
      <trkpt lat="44.26523" lon="2.52995">
        <ele>748</ele>
        <time>2022-06-12T09:24:42.372Z</time>
      </trkpt>
      <trkpt lat="44.26524" lon="2.52993">
        <ele>748</ele>
        <time>2022-06-12T09:24:43.372Z</time>
      </trkpt>
      <trkpt lat="44.26524" lon="2.52991">
        <ele>748</ele>
        <time>2022-06-12T09:24:44.372Z</time>
      </trkpt>
      <trkpt lat="44.26525" lon="2.52989">
        <ele>748</ele>
        <time>2022-06-12T09:24:45.372Z</time>
      </trkpt>
      <trkpt lat="44.26526" lon="2.52987">
        <ele>748</ele>
        <time>2022-06-12T09:24:46.372Z</time>
      </trkpt>
      <trkpt lat="44.26526" lon="2.52985">
        <ele>747</ele>
        <time>2022-06-12T09:24:47.372Z</time>
      </trkpt>
      <trkpt lat="44.26527" lon="2.52983">
        <ele>747</ele>
        <time>2022-06-12T09:24:48.372Z</time>
      </trkpt>
      <trkpt lat="44.26527" lon="2.52981">
        <ele>747</ele>
        <time>2022-06-12T09:24:49.372Z</time>
      </trkpt>
      <trkpt lat="44.26528" lon="2.52979">
        <ele>747</ele>
        <time>2022-06-12T09:24:50.372Z</time>
      </trkpt>
      <trkpt lat="44.26528" lon="2.52977">
        <ele>747</ele>
        <time>2022-06-12T09:24:51.372Z</time>
      </trkpt>
      <trkpt lat="44.26529" lon="2.52976">
        <ele>747</ele>
        <time>2022-06-12T09:24:52.372Z</time>
      </trkpt>
      <trkpt lat="44.26529" lon="2.52974">
        <ele>747</ele>
        <time>2022-06-12T09:24:53.372Z</time>
      </trkpt>
      <trkpt lat="44.2653" lon="2.52972">
        <ele>747</ele>
        <time>2022-06-12T09:24:54.372Z</time>
      </trkpt>
      <trkpt lat="44.26531" lon="2.5297">
        <ele>747</ele>
        <time>2022-06-12T09:24:55.372Z</time>
      </trkpt>
      <trkpt lat="44.26531" lon="2.52968">
        <ele>746</ele>
        <time>2022-06-12T09:24:56.372Z</time>
      </trkpt>
      <trkpt lat="44.26532" lon="2.52966">
        <ele>746</ele>
        <time>2022-06-12T09:24:57.372Z</time>
      </trkpt>
      <trkpt lat="44.26532" lon="2.52964">
        <ele>746</ele>
        <time>2022-06-12T09:24:58.372Z</time>
      </trkpt>
      <trkpt lat="44.26532" lon="2.52962">
        <ele>746</ele>
        <time>2022-06-12T09:24:59.372Z</time>
      </trkpt>
      <trkpt lat="44.26533" lon="2.5296">
        <ele>746</ele>
        <time>2022-06-12T09:25:00.372Z</time>
      </trkpt>
      <trkpt lat="44.26533" lon="2.52958">
        <ele>746</ele>
        <time>2022-06-12T09:25:01.372Z</time>
      </trkpt>
      <trkpt lat="44.26534" lon="2.52956">
        <ele>746</ele>
        <time>2022-06-12T09:25:02.372Z</time>
      </trkpt>
      <trkpt lat="44.26534" lon="2.52954">
        <ele>746</ele>
        <time>2022-06-12T09:25:03.372Z</time>
      </trkpt>
      <trkpt lat="44.26535" lon="2.52953">
        <ele>746</ele>
        <time>2022-06-12T09:25:04.372Z</time>
      </trkpt>
      <trkpt lat="44.26535" lon="2.52951">
        <ele>746</ele>
        <time>2022-06-12T09:25:05.372Z</time>
      </trkpt>
      <trkpt lat="44.26535" lon="2.52949">
        <ele>746</ele>
        <time>2022-06-12T09:25:06.372Z</time>
      </trkpt>
      <trkpt lat="44.26536" lon="2.52947">
        <ele>746</ele>
        <time>2022-06-12T09:25:07.372Z</time>
      </trkpt>
      <trkpt lat="44.26536" lon="2.52945">
        <ele>746</ele>
        <time>2022-06-12T09:25:08.372Z</time>
      </trkpt>
      <trkpt lat="44.26537" lon="2.52943">
        <ele>745</ele>
        <time>2022-06-12T09:25:09.372Z</time>
      </trkpt>
      <trkpt lat="44.26537" lon="2.5294">
        <ele>745</ele>
        <time>2022-06-12T09:25:10.372Z</time>
      </trkpt>
      <trkpt lat="44.26537" lon="2.52938">
        <ele>745</ele>
        <time>2022-06-12T09:25:11.372Z</time>
      </trkpt>
      <trkpt lat="44.26538" lon="2.52937">
        <ele>745</ele>
        <time>2022-06-12T09:25:12.372Z</time>
      </trkpt>
      <trkpt lat="44.26538" lon="2.52935">
        <ele>745</ele>
        <time>2022-06-12T09:25:13.372Z</time>
      </trkpt>
      <trkpt lat="44.26539" lon="2.52933">
        <ele>745</ele>
        <time>2022-06-12T09:25:14.372Z</time>
      </trkpt>
      <trkpt lat="44.26539" lon="2.52931">
        <ele>745</ele>
        <time>2022-06-12T09:25:15.372Z</time>
      </trkpt>
      <trkpt lat="44.26539" lon="2.52929">
        <ele>745</ele>
        <time>2022-06-12T09:25:16.372Z</time>
      </trkpt>
      <trkpt lat="44.2654" lon="2.52927">
        <ele>745</ele>
        <time>2022-06-12T09:25:17.372Z</time>
      </trkpt>
      <trkpt lat="44.2654" lon="2.52925">
        <ele>745</ele>
        <time>2022-06-12T09:25:18.372Z</time>
      </trkpt>
      <trkpt lat="44.2654" lon="2.52923">
        <ele>745</ele>
        <time>2022-06-12T09:25:19.372Z</time>
      </trkpt>
      <trkpt lat="44.26541" lon="2.52922">
        <ele>745</ele>
        <time>2022-06-12T09:25:20.372Z</time>
      </trkpt>
      <trkpt lat="44.26541" lon="2.5292">
        <ele>744</ele>
        <time>2022-06-12T09:25:21.372Z</time>
      </trkpt>
      <trkpt lat="44.26541" lon="2.52918">
        <ele>744</ele>
        <time>2022-06-12T09:25:22.372Z</time>
      </trkpt>
      <trkpt lat="44.26542" lon="2.52916">
        <ele>744</ele>
        <time>2022-06-12T09:25:23.372Z</time>
      </trkpt>
      <trkpt lat="44.26543" lon="2.52915">
        <ele>744</ele>
        <time>2022-06-12T09:25:24.372Z</time>
      </trkpt>
      <trkpt lat="44.26543" lon="2.52915">
        <ele>744</ele>
        <time>2022-06-12T09:25:25.372Z</time>
      </trkpt>
      <trkpt lat="44.26543" lon="2.52914">
        <ele>744</ele>
        <time>2022-06-12T09:25:26.372Z</time>
      </trkpt>
      <trkpt lat="44.26543" lon="2.52914">
        <ele>744</ele>
        <time>2022-06-12T09:25:27.372Z</time>
      </trkpt>
      <trkpt lat="44.26543" lon="2.52914">
        <ele>744</ele>
        <time>2022-06-12T09:25:28.372Z</time>
      </trkpt>
      <trkpt lat="44.26544" lon="2.52911">
        <ele>743</ele>
        <time>2022-06-12T09:25:42.375Z</time>
      </trkpt>
      <trkpt lat="44.26544" lon="2.5291">
        <ele>743</ele>
        <time>2022-06-12T09:25:43.375Z</time>
      </trkpt>
      <trkpt lat="44.26544" lon="2.52908">
        <ele>743</ele>
        <time>2022-06-12T09:25:44.375Z</time>
      </trkpt>
      <trkpt lat="44.26545" lon="2.52906">
        <ele>743</ele>
        <time>2022-06-12T09:25:45.375Z</time>
      </trkpt>
      <trkpt lat="44.26546" lon="2.52905">
        <ele>743</ele>
        <time>2022-06-12T09:25:46.375Z</time>
      </trkpt>
      <trkpt lat="44.26547" lon="2.52905">
        <ele>743</ele>
        <time>2022-06-12T09:25:47.375Z</time>
      </trkpt>
      <trkpt lat="44.26549" lon="2.52905">
        <ele>743</ele>
        <time>2022-06-12T09:25:48.375Z</time>
      </trkpt>
      <trkpt lat="44.2655" lon="2.52905">
        <ele>743</ele>
        <time>2022-06-12T09:25:49.375Z</time>
      </trkpt>
      <trkpt lat="44.26552" lon="2.52906">
        <ele>743</ele>
        <time>2022-06-12T09:25:50.375Z</time>
      </trkpt>
      <trkpt lat="44.26553" lon="2.52906">
        <ele>743</ele>
        <time>2022-06-12T09:25:51.375Z</time>
      </trkpt>
      <trkpt lat="44.26553" lon="2.52906">
        <ele>743</ele>
        <time>2022-06-12T09:25:52.375Z</time>
      </trkpt>
      <trkpt lat="44.26554" lon="2.52906">
        <ele>743</ele>
        <time>2022-06-12T09:25:53.375Z</time>
      </trkpt>
      <trkpt lat="44.26554" lon="2.52906">
        <ele>743</ele>
        <time>2022-06-12T09:25:54.375Z</time>
      </trkpt>
      <trkpt lat="44.26554" lon="2.52906">
        <ele>743</ele>
        <time>2022-06-12T09:25:55.375Z</time>
      </trkpt>
      <trkpt lat="44.26554" lon="2.52905">
        <ele>743</ele>
        <time>2022-06-12T09:25:56.375Z</time>
      </trkpt>
      <trkpt lat="44.26553" lon="2.52904">
        <ele>743</ele>
        <time>2022-06-12T09:26:02.378Z</time>
      </trkpt>
      <trkpt lat="44.26553" lon="2.52902">
        <ele>743</ele>
        <time>2022-06-12T09:26:03.378Z</time>
      </trkpt>
      <trkpt lat="44.26552" lon="2.529">
        <ele>743</ele>
        <time>2022-06-12T09:26:04.378Z</time>
      </trkpt>
      <trkpt lat="44.26551" lon="2.52899">
        <ele>743</ele>
        <time>2022-06-12T09:26:05.378Z</time>
      </trkpt>
      <trkpt lat="44.2655" lon="2.52897">
        <ele>743</ele>
        <time>2022-06-12T09:26:06.378Z</time>
      </trkpt>
      <trkpt lat="44.26549" lon="2.52895">
        <ele>743</ele>
        <time>2022-06-12T09:26:07.378Z</time>
      </trkpt>
      <trkpt lat="44.26549" lon="2.52894">
        <ele>743</ele>
        <time>2022-06-12T09:26:08.378Z</time>
      </trkpt>
      <trkpt lat="44.26548" lon="2.52892">
        <ele>743</ele>
        <time>2022-06-12T09:26:09.378Z</time>
      </trkpt>
      <trkpt lat="44.26547" lon="2.5289">
        <ele>743</ele>
        <time>2022-06-12T09:26:10.378Z</time>
      </trkpt>
      <trkpt lat="44.26546" lon="2.52889">
        <ele>743</ele>
        <time>2022-06-12T09:26:11.378Z</time>
      </trkpt>
      <trkpt lat="44.26545" lon="2.52887">
        <ele>743</ele>
        <time>2022-06-12T09:26:12.378Z</time>
      </trkpt>
      <trkpt lat="44.26544" lon="2.52885">
        <ele>743</ele>
        <time>2022-06-12T09:26:13.378Z</time>
      </trkpt>
      <trkpt lat="44.26543" lon="2.52884">
        <ele>743</ele>
        <time>2022-06-12T09:26:14.378Z</time>
      </trkpt>
      <trkpt lat="44.26542" lon="2.52882">
        <ele>744</ele>
        <time>2022-06-12T09:26:15.378Z</time>
      </trkpt>
      <trkpt lat="44.26541" lon="2.52881">
        <ele>744</ele>
        <time>2022-06-12T09:26:16.378Z</time>
      </trkpt>
      <trkpt lat="44.2654" lon="2.52879">
        <ele>744</ele>
        <time>2022-06-12T09:26:17.378Z</time>
      </trkpt>
      <trkpt lat="44.26539" lon="2.52877">
        <ele>744</ele>
        <time>2022-06-12T09:26:18.378Z</time>
      </trkpt>
      <trkpt lat="44.26538" lon="2.52876">
        <ele>744</ele>
        <time>2022-06-12T09:26:19.378Z</time>
      </trkpt>
      <trkpt lat="44.26537" lon="2.52875">
        <ele>744</ele>
        <time>2022-06-12T09:26:20.378Z</time>
      </trkpt>
      <trkpt lat="44.26536" lon="2.52873">
        <ele>744</ele>
        <time>2022-06-12T09:26:21.378Z</time>
      </trkpt>
      <trkpt lat="44.26534" lon="2.52872">
        <ele>744</ele>
        <time>2022-06-12T09:26:22.378Z</time>
      </trkpt>
      <trkpt lat="44.26534" lon="2.52871">
        <ele>744</ele>
        <time>2022-06-12T09:26:23.378Z</time>
      </trkpt>
      <trkpt lat="44.26533" lon="2.52869">
        <ele>744</ele>
        <time>2022-06-12T09:26:24.378Z</time>
      </trkpt>
      <trkpt lat="44.26532" lon="2.52868">
        <ele>744</ele>
        <time>2022-06-12T09:26:25.378Z</time>
      </trkpt>
      <trkpt lat="44.26531" lon="2.52866">
        <ele>744</ele>
        <time>2022-06-12T09:26:26.378Z</time>
      </trkpt>
      <trkpt lat="44.26531" lon="2.52865">
        <ele>744</ele>
        <time>2022-06-12T09:26:27.378Z</time>
      </trkpt>
      <trkpt lat="44.2653" lon="2.52864">
        <ele>744</ele>
        <time>2022-06-12T09:26:28.378Z</time>
      </trkpt>
      <trkpt lat="44.26529" lon="2.52863">
        <ele>744</ele>
        <time>2022-06-12T09:26:29.378Z</time>
      </trkpt>
      <trkpt lat="44.26528" lon="2.52861">
        <ele>744</ele>
        <time>2022-06-12T09:26:30.378Z</time>
      </trkpt>
      <trkpt lat="44.26527" lon="2.5286">
        <ele>744</ele>
        <time>2022-06-12T09:26:31.378Z</time>
      </trkpt>
      <trkpt lat="44.26527" lon="2.52859">
        <ele>744</ele>
        <time>2022-06-12T09:26:32.378Z</time>
      </trkpt>
      <trkpt lat="44.26526" lon="2.52858">
        <ele>744</ele>
        <time>2022-06-12T09:26:33.378Z</time>
      </trkpt>
      <trkpt lat="44.26525" lon="2.52856">
        <ele>744</ele>
        <time>2022-06-12T09:26:34.378Z</time>
      </trkpt>
      <trkpt lat="44.26523" lon="2.52855">
        <ele>744</ele>
        <time>2022-06-12T09:26:35.378Z</time>
      </trkpt>
      <trkpt lat="44.26522" lon="2.52853">
        <ele>744</ele>
        <time>2022-06-12T09:26:36.378Z</time>
      </trkpt>
      <trkpt lat="44.26521" lon="2.52852">
        <ele>744</ele>
        <time>2022-06-12T09:26:37.378Z</time>
      </trkpt>
      <trkpt lat="44.2652" lon="2.5285">
        <ele>744</ele>
        <time>2022-06-12T09:26:38.378Z</time>
      </trkpt>
      <trkpt lat="44.26519" lon="2.52849">
        <ele>744</ele>
        <time>2022-06-12T09:26:39.378Z</time>
      </trkpt>
      <trkpt lat="44.26517" lon="2.52847">
        <ele>744</ele>
        <time>2022-06-12T09:26:40.378Z</time>
      </trkpt>
      <trkpt lat="44.26516" lon="2.52846">
        <ele>744</ele>
        <time>2022-06-12T09:26:41.378Z</time>
      </trkpt>
      <trkpt lat="44.26515" lon="2.52844">
        <ele>744</ele>
        <time>2022-06-12T09:26:42.378Z</time>
      </trkpt>
      <trkpt lat="44.26514" lon="2.52843">
        <ele>744</ele>
        <time>2022-06-12T09:26:43.378Z</time>
      </trkpt>
      <trkpt lat="44.26513" lon="2.52842">
        <ele>744</ele>
        <time>2022-06-12T09:26:44.378Z</time>
      </trkpt>
      <trkpt lat="44.26512" lon="2.52841">
        <ele>744</ele>
        <time>2022-06-12T09:26:45.378Z</time>
      </trkpt>
      <trkpt lat="44.2651" lon="2.52839">
        <ele>744</ele>
        <time>2022-06-12T09:26:46.378Z</time>
      </trkpt>
      <trkpt lat="44.26509" lon="2.52838">
        <ele>744</ele>
        <time>2022-06-12T09:26:47.378Z</time>
      </trkpt>
      <trkpt lat="44.26508" lon="2.52836">
        <ele>744</ele>
        <time>2022-06-12T09:26:48.378Z</time>
      </trkpt>
      <trkpt lat="44.26506" lon="2.52834">
        <ele>744</ele>
        <time>2022-06-12T09:26:49.378Z</time>
      </trkpt>
      <trkpt lat="44.26505" lon="2.52833">
        <ele>744</ele>
        <time>2022-06-12T09:26:50.378Z</time>
      </trkpt>
      <trkpt lat="44.26504" lon="2.52831">
        <ele>744</ele>
        <time>2022-06-12T09:26:51.378Z</time>
      </trkpt>
      <trkpt lat="44.26502" lon="2.5283">
        <ele>744</ele>
        <time>2022-06-12T09:26:52.378Z</time>
      </trkpt>
      <trkpt lat="44.26501" lon="2.5283">
        <ele>744</ele>
        <time>2022-06-12T09:26:53.378Z</time>
      </trkpt>
      <trkpt lat="44.265" lon="2.52828">
        <ele>744</ele>
        <time>2022-06-12T09:26:54.378Z</time>
      </trkpt>
      <trkpt lat="44.26499" lon="2.52828">
        <ele>745</ele>
        <time>2022-06-12T09:26:55.378Z</time>
      </trkpt>
      <trkpt lat="44.26498" lon="2.52827">
        <ele>745</ele>
        <time>2022-06-12T09:26:56.378Z</time>
      </trkpt>
      <trkpt lat="44.26496" lon="2.52825">
        <ele>745</ele>
        <time>2022-06-12T09:26:57.378Z</time>
      </trkpt>
      <trkpt lat="44.26495" lon="2.52824">
        <ele>745</ele>
        <time>2022-06-12T09:26:58.378Z</time>
      </trkpt>
      <trkpt lat="44.26493" lon="2.52823">
        <ele>745</ele>
        <time>2022-06-12T09:26:59.378Z</time>
      </trkpt>
      <trkpt lat="44.26492" lon="2.52822">
        <ele>745</ele>
        <time>2022-06-12T09:27:00.378Z</time>
      </trkpt>
      <trkpt lat="44.26491" lon="2.52821">
        <ele>745</ele>
        <time>2022-06-12T09:27:01.378Z</time>
      </trkpt>
      <trkpt lat="44.2649" lon="2.5282">
        <ele>745</ele>
        <time>2022-06-12T09:27:02.378Z</time>
      </trkpt>
      <trkpt lat="44.26489" lon="2.52819">
        <ele>745</ele>
        <time>2022-06-12T09:27:03.378Z</time>
      </trkpt>
      <trkpt lat="44.26487" lon="2.52818">
        <ele>745</ele>
        <time>2022-06-12T09:27:04.378Z</time>
      </trkpt>
      <trkpt lat="44.26486" lon="2.52816">
        <ele>745</ele>
        <time>2022-06-12T09:27:05.378Z</time>
      </trkpt>
      <trkpt lat="44.26485" lon="2.52815">
        <ele>745</ele>
        <time>2022-06-12T09:27:06.378Z</time>
      </trkpt>
      <trkpt lat="44.26483" lon="2.52814">
        <ele>745</ele>
        <time>2022-06-12T09:27:07.378Z</time>
      </trkpt>
      <trkpt lat="44.26482" lon="2.52813">
        <ele>745</ele>
        <time>2022-06-12T09:27:08.378Z</time>
      </trkpt>
      <trkpt lat="44.26481" lon="2.52811">
        <ele>745</ele>
        <time>2022-06-12T09:27:09.378Z</time>
      </trkpt>
      <trkpt lat="44.2648" lon="2.5281">
        <ele>745</ele>
        <time>2022-06-12T09:27:10.378Z</time>
      </trkpt>
      <trkpt lat="44.26478" lon="2.52809">
        <ele>745</ele>
        <time>2022-06-12T09:27:11.378Z</time>
      </trkpt>
      <trkpt lat="44.26477" lon="2.52808">
        <ele>745</ele>
        <time>2022-06-12T09:27:12.378Z</time>
      </trkpt>
      <trkpt lat="44.26476" lon="2.52806">
        <ele>745</ele>
        <time>2022-06-12T09:27:13.378Z</time>
      </trkpt>
      <trkpt lat="44.26474" lon="2.52805">
        <ele>745</ele>
        <time>2022-06-12T09:27:14.378Z</time>
      </trkpt>
      <trkpt lat="44.26473" lon="2.52803">
        <ele>745</ele>
        <time>2022-06-12T09:27:15.378Z</time>
      </trkpt>
      <trkpt lat="44.26472" lon="2.52802">
        <ele>745</ele>
        <time>2022-06-12T09:27:16.378Z</time>
      </trkpt>
      <trkpt lat="44.26471" lon="2.52801">
        <ele>745</ele>
        <time>2022-06-12T09:27:17.378Z</time>
      </trkpt>
      <trkpt lat="44.2647" lon="2.528">
        <ele>745</ele>
        <time>2022-06-12T09:27:18.378Z</time>
      </trkpt>
      <trkpt lat="44.26469" lon="2.52799">
        <ele>745</ele>
        <time>2022-06-12T09:27:19.378Z</time>
      </trkpt>
      <trkpt lat="44.26467" lon="2.52798">
        <ele>745</ele>
        <time>2022-06-12T09:27:20.378Z</time>
      </trkpt>
      <trkpt lat="44.26466" lon="2.52797">
        <ele>745</ele>
        <time>2022-06-12T09:27:21.378Z</time>
      </trkpt>
      <trkpt lat="44.26465" lon="2.52796">
        <ele>745</ele>
        <time>2022-06-12T09:27:22.378Z</time>
      </trkpt>
      <trkpt lat="44.26464" lon="2.52795">
        <ele>745</ele>
        <time>2022-06-12T09:27:23.378Z</time>
      </trkpt>
      <trkpt lat="44.26463" lon="2.52794">
        <ele>745</ele>
        <time>2022-06-12T09:27:24.378Z</time>
      </trkpt>
      <trkpt lat="44.26462" lon="2.52792">
        <ele>745</ele>
        <time>2022-06-12T09:27:25.378Z</time>
      </trkpt>
      <trkpt lat="44.26461" lon="2.52791">
        <ele>745</ele>
        <time>2022-06-12T09:27:26.378Z</time>
      </trkpt>
      <trkpt lat="44.2646" lon="2.52789">
        <ele>745</ele>
        <time>2022-06-12T09:27:27.378Z</time>
      </trkpt>
      <trkpt lat="44.26458" lon="2.52787">
        <ele>745</ele>
        <time>2022-06-12T09:27:28.378Z</time>
      </trkpt>
      <trkpt lat="44.26457" lon="2.52785">
        <ele>745</ele>
        <time>2022-06-12T09:27:29.378Z</time>
      </trkpt>
      <trkpt lat="44.26456" lon="2.52784">
        <ele>745</ele>
        <time>2022-06-12T09:27:30.378Z</time>
      </trkpt>
      <trkpt lat="44.26455" lon="2.52782">
        <ele>745</ele>
        <time>2022-06-12T09:27:31.378Z</time>
      </trkpt>
      <trkpt lat="44.26454" lon="2.52781">
        <ele>745</ele>
        <time>2022-06-12T09:27:32.378Z</time>
      </trkpt>
      <trkpt lat="44.26452" lon="2.5278">
        <ele>745</ele>
        <time>2022-06-12T09:27:33.378Z</time>
      </trkpt>
      <trkpt lat="44.26451" lon="2.52778">
        <ele>745</ele>
        <time>2022-06-12T09:27:34.378Z</time>
      </trkpt>
      <trkpt lat="44.2645" lon="2.52777">
        <ele>745</ele>
        <time>2022-06-12T09:27:35.378Z</time>
      </trkpt>
      <trkpt lat="44.26449" lon="2.52775">
        <ele>745</ele>
        <time>2022-06-12T09:27:36.378Z</time>
      </trkpt>
      <trkpt lat="44.26448" lon="2.52774">
        <ele>745</ele>
        <time>2022-06-12T09:27:37.378Z</time>
      </trkpt>
      <trkpt lat="44.26446" lon="2.52772">
        <ele>745</ele>
        <time>2022-06-12T09:27:38.378Z</time>
      </trkpt>
      <trkpt lat="44.26445" lon="2.5277">
        <ele>745</ele>
        <time>2022-06-12T09:27:39.378Z</time>
      </trkpt>
      <trkpt lat="44.26444" lon="2.52769">
        <ele>744</ele>
        <time>2022-06-12T09:27:40.378Z</time>
      </trkpt>
      <trkpt lat="44.26443" lon="2.52767">
        <ele>744</ele>
        <time>2022-06-12T09:27:41.378Z</time>
      </trkpt>
      <trkpt lat="44.26442" lon="2.52765">
        <ele>744</ele>
        <time>2022-06-12T09:27:42.378Z</time>
      </trkpt>
      <trkpt lat="44.26441" lon="2.52764">
        <ele>744</ele>
        <time>2022-06-12T09:27:43.378Z</time>
      </trkpt>
      <trkpt lat="44.26439" lon="2.52762">
        <ele>744</ele>
        <time>2022-06-12T09:27:44.378Z</time>
      </trkpt>
      <trkpt lat="44.26438" lon="2.5276">
        <ele>744</ele>
        <time>2022-06-12T09:27:45.378Z</time>
      </trkpt>
      <trkpt lat="44.26437" lon="2.52759">
        <ele>744</ele>
        <time>2022-06-12T09:27:46.378Z</time>
      </trkpt>
      <trkpt lat="44.26436" lon="2.52757">
        <ele>744</ele>
        <time>2022-06-12T09:27:47.378Z</time>
      </trkpt>
      <trkpt lat="44.26435" lon="2.52756">
        <ele>744</ele>
        <time>2022-06-12T09:27:48.378Z</time>
      </trkpt>
      <trkpt lat="44.26434" lon="2.52754">
        <ele>744</ele>
        <time>2022-06-12T09:27:49.378Z</time>
      </trkpt>
      <trkpt lat="44.26433" lon="2.52753">
        <ele>744</ele>
        <time>2022-06-12T09:27:50.378Z</time>
      </trkpt>
      <trkpt lat="44.26432" lon="2.52751">
        <ele>744</ele>
        <time>2022-06-12T09:27:51.378Z</time>
      </trkpt>
      <trkpt lat="44.26431" lon="2.5275">
        <ele>744</ele>
        <time>2022-06-12T09:27:52.378Z</time>
      </trkpt>
      <trkpt lat="44.26429" lon="2.52748">
        <ele>744</ele>
        <time>2022-06-12T09:27:53.378Z</time>
      </trkpt>
      <trkpt lat="44.26428" lon="2.52747">
        <ele>743</ele>
        <time>2022-06-12T09:27:54.378Z</time>
      </trkpt>
      <trkpt lat="44.26427" lon="2.52745">
        <ele>743</ele>
        <time>2022-06-12T09:27:55.378Z</time>
      </trkpt>
      <trkpt lat="44.26426" lon="2.52744">
        <ele>743</ele>
        <time>2022-06-12T09:27:56.378Z</time>
      </trkpt>
      <trkpt lat="44.26425" lon="2.52742">
        <ele>743</ele>
        <time>2022-06-12T09:27:57.378Z</time>
      </trkpt>
      <trkpt lat="44.26424" lon="2.5274">
        <ele>743</ele>
        <time>2022-06-12T09:27:58.378Z</time>
      </trkpt>
      <trkpt lat="44.26423" lon="2.52739">
        <ele>743</ele>
        <time>2022-06-12T09:27:59.378Z</time>
      </trkpt>
      <trkpt lat="44.26422" lon="2.52737">
        <ele>743</ele>
        <time>2022-06-12T09:28:00.378Z</time>
      </trkpt>
      <trkpt lat="44.26421" lon="2.52736">
        <ele>743</ele>
        <time>2022-06-12T09:28:01.378Z</time>
      </trkpt>
      <trkpt lat="44.2642" lon="2.52734">
        <ele>743</ele>
        <time>2022-06-12T09:28:02.378Z</time>
      </trkpt>
      <trkpt lat="44.26419" lon="2.52732">
        <ele>743</ele>
        <time>2022-06-12T09:28:03.378Z</time>
      </trkpt>
      <trkpt lat="44.26418" lon="2.5273">
        <ele>743</ele>
        <time>2022-06-12T09:28:04.378Z</time>
      </trkpt>
      <trkpt lat="44.26417" lon="2.52729">
        <ele>743</ele>
        <time>2022-06-12T09:28:05.378Z</time>
      </trkpt>
      <trkpt lat="44.26416" lon="2.52727">
        <ele>743</ele>
        <time>2022-06-12T09:28:06.378Z</time>
      </trkpt>
      <trkpt lat="44.26415" lon="2.52725">
        <ele>743</ele>
        <time>2022-06-12T09:28:07.378Z</time>
      </trkpt>
      <trkpt lat="44.26414" lon="2.52723">
        <ele>743</ele>
        <time>2022-06-12T09:28:08.378Z</time>
      </trkpt>
      <trkpt lat="44.26413" lon="2.52722">
        <ele>743</ele>
        <time>2022-06-12T09:28:09.378Z</time>
      </trkpt>
      <trkpt lat="44.26412" lon="2.5272">
        <ele>743</ele>
        <time>2022-06-12T09:28:10.378Z</time>
      </trkpt>
      <trkpt lat="44.26411" lon="2.52718">
        <ele>743</ele>
        <time>2022-06-12T09:28:11.378Z</time>
      </trkpt>
      <trkpt lat="44.2641" lon="2.52717">
        <ele>743</ele>
        <time>2022-06-12T09:28:12.378Z</time>
      </trkpt>
      <trkpt lat="44.26409" lon="2.52716">
        <ele>743</ele>
        <time>2022-06-12T09:28:13.378Z</time>
      </trkpt>
      <trkpt lat="44.26408" lon="2.52715">
        <ele>743</ele>
        <time>2022-06-12T09:28:14.378Z</time>
      </trkpt>
      <trkpt lat="44.26407" lon="2.52713">
        <ele>743</ele>
        <time>2022-06-12T09:28:15.378Z</time>
      </trkpt>
      <trkpt lat="44.26406" lon="2.52712">
        <ele>743</ele>
        <time>2022-06-12T09:28:16.378Z</time>
      </trkpt>
      <trkpt lat="44.26405" lon="2.5271">
        <ele>743</ele>
        <time>2022-06-12T09:28:17.378Z</time>
      </trkpt>
      <trkpt lat="44.26404" lon="2.52709">
        <ele>743</ele>
        <time>2022-06-12T09:28:18.378Z</time>
      </trkpt>
      <trkpt lat="44.26404" lon="2.52707">
        <ele>743</ele>
        <time>2022-06-12T09:28:19.378Z</time>
      </trkpt>
      <trkpt lat="44.26403" lon="2.52705">
        <ele>743</ele>
        <time>2022-06-12T09:28:20.378Z</time>
      </trkpt>
      <trkpt lat="44.26402" lon="2.52703">
        <ele>743</ele>
        <time>2022-06-12T09:28:21.378Z</time>
      </trkpt>
      <trkpt lat="44.26401" lon="2.52701">
        <ele>743</ele>
        <time>2022-06-12T09:28:22.378Z</time>
      </trkpt>
      <trkpt lat="44.26401" lon="2.52699">
        <ele>743</ele>
        <time>2022-06-12T09:28:23.378Z</time>
      </trkpt>
      <trkpt lat="44.264" lon="2.52697">
        <ele>743</ele>
        <time>2022-06-12T09:28:24.378Z</time>
      </trkpt>
      <trkpt lat="44.26399" lon="2.52694">
        <ele>743</ele>
        <time>2022-06-12T09:28:25.378Z</time>
      </trkpt>
      <trkpt lat="44.26399" lon="2.52692">
        <ele>743</ele>
        <time>2022-06-12T09:28:26.378Z</time>
      </trkpt>
      <trkpt lat="44.26398" lon="2.5269">
        <ele>743</ele>
        <time>2022-06-12T09:28:27.378Z</time>
      </trkpt>
      <trkpt lat="44.26398" lon="2.52688">
        <ele>743</ele>
        <time>2022-06-12T09:28:28.378Z</time>
      </trkpt>
      <trkpt lat="44.26398" lon="2.52686">
        <ele>743</ele>
        <time>2022-06-12T09:28:29.378Z</time>
      </trkpt>
      <trkpt lat="44.26398" lon="2.52684">
        <ele>743</ele>
        <time>2022-06-12T09:28:30.378Z</time>
      </trkpt>
      <trkpt lat="44.26398" lon="2.52681">
        <ele>743</ele>
        <time>2022-06-12T09:28:31.378Z</time>
      </trkpt>
      <trkpt lat="44.26398" lon="2.5268">
        <ele>743</ele>
        <time>2022-06-12T09:28:32.378Z</time>
      </trkpt>
      <trkpt lat="44.26398" lon="2.52678">
        <ele>743</ele>
        <time>2022-06-12T09:28:33.378Z</time>
      </trkpt>
      <trkpt lat="44.26399" lon="2.52676">
        <ele>743</ele>
        <time>2022-06-12T09:28:34.378Z</time>
      </trkpt>
      <trkpt lat="44.26399" lon="2.52674">
        <ele>743</ele>
        <time>2022-06-12T09:28:35.378Z</time>
      </trkpt>
      <trkpt lat="44.264" lon="2.52673">
        <ele>743</ele>
        <time>2022-06-12T09:28:36.378Z</time>
      </trkpt>
      <trkpt lat="44.264" lon="2.52671">
        <ele>743</ele>
        <time>2022-06-12T09:28:37.378Z</time>
      </trkpt>
      <trkpt lat="44.26401" lon="2.5267">
        <ele>743</ele>
        <time>2022-06-12T09:28:38.378Z</time>
      </trkpt>
      <trkpt lat="44.26402" lon="2.52668">
        <ele>743</ele>
        <time>2022-06-12T09:28:39.378Z</time>
      </trkpt>
      <trkpt lat="44.26402" lon="2.52666">
        <ele>743</ele>
        <time>2022-06-12T09:28:40.378Z</time>
      </trkpt>
      <trkpt lat="44.26403" lon="2.52664">
        <ele>743</ele>
        <time>2022-06-12T09:28:41.378Z</time>
      </trkpt>
      <trkpt lat="44.26403" lon="2.52662">
        <ele>743</ele>
        <time>2022-06-12T09:28:42.378Z</time>
      </trkpt>
      <trkpt lat="44.26404" lon="2.52661">
        <ele>743</ele>
        <time>2022-06-12T09:28:43.378Z</time>
      </trkpt>
      <trkpt lat="44.26405" lon="2.52659">
        <ele>743</ele>
        <time>2022-06-12T09:28:44.378Z</time>
      </trkpt>
      <trkpt lat="44.26406" lon="2.52657">
        <ele>743</ele>
        <time>2022-06-12T09:28:45.378Z</time>
      </trkpt>
      <trkpt lat="44.26406" lon="2.52655">
        <ele>742</ele>
        <time>2022-06-12T09:28:46.378Z</time>
      </trkpt>
      <trkpt lat="44.26407" lon="2.52653">
        <ele>742</ele>
        <time>2022-06-12T09:28:47.378Z</time>
      </trkpt>
      <trkpt lat="44.26408" lon="2.52652">
        <ele>742</ele>
        <time>2022-06-12T09:28:48.378Z</time>
      </trkpt>
      <trkpt lat="44.26409" lon="2.5265">
        <ele>742</ele>
        <time>2022-06-12T09:28:49.378Z</time>
      </trkpt>
      <trkpt lat="44.2641" lon="2.52648">
        <ele>742</ele>
        <time>2022-06-12T09:28:50.378Z</time>
      </trkpt>
      <trkpt lat="44.26411" lon="2.52646">
        <ele>742</ele>
        <time>2022-06-12T09:28:51.378Z</time>
      </trkpt>
      <trkpt lat="44.26411" lon="2.52645">
        <ele>741</ele>
        <time>2022-06-12T09:28:52.378Z</time>
      </trkpt>
      <trkpt lat="44.26412" lon="2.52643">
        <ele>741</ele>
        <time>2022-06-12T09:28:53.378Z</time>
      </trkpt>
      <trkpt lat="44.26413" lon="2.52642">
        <ele>741</ele>
        <time>2022-06-12T09:28:54.378Z</time>
      </trkpt>
      <trkpt lat="44.26414" lon="2.5264">
        <ele>741</ele>
        <time>2022-06-12T09:28:55.378Z</time>
      </trkpt>
      <trkpt lat="44.26415" lon="2.52638">
        <ele>741</ele>
        <time>2022-06-12T09:28:56.378Z</time>
      </trkpt>
      <trkpt lat="44.26415" lon="2.52637">
        <ele>741</ele>
        <time>2022-06-12T09:28:57.378Z</time>
      </trkpt>
      <trkpt lat="44.26416" lon="2.52635">
        <ele>741</ele>
        <time>2022-06-12T09:28:58.378Z</time>
      </trkpt>
      <trkpt lat="44.26417" lon="2.52633">
        <ele>741</ele>
        <time>2022-06-12T09:28:59.378Z</time>
      </trkpt>
      <trkpt lat="44.26417" lon="2.52632">
        <ele>741</ele>
        <time>2022-06-12T09:29:00.378Z</time>
      </trkpt>
      <trkpt lat="44.26418" lon="2.5263">
        <ele>741</ele>
        <time>2022-06-12T09:29:01.378Z</time>
      </trkpt>
      <trkpt lat="44.26419" lon="2.52629">
        <ele>741</ele>
        <time>2022-06-12T09:29:02.378Z</time>
      </trkpt>
      <trkpt lat="44.2642" lon="2.52627">
        <ele>741</ele>
        <time>2022-06-12T09:29:03.378Z</time>
      </trkpt>
      <trkpt lat="44.2642" lon="2.52625">
        <ele>741</ele>
        <time>2022-06-12T09:29:04.378Z</time>
      </trkpt>
      <trkpt lat="44.26421" lon="2.52624">
        <ele>741</ele>
        <time>2022-06-12T09:29:05.378Z</time>
      </trkpt>
      <trkpt lat="44.26422" lon="2.52622">
        <ele>741</ele>
        <time>2022-06-12T09:29:06.378Z</time>
      </trkpt>
      <trkpt lat="44.26422" lon="2.52621">
        <ele>741</ele>
        <time>2022-06-12T09:29:07.378Z</time>
      </trkpt>
      <trkpt lat="44.26423" lon="2.52619">
        <ele>741</ele>
        <time>2022-06-12T09:29:08.378Z</time>
      </trkpt>
      <trkpt lat="44.26423" lon="2.52618">
        <ele>741</ele>
        <time>2022-06-12T09:29:09.378Z</time>
      </trkpt>
      <trkpt lat="44.26424" lon="2.52617">
        <ele>741</ele>
        <time>2022-06-12T09:29:10.378Z</time>
      </trkpt>
      <trkpt lat="44.26425" lon="2.52615">
        <ele>741</ele>
        <time>2022-06-12T09:29:11.378Z</time>
      </trkpt>
      <trkpt lat="44.26426" lon="2.52613">
        <ele>741</ele>
        <time>2022-06-12T09:29:12.378Z</time>
      </trkpt>
      <trkpt lat="44.26426" lon="2.52612">
        <ele>741</ele>
        <time>2022-06-12T09:29:13.378Z</time>
      </trkpt>
      <trkpt lat="44.26427" lon="2.52611">
        <ele>741</ele>
        <time>2022-06-12T09:29:14.378Z</time>
      </trkpt>
      <trkpt lat="44.26428" lon="2.52609">
        <ele>741</ele>
        <time>2022-06-12T09:29:15.378Z</time>
      </trkpt>
      <trkpt lat="44.26429" lon="2.52608">
        <ele>741</ele>
        <time>2022-06-12T09:29:16.378Z</time>
      </trkpt>
      <trkpt lat="44.26429" lon="2.52607">
        <ele>741</ele>
        <time>2022-06-12T09:29:17.378Z</time>
      </trkpt>
      <trkpt lat="44.2643" lon="2.52605">
        <ele>741</ele>
        <time>2022-06-12T09:29:18.378Z</time>
      </trkpt>
      <trkpt lat="44.26431" lon="2.52604">
        <ele>741</ele>
        <time>2022-06-12T09:29:19.378Z</time>
      </trkpt>
      <trkpt lat="44.26431" lon="2.52602">
        <ele>741</ele>
        <time>2022-06-12T09:29:20.378Z</time>
      </trkpt>
      <trkpt lat="44.26432" lon="2.52601">
        <ele>741</ele>
        <time>2022-06-12T09:29:21.378Z</time>
      </trkpt>
      <trkpt lat="44.26433" lon="2.52599">
        <ele>741</ele>
        <time>2022-06-12T09:29:22.378Z</time>
      </trkpt>
      <trkpt lat="44.26434" lon="2.52597">
        <ele>741</ele>
        <time>2022-06-12T09:29:23.378Z</time>
      </trkpt>
      <trkpt lat="44.26435" lon="2.52596">
        <ele>741</ele>
        <time>2022-06-12T09:29:24.378Z</time>
      </trkpt>
      <trkpt lat="44.26435" lon="2.52595">
        <ele>741</ele>
        <time>2022-06-12T09:29:25.378Z</time>
      </trkpt>
      <trkpt lat="44.26436" lon="2.52593">
        <ele>741</ele>
        <time>2022-06-12T09:29:26.378Z</time>
      </trkpt>
      <trkpt lat="44.26437" lon="2.52592">
        <ele>741</ele>
        <time>2022-06-12T09:29:27.378Z</time>
      </trkpt>
      <trkpt lat="44.26438" lon="2.52591">
        <ele>741</ele>
        <time>2022-06-12T09:29:28.378Z</time>
      </trkpt>
      <trkpt lat="44.26439" lon="2.52589">
        <ele>741</ele>
        <time>2022-06-12T09:29:29.378Z</time>
      </trkpt>
      <trkpt lat="44.2644" lon="2.52588">
        <ele>741</ele>
        <time>2022-06-12T09:29:30.378Z</time>
      </trkpt>
      <trkpt lat="44.26441" lon="2.52587">
        <ele>741</ele>
        <time>2022-06-12T09:29:31.378Z</time>
      </trkpt>
      <trkpt lat="44.26441" lon="2.52585">
        <ele>741</ele>
        <time>2022-06-12T09:29:32.378Z</time>
      </trkpt>
      <trkpt lat="44.26443" lon="2.52584">
        <ele>741</ele>
        <time>2022-06-12T09:29:33.378Z</time>
      </trkpt>
      <trkpt lat="44.26444" lon="2.52583">
        <ele>741</ele>
        <time>2022-06-12T09:29:34.378Z</time>
      </trkpt>
      <trkpt lat="44.26445" lon="2.52582">
        <ele>741</ele>
        <time>2022-06-12T09:29:35.378Z</time>
      </trkpt>
      <trkpt lat="44.26446" lon="2.52582">
        <ele>741</ele>
        <time>2022-06-12T09:29:36.378Z</time>
      </trkpt>
      <trkpt lat="44.26447" lon="2.52581">
        <ele>741</ele>
        <time>2022-06-12T09:29:37.378Z</time>
      </trkpt>
      <trkpt lat="44.26448" lon="2.5258">
        <ele>741</ele>
        <time>2022-06-12T09:29:38.378Z</time>
      </trkpt>
      <trkpt lat="44.26449" lon="2.5258">
        <ele>741</ele>
        <time>2022-06-12T09:29:39.378Z</time>
      </trkpt>
      <trkpt lat="44.26451" lon="2.5258">
        <ele>741</ele>
        <time>2022-06-12T09:29:40.378Z</time>
      </trkpt>
      <trkpt lat="44.26452" lon="2.52579">
        <ele>741</ele>
        <time>2022-06-12T09:29:41.378Z</time>
      </trkpt>
      <trkpt lat="44.26453" lon="2.52579">
        <ele>741</ele>
        <time>2022-06-12T09:29:42.378Z</time>
      </trkpt>
      <trkpt lat="44.26454" lon="2.52579">
        <ele>741</ele>
        <time>2022-06-12T09:29:43.378Z</time>
      </trkpt>
      <trkpt lat="44.26455" lon="2.52579">
        <ele>741</ele>
        <time>2022-06-12T09:29:44.378Z</time>
      </trkpt>
      <trkpt lat="44.26456" lon="2.52578">
        <ele>741</ele>
        <time>2022-06-12T09:29:45.378Z</time>
      </trkpt>
      <trkpt lat="44.26457" lon="2.52578">
        <ele>741</ele>
        <time>2022-06-12T09:29:46.378Z</time>
      </trkpt>
      <trkpt lat="44.26459" lon="2.52579">
        <ele>741</ele>
        <time>2022-06-12T09:29:47.378Z</time>
      </trkpt>
      <trkpt lat="44.2646" lon="2.52579">
        <ele>741</ele>
        <time>2022-06-12T09:29:48.378Z</time>
      </trkpt>
      <trkpt lat="44.26461" lon="2.52578">
        <ele>741</ele>
        <time>2022-06-12T09:29:49.378Z</time>
      </trkpt>
      <trkpt lat="44.26462" lon="2.52578">
        <ele>741</ele>
        <time>2022-06-12T09:29:50.378Z</time>
      </trkpt>
      <trkpt lat="44.26463" lon="2.52578">
        <ele>741</ele>
        <time>2022-06-12T09:29:51.378Z</time>
      </trkpt>
      <trkpt lat="44.26464" lon="2.52578">
        <ele>740</ele>
        <time>2022-06-12T09:29:52.378Z</time>
      </trkpt>
      <trkpt lat="44.26465" lon="2.52578">
        <ele>740</ele>
        <time>2022-06-12T09:29:53.378Z</time>
      </trkpt>
      <trkpt lat="44.26465" lon="2.52579">
        <ele>740</ele>
        <time>2022-06-12T09:29:54.378Z</time>
      </trkpt>
      <trkpt lat="44.26466" lon="2.52578">
        <ele>740</ele>
        <time>2022-06-12T09:29:55.378Z</time>
      </trkpt>
      <trkpt lat="44.26468" lon="2.52578">
        <ele>740</ele>
        <time>2022-06-12T09:29:56.378Z</time>
      </trkpt>
      <trkpt lat="44.26469" lon="2.52578">
        <ele>740</ele>
        <time>2022-06-12T09:29:57.378Z</time>
      </trkpt>
      <trkpt lat="44.2647" lon="2.52577">
        <ele>740</ele>
        <time>2022-06-12T09:29:58.378Z</time>
      </trkpt>
      <trkpt lat="44.26471" lon="2.52577">
        <ele>740</ele>
        <time>2022-06-12T09:29:59.378Z</time>
      </trkpt>
      <trkpt lat="44.26472" lon="2.52577">
        <ele>740</ele>
        <time>2022-06-12T09:30:00.378Z</time>
      </trkpt>
      <trkpt lat="44.26473" lon="2.52577">
        <ele>740</ele>
        <time>2022-06-12T09:30:01.378Z</time>
      </trkpt>
      <trkpt lat="44.26474" lon="2.52577">
        <ele>740</ele>
        <time>2022-06-12T09:30:02.378Z</time>
      </trkpt>
      <trkpt lat="44.26475" lon="2.52577">
        <ele>740</ele>
        <time>2022-06-12T09:30:03.378Z</time>
      </trkpt>
      <trkpt lat="44.26476" lon="2.52577">
        <ele>740</ele>
        <time>2022-06-12T09:30:04.378Z</time>
      </trkpt>
      <trkpt lat="44.26478" lon="2.52576">
        <ele>740</ele>
        <time>2022-06-12T09:30:05.378Z</time>
      </trkpt>
      <trkpt lat="44.26479" lon="2.52576">
        <ele>740</ele>
        <time>2022-06-12T09:30:06.378Z</time>
      </trkpt>
      <trkpt lat="44.2648" lon="2.52576">
        <ele>740</ele>
        <time>2022-06-12T09:30:07.378Z</time>
      </trkpt>
      <trkpt lat="44.26481" lon="2.52576">
        <ele>740</ele>
        <time>2022-06-12T09:30:08.378Z</time>
      </trkpt>
      <trkpt lat="44.26482" lon="2.52576">
        <ele>740</ele>
        <time>2022-06-12T09:30:09.378Z</time>
      </trkpt>
      <trkpt lat="44.26483" lon="2.52576">
        <ele>740</ele>
        <time>2022-06-12T09:30:10.378Z</time>
      </trkpt>
      <trkpt lat="44.26484" lon="2.52576">
        <ele>740</ele>
        <time>2022-06-12T09:30:11.378Z</time>
      </trkpt>
      <trkpt lat="44.26486" lon="2.52576">
        <ele>740</ele>
        <time>2022-06-12T09:30:12.378Z</time>
      </trkpt>
      <trkpt lat="44.26487" lon="2.52576">
        <ele>740</ele>
        <time>2022-06-12T09:30:13.378Z</time>
      </trkpt>
      <trkpt lat="44.26488" lon="2.52576">
        <ele>740</ele>
        <time>2022-06-12T09:30:14.378Z</time>
      </trkpt>
      <trkpt lat="44.2649" lon="2.52575">
        <ele>740</ele>
        <time>2022-06-12T09:30:15.378Z</time>
      </trkpt>
      <trkpt lat="44.26492" lon="2.52575">
        <ele>740</ele>
        <time>2022-06-12T09:30:16.378Z</time>
      </trkpt>
      <trkpt lat="44.26493" lon="2.52575">
        <ele>740</ele>
        <time>2022-06-12T09:30:17.378Z</time>
      </trkpt>
      <trkpt lat="44.26495" lon="2.52574">
        <ele>740</ele>
        <time>2022-06-12T09:30:18.378Z</time>
      </trkpt>
      <trkpt lat="44.26497" lon="2.52574">
        <ele>740</ele>
        <time>2022-06-12T09:30:19.378Z</time>
      </trkpt>
      <trkpt lat="44.26498" lon="2.52574">
        <ele>740</ele>
        <time>2022-06-12T09:30:20.378Z</time>
      </trkpt>
      <trkpt lat="44.265" lon="2.52573">
        <ele>740</ele>
        <time>2022-06-12T09:30:21.378Z</time>
      </trkpt>
      <trkpt lat="44.26502" lon="2.52573">
        <ele>740</ele>
        <time>2022-06-12T09:30:22.378Z</time>
      </trkpt>
      <trkpt lat="44.26503" lon="2.52573">
        <ele>740</ele>
        <time>2022-06-12T09:30:23.378Z</time>
      </trkpt>
      <trkpt lat="44.26504" lon="2.52573">
        <ele>740</ele>
        <time>2022-06-12T09:30:24.378Z</time>
      </trkpt>
      <trkpt lat="44.26505" lon="2.52572">
        <ele>740</ele>
        <time>2022-06-12T09:30:25.378Z</time>
      </trkpt>
      <trkpt lat="44.26506" lon="2.52572">
        <ele>740</ele>
        <time>2022-06-12T09:30:26.378Z</time>
      </trkpt>
      <trkpt lat="44.26507" lon="2.52572">
        <ele>740</ele>
        <time>2022-06-12T09:30:27.378Z</time>
      </trkpt>
      <trkpt lat="44.26508" lon="2.52572">
        <ele>740</ele>
        <time>2022-06-12T09:30:28.378Z</time>
      </trkpt>
      <trkpt lat="44.26508" lon="2.52572">
        <ele>740</ele>
        <time>2022-06-12T09:30:29.378Z</time>
      </trkpt>
      <trkpt lat="44.26508" lon="2.52572">
        <ele>740</ele>
        <time>2022-06-12T09:30:30.378Z</time>
      </trkpt>
      <trkpt lat="44.26508" lon="2.52572">
        <ele>740</ele>
        <time>2022-06-12T09:30:31.378Z</time>
      </trkpt>
      <trkpt lat="44.26511" lon="2.52572">
        <ele>740</ele>
        <time>2022-06-12T09:30:46.384Z</time>
      </trkpt>
      <trkpt lat="44.26512" lon="2.52571">
        <ele>740</ele>
        <time>2022-06-12T09:30:47.384Z</time>
      </trkpt>
      <trkpt lat="44.26513" lon="2.52571">
        <ele>740</ele>
        <time>2022-06-12T09:30:48.384Z</time>
      </trkpt>
      <trkpt lat="44.26513" lon="2.52572">
        <ele>740</ele>
        <time>2022-06-12T09:30:49.384Z</time>
      </trkpt>
      <trkpt lat="44.26513" lon="2.52572">
        <ele>740</ele>
        <time>2022-06-12T09:30:50.384Z</time>
      </trkpt>
      <trkpt lat="44.26513" lon="2.52572">
        <ele>740</ele>
        <time>2022-06-12T09:30:51.384Z</time>
      </trkpt>
      <trkpt lat="44.26514" lon="2.52572">
        <ele>740</ele>
        <time>2022-06-12T09:30:52.384Z</time>
      </trkpt>
      <trkpt lat="44.26516" lon="2.52572">
        <ele>741</ele>
        <time>2022-06-12T09:30:57.390Z</time>
      </trkpt>
      <trkpt lat="44.26516" lon="2.52571">
        <ele>741</ele>
        <time>2022-06-12T09:30:58.390Z</time>
      </trkpt>
      <trkpt lat="44.26518" lon="2.5257">
        <ele>741</ele>
        <time>2022-06-12T09:30:59.390Z</time>
      </trkpt>
      <trkpt lat="44.26519" lon="2.5257">
        <ele>741</ele>
        <time>2022-06-12T09:31:00.390Z</time>
      </trkpt>
      <trkpt lat="44.2652" lon="2.52569">
        <ele>741</ele>
        <time>2022-06-12T09:31:01.390Z</time>
      </trkpt>
      <trkpt lat="44.26522" lon="2.52569">
        <ele>740</ele>
        <time>2022-06-12T09:31:02.390Z</time>
      </trkpt>
      <trkpt lat="44.26523" lon="2.52568">
        <ele>740</ele>
        <time>2022-06-12T09:31:03.390Z</time>
      </trkpt>
      <trkpt lat="44.26524" lon="2.52568">
        <ele>740</ele>
        <time>2022-06-12T09:31:04.390Z</time>
      </trkpt>
      <trkpt lat="44.26525" lon="2.52568">
        <ele>740</ele>
        <time>2022-06-12T09:31:05.390Z</time>
      </trkpt>
      <trkpt lat="44.26526" lon="2.52567">
        <ele>740</ele>
        <time>2022-06-12T09:31:06.390Z</time>
      </trkpt>
      <trkpt lat="44.26528" lon="2.52567">
        <ele>740</ele>
        <time>2022-06-12T09:31:07.390Z</time>
      </trkpt>
      <trkpt lat="44.26528" lon="2.52566">
        <ele>740</ele>
        <time>2022-06-12T09:31:08.390Z</time>
      </trkpt>
      <trkpt lat="44.26528" lon="2.52566">
        <ele>740</ele>
        <time>2022-06-12T09:31:09.390Z</time>
      </trkpt>
      <trkpt lat="44.26529" lon="2.52566">
        <ele>740</ele>
        <time>2022-06-12T09:31:10.390Z</time>
      </trkpt>
      <trkpt lat="44.2653" lon="2.52566">
        <ele>740</ele>
        <time>2022-06-12T09:31:11.390Z</time>
      </trkpt>
      <trkpt lat="44.26532" lon="2.52565">
        <ele>740</ele>
        <time>2022-06-12T09:31:12.390Z</time>
      </trkpt>
      <trkpt lat="44.26533" lon="2.52565">
        <ele>740</ele>
        <time>2022-06-12T09:31:13.390Z</time>
      </trkpt>
      <trkpt lat="44.26535" lon="2.52565">
        <ele>740</ele>
        <time>2022-06-12T09:31:14.390Z</time>
      </trkpt>
      <trkpt lat="44.26536" lon="2.52565">
        <ele>740</ele>
        <time>2022-06-12T09:31:15.390Z</time>
      </trkpt>
      <trkpt lat="44.26538" lon="2.52565">
        <ele>739</ele>
        <time>2022-06-12T09:31:16.390Z</time>
      </trkpt>
      <trkpt lat="44.26539" lon="2.52564">
        <ele>739</ele>
        <time>2022-06-12T09:31:17.390Z</time>
      </trkpt>
      <trkpt lat="44.2654" lon="2.52564">
        <ele>739</ele>
        <time>2022-06-12T09:31:18.390Z</time>
      </trkpt>
      <trkpt lat="44.26542" lon="2.52563">
        <ele>739</ele>
        <time>2022-06-12T09:31:19.390Z</time>
      </trkpt>
      <trkpt lat="44.26542" lon="2.52563">
        <ele>739</ele>
        <time>2022-06-12T09:31:20.390Z</time>
      </trkpt>
      <trkpt lat="44.26543" lon="2.52563">
        <ele>739</ele>
        <time>2022-06-12T09:31:21.390Z</time>
      </trkpt>
      <trkpt lat="44.26544" lon="2.52562">
        <ele>739</ele>
        <time>2022-06-12T09:31:22.390Z</time>
      </trkpt>
      <trkpt lat="44.26545" lon="2.52562">
        <ele>739</ele>
        <time>2022-06-12T09:31:23.390Z</time>
      </trkpt>
      <trkpt lat="44.26546" lon="2.52562">
        <ele>739</ele>
        <time>2022-06-12T09:31:24.390Z</time>
      </trkpt>
      <trkpt lat="44.26547" lon="2.52561">
        <ele>738</ele>
        <time>2022-06-12T09:31:25.390Z</time>
      </trkpt>
      <trkpt lat="44.26548" lon="2.52561">
        <ele>738</ele>
        <time>2022-06-12T09:31:26.390Z</time>
      </trkpt>
      <trkpt lat="44.26549" lon="2.52561">
        <ele>738</ele>
        <time>2022-06-12T09:31:27.390Z</time>
      </trkpt>
      <trkpt lat="44.2655" lon="2.52561">
        <ele>738</ele>
        <time>2022-06-12T09:31:28.390Z</time>
      </trkpt>
      <trkpt lat="44.26551" lon="2.5256">
        <ele>738</ele>
        <time>2022-06-12T09:31:29.390Z</time>
      </trkpt>
      <trkpt lat="44.26552" lon="2.5256">
        <ele>738</ele>
        <time>2022-06-12T09:31:30.390Z</time>
      </trkpt>
      <trkpt lat="44.26553" lon="2.52559">
        <ele>738</ele>
        <time>2022-06-12T09:31:31.390Z</time>
      </trkpt>
      <trkpt lat="44.26554" lon="2.52559">
        <ele>737</ele>
        <time>2022-06-12T09:31:32.390Z</time>
      </trkpt>
      <trkpt lat="44.26555" lon="2.52558">
        <ele>737</ele>
        <time>2022-06-12T09:31:33.390Z</time>
      </trkpt>
      <trkpt lat="44.26556" lon="2.52558">
        <ele>737</ele>
        <time>2022-06-12T09:31:34.390Z</time>
      </trkpt>
      <trkpt lat="44.26556" lon="2.52558">
        <ele>737</ele>
        <time>2022-06-12T09:31:35.390Z</time>
      </trkpt>
      <trkpt lat="44.26557" lon="2.52558">
        <ele>737</ele>
        <time>2022-06-12T09:31:36.390Z</time>
      </trkpt>
      <trkpt lat="44.26558" lon="2.52558">
        <ele>737</ele>
        <time>2022-06-12T09:31:37.390Z</time>
      </trkpt>
      <trkpt lat="44.26558" lon="2.52557">
        <ele>737</ele>
        <time>2022-06-12T09:31:38.390Z</time>
      </trkpt>
      <trkpt lat="44.26559" lon="2.52557">
        <ele>737</ele>
        <time>2022-06-12T09:31:39.390Z</time>
      </trkpt>
      <trkpt lat="44.2656" lon="2.52557">
        <ele>737</ele>
        <time>2022-06-12T09:31:40.390Z</time>
      </trkpt>
      <trkpt lat="44.26561" lon="2.52556">
        <ele>737</ele>
        <time>2022-06-12T09:31:41.390Z</time>
      </trkpt>
      <trkpt lat="44.26562" lon="2.52556">
        <ele>737</ele>
        <time>2022-06-12T09:31:42.390Z</time>
      </trkpt>
      <trkpt lat="44.26562" lon="2.52555">
        <ele>737</ele>
        <time>2022-06-12T09:31:43.390Z</time>
      </trkpt>
      <trkpt lat="44.26563" lon="2.52555">
        <ele>737</ele>
        <time>2022-06-12T09:31:44.390Z</time>
      </trkpt>
      <trkpt lat="44.26564" lon="2.52555">
        <ele>737</ele>
        <time>2022-06-12T09:31:45.390Z</time>
      </trkpt>
      <trkpt lat="44.26565" lon="2.52555">
        <ele>737</ele>
        <time>2022-06-12T09:31:46.390Z</time>
      </trkpt>
      <trkpt lat="44.26566" lon="2.52555">
        <ele>737</ele>
        <time>2022-06-12T09:31:47.390Z</time>
      </trkpt>
      <trkpt lat="44.26567" lon="2.52555">
        <ele>737</ele>
        <time>2022-06-12T09:31:48.390Z</time>
      </trkpt>
      <trkpt lat="44.26568" lon="2.52555">
        <ele>737</ele>
        <time>2022-06-12T09:31:49.390Z</time>
      </trkpt>
      <trkpt lat="44.26569" lon="2.52556">
        <ele>737</ele>
        <time>2022-06-12T09:31:50.390Z</time>
      </trkpt>
      <trkpt lat="44.2657" lon="2.52556">
        <ele>736</ele>
        <time>2022-06-12T09:31:51.390Z</time>
      </trkpt>
      <trkpt lat="44.26571" lon="2.52556">
        <ele>736</ele>
        <time>2022-06-12T09:31:52.390Z</time>
      </trkpt>
      <trkpt lat="44.26572" lon="2.52556">
        <ele>736</ele>
        <time>2022-06-12T09:31:53.390Z</time>
      </trkpt>
      <trkpt lat="44.26573" lon="2.52556">
        <ele>736</ele>
        <time>2022-06-12T09:31:54.390Z</time>
      </trkpt>
      <trkpt lat="44.26574" lon="2.52557">
        <ele>736</ele>
        <time>2022-06-12T09:31:55.390Z</time>
      </trkpt>
      <trkpt lat="44.26575" lon="2.52557">
        <ele>736</ele>
        <time>2022-06-12T09:31:56.390Z</time>
      </trkpt>
      <trkpt lat="44.26576" lon="2.52557">
        <ele>736</ele>
        <time>2022-06-12T09:31:57.390Z</time>
      </trkpt>
      <trkpt lat="44.26576" lon="2.52557">
        <ele>736</ele>
        <time>2022-06-12T09:31:58.390Z</time>
      </trkpt>
      <trkpt lat="44.26577" lon="2.52557">
        <ele>736</ele>
        <time>2022-06-12T09:31:59.390Z</time>
      </trkpt>
      <trkpt lat="44.26578" lon="2.52557">
        <ele>736</ele>
        <time>2022-06-12T09:32:00.390Z</time>
      </trkpt>
      <trkpt lat="44.26578" lon="2.52557">
        <ele>736</ele>
        <time>2022-06-12T09:32:01.390Z</time>
      </trkpt>
      <trkpt lat="44.26579" lon="2.52557">
        <ele>736</ele>
        <time>2022-06-12T09:32:02.390Z</time>
      </trkpt>
      <trkpt lat="44.2658" lon="2.52557">
        <ele>736</ele>
        <time>2022-06-12T09:32:03.390Z</time>
      </trkpt>
      <trkpt lat="44.26581" lon="2.52557">
        <ele>736</ele>
        <time>2022-06-12T09:32:04.390Z</time>
      </trkpt>
      <trkpt lat="44.26583" lon="2.52557">
        <ele>736</ele>
        <time>2022-06-12T09:32:05.390Z</time>
      </trkpt>
      <trkpt lat="44.26584" lon="2.52557">
        <ele>735</ele>
        <time>2022-06-12T09:32:06.390Z</time>
      </trkpt>
      <trkpt lat="44.26585" lon="2.52557">
        <ele>735</ele>
        <time>2022-06-12T09:32:07.390Z</time>
      </trkpt>
      <trkpt lat="44.26586" lon="2.52557">
        <ele>735</ele>
        <time>2022-06-12T09:32:08.390Z</time>
      </trkpt>
      <trkpt lat="44.26587" lon="2.52558">
        <ele>735</ele>
        <time>2022-06-12T09:32:09.390Z</time>
      </trkpt>
      <trkpt lat="44.26589" lon="2.52558">
        <ele>735</ele>
        <time>2022-06-12T09:32:10.390Z</time>
      </trkpt>
      <trkpt lat="44.2659" lon="2.52558">
        <ele>735</ele>
        <time>2022-06-12T09:32:11.390Z</time>
      </trkpt>
      <trkpt lat="44.26591" lon="2.52558">
        <ele>735</ele>
        <time>2022-06-12T09:32:12.390Z</time>
      </trkpt>
      <trkpt lat="44.26592" lon="2.52558">
        <ele>734</ele>
        <time>2022-06-12T09:32:13.390Z</time>
      </trkpt>
      <trkpt lat="44.26593" lon="2.52558">
        <ele>734</ele>
        <time>2022-06-12T09:32:14.390Z</time>
      </trkpt>
      <trkpt lat="44.26595" lon="2.52558">
        <ele>734</ele>
        <time>2022-06-12T09:32:15.390Z</time>
      </trkpt>
      <trkpt lat="44.26596" lon="2.52559">
        <ele>734</ele>
        <time>2022-06-12T09:32:16.390Z</time>
      </trkpt>
      <trkpt lat="44.26598" lon="2.52559">
        <ele>734</ele>
        <time>2022-06-12T09:32:17.390Z</time>
      </trkpt>
      <trkpt lat="44.26599" lon="2.5256">
        <ele>734</ele>
        <time>2022-06-12T09:32:18.390Z</time>
      </trkpt>
      <trkpt lat="44.26601" lon="2.5256">
        <ele>734</ele>
        <time>2022-06-12T09:32:19.390Z</time>
      </trkpt>
      <trkpt lat="44.26602" lon="2.52561">
        <ele>733</ele>
        <time>2022-06-12T09:32:20.390Z</time>
      </trkpt>
      <trkpt lat="44.26603" lon="2.52561">
        <ele>733</ele>
        <time>2022-06-12T09:32:21.390Z</time>
      </trkpt>
      <trkpt lat="44.26605" lon="2.52561">
        <ele>733</ele>
        <time>2022-06-12T09:32:22.390Z</time>
      </trkpt>
      <trkpt lat="44.26606" lon="2.52562">
        <ele>733</ele>
        <time>2022-06-12T09:32:23.390Z</time>
      </trkpt>
      <trkpt lat="44.26608" lon="2.52562">
        <ele>733</ele>
        <time>2022-06-12T09:32:24.390Z</time>
      </trkpt>
      <trkpt lat="44.26609" lon="2.52562">
        <ele>733</ele>
        <time>2022-06-12T09:32:25.390Z</time>
      </trkpt>
      <trkpt lat="44.2661" lon="2.52563">
        <ele>733</ele>
        <time>2022-06-12T09:32:26.390Z</time>
      </trkpt>
      <trkpt lat="44.26611" lon="2.52563">
        <ele>733</ele>
        <time>2022-06-12T09:32:27.390Z</time>
      </trkpt>
      <trkpt lat="44.26612" lon="2.52563">
        <ele>732</ele>
        <time>2022-06-12T09:32:28.390Z</time>
      </trkpt>
      <trkpt lat="44.26614" lon="2.52564">
        <ele>732</ele>
        <time>2022-06-12T09:32:29.390Z</time>
      </trkpt>
      <trkpt lat="44.26615" lon="2.52564">
        <ele>732</ele>
        <time>2022-06-12T09:32:30.390Z</time>
      </trkpt>
      <trkpt lat="44.26616" lon="2.52565">
        <ele>732</ele>
        <time>2022-06-12T09:32:31.390Z</time>
      </trkpt>
      <trkpt lat="44.26618" lon="2.52565">
        <ele>732</ele>
        <time>2022-06-12T09:32:32.390Z</time>
      </trkpt>
      <trkpt lat="44.26619" lon="2.52565">
        <ele>732</ele>
        <time>2022-06-12T09:32:33.390Z</time>
      </trkpt>
      <trkpt lat="44.2662" lon="2.52566">
        <ele>732</ele>
        <time>2022-06-12T09:32:34.390Z</time>
      </trkpt>
      <trkpt lat="44.26622" lon="2.52566">
        <ele>732</ele>
        <time>2022-06-12T09:32:35.390Z</time>
      </trkpt>
      <trkpt lat="44.26623" lon="2.52567">
        <ele>732</ele>
        <time>2022-06-12T09:32:36.390Z</time>
      </trkpt>
      <trkpt lat="44.26624" lon="2.52567">
        <ele>732</ele>
        <time>2022-06-12T09:32:37.390Z</time>
      </trkpt>
      <trkpt lat="44.26625" lon="2.52567">
        <ele>732</ele>
        <time>2022-06-12T09:32:38.390Z</time>
      </trkpt>
      <trkpt lat="44.26627" lon="2.52568">
        <ele>732</ele>
        <time>2022-06-12T09:32:39.390Z</time>
      </trkpt>
      <trkpt lat="44.26628" lon="2.52568">
        <ele>732</ele>
        <time>2022-06-12T09:32:40.390Z</time>
      </trkpt>
      <trkpt lat="44.26629" lon="2.52568">
        <ele>732</ele>
        <time>2022-06-12T09:32:41.390Z</time>
      </trkpt>
      <trkpt lat="44.2663" lon="2.52568">
        <ele>732</ele>
        <time>2022-06-12T09:32:42.390Z</time>
      </trkpt>
      <trkpt lat="44.26631" lon="2.52569">
        <ele>732</ele>
        <time>2022-06-12T09:32:43.390Z</time>
      </trkpt>
      <trkpt lat="44.26632" lon="2.52569">
        <ele>731</ele>
        <time>2022-06-12T09:32:44.390Z</time>
      </trkpt>
      <trkpt lat="44.26633" lon="2.52569">
        <ele>731</ele>
        <time>2022-06-12T09:32:45.390Z</time>
      </trkpt>
      <trkpt lat="44.26634" lon="2.5257">
        <ele>731</ele>
        <time>2022-06-12T09:32:46.390Z</time>
      </trkpt>
      <trkpt lat="44.26635" lon="2.5257">
        <ele>731</ele>
        <time>2022-06-12T09:32:47.390Z</time>
      </trkpt>
      <trkpt lat="44.26636" lon="2.5257">
        <ele>731</ele>
        <time>2022-06-12T09:32:48.390Z</time>
      </trkpt>
      <trkpt lat="44.26637" lon="2.52571">
        <ele>731</ele>
        <time>2022-06-12T09:32:49.390Z</time>
      </trkpt>
      <trkpt lat="44.26638" lon="2.52571">
        <ele>731</ele>
        <time>2022-06-12T09:32:50.390Z</time>
      </trkpt>
      <trkpt lat="44.26639" lon="2.52572">
        <ele>731</ele>
        <time>2022-06-12T09:32:51.390Z</time>
      </trkpt>
      <trkpt lat="44.2664" lon="2.52572">
        <ele>731</ele>
        <time>2022-06-12T09:32:52.390Z</time>
      </trkpt>
      <trkpt lat="44.26641" lon="2.52573">
        <ele>731</ele>
        <time>2022-06-12T09:32:53.390Z</time>
      </trkpt>
      <trkpt lat="44.26641" lon="2.52573">
        <ele>730</ele>
        <time>2022-06-12T09:32:54.390Z</time>
      </trkpt>
      <trkpt lat="44.26642" lon="2.52573">
        <ele>730</ele>
        <time>2022-06-12T09:32:55.390Z</time>
      </trkpt>
      <trkpt lat="44.26643" lon="2.52574">
        <ele>730</ele>
        <time>2022-06-12T09:32:56.390Z</time>
      </trkpt>
      <trkpt lat="44.26645" lon="2.52574">
        <ele>730</ele>
        <time>2022-06-12T09:32:57.390Z</time>
      </trkpt>
      <trkpt lat="44.26646" lon="2.52575">
        <ele>730</ele>
        <time>2022-06-12T09:32:58.390Z</time>
      </trkpt>
      <trkpt lat="44.26647" lon="2.52575">
        <ele>730</ele>
        <time>2022-06-12T09:32:59.390Z</time>
      </trkpt>
      <trkpt lat="44.26649" lon="2.52575">
        <ele>729</ele>
        <time>2022-06-12T09:33:00.390Z</time>
      </trkpt>
      <trkpt lat="44.2665" lon="2.52575">
        <ele>729</ele>
        <time>2022-06-12T09:33:01.390Z</time>
      </trkpt>
      <trkpt lat="44.26651" lon="2.52575">
        <ele>729</ele>
        <time>2022-06-12T09:33:02.390Z</time>
      </trkpt>
      <trkpt lat="44.26652" lon="2.52576">
        <ele>729</ele>
        <time>2022-06-12T09:33:03.390Z</time>
      </trkpt>
      <trkpt lat="44.26653" lon="2.52576">
        <ele>729</ele>
        <time>2022-06-12T09:33:04.390Z</time>
      </trkpt>
      <trkpt lat="44.26654" lon="2.52576">
        <ele>729</ele>
        <time>2022-06-12T09:33:05.390Z</time>
      </trkpt>
      <trkpt lat="44.26655" lon="2.52576">
        <ele>729</ele>
        <time>2022-06-12T09:33:06.390Z</time>
      </trkpt>
      <trkpt lat="44.26656" lon="2.52577">
        <ele>729</ele>
        <time>2022-06-12T09:33:07.390Z</time>
      </trkpt>
      <trkpt lat="44.26657" lon="2.52577">
        <ele>729</ele>
        <time>2022-06-12T09:33:08.390Z</time>
      </trkpt>
      <trkpt lat="44.26658" lon="2.52577">
        <ele>728</ele>
        <time>2022-06-12T09:33:09.390Z</time>
      </trkpt>
      <trkpt lat="44.26659" lon="2.52577">
        <ele>728</ele>
        <time>2022-06-12T09:33:10.390Z</time>
      </trkpt>
      <trkpt lat="44.2666" lon="2.52577">
        <ele>728</ele>
        <time>2022-06-12T09:33:11.390Z</time>
      </trkpt>
      <trkpt lat="44.26661" lon="2.52577">
        <ele>728</ele>
        <time>2022-06-12T09:33:12.390Z</time>
      </trkpt>
      <trkpt lat="44.26662" lon="2.52577">
        <ele>728</ele>
        <time>2022-06-12T09:33:13.390Z</time>
      </trkpt>
      <trkpt lat="44.26663" lon="2.52577">
        <ele>728</ele>
        <time>2022-06-12T09:33:14.390Z</time>
      </trkpt>
      <trkpt lat="44.26664" lon="2.52576">
        <ele>728</ele>
        <time>2022-06-12T09:33:15.390Z</time>
      </trkpt>
      <trkpt lat="44.26666" lon="2.52576">
        <ele>727</ele>
        <time>2022-06-12T09:33:16.390Z</time>
      </trkpt>
      <trkpt lat="44.26667" lon="2.52576">
        <ele>727</ele>
        <time>2022-06-12T09:33:17.390Z</time>
      </trkpt>
      <trkpt lat="44.26668" lon="2.52576">
        <ele>727</ele>
        <time>2022-06-12T09:33:18.390Z</time>
      </trkpt>
      <trkpt lat="44.26669" lon="2.52576">
        <ele>727</ele>
        <time>2022-06-12T09:33:19.390Z</time>
      </trkpt>
      <trkpt lat="44.2667" lon="2.52575">
        <ele>727</ele>
        <time>2022-06-12T09:33:20.390Z</time>
      </trkpt>
      <trkpt lat="44.26671" lon="2.52575">
        <ele>727</ele>
        <time>2022-06-12T09:33:21.390Z</time>
      </trkpt>
      <trkpt lat="44.26673" lon="2.52575">
        <ele>727</ele>
        <time>2022-06-12T09:33:22.390Z</time>
      </trkpt>
      <trkpt lat="44.26674" lon="2.52575">
        <ele>727</ele>
        <time>2022-06-12T09:33:23.390Z</time>
      </trkpt>
      <trkpt lat="44.26675" lon="2.52575">
        <ele>726</ele>
        <time>2022-06-12T09:33:24.390Z</time>
      </trkpt>
      <trkpt lat="44.26677" lon="2.52575">
        <ele>726</ele>
        <time>2022-06-12T09:33:25.390Z</time>
      </trkpt>
      <trkpt lat="44.26678" lon="2.52574">
        <ele>726</ele>
        <time>2022-06-12T09:33:26.390Z</time>
      </trkpt>
      <trkpt lat="44.2668" lon="2.52574">
        <ele>726</ele>
        <time>2022-06-12T09:33:27.390Z</time>
      </trkpt>
      <trkpt lat="44.26681" lon="2.52574">
        <ele>726</ele>
        <time>2022-06-12T09:33:28.390Z</time>
      </trkpt>
      <trkpt lat="44.26683" lon="2.52574">
        <ele>725</ele>
        <time>2022-06-12T09:33:29.390Z</time>
      </trkpt>
      <trkpt lat="44.26684" lon="2.52574">
        <ele>725</ele>
        <time>2022-06-12T09:33:30.390Z</time>
      </trkpt>
      <trkpt lat="44.26685" lon="2.52574">
        <ele>725</ele>
        <time>2022-06-12T09:33:31.390Z</time>
      </trkpt>
      <trkpt lat="44.26687" lon="2.52574">
        <ele>725</ele>
        <time>2022-06-12T09:33:32.390Z</time>
      </trkpt>
      <trkpt lat="44.26688" lon="2.52573">
        <ele>725</ele>
        <time>2022-06-12T09:33:33.390Z</time>
      </trkpt>
      <trkpt lat="44.2669" lon="2.52573">
        <ele>724</ele>
        <time>2022-06-12T09:33:34.390Z</time>
      </trkpt>
      <trkpt lat="44.26691" lon="2.52573">
        <ele>724</ele>
        <time>2022-06-12T09:33:35.390Z</time>
      </trkpt>
      <trkpt lat="44.26693" lon="2.52573">
        <ele>724</ele>
        <time>2022-06-12T09:33:36.390Z</time>
      </trkpt>
      <trkpt lat="44.26694" lon="2.52573">
        <ele>724</ele>
        <time>2022-06-12T09:33:37.390Z</time>
      </trkpt>
      <trkpt lat="44.26696" lon="2.52573">
        <ele>724</ele>
        <time>2022-06-12T09:33:38.390Z</time>
      </trkpt>
      <trkpt lat="44.26698" lon="2.52573">
        <ele>724</ele>
        <time>2022-06-12T09:33:39.390Z</time>
      </trkpt>
      <trkpt lat="44.26699" lon="2.52573">
        <ele>724</ele>
        <time>2022-06-12T09:33:40.390Z</time>
      </trkpt>
      <trkpt lat="44.26701" lon="2.52573">
        <ele>724</ele>
        <time>2022-06-12T09:33:41.390Z</time>
      </trkpt>
      <trkpt lat="44.26702" lon="2.52573">
        <ele>724</ele>
        <time>2022-06-12T09:33:42.390Z</time>
      </trkpt>
      <trkpt lat="44.26704" lon="2.52573">
        <ele>724</ele>
        <time>2022-06-12T09:33:43.390Z</time>
      </trkpt>
      <trkpt lat="44.26705" lon="2.52573">
        <ele>723</ele>
        <time>2022-06-12T09:33:44.390Z</time>
      </trkpt>
      <trkpt lat="44.26707" lon="2.52573">
        <ele>723</ele>
        <time>2022-06-12T09:33:45.390Z</time>
      </trkpt>
      <trkpt lat="44.26708" lon="2.52574">
        <ele>723</ele>
        <time>2022-06-12T09:33:46.390Z</time>
      </trkpt>
      <trkpt lat="44.2671" lon="2.52574">
        <ele>723</ele>
        <time>2022-06-12T09:33:47.390Z</time>
      </trkpt>
      <trkpt lat="44.26711" lon="2.52574">
        <ele>723</ele>
        <time>2022-06-12T09:33:48.390Z</time>
      </trkpt>
      <trkpt lat="44.26712" lon="2.52574">
        <ele>723</ele>
        <time>2022-06-12T09:33:49.390Z</time>
      </trkpt>
      <trkpt lat="44.26714" lon="2.52574">
        <ele>723</ele>
        <time>2022-06-12T09:33:50.390Z</time>
      </trkpt>
      <trkpt lat="44.26715" lon="2.52575">
        <ele>723</ele>
        <time>2022-06-12T09:33:51.390Z</time>
      </trkpt>
      <trkpt lat="44.26716" lon="2.52575">
        <ele>723</ele>
        <time>2022-06-12T09:33:52.390Z</time>
      </trkpt>
      <trkpt lat="44.26717" lon="2.52575">
        <ele>723</ele>
        <time>2022-06-12T09:33:53.390Z</time>
      </trkpt>
      <trkpt lat="44.26718" lon="2.52575">
        <ele>723</ele>
        <time>2022-06-12T09:33:54.390Z</time>
      </trkpt>
      <trkpt lat="44.26719" lon="2.52575">
        <ele>723</ele>
        <time>2022-06-12T09:33:55.390Z</time>
      </trkpt>
      <trkpt lat="44.2672" lon="2.52575">
        <ele>723</ele>
        <time>2022-06-12T09:33:56.390Z</time>
      </trkpt>
      <trkpt lat="44.26721" lon="2.52576">
        <ele>723</ele>
        <time>2022-06-12T09:33:57.390Z</time>
      </trkpt>
      <trkpt lat="44.26722" lon="2.52576">
        <ele>723</ele>
        <time>2022-06-12T09:33:58.390Z</time>
      </trkpt>
      <trkpt lat="44.26722" lon="2.52576">
        <ele>723</ele>
        <time>2022-06-12T09:33:59.390Z</time>
      </trkpt>
      <trkpt lat="44.26723" lon="2.52576">
        <ele>723</ele>
        <time>2022-06-12T09:34:00.390Z</time>
      </trkpt>
      <trkpt lat="44.26724" lon="2.52577">
        <ele>723</ele>
        <time>2022-06-12T09:34:01.390Z</time>
      </trkpt>
      <trkpt lat="44.26725" lon="2.52577">
        <ele>723</ele>
        <time>2022-06-12T09:34:02.390Z</time>
      </trkpt>
      <trkpt lat="44.26725" lon="2.52577">
        <ele>723</ele>
        <time>2022-06-12T09:34:03.390Z</time>
      </trkpt>
      <trkpt lat="44.26726" lon="2.52578">
        <ele>723</ele>
        <time>2022-06-12T09:34:04.390Z</time>
      </trkpt>
      <trkpt lat="44.26727" lon="2.52578">
        <ele>723</ele>
        <time>2022-06-12T09:34:05.390Z</time>
      </trkpt>
      <trkpt lat="44.26728" lon="2.52579">
        <ele>723</ele>
        <time>2022-06-12T09:34:06.390Z</time>
      </trkpt>
      <trkpt lat="44.26729" lon="2.52579">
        <ele>723</ele>
        <time>2022-06-12T09:34:07.390Z</time>
      </trkpt>
      <trkpt lat="44.2673" lon="2.5258">
        <ele>723</ele>
        <time>2022-06-12T09:34:08.390Z</time>
      </trkpt>
      <trkpt lat="44.26731" lon="2.5258">
        <ele>724</ele>
        <time>2022-06-12T09:34:09.390Z</time>
      </trkpt>
      <trkpt lat="44.26732" lon="2.52581">
        <ele>724</ele>
        <time>2022-06-12T09:34:10.390Z</time>
      </trkpt>
      <trkpt lat="44.26732" lon="2.52581">
        <ele>724</ele>
        <time>2022-06-12T09:34:11.390Z</time>
      </trkpt>
      <trkpt lat="44.26733" lon="2.52581">
        <ele>724</ele>
        <time>2022-06-12T09:34:12.390Z</time>
      </trkpt>
      <trkpt lat="44.26734" lon="2.52582">
        <ele>724</ele>
        <time>2022-06-12T09:34:13.390Z</time>
      </trkpt>
      <trkpt lat="44.26735" lon="2.52582">
        <ele>724</ele>
        <time>2022-06-12T09:34:14.390Z</time>
      </trkpt>
      <trkpt lat="44.26736" lon="2.52583">
        <ele>724</ele>
        <time>2022-06-12T09:34:15.390Z</time>
      </trkpt>
      <trkpt lat="44.26737" lon="2.52583">
        <ele>724</ele>
        <time>2022-06-12T09:34:16.390Z</time>
      </trkpt>
      <trkpt lat="44.26737" lon="2.52584">
        <ele>724</ele>
        <time>2022-06-12T09:34:17.390Z</time>
      </trkpt>
      <trkpt lat="44.26738" lon="2.52584">
        <ele>724</ele>
        <time>2022-06-12T09:34:18.390Z</time>
      </trkpt>
      <trkpt lat="44.26739" lon="2.52585">
        <ele>724</ele>
        <time>2022-06-12T09:34:19.390Z</time>
      </trkpt>
      <trkpt lat="44.2674" lon="2.52585">
        <ele>724</ele>
        <time>2022-06-12T09:34:20.390Z</time>
      </trkpt>
      <trkpt lat="44.26741" lon="2.52586">
        <ele>724</ele>
        <time>2022-06-12T09:34:21.390Z</time>
      </trkpt>
      <trkpt lat="44.26742" lon="2.52586">
        <ele>724</ele>
        <time>2022-06-12T09:34:22.390Z</time>
      </trkpt>
      <trkpt lat="44.26743" lon="2.52586">
        <ele>724</ele>
        <time>2022-06-12T09:34:23.390Z</time>
      </trkpt>
      <trkpt lat="44.26744" lon="2.52587">
        <ele>724</ele>
        <time>2022-06-12T09:34:24.390Z</time>
      </trkpt>
      <trkpt lat="44.26745" lon="2.52588">
        <ele>724</ele>
        <time>2022-06-12T09:34:25.390Z</time>
      </trkpt>
      <trkpt lat="44.26745" lon="2.52588">
        <ele>724</ele>
        <time>2022-06-12T09:34:26.390Z</time>
      </trkpt>
      <trkpt lat="44.26746" lon="2.52589">
        <ele>724</ele>
        <time>2022-06-12T09:34:27.390Z</time>
      </trkpt>
      <trkpt lat="44.26748" lon="2.5259">
        <ele>724</ele>
        <time>2022-06-12T09:34:28.390Z</time>
      </trkpt>
      <trkpt lat="44.26748" lon="2.5259">
        <ele>724</ele>
        <time>2022-06-12T09:34:29.390Z</time>
      </trkpt>
      <trkpt lat="44.26749" lon="2.52591">
        <ele>724</ele>
        <time>2022-06-12T09:34:30.390Z</time>
      </trkpt>
      <trkpt lat="44.2675" lon="2.52591">
        <ele>724</ele>
        <time>2022-06-12T09:34:31.390Z</time>
      </trkpt>
      <trkpt lat="44.26751" lon="2.52592">
        <ele>724</ele>
        <time>2022-06-12T09:34:32.390Z</time>
      </trkpt>
      <trkpt lat="44.26751" lon="2.52593">
        <ele>724</ele>
        <time>2022-06-12T09:34:33.390Z</time>
      </trkpt>
      <trkpt lat="44.26752" lon="2.52594">
        <ele>724</ele>
        <time>2022-06-12T09:34:34.390Z</time>
      </trkpt>
      <trkpt lat="44.26753" lon="2.52595">
        <ele>724</ele>
        <time>2022-06-12T09:34:35.390Z</time>
      </trkpt>
      <trkpt lat="44.26754" lon="2.52595">
        <ele>724</ele>
        <time>2022-06-12T09:34:36.390Z</time>
      </trkpt>
      <trkpt lat="44.26755" lon="2.52596">
        <ele>724</ele>
        <time>2022-06-12T09:34:37.390Z</time>
      </trkpt>
      <trkpt lat="44.26756" lon="2.52597">
        <ele>724</ele>
        <time>2022-06-12T09:34:38.390Z</time>
      </trkpt>
      <trkpt lat="44.26756" lon="2.52597">
        <ele>724</ele>
        <time>2022-06-12T09:34:39.390Z</time>
      </trkpt>
      <trkpt lat="44.26757" lon="2.52598">
        <ele>724</ele>
        <time>2022-06-12T09:34:40.390Z</time>
      </trkpt>
      <trkpt lat="44.26758" lon="2.52598">
        <ele>724</ele>
        <time>2022-06-12T09:34:41.390Z</time>
      </trkpt>
      <trkpt lat="44.26759" lon="2.52599">
        <ele>724</ele>
        <time>2022-06-12T09:34:42.390Z</time>
      </trkpt>
      <trkpt lat="44.26759" lon="2.526">
        <ele>724</ele>
        <time>2022-06-12T09:34:43.390Z</time>
      </trkpt>
      <trkpt lat="44.2676" lon="2.52601">
        <ele>724</ele>
        <time>2022-06-12T09:34:44.390Z</time>
      </trkpt>
      <trkpt lat="44.26761" lon="2.52601">
        <ele>724</ele>
        <time>2022-06-12T09:34:45.390Z</time>
      </trkpt>
      <trkpt lat="44.26761" lon="2.52602">
        <ele>724</ele>
        <time>2022-06-12T09:34:46.390Z</time>
      </trkpt>
      <trkpt lat="44.26762" lon="2.52603">
        <ele>724</ele>
        <time>2022-06-12T09:34:47.390Z</time>
      </trkpt>
      <trkpt lat="44.26762" lon="2.52604">
        <ele>724</ele>
        <time>2022-06-12T09:34:48.390Z</time>
      </trkpt>
      <trkpt lat="44.26763" lon="2.52606">
        <ele>724</ele>
        <time>2022-06-12T09:34:49.390Z</time>
      </trkpt>
      <trkpt lat="44.26764" lon="2.52607">
        <ele>724</ele>
        <time>2022-06-12T09:34:50.390Z</time>
      </trkpt>
      <trkpt lat="44.26765" lon="2.52609">
        <ele>724</ele>
        <time>2022-06-12T09:34:51.390Z</time>
      </trkpt>
      <trkpt lat="44.26766" lon="2.5261">
        <ele>724</ele>
        <time>2022-06-12T09:34:52.390Z</time>
      </trkpt>
      <trkpt lat="44.26767" lon="2.52612">
        <ele>724</ele>
        <time>2022-06-12T09:34:53.390Z</time>
      </trkpt>
      <trkpt lat="44.26767" lon="2.52613">
        <ele>724</ele>
        <time>2022-06-12T09:34:54.390Z</time>
      </trkpt>
      <trkpt lat="44.26768" lon="2.52615">
        <ele>724</ele>
        <time>2022-06-12T09:34:55.390Z</time>
      </trkpt>
      <trkpt lat="44.26769" lon="2.52616">
        <ele>724</ele>
        <time>2022-06-12T09:34:56.390Z</time>
      </trkpt>
      <trkpt lat="44.2677" lon="2.52617">
        <ele>724</ele>
        <time>2022-06-12T09:34:57.390Z</time>
      </trkpt>
      <trkpt lat="44.2677" lon="2.52618">
        <ele>724</ele>
        <time>2022-06-12T09:34:58.390Z</time>
      </trkpt>
      <trkpt lat="44.26771" lon="2.52619">
        <ele>724</ele>
        <time>2022-06-12T09:34:59.390Z</time>
      </trkpt>
      <trkpt lat="44.26772" lon="2.5262">
        <ele>724</ele>
        <time>2022-06-12T09:35:00.390Z</time>
      </trkpt>
      <trkpt lat="44.26773" lon="2.5262">
        <ele>724</ele>
        <time>2022-06-12T09:35:01.390Z</time>
      </trkpt>
      <trkpt lat="44.26774" lon="2.52621">
        <ele>724</ele>
        <time>2022-06-12T09:35:02.390Z</time>
      </trkpt>
      <trkpt lat="44.26774" lon="2.52622">
        <ele>724</ele>
        <time>2022-06-12T09:35:03.390Z</time>
      </trkpt>
      <trkpt lat="44.26775" lon="2.52623">
        <ele>724</ele>
        <time>2022-06-12T09:35:04.390Z</time>
      </trkpt>
      <trkpt lat="44.26775" lon="2.52623">
        <ele>724</ele>
        <time>2022-06-12T09:35:05.390Z</time>
      </trkpt>
      <trkpt lat="44.26776" lon="2.52624">
        <ele>724</ele>
        <time>2022-06-12T09:35:06.390Z</time>
      </trkpt>
      <trkpt lat="44.26776" lon="2.52625">
        <ele>724</ele>
        <time>2022-06-12T09:35:07.390Z</time>
      </trkpt>
      <trkpt lat="44.26777" lon="2.52625">
        <ele>723</ele>
        <time>2022-06-12T09:35:08.390Z</time>
      </trkpt>
      <trkpt lat="44.26777" lon="2.52626">
        <ele>723</ele>
        <time>2022-06-12T09:35:09.390Z</time>
      </trkpt>
      <trkpt lat="44.26778" lon="2.52626">
        <ele>723</ele>
        <time>2022-06-12T09:35:10.390Z</time>
      </trkpt>
      <trkpt lat="44.26779" lon="2.52627">
        <ele>723</ele>
        <time>2022-06-12T09:35:11.390Z</time>
      </trkpt>
      <trkpt lat="44.26779" lon="2.52627">
        <ele>723</ele>
        <time>2022-06-12T09:35:12.390Z</time>
      </trkpt>
      <trkpt lat="44.2678" lon="2.52628">
        <ele>723</ele>
        <time>2022-06-12T09:35:13.390Z</time>
      </trkpt>
      <trkpt lat="44.26781" lon="2.52628">
        <ele>723</ele>
        <time>2022-06-12T09:35:14.390Z</time>
      </trkpt>
      <trkpt lat="44.26782" lon="2.52629">
        <ele>722</ele>
        <time>2022-06-12T09:35:15.390Z</time>
      </trkpt>
      <trkpt lat="44.26784" lon="2.5263">
        <ele>722</ele>
        <time>2022-06-12T09:35:16.390Z</time>
      </trkpt>
      <trkpt lat="44.26785" lon="2.52631">
        <ele>722</ele>
        <time>2022-06-12T09:35:17.390Z</time>
      </trkpt>
      <trkpt lat="44.26786" lon="2.52632">
        <ele>722</ele>
        <time>2022-06-12T09:35:18.390Z</time>
      </trkpt>
      <trkpt lat="44.26787" lon="2.52633">
        <ele>721</ele>
        <time>2022-06-12T09:35:19.390Z</time>
      </trkpt>
      <trkpt lat="44.26789" lon="2.52634">
        <ele>721</ele>
        <time>2022-06-12T09:35:20.390Z</time>
      </trkpt>
      <trkpt lat="44.2679" lon="2.52635">
        <ele>721</ele>
        <time>2022-06-12T09:35:21.390Z</time>
      </trkpt>
      <trkpt lat="44.26791" lon="2.52636">
        <ele>720</ele>
        <time>2022-06-12T09:35:22.390Z</time>
      </trkpt>
      <trkpt lat="44.26792" lon="2.52637">
        <ele>720</ele>
        <time>2022-06-12T09:35:23.390Z</time>
      </trkpt>
      <trkpt lat="44.26793" lon="2.52638">
        <ele>720</ele>
        <time>2022-06-12T09:35:24.390Z</time>
      </trkpt>
      <trkpt lat="44.26794" lon="2.52639">
        <ele>720</ele>
        <time>2022-06-12T09:35:25.390Z</time>
      </trkpt>
      <trkpt lat="44.26795" lon="2.5264">
        <ele>720</ele>
        <time>2022-06-12T09:35:26.390Z</time>
      </trkpt>
      <trkpt lat="44.26796" lon="2.52641">
        <ele>719</ele>
        <time>2022-06-12T09:35:27.390Z</time>
      </trkpt>
      <trkpt lat="44.26797" lon="2.52642">
        <ele>719</ele>
        <time>2022-06-12T09:35:28.390Z</time>
      </trkpt>
      <trkpt lat="44.26798" lon="2.52643">
        <ele>719</ele>
        <time>2022-06-12T09:35:29.390Z</time>
      </trkpt>
      <trkpt lat="44.26799" lon="2.52644">
        <ele>719</ele>
        <time>2022-06-12T09:35:30.390Z</time>
      </trkpt>
      <trkpt lat="44.268" lon="2.52645">
        <ele>718</ele>
        <time>2022-06-12T09:35:31.390Z</time>
      </trkpt>
      <trkpt lat="44.26801" lon="2.52646">
        <ele>718</ele>
        <time>2022-06-12T09:35:32.390Z</time>
      </trkpt>
      <trkpt lat="44.26802" lon="2.52647">
        <ele>718</ele>
        <time>2022-06-12T09:35:33.390Z</time>
      </trkpt>
      <trkpt lat="44.26803" lon="2.52648">
        <ele>718</ele>
        <time>2022-06-12T09:35:34.390Z</time>
      </trkpt>
      <trkpt lat="44.26804" lon="2.52649">
        <ele>717</ele>
        <time>2022-06-12T09:35:35.390Z</time>
      </trkpt>
      <trkpt lat="44.26805" lon="2.5265">
        <ele>717</ele>
        <time>2022-06-12T09:35:36.390Z</time>
      </trkpt>
      <trkpt lat="44.26806" lon="2.5265">
        <ele>716</ele>
        <time>2022-06-12T09:35:37.390Z</time>
      </trkpt>
      <trkpt lat="44.26807" lon="2.52651">
        <ele>716</ele>
        <time>2022-06-12T09:35:38.390Z</time>
      </trkpt>
      <trkpt lat="44.26808" lon="2.52651">
        <ele>716</ele>
        <time>2022-06-12T09:35:39.390Z</time>
      </trkpt>
      <trkpt lat="44.2681" lon="2.52652">
        <ele>715</ele>
        <time>2022-06-12T09:35:40.390Z</time>
      </trkpt>
      <trkpt lat="44.26811" lon="2.52652">
        <ele>715</ele>
        <time>2022-06-12T09:35:41.390Z</time>
      </trkpt>
      <trkpt lat="44.26812" lon="2.52652">
        <ele>715</ele>
        <time>2022-06-12T09:35:42.390Z</time>
      </trkpt>
      <trkpt lat="44.26813" lon="2.52653">
        <ele>715</ele>
        <time>2022-06-12T09:35:43.390Z</time>
      </trkpt>
      <trkpt lat="44.26815" lon="2.52653">
        <ele>714</ele>
        <time>2022-06-12T09:35:44.390Z</time>
      </trkpt>
      <trkpt lat="44.26816" lon="2.52653">
        <ele>714</ele>
        <time>2022-06-12T09:35:45.390Z</time>
      </trkpt>
      <trkpt lat="44.26817" lon="2.52653">
        <ele>714</ele>
        <time>2022-06-12T09:35:46.390Z</time>
      </trkpt>
      <trkpt lat="44.26818" lon="2.52653">
        <ele>714</ele>
        <time>2022-06-12T09:35:47.390Z</time>
      </trkpt>
      <trkpt lat="44.26819" lon="2.52653">
        <ele>714</ele>
        <time>2022-06-12T09:35:48.390Z</time>
      </trkpt>
      <trkpt lat="44.2682" lon="2.52654">
        <ele>713</ele>
        <time>2022-06-12T09:35:49.390Z</time>
      </trkpt>
      <trkpt lat="44.26822" lon="2.52654">
        <ele>713</ele>
        <time>2022-06-12T09:35:50.390Z</time>
      </trkpt>
      <trkpt lat="44.26823" lon="2.52653">
        <ele>713</ele>
        <time>2022-06-12T09:35:51.390Z</time>
      </trkpt>
      <trkpt lat="44.26824" lon="2.52653">
        <ele>712</ele>
        <time>2022-06-12T09:35:52.390Z</time>
      </trkpt>
      <trkpt lat="44.26825" lon="2.52653">
        <ele>712</ele>
        <time>2022-06-12T09:35:53.390Z</time>
      </trkpt>
      <trkpt lat="44.26826" lon="2.52653">
        <ele>712</ele>
        <time>2022-06-12T09:35:54.390Z</time>
      </trkpt>
      <trkpt lat="44.26827" lon="2.52652">
        <ele>712</ele>
        <time>2022-06-12T09:35:55.390Z</time>
      </trkpt>
      <trkpt lat="44.26827" lon="2.52652">
        <ele>711</ele>
        <time>2022-06-12T09:35:56.390Z</time>
      </trkpt>
      <trkpt lat="44.26828" lon="2.52652">
        <ele>711</ele>
        <time>2022-06-12T09:35:57.390Z</time>
      </trkpt>
      <trkpt lat="44.26829" lon="2.52651">
        <ele>711</ele>
        <time>2022-06-12T09:35:58.390Z</time>
      </trkpt>
      <trkpt lat="44.2683" lon="2.5265">
        <ele>711</ele>
        <time>2022-06-12T09:35:59.390Z</time>
      </trkpt>
      <trkpt lat="44.26831" lon="2.52649">
        <ele>711</ele>
        <time>2022-06-12T09:36:00.390Z</time>
      </trkpt>
      <trkpt lat="44.26831" lon="2.52649">
        <ele>710</ele>
        <time>2022-06-12T09:36:01.390Z</time>
      </trkpt>
      <trkpt lat="44.26832" lon="2.52648">
        <ele>710</ele>
        <time>2022-06-12T09:36:02.390Z</time>
      </trkpt>
      <trkpt lat="44.26833" lon="2.52647">
        <ele>710</ele>
        <time>2022-06-12T09:36:03.390Z</time>
      </trkpt>
      <trkpt lat="44.26834" lon="2.52647">
        <ele>710</ele>
        <time>2022-06-12T09:36:04.390Z</time>
      </trkpt>
      <trkpt lat="44.26834" lon="2.52646">
        <ele>710</ele>
        <time>2022-06-12T09:36:05.390Z</time>
      </trkpt>
      <trkpt lat="44.26835" lon="2.52646">
        <ele>709</ele>
        <time>2022-06-12T09:36:06.390Z</time>
      </trkpt>
      <trkpt lat="44.26836" lon="2.52645">
        <ele>709</ele>
        <time>2022-06-12T09:36:07.390Z</time>
      </trkpt>
      <trkpt lat="44.26837" lon="2.52644">
        <ele>709</ele>
        <time>2022-06-12T09:36:08.390Z</time>
      </trkpt>
      <trkpt lat="44.26837" lon="2.52644">
        <ele>709</ele>
        <time>2022-06-12T09:36:09.390Z</time>
      </trkpt>
      <trkpt lat="44.26838" lon="2.52643">
        <ele>709</ele>
        <time>2022-06-12T09:36:10.390Z</time>
      </trkpt>
      <trkpt lat="44.26839" lon="2.52642">
        <ele>709</ele>
        <time>2022-06-12T09:36:11.390Z</time>
      </trkpt>
      <trkpt lat="44.2684" lon="2.52642">
        <ele>708</ele>
        <time>2022-06-12T09:36:12.390Z</time>
      </trkpt>
      <trkpt lat="44.26841" lon="2.52641">
        <ele>708</ele>
        <time>2022-06-12T09:36:13.390Z</time>
      </trkpt>
      <trkpt lat="44.26841" lon="2.5264">
        <ele>708</ele>
        <time>2022-06-12T09:36:14.390Z</time>
      </trkpt>
      <trkpt lat="44.26842" lon="2.52639">
        <ele>708</ele>
        <time>2022-06-12T09:36:15.390Z</time>
      </trkpt>
      <trkpt lat="44.26842" lon="2.52639">
        <ele>708</ele>
        <time>2022-06-12T09:36:16.390Z</time>
      </trkpt>
      <trkpt lat="44.26843" lon="2.52638">
        <ele>707</ele>
        <time>2022-06-12T09:36:17.390Z</time>
      </trkpt>
      <trkpt lat="44.26843" lon="2.52638">
        <ele>707</ele>
        <time>2022-06-12T09:36:18.390Z</time>
      </trkpt>
      <trkpt lat="44.26844" lon="2.52637">
        <ele>707</ele>
        <time>2022-06-12T09:36:19.390Z</time>
      </trkpt>
      <trkpt lat="44.26844" lon="2.52637">
        <ele>707</ele>
        <time>2022-06-12T09:36:20.390Z</time>
      </trkpt>
      <trkpt lat="44.26845" lon="2.52636">
        <ele>706</ele>
        <time>2022-06-12T09:36:21.390Z</time>
      </trkpt>
      <trkpt lat="44.26845" lon="2.52636">
        <ele>706</ele>
        <time>2022-06-12T09:36:22.390Z</time>
      </trkpt>
      <trkpt lat="44.26846" lon="2.52635">
        <ele>706</ele>
        <time>2022-06-12T09:36:23.390Z</time>
      </trkpt>
      <trkpt lat="44.26847" lon="2.52635">
        <ele>706</ele>
        <time>2022-06-12T09:36:24.390Z</time>
      </trkpt>
      <trkpt lat="44.26847" lon="2.52634">
        <ele>706</ele>
        <time>2022-06-12T09:36:25.390Z</time>
      </trkpt>
      <trkpt lat="44.26848" lon="2.52633">
        <ele>706</ele>
        <time>2022-06-12T09:36:26.390Z</time>
      </trkpt>
      <trkpt lat="44.26848" lon="2.52633">
        <ele>705</ele>
        <time>2022-06-12T09:36:27.390Z</time>
      </trkpt>
      <trkpt lat="44.26849" lon="2.52632">
        <ele>705</ele>
        <time>2022-06-12T09:36:28.390Z</time>
      </trkpt>
      <trkpt lat="44.2685" lon="2.52632">
        <ele>705</ele>
        <time>2022-06-12T09:36:29.390Z</time>
      </trkpt>
      <trkpt lat="44.2685" lon="2.52631">
        <ele>705</ele>
        <time>2022-06-12T09:36:30.390Z</time>
      </trkpt>
      <trkpt lat="44.26851" lon="2.52629">
        <ele>704</ele>
        <time>2022-06-12T09:36:31.390Z</time>
      </trkpt>
      <trkpt lat="44.26852" lon="2.52628">
        <ele>704</ele>
        <time>2022-06-12T09:36:32.390Z</time>
      </trkpt>
      <trkpt lat="44.26853" lon="2.52627">
        <ele>704</ele>
        <time>2022-06-12T09:36:33.390Z</time>
      </trkpt>
      <trkpt lat="44.26854" lon="2.52626">
        <ele>704</ele>
        <time>2022-06-12T09:36:34.390Z</time>
      </trkpt>
      <trkpt lat="44.26854" lon="2.52625">
        <ele>704</ele>
        <time>2022-06-12T09:36:35.390Z</time>
      </trkpt>
      <trkpt lat="44.26855" lon="2.52624">
        <ele>704</ele>
        <time>2022-06-12T09:36:36.390Z</time>
      </trkpt>
      <trkpt lat="44.26856" lon="2.52622">
        <ele>704</ele>
        <time>2022-06-12T09:36:37.390Z</time>
      </trkpt>
      <trkpt lat="44.26857" lon="2.52621">
        <ele>704</ele>
        <time>2022-06-12T09:36:38.390Z</time>
      </trkpt>
      <trkpt lat="44.26857" lon="2.52619">
        <ele>703</ele>
        <time>2022-06-12T09:36:39.390Z</time>
      </trkpt>
      <trkpt lat="44.26858" lon="2.52618">
        <ele>703</ele>
        <time>2022-06-12T09:36:40.390Z</time>
      </trkpt>
      <trkpt lat="44.26858" lon="2.52616">
        <ele>703</ele>
        <time>2022-06-12T09:36:41.390Z</time>
      </trkpt>
      <trkpt lat="44.26859" lon="2.52615">
        <ele>703</ele>
        <time>2022-06-12T09:36:42.390Z</time>
      </trkpt>
      <trkpt lat="44.26859" lon="2.52613">
        <ele>703</ele>
        <time>2022-06-12T09:36:43.390Z</time>
      </trkpt>
      <trkpt lat="44.2686" lon="2.52612">
        <ele>702</ele>
        <time>2022-06-12T09:36:44.390Z</time>
      </trkpt>
      <trkpt lat="44.26861" lon="2.52611">
        <ele>702</ele>
        <time>2022-06-12T09:36:45.390Z</time>
      </trkpt>
      <trkpt lat="44.26861" lon="2.5261">
        <ele>702</ele>
        <time>2022-06-12T09:36:46.390Z</time>
      </trkpt>
      <trkpt lat="44.26862" lon="2.52609">
        <ele>702</ele>
        <time>2022-06-12T09:36:47.390Z</time>
      </trkpt>
      <trkpt lat="44.26863" lon="2.52608">
        <ele>702</ele>
        <time>2022-06-12T09:36:48.390Z</time>
      </trkpt>
      <trkpt lat="44.26864" lon="2.52607">
        <ele>702</ele>
        <time>2022-06-12T09:36:49.390Z</time>
      </trkpt>
      <trkpt lat="44.26865" lon="2.52606">
        <ele>701</ele>
        <time>2022-06-12T09:36:50.390Z</time>
      </trkpt>
      <trkpt lat="44.26866" lon="2.52605">
        <ele>701</ele>
        <time>2022-06-12T09:36:51.390Z</time>
      </trkpt>
      <trkpt lat="44.26867" lon="2.52604">
        <ele>701</ele>
        <time>2022-06-12T09:36:52.390Z</time>
      </trkpt>
      <trkpt lat="44.26868" lon="2.52603">
        <ele>701</ele>
        <time>2022-06-12T09:36:53.390Z</time>
      </trkpt>
      <trkpt lat="44.26869" lon="2.52602">
        <ele>701</ele>
        <time>2022-06-12T09:36:54.390Z</time>
      </trkpt>
      <trkpt lat="44.26869" lon="2.52601">
        <ele>701</ele>
        <time>2022-06-12T09:36:55.390Z</time>
      </trkpt>
      <trkpt lat="44.2687" lon="2.526">
        <ele>700</ele>
        <time>2022-06-12T09:36:56.390Z</time>
      </trkpt>
      <trkpt lat="44.2687" lon="2.52599">
        <ele>700</ele>
        <time>2022-06-12T09:36:57.390Z</time>
      </trkpt>
      <trkpt lat="44.26871" lon="2.52599">
        <ele>700</ele>
        <time>2022-06-12T09:36:58.390Z</time>
      </trkpt>
      <trkpt lat="44.26871" lon="2.52598">
        <ele>700</ele>
        <time>2022-06-12T09:36:59.390Z</time>
      </trkpt>
      <trkpt lat="44.26872" lon="2.52597">
        <ele>700</ele>
        <time>2022-06-12T09:37:00.390Z</time>
      </trkpt>
      <trkpt lat="44.26872" lon="2.52597">
        <ele>700</ele>
        <time>2022-06-12T09:37:01.390Z</time>
      </trkpt>
      <trkpt lat="44.26873" lon="2.52597">
        <ele>699</ele>
        <time>2022-06-12T09:37:02.390Z</time>
      </trkpt>
      <trkpt lat="44.26874" lon="2.52596">
        <ele>699</ele>
        <time>2022-06-12T09:37:03.390Z</time>
      </trkpt>
      <trkpt lat="44.26874" lon="2.52596">
        <ele>699</ele>
        <time>2022-06-12T09:37:04.390Z</time>
      </trkpt>
      <trkpt lat="44.26875" lon="2.52595">
        <ele>699</ele>
        <time>2022-06-12T09:37:05.390Z</time>
      </trkpt>
      <trkpt lat="44.26876" lon="2.52595">
        <ele>699</ele>
        <time>2022-06-12T09:37:06.390Z</time>
      </trkpt>
      <trkpt lat="44.26877" lon="2.52594">
        <ele>699</ele>
        <time>2022-06-12T09:37:07.390Z</time>
      </trkpt>
      <trkpt lat="44.26878" lon="2.52593">
        <ele>699</ele>
        <time>2022-06-12T09:37:08.390Z</time>
      </trkpt>
      <trkpt lat="44.26879" lon="2.52593">
        <ele>699</ele>
        <time>2022-06-12T09:37:09.390Z</time>
      </trkpt>
      <trkpt lat="44.2688" lon="2.52592">
        <ele>698</ele>
        <time>2022-06-12T09:37:10.390Z</time>
      </trkpt>
      <trkpt lat="44.26882" lon="2.52592">
        <ele>698</ele>
        <time>2022-06-12T09:37:11.390Z</time>
      </trkpt>
      <trkpt lat="44.26883" lon="2.52592">
        <ele>698</ele>
        <time>2022-06-12T09:37:12.390Z</time>
      </trkpt>
      <trkpt lat="44.26884" lon="2.52591">
        <ele>698</ele>
        <time>2022-06-12T09:37:13.390Z</time>
      </trkpt>
      <trkpt lat="44.26885" lon="2.52591">
        <ele>698</ele>
        <time>2022-06-12T09:37:14.390Z</time>
      </trkpt>
      <trkpt lat="44.26886" lon="2.52591">
        <ele>698</ele>
        <time>2022-06-12T09:37:15.390Z</time>
      </trkpt>
      <trkpt lat="44.26887" lon="2.5259">
        <ele>698</ele>
        <time>2022-06-12T09:37:16.390Z</time>
      </trkpt>
      <trkpt lat="44.26888" lon="2.5259">
        <ele>698</ele>
        <time>2022-06-12T09:37:17.390Z</time>
      </trkpt>
      <trkpt lat="44.26889" lon="2.5259">
        <ele>697</ele>
        <time>2022-06-12T09:37:18.390Z</time>
      </trkpt>
      <trkpt lat="44.2689" lon="2.5259">
        <ele>697</ele>
        <time>2022-06-12T09:37:19.390Z</time>
      </trkpt>
      <trkpt lat="44.26892" lon="2.5259">
        <ele>697</ele>
        <time>2022-06-12T09:37:20.390Z</time>
      </trkpt>
      <trkpt lat="44.26893" lon="2.5259">
        <ele>697</ele>
        <time>2022-06-12T09:37:21.390Z</time>
      </trkpt>
      <trkpt lat="44.26894" lon="2.5259">
        <ele>697</ele>
        <time>2022-06-12T09:37:22.390Z</time>
      </trkpt>
      <trkpt lat="44.26894" lon="2.5259">
        <ele>697</ele>
        <time>2022-06-12T09:37:23.390Z</time>
      </trkpt>
      <trkpt lat="44.26895" lon="2.52591">
        <ele>697</ele>
        <time>2022-06-12T09:37:24.390Z</time>
      </trkpt>
      <trkpt lat="44.26896" lon="2.52591">
        <ele>696</ele>
        <time>2022-06-12T09:37:25.390Z</time>
      </trkpt>
      <trkpt lat="44.26897" lon="2.52591">
        <ele>696</ele>
        <time>2022-06-12T09:37:26.390Z</time>
      </trkpt>
      <trkpt lat="44.26898" lon="2.52592">
        <ele>696</ele>
        <time>2022-06-12T09:37:27.390Z</time>
      </trkpt>
      <trkpt lat="44.26899" lon="2.52592">
        <ele>696</ele>
        <time>2022-06-12T09:37:28.390Z</time>
      </trkpt>
      <trkpt lat="44.269" lon="2.52592">
        <ele>696</ele>
        <time>2022-06-12T09:37:29.390Z</time>
      </trkpt>
      <trkpt lat="44.26901" lon="2.52592">
        <ele>696</ele>
        <time>2022-06-12T09:37:30.390Z</time>
      </trkpt>
      <trkpt lat="44.26902" lon="2.52593">
        <ele>696</ele>
        <time>2022-06-12T09:37:31.390Z</time>
      </trkpt>
      <trkpt lat="44.26904" lon="2.52593">
        <ele>696</ele>
        <time>2022-06-12T09:37:32.390Z</time>
      </trkpt>
      <trkpt lat="44.26905" lon="2.52594">
        <ele>696</ele>
        <time>2022-06-12T09:37:33.390Z</time>
      </trkpt>
      <trkpt lat="44.26906" lon="2.52595">
        <ele>695</ele>
        <time>2022-06-12T09:37:34.390Z</time>
      </trkpt>
      <trkpt lat="44.26907" lon="2.52595">
        <ele>695</ele>
        <time>2022-06-12T09:37:35.390Z</time>
      </trkpt>
      <trkpt lat="44.26908" lon="2.52596">
        <ele>695</ele>
        <time>2022-06-12T09:37:36.390Z</time>
      </trkpt>
      <trkpt lat="44.26909" lon="2.52596">
        <ele>695</ele>
        <time>2022-06-12T09:37:37.390Z</time>
      </trkpt>
      <trkpt lat="44.2691" lon="2.52596">
        <ele>695</ele>
        <time>2022-06-12T09:37:38.390Z</time>
      </trkpt>
      <trkpt lat="44.26911" lon="2.52597">
        <ele>695</ele>
        <time>2022-06-12T09:37:39.390Z</time>
      </trkpt>
      <trkpt lat="44.26912" lon="2.52598">
        <ele>695</ele>
        <time>2022-06-12T09:37:40.390Z</time>
      </trkpt>
      <trkpt lat="44.26913" lon="2.52598">
        <ele>695</ele>
        <time>2022-06-12T09:37:41.390Z</time>
      </trkpt>
      <trkpt lat="44.26914" lon="2.52599">
        <ele>694</ele>
        <time>2022-06-12T09:37:42.390Z</time>
      </trkpt>
      <trkpt lat="44.26915" lon="2.52599">
        <ele>694</ele>
        <time>2022-06-12T09:37:43.390Z</time>
      </trkpt>
      <trkpt lat="44.26916" lon="2.526">
        <ele>694</ele>
        <time>2022-06-12T09:37:44.390Z</time>
      </trkpt>
      <trkpt lat="44.26918" lon="2.526">
        <ele>694</ele>
        <time>2022-06-12T09:37:45.390Z</time>
      </trkpt>
      <trkpt lat="44.26919" lon="2.52601">
        <ele>694</ele>
        <time>2022-06-12T09:37:46.390Z</time>
      </trkpt>
      <trkpt lat="44.2692" lon="2.52602">
        <ele>693</ele>
        <time>2022-06-12T09:37:47.390Z</time>
      </trkpt>
      <trkpt lat="44.26922" lon="2.52603">
        <ele>693</ele>
        <time>2022-06-12T09:37:48.390Z</time>
      </trkpt>
      <trkpt lat="44.26923" lon="2.52604">
        <ele>693</ele>
        <time>2022-06-12T09:37:49.390Z</time>
      </trkpt>
      <trkpt lat="44.26925" lon="2.52605">
        <ele>693</ele>
        <time>2022-06-12T09:37:50.390Z</time>
      </trkpt>
      <trkpt lat="44.26926" lon="2.52605">
        <ele>692</ele>
        <time>2022-06-12T09:37:51.390Z</time>
      </trkpt>
      <trkpt lat="44.26927" lon="2.52606">
        <ele>692</ele>
        <time>2022-06-12T09:37:52.390Z</time>
      </trkpt>
      <trkpt lat="44.26929" lon="2.52607">
        <ele>692</ele>
        <time>2022-06-12T09:37:53.390Z</time>
      </trkpt>
      <trkpt lat="44.2693" lon="2.52608">
        <ele>692</ele>
        <time>2022-06-12T09:37:54.390Z</time>
      </trkpt>
      <trkpt lat="44.26932" lon="2.52609">
        <ele>692</ele>
        <time>2022-06-12T09:37:55.390Z</time>
      </trkpt>
      <trkpt lat="44.26933" lon="2.52611">
        <ele>691</ele>
        <time>2022-06-12T09:37:56.390Z</time>
      </trkpt>
      <trkpt lat="44.26934" lon="2.52612">
        <ele>691</ele>
        <time>2022-06-12T09:37:57.390Z</time>
      </trkpt>
      <trkpt lat="44.26936" lon="2.52613">
        <ele>691</ele>
        <time>2022-06-12T09:37:58.390Z</time>
      </trkpt>
      <trkpt lat="44.26937" lon="2.52614">
        <ele>691</ele>
        <time>2022-06-12T09:37:59.390Z</time>
      </trkpt>
      <trkpt lat="44.26938" lon="2.52615">
        <ele>691</ele>
        <time>2022-06-12T09:38:00.390Z</time>
      </trkpt>
      <trkpt lat="44.26939" lon="2.52616">
        <ele>691</ele>
        <time>2022-06-12T09:38:01.390Z</time>
      </trkpt>
      <trkpt lat="44.2694" lon="2.52617">
        <ele>691</ele>
        <time>2022-06-12T09:38:02.390Z</time>
      </trkpt>
      <trkpt lat="44.26941" lon="2.52618">
        <ele>690</ele>
        <time>2022-06-12T09:38:03.390Z</time>
      </trkpt>
      <trkpt lat="44.26942" lon="2.5262">
        <ele>690</ele>
        <time>2022-06-12T09:38:04.390Z</time>
      </trkpt>
      <trkpt lat="44.26943" lon="2.52621">
        <ele>690</ele>
        <time>2022-06-12T09:38:05.390Z</time>
      </trkpt>
      <trkpt lat="44.26944" lon="2.52622">
        <ele>690</ele>
        <time>2022-06-12T09:38:06.390Z</time>
      </trkpt>
      <trkpt lat="44.26945" lon="2.52623">
        <ele>690</ele>
        <time>2022-06-12T09:38:07.390Z</time>
      </trkpt>
      <trkpt lat="44.26945" lon="2.52624">
        <ele>689</ele>
        <time>2022-06-12T09:38:08.390Z</time>
      </trkpt>
      <trkpt lat="44.26946" lon="2.52626">
        <ele>689</ele>
        <time>2022-06-12T09:38:09.390Z</time>
      </trkpt>
      <trkpt lat="44.26947" lon="2.52627">
        <ele>689</ele>
        <time>2022-06-12T09:38:10.390Z</time>
      </trkpt>
      <trkpt lat="44.26948" lon="2.52628">
        <ele>689</ele>
        <time>2022-06-12T09:38:11.390Z</time>
      </trkpt>
      <trkpt lat="44.2695" lon="2.52629">
        <ele>689</ele>
        <time>2022-06-12T09:38:12.390Z</time>
      </trkpt>
      <trkpt lat="44.2695" lon="2.5263">
        <ele>689</ele>
        <time>2022-06-12T09:38:13.390Z</time>
      </trkpt>
      <trkpt lat="44.26952" lon="2.52631">
        <ele>689</ele>
        <time>2022-06-12T09:38:14.390Z</time>
      </trkpt>
      <trkpt lat="44.26953" lon="2.52633">
        <ele>689</ele>
        <time>2022-06-12T09:38:15.390Z</time>
      </trkpt>
      <trkpt lat="44.26954" lon="2.52634">
        <ele>689</ele>
        <time>2022-06-12T09:38:16.390Z</time>
      </trkpt>
      <trkpt lat="44.26955" lon="2.52636">
        <ele>689</ele>
        <time>2022-06-12T09:38:17.390Z</time>
      </trkpt>
      <trkpt lat="44.26956" lon="2.52637">
        <ele>689</ele>
        <time>2022-06-12T09:38:18.390Z</time>
      </trkpt>
      <trkpt lat="44.26957" lon="2.52639">
        <ele>689</ele>
        <time>2022-06-12T09:38:19.390Z</time>
      </trkpt>
      <trkpt lat="44.26958" lon="2.52639">
        <ele>689</ele>
        <time>2022-06-12T09:38:20.390Z</time>
      </trkpt>
      <trkpt lat="44.26959" lon="2.5264">
        <ele>689</ele>
        <time>2022-06-12T09:38:21.390Z</time>
      </trkpt>
      <trkpt lat="44.2696" lon="2.52641">
        <ele>689</ele>
        <time>2022-06-12T09:38:22.390Z</time>
      </trkpt>
      <trkpt lat="44.26961" lon="2.52641">
        <ele>689</ele>
        <time>2022-06-12T09:38:23.390Z</time>
      </trkpt>
      <trkpt lat="44.26962" lon="2.52642">
        <ele>689</ele>
        <time>2022-06-12T09:38:24.390Z</time>
      </trkpt>
      <trkpt lat="44.26963" lon="2.52643">
        <ele>689</ele>
        <time>2022-06-12T09:38:25.390Z</time>
      </trkpt>
      <trkpt lat="44.26964" lon="2.52643">
        <ele>689</ele>
        <time>2022-06-12T09:38:26.390Z</time>
      </trkpt>
      <trkpt lat="44.26965" lon="2.52644">
        <ele>689</ele>
        <time>2022-06-12T09:38:27.390Z</time>
      </trkpt>
      <trkpt lat="44.26965" lon="2.52644">
        <ele>689</ele>
        <time>2022-06-12T09:38:28.390Z</time>
      </trkpt>
      <trkpt lat="44.26966" lon="2.52645">
        <ele>688</ele>
        <time>2022-06-12T09:38:29.390Z</time>
      </trkpt>
      <trkpt lat="44.26967" lon="2.52645">
        <ele>688</ele>
        <time>2022-06-12T09:38:30.390Z</time>
      </trkpt>
      <trkpt lat="44.26967" lon="2.52644">
        <ele>688</ele>
        <time>2022-06-12T09:38:31.390Z</time>
      </trkpt>
      <trkpt lat="44.26968" lon="2.52644">
        <ele>688</ele>
        <time>2022-06-12T09:38:32.390Z</time>
      </trkpt>
      <trkpt lat="44.26968" lon="2.52644">
        <ele>688</ele>
        <time>2022-06-12T09:38:33.390Z</time>
      </trkpt>
      <trkpt lat="44.2697" lon="2.52643">
        <ele>688</ele>
        <time>2022-06-12T09:38:36.645Z</time>
      </trkpt>
      <trkpt lat="44.2697" lon="2.52642">
        <ele>688</ele>
        <time>2022-06-12T09:38:37.645Z</time>
      </trkpt>
      <trkpt lat="44.26971" lon="2.52642">
        <ele>688</ele>
        <time>2022-06-12T09:38:38.645Z</time>
      </trkpt>
      <trkpt lat="44.26972" lon="2.52641">
        <ele>688</ele>
        <time>2022-06-12T09:38:39.645Z</time>
      </trkpt>
      <trkpt lat="44.26972" lon="2.5264">
        <ele>688</ele>
        <time>2022-06-12T09:38:40.645Z</time>
      </trkpt>
      <trkpt lat="44.26973" lon="2.5264">
        <ele>687</ele>
        <time>2022-06-12T09:38:41.645Z</time>
      </trkpt>
      <trkpt lat="44.26973" lon="2.52639">
        <ele>687</ele>
        <time>2022-06-12T09:38:42.645Z</time>
      </trkpt>
      <trkpt lat="44.26974" lon="2.52639">
        <ele>687</ele>
        <time>2022-06-12T09:38:43.645Z</time>
      </trkpt>
      <trkpt lat="44.26975" lon="2.52638">
        <ele>687</ele>
        <time>2022-06-12T09:38:44.645Z</time>
      </trkpt>
      <trkpt lat="44.26976" lon="2.52638">
        <ele>687</ele>
        <time>2022-06-12T09:38:45.645Z</time>
      </trkpt>
      <trkpt lat="44.26976" lon="2.52637">
        <ele>687</ele>
        <time>2022-06-12T09:38:46.645Z</time>
      </trkpt>
      <trkpt lat="44.26977" lon="2.52636">
        <ele>687</ele>
        <time>2022-06-12T09:38:47.645Z</time>
      </trkpt>
      <trkpt lat="44.26977" lon="2.52636">
        <ele>687</ele>
        <time>2022-06-12T09:38:48.645Z</time>
      </trkpt>
      <trkpt lat="44.26978" lon="2.52635">
        <ele>687</ele>
        <time>2022-06-12T09:38:49.645Z</time>
      </trkpt>
      <trkpt lat="44.26979" lon="2.52634">
        <ele>687</ele>
        <time>2022-06-12T09:38:50.645Z</time>
      </trkpt>
      <trkpt lat="44.26979" lon="2.52633">
        <ele>687</ele>
        <time>2022-06-12T09:38:51.645Z</time>
      </trkpt>
      <trkpt lat="44.2698" lon="2.52633">
        <ele>687</ele>
        <time>2022-06-12T09:38:52.645Z</time>
      </trkpt>
      <trkpt lat="44.26981" lon="2.52632">
        <ele>688</ele>
        <time>2022-06-12T09:38:53.645Z</time>
      </trkpt>
      <trkpt lat="44.26982" lon="2.52631">
        <ele>688</ele>
        <time>2022-06-12T09:38:54.645Z</time>
      </trkpt>
      <trkpt lat="44.26983" lon="2.52631">
        <ele>688</ele>
        <time>2022-06-12T09:38:55.645Z</time>
      </trkpt>
      <trkpt lat="44.26984" lon="2.5263">
        <ele>688</ele>
        <time>2022-06-12T09:38:56.645Z</time>
      </trkpt>
      <trkpt lat="44.26985" lon="2.52629">
        <ele>688</ele>
        <time>2022-06-12T09:38:57.645Z</time>
      </trkpt>
      <trkpt lat="44.26985" lon="2.52629">
        <ele>688</ele>
        <time>2022-06-12T09:38:58.645Z</time>
      </trkpt>
      <trkpt lat="44.26986" lon="2.52628">
        <ele>688</ele>
        <time>2022-06-12T09:38:59.645Z</time>
      </trkpt>
      <trkpt lat="44.26987" lon="2.52627">
        <ele>688</ele>
        <time>2022-06-12T09:39:00.645Z</time>
      </trkpt>
      <trkpt lat="44.26988" lon="2.52626">
        <ele>688</ele>
        <time>2022-06-12T09:39:01.645Z</time>
      </trkpt>
      <trkpt lat="44.26989" lon="2.52625">
        <ele>688</ele>
        <time>2022-06-12T09:39:02.645Z</time>
      </trkpt>
      <trkpt lat="44.2699" lon="2.52624">
        <ele>688</ele>
        <time>2022-06-12T09:39:03.645Z</time>
      </trkpt>
      <trkpt lat="44.2699" lon="2.52623">
        <ele>688</ele>
        <time>2022-06-12T09:39:04.645Z</time>
      </trkpt>
      <trkpt lat="44.26991" lon="2.52623">
        <ele>688</ele>
        <time>2022-06-12T09:39:05.645Z</time>
      </trkpt>
      <trkpt lat="44.26992" lon="2.52622">
        <ele>688</ele>
        <time>2022-06-12T09:39:06.645Z</time>
      </trkpt>
      <trkpt lat="44.26993" lon="2.52621">
        <ele>688</ele>
        <time>2022-06-12T09:39:07.645Z</time>
      </trkpt>
      <trkpt lat="44.26994" lon="2.5262">
        <ele>689</ele>
        <time>2022-06-12T09:39:08.645Z</time>
      </trkpt>
      <trkpt lat="44.26994" lon="2.52619">
        <ele>689</ele>
        <time>2022-06-12T09:39:09.645Z</time>
      </trkpt>
      <trkpt lat="44.26995" lon="2.52619">
        <ele>689</ele>
        <time>2022-06-12T09:39:10.645Z</time>
      </trkpt>
      <trkpt lat="44.26996" lon="2.52618">
        <ele>689</ele>
        <time>2022-06-12T09:39:11.645Z</time>
      </trkpt>
      <trkpt lat="44.26996" lon="2.52617">
        <ele>689</ele>
        <time>2022-06-12T09:39:12.645Z</time>
      </trkpt>
      <trkpt lat="44.26997" lon="2.52617">
        <ele>689</ele>
        <time>2022-06-12T09:39:13.645Z</time>
      </trkpt>
      <trkpt lat="44.26998" lon="2.52616">
        <ele>689</ele>
        <time>2022-06-12T09:39:14.645Z</time>
      </trkpt>
      <trkpt lat="44.26998" lon="2.52615">
        <ele>689</ele>
        <time>2022-06-12T09:39:15.645Z</time>
      </trkpt>
      <trkpt lat="44.26999" lon="2.52614">
        <ele>689</ele>
        <time>2022-06-12T09:39:16.645Z</time>
      </trkpt>
      <trkpt lat="44.27" lon="2.52614">
        <ele>689</ele>
        <time>2022-06-12T09:39:17.645Z</time>
      </trkpt>
      <trkpt lat="44.27001" lon="2.52613">
        <ele>689</ele>
        <time>2022-06-12T09:39:18.645Z</time>
      </trkpt>
      <trkpt lat="44.27001" lon="2.52612">
        <ele>689</ele>
        <time>2022-06-12T09:39:19.645Z</time>
      </trkpt>
      <trkpt lat="44.27002" lon="2.52612">
        <ele>689</ele>
        <time>2022-06-12T09:39:20.645Z</time>
      </trkpt>
      <trkpt lat="44.27003" lon="2.52611">
        <ele>689</ele>
        <time>2022-06-12T09:39:21.645Z</time>
      </trkpt>
      <trkpt lat="44.27004" lon="2.52611">
        <ele>689</ele>
        <time>2022-06-12T09:39:22.645Z</time>
      </trkpt>
      <trkpt lat="44.27004" lon="2.5261">
        <ele>690</ele>
        <time>2022-06-12T09:39:23.645Z</time>
      </trkpt>
      <trkpt lat="44.27005" lon="2.52609">
        <ele>690</ele>
        <time>2022-06-12T09:39:24.645Z</time>
      </trkpt>
      <trkpt lat="44.27006" lon="2.52608">
        <ele>690</ele>
        <time>2022-06-12T09:39:25.645Z</time>
      </trkpt>
      <trkpt lat="44.27006" lon="2.52607">
        <ele>690</ele>
        <time>2022-06-12T09:39:26.645Z</time>
      </trkpt>
      <trkpt lat="44.27007" lon="2.52607">
        <ele>690</ele>
        <time>2022-06-12T09:39:27.645Z</time>
      </trkpt>
      <trkpt lat="44.27008" lon="2.52606">
        <ele>690</ele>
        <time>2022-06-12T09:39:28.645Z</time>
      </trkpt>
      <trkpt lat="44.27009" lon="2.52605">
        <ele>690</ele>
        <time>2022-06-12T09:39:29.645Z</time>
      </trkpt>
      <trkpt lat="44.27009" lon="2.52604">
        <ele>690</ele>
        <time>2022-06-12T09:39:30.645Z</time>
      </trkpt>
      <trkpt lat="44.2701" lon="2.52603">
        <ele>690</ele>
        <time>2022-06-12T09:39:31.645Z</time>
      </trkpt>
      <trkpt lat="44.27011" lon="2.52603">
        <ele>690</ele>
        <time>2022-06-12T09:39:32.645Z</time>
      </trkpt>
      <trkpt lat="44.27012" lon="2.52602">
        <ele>690</ele>
        <time>2022-06-12T09:39:33.645Z</time>
      </trkpt>
      <trkpt lat="44.27013" lon="2.52601">
        <ele>690</ele>
        <time>2022-06-12T09:39:34.645Z</time>
      </trkpt>
      <trkpt lat="44.27014" lon="2.526">
        <ele>690</ele>
        <time>2022-06-12T09:39:35.645Z</time>
      </trkpt>
      <trkpt lat="44.27014" lon="2.52599">
        <ele>690</ele>
        <time>2022-06-12T09:39:36.645Z</time>
      </trkpt>
      <trkpt lat="44.27015" lon="2.52598">
        <ele>690</ele>
        <time>2022-06-12T09:39:37.645Z</time>
      </trkpt>
      <trkpt lat="44.27016" lon="2.52598">
        <ele>690</ele>
        <time>2022-06-12T09:39:38.645Z</time>
      </trkpt>
      <trkpt lat="44.27017" lon="2.52597">
        <ele>690</ele>
        <time>2022-06-12T09:39:39.645Z</time>
      </trkpt>
      <trkpt lat="44.27018" lon="2.52596">
        <ele>690</ele>
        <time>2022-06-12T09:39:40.645Z</time>
      </trkpt>
      <trkpt lat="44.27019" lon="2.52596">
        <ele>690</ele>
        <time>2022-06-12T09:39:41.645Z</time>
      </trkpt>
      <trkpt lat="44.27019" lon="2.52595">
        <ele>690</ele>
        <time>2022-06-12T09:39:42.645Z</time>
      </trkpt>
      <trkpt lat="44.2702" lon="2.52594">
        <ele>690</ele>
        <time>2022-06-12T09:39:43.645Z</time>
      </trkpt>
      <trkpt lat="44.27021" lon="2.52593">
        <ele>690</ele>
        <time>2022-06-12T09:39:44.645Z</time>
      </trkpt>
      <trkpt lat="44.27022" lon="2.52592">
        <ele>690</ele>
        <time>2022-06-12T09:39:45.645Z</time>
      </trkpt>
      <trkpt lat="44.27023" lon="2.52592">
        <ele>690</ele>
        <time>2022-06-12T09:39:46.645Z</time>
      </trkpt>
      <trkpt lat="44.27024" lon="2.52591">
        <ele>690</ele>
        <time>2022-06-12T09:39:47.645Z</time>
      </trkpt>
      <trkpt lat="44.27025" lon="2.5259">
        <ele>690</ele>
        <time>2022-06-12T09:39:48.645Z</time>
      </trkpt>
      <trkpt lat="44.27026" lon="2.52589">
        <ele>690</ele>
        <time>2022-06-12T09:39:49.645Z</time>
      </trkpt>
      <trkpt lat="44.27027" lon="2.52589">
        <ele>691</ele>
        <time>2022-06-12T09:39:50.645Z</time>
      </trkpt>
      <trkpt lat="44.27028" lon="2.52588">
        <ele>691</ele>
        <time>2022-06-12T09:39:51.645Z</time>
      </trkpt>
      <trkpt lat="44.27029" lon="2.52587">
        <ele>691</ele>
        <time>2022-06-12T09:39:52.645Z</time>
      </trkpt>
      <trkpt lat="44.27029" lon="2.52586">
        <ele>691</ele>
        <time>2022-06-12T09:39:53.645Z</time>
      </trkpt>
      <trkpt lat="44.2703" lon="2.52586">
        <ele>691</ele>
        <time>2022-06-12T09:39:54.645Z</time>
      </trkpt>
      <trkpt lat="44.27031" lon="2.52585">
        <ele>691</ele>
        <time>2022-06-12T09:39:55.645Z</time>
      </trkpt>
      <trkpt lat="44.27032" lon="2.52584">
        <ele>691</ele>
        <time>2022-06-12T09:39:56.645Z</time>
      </trkpt>
      <trkpt lat="44.27033" lon="2.52584">
        <ele>692</ele>
        <time>2022-06-12T09:39:57.645Z</time>
      </trkpt>
      <trkpt lat="44.27034" lon="2.52583">
        <ele>692</ele>
        <time>2022-06-12T09:39:58.645Z</time>
      </trkpt>
      <trkpt lat="44.27034" lon="2.52582">
        <ele>692</ele>
        <time>2022-06-12T09:39:59.645Z</time>
      </trkpt>
      <trkpt lat="44.27035" lon="2.52582">
        <ele>692</ele>
        <time>2022-06-12T09:40:00.645Z</time>
      </trkpt>
      <trkpt lat="44.27036" lon="2.52582">
        <ele>692</ele>
        <time>2022-06-12T09:40:01.645Z</time>
      </trkpt>
      <trkpt lat="44.27037" lon="2.52582">
        <ele>692</ele>
        <time>2022-06-12T09:40:02.645Z</time>
      </trkpt>
      <trkpt lat="44.27037" lon="2.52581">
        <ele>692</ele>
        <time>2022-06-12T09:40:03.645Z</time>
      </trkpt>
      <trkpt lat="44.27038" lon="2.52581">
        <ele>692</ele>
        <time>2022-06-12T09:40:04.645Z</time>
      </trkpt>
      <trkpt lat="44.27039" lon="2.5258">
        <ele>693</ele>
        <time>2022-06-12T09:40:05.645Z</time>
      </trkpt>
      <trkpt lat="44.27039" lon="2.5258">
        <ele>693</ele>
        <time>2022-06-12T09:40:06.645Z</time>
      </trkpt>
      <trkpt lat="44.2704" lon="2.52579">
        <ele>693</ele>
        <time>2022-06-12T09:40:07.645Z</time>
      </trkpt>
      <trkpt lat="44.27041" lon="2.52579">
        <ele>693</ele>
        <time>2022-06-12T09:40:08.645Z</time>
      </trkpt>
      <trkpt lat="44.27041" lon="2.52579">
        <ele>693</ele>
        <time>2022-06-12T09:40:09.645Z</time>
      </trkpt>
      <trkpt lat="44.27042" lon="2.52578">
        <ele>693</ele>
        <time>2022-06-12T09:40:10.645Z</time>
      </trkpt>
      <trkpt lat="44.27043" lon="2.52577">
        <ele>693</ele>
        <time>2022-06-12T09:40:11.645Z</time>
      </trkpt>
      <trkpt lat="44.27044" lon="2.52577">
        <ele>693</ele>
        <time>2022-06-12T09:40:12.645Z</time>
      </trkpt>
      <trkpt lat="44.27044" lon="2.52576">
        <ele>693</ele>
        <time>2022-06-12T09:40:13.645Z</time>
      </trkpt>
      <trkpt lat="44.27045" lon="2.52576">
        <ele>693</ele>
        <time>2022-06-12T09:40:14.645Z</time>
      </trkpt>
      <trkpt lat="44.27046" lon="2.52575">
        <ele>693</ele>
        <time>2022-06-12T09:40:15.645Z</time>
      </trkpt>
      <trkpt lat="44.27046" lon="2.52575">
        <ele>693</ele>
        <time>2022-06-12T09:40:16.645Z</time>
      </trkpt>
      <trkpt lat="44.27047" lon="2.52574">
        <ele>693</ele>
        <time>2022-06-12T09:40:17.645Z</time>
      </trkpt>
      <trkpt lat="44.27048" lon="2.52574">
        <ele>693</ele>
        <time>2022-06-12T09:40:18.645Z</time>
      </trkpt>
      <trkpt lat="44.27048" lon="2.52573">
        <ele>693</ele>
        <time>2022-06-12T09:40:19.645Z</time>
      </trkpt>
      <trkpt lat="44.27049" lon="2.52573">
        <ele>693</ele>
        <time>2022-06-12T09:40:20.645Z</time>
      </trkpt>
      <trkpt lat="44.2705" lon="2.52573">
        <ele>693</ele>
        <time>2022-06-12T09:40:21.645Z</time>
      </trkpt>
      <trkpt lat="44.2705" lon="2.52572">
        <ele>694</ele>
        <time>2022-06-12T09:40:22.645Z</time>
      </trkpt>
      <trkpt lat="44.27051" lon="2.52571">
        <ele>694</ele>
        <time>2022-06-12T09:40:23.645Z</time>
      </trkpt>
      <trkpt lat="44.27052" lon="2.5257">
        <ele>694</ele>
        <time>2022-06-12T09:40:24.645Z</time>
      </trkpt>
      <trkpt lat="44.27053" lon="2.5257">
        <ele>694</ele>
        <time>2022-06-12T09:40:25.645Z</time>
      </trkpt>
      <trkpt lat="44.27053" lon="2.52569">
        <ele>694</ele>
        <time>2022-06-12T09:40:26.645Z</time>
      </trkpt>
      <trkpt lat="44.27054" lon="2.52568">
        <ele>694</ele>
        <time>2022-06-12T09:40:27.645Z</time>
      </trkpt>
      <trkpt lat="44.27054" lon="2.52567">
        <ele>694</ele>
        <time>2022-06-12T09:40:28.645Z</time>
      </trkpt>
      <trkpt lat="44.27055" lon="2.52567">
        <ele>694</ele>
        <time>2022-06-12T09:40:29.645Z</time>
      </trkpt>
      <trkpt lat="44.27056" lon="2.52566">
        <ele>694</ele>
        <time>2022-06-12T09:40:30.645Z</time>
      </trkpt>
      <trkpt lat="44.27056" lon="2.52566">
        <ele>694</ele>
        <time>2022-06-12T09:40:31.645Z</time>
      </trkpt>
      <trkpt lat="44.27057" lon="2.52565">
        <ele>695</ele>
        <time>2022-06-12T09:40:32.645Z</time>
      </trkpt>
      <trkpt lat="44.27058" lon="2.52565">
        <ele>695</ele>
        <time>2022-06-12T09:40:33.645Z</time>
      </trkpt>
      <trkpt lat="44.27058" lon="2.52564">
        <ele>695</ele>
        <time>2022-06-12T09:40:34.645Z</time>
      </trkpt>
      <trkpt lat="44.27058" lon="2.52564">
        <ele>695</ele>
        <time>2022-06-12T09:40:35.645Z</time>
      </trkpt>
      <trkpt lat="44.27058" lon="2.52564">
        <ele>695</ele>
        <time>2022-06-12T09:40:36.645Z</time>
      </trkpt>
      <trkpt lat="44.27058" lon="2.52564">
        <ele>695</ele>
        <time>2022-06-12T09:40:37.645Z</time>
      </trkpt>
      <trkpt lat="44.27059" lon="2.52563">
        <ele>695</ele>
        <time>2022-06-12T09:40:38.645Z</time>
      </trkpt>
      <trkpt lat="44.2706" lon="2.52562">
        <ele>695</ele>
        <time>2022-06-12T09:40:39.645Z</time>
      </trkpt>
      <trkpt lat="44.2706" lon="2.52562">
        <ele>695</ele>
        <time>2022-06-12T09:40:40.645Z</time>
      </trkpt>
      <trkpt lat="44.27061" lon="2.52561">
        <ele>696</ele>
        <time>2022-06-12T09:40:41.645Z</time>
      </trkpt>
      <trkpt lat="44.27061" lon="2.5256">
        <ele>696</ele>
        <time>2022-06-12T09:40:42.645Z</time>
      </trkpt>
      <trkpt lat="44.27062" lon="2.5256">
        <ele>696</ele>
        <time>2022-06-12T09:40:43.645Z</time>
      </trkpt>
      <trkpt lat="44.27062" lon="2.52559">
        <ele>696</ele>
        <time>2022-06-12T09:40:44.645Z</time>
      </trkpt>
      <trkpt lat="44.27063" lon="2.52559">
        <ele>696</ele>
        <time>2022-06-12T09:40:45.645Z</time>
      </trkpt>
      <trkpt lat="44.27063" lon="2.52558">
        <ele>696</ele>
        <time>2022-06-12T09:40:46.645Z</time>
      </trkpt>
      <trkpt lat="44.27064" lon="2.52558">
        <ele>697</ele>
        <time>2022-06-12T09:40:47.645Z</time>
      </trkpt>
      <trkpt lat="44.27065" lon="2.52557">
        <ele>697</ele>
        <time>2022-06-12T09:40:48.645Z</time>
      </trkpt>
      <trkpt lat="44.27065" lon="2.52557">
        <ele>697</ele>
        <time>2022-06-12T09:40:49.645Z</time>
      </trkpt>
      <trkpt lat="44.27066" lon="2.52556">
        <ele>697</ele>
        <time>2022-06-12T09:40:50.645Z</time>
      </trkpt>
      <trkpt lat="44.27066" lon="2.52556">
        <ele>697</ele>
        <time>2022-06-12T09:40:51.645Z</time>
      </trkpt>
      <trkpt lat="44.27067" lon="2.52555">
        <ele>697</ele>
        <time>2022-06-12T09:40:52.645Z</time>
      </trkpt>
      <trkpt lat="44.27068" lon="2.52554">
        <ele>697</ele>
        <time>2022-06-12T09:40:53.645Z</time>
      </trkpt>
      <trkpt lat="44.27068" lon="2.52553">
        <ele>698</ele>
        <time>2022-06-12T09:40:54.645Z</time>
      </trkpt>
      <trkpt lat="44.27069" lon="2.52553">
        <ele>698</ele>
        <time>2022-06-12T09:40:55.645Z</time>
      </trkpt>
      <trkpt lat="44.2707" lon="2.52552">
        <ele>698</ele>
        <time>2022-06-12T09:40:56.645Z</time>
      </trkpt>
      <trkpt lat="44.2707" lon="2.52551">
        <ele>698</ele>
        <time>2022-06-12T09:40:57.645Z</time>
      </trkpt>
      <trkpt lat="44.27071" lon="2.52551">
        <ele>698</ele>
        <time>2022-06-12T09:40:58.645Z</time>
      </trkpt>
      <trkpt lat="44.27072" lon="2.5255">
        <ele>698</ele>
        <time>2022-06-12T09:40:59.645Z</time>
      </trkpt>
      <trkpt lat="44.27073" lon="2.52549">
        <ele>698</ele>
        <time>2022-06-12T09:41:00.645Z</time>
      </trkpt>
      <trkpt lat="44.27074" lon="2.52549">
        <ele>699</ele>
        <time>2022-06-12T09:41:01.645Z</time>
      </trkpt>
      <trkpt lat="44.27075" lon="2.52548">
        <ele>699</ele>
        <time>2022-06-12T09:41:02.645Z</time>
      </trkpt>
      <trkpt lat="44.27075" lon="2.52547">
        <ele>699</ele>
        <time>2022-06-12T09:41:03.645Z</time>
      </trkpt>
      <trkpt lat="44.27076" lon="2.52546">
        <ele>700</ele>
        <time>2022-06-12T09:41:04.645Z</time>
      </trkpt>
      <trkpt lat="44.27077" lon="2.52545">
        <ele>700</ele>
        <time>2022-06-12T09:41:05.645Z</time>
      </trkpt>
      <trkpt lat="44.27078" lon="2.52545">
        <ele>701</ele>
        <time>2022-06-12T09:41:06.645Z</time>
      </trkpt>
      <trkpt lat="44.27078" lon="2.52544">
        <ele>701</ele>
        <time>2022-06-12T09:41:07.645Z</time>
      </trkpt>
      <trkpt lat="44.27079" lon="2.52543">
        <ele>702</ele>
        <time>2022-06-12T09:41:08.645Z</time>
      </trkpt>
      <trkpt lat="44.2708" lon="2.52542">
        <ele>702</ele>
        <time>2022-06-12T09:41:09.645Z</time>
      </trkpt>
      <trkpt lat="44.2708" lon="2.52542">
        <ele>702</ele>
        <time>2022-06-12T09:41:10.645Z</time>
      </trkpt>
      <trkpt lat="44.27081" lon="2.52541">
        <ele>703</ele>
        <time>2022-06-12T09:41:11.645Z</time>
      </trkpt>
      <trkpt lat="44.27082" lon="2.5254">
        <ele>703</ele>
        <time>2022-06-12T09:41:12.645Z</time>
      </trkpt>
      <trkpt lat="44.27083" lon="2.52539">
        <ele>703</ele>
        <time>2022-06-12T09:41:13.645Z</time>
      </trkpt>
      <trkpt lat="44.27084" lon="2.52538">
        <ele>704</ele>
        <time>2022-06-12T09:41:14.645Z</time>
      </trkpt>
      <trkpt lat="44.27085" lon="2.52538">
        <ele>704</ele>
        <time>2022-06-12T09:41:15.645Z</time>
      </trkpt>
      <trkpt lat="44.27085" lon="2.52537">
        <ele>704</ele>
        <time>2022-06-12T09:41:16.645Z</time>
      </trkpt>
      <trkpt lat="44.27086" lon="2.52536">
        <ele>705</ele>
        <time>2022-06-12T09:41:17.645Z</time>
      </trkpt>
      <trkpt lat="44.27087" lon="2.52536">
        <ele>705</ele>
        <time>2022-06-12T09:41:18.645Z</time>
      </trkpt>
      <trkpt lat="44.27087" lon="2.52535">
        <ele>705</ele>
        <time>2022-06-12T09:41:19.645Z</time>
      </trkpt>
      <trkpt lat="44.27088" lon="2.52534">
        <ele>705</ele>
        <time>2022-06-12T09:41:20.645Z</time>
      </trkpt>
      <trkpt lat="44.27089" lon="2.52534">
        <ele>705</ele>
        <time>2022-06-12T09:41:21.645Z</time>
      </trkpt>
      <trkpt lat="44.2709" lon="2.52533">
        <ele>706</ele>
        <time>2022-06-12T09:41:22.645Z</time>
      </trkpt>
      <trkpt lat="44.27091" lon="2.52532">
        <ele>706</ele>
        <time>2022-06-12T09:41:23.645Z</time>
      </trkpt>
      <trkpt lat="44.27092" lon="2.52531">
        <ele>706</ele>
        <time>2022-06-12T09:41:24.645Z</time>
      </trkpt>
      <trkpt lat="44.27092" lon="2.5253">
        <ele>706</ele>
        <time>2022-06-12T09:41:25.645Z</time>
      </trkpt>
      <trkpt lat="44.27093" lon="2.52529">
        <ele>706</ele>
        <time>2022-06-12T09:41:26.645Z</time>
      </trkpt>
      <trkpt lat="44.27094" lon="2.52528">
        <ele>706</ele>
        <time>2022-06-12T09:41:27.645Z</time>
      </trkpt>
      <trkpt lat="44.27095" lon="2.52528">
        <ele>707</ele>
        <time>2022-06-12T09:41:28.645Z</time>
      </trkpt>
      <trkpt lat="44.27096" lon="2.52527">
        <ele>707</ele>
        <time>2022-06-12T09:41:29.645Z</time>
      </trkpt>
      <trkpt lat="44.27096" lon="2.52526">
        <ele>707</ele>
        <time>2022-06-12T09:41:30.645Z</time>
      </trkpt>
      <trkpt lat="44.27097" lon="2.52525">
        <ele>707</ele>
        <time>2022-06-12T09:41:31.645Z</time>
      </trkpt>
      <trkpt lat="44.27097" lon="2.52524">
        <ele>707</ele>
        <time>2022-06-12T09:41:32.645Z</time>
      </trkpt>
      <trkpt lat="44.27098" lon="2.52524">
        <ele>707</ele>
        <time>2022-06-12T09:41:33.645Z</time>
      </trkpt>
      <trkpt lat="44.27099" lon="2.52523">
        <ele>707</ele>
        <time>2022-06-12T09:41:34.645Z</time>
      </trkpt>
      <trkpt lat="44.27099" lon="2.52522">
        <ele>708</ele>
        <time>2022-06-12T09:41:35.645Z</time>
      </trkpt>
      <trkpt lat="44.271" lon="2.52521">
        <ele>708</ele>
        <time>2022-06-12T09:41:36.645Z</time>
      </trkpt>
      <trkpt lat="44.271" lon="2.5252">
        <ele>708</ele>
        <time>2022-06-12T09:41:37.645Z</time>
      </trkpt>
      <trkpt lat="44.27101" lon="2.5252">
        <ele>708</ele>
        <time>2022-06-12T09:41:38.645Z</time>
      </trkpt>
      <trkpt lat="44.27102" lon="2.52519">
        <ele>708</ele>
        <time>2022-06-12T09:41:39.645Z</time>
      </trkpt>
      <trkpt lat="44.27102" lon="2.52518">
        <ele>708</ele>
        <time>2022-06-12T09:41:40.645Z</time>
      </trkpt>
      <trkpt lat="44.27103" lon="2.52517">
        <ele>708</ele>
        <time>2022-06-12T09:41:41.645Z</time>
      </trkpt>
      <trkpt lat="44.27104" lon="2.52516">
        <ele>708</ele>
        <time>2022-06-12T09:41:42.645Z</time>
      </trkpt>
      <trkpt lat="44.27104" lon="2.52515">
        <ele>709</ele>
        <time>2022-06-12T09:41:43.645Z</time>
      </trkpt>
      <trkpt lat="44.27105" lon="2.52514">
        <ele>709</ele>
        <time>2022-06-12T09:41:44.645Z</time>
      </trkpt>
      <trkpt lat="44.27106" lon="2.52513">
        <ele>709</ele>
        <time>2022-06-12T09:41:45.645Z</time>
      </trkpt>
      <trkpt lat="44.27106" lon="2.52512">
        <ele>709</ele>
        <time>2022-06-12T09:41:46.645Z</time>
      </trkpt>
      <trkpt lat="44.27107" lon="2.52511">
        <ele>709</ele>
        <time>2022-06-12T09:41:47.645Z</time>
      </trkpt>
      <trkpt lat="44.27108" lon="2.5251">
        <ele>709</ele>
        <time>2022-06-12T09:41:48.645Z</time>
      </trkpt>
      <trkpt lat="44.27109" lon="2.52509">
        <ele>710</ele>
        <time>2022-06-12T09:41:49.645Z</time>
      </trkpt>
      <trkpt lat="44.27109" lon="2.52509">
        <ele>710</ele>
        <time>2022-06-12T09:41:50.645Z</time>
      </trkpt>
      <trkpt lat="44.2711" lon="2.52508">
        <ele>710</ele>
        <time>2022-06-12T09:41:51.645Z</time>
      </trkpt>
      <trkpt lat="44.27111" lon="2.52507">
        <ele>710</ele>
        <time>2022-06-12T09:41:52.645Z</time>
      </trkpt>
      <trkpt lat="44.27112" lon="2.52506">
        <ele>710</ele>
        <time>2022-06-12T09:41:53.645Z</time>
      </trkpt>
      <trkpt lat="44.27113" lon="2.52504">
        <ele>710</ele>
        <time>2022-06-12T09:41:54.645Z</time>
      </trkpt>
      <trkpt lat="44.27113" lon="2.52503">
        <ele>711</ele>
        <time>2022-06-12T09:41:55.645Z</time>
      </trkpt>
      <trkpt lat="44.27114" lon="2.52502">
        <ele>711</ele>
        <time>2022-06-12T09:41:56.645Z</time>
      </trkpt>
      <trkpt lat="44.27115" lon="2.52501">
        <ele>711</ele>
        <time>2022-06-12T09:41:57.645Z</time>
      </trkpt>
      <trkpt lat="44.27116" lon="2.525">
        <ele>711</ele>
        <time>2022-06-12T09:41:58.645Z</time>
      </trkpt>
      <trkpt lat="44.27117" lon="2.52499">
        <ele>711</ele>
        <time>2022-06-12T09:41:59.645Z</time>
      </trkpt>
      <trkpt lat="44.27118" lon="2.52498">
        <ele>711</ele>
        <time>2022-06-12T09:42:00.645Z</time>
      </trkpt>
      <trkpt lat="44.27118" lon="2.52497">
        <ele>711</ele>
        <time>2022-06-12T09:42:01.645Z</time>
      </trkpt>
      <trkpt lat="44.27119" lon="2.52495">
        <ele>712</ele>
        <time>2022-06-12T09:42:02.645Z</time>
      </trkpt>
      <trkpt lat="44.2712" lon="2.52494">
        <ele>712</ele>
        <time>2022-06-12T09:42:03.645Z</time>
      </trkpt>
      <trkpt lat="44.2712" lon="2.52493">
        <ele>712</ele>
        <time>2022-06-12T09:42:04.645Z</time>
      </trkpt>
      <trkpt lat="44.27121" lon="2.52492">
        <ele>712</ele>
        <time>2022-06-12T09:42:05.645Z</time>
      </trkpt>
      <trkpt lat="44.27122" lon="2.52491">
        <ele>712</ele>
        <time>2022-06-12T09:42:06.645Z</time>
      </trkpt>
      <trkpt lat="44.27123" lon="2.5249">
        <ele>712</ele>
        <time>2022-06-12T09:42:07.645Z</time>
      </trkpt>
      <trkpt lat="44.27123" lon="2.52489">
        <ele>712</ele>
        <time>2022-06-12T09:42:08.645Z</time>
      </trkpt>
      <trkpt lat="44.27124" lon="2.52488">
        <ele>712</ele>
        <time>2022-06-12T09:42:09.645Z</time>
      </trkpt>
      <trkpt lat="44.27125" lon="2.52487">
        <ele>712</ele>
        <time>2022-06-12T09:42:10.645Z</time>
      </trkpt>
      <trkpt lat="44.27125" lon="2.52486">
        <ele>712</ele>
        <time>2022-06-12T09:42:11.645Z</time>
      </trkpt>
      <trkpt lat="44.27126" lon="2.52485">
        <ele>712</ele>
        <time>2022-06-12T09:42:12.645Z</time>
      </trkpt>
      <trkpt lat="44.27127" lon="2.52484">
        <ele>712</ele>
        <time>2022-06-12T09:42:13.645Z</time>
      </trkpt>
      <trkpt lat="44.27127" lon="2.52483">
        <ele>712</ele>
        <time>2022-06-12T09:42:14.645Z</time>
      </trkpt>
      <trkpt lat="44.27128" lon="2.52483">
        <ele>712</ele>
        <time>2022-06-12T09:42:15.645Z</time>
      </trkpt>
      <trkpt lat="44.27129" lon="2.52482">
        <ele>712</ele>
        <time>2022-06-12T09:42:16.645Z</time>
      </trkpt>
      <trkpt lat="44.2713" lon="2.52482">
        <ele>713</ele>
        <time>2022-06-12T09:42:17.645Z</time>
      </trkpt>
      <trkpt lat="44.2713" lon="2.52481">
        <ele>713</ele>
        <time>2022-06-12T09:42:18.645Z</time>
      </trkpt>
      <trkpt lat="44.27131" lon="2.5248">
        <ele>713</ele>
        <time>2022-06-12T09:42:19.645Z</time>
      </trkpt>
      <trkpt lat="44.27132" lon="2.52479">
        <ele>713</ele>
        <time>2022-06-12T09:42:20.645Z</time>
      </trkpt>
      <trkpt lat="44.27132" lon="2.52478">
        <ele>713</ele>
        <time>2022-06-12T09:42:21.645Z</time>
      </trkpt>
      <trkpt lat="44.27133" lon="2.52477">
        <ele>713</ele>
        <time>2022-06-12T09:42:22.645Z</time>
      </trkpt>
      <trkpt lat="44.27133" lon="2.52477">
        <ele>713</ele>
        <time>2022-06-12T09:42:23.645Z</time>
      </trkpt>
      <trkpt lat="44.27134" lon="2.52476">
        <ele>713</ele>
        <time>2022-06-12T09:42:24.645Z</time>
      </trkpt>
      <trkpt lat="44.27135" lon="2.52475">
        <ele>713</ele>
        <time>2022-06-12T09:42:25.645Z</time>
      </trkpt>
      <trkpt lat="44.27135" lon="2.52474">
        <ele>714</ele>
        <time>2022-06-12T09:42:26.645Z</time>
      </trkpt>
      <trkpt lat="44.27136" lon="2.52474">
        <ele>714</ele>
        <time>2022-06-12T09:42:27.645Z</time>
      </trkpt>
      <trkpt lat="44.27137" lon="2.52473">
        <ele>714</ele>
        <time>2022-06-12T09:42:28.645Z</time>
      </trkpt>
      <trkpt lat="44.27137" lon="2.52472">
        <ele>714</ele>
        <time>2022-06-12T09:42:29.645Z</time>
      </trkpt>
      <trkpt lat="44.27138" lon="2.52471">
        <ele>714</ele>
        <time>2022-06-12T09:42:30.645Z</time>
      </trkpt>
      <trkpt lat="44.27139" lon="2.5247">
        <ele>714</ele>
        <time>2022-06-12T09:42:31.645Z</time>
      </trkpt>
      <trkpt lat="44.2714" lon="2.52469">
        <ele>714</ele>
        <time>2022-06-12T09:42:32.645Z</time>
      </trkpt>
      <trkpt lat="44.2714" lon="2.52468">
        <ele>714</ele>
        <time>2022-06-12T09:42:33.645Z</time>
      </trkpt>
      <trkpt lat="44.27141" lon="2.52467">
        <ele>714</ele>
        <time>2022-06-12T09:42:34.645Z</time>
      </trkpt>
      <trkpt lat="44.27142" lon="2.52467">
        <ele>714</ele>
        <time>2022-06-12T09:42:35.645Z</time>
      </trkpt>
      <trkpt lat="44.27143" lon="2.52466">
        <ele>714</ele>
        <time>2022-06-12T09:42:36.645Z</time>
      </trkpt>
      <trkpt lat="44.27143" lon="2.52465">
        <ele>714</ele>
        <time>2022-06-12T09:42:37.645Z</time>
      </trkpt>
      <trkpt lat="44.27144" lon="2.52464">
        <ele>715</ele>
        <time>2022-06-12T09:42:38.645Z</time>
      </trkpt>
      <trkpt lat="44.27145" lon="2.52464">
        <ele>715</ele>
        <time>2022-06-12T09:42:39.645Z</time>
      </trkpt>
      <trkpt lat="44.27145" lon="2.52463">
        <ele>715</ele>
        <time>2022-06-12T09:42:40.645Z</time>
      </trkpt>
      <trkpt lat="44.27146" lon="2.52462">
        <ele>715</ele>
        <time>2022-06-12T09:42:41.645Z</time>
      </trkpt>
      <trkpt lat="44.27146" lon="2.52461">
        <ele>715</ele>
        <time>2022-06-12T09:42:42.645Z</time>
      </trkpt>
      <trkpt lat="44.27146" lon="2.52461">
        <ele>715</ele>
        <time>2022-06-12T09:42:43.645Z</time>
      </trkpt>
      <trkpt lat="44.27146" lon="2.5246">
        <ele>715</ele>
        <time>2022-06-12T09:42:44.645Z</time>
      </trkpt>
      <trkpt lat="44.27146" lon="2.52457">
        <ele>715</ele>
        <time>2022-06-12T09:42:47.899Z</time>
      </trkpt>
      <trkpt lat="44.27146" lon="2.52456">
        <ele>715</ele>
        <time>2022-06-12T09:42:48.899Z</time>
      </trkpt>
      <trkpt lat="44.27149" lon="2.52451">
        <ele>717</ele>
        <time>2022-06-12T09:43:14.148Z</time>
      </trkpt>
      <trkpt lat="44.27149" lon="2.5245">
        <ele>717</ele>
        <time>2022-06-12T09:43:15.148Z</time>
      </trkpt>
      <trkpt lat="44.2715" lon="2.5245">
        <ele>717</ele>
        <time>2022-06-12T09:43:16.148Z</time>
      </trkpt>
      <trkpt lat="44.2715" lon="2.52449">
        <ele>717</ele>
        <time>2022-06-12T09:43:17.148Z</time>
      </trkpt>
      <trkpt lat="44.27151" lon="2.52448">
        <ele>717</ele>
        <time>2022-06-12T09:43:18.148Z</time>
      </trkpt>
      <trkpt lat="44.27151" lon="2.52448">
        <ele>717</ele>
        <time>2022-06-12T09:43:19.148Z</time>
      </trkpt>
      <trkpt lat="44.27152" lon="2.52447">
        <ele>717</ele>
        <time>2022-06-12T09:43:20.148Z</time>
      </trkpt>
      <trkpt lat="44.27152" lon="2.52446">
        <ele>717</ele>
        <time>2022-06-12T09:43:21.148Z</time>
      </trkpt>
      <trkpt lat="44.27153" lon="2.52445">
        <ele>717</ele>
        <time>2022-06-12T09:43:22.148Z</time>
      </trkpt>
      <trkpt lat="44.27153" lon="2.52444">
        <ele>717</ele>
        <time>2022-06-12T09:43:23.148Z</time>
      </trkpt>
      <trkpt lat="44.27153" lon="2.52444">
        <ele>717</ele>
        <time>2022-06-12T09:43:24.148Z</time>
      </trkpt>
      <trkpt lat="44.27153" lon="2.52444">
        <ele>717</ele>
        <time>2022-06-12T09:43:25.148Z</time>
      </trkpt>
      <trkpt lat="44.27158" lon="2.52437">
        <ele>720</ele>
        <time>2022-06-12T09:47:19.168Z</time>
      </trkpt>
      <trkpt lat="44.27159" lon="2.52437">
        <ele>720</ele>
        <time>2022-06-12T09:47:20.168Z</time>
      </trkpt>
      <trkpt lat="44.27159" lon="2.52436">
        <ele>720</ele>
        <time>2022-06-12T09:47:21.168Z</time>
      </trkpt>
      <trkpt lat="44.2716" lon="2.52435">
        <ele>720</ele>
        <time>2022-06-12T09:47:22.168Z</time>
      </trkpt>
      <trkpt lat="44.27161" lon="2.52434">
        <ele>720</ele>
        <time>2022-06-12T09:47:23.168Z</time>
      </trkpt>
      <trkpt lat="44.27162" lon="2.52433">
        <ele>720</ele>
        <time>2022-06-12T09:47:24.168Z</time>
      </trkpt>
      <trkpt lat="44.27163" lon="2.52432">
        <ele>720</ele>
        <time>2022-06-12T09:47:25.168Z</time>
      </trkpt>
      <trkpt lat="44.27164" lon="2.52431">
        <ele>721</ele>
        <time>2022-06-12T09:47:26.168Z</time>
      </trkpt>
      <trkpt lat="44.27165" lon="2.52431">
        <ele>721</ele>
        <time>2022-06-12T09:47:27.168Z</time>
      </trkpt>
      <trkpt lat="44.27166" lon="2.5243">
        <ele>721</ele>
        <time>2022-06-12T09:47:28.168Z</time>
      </trkpt>
      <trkpt lat="44.27167" lon="2.52429">
        <ele>721</ele>
        <time>2022-06-12T09:47:29.168Z</time>
      </trkpt>
      <trkpt lat="44.27168" lon="2.52428">
        <ele>721</ele>
        <time>2022-06-12T09:47:30.168Z</time>
      </trkpt>
      <trkpt lat="44.27169" lon="2.52428">
        <ele>721</ele>
        <time>2022-06-12T09:47:31.168Z</time>
      </trkpt>
      <trkpt lat="44.27169" lon="2.52427">
        <ele>721</ele>
        <time>2022-06-12T09:47:32.168Z</time>
      </trkpt>
      <trkpt lat="44.27171" lon="2.52426">
        <ele>721</ele>
        <time>2022-06-12T09:47:33.168Z</time>
      </trkpt>
      <trkpt lat="44.27172" lon="2.52425">
        <ele>721</ele>
        <time>2022-06-12T09:47:34.168Z</time>
      </trkpt>
      <trkpt lat="44.27173" lon="2.52425">
        <ele>721</ele>
        <time>2022-06-12T09:47:35.168Z</time>
      </trkpt>
      <trkpt lat="44.27174" lon="2.52424">
        <ele>721</ele>
        <time>2022-06-12T09:47:36.168Z</time>
      </trkpt>
      <trkpt lat="44.27175" lon="2.52423">
        <ele>721</ele>
        <time>2022-06-12T09:47:37.168Z</time>
      </trkpt>
      <trkpt lat="44.27175" lon="2.52423">
        <ele>721</ele>
        <time>2022-06-12T09:47:38.168Z</time>
      </trkpt>
      <trkpt lat="44.27176" lon="2.52422">
        <ele>722</ele>
        <time>2022-06-12T09:47:39.168Z</time>
      </trkpt>
      <trkpt lat="44.27176" lon="2.52421">
        <ele>722</ele>
        <time>2022-06-12T09:47:40.168Z</time>
      </trkpt>
      <trkpt lat="44.27177" lon="2.5242">
        <ele>722</ele>
        <time>2022-06-12T09:47:41.168Z</time>
      </trkpt>
      <trkpt lat="44.27177" lon="2.52419">
        <ele>722</ele>
        <time>2022-06-12T09:47:42.168Z</time>
      </trkpt>
      <trkpt lat="44.27178" lon="2.52417">
        <ele>722</ele>
        <time>2022-06-12T09:47:43.168Z</time>
      </trkpt>
      <trkpt lat="44.27179" lon="2.52416">
        <ele>722</ele>
        <time>2022-06-12T09:47:44.168Z</time>
      </trkpt>
      <trkpt lat="44.2718" lon="2.52415">
        <ele>723</ele>
        <time>2022-06-12T09:47:45.168Z</time>
      </trkpt>
      <trkpt lat="44.27181" lon="2.52415">
        <ele>723</ele>
        <time>2022-06-12T09:47:46.168Z</time>
      </trkpt>
      <trkpt lat="44.27182" lon="2.52414">
        <ele>723</ele>
        <time>2022-06-12T09:47:47.168Z</time>
      </trkpt>
      <trkpt lat="44.27183" lon="2.52413">
        <ele>723</ele>
        <time>2022-06-12T09:47:48.168Z</time>
      </trkpt>
      <trkpt lat="44.27184" lon="2.52412">
        <ele>723</ele>
        <time>2022-06-12T09:47:49.168Z</time>
      </trkpt>
      <trkpt lat="44.27185" lon="2.52411">
        <ele>723</ele>
        <time>2022-06-12T09:47:50.168Z</time>
      </trkpt>
      <trkpt lat="44.27185" lon="2.5241">
        <ele>723</ele>
        <time>2022-06-12T09:47:51.168Z</time>
      </trkpt>
      <trkpt lat="44.27186" lon="2.52409">
        <ele>723</ele>
        <time>2022-06-12T09:47:52.168Z</time>
      </trkpt>
      <trkpt lat="44.27187" lon="2.52409">
        <ele>724</ele>
        <time>2022-06-12T09:47:53.168Z</time>
      </trkpt>
      <trkpt lat="44.27188" lon="2.52408">
        <ele>724</ele>
        <time>2022-06-12T09:47:54.168Z</time>
      </trkpt>
      <trkpt lat="44.27189" lon="2.52407">
        <ele>724</ele>
        <time>2022-06-12T09:47:55.168Z</time>
      </trkpt>
      <trkpt lat="44.2719" lon="2.52406">
        <ele>724</ele>
        <time>2022-06-12T09:47:56.168Z</time>
      </trkpt>
      <trkpt lat="44.27191" lon="2.52405">
        <ele>724</ele>
        <time>2022-06-12T09:47:57.168Z</time>
      </trkpt>
      <trkpt lat="44.27192" lon="2.52404">
        <ele>724</ele>
        <time>2022-06-12T09:47:58.168Z</time>
      </trkpt>
      <trkpt lat="44.27192" lon="2.52404">
        <ele>724</ele>
        <time>2022-06-12T09:47:59.168Z</time>
      </trkpt>
      <trkpt lat="44.27192" lon="2.52404">
        <ele>724</ele>
        <time>2022-06-12T09:48:00.168Z</time>
      </trkpt>
      <trkpt lat="44.27192" lon="2.52404">
        <ele>724</ele>
        <time>2022-06-12T09:48:01.168Z</time>
      </trkpt>
      <trkpt lat="44.27192" lon="2.52403">
        <ele>724</ele>
        <time>2022-06-12T09:48:02.168Z</time>
      </trkpt>
      <trkpt lat="44.27193" lon="2.52399">
        <ele>724</ele>
        <time>2022-06-12T09:48:23.172Z</time>
      </trkpt>
      <trkpt lat="44.27194" lon="2.52399">
        <ele>724</ele>
        <time>2022-06-12T09:48:24.172Z</time>
      </trkpt>
      <trkpt lat="44.27196" lon="2.52398">
        <ele>724</ele>
        <time>2022-06-12T09:48:25.172Z</time>
      </trkpt>
      <trkpt lat="44.27197" lon="2.52397">
        <ele>724</ele>
        <time>2022-06-12T09:48:26.172Z</time>
      </trkpt>
      <trkpt lat="44.27198" lon="2.52396">
        <ele>724</ele>
        <time>2022-06-12T09:48:27.172Z</time>
      </trkpt>
      <trkpt lat="44.27199" lon="2.52395">
        <ele>724</ele>
        <time>2022-06-12T09:48:28.172Z</time>
      </trkpt>
      <trkpt lat="44.272" lon="2.52394">
        <ele>724</ele>
        <time>2022-06-12T09:48:29.172Z</time>
      </trkpt>
      <trkpt lat="44.27201" lon="2.52393">
        <ele>724</ele>
        <time>2022-06-12T09:48:30.172Z</time>
      </trkpt>
      <trkpt lat="44.27202" lon="2.52393">
        <ele>724</ele>
        <time>2022-06-12T09:48:31.172Z</time>
      </trkpt>
      <trkpt lat="44.27203" lon="2.52392">
        <ele>724</ele>
        <time>2022-06-12T09:48:32.172Z</time>
      </trkpt>
      <trkpt lat="44.27204" lon="2.52391">
        <ele>724</ele>
        <time>2022-06-12T09:48:33.172Z</time>
      </trkpt>
      <trkpt lat="44.27205" lon="2.5239">
        <ele>724</ele>
        <time>2022-06-12T09:48:34.172Z</time>
      </trkpt>
      <trkpt lat="44.27206" lon="2.52389">
        <ele>724</ele>
        <time>2022-06-12T09:48:35.172Z</time>
      </trkpt>
      <trkpt lat="44.27207" lon="2.52388">
        <ele>724</ele>
        <time>2022-06-12T09:48:36.172Z</time>
      </trkpt>
      <trkpt lat="44.27208" lon="2.52387">
        <ele>724</ele>
        <time>2022-06-12T09:48:37.172Z</time>
      </trkpt>
      <trkpt lat="44.2721" lon="2.52386">
        <ele>724</ele>
        <time>2022-06-12T09:48:38.172Z</time>
      </trkpt>
      <trkpt lat="44.27211" lon="2.52384">
        <ele>724</ele>
        <time>2022-06-12T09:48:39.172Z</time>
      </trkpt>
      <trkpt lat="44.27211" lon="2.52383">
        <ele>724</ele>
        <time>2022-06-12T09:48:40.172Z</time>
      </trkpt>
      <trkpt lat="44.27212" lon="2.52382">
        <ele>724</ele>
        <time>2022-06-12T09:48:41.172Z</time>
      </trkpt>
      <trkpt lat="44.27213" lon="2.52381">
        <ele>724</ele>
        <time>2022-06-12T09:48:42.172Z</time>
      </trkpt>
      <trkpt lat="44.27215" lon="2.5238">
        <ele>724</ele>
        <time>2022-06-12T09:48:43.172Z</time>
      </trkpt>
      <trkpt lat="44.27216" lon="2.5238">
        <ele>724</ele>
        <time>2022-06-12T09:48:44.172Z</time>
      </trkpt>
      <trkpt lat="44.27217" lon="2.52379">
        <ele>723</ele>
        <time>2022-06-12T09:48:45.172Z</time>
      </trkpt>
      <trkpt lat="44.27217" lon="2.52378">
        <ele>723</ele>
        <time>2022-06-12T09:48:46.172Z</time>
      </trkpt>
      <trkpt lat="44.27218" lon="2.52378">
        <ele>723</ele>
        <time>2022-06-12T09:48:47.172Z</time>
      </trkpt>
      <trkpt lat="44.2722" lon="2.52377">
        <ele>723</ele>
        <time>2022-06-12T09:48:48.172Z</time>
      </trkpt>
      <trkpt lat="44.27221" lon="2.52376">
        <ele>723</ele>
        <time>2022-06-12T09:48:49.172Z</time>
      </trkpt>
      <trkpt lat="44.27222" lon="2.52376">
        <ele>723</ele>
        <time>2022-06-12T09:48:50.172Z</time>
      </trkpt>
      <trkpt lat="44.27222" lon="2.52375">
        <ele>723</ele>
        <time>2022-06-12T09:48:51.172Z</time>
      </trkpt>
      <trkpt lat="44.27223" lon="2.52374">
        <ele>723</ele>
        <time>2022-06-12T09:48:52.172Z</time>
      </trkpt>
      <trkpt lat="44.27224" lon="2.52374">
        <ele>723</ele>
        <time>2022-06-12T09:48:53.172Z</time>
      </trkpt>
      <trkpt lat="44.27225" lon="2.52373">
        <ele>723</ele>
        <time>2022-06-12T09:48:54.172Z</time>
      </trkpt>
      <trkpt lat="44.27226" lon="2.52372">
        <ele>723</ele>
        <time>2022-06-12T09:48:55.172Z</time>
      </trkpt>
      <trkpt lat="44.27227" lon="2.52371">
        <ele>723</ele>
        <time>2022-06-12T09:48:56.172Z</time>
      </trkpt>
      <trkpt lat="44.27228" lon="2.52371">
        <ele>723</ele>
        <time>2022-06-12T09:48:57.172Z</time>
      </trkpt>
      <trkpt lat="44.27229" lon="2.5237">
        <ele>723</ele>
        <time>2022-06-12T09:48:58.172Z</time>
      </trkpt>
      <trkpt lat="44.2723" lon="2.52369">
        <ele>724</ele>
        <time>2022-06-12T09:48:59.172Z</time>
      </trkpt>
      <trkpt lat="44.27231" lon="2.52369">
        <ele>724</ele>
        <time>2022-06-12T09:49:00.172Z</time>
      </trkpt>
      <trkpt lat="44.27232" lon="2.52368">
        <ele>724</ele>
        <time>2022-06-12T09:49:01.172Z</time>
      </trkpt>
      <trkpt lat="44.27233" lon="2.52367">
        <ele>724</ele>
        <time>2022-06-12T09:49:02.172Z</time>
      </trkpt>
      <trkpt lat="44.27233" lon="2.52366">
        <ele>724</ele>
        <time>2022-06-12T09:49:03.172Z</time>
      </trkpt>
      <trkpt lat="44.27234" lon="2.52366">
        <ele>724</ele>
        <time>2022-06-12T09:49:04.172Z</time>
      </trkpt>
      <trkpt lat="44.27235" lon="2.52365">
        <ele>725</ele>
        <time>2022-06-12T09:49:05.172Z</time>
      </trkpt>
      <trkpt lat="44.27236" lon="2.52365">
        <ele>725</ele>
        <time>2022-06-12T09:49:06.172Z</time>
      </trkpt>
      <trkpt lat="44.27237" lon="2.52364">
        <ele>725</ele>
        <time>2022-06-12T09:49:07.172Z</time>
      </trkpt>
      <trkpt lat="44.27237" lon="2.52363">
        <ele>725</ele>
        <time>2022-06-12T09:49:08.172Z</time>
      </trkpt>
      <trkpt lat="44.27238" lon="2.52362">
        <ele>726</ele>
        <time>2022-06-12T09:49:09.172Z</time>
      </trkpt>
      <trkpt lat="44.27239" lon="2.52362">
        <ele>726</ele>
        <time>2022-06-12T09:49:10.172Z</time>
      </trkpt>
      <trkpt lat="44.2724" lon="2.52361">
        <ele>726</ele>
        <time>2022-06-12T09:49:11.172Z</time>
      </trkpt>
      <trkpt lat="44.27241" lon="2.52361">
        <ele>726</ele>
        <time>2022-06-12T09:49:12.172Z</time>
      </trkpt>
      <trkpt lat="44.27242" lon="2.5236">
        <ele>726</ele>
        <time>2022-06-12T09:49:13.172Z</time>
      </trkpt>
      <trkpt lat="44.27242" lon="2.52359">
        <ele>727</ele>
        <time>2022-06-12T09:49:14.172Z</time>
      </trkpt>
      <trkpt lat="44.27243" lon="2.52359">
        <ele>727</ele>
        <time>2022-06-12T09:49:15.172Z</time>
      </trkpt>
      <trkpt lat="44.27243" lon="2.52359">
        <ele>727</ele>
        <time>2022-06-12T09:49:16.172Z</time>
      </trkpt>
      <trkpt lat="44.27243" lon="2.52359">
        <ele>727</ele>
        <time>2022-06-12T09:49:17.172Z</time>
      </trkpt>
      <trkpt lat="44.27244" lon="2.52358">
        <ele>727</ele>
        <time>2022-06-12T09:49:18.172Z</time>
      </trkpt>
      <trkpt lat="44.27245" lon="2.52358">
        <ele>727</ele>
        <time>2022-06-12T09:49:19.172Z</time>
      </trkpt>
      <trkpt lat="44.27245" lon="2.52357">
        <ele>727</ele>
        <time>2022-06-12T09:49:20.172Z</time>
      </trkpt>
      <trkpt lat="44.27245" lon="2.52357">
        <ele>727</ele>
        <time>2022-06-12T09:49:21.172Z</time>
      </trkpt>
      <trkpt lat="44.27245" lon="2.52357">
        <ele>728</ele>
        <time>2022-06-12T09:49:22.172Z</time>
      </trkpt>
      <trkpt lat="44.27246" lon="2.52356">
        <ele>728</ele>
        <time>2022-06-12T09:49:23.172Z</time>
      </trkpt>
      <trkpt lat="44.27246" lon="2.52355">
        <ele>728</ele>
        <time>2022-06-12T09:49:24.172Z</time>
      </trkpt>
      <trkpt lat="44.27247" lon="2.52355">
        <ele>728</ele>
        <time>2022-06-12T09:49:25.172Z</time>
      </trkpt>
      <trkpt lat="44.27248" lon="2.52354">
        <ele>728</ele>
        <time>2022-06-12T09:49:26.172Z</time>
      </trkpt>
      <trkpt lat="44.27249" lon="2.52354">
        <ele>728</ele>
        <time>2022-06-12T09:49:27.172Z</time>
      </trkpt>
      <trkpt lat="44.2725" lon="2.52354">
        <ele>729</ele>
        <time>2022-06-12T09:49:28.172Z</time>
      </trkpt>
      <trkpt lat="44.2725" lon="2.52354">
        <ele>729</ele>
        <time>2022-06-12T09:49:29.172Z</time>
      </trkpt>
      <trkpt lat="44.27251" lon="2.52353">
        <ele>729</ele>
        <time>2022-06-12T09:49:30.172Z</time>
      </trkpt>
      <trkpt lat="44.27252" lon="2.52353">
        <ele>729</ele>
        <time>2022-06-12T09:49:31.172Z</time>
      </trkpt>
      <trkpt lat="44.27252" lon="2.52352">
        <ele>729</ele>
        <time>2022-06-12T09:49:32.172Z</time>
      </trkpt>
      <trkpt lat="44.27253" lon="2.52352">
        <ele>730</ele>
        <time>2022-06-12T09:49:33.172Z</time>
      </trkpt>
      <trkpt lat="44.27254" lon="2.52352">
        <ele>730</ele>
        <time>2022-06-12T09:49:34.172Z</time>
      </trkpt>
      <trkpt lat="44.27254" lon="2.52352">
        <ele>730</ele>
        <time>2022-06-12T09:49:35.172Z</time>
      </trkpt>
      <trkpt lat="44.27254" lon="2.52352">
        <ele>730</ele>
        <time>2022-06-12T09:49:36.172Z</time>
      </trkpt>
      <trkpt lat="44.27254" lon="2.52352">
        <ele>730</ele>
        <time>2022-06-12T09:49:37.172Z</time>
      </trkpt>
      <trkpt lat="44.27256" lon="2.52351">
        <ele>731</ele>
        <time>2022-06-12T09:49:50.177Z</time>
      </trkpt>
      <trkpt lat="44.27256" lon="2.5235">
        <ele>731</ele>
        <time>2022-06-12T09:49:51.177Z</time>
      </trkpt>
      <trkpt lat="44.27256" lon="2.5235">
        <ele>731</ele>
        <time>2022-06-12T09:49:52.177Z</time>
      </trkpt>
      <trkpt lat="44.27257" lon="2.52349">
        <ele>731</ele>
        <time>2022-06-12T09:49:53.177Z</time>
      </trkpt>
      <trkpt lat="44.27258" lon="2.52349">
        <ele>732</ele>
        <time>2022-06-12T09:49:54.177Z</time>
      </trkpt>
      <trkpt lat="44.27259" lon="2.52349">
        <ele>732</ele>
        <time>2022-06-12T09:49:55.177Z</time>
      </trkpt>
      <trkpt lat="44.27259" lon="2.52349">
        <ele>732</ele>
        <time>2022-06-12T09:49:56.177Z</time>
      </trkpt>
      <trkpt lat="44.2726" lon="2.5235">
        <ele>732</ele>
        <time>2022-06-12T09:49:57.177Z</time>
      </trkpt>
      <trkpt lat="44.27261" lon="2.5235">
        <ele>732</ele>
        <time>2022-06-12T09:49:58.177Z</time>
      </trkpt>
      <trkpt lat="44.2726" lon="2.52351">
        <ele>732</ele>
        <time>2022-06-12T09:49:59.177Z</time>
      </trkpt>
      <trkpt lat="44.2726" lon="2.52351">
        <ele>732</ele>
        <time>2022-06-12T09:50:00.177Z</time>
      </trkpt>
      <trkpt lat="44.2726" lon="2.52351">
        <ele>732</ele>
        <time>2022-06-12T09:50:01.177Z</time>
      </trkpt>
      <trkpt lat="44.27261" lon="2.52351">
        <ele>731</ele>
        <time>2022-06-12T09:50:02.177Z</time>
      </trkpt>
      <trkpt lat="44.27261" lon="2.52349">
        <ele>731</ele>
        <time>2022-06-12T09:51:01.180Z</time>
      </trkpt>
      <trkpt lat="44.27261" lon="2.52349">
        <ele>731</ele>
        <time>2022-06-12T09:51:02.180Z</time>
      </trkpt>
      <trkpt lat="44.2726" lon="2.52348">
        <ele>731</ele>
        <time>2022-06-12T09:51:03.180Z</time>
      </trkpt>
      <trkpt lat="44.2726" lon="2.52348">
        <ele>731</ele>
        <time>2022-06-12T09:51:04.180Z</time>
      </trkpt>
      <trkpt lat="44.2726" lon="2.52347">
        <ele>731</ele>
        <time>2022-06-12T09:51:05.180Z</time>
      </trkpt>
      <trkpt lat="44.2726" lon="2.52346">
        <ele>731</ele>
        <time>2022-06-12T09:51:06.180Z</time>
      </trkpt>
      <trkpt lat="44.2726" lon="2.52346">
        <ele>731</ele>
        <time>2022-06-12T09:51:07.180Z</time>
      </trkpt>
      <trkpt lat="44.2726" lon="2.52345">
        <ele>731</ele>
        <time>2022-06-12T09:51:08.180Z</time>
      </trkpt>
      <trkpt lat="44.27259" lon="2.52342">
        <ele>731</ele>
        <time>2022-06-12T09:51:14.182Z</time>
      </trkpt>
      <trkpt lat="44.27259" lon="2.52342">
        <ele>731</ele>
        <time>2022-06-12T09:51:15.182Z</time>
      </trkpt>
      <trkpt lat="44.27259" lon="2.52341">
        <ele>731</ele>
        <time>2022-06-12T09:51:16.182Z</time>
      </trkpt>
      <trkpt lat="44.27259" lon="2.52341">
        <ele>731</ele>
        <time>2022-06-12T09:51:17.182Z</time>
      </trkpt>
      <trkpt lat="44.27259" lon="2.5234">
        <ele>731</ele>
        <time>2022-06-12T09:51:18.182Z</time>
      </trkpt>
      <trkpt lat="44.27259" lon="2.5234">
        <ele>731</ele>
        <time>2022-06-12T09:51:19.182Z</time>
      </trkpt>
      <trkpt lat="44.27258" lon="2.52339">
        <ele>731</ele>
        <time>2022-06-12T09:51:23.187Z</time>
      </trkpt>
      <trkpt lat="44.27258" lon="2.52339">
        <ele>731</ele>
        <time>2022-06-12T09:51:24.187Z</time>
      </trkpt>
      <trkpt lat="44.27259" lon="2.52341">
        <ele>731</ele>
        <time>2022-06-12T09:51:30.191Z</time>
      </trkpt>
      <trkpt lat="44.27259" lon="2.52342">
        <ele>731</ele>
        <time>2022-06-12T09:51:31.191Z</time>
      </trkpt>
      <trkpt lat="44.2726" lon="2.52343">
        <ele>731</ele>
        <time>2022-06-12T09:51:32.191Z</time>
      </trkpt>
      <trkpt lat="44.27261" lon="2.52344">
        <ele>731</ele>
        <time>2022-06-12T09:51:33.191Z</time>
      </trkpt>
      <trkpt lat="44.27261" lon="2.52346">
        <ele>731</ele>
        <time>2022-06-12T09:51:34.191Z</time>
      </trkpt>
      <trkpt lat="44.27262" lon="2.52347">
        <ele>731</ele>
        <time>2022-06-12T09:51:35.191Z</time>
      </trkpt>
      <trkpt lat="44.27262" lon="2.52348">
        <ele>731</ele>
        <time>2022-06-12T09:51:36.191Z</time>
      </trkpt>
      <trkpt lat="44.27262" lon="2.52349">
        <ele>731</ele>
        <time>2022-06-12T09:51:37.191Z</time>
      </trkpt>
      <trkpt lat="44.27263" lon="2.5235">
        <ele>731</ele>
        <time>2022-06-12T09:51:38.191Z</time>
      </trkpt>
      <trkpt lat="44.27263" lon="2.52351">
        <ele>731</ele>
        <time>2022-06-12T09:51:39.191Z</time>
      </trkpt>
      <trkpt lat="44.27263" lon="2.52352">
        <ele>731</ele>
        <time>2022-06-12T09:51:40.191Z</time>
      </trkpt>
      <trkpt lat="44.27264" lon="2.52353">
        <ele>731</ele>
        <time>2022-06-12T09:51:41.191Z</time>
      </trkpt>
      <trkpt lat="44.27264" lon="2.52354">
        <ele>730</ele>
        <time>2022-06-12T09:51:42.191Z</time>
      </trkpt>
      <trkpt lat="44.27264" lon="2.52356">
        <ele>730</ele>
        <time>2022-06-12T09:51:43.191Z</time>
      </trkpt>
      <trkpt lat="44.27265" lon="2.52357">
        <ele>730</ele>
        <time>2022-06-12T09:51:44.191Z</time>
      </trkpt>
      <trkpt lat="44.27265" lon="2.52358">
        <ele>730</ele>
        <time>2022-06-12T09:51:45.191Z</time>
      </trkpt>
      <trkpt lat="44.27266" lon="2.5236">
        <ele>731</ele>
        <time>2022-06-12T09:51:46.191Z</time>
      </trkpt>
      <trkpt lat="44.27266" lon="2.52361">
        <ele>731</ele>
        <time>2022-06-12T09:51:47.191Z</time>
      </trkpt>
      <trkpt lat="44.27266" lon="2.52362">
        <ele>731</ele>
        <time>2022-06-12T09:51:48.191Z</time>
      </trkpt>
      <trkpt lat="44.27267" lon="2.52363">
        <ele>731</ele>
        <time>2022-06-12T09:51:49.191Z</time>
      </trkpt>
      <trkpt lat="44.27266" lon="2.52364">
        <ele>731</ele>
        <time>2022-06-12T09:51:50.191Z</time>
      </trkpt>
      <trkpt lat="44.27266" lon="2.52365">
        <ele>731</ele>
        <time>2022-06-12T09:51:51.191Z</time>
      </trkpt>
      <trkpt lat="44.27265" lon="2.52366">
        <ele>731</ele>
        <time>2022-06-12T09:51:52.191Z</time>
      </trkpt>
      <trkpt lat="44.27265" lon="2.52367">
        <ele>731</ele>
        <time>2022-06-12T09:51:53.191Z</time>
      </trkpt>
      <trkpt lat="44.27265" lon="2.52368">
        <ele>731</ele>
        <time>2022-06-12T09:51:54.191Z</time>
      </trkpt>
      <trkpt lat="44.27264" lon="2.52369">
        <ele>731</ele>
        <time>2022-06-12T09:51:55.191Z</time>
      </trkpt>
      <trkpt lat="44.27264" lon="2.5237">
        <ele>731</ele>
        <time>2022-06-12T09:51:56.191Z</time>
      </trkpt>
      <trkpt lat="44.27264" lon="2.5237">
        <ele>731</ele>
        <time>2022-06-12T09:51:57.191Z</time>
      </trkpt>
      <trkpt lat="44.27263" lon="2.5237">
        <ele>731</ele>
        <time>2022-06-12T09:51:58.191Z</time>
      </trkpt>
      <trkpt lat="44.27263" lon="2.5237">
        <ele>731</ele>
        <time>2022-06-12T09:51:59.191Z</time>
      </trkpt>
      <trkpt lat="44.27263" lon="2.5237">
        <ele>731</ele>
        <time>2022-06-12T09:52:00.191Z</time>
      </trkpt>
      <trkpt lat="44.27263" lon="2.5237">
        <ele>731</ele>
        <time>2022-06-12T09:52:01.191Z</time>
      </trkpt>
      <trkpt lat="44.27271" lon="2.52371">
        <ele>731</ele>
        <time>2022-06-12T09:52:33.195Z</time>
      </trkpt>
      <trkpt lat="44.27272" lon="2.52371">
        <ele>731</ele>
        <time>2022-06-12T09:52:34.195Z</time>
      </trkpt>
      <trkpt lat="44.27272" lon="2.52371">
        <ele>731</ele>
        <time>2022-06-12T09:52:35.195Z</time>
      </trkpt>
      <trkpt lat="44.27273" lon="2.52371">
        <ele>731</ele>
        <time>2022-06-12T09:52:36.195Z</time>
      </trkpt>
      <trkpt lat="44.27274" lon="2.52371">
        <ele>731</ele>
        <time>2022-06-12T09:52:37.195Z</time>
      </trkpt>
      <trkpt lat="44.27274" lon="2.52371">
        <ele>731</ele>
        <time>2022-06-12T09:52:38.195Z</time>
      </trkpt>
      <trkpt lat="44.27274" lon="2.52371">
        <ele>731</ele>
        <time>2022-06-12T09:52:39.195Z</time>
      </trkpt>
      <trkpt lat="44.27273" lon="2.5237">
        <ele>731</ele>
        <time>2022-06-12T09:52:40.195Z</time>
      </trkpt>
      <trkpt lat="44.27279" lon="2.52377">
        <ele>733</ele>
        <time>2022-06-12T09:53:33.200Z</time>
      </trkpt>
      <trkpt lat="44.27279" lon="2.52376">
        <ele>733</ele>
        <time>2022-06-12T09:53:34.200Z</time>
      </trkpt>
      <trkpt lat="44.2728" lon="2.52376">
        <ele>733</ele>
        <time>2022-06-12T09:53:35.200Z</time>
      </trkpt>
      <trkpt lat="44.2728" lon="2.52376">
        <ele>733</ele>
        <time>2022-06-12T09:53:36.200Z</time>
      </trkpt>
      <trkpt lat="44.27281" lon="2.52375">
        <ele>733</ele>
        <time>2022-06-12T09:53:37.200Z</time>
      </trkpt>
      <trkpt lat="44.27281" lon="2.52375">
        <ele>733</ele>
        <time>2022-06-12T09:53:38.200Z</time>
      </trkpt>
      <trkpt lat="44.27282" lon="2.52375">
        <ele>733</ele>
        <time>2022-06-12T09:53:39.200Z</time>
      </trkpt>
      <trkpt lat="44.27282" lon="2.52375">
        <ele>732</ele>
        <time>2022-06-12T09:53:40.200Z</time>
      </trkpt>
      <trkpt lat="44.27283" lon="2.52374">
        <ele>732</ele>
        <time>2022-06-12T09:53:43.454Z</time>
      </trkpt>
      <trkpt lat="44.27284" lon="2.52374">
        <ele>732</ele>
        <time>2022-06-12T09:53:44.454Z</time>
      </trkpt>
      <trkpt lat="44.27284" lon="2.52374">
        <ele>732</ele>
        <time>2022-06-12T09:53:45.454Z</time>
      </trkpt>
      <trkpt lat="44.27284" lon="2.52375">
        <ele>732</ele>
        <time>2022-06-12T09:54:10.448Z</time>
      </trkpt>
      <trkpt lat="44.27283" lon="2.52376">
        <ele>732</ele>
        <time>2022-06-12T09:54:11.448Z</time>
      </trkpt>
      <trkpt lat="44.27283" lon="2.52376">
        <ele>732</ele>
        <time>2022-06-12T09:54:12.448Z</time>
      </trkpt>
      <trkpt lat="44.27283" lon="2.5237">
        <ele>731</ele>
        <time>2022-06-12T09:54:44.454Z</time>
      </trkpt>
      <trkpt lat="44.27283" lon="2.52369">
        <ele>731</ele>
        <time>2022-06-12T09:54:45.454Z</time>
      </trkpt>
      <trkpt lat="44.27283" lon="2.52367">
        <ele>731</ele>
        <time>2022-06-12T09:54:46.454Z</time>
      </trkpt>
      <trkpt lat="44.27283" lon="2.52366">
        <ele>731</ele>
        <time>2022-06-12T09:54:47.454Z</time>
      </trkpt>
      <trkpt lat="44.27283" lon="2.52364">
        <ele>731</ele>
        <time>2022-06-12T09:54:48.454Z</time>
      </trkpt>
      <trkpt lat="44.27283" lon="2.52363">
        <ele>731</ele>
        <time>2022-06-12T09:54:49.454Z</time>
      </trkpt>
      <trkpt lat="44.27283" lon="2.52362">
        <ele>731</ele>
        <time>2022-06-12T09:54:50.454Z</time>
      </trkpt>
      <trkpt lat="44.27282" lon="2.52361">
        <ele>731</ele>
        <time>2022-06-12T09:54:51.454Z</time>
      </trkpt>
      <trkpt lat="44.27282" lon="2.52361">
        <ele>731</ele>
        <time>2022-06-12T09:54:52.454Z</time>
      </trkpt>
      <trkpt lat="44.27282" lon="2.5236">
        <ele>731</ele>
        <time>2022-06-12T09:54:53.454Z</time>
      </trkpt>
      <trkpt lat="44.27282" lon="2.5236">
        <ele>731</ele>
        <time>2022-06-12T09:54:54.454Z</time>
      </trkpt>
      <trkpt lat="44.27281" lon="2.52358">
        <ele>732</ele>
        <time>2022-06-12T09:55:05.459Z</time>
      </trkpt>
      <trkpt lat="44.27281" lon="2.52356">
        <ele>732</ele>
        <time>2022-06-12T09:55:06.459Z</time>
      </trkpt>
      <trkpt lat="44.27281" lon="2.52355">
        <ele>732</ele>
        <time>2022-06-12T09:55:07.459Z</time>
      </trkpt>
      <trkpt lat="44.27281" lon="2.52354">
        <ele>732</ele>
        <time>2022-06-12T09:55:08.459Z</time>
      </trkpt>
      <trkpt lat="44.27281" lon="2.52354">
        <ele>732</ele>
        <time>2022-06-12T09:55:09.459Z</time>
      </trkpt>
      <trkpt lat="44.27281" lon="2.52353">
        <ele>732</ele>
        <time>2022-06-12T09:55:10.459Z</time>
      </trkpt>
      <trkpt lat="44.27281" lon="2.52352">
        <ele>732</ele>
        <time>2022-06-12T09:55:24.463Z</time>
      </trkpt>
      <trkpt lat="44.27282" lon="2.52352">
        <ele>732</ele>
        <time>2022-06-12T09:55:25.463Z</time>
      </trkpt>
      <trkpt lat="44.27282" lon="2.52353">
        <ele>732</ele>
        <time>2022-06-12T09:55:26.463Z</time>
      </trkpt>
      <trkpt lat="44.27282" lon="2.52353">
        <ele>732</ele>
        <time>2022-06-12T09:55:27.463Z</time>
      </trkpt>
      <trkpt lat="44.27282" lon="2.52354">
        <ele>732</ele>
        <time>2022-06-12T09:55:28.463Z</time>
      </trkpt>
      <trkpt lat="44.27282" lon="2.52354">
        <ele>732</ele>
        <time>2022-06-12T09:55:29.463Z</time>
      </trkpt>
      <trkpt lat="44.27282" lon="2.52354">
        <ele>732</ele>
        <time>2022-06-12T09:55:30.463Z</time>
      </trkpt>
      <trkpt lat="44.27281" lon="2.52354">
        <ele>732</ele>
        <time>2022-06-12T09:55:34.465Z</time>
      </trkpt>
      <trkpt lat="44.2728" lon="2.52354">
        <ele>732</ele>
        <time>2022-06-12T09:55:35.465Z</time>
      </trkpt>
      <trkpt lat="44.2728" lon="2.52354">
        <ele>732</ele>
        <time>2022-06-12T09:55:36.465Z</time>
      </trkpt>
      <trkpt lat="44.27282" lon="2.52358">
        <ele>732</ele>
        <time>2022-06-12T09:55:54.465Z</time>
      </trkpt>
      <trkpt lat="44.27282" lon="2.52358">
        <ele>731</ele>
        <time>2022-06-12T09:55:55.465Z</time>
      </trkpt>
      <trkpt lat="44.27282" lon="2.52358">
        <ele>731</ele>
        <time>2022-06-12T09:55:56.465Z</time>
      </trkpt>
      <trkpt lat="44.27282" lon="2.52358">
        <ele>731</ele>
        <time>2022-06-12T09:55:57.465Z</time>
      </trkpt>
      <trkpt lat="44.27281" lon="2.52358">
        <ele>731</ele>
        <time>2022-06-12T09:55:58.465Z</time>
      </trkpt>
      <trkpt lat="44.27281" lon="2.52357">
        <ele>731</ele>
        <time>2022-06-12T09:55:59.465Z</time>
      </trkpt>
      <trkpt lat="44.2728" lon="2.52357">
        <ele>731</ele>
        <time>2022-06-12T09:56:00.465Z</time>
      </trkpt>
      <trkpt lat="44.27279" lon="2.52356">
        <ele>731</ele>
        <time>2022-06-12T09:56:01.465Z</time>
      </trkpt>
      <trkpt lat="44.27279" lon="2.52356">
        <ele>731</ele>
        <time>2022-06-12T09:56:02.465Z</time>
      </trkpt>
      <trkpt lat="44.27278" lon="2.52356">
        <ele>731</ele>
        <time>2022-06-12T09:56:03.465Z</time>
      </trkpt>
      <trkpt lat="44.27278" lon="2.52356">
        <ele>731</ele>
        <time>2022-06-12T09:56:04.465Z</time>
      </trkpt>
      <trkpt lat="44.27278" lon="2.52356">
        <ele>732</ele>
        <time>2022-06-12T09:56:05.465Z</time>
      </trkpt>
      <trkpt lat="44.27275" lon="2.52357">
        <ele>732</ele>
        <time>2022-06-12T09:56:30.469Z</time>
      </trkpt>
      <trkpt lat="44.27275" lon="2.52356">
        <ele>732</ele>
        <time>2022-06-12T09:56:31.469Z</time>
      </trkpt>
      <trkpt lat="44.27275" lon="2.52356">
        <ele>732</ele>
        <time>2022-06-12T09:56:32.469Z</time>
      </trkpt>
      <trkpt lat="44.27275" lon="2.52356">
        <ele>732</ele>
        <time>2022-06-12T09:56:33.469Z</time>
      </trkpt>
      <trkpt lat="44.27275" lon="2.52356">
        <ele>731</ele>
        <time>2022-06-12T09:56:34.469Z</time>
      </trkpt>
      <trkpt lat="44.27274" lon="2.52356">
        <ele>731</ele>
        <time>2022-06-12T09:56:35.469Z</time>
      </trkpt>
      <trkpt lat="44.27276" lon="2.52359">
        <ele>731</ele>
        <time>2022-06-12T09:56:44.486Z</time>
      </trkpt>
      <trkpt lat="44.27276" lon="2.52359">
        <ele>731</ele>
        <time>2022-06-12T09:56:45.486Z</time>
      </trkpt>
      <trkpt lat="44.27274" lon="2.52364">
        <ele>731</ele>
        <time>2022-06-12T09:57:11.120Z</time>
      </trkpt>
      <trkpt lat="44.27274" lon="2.52364">
        <ele>731</ele>
        <time>2022-06-12T09:57:12.120Z</time>
      </trkpt>
      <trkpt lat="44.27276" lon="2.52364">
        <ele>730</ele>
        <time>2022-06-12T09:57:26.132Z</time>
      </trkpt>
      <trkpt lat="44.27276" lon="2.52364">
        <ele>730</ele>
        <time>2022-06-12T09:57:27.132Z</time>
      </trkpt>
      <trkpt lat="44.27276" lon="2.52365">
        <ele>730</ele>
        <time>2022-06-12T09:57:28.132Z</time>
      </trkpt>
      <trkpt lat="44.27275" lon="2.52365">
        <ele>730</ele>
        <time>2022-06-12T09:57:35.138Z</time>
      </trkpt>
      <trkpt lat="44.27275" lon="2.52364">
        <ele>730</ele>
        <time>2022-06-12T09:57:36.138Z</time>
      </trkpt>
      <trkpt lat="44.27275" lon="2.52364">
        <ele>730</ele>
        <time>2022-06-12T09:57:37.138Z</time>
      </trkpt>
      <trkpt lat="44.27275" lon="2.52363">
        <ele>730</ele>
        <time>2022-06-12T09:57:38.138Z</time>
      </trkpt>
      <trkpt lat="44.27274" lon="2.52363">
        <ele>730</ele>
        <time>2022-06-12T09:57:39.138Z</time>
      </trkpt>
      <trkpt lat="44.27267" lon="2.52361">
        <ele>734</ele>
        <time>2022-06-12T09:58:26.144Z</time>
      </trkpt>
      <trkpt lat="44.27267" lon="2.5236">
        <ele>734</ele>
        <time>2022-06-12T09:58:27.144Z</time>
      </trkpt>
      <trkpt lat="44.27266" lon="2.52359">
        <ele>734</ele>
        <time>2022-06-12T09:58:28.144Z</time>
      </trkpt>
      <trkpt lat="44.27266" lon="2.52358">
        <ele>734</ele>
        <time>2022-06-12T09:58:29.144Z</time>
      </trkpt>
      <trkpt lat="44.27265" lon="2.52357">
        <ele>734</ele>
        <time>2022-06-12T09:58:30.144Z</time>
      </trkpt>
      <trkpt lat="44.27265" lon="2.52355">
        <ele>734</ele>
        <time>2022-06-12T09:58:31.144Z</time>
      </trkpt>
      <trkpt lat="44.27265" lon="2.52354">
        <ele>734</ele>
        <time>2022-06-12T09:58:32.144Z</time>
      </trkpt>
      <trkpt lat="44.27265" lon="2.52353">
        <ele>734</ele>
        <time>2022-06-12T09:58:33.144Z</time>
      </trkpt>
      <trkpt lat="44.27265" lon="2.52352">
        <ele>734</ele>
        <time>2022-06-12T09:58:34.144Z</time>
      </trkpt>
      <trkpt lat="44.27265" lon="2.52351">
        <ele>734</ele>
        <time>2022-06-12T09:58:35.144Z</time>
      </trkpt>
      <trkpt lat="44.27265" lon="2.5235">
        <ele>734</ele>
        <time>2022-06-12T09:58:36.144Z</time>
      </trkpt>
      <trkpt lat="44.27265" lon="2.52348">
        <ele>734</ele>
        <time>2022-06-12T09:58:37.144Z</time>
      </trkpt>
      <trkpt lat="44.27265" lon="2.52347">
        <ele>734</ele>
        <time>2022-06-12T09:58:38.144Z</time>
      </trkpt>
      <trkpt lat="44.27264" lon="2.52346">
        <ele>734</ele>
        <time>2022-06-12T09:58:39.144Z</time>
      </trkpt>
      <trkpt lat="44.27264" lon="2.52344">
        <ele>734</ele>
        <time>2022-06-12T09:58:40.144Z</time>
      </trkpt>
      <trkpt lat="44.27264" lon="2.52343">
        <ele>733</ele>
        <time>2022-06-12T09:58:41.144Z</time>
      </trkpt>
      <trkpt lat="44.27264" lon="2.52342">
        <ele>733</ele>
        <time>2022-06-12T09:58:42.144Z</time>
      </trkpt>
      <trkpt lat="44.27263" lon="2.5234">
        <ele>733</ele>
        <time>2022-06-12T09:58:43.144Z</time>
      </trkpt>
      <trkpt lat="44.27263" lon="2.52339">
        <ele>733</ele>
        <time>2022-06-12T09:58:44.144Z</time>
      </trkpt>
      <trkpt lat="44.27263" lon="2.52338">
        <ele>733</ele>
        <time>2022-06-12T09:58:45.144Z</time>
      </trkpt>
      <trkpt lat="44.27263" lon="2.52337">
        <ele>733</ele>
        <time>2022-06-12T09:58:46.144Z</time>
      </trkpt>
      <trkpt lat="44.27264" lon="2.52336">
        <ele>733</ele>
        <time>2022-06-12T09:58:47.144Z</time>
      </trkpt>
      <trkpt lat="44.27264" lon="2.52335">
        <ele>733</ele>
        <time>2022-06-12T09:58:48.144Z</time>
      </trkpt>
      <trkpt lat="44.27265" lon="2.52334">
        <ele>733</ele>
        <time>2022-06-12T09:58:49.144Z</time>
      </trkpt>
      <trkpt lat="44.27265" lon="2.52333">
        <ele>732</ele>
        <time>2022-06-12T09:58:50.144Z</time>
      </trkpt>
      <trkpt lat="44.27266" lon="2.52332">
        <ele>732</ele>
        <time>2022-06-12T09:58:51.144Z</time>
      </trkpt>
      <trkpt lat="44.27266" lon="2.52331">
        <ele>732</ele>
        <time>2022-06-12T09:58:52.144Z</time>
      </trkpt>
      <trkpt lat="44.27267" lon="2.5233">
        <ele>732</ele>
        <time>2022-06-12T09:58:53.144Z</time>
      </trkpt>
      <trkpt lat="44.27268" lon="2.52329">
        <ele>732</ele>
        <time>2022-06-12T09:58:54.144Z</time>
      </trkpt>
      <trkpt lat="44.27268" lon="2.52329">
        <ele>732</ele>
        <time>2022-06-12T09:58:55.144Z</time>
      </trkpt>
      <trkpt lat="44.27269" lon="2.52328">
        <ele>732</ele>
        <time>2022-06-12T09:58:56.144Z</time>
      </trkpt>
      <trkpt lat="44.2727" lon="2.52328">
        <ele>732</ele>
        <time>2022-06-12T09:58:57.144Z</time>
      </trkpt>
      <trkpt lat="44.2727" lon="2.52327">
        <ele>732</ele>
        <time>2022-06-12T09:58:58.144Z</time>
      </trkpt>
      <trkpt lat="44.27271" lon="2.52327">
        <ele>732</ele>
        <time>2022-06-12T09:58:59.144Z</time>
      </trkpt>
      <trkpt lat="44.27271" lon="2.52327">
        <ele>733</ele>
        <time>2022-06-12T09:59:00.144Z</time>
      </trkpt>
      <trkpt lat="44.27271" lon="2.52327">
        <ele>733</ele>
        <time>2022-06-12T09:59:01.144Z</time>
      </trkpt>
      <trkpt lat="44.2727" lon="2.52326">
        <ele>733</ele>
        <time>2022-06-12T09:59:04.399Z</time>
      </trkpt>
      <trkpt lat="44.2727" lon="2.52326">
        <ele>734</ele>
        <time>2022-06-12T09:59:05.399Z</time>
      </trkpt>
      <trkpt lat="44.2727" lon="2.52326">
        <ele>734</ele>
        <time>2022-06-12T09:59:06.399Z</time>
      </trkpt>
      <trkpt lat="44.2727" lon="2.52327">
        <ele>734</ele>
        <time>2022-06-12T09:59:07.399Z</time>
      </trkpt>
      <trkpt lat="44.2727" lon="2.52327">
        <ele>735</ele>
        <time>2022-06-12T09:59:08.399Z</time>
      </trkpt>
      <trkpt lat="44.27271" lon="2.52325">
        <ele>735</ele>
        <time>2022-06-12T09:59:15.407Z</time>
      </trkpt>
      <trkpt lat="44.27271" lon="2.52324">
        <ele>735</ele>
        <time>2022-06-12T09:59:16.407Z</time>
      </trkpt>
      <trkpt lat="44.27272" lon="2.52323">
        <ele>736</ele>
        <time>2022-06-12T09:59:17.407Z</time>
      </trkpt>
      <trkpt lat="44.27273" lon="2.52323">
        <ele>736</ele>
        <time>2022-06-12T09:59:18.407Z</time>
      </trkpt>
      <trkpt lat="44.27273" lon="2.52322">
        <ele>736</ele>
        <time>2022-06-12T09:59:19.407Z</time>
      </trkpt>
      <trkpt lat="44.27274" lon="2.52322">
        <ele>736</ele>
        <time>2022-06-12T09:59:20.407Z</time>
      </trkpt>
      <trkpt lat="44.27275" lon="2.52321">
        <ele>736</ele>
        <time>2022-06-12T09:59:21.407Z</time>
      </trkpt>
      <trkpt lat="44.27275" lon="2.52321">
        <ele>736</ele>
        <time>2022-06-12T09:59:22.407Z</time>
      </trkpt>
      <trkpt lat="44.27276" lon="2.5232">
        <ele>736</ele>
        <time>2022-06-12T09:59:23.407Z</time>
      </trkpt>
      <trkpt lat="44.27276" lon="2.5232">
        <ele>736</ele>
        <time>2022-06-12T09:59:24.407Z</time>
      </trkpt>
      <trkpt lat="44.27277" lon="2.52319">
        <ele>736</ele>
        <time>2022-06-12T09:59:25.407Z</time>
      </trkpt>
      <trkpt lat="44.27277" lon="2.52319">
        <ele>736</ele>
        <time>2022-06-12T09:59:26.407Z</time>
      </trkpt>
      <trkpt lat="44.27277" lon="2.52319">
        <ele>737</ele>
        <time>2022-06-12T09:59:27.407Z</time>
      </trkpt>
      <trkpt lat="44.27277" lon="2.52318">
        <ele>738</ele>
        <time>2022-06-12T09:59:47.415Z</time>
      </trkpt>
      <trkpt lat="44.27277" lon="2.52317">
        <ele>738</ele>
        <time>2022-06-12T09:59:48.415Z</time>
      </trkpt>
      <trkpt lat="44.27278" lon="2.52315">
        <ele>738</ele>
        <time>2022-06-12T09:59:49.415Z</time>
      </trkpt>
      <trkpt lat="44.27278" lon="2.52314">
        <ele>738</ele>
        <time>2022-06-12T09:59:50.415Z</time>
      </trkpt>
      <trkpt lat="44.27278" lon="2.52312">
        <ele>738</ele>
        <time>2022-06-12T09:59:51.415Z</time>
      </trkpt>
      <trkpt lat="44.27279" lon="2.52311">
        <ele>738</ele>
        <time>2022-06-12T09:59:52.415Z</time>
      </trkpt>
      <trkpt lat="44.27279" lon="2.5231">
        <ele>738</ele>
        <time>2022-06-12T09:59:53.415Z</time>
      </trkpt>
      <trkpt lat="44.2728" lon="2.52308">
        <ele>738</ele>
        <time>2022-06-12T09:59:54.415Z</time>
      </trkpt>
      <trkpt lat="44.27281" lon="2.52307">
        <ele>738</ele>
        <time>2022-06-12T09:59:55.415Z</time>
      </trkpt>
      <trkpt lat="44.27281" lon="2.52306">
        <ele>737</ele>
        <time>2022-06-12T09:59:56.415Z</time>
      </trkpt>
      <trkpt lat="44.27282" lon="2.52306">
        <ele>737</ele>
        <time>2022-06-12T09:59:57.415Z</time>
      </trkpt>
      <trkpt lat="44.27282" lon="2.52305">
        <ele>737</ele>
        <time>2022-06-12T09:59:58.415Z</time>
      </trkpt>
      <trkpt lat="44.27282" lon="2.52306">
        <ele>737</ele>
        <time>2022-06-12T09:59:59.415Z</time>
      </trkpt>
      <trkpt lat="44.27282" lon="2.52306">
        <ele>737</ele>
        <time>2022-06-12T10:00:00.415Z</time>
      </trkpt>
      <trkpt lat="44.27282" lon="2.52305">
        <ele>737</ele>
        <time>2022-06-12T10:00:05.426Z</time>
      </trkpt>
      <trkpt lat="44.27282" lon="2.52305">
        <ele>737</ele>
        <time>2022-06-12T10:00:06.426Z</time>
      </trkpt>
      <trkpt lat="44.27283" lon="2.52303">
        <ele>736</ele>
        <time>2022-06-12T10:00:17.420Z</time>
      </trkpt>
      <trkpt lat="44.27283" lon="2.52302">
        <ele>736</ele>
        <time>2022-06-12T10:00:18.420Z</time>
      </trkpt>
      <trkpt lat="44.27283" lon="2.52301">
        <ele>735</ele>
        <time>2022-06-12T10:00:19.420Z</time>
      </trkpt>
      <trkpt lat="44.27283" lon="2.523">
        <ele>735</ele>
        <time>2022-06-12T10:00:20.420Z</time>
      </trkpt>
      <trkpt lat="44.27283" lon="2.52299">
        <ele>735</ele>
        <time>2022-06-12T10:00:21.420Z</time>
      </trkpt>
      <trkpt lat="44.27283" lon="2.52299">
        <ele>735</ele>
        <time>2022-06-12T10:00:22.420Z</time>
      </trkpt>
      <trkpt lat="44.27283" lon="2.52299">
        <ele>736</ele>
        <time>2022-06-12T10:00:23.420Z</time>
      </trkpt>
      <trkpt lat="44.27283" lon="2.52296">
        <ele>735</ele>
        <time>2022-06-12T10:00:29.431Z</time>
      </trkpt>
      <trkpt lat="44.27283" lon="2.52296">
        <ele>736</ele>
        <time>2022-06-12T10:00:30.431Z</time>
      </trkpt>
      <trkpt lat="44.27283" lon="2.52295">
        <ele>736</ele>
        <time>2022-06-12T10:00:31.431Z</time>
      </trkpt>
      <trkpt lat="44.27283" lon="2.52295">
        <ele>736</ele>
        <time>2022-06-12T10:00:32.431Z</time>
      </trkpt>
      <trkpt lat="44.27284" lon="2.52293">
        <ele>736</ele>
        <time>2022-06-12T10:00:33.431Z</time>
      </trkpt>
      <trkpt lat="44.27284" lon="2.52292">
        <ele>735</ele>
        <time>2022-06-12T10:00:34.431Z</time>
      </trkpt>
      <trkpt lat="44.27284" lon="2.5229">
        <ele>735</ele>
        <time>2022-06-12T10:00:35.431Z</time>
      </trkpt>
      <trkpt lat="44.27285" lon="2.52289">
        <ele>735</ele>
        <time>2022-06-12T10:00:36.431Z</time>
      </trkpt>
      <trkpt lat="44.27285" lon="2.52287">
        <ele>735</ele>
        <time>2022-06-12T10:00:37.431Z</time>
      </trkpt>
      <trkpt lat="44.27285" lon="2.52286">
        <ele>735</ele>
        <time>2022-06-12T10:00:38.431Z</time>
      </trkpt>
      <trkpt lat="44.27285" lon="2.52285">
        <ele>734</ele>
        <time>2022-06-12T10:00:39.431Z</time>
      </trkpt>
      <trkpt lat="44.27285" lon="2.52283">
        <ele>734</ele>
        <time>2022-06-12T10:00:40.431Z</time>
      </trkpt>
      <trkpt lat="44.27285" lon="2.52282">
        <ele>734</ele>
        <time>2022-06-12T10:00:41.431Z</time>
      </trkpt>
      <trkpt lat="44.27285" lon="2.5228">
        <ele>734</ele>
        <time>2022-06-12T10:00:42.431Z</time>
      </trkpt>
      <trkpt lat="44.27285" lon="2.5228">
        <ele>733</ele>
        <time>2022-06-12T10:00:43.431Z</time>
      </trkpt>
      <trkpt lat="44.27284" lon="2.52279">
        <ele>733</ele>
        <time>2022-06-12T10:00:44.431Z</time>
      </trkpt>
      <trkpt lat="44.27283" lon="2.52278">
        <ele>733</ele>
        <time>2022-06-12T10:00:45.431Z</time>
      </trkpt>
      <trkpt lat="44.27282" lon="2.52277">
        <ele>733</ele>
        <time>2022-06-12T10:00:46.431Z</time>
      </trkpt>
      <trkpt lat="44.2728" lon="2.52277">
        <ele>733</ele>
        <time>2022-06-12T10:00:47.431Z</time>
      </trkpt>
      <trkpt lat="44.27279" lon="2.52276">
        <ele>733</ele>
        <time>2022-06-12T10:00:48.431Z</time>
      </trkpt>
      <trkpt lat="44.27278" lon="2.52276">
        <ele>732</ele>
        <time>2022-06-12T10:00:49.431Z</time>
      </trkpt>
      <trkpt lat="44.27276" lon="2.52276">
        <ele>732</ele>
        <time>2022-06-12T10:00:50.431Z</time>
      </trkpt>
      <trkpt lat="44.27275" lon="2.52275">
        <ele>732</ele>
        <time>2022-06-12T10:00:51.431Z</time>
      </trkpt>
      <trkpt lat="44.27274" lon="2.52275">
        <ele>732</ele>
        <time>2022-06-12T10:00:52.431Z</time>
      </trkpt>
      <trkpt lat="44.27273" lon="2.52275">
        <ele>732</ele>
        <time>2022-06-12T10:00:53.431Z</time>
      </trkpt>
      <trkpt lat="44.27272" lon="2.52275">
        <ele>732</ele>
        <time>2022-06-12T10:00:54.431Z</time>
      </trkpt>
      <trkpt lat="44.27271" lon="2.52275">
        <ele>732</ele>
        <time>2022-06-12T10:00:55.431Z</time>
      </trkpt>
      <trkpt lat="44.2727" lon="2.52274">
        <ele>732</ele>
        <time>2022-06-12T10:00:56.431Z</time>
      </trkpt>
      <trkpt lat="44.27268" lon="2.52274">
        <ele>732</ele>
        <time>2022-06-12T10:00:57.431Z</time>
      </trkpt>
      <trkpt lat="44.27267" lon="2.52274">
        <ele>732</ele>
        <time>2022-06-12T10:00:58.431Z</time>
      </trkpt>
      <trkpt lat="44.27266" lon="2.52273">
        <ele>732</ele>
        <time>2022-06-12T10:00:59.431Z</time>
      </trkpt>
      <trkpt lat="44.27265" lon="2.52273">
        <ele>732</ele>
        <time>2022-06-12T10:01:00.431Z</time>
      </trkpt>
      <trkpt lat="44.27263" lon="2.52273">
        <ele>731</ele>
        <time>2022-06-12T10:01:01.431Z</time>
      </trkpt>
      <trkpt lat="44.27262" lon="2.52272">
        <ele>731</ele>
        <time>2022-06-12T10:01:02.431Z</time>
      </trkpt>
      <trkpt lat="44.27261" lon="2.52272">
        <ele>731</ele>
        <time>2022-06-12T10:01:03.431Z</time>
      </trkpt>
      <trkpt lat="44.27259" lon="2.52271">
        <ele>731</ele>
        <time>2022-06-12T10:01:04.431Z</time>
      </trkpt>
      <trkpt lat="44.27258" lon="2.52271">
        <ele>731</ele>
        <time>2022-06-12T10:01:05.431Z</time>
      </trkpt>
      <trkpt lat="44.27256" lon="2.52271">
        <ele>731</ele>
        <time>2022-06-12T10:01:06.431Z</time>
      </trkpt>
      <trkpt lat="44.27255" lon="2.52271">
        <ele>731</ele>
        <time>2022-06-12T10:01:07.431Z</time>
      </trkpt>
      <trkpt lat="44.27254" lon="2.52271">
        <ele>731</ele>
        <time>2022-06-12T10:01:08.431Z</time>
      </trkpt>
      <trkpt lat="44.27253" lon="2.5227">
        <ele>730</ele>
        <time>2022-06-12T10:01:09.431Z</time>
      </trkpt>
      <trkpt lat="44.27252" lon="2.5227">
        <ele>730</ele>
        <time>2022-06-12T10:01:10.431Z</time>
      </trkpt>
      <trkpt lat="44.2725" lon="2.52269">
        <ele>730</ele>
        <time>2022-06-12T10:01:11.431Z</time>
      </trkpt>
      <trkpt lat="44.27249" lon="2.52269">
        <ele>730</ele>
        <time>2022-06-12T10:01:12.431Z</time>
      </trkpt>
      <trkpt lat="44.27247" lon="2.52268">
        <ele>730</ele>
        <time>2022-06-12T10:01:13.431Z</time>
      </trkpt>
      <trkpt lat="44.27246" lon="2.52268">
        <ele>730</ele>
        <time>2022-06-12T10:01:14.431Z</time>
      </trkpt>
      <trkpt lat="44.27245" lon="2.52268">
        <ele>730</ele>
        <time>2022-06-12T10:01:15.431Z</time>
      </trkpt>
      <trkpt lat="44.27243" lon="2.52268">
        <ele>730</ele>
        <time>2022-06-12T10:01:16.431Z</time>
      </trkpt>
      <trkpt lat="44.27241" lon="2.52267">
        <ele>730</ele>
        <time>2022-06-12T10:01:17.431Z</time>
      </trkpt>
      <trkpt lat="44.2724" lon="2.52267">
        <ele>730</ele>
        <time>2022-06-12T10:01:18.431Z</time>
      </trkpt>
      <trkpt lat="44.27239" lon="2.52266">
        <ele>730</ele>
        <time>2022-06-12T10:01:19.431Z</time>
      </trkpt>
      <trkpt lat="44.27237" lon="2.52266">
        <ele>730</ele>
        <time>2022-06-12T10:01:20.431Z</time>
      </trkpt>
      <trkpt lat="44.27236" lon="2.52265">
        <ele>730</ele>
        <time>2022-06-12T10:01:21.431Z</time>
      </trkpt>
      <trkpt lat="44.27234" lon="2.52265">
        <ele>730</ele>
        <time>2022-06-12T10:01:22.431Z</time>
      </trkpt>
      <trkpt lat="44.27233" lon="2.52264">
        <ele>730</ele>
        <time>2022-06-12T10:01:23.431Z</time>
      </trkpt>
      <trkpt lat="44.27231" lon="2.52264">
        <ele>730</ele>
        <time>2022-06-12T10:01:24.431Z</time>
      </trkpt>
      <trkpt lat="44.2723" lon="2.52264">
        <ele>730</ele>
        <time>2022-06-12T10:01:25.431Z</time>
      </trkpt>
      <trkpt lat="44.27229" lon="2.52264">
        <ele>730</ele>
        <time>2022-06-12T10:01:26.431Z</time>
      </trkpt>
      <trkpt lat="44.27228" lon="2.52263">
        <ele>730</ele>
        <time>2022-06-12T10:01:27.431Z</time>
      </trkpt>
      <trkpt lat="44.27226" lon="2.52263">
        <ele>730</ele>
        <time>2022-06-12T10:01:28.431Z</time>
      </trkpt>
      <trkpt lat="44.27225" lon="2.52263">
        <ele>730</ele>
        <time>2022-06-12T10:01:29.431Z</time>
      </trkpt>
      <trkpt lat="44.27224" lon="2.52263">
        <ele>730</ele>
        <time>2022-06-12T10:01:30.431Z</time>
      </trkpt>
      <trkpt lat="44.27222" lon="2.52263">
        <ele>730</ele>
        <time>2022-06-12T10:01:31.431Z</time>
      </trkpt>
      <trkpt lat="44.27221" lon="2.52263">
        <ele>730</ele>
        <time>2022-06-12T10:01:32.431Z</time>
      </trkpt>
      <trkpt lat="44.27221" lon="2.52263">
        <ele>730</ele>
        <time>2022-06-12T10:01:33.431Z</time>
      </trkpt>
      <trkpt lat="44.2722" lon="2.52264">
        <ele>730</ele>
        <time>2022-06-12T10:01:34.431Z</time>
      </trkpt>
      <trkpt lat="44.27219" lon="2.52264">
        <ele>730</ele>
        <time>2022-06-12T10:01:35.431Z</time>
      </trkpt>
      <trkpt lat="44.27218" lon="2.52264">
        <ele>730</ele>
        <time>2022-06-12T10:01:36.431Z</time>
      </trkpt>
      <trkpt lat="44.27217" lon="2.52264">
        <ele>730</ele>
        <time>2022-06-12T10:01:37.431Z</time>
      </trkpt>
      <trkpt lat="44.27216" lon="2.52264">
        <ele>729</ele>
        <time>2022-06-12T10:01:38.431Z</time>
      </trkpt>
      <trkpt lat="44.27215" lon="2.52263">
        <ele>729</ele>
        <time>2022-06-12T10:01:39.431Z</time>
      </trkpt>
      <trkpt lat="44.27214" lon="2.52263">
        <ele>729</ele>
        <time>2022-06-12T10:01:40.431Z</time>
      </trkpt>
      <trkpt lat="44.27213" lon="2.52263">
        <ele>729</ele>
        <time>2022-06-12T10:01:41.431Z</time>
      </trkpt>
      <trkpt lat="44.27213" lon="2.52263">
        <ele>729</ele>
        <time>2022-06-12T10:01:42.431Z</time>
      </trkpt>
      <trkpt lat="44.27213" lon="2.52263">
        <ele>729</ele>
        <time>2022-06-12T10:01:43.431Z</time>
      </trkpt>
      <trkpt lat="44.27213" lon="2.52263">
        <ele>729</ele>
        <time>2022-06-12T10:01:44.431Z</time>
      </trkpt>
      <trkpt lat="44.27213" lon="2.52263">
        <ele>729</ele>
        <time>2022-06-12T10:01:45.431Z</time>
      </trkpt>
      <trkpt lat="44.27213" lon="2.52263">
        <ele>728</ele>
        <time>2022-06-12T10:01:50.442Z</time>
      </trkpt>
      <trkpt lat="44.27212" lon="2.52263">
        <ele>728</ele>
        <time>2022-06-12T10:01:51.442Z</time>
      </trkpt>
      <trkpt lat="44.27211" lon="2.52262">
        <ele>728</ele>
        <time>2022-06-12T10:01:52.442Z</time>
      </trkpt>
      <trkpt lat="44.2721" lon="2.52262">
        <ele>728</ele>
        <time>2022-06-12T10:01:53.442Z</time>
      </trkpt>
      <trkpt lat="44.27209" lon="2.52263">
        <ele>728</ele>
        <time>2022-06-12T10:01:54.442Z</time>
      </trkpt>
      <trkpt lat="44.27208" lon="2.52263">
        <ele>727</ele>
        <time>2022-06-12T10:01:55.442Z</time>
      </trkpt>
      <trkpt lat="44.27207" lon="2.52262">
        <ele>727</ele>
        <time>2022-06-12T10:01:56.442Z</time>
      </trkpt>
      <trkpt lat="44.27206" lon="2.52262">
        <ele>727</ele>
        <time>2022-06-12T10:01:57.442Z</time>
      </trkpt>
      <trkpt lat="44.27204" lon="2.52262">
        <ele>727</ele>
        <time>2022-06-12T10:01:58.442Z</time>
      </trkpt>
      <trkpt lat="44.27203" lon="2.52262">
        <ele>727</ele>
        <time>2022-06-12T10:01:59.442Z</time>
      </trkpt>
      <trkpt lat="44.27202" lon="2.52262">
        <ele>727</ele>
        <time>2022-06-12T10:02:00.442Z</time>
      </trkpt>
      <trkpt lat="44.27201" lon="2.52262">
        <ele>727</ele>
        <time>2022-06-12T10:02:01.442Z</time>
      </trkpt>
      <trkpt lat="44.272" lon="2.52262">
        <ele>727</ele>
        <time>2022-06-12T10:02:02.442Z</time>
      </trkpt>
      <trkpt lat="44.27199" lon="2.52262">
        <ele>727</ele>
        <time>2022-06-12T10:02:03.442Z</time>
      </trkpt>
      <trkpt lat="44.27197" lon="2.52262">
        <ele>727</ele>
        <time>2022-06-12T10:02:04.442Z</time>
      </trkpt>
      <trkpt lat="44.27196" lon="2.52261">
        <ele>727</ele>
        <time>2022-06-12T10:02:05.442Z</time>
      </trkpt>
      <trkpt lat="44.27195" lon="2.52261">
        <ele>727</ele>
        <time>2022-06-12T10:02:06.442Z</time>
      </trkpt>
      <trkpt lat="44.27194" lon="2.52261">
        <ele>727</ele>
        <time>2022-06-12T10:02:07.442Z</time>
      </trkpt>
      <trkpt lat="44.27193" lon="2.52261">
        <ele>727</ele>
        <time>2022-06-12T10:02:08.442Z</time>
      </trkpt>
      <trkpt lat="44.27192" lon="2.5226">
        <ele>727</ele>
        <time>2022-06-12T10:02:09.442Z</time>
      </trkpt>
      <trkpt lat="44.27191" lon="2.5226">
        <ele>727</ele>
        <time>2022-06-12T10:02:10.442Z</time>
      </trkpt>
      <trkpt lat="44.2719" lon="2.5226">
        <ele>727</ele>
        <time>2022-06-12T10:02:11.442Z</time>
      </trkpt>
      <trkpt lat="44.27189" lon="2.5226">
        <ele>727</ele>
        <time>2022-06-12T10:02:12.442Z</time>
      </trkpt>
      <trkpt lat="44.27188" lon="2.5226">
        <ele>727</ele>
        <time>2022-06-12T10:02:13.442Z</time>
      </trkpt>
      <trkpt lat="44.27187" lon="2.5226">
        <ele>727</ele>
        <time>2022-06-12T10:02:14.442Z</time>
      </trkpt>
      <trkpt lat="44.27186" lon="2.52259">
        <ele>727</ele>
        <time>2022-06-12T10:02:15.442Z</time>
      </trkpt>
      <trkpt lat="44.27185" lon="2.52259">
        <ele>727</ele>
        <time>2022-06-12T10:02:16.442Z</time>
      </trkpt>
      <trkpt lat="44.27183" lon="2.52259">
        <ele>727</ele>
        <time>2022-06-12T10:02:17.442Z</time>
      </trkpt>
      <trkpt lat="44.27182" lon="2.52258">
        <ele>727</ele>
        <time>2022-06-12T10:02:18.442Z</time>
      </trkpt>
      <trkpt lat="44.27181" lon="2.52258">
        <ele>727</ele>
        <time>2022-06-12T10:02:19.442Z</time>
      </trkpt>
      <trkpt lat="44.2718" lon="2.52257">
        <ele>727</ele>
        <time>2022-06-12T10:02:20.442Z</time>
      </trkpt>
      <trkpt lat="44.27179" lon="2.52257">
        <ele>727</ele>
        <time>2022-06-12T10:02:21.442Z</time>
      </trkpt>
      <trkpt lat="44.27177" lon="2.52257">
        <ele>727</ele>
        <time>2022-06-12T10:02:22.442Z</time>
      </trkpt>
      <trkpt lat="44.27176" lon="2.52257">
        <ele>727</ele>
        <time>2022-06-12T10:02:23.442Z</time>
      </trkpt>
      <trkpt lat="44.27175" lon="2.52256">
        <ele>726</ele>
        <time>2022-06-12T10:02:24.442Z</time>
      </trkpt>
      <trkpt lat="44.27174" lon="2.52256">
        <ele>726</ele>
        <time>2022-06-12T10:02:25.442Z</time>
      </trkpt>
      <trkpt lat="44.27173" lon="2.52255">
        <ele>726</ele>
        <time>2022-06-12T10:02:26.442Z</time>
      </trkpt>
      <trkpt lat="44.27172" lon="2.52255">
        <ele>726</ele>
        <time>2022-06-12T10:02:27.442Z</time>
      </trkpt>
      <trkpt lat="44.27171" lon="2.52255">
        <ele>726</ele>
        <time>2022-06-12T10:02:28.442Z</time>
      </trkpt>
      <trkpt lat="44.2717" lon="2.52255">
        <ele>726</ele>
        <time>2022-06-12T10:02:29.442Z</time>
      </trkpt>
      <trkpt lat="44.27168" lon="2.52255">
        <ele>726</ele>
        <time>2022-06-12T10:02:30.442Z</time>
      </trkpt>
      <trkpt lat="44.27167" lon="2.52254">
        <ele>726</ele>
        <time>2022-06-12T10:02:31.442Z</time>
      </trkpt>
      <trkpt lat="44.27166" lon="2.52254">
        <ele>725</ele>
        <time>2022-06-12T10:02:32.442Z</time>
      </trkpt>
      <trkpt lat="44.27165" lon="2.52254">
        <ele>725</ele>
        <time>2022-06-12T10:02:33.442Z</time>
      </trkpt>
      <trkpt lat="44.27164" lon="2.52253">
        <ele>725</ele>
        <time>2022-06-12T10:02:34.442Z</time>
      </trkpt>
      <trkpt lat="44.27162" lon="2.52253">
        <ele>725</ele>
        <time>2022-06-12T10:02:35.442Z</time>
      </trkpt>
      <trkpt lat="44.27161" lon="2.52252">
        <ele>725</ele>
        <time>2022-06-12T10:02:36.442Z</time>
      </trkpt>
      <trkpt lat="44.2716" lon="2.52252">
        <ele>725</ele>
        <time>2022-06-12T10:02:37.442Z</time>
      </trkpt>
      <trkpt lat="44.27159" lon="2.52252">
        <ele>725</ele>
        <time>2022-06-12T10:02:38.442Z</time>
      </trkpt>
      <trkpt lat="44.27158" lon="2.52252">
        <ele>725</ele>
        <time>2022-06-12T10:02:39.442Z</time>
      </trkpt>
      <trkpt lat="44.27156" lon="2.52251">
        <ele>725</ele>
        <time>2022-06-12T10:02:40.442Z</time>
      </trkpt>
      <trkpt lat="44.27155" lon="2.52251">
        <ele>725</ele>
        <time>2022-06-12T10:02:41.442Z</time>
      </trkpt>
      <trkpt lat="44.27154" lon="2.5225">
        <ele>725</ele>
        <time>2022-06-12T10:02:42.442Z</time>
      </trkpt>
      <trkpt lat="44.27153" lon="2.5225">
        <ele>725</ele>
        <time>2022-06-12T10:02:43.442Z</time>
      </trkpt>
      <trkpt lat="44.27152" lon="2.5225">
        <ele>724</ele>
        <time>2022-06-12T10:02:44.442Z</time>
      </trkpt>
      <trkpt lat="44.2715" lon="2.52249">
        <ele>724</ele>
        <time>2022-06-12T10:02:45.442Z</time>
      </trkpt>
      <trkpt lat="44.27149" lon="2.52249">
        <ele>724</ele>
        <time>2022-06-12T10:02:46.442Z</time>
      </trkpt>
      <trkpt lat="44.27148" lon="2.52249">
        <ele>724</ele>
        <time>2022-06-12T10:02:47.442Z</time>
      </trkpt>
      <trkpt lat="44.27147" lon="2.52248">
        <ele>724</ele>
        <time>2022-06-12T10:02:48.442Z</time>
      </trkpt>
      <trkpt lat="44.27146" lon="2.52248">
        <ele>724</ele>
        <time>2022-06-12T10:02:49.442Z</time>
      </trkpt>
      <trkpt lat="44.27145" lon="2.52248">
        <ele>724</ele>
        <time>2022-06-12T10:02:50.442Z</time>
      </trkpt>
      <trkpt lat="44.27143" lon="2.52248">
        <ele>724</ele>
        <time>2022-06-12T10:02:51.442Z</time>
      </trkpt>
      <trkpt lat="44.27142" lon="2.52247">
        <ele>724</ele>
        <time>2022-06-12T10:02:52.442Z</time>
      </trkpt>
      <trkpt lat="44.27141" lon="2.52247">
        <ele>724</ele>
        <time>2022-06-12T10:02:53.442Z</time>
      </trkpt>
      <trkpt lat="44.2714" lon="2.52246">
        <ele>724</ele>
        <time>2022-06-12T10:02:54.442Z</time>
      </trkpt>
      <trkpt lat="44.27139" lon="2.52246">
        <ele>724</ele>
        <time>2022-06-12T10:02:55.442Z</time>
      </trkpt>
      <trkpt lat="44.27138" lon="2.52246">
        <ele>724</ele>
        <time>2022-06-12T10:02:56.442Z</time>
      </trkpt>
      <trkpt lat="44.27137" lon="2.52245">
        <ele>724</ele>
        <time>2022-06-12T10:02:57.442Z</time>
      </trkpt>
      <trkpt lat="44.27136" lon="2.52245">
        <ele>724</ele>
        <time>2022-06-12T10:02:58.442Z</time>
      </trkpt>
      <trkpt lat="44.27135" lon="2.52244">
        <ele>724</ele>
        <time>2022-06-12T10:02:59.442Z</time>
      </trkpt>
      <trkpt lat="44.27134" lon="2.52244">
        <ele>723</ele>
        <time>2022-06-12T10:03:00.442Z</time>
      </trkpt>
      <trkpt lat="44.27134" lon="2.52244">
        <ele>723</ele>
        <time>2022-06-12T10:03:01.442Z</time>
      </trkpt>
      <trkpt lat="44.27134" lon="2.52244">
        <ele>723</ele>
        <time>2022-06-12T10:03:02.442Z</time>
      </trkpt>
      <trkpt lat="44.27134" lon="2.52244">
        <ele>723</ele>
        <time>2022-06-12T10:03:03.442Z</time>
      </trkpt>
      <trkpt lat="44.27134" lon="2.52243">
        <ele>722</ele>
        <time>2022-06-12T10:03:13.439Z</time>
      </trkpt>
      <trkpt lat="44.27133" lon="2.52243">
        <ele>722</ele>
        <time>2022-06-12T10:03:14.439Z</time>
      </trkpt>
      <trkpt lat="44.27132" lon="2.52242">
        <ele>722</ele>
        <time>2022-06-12T10:03:15.439Z</time>
      </trkpt>
      <trkpt lat="44.27131" lon="2.52242">
        <ele>722</ele>
        <time>2022-06-12T10:03:16.439Z</time>
      </trkpt>
      <trkpt lat="44.2713" lon="2.52242">
        <ele>722</ele>
        <time>2022-06-12T10:03:17.439Z</time>
      </trkpt>
      <trkpt lat="44.27129" lon="2.52242">
        <ele>722</ele>
        <time>2022-06-12T10:03:18.439Z</time>
      </trkpt>
      <trkpt lat="44.27128" lon="2.52241">
        <ele>722</ele>
        <time>2022-06-12T10:03:19.439Z</time>
      </trkpt>
      <trkpt lat="44.27127" lon="2.52241">
        <ele>722</ele>
        <time>2022-06-12T10:03:20.439Z</time>
      </trkpt>
      <trkpt lat="44.27126" lon="2.5224">
        <ele>722</ele>
        <time>2022-06-12T10:03:21.439Z</time>
      </trkpt>
      <trkpt lat="44.27125" lon="2.5224">
        <ele>722</ele>
        <time>2022-06-12T10:03:22.439Z</time>
      </trkpt>
      <trkpt lat="44.27124" lon="2.5224">
        <ele>722</ele>
        <time>2022-06-12T10:03:23.439Z</time>
      </trkpt>
      <trkpt lat="44.27122" lon="2.52239">
        <ele>722</ele>
        <time>2022-06-12T10:03:24.439Z</time>
      </trkpt>
      <trkpt lat="44.27121" lon="2.52239">
        <ele>721</ele>
        <time>2022-06-12T10:03:25.439Z</time>
      </trkpt>
      <trkpt lat="44.2712" lon="2.52239">
        <ele>721</ele>
        <time>2022-06-12T10:03:26.439Z</time>
      </trkpt>
      <trkpt lat="44.27119" lon="2.52238">
        <ele>721</ele>
        <time>2022-06-12T10:03:27.439Z</time>
      </trkpt>
      <trkpt lat="44.27118" lon="2.52238">
        <ele>721</ele>
        <time>2022-06-12T10:03:28.439Z</time>
      </trkpt>
      <trkpt lat="44.27116" lon="2.52237">
        <ele>721</ele>
        <time>2022-06-12T10:03:29.439Z</time>
      </trkpt>
      <trkpt lat="44.27115" lon="2.52237">
        <ele>721</ele>
        <time>2022-06-12T10:03:30.439Z</time>
      </trkpt>
      <trkpt lat="44.27114" lon="2.52236">
        <ele>721</ele>
        <time>2022-06-12T10:03:31.439Z</time>
      </trkpt>
      <trkpt lat="44.27113" lon="2.52236">
        <ele>721</ele>
        <time>2022-06-12T10:03:32.439Z</time>
      </trkpt>
      <trkpt lat="44.27112" lon="2.52236">
        <ele>721</ele>
        <time>2022-06-12T10:03:33.439Z</time>
      </trkpt>
      <trkpt lat="44.2711" lon="2.52235">
        <ele>721</ele>
        <time>2022-06-12T10:03:34.439Z</time>
      </trkpt>
      <trkpt lat="44.27109" lon="2.52235">
        <ele>721</ele>
        <time>2022-06-12T10:03:35.439Z</time>
      </trkpt>
      <trkpt lat="44.27108" lon="2.52235">
        <ele>721</ele>
        <time>2022-06-12T10:03:36.439Z</time>
      </trkpt>
      <trkpt lat="44.27107" lon="2.52234">
        <ele>721</ele>
        <time>2022-06-12T10:03:37.439Z</time>
      </trkpt>
      <trkpt lat="44.27106" lon="2.52234">
        <ele>720</ele>
        <time>2022-06-12T10:03:38.439Z</time>
      </trkpt>
      <trkpt lat="44.27104" lon="2.52234">
        <ele>720</ele>
        <time>2022-06-12T10:03:39.439Z</time>
      </trkpt>
      <trkpt lat="44.27103" lon="2.52234">
        <ele>720</ele>
        <time>2022-06-12T10:03:40.439Z</time>
      </trkpt>
      <trkpt lat="44.27102" lon="2.52233">
        <ele>720</ele>
        <time>2022-06-12T10:03:41.439Z</time>
      </trkpt>
      <trkpt lat="44.27101" lon="2.52233">
        <ele>720</ele>
        <time>2022-06-12T10:03:42.439Z</time>
      </trkpt>
      <trkpt lat="44.27099" lon="2.52233">
        <ele>720</ele>
        <time>2022-06-12T10:03:43.439Z</time>
      </trkpt>
      <trkpt lat="44.27098" lon="2.52233">
        <ele>720</ele>
        <time>2022-06-12T10:03:44.439Z</time>
      </trkpt>
      <trkpt lat="44.27097" lon="2.52232">
        <ele>720</ele>
        <time>2022-06-12T10:03:45.439Z</time>
      </trkpt>
      <trkpt lat="44.27096" lon="2.52232">
        <ele>720</ele>
        <time>2022-06-12T10:03:46.439Z</time>
      </trkpt>
      <trkpt lat="44.27095" lon="2.52232">
        <ele>720</ele>
        <time>2022-06-12T10:03:47.439Z</time>
      </trkpt>
      <trkpt lat="44.27093" lon="2.52231">
        <ele>720</ele>
        <time>2022-06-12T10:03:48.439Z</time>
      </trkpt>
      <trkpt lat="44.27092" lon="2.52231">
        <ele>720</ele>
        <time>2022-06-12T10:03:49.439Z</time>
      </trkpt>
      <trkpt lat="44.2709" lon="2.52231">
        <ele>719</ele>
        <time>2022-06-12T10:03:50.439Z</time>
      </trkpt>
      <trkpt lat="44.27089" lon="2.5223">
        <ele>719</ele>
        <time>2022-06-12T10:03:51.439Z</time>
      </trkpt>
      <trkpt lat="44.27088" lon="2.5223">
        <ele>719</ele>
        <time>2022-06-12T10:03:52.439Z</time>
      </trkpt>
      <trkpt lat="44.27087" lon="2.5223">
        <ele>719</ele>
        <time>2022-06-12T10:03:53.439Z</time>
      </trkpt>
      <trkpt lat="44.27086" lon="2.5223">
        <ele>719</ele>
        <time>2022-06-12T10:03:54.439Z</time>
      </trkpt>
      <trkpt lat="44.27085" lon="2.52229">
        <ele>719</ele>
        <time>2022-06-12T10:03:55.439Z</time>
      </trkpt>
      <trkpt lat="44.27084" lon="2.52229">
        <ele>719</ele>
        <time>2022-06-12T10:03:56.439Z</time>
      </trkpt>
      <trkpt lat="44.27082" lon="2.52228">
        <ele>719</ele>
        <time>2022-06-12T10:03:57.439Z</time>
      </trkpt>
      <trkpt lat="44.27081" lon="2.52228">
        <ele>719</ele>
        <time>2022-06-12T10:03:58.439Z</time>
      </trkpt>
      <trkpt lat="44.2708" lon="2.52228">
        <ele>719</ele>
        <time>2022-06-12T10:03:59.439Z</time>
      </trkpt>
      <trkpt lat="44.27079" lon="2.52228">
        <ele>719</ele>
        <time>2022-06-12T10:04:00.439Z</time>
      </trkpt>
      <trkpt lat="44.27078" lon="2.52228">
        <ele>719</ele>
        <time>2022-06-12T10:04:01.439Z</time>
      </trkpt>
      <trkpt lat="44.27077" lon="2.52228">
        <ele>718</ele>
        <time>2022-06-12T10:04:02.439Z</time>
      </trkpt>
      <trkpt lat="44.27075" lon="2.52227">
        <ele>718</ele>
        <time>2022-06-12T10:04:03.439Z</time>
      </trkpt>
      <trkpt lat="44.27074" lon="2.52227">
        <ele>718</ele>
        <time>2022-06-12T10:04:04.439Z</time>
      </trkpt>
      <trkpt lat="44.27073" lon="2.52226">
        <ele>718</ele>
        <time>2022-06-12T10:04:05.439Z</time>
      </trkpt>
      <trkpt lat="44.27071" lon="2.52226">
        <ele>718</ele>
        <time>2022-06-12T10:04:06.439Z</time>
      </trkpt>
      <trkpt lat="44.2707" lon="2.52226">
        <ele>718</ele>
        <time>2022-06-12T10:04:07.439Z</time>
      </trkpt>
      <trkpt lat="44.27069" lon="2.52225">
        <ele>718</ele>
        <time>2022-06-12T10:04:08.439Z</time>
      </trkpt>
      <trkpt lat="44.27068" lon="2.52225">
        <ele>718</ele>
        <time>2022-06-12T10:04:09.439Z</time>
      </trkpt>
      <trkpt lat="44.27067" lon="2.52224">
        <ele>718</ele>
        <time>2022-06-12T10:04:10.439Z</time>
      </trkpt>
      <trkpt lat="44.27065" lon="2.52224">
        <ele>718</ele>
        <time>2022-06-12T10:04:11.439Z</time>
      </trkpt>
      <trkpt lat="44.27064" lon="2.52223">
        <ele>718</ele>
        <time>2022-06-12T10:04:12.439Z</time>
      </trkpt>
      <trkpt lat="44.27063" lon="2.52223">
        <ele>717</ele>
        <time>2022-06-12T10:04:13.439Z</time>
      </trkpt>
      <trkpt lat="44.27062" lon="2.52222">
        <ele>717</ele>
        <time>2022-06-12T10:04:14.439Z</time>
      </trkpt>
      <trkpt lat="44.27061" lon="2.52222">
        <ele>717</ele>
        <time>2022-06-12T10:04:15.439Z</time>
      </trkpt>
      <trkpt lat="44.2706" lon="2.52221">
        <ele>717</ele>
        <time>2022-06-12T10:04:16.439Z</time>
      </trkpt>
      <trkpt lat="44.27059" lon="2.52221">
        <ele>717</ele>
        <time>2022-06-12T10:04:17.439Z</time>
      </trkpt>
      <trkpt lat="44.27058" lon="2.5222">
        <ele>717</ele>
        <time>2022-06-12T10:04:18.439Z</time>
      </trkpt>
      <trkpt lat="44.27057" lon="2.5222">
        <ele>717</ele>
        <time>2022-06-12T10:04:19.439Z</time>
      </trkpt>
      <trkpt lat="44.27056" lon="2.52219">
        <ele>717</ele>
        <time>2022-06-12T10:04:20.439Z</time>
      </trkpt>
      <trkpt lat="44.27055" lon="2.52218">
        <ele>717</ele>
        <time>2022-06-12T10:04:21.439Z</time>
      </trkpt>
      <trkpt lat="44.27053" lon="2.52217">
        <ele>717</ele>
        <time>2022-06-12T10:04:22.439Z</time>
      </trkpt>
      <trkpt lat="44.27052" lon="2.52216">
        <ele>717</ele>
        <time>2022-06-12T10:04:23.439Z</time>
      </trkpt>
      <trkpt lat="44.27051" lon="2.52214">
        <ele>717</ele>
        <time>2022-06-12T10:04:24.439Z</time>
      </trkpt>
      <trkpt lat="44.2705" lon="2.52213">
        <ele>716</ele>
        <time>2022-06-12T10:04:25.439Z</time>
      </trkpt>
      <trkpt lat="44.27049" lon="2.52212">
        <ele>716</ele>
        <time>2022-06-12T10:04:26.439Z</time>
      </trkpt>
      <trkpt lat="44.27048" lon="2.52211">
        <ele>716</ele>
        <time>2022-06-12T10:04:27.439Z</time>
      </trkpt>
      <trkpt lat="44.27047" lon="2.5221">
        <ele>716</ele>
        <time>2022-06-12T10:04:28.439Z</time>
      </trkpt>
      <trkpt lat="44.27047" lon="2.52209">
        <ele>716</ele>
        <time>2022-06-12T10:04:29.439Z</time>
      </trkpt>
      <trkpt lat="44.27046" lon="2.52208">
        <ele>716</ele>
        <time>2022-06-12T10:04:30.439Z</time>
      </trkpt>
      <trkpt lat="44.27045" lon="2.52207">
        <ele>716</ele>
        <time>2022-06-12T10:04:31.439Z</time>
      </trkpt>
      <trkpt lat="44.27044" lon="2.52205">
        <ele>716</ele>
        <time>2022-06-12T10:04:32.439Z</time>
      </trkpt>
      <trkpt lat="44.27044" lon="2.52204">
        <ele>716</ele>
        <time>2022-06-12T10:04:33.439Z</time>
      </trkpt>
      <trkpt lat="44.27043" lon="2.52202">
        <ele>716</ele>
        <time>2022-06-12T10:04:34.439Z</time>
      </trkpt>
      <trkpt lat="44.27042" lon="2.52201">
        <ele>716</ele>
        <time>2022-06-12T10:04:35.439Z</time>
      </trkpt>
      <trkpt lat="44.27041" lon="2.52199">
        <ele>716</ele>
        <time>2022-06-12T10:04:36.439Z</time>
      </trkpt>
      <trkpt lat="44.2704" lon="2.52198">
        <ele>716</ele>
        <time>2022-06-12T10:04:37.439Z</time>
      </trkpt>
      <trkpt lat="44.27039" lon="2.52197">
        <ele>715</ele>
        <time>2022-06-12T10:04:38.439Z</time>
      </trkpt>
      <trkpt lat="44.27039" lon="2.52196">
        <ele>715</ele>
        <time>2022-06-12T10:04:39.439Z</time>
      </trkpt>
      <trkpt lat="44.27038" lon="2.52194">
        <ele>715</ele>
        <time>2022-06-12T10:04:40.439Z</time>
      </trkpt>
      <trkpt lat="44.27037" lon="2.52193">
        <ele>715</ele>
        <time>2022-06-12T10:04:41.439Z</time>
      </trkpt>
      <trkpt lat="44.27036" lon="2.52191">
        <ele>715</ele>
        <time>2022-06-12T10:04:42.439Z</time>
      </trkpt>
      <trkpt lat="44.27036" lon="2.52189">
        <ele>715</ele>
        <time>2022-06-12T10:04:43.439Z</time>
      </trkpt>
      <trkpt lat="44.27035" lon="2.52188">
        <ele>714</ele>
        <time>2022-06-12T10:04:44.439Z</time>
      </trkpt>
      <trkpt lat="44.27034" lon="2.52187">
        <ele>714</ele>
        <time>2022-06-12T10:04:45.439Z</time>
      </trkpt>
      <trkpt lat="44.27033" lon="2.52185">
        <ele>714</ele>
        <time>2022-06-12T10:04:46.439Z</time>
      </trkpt>
      <trkpt lat="44.27033" lon="2.52184">
        <ele>714</ele>
        <time>2022-06-12T10:04:47.439Z</time>
      </trkpt>
      <trkpt lat="44.27032" lon="2.52182">
        <ele>714</ele>
        <time>2022-06-12T10:04:48.439Z</time>
      </trkpt>
      <trkpt lat="44.27031" lon="2.52181">
        <ele>714</ele>
        <time>2022-06-12T10:04:49.439Z</time>
      </trkpt>
      <trkpt lat="44.27031" lon="2.52179">
        <ele>714</ele>
        <time>2022-06-12T10:04:50.439Z</time>
      </trkpt>
      <trkpt lat="44.2703" lon="2.52178">
        <ele>713</ele>
        <time>2022-06-12T10:04:51.439Z</time>
      </trkpt>
      <trkpt lat="44.27029" lon="2.52176">
        <ele>713</ele>
        <time>2022-06-12T10:04:52.439Z</time>
      </trkpt>
      <trkpt lat="44.27029" lon="2.52175">
        <ele>713</ele>
        <time>2022-06-12T10:04:53.439Z</time>
      </trkpt>
      <trkpt lat="44.27028" lon="2.52173">
        <ele>713</ele>
        <time>2022-06-12T10:04:54.439Z</time>
      </trkpt>
      <trkpt lat="44.27028" lon="2.52172">
        <ele>713</ele>
        <time>2022-06-12T10:04:55.439Z</time>
      </trkpt>
      <trkpt lat="44.27027" lon="2.5217">
        <ele>713</ele>
        <time>2022-06-12T10:04:56.439Z</time>
      </trkpt>
      <trkpt lat="44.27026" lon="2.52169">
        <ele>713</ele>
        <time>2022-06-12T10:04:57.439Z</time>
      </trkpt>
      <trkpt lat="44.27026" lon="2.52168">
        <ele>712</ele>
        <time>2022-06-12T10:04:58.439Z</time>
      </trkpt>
      <trkpt lat="44.27025" lon="2.52166">
        <ele>712</ele>
        <time>2022-06-12T10:04:59.439Z</time>
      </trkpt>
      <trkpt lat="44.27025" lon="2.52165">
        <ele>712</ele>
        <time>2022-06-12T10:05:00.439Z</time>
      </trkpt>
      <trkpt lat="44.27024" lon="2.52164">
        <ele>712</ele>
        <time>2022-06-12T10:05:01.439Z</time>
      </trkpt>
      <trkpt lat="44.27023" lon="2.52163">
        <ele>712</ele>
        <time>2022-06-12T10:05:02.439Z</time>
      </trkpt>
      <trkpt lat="44.27023" lon="2.52161">
        <ele>712</ele>
        <time>2022-06-12T10:05:03.439Z</time>
      </trkpt>
      <trkpt lat="44.27022" lon="2.52159">
        <ele>712</ele>
        <time>2022-06-12T10:05:04.439Z</time>
      </trkpt>
      <trkpt lat="44.27022" lon="2.52158">
        <ele>712</ele>
        <time>2022-06-12T10:05:05.439Z</time>
      </trkpt>
      <trkpt lat="44.27021" lon="2.52156">
        <ele>712</ele>
        <time>2022-06-12T10:05:06.439Z</time>
      </trkpt>
      <trkpt lat="44.27021" lon="2.52154">
        <ele>712</ele>
        <time>2022-06-12T10:05:07.439Z</time>
      </trkpt>
      <trkpt lat="44.27021" lon="2.52153">
        <ele>712</ele>
        <time>2022-06-12T10:05:08.439Z</time>
      </trkpt>
      <trkpt lat="44.2702" lon="2.52151">
        <ele>711</ele>
        <time>2022-06-12T10:05:09.439Z</time>
      </trkpt>
      <trkpt lat="44.2702" lon="2.52149">
        <ele>711</ele>
        <time>2022-06-12T10:05:10.439Z</time>
      </trkpt>
      <trkpt lat="44.27019" lon="2.52147">
        <ele>711</ele>
        <time>2022-06-12T10:05:11.439Z</time>
      </trkpt>
      <trkpt lat="44.27019" lon="2.52145">
        <ele>711</ele>
        <time>2022-06-12T10:05:12.439Z</time>
      </trkpt>
      <trkpt lat="44.27018" lon="2.52144">
        <ele>711</ele>
        <time>2022-06-12T10:05:13.439Z</time>
      </trkpt>
      <trkpt lat="44.27018" lon="2.52142">
        <ele>711</ele>
        <time>2022-06-12T10:05:14.439Z</time>
      </trkpt>
      <trkpt lat="44.27017" lon="2.5214">
        <ele>711</ele>
        <time>2022-06-12T10:05:15.439Z</time>
      </trkpt>
      <trkpt lat="44.27017" lon="2.52139">
        <ele>711</ele>
        <time>2022-06-12T10:05:16.439Z</time>
      </trkpt>
      <trkpt lat="44.27017" lon="2.52137">
        <ele>711</ele>
        <time>2022-06-12T10:05:17.439Z</time>
      </trkpt>
      <trkpt lat="44.27016" lon="2.52135">
        <ele>710</ele>
        <time>2022-06-12T10:05:18.439Z</time>
      </trkpt>
      <trkpt lat="44.27016" lon="2.52134">
        <ele>710</ele>
        <time>2022-06-12T10:05:19.439Z</time>
      </trkpt>
      <trkpt lat="44.27016" lon="2.52132">
        <ele>710</ele>
        <time>2022-06-12T10:05:20.439Z</time>
      </trkpt>
      <trkpt lat="44.27016" lon="2.5213">
        <ele>710</ele>
        <time>2022-06-12T10:05:21.439Z</time>
      </trkpt>
      <trkpt lat="44.27015" lon="2.52128">
        <ele>710</ele>
        <time>2022-06-12T10:05:22.439Z</time>
      </trkpt>
      <trkpt lat="44.27015" lon="2.52126">
        <ele>710</ele>
        <time>2022-06-12T10:05:23.439Z</time>
      </trkpt>
      <trkpt lat="44.27015" lon="2.52125">
        <ele>710</ele>
        <time>2022-06-12T10:05:24.439Z</time>
      </trkpt>
      <trkpt lat="44.27015" lon="2.52123">
        <ele>710</ele>
        <time>2022-06-12T10:05:25.439Z</time>
      </trkpt>
      <trkpt lat="44.27015" lon="2.52122">
        <ele>710</ele>
        <time>2022-06-12T10:05:26.439Z</time>
      </trkpt>
      <trkpt lat="44.27015" lon="2.5212">
        <ele>710</ele>
        <time>2022-06-12T10:05:27.439Z</time>
      </trkpt>
      <trkpt lat="44.27014" lon="2.52118">
        <ele>710</ele>
        <time>2022-06-12T10:05:28.439Z</time>
      </trkpt>
      <trkpt lat="44.27014" lon="2.52117">
        <ele>710</ele>
        <time>2022-06-12T10:05:29.439Z</time>
      </trkpt>
      <trkpt lat="44.27014" lon="2.52115">
        <ele>710</ele>
        <time>2022-06-12T10:05:30.439Z</time>
      </trkpt>
      <trkpt lat="44.27014" lon="2.52113">
        <ele>710</ele>
        <time>2022-06-12T10:05:31.439Z</time>
      </trkpt>
      <trkpt lat="44.27013" lon="2.52112">
        <ele>709</ele>
        <time>2022-06-12T10:05:32.439Z</time>
      </trkpt>
      <trkpt lat="44.27013" lon="2.5211">
        <ele>709</ele>
        <time>2022-06-12T10:05:33.439Z</time>
      </trkpt>
      <trkpt lat="44.27013" lon="2.52108">
        <ele>709</ele>
        <time>2022-06-12T10:05:34.439Z</time>
      </trkpt>
      <trkpt lat="44.27013" lon="2.52106">
        <ele>709</ele>
        <time>2022-06-12T10:05:35.439Z</time>
      </trkpt>
      <trkpt lat="44.27013" lon="2.52104">
        <ele>709</ele>
        <time>2022-06-12T10:05:36.439Z</time>
      </trkpt>
      <trkpt lat="44.27013" lon="2.52102">
        <ele>709</ele>
        <time>2022-06-12T10:05:37.439Z</time>
      </trkpt>
      <trkpt lat="44.27012" lon="2.52101">
        <ele>709</ele>
        <time>2022-06-12T10:05:38.439Z</time>
      </trkpt>
      <trkpt lat="44.27012" lon="2.52099">
        <ele>709</ele>
        <time>2022-06-12T10:05:39.439Z</time>
      </trkpt>
      <trkpt lat="44.27012" lon="2.52097">
        <ele>709</ele>
        <time>2022-06-12T10:05:40.439Z</time>
      </trkpt>
      <trkpt lat="44.27012" lon="2.52096">
        <ele>709</ele>
        <time>2022-06-12T10:05:41.439Z</time>
      </trkpt>
      <trkpt lat="44.27012" lon="2.52094">
        <ele>709</ele>
        <time>2022-06-12T10:05:42.439Z</time>
      </trkpt>
      <trkpt lat="44.27011" lon="2.52093">
        <ele>709</ele>
        <time>2022-06-12T10:05:43.439Z</time>
      </trkpt>
      <trkpt lat="44.27011" lon="2.52091">
        <ele>708</ele>
        <time>2022-06-12T10:05:44.439Z</time>
      </trkpt>
      <trkpt lat="44.27011" lon="2.52089">
        <ele>708</ele>
        <time>2022-06-12T10:05:45.439Z</time>
      </trkpt>
      <trkpt lat="44.27011" lon="2.52087">
        <ele>708</ele>
        <time>2022-06-12T10:05:46.439Z</time>
      </trkpt>
      <trkpt lat="44.27011" lon="2.52085">
        <ele>708</ele>
        <time>2022-06-12T10:05:47.439Z</time>
      </trkpt>
      <trkpt lat="44.27011" lon="2.52083">
        <ele>708</ele>
        <time>2022-06-12T10:05:48.439Z</time>
      </trkpt>
      <trkpt lat="44.27011" lon="2.52082">
        <ele>708</ele>
        <time>2022-06-12T10:05:49.439Z</time>
      </trkpt>
      <trkpt lat="44.2701" lon="2.5208">
        <ele>708</ele>
        <time>2022-06-12T10:05:50.439Z</time>
      </trkpt>
      <trkpt lat="44.2701" lon="2.52078">
        <ele>708</ele>
        <time>2022-06-12T10:05:51.439Z</time>
      </trkpt>
      <trkpt lat="44.2701" lon="2.52076">
        <ele>708</ele>
        <time>2022-06-12T10:05:52.439Z</time>
      </trkpt>
      <trkpt lat="44.2701" lon="2.52074">
        <ele>708</ele>
        <time>2022-06-12T10:05:53.439Z</time>
      </trkpt>
      <trkpt lat="44.27009" lon="2.52073">
        <ele>708</ele>
        <time>2022-06-12T10:05:54.439Z</time>
      </trkpt>
      <trkpt lat="44.27009" lon="2.52071">
        <ele>708</ele>
        <time>2022-06-12T10:05:55.439Z</time>
      </trkpt>
      <trkpt lat="44.27008" lon="2.52069">
        <ele>707</ele>
        <time>2022-06-12T10:05:56.439Z</time>
      </trkpt>
      <trkpt lat="44.27008" lon="2.52068">
        <ele>707</ele>
        <time>2022-06-12T10:05:57.439Z</time>
      </trkpt>
      <trkpt lat="44.27008" lon="2.52066">
        <ele>707</ele>
        <time>2022-06-12T10:05:58.439Z</time>
      </trkpt>
      <trkpt lat="44.27008" lon="2.52065">
        <ele>707</ele>
        <time>2022-06-12T10:05:59.439Z</time>
      </trkpt>
      <trkpt lat="44.27008" lon="2.52063">
        <ele>707</ele>
        <time>2022-06-12T10:06:00.439Z</time>
      </trkpt>
      <trkpt lat="44.27007" lon="2.52061">
        <ele>707</ele>
        <time>2022-06-12T10:06:01.439Z</time>
      </trkpt>
      <trkpt lat="44.27007" lon="2.52059">
        <ele>707</ele>
        <time>2022-06-12T10:06:02.439Z</time>
      </trkpt>
      <trkpt lat="44.27007" lon="2.52057">
        <ele>706</ele>
        <time>2022-06-12T10:06:03.439Z</time>
      </trkpt>
      <trkpt lat="44.27007" lon="2.52056">
        <ele>706</ele>
        <time>2022-06-12T10:06:04.439Z</time>
      </trkpt>
      <trkpt lat="44.27007" lon="2.52054">
        <ele>706</ele>
        <time>2022-06-12T10:06:05.439Z</time>
      </trkpt>
      <trkpt lat="44.27007" lon="2.52053">
        <ele>706</ele>
        <time>2022-06-12T10:06:06.439Z</time>
      </trkpt>
      <trkpt lat="44.27007" lon="2.52051">
        <ele>706</ele>
        <time>2022-06-12T10:06:07.439Z</time>
      </trkpt>
      <trkpt lat="44.27007" lon="2.5205">
        <ele>706</ele>
        <time>2022-06-12T10:06:08.439Z</time>
      </trkpt>
      <trkpt lat="44.27007" lon="2.52049">
        <ele>706</ele>
        <time>2022-06-12T10:06:09.439Z</time>
      </trkpt>
      <trkpt lat="44.27008" lon="2.52047">
        <ele>706</ele>
        <time>2022-06-12T10:06:10.439Z</time>
      </trkpt>
      <trkpt lat="44.27008" lon="2.52045">
        <ele>705</ele>
        <time>2022-06-12T10:06:11.439Z</time>
      </trkpt>
      <trkpt lat="44.27007" lon="2.52044">
        <ele>705</ele>
        <time>2022-06-12T10:06:12.439Z</time>
      </trkpt>
      <trkpt lat="44.27007" lon="2.52042">
        <ele>705</ele>
        <time>2022-06-12T10:06:13.439Z</time>
      </trkpt>
      <trkpt lat="44.27007" lon="2.5204">
        <ele>705</ele>
        <time>2022-06-12T10:06:14.439Z</time>
      </trkpt>
      <trkpt lat="44.27007" lon="2.52038">
        <ele>705</ele>
        <time>2022-06-12T10:06:15.439Z</time>
      </trkpt>
      <trkpt lat="44.27007" lon="2.52037">
        <ele>705</ele>
        <time>2022-06-12T10:06:16.439Z</time>
      </trkpt>
      <trkpt lat="44.27007" lon="2.52035">
        <ele>705</ele>
        <time>2022-06-12T10:06:17.439Z</time>
      </trkpt>
      <trkpt lat="44.27006" lon="2.52034">
        <ele>705</ele>
        <time>2022-06-12T10:06:18.439Z</time>
      </trkpt>
      <trkpt lat="44.27006" lon="2.52032">
        <ele>705</ele>
        <time>2022-06-12T10:06:19.439Z</time>
      </trkpt>
      <trkpt lat="44.27006" lon="2.5203">
        <ele>705</ele>
        <time>2022-06-12T10:06:20.439Z</time>
      </trkpt>
      <trkpt lat="44.27006" lon="2.52029">
        <ele>705</ele>
        <time>2022-06-12T10:06:21.439Z</time>
      </trkpt>
      <trkpt lat="44.27005" lon="2.52027">
        <ele>705</ele>
        <time>2022-06-12T10:06:22.439Z</time>
      </trkpt>
      <trkpt lat="44.27005" lon="2.52026">
        <ele>705</ele>
        <time>2022-06-12T10:06:23.439Z</time>
      </trkpt>
      <trkpt lat="44.27005" lon="2.52024">
        <ele>705</ele>
        <time>2022-06-12T10:06:24.439Z</time>
      </trkpt>
      <trkpt lat="44.27005" lon="2.52022">
        <ele>705</ele>
        <time>2022-06-12T10:06:25.439Z</time>
      </trkpt>
      <trkpt lat="44.27005" lon="2.5202">
        <ele>705</ele>
        <time>2022-06-12T10:06:26.439Z</time>
      </trkpt>
      <trkpt lat="44.27004" lon="2.52018">
        <ele>705</ele>
        <time>2022-06-12T10:06:27.439Z</time>
      </trkpt>
      <trkpt lat="44.27004" lon="2.52017">
        <ele>705</ele>
        <time>2022-06-12T10:06:28.439Z</time>
      </trkpt>
      <trkpt lat="44.27004" lon="2.52015">
        <ele>705</ele>
        <time>2022-06-12T10:06:29.439Z</time>
      </trkpt>
      <trkpt lat="44.27003" lon="2.52013">
        <ele>705</ele>
        <time>2022-06-12T10:06:30.439Z</time>
      </trkpt>
      <trkpt lat="44.27002" lon="2.52012">
        <ele>704</ele>
        <time>2022-06-12T10:06:31.439Z</time>
      </trkpt>
      <trkpt lat="44.27002" lon="2.5201">
        <ele>704</ele>
        <time>2022-06-12T10:06:32.439Z</time>
      </trkpt>
      <trkpt lat="44.27002" lon="2.52009">
        <ele>704</ele>
        <time>2022-06-12T10:06:33.439Z</time>
      </trkpt>
      <trkpt lat="44.27001" lon="2.52007">
        <ele>704</ele>
        <time>2022-06-12T10:06:34.439Z</time>
      </trkpt>
      <trkpt lat="44.27001" lon="2.52006">
        <ele>704</ele>
        <time>2022-06-12T10:06:35.439Z</time>
      </trkpt>
      <trkpt lat="44.27" lon="2.52004">
        <ele>704</ele>
        <time>2022-06-12T10:06:36.439Z</time>
      </trkpt>
      <trkpt lat="44.26999" lon="2.52002">
        <ele>704</ele>
        <time>2022-06-12T10:06:37.439Z</time>
      </trkpt>
      <trkpt lat="44.26999" lon="2.52001">
        <ele>704</ele>
        <time>2022-06-12T10:06:38.439Z</time>
      </trkpt>
      <trkpt lat="44.26998" lon="2.51999">
        <ele>704</ele>
        <time>2022-06-12T10:06:39.439Z</time>
      </trkpt>
      <trkpt lat="44.26997" lon="2.51998">
        <ele>704</ele>
        <time>2022-06-12T10:06:40.439Z</time>
      </trkpt>
      <trkpt lat="44.26997" lon="2.51996">
        <ele>704</ele>
        <time>2022-06-12T10:06:41.439Z</time>
      </trkpt>
      <trkpt lat="44.26996" lon="2.51995">
        <ele>704</ele>
        <time>2022-06-12T10:06:42.439Z</time>
      </trkpt>
      <trkpt lat="44.26995" lon="2.51993">
        <ele>704</ele>
        <time>2022-06-12T10:06:43.439Z</time>
      </trkpt>
      <trkpt lat="44.26995" lon="2.51992">
        <ele>704</ele>
        <time>2022-06-12T10:06:44.439Z</time>
      </trkpt>
      <trkpt lat="44.26994" lon="2.51991">
        <ele>704</ele>
        <time>2022-06-12T10:06:45.439Z</time>
      </trkpt>
      <trkpt lat="44.26993" lon="2.51989">
        <ele>704</ele>
        <time>2022-06-12T10:06:46.439Z</time>
      </trkpt>
      <trkpt lat="44.26992" lon="2.51988">
        <ele>704</ele>
        <time>2022-06-12T10:06:47.439Z</time>
      </trkpt>
      <trkpt lat="44.26992" lon="2.51986">
        <ele>704</ele>
        <time>2022-06-12T10:06:48.439Z</time>
      </trkpt>
      <trkpt lat="44.26991" lon="2.51985">
        <ele>704</ele>
        <time>2022-06-12T10:06:49.439Z</time>
      </trkpt>
      <trkpt lat="44.2699" lon="2.51984">
        <ele>704</ele>
        <time>2022-06-12T10:06:50.439Z</time>
      </trkpt>
      <trkpt lat="44.26989" lon="2.51983">
        <ele>704</ele>
        <time>2022-06-12T10:06:51.439Z</time>
      </trkpt>
      <trkpt lat="44.26988" lon="2.51982">
        <ele>704</ele>
        <time>2022-06-12T10:06:52.439Z</time>
      </trkpt>
      <trkpt lat="44.26987" lon="2.5198">
        <ele>703</ele>
        <time>2022-06-12T10:06:53.439Z</time>
      </trkpt>
      <trkpt lat="44.26987" lon="2.51979">
        <ele>703</ele>
        <time>2022-06-12T10:06:54.439Z</time>
      </trkpt>
      <trkpt lat="44.26986" lon="2.51977">
        <ele>703</ele>
        <time>2022-06-12T10:06:55.439Z</time>
      </trkpt>
      <trkpt lat="44.26985" lon="2.51976">
        <ele>703</ele>
        <time>2022-06-12T10:06:56.439Z</time>
      </trkpt>
      <trkpt lat="44.26984" lon="2.51975">
        <ele>703</ele>
        <time>2022-06-12T10:06:57.439Z</time>
      </trkpt>
      <trkpt lat="44.26984" lon="2.51974">
        <ele>703</ele>
        <time>2022-06-12T10:06:58.439Z</time>
      </trkpt>
      <trkpt lat="44.26983" lon="2.51973">
        <ele>703</ele>
        <time>2022-06-12T10:06:59.439Z</time>
      </trkpt>
      <trkpt lat="44.26982" lon="2.51972">
        <ele>703</ele>
        <time>2022-06-12T10:07:00.439Z</time>
      </trkpt>
      <trkpt lat="44.26981" lon="2.5197">
        <ele>703</ele>
        <time>2022-06-12T10:07:01.439Z</time>
      </trkpt>
      <trkpt lat="44.2698" lon="2.51969">
        <ele>702</ele>
        <time>2022-06-12T10:07:02.439Z</time>
      </trkpt>
      <trkpt lat="44.2698" lon="2.51968">
        <ele>702</ele>
        <time>2022-06-12T10:07:03.439Z</time>
      </trkpt>
      <trkpt lat="44.26979" lon="2.51967">
        <ele>702</ele>
        <time>2022-06-12T10:07:04.439Z</time>
      </trkpt>
      <trkpt lat="44.26978" lon="2.51965">
        <ele>702</ele>
        <time>2022-06-12T10:07:05.439Z</time>
      </trkpt>
      <trkpt lat="44.26978" lon="2.51964">
        <ele>702</ele>
        <time>2022-06-12T10:07:06.439Z</time>
      </trkpt>
      <trkpt lat="44.26977" lon="2.51963">
        <ele>702</ele>
        <time>2022-06-12T10:07:07.439Z</time>
      </trkpt>
      <trkpt lat="44.26976" lon="2.51962">
        <ele>702</ele>
        <time>2022-06-12T10:07:08.439Z</time>
      </trkpt>
      <trkpt lat="44.26975" lon="2.51961">
        <ele>701</ele>
        <time>2022-06-12T10:07:09.439Z</time>
      </trkpt>
      <trkpt lat="44.26974" lon="2.5196">
        <ele>701</ele>
        <time>2022-06-12T10:07:10.439Z</time>
      </trkpt>
      <trkpt lat="44.26974" lon="2.51959">
        <ele>701</ele>
        <time>2022-06-12T10:07:11.439Z</time>
      </trkpt>
      <trkpt lat="44.26973" lon="2.51957">
        <ele>701</ele>
        <time>2022-06-12T10:07:12.439Z</time>
      </trkpt>
      <trkpt lat="44.26972" lon="2.51956">
        <ele>701</ele>
        <time>2022-06-12T10:07:13.439Z</time>
      </trkpt>
      <trkpt lat="44.26971" lon="2.51955">
        <ele>701</ele>
        <time>2022-06-12T10:07:14.439Z</time>
      </trkpt>
      <trkpt lat="44.26971" lon="2.51954">
        <ele>701</ele>
        <time>2022-06-12T10:07:15.439Z</time>
      </trkpt>
      <trkpt lat="44.2697" lon="2.51953">
        <ele>700</ele>
        <time>2022-06-12T10:07:16.439Z</time>
      </trkpt>
      <trkpt lat="44.26969" lon="2.51951">
        <ele>700</ele>
        <time>2022-06-12T10:07:17.439Z</time>
      </trkpt>
      <trkpt lat="44.26968" lon="2.5195">
        <ele>700</ele>
        <time>2022-06-12T10:07:18.439Z</time>
      </trkpt>
      <trkpt lat="44.26967" lon="2.51949">
        <ele>700</ele>
        <time>2022-06-12T10:07:19.439Z</time>
      </trkpt>
      <trkpt lat="44.26967" lon="2.51947">
        <ele>700</ele>
        <time>2022-06-12T10:07:20.439Z</time>
      </trkpt>
      <trkpt lat="44.26966" lon="2.51946">
        <ele>700</ele>
        <time>2022-06-12T10:07:21.439Z</time>
      </trkpt>
      <trkpt lat="44.26965" lon="2.51945">
        <ele>700</ele>
        <time>2022-06-12T10:07:22.439Z</time>
      </trkpt>
      <trkpt lat="44.26964" lon="2.51944">
        <ele>700</ele>
        <time>2022-06-12T10:07:23.439Z</time>
      </trkpt>
      <trkpt lat="44.26964" lon="2.51943">
        <ele>700</ele>
        <time>2022-06-12T10:07:24.439Z</time>
      </trkpt>
      <trkpt lat="44.26963" lon="2.51941">
        <ele>700</ele>
        <time>2022-06-12T10:07:25.439Z</time>
      </trkpt>
      <trkpt lat="44.26962" lon="2.5194">
        <ele>700</ele>
        <time>2022-06-12T10:07:26.439Z</time>
      </trkpt>
      <trkpt lat="44.26961" lon="2.51939">
        <ele>700</ele>
        <time>2022-06-12T10:07:27.439Z</time>
      </trkpt>
      <trkpt lat="44.26961" lon="2.51938">
        <ele>699</ele>
        <time>2022-06-12T10:07:28.439Z</time>
      </trkpt>
      <trkpt lat="44.2696" lon="2.51937">
        <ele>699</ele>
        <time>2022-06-12T10:07:29.439Z</time>
      </trkpt>
      <trkpt lat="44.2696" lon="2.51936">
        <ele>699</ele>
        <time>2022-06-12T10:07:30.439Z</time>
      </trkpt>
      <trkpt lat="44.26959" lon="2.51935">
        <ele>699</ele>
        <time>2022-06-12T10:07:31.439Z</time>
      </trkpt>
      <trkpt lat="44.26958" lon="2.51934">
        <ele>699</ele>
        <time>2022-06-12T10:07:32.439Z</time>
      </trkpt>
      <trkpt lat="44.26957" lon="2.51932">
        <ele>699</ele>
        <time>2022-06-12T10:07:33.439Z</time>
      </trkpt>
      <trkpt lat="44.26957" lon="2.51931">
        <ele>699</ele>
        <time>2022-06-12T10:07:34.439Z</time>
      </trkpt>
      <trkpt lat="44.26956" lon="2.5193">
        <ele>699</ele>
        <time>2022-06-12T10:07:35.439Z</time>
      </trkpt>
      <trkpt lat="44.26955" lon="2.51929">
        <ele>699</ele>
        <time>2022-06-12T10:07:36.439Z</time>
      </trkpt>
      <trkpt lat="44.26954" lon="2.51928">
        <ele>699</ele>
        <time>2022-06-12T10:07:37.439Z</time>
      </trkpt>
      <trkpt lat="44.26953" lon="2.51927">
        <ele>699</ele>
        <time>2022-06-12T10:07:38.439Z</time>
      </trkpt>
      <trkpt lat="44.26953" lon="2.51925">
        <ele>699</ele>
        <time>2022-06-12T10:07:39.439Z</time>
      </trkpt>
      <trkpt lat="44.26952" lon="2.51924">
        <ele>699</ele>
        <time>2022-06-12T10:07:40.439Z</time>
      </trkpt>
      <trkpt lat="44.26951" lon="2.51923">
        <ele>699</ele>
        <time>2022-06-12T10:07:41.439Z</time>
      </trkpt>
      <trkpt lat="44.2695" lon="2.51922">
        <ele>698</ele>
        <time>2022-06-12T10:07:42.439Z</time>
      </trkpt>
      <trkpt lat="44.26949" lon="2.51921">
        <ele>698</ele>
        <time>2022-06-12T10:07:43.439Z</time>
      </trkpt>
      <trkpt lat="44.26948" lon="2.5192">
        <ele>698</ele>
        <time>2022-06-12T10:07:44.439Z</time>
      </trkpt>
      <trkpt lat="44.26947" lon="2.51919">
        <ele>698</ele>
        <time>2022-06-12T10:07:45.439Z</time>
      </trkpt>
      <trkpt lat="44.26946" lon="2.51917">
        <ele>698</ele>
        <time>2022-06-12T10:07:46.439Z</time>
      </trkpt>
      <trkpt lat="44.26945" lon="2.51916">
        <ele>698</ele>
        <time>2022-06-12T10:07:47.439Z</time>
      </trkpt>
      <trkpt lat="44.26944" lon="2.51915">
        <ele>698</ele>
        <time>2022-06-12T10:07:48.439Z</time>
      </trkpt>
      <trkpt lat="44.26943" lon="2.51914">
        <ele>697</ele>
        <time>2022-06-12T10:07:49.439Z</time>
      </trkpt>
      <trkpt lat="44.26943" lon="2.51913">
        <ele>697</ele>
        <time>2022-06-12T10:07:50.439Z</time>
      </trkpt>
      <trkpt lat="44.26942" lon="2.51912">
        <ele>697</ele>
        <time>2022-06-12T10:07:51.439Z</time>
      </trkpt>
      <trkpt lat="44.26941" lon="2.51911">
        <ele>697</ele>
        <time>2022-06-12T10:07:52.439Z</time>
      </trkpt>
      <trkpt lat="44.2694" lon="2.5191">
        <ele>697</ele>
        <time>2022-06-12T10:07:53.439Z</time>
      </trkpt>
      <trkpt lat="44.26938" lon="2.51909">
        <ele>697</ele>
        <time>2022-06-12T10:07:54.439Z</time>
      </trkpt>
      <trkpt lat="44.26937" lon="2.51908">
        <ele>697</ele>
        <time>2022-06-12T10:07:55.439Z</time>
      </trkpt>
      <trkpt lat="44.26936" lon="2.51907">
        <ele>697</ele>
        <time>2022-06-12T10:07:56.439Z</time>
      </trkpt>
      <trkpt lat="44.26936" lon="2.51906">
        <ele>696</ele>
        <time>2022-06-12T10:07:57.439Z</time>
      </trkpt>
      <trkpt lat="44.26935" lon="2.51906">
        <ele>696</ele>
        <time>2022-06-12T10:07:58.439Z</time>
      </trkpt>
      <trkpt lat="44.26934" lon="2.51905">
        <ele>696</ele>
        <time>2022-06-12T10:07:59.439Z</time>
      </trkpt>
      <trkpt lat="44.26933" lon="2.51904">
        <ele>696</ele>
        <time>2022-06-12T10:08:00.439Z</time>
      </trkpt>
      <trkpt lat="44.26932" lon="2.51903">
        <ele>696</ele>
        <time>2022-06-12T10:08:01.439Z</time>
      </trkpt>
      <trkpt lat="44.26931" lon="2.51902">
        <ele>696</ele>
        <time>2022-06-12T10:08:02.439Z</time>
      </trkpt>
      <trkpt lat="44.2693" lon="2.51901">
        <ele>696</ele>
        <time>2022-06-12T10:08:03.439Z</time>
      </trkpt>
      <trkpt lat="44.26929" lon="2.519">
        <ele>696</ele>
        <time>2022-06-12T10:08:04.439Z</time>
      </trkpt>
      <trkpt lat="44.26928" lon="2.51899">
        <ele>696</ele>
        <time>2022-06-12T10:08:05.439Z</time>
      </trkpt>
      <trkpt lat="44.26928" lon="2.51899">
        <ele>696</ele>
        <time>2022-06-12T10:08:06.439Z</time>
      </trkpt>
      <trkpt lat="44.26927" lon="2.51898">
        <ele>696</ele>
        <time>2022-06-12T10:08:07.439Z</time>
      </trkpt>
      <trkpt lat="44.26927" lon="2.51897">
        <ele>696</ele>
        <time>2022-06-12T10:08:08.439Z</time>
      </trkpt>
      <trkpt lat="44.26926" lon="2.51897">
        <ele>696</ele>
        <time>2022-06-12T10:08:09.439Z</time>
      </trkpt>
      <trkpt lat="44.26925" lon="2.51896">
        <ele>695</ele>
        <time>2022-06-12T10:08:10.439Z</time>
      </trkpt>
      <trkpt lat="44.26924" lon="2.51895">
        <ele>695</ele>
        <time>2022-06-12T10:08:11.439Z</time>
      </trkpt>
      <trkpt lat="44.26923" lon="2.51895">
        <ele>695</ele>
        <time>2022-06-12T10:08:12.439Z</time>
      </trkpt>
      <trkpt lat="44.26922" lon="2.51894">
        <ele>695</ele>
        <time>2022-06-12T10:08:13.439Z</time>
      </trkpt>
      <trkpt lat="44.26921" lon="2.51893">
        <ele>695</ele>
        <time>2022-06-12T10:08:14.439Z</time>
      </trkpt>
      <trkpt lat="44.2692" lon="2.51892">
        <ele>695</ele>
        <time>2022-06-12T10:08:15.439Z</time>
      </trkpt>
      <trkpt lat="44.26919" lon="2.51892">
        <ele>695</ele>
        <time>2022-06-12T10:08:16.439Z</time>
      </trkpt>
      <trkpt lat="44.26918" lon="2.51891">
        <ele>695</ele>
        <time>2022-06-12T10:08:17.439Z</time>
      </trkpt>
      <trkpt lat="44.26917" lon="2.5189">
        <ele>694</ele>
        <time>2022-06-12T10:08:18.439Z</time>
      </trkpt>
      <trkpt lat="44.26916" lon="2.51889">
        <ele>694</ele>
        <time>2022-06-12T10:08:19.439Z</time>
      </trkpt>
      <trkpt lat="44.26915" lon="2.51888">
        <ele>694</ele>
        <time>2022-06-12T10:08:20.439Z</time>
      </trkpt>
      <trkpt lat="44.26914" lon="2.51887">
        <ele>694</ele>
        <time>2022-06-12T10:08:21.439Z</time>
      </trkpt>
      <trkpt lat="44.26913" lon="2.51886">
        <ele>694</ele>
        <time>2022-06-12T10:08:22.439Z</time>
      </trkpt>
      <trkpt lat="44.26912" lon="2.51885">
        <ele>694</ele>
        <time>2022-06-12T10:08:23.439Z</time>
      </trkpt>
      <trkpt lat="44.26911" lon="2.51883">
        <ele>694</ele>
        <time>2022-06-12T10:08:24.439Z</time>
      </trkpt>
      <trkpt lat="44.2691" lon="2.51882">
        <ele>694</ele>
        <time>2022-06-12T10:08:25.439Z</time>
      </trkpt>
      <trkpt lat="44.26909" lon="2.51881">
        <ele>693</ele>
        <time>2022-06-12T10:08:26.439Z</time>
      </trkpt>
      <trkpt lat="44.26908" lon="2.5188">
        <ele>693</ele>
        <time>2022-06-12T10:08:27.439Z</time>
      </trkpt>
      <trkpt lat="44.26907" lon="2.51879">
        <ele>693</ele>
        <time>2022-06-12T10:08:28.439Z</time>
      </trkpt>
      <trkpt lat="44.26906" lon="2.51878">
        <ele>693</ele>
        <time>2022-06-12T10:08:29.439Z</time>
      </trkpt>
      <trkpt lat="44.26905" lon="2.51877">
        <ele>693</ele>
        <time>2022-06-12T10:08:30.439Z</time>
      </trkpt>
      <trkpt lat="44.26904" lon="2.51876">
        <ele>693</ele>
        <time>2022-06-12T10:08:31.439Z</time>
      </trkpt>
      <trkpt lat="44.26903" lon="2.51875">
        <ele>692</ele>
        <time>2022-06-12T10:08:32.439Z</time>
      </trkpt>
      <trkpt lat="44.26902" lon="2.51875">
        <ele>692</ele>
        <time>2022-06-12T10:08:33.439Z</time>
      </trkpt>
      <trkpt lat="44.269" lon="2.51874">
        <ele>692</ele>
        <time>2022-06-12T10:08:34.439Z</time>
      </trkpt>
      <trkpt lat="44.26899" lon="2.51873">
        <ele>692</ele>
        <time>2022-06-12T10:08:35.439Z</time>
      </trkpt>
      <trkpt lat="44.26898" lon="2.51873">
        <ele>692</ele>
        <time>2022-06-12T10:08:36.439Z</time>
      </trkpt>
      <trkpt lat="44.26897" lon="2.51873">
        <ele>692</ele>
        <time>2022-06-12T10:08:37.439Z</time>
      </trkpt>
      <trkpt lat="44.26896" lon="2.51873">
        <ele>692</ele>
        <time>2022-06-12T10:08:38.439Z</time>
      </trkpt>
      <trkpt lat="44.26895" lon="2.51873">
        <ele>691</ele>
        <time>2022-06-12T10:08:39.439Z</time>
      </trkpt>
      <trkpt lat="44.26893" lon="2.51873">
        <ele>691</ele>
        <time>2022-06-12T10:08:40.439Z</time>
      </trkpt>
      <trkpt lat="44.26892" lon="2.51873">
        <ele>691</ele>
        <time>2022-06-12T10:08:41.439Z</time>
      </trkpt>
      <trkpt lat="44.26891" lon="2.51874">
        <ele>691</ele>
        <time>2022-06-12T10:08:42.439Z</time>
      </trkpt>
      <trkpt lat="44.26889" lon="2.51874">
        <ele>691</ele>
        <time>2022-06-12T10:08:43.439Z</time>
      </trkpt>
      <trkpt lat="44.26888" lon="2.51874">
        <ele>691</ele>
        <time>2022-06-12T10:08:44.439Z</time>
      </trkpt>
      <trkpt lat="44.26887" lon="2.51875">
        <ele>691</ele>
        <time>2022-06-12T10:08:45.439Z</time>
      </trkpt>
      <trkpt lat="44.26886" lon="2.51875">
        <ele>691</ele>
        <time>2022-06-12T10:08:46.439Z</time>
      </trkpt>
      <trkpt lat="44.26885" lon="2.51876">
        <ele>690</ele>
        <time>2022-06-12T10:08:47.439Z</time>
      </trkpt>
      <trkpt lat="44.26884" lon="2.51877">
        <ele>690</ele>
        <time>2022-06-12T10:08:48.439Z</time>
      </trkpt>
      <trkpt lat="44.26883" lon="2.51878">
        <ele>690</ele>
        <time>2022-06-12T10:08:49.439Z</time>
      </trkpt>
      <trkpt lat="44.26882" lon="2.51879">
        <ele>690</ele>
        <time>2022-06-12T10:08:50.439Z</time>
      </trkpt>
      <trkpt lat="44.26881" lon="2.5188">
        <ele>690</ele>
        <time>2022-06-12T10:08:51.439Z</time>
      </trkpt>
      <trkpt lat="44.2688" lon="2.51881">
        <ele>690</ele>
        <time>2022-06-12T10:08:52.439Z</time>
      </trkpt>
      <trkpt lat="44.26879" lon="2.51882">
        <ele>690</ele>
        <time>2022-06-12T10:08:53.439Z</time>
      </trkpt>
      <trkpt lat="44.26878" lon="2.51883">
        <ele>689</ele>
        <time>2022-06-12T10:08:54.439Z</time>
      </trkpt>
      <trkpt lat="44.26877" lon="2.51884">
        <ele>689</ele>
        <time>2022-06-12T10:08:55.439Z</time>
      </trkpt>
      <trkpt lat="44.26876" lon="2.51885">
        <ele>689</ele>
        <time>2022-06-12T10:08:56.439Z</time>
      </trkpt>
      <trkpt lat="44.26875" lon="2.51886">
        <ele>689</ele>
        <time>2022-06-12T10:08:57.439Z</time>
      </trkpt>
      <trkpt lat="44.26875" lon="2.51888">
        <ele>689</ele>
        <time>2022-06-12T10:08:58.439Z</time>
      </trkpt>
      <trkpt lat="44.26874" lon="2.51889">
        <ele>689</ele>
        <time>2022-06-12T10:08:59.439Z</time>
      </trkpt>
      <trkpt lat="44.26873" lon="2.5189">
        <ele>689</ele>
        <time>2022-06-12T10:09:00.439Z</time>
      </trkpt>
      <trkpt lat="44.26873" lon="2.51891">
        <ele>689</ele>
        <time>2022-06-12T10:09:01.439Z</time>
      </trkpt>
      <trkpt lat="44.26872" lon="2.51892">
        <ele>689</ele>
        <time>2022-06-12T10:09:02.439Z</time>
      </trkpt>
      <trkpt lat="44.26871" lon="2.51893">
        <ele>688</ele>
        <time>2022-06-12T10:09:03.439Z</time>
      </trkpt>
      <trkpt lat="44.2687" lon="2.51894">
        <ele>688</ele>
        <time>2022-06-12T10:09:04.439Z</time>
      </trkpt>
      <trkpt lat="44.2687" lon="2.51895">
        <ele>688</ele>
        <time>2022-06-12T10:09:05.439Z</time>
      </trkpt>
      <trkpt lat="44.2687" lon="2.51897">
        <ele>688</ele>
        <time>2022-06-12T10:09:06.439Z</time>
      </trkpt>
      <trkpt lat="44.26869" lon="2.51898">
        <ele>688</ele>
        <time>2022-06-12T10:09:07.439Z</time>
      </trkpt>
      <trkpt lat="44.26869" lon="2.51899">
        <ele>688</ele>
        <time>2022-06-12T10:09:08.439Z</time>
      </trkpt>
      <trkpt lat="44.26869" lon="2.51901">
        <ele>688</ele>
        <time>2022-06-12T10:09:09.439Z</time>
      </trkpt>
      <trkpt lat="44.26869" lon="2.51903">
        <ele>688</ele>
        <time>2022-06-12T10:09:10.439Z</time>
      </trkpt>
      <trkpt lat="44.26869" lon="2.51905">
        <ele>688</ele>
        <time>2022-06-12T10:09:11.439Z</time>
      </trkpt>
      <trkpt lat="44.26869" lon="2.51906">
        <ele>688</ele>
        <time>2022-06-12T10:09:12.439Z</time>
      </trkpt>
      <trkpt lat="44.26869" lon="2.51908">
        <ele>688</ele>
        <time>2022-06-12T10:09:13.439Z</time>
      </trkpt>
      <trkpt lat="44.26869" lon="2.51909">
        <ele>688</ele>
        <time>2022-06-12T10:09:14.439Z</time>
      </trkpt>
      <trkpt lat="44.26869" lon="2.51911">
        <ele>688</ele>
        <time>2022-06-12T10:09:15.439Z</time>
      </trkpt>
      <trkpt lat="44.26869" lon="2.51912">
        <ele>688</ele>
        <time>2022-06-12T10:09:16.439Z</time>
      </trkpt>
      <trkpt lat="44.26869" lon="2.51914">
        <ele>688</ele>
        <time>2022-06-12T10:09:17.439Z</time>
      </trkpt>
      <trkpt lat="44.26869" lon="2.51915">
        <ele>688</ele>
        <time>2022-06-12T10:09:18.439Z</time>
      </trkpt>
      <trkpt lat="44.26869" lon="2.51917">
        <ele>688</ele>
        <time>2022-06-12T10:09:19.439Z</time>
      </trkpt>
      <trkpt lat="44.26869" lon="2.51918">
        <ele>688</ele>
        <time>2022-06-12T10:09:20.439Z</time>
      </trkpt>
      <trkpt lat="44.26869" lon="2.5192">
        <ele>688</ele>
        <time>2022-06-12T10:09:21.439Z</time>
      </trkpt>
      <trkpt lat="44.26869" lon="2.51921">
        <ele>688</ele>
        <time>2022-06-12T10:09:22.439Z</time>
      </trkpt>
      <trkpt lat="44.26869" lon="2.51923">
        <ele>688</ele>
        <time>2022-06-12T10:09:23.439Z</time>
      </trkpt>
      <trkpt lat="44.26869" lon="2.51925">
        <ele>688</ele>
        <time>2022-06-12T10:09:24.439Z</time>
      </trkpt>
      <trkpt lat="44.26869" lon="2.51927">
        <ele>687</ele>
        <time>2022-06-12T10:09:25.439Z</time>
      </trkpt>
      <trkpt lat="44.26869" lon="2.51928">
        <ele>687</ele>
        <time>2022-06-12T10:09:26.439Z</time>
      </trkpt>
      <trkpt lat="44.26869" lon="2.5193">
        <ele>687</ele>
        <time>2022-06-12T10:09:27.439Z</time>
      </trkpt>
      <trkpt lat="44.26869" lon="2.51931">
        <ele>687</ele>
        <time>2022-06-12T10:09:28.439Z</time>
      </trkpt>
      <trkpt lat="44.26869" lon="2.51933">
        <ele>687</ele>
        <time>2022-06-12T10:09:29.439Z</time>
      </trkpt>
      <trkpt lat="44.26869" lon="2.51934">
        <ele>687</ele>
        <time>2022-06-12T10:09:30.439Z</time>
      </trkpt>
      <trkpt lat="44.26869" lon="2.51936">
        <ele>686</ele>
        <time>2022-06-12T10:09:31.439Z</time>
      </trkpt>
      <trkpt lat="44.26869" lon="2.51938">
        <ele>686</ele>
        <time>2022-06-12T10:09:32.439Z</time>
      </trkpt>
      <trkpt lat="44.26869" lon="2.5194">
        <ele>686</ele>
        <time>2022-06-12T10:09:33.439Z</time>
      </trkpt>
      <trkpt lat="44.26869" lon="2.51941">
        <ele>686</ele>
        <time>2022-06-12T10:09:34.439Z</time>
      </trkpt>
      <trkpt lat="44.26869" lon="2.51943">
        <ele>686</ele>
        <time>2022-06-12T10:09:35.439Z</time>
      </trkpt>
      <trkpt lat="44.26869" lon="2.51944">
        <ele>685</ele>
        <time>2022-06-12T10:09:36.439Z</time>
      </trkpt>
      <trkpt lat="44.26868" lon="2.51946">
        <ele>685</ele>
        <time>2022-06-12T10:09:37.439Z</time>
      </trkpt>
      <trkpt lat="44.26868" lon="2.51948">
        <ele>685</ele>
        <time>2022-06-12T10:09:38.439Z</time>
      </trkpt>
      <trkpt lat="44.26868" lon="2.51949">
        <ele>685</ele>
        <time>2022-06-12T10:09:39.439Z</time>
      </trkpt>
      <trkpt lat="44.26868" lon="2.51951">
        <ele>685</ele>
        <time>2022-06-12T10:09:40.439Z</time>
      </trkpt>
      <trkpt lat="44.26868" lon="2.51953">
        <ele>685</ele>
        <time>2022-06-12T10:09:41.439Z</time>
      </trkpt>
      <trkpt lat="44.26868" lon="2.51954">
        <ele>685</ele>
        <time>2022-06-12T10:09:42.439Z</time>
      </trkpt>
      <trkpt lat="44.26868" lon="2.51956">
        <ele>685</ele>
        <time>2022-06-12T10:09:43.439Z</time>
      </trkpt>
      <trkpt lat="44.26868" lon="2.51957">
        <ele>685</ele>
        <time>2022-06-12T10:09:44.439Z</time>
      </trkpt>
      <trkpt lat="44.26868" lon="2.51958">
        <ele>685</ele>
        <time>2022-06-12T10:09:45.439Z</time>
      </trkpt>
      <trkpt lat="44.26868" lon="2.5196">
        <ele>685</ele>
        <time>2022-06-12T10:09:46.439Z</time>
      </trkpt>
      <trkpt lat="44.26868" lon="2.51962">
        <ele>685</ele>
        <time>2022-06-12T10:09:47.439Z</time>
      </trkpt>
      <trkpt lat="44.26868" lon="2.51964">
        <ele>684</ele>
        <time>2022-06-12T10:09:48.439Z</time>
      </trkpt>
      <trkpt lat="44.26868" lon="2.51966">
        <ele>684</ele>
        <time>2022-06-12T10:09:49.439Z</time>
      </trkpt>
      <trkpt lat="44.26868" lon="2.51967">
        <ele>684</ele>
        <time>2022-06-12T10:09:50.439Z</time>
      </trkpt>
      <trkpt lat="44.26867" lon="2.51969">
        <ele>684</ele>
        <time>2022-06-12T10:09:51.439Z</time>
      </trkpt>
      <trkpt lat="44.26867" lon="2.5197">
        <ele>684</ele>
        <time>2022-06-12T10:09:52.439Z</time>
      </trkpt>
      <trkpt lat="44.26867" lon="2.51972">
        <ele>684</ele>
        <time>2022-06-12T10:09:53.439Z</time>
      </trkpt>
      <trkpt lat="44.26867" lon="2.51973">
        <ele>684</ele>
        <time>2022-06-12T10:09:54.439Z</time>
      </trkpt>
      <trkpt lat="44.26866" lon="2.51975">
        <ele>684</ele>
        <time>2022-06-12T10:09:55.439Z</time>
      </trkpt>
      <trkpt lat="44.26866" lon="2.51977">
        <ele>684</ele>
        <time>2022-06-12T10:09:56.439Z</time>
      </trkpt>
      <trkpt lat="44.26866" lon="2.51979">
        <ele>684</ele>
        <time>2022-06-12T10:09:57.439Z</time>
      </trkpt>
      <trkpt lat="44.26866" lon="2.51981">
        <ele>684</ele>
        <time>2022-06-12T10:09:58.439Z</time>
      </trkpt>
      <trkpt lat="44.26865" lon="2.51982">
        <ele>684</ele>
        <time>2022-06-12T10:09:59.439Z</time>
      </trkpt>
      <trkpt lat="44.26866" lon="2.51984">
        <ele>684</ele>
        <time>2022-06-12T10:10:00.439Z</time>
      </trkpt>
      <trkpt lat="44.26865" lon="2.51985">
        <ele>684</ele>
        <time>2022-06-12T10:10:01.439Z</time>
      </trkpt>
      <trkpt lat="44.26865" lon="2.51987">
        <ele>684</ele>
        <time>2022-06-12T10:10:02.439Z</time>
      </trkpt>
      <trkpt lat="44.26865" lon="2.51989">
        <ele>684</ele>
        <time>2022-06-12T10:10:03.439Z</time>
      </trkpt>
      <trkpt lat="44.26865" lon="2.5199">
        <ele>684</ele>
        <time>2022-06-12T10:10:04.439Z</time>
      </trkpt>
      <trkpt lat="44.26864" lon="2.51992">
        <ele>684</ele>
        <time>2022-06-12T10:10:05.439Z</time>
      </trkpt>
      <trkpt lat="44.26864" lon="2.51993">
        <ele>684</ele>
        <time>2022-06-12T10:10:06.439Z</time>
      </trkpt>
      <trkpt lat="44.26864" lon="2.51995">
        <ele>684</ele>
        <time>2022-06-12T10:10:07.439Z</time>
      </trkpt>
      <trkpt lat="44.26863" lon="2.51996">
        <ele>684</ele>
        <time>2022-06-12T10:10:08.439Z</time>
      </trkpt>
      <trkpt lat="44.26863" lon="2.51998">
        <ele>683</ele>
        <time>2022-06-12T10:10:09.439Z</time>
      </trkpt>
      <trkpt lat="44.26862" lon="2.52">
        <ele>683</ele>
        <time>2022-06-12T10:10:10.439Z</time>
      </trkpt>
      <trkpt lat="44.26861" lon="2.52001">
        <ele>683</ele>
        <time>2022-06-12T10:10:11.439Z</time>
      </trkpt>
      <trkpt lat="44.2686" lon="2.52002">
        <ele>683</ele>
        <time>2022-06-12T10:10:12.439Z</time>
      </trkpt>
      <trkpt lat="44.26859" lon="2.52003">
        <ele>683</ele>
        <time>2022-06-12T10:10:13.439Z</time>
      </trkpt>
      <trkpt lat="44.26858" lon="2.52004">
        <ele>683</ele>
        <time>2022-06-12T10:10:14.439Z</time>
      </trkpt>
      <trkpt lat="44.26857" lon="2.52005">
        <ele>683</ele>
        <time>2022-06-12T10:10:15.439Z</time>
      </trkpt>
      <trkpt lat="44.26856" lon="2.52006">
        <ele>683</ele>
        <time>2022-06-12T10:10:16.439Z</time>
      </trkpt>
      <trkpt lat="44.26855" lon="2.52007">
        <ele>683</ele>
        <time>2022-06-12T10:10:17.439Z</time>
      </trkpt>
      <trkpt lat="44.26854" lon="2.52008">
        <ele>682</ele>
        <time>2022-06-12T10:10:18.439Z</time>
      </trkpt>
      <trkpt lat="44.26852" lon="2.52009">
        <ele>682</ele>
        <time>2022-06-12T10:10:19.439Z</time>
      </trkpt>
      <trkpt lat="44.26851" lon="2.5201">
        <ele>682</ele>
        <time>2022-06-12T10:10:20.439Z</time>
      </trkpt>
      <trkpt lat="44.2685" lon="2.5201">
        <ele>682</ele>
        <time>2022-06-12T10:10:21.439Z</time>
      </trkpt>
      <trkpt lat="44.26849" lon="2.52011">
        <ele>682</ele>
        <time>2022-06-12T10:10:22.439Z</time>
      </trkpt>
      <trkpt lat="44.26848" lon="2.52011">
        <ele>682</ele>
        <time>2022-06-12T10:10:23.439Z</time>
      </trkpt>
      <trkpt lat="44.26846" lon="2.52012">
        <ele>682</ele>
        <time>2022-06-12T10:10:24.439Z</time>
      </trkpt>
      <trkpt lat="44.26845" lon="2.52012">
        <ele>682</ele>
        <time>2022-06-12T10:10:25.439Z</time>
      </trkpt>
      <trkpt lat="44.26844" lon="2.52012">
        <ele>682</ele>
        <time>2022-06-12T10:10:26.439Z</time>
      </trkpt>
      <trkpt lat="44.26843" lon="2.52012">
        <ele>682</ele>
        <time>2022-06-12T10:10:27.439Z</time>
      </trkpt>
      <trkpt lat="44.26842" lon="2.52012">
        <ele>682</ele>
        <time>2022-06-12T10:10:28.439Z</time>
      </trkpt>
      <trkpt lat="44.26841" lon="2.52012">
        <ele>682</ele>
        <time>2022-06-12T10:10:29.439Z</time>
      </trkpt>
      <trkpt lat="44.26839" lon="2.52012">
        <ele>682</ele>
        <time>2022-06-12T10:10:30.439Z</time>
      </trkpt>
      <trkpt lat="44.26838" lon="2.52012">
        <ele>681</ele>
        <time>2022-06-12T10:10:31.439Z</time>
      </trkpt>
      <trkpt lat="44.26837" lon="2.52012">
        <ele>681</ele>
        <time>2022-06-12T10:10:32.439Z</time>
      </trkpt>
      <trkpt lat="44.26836" lon="2.52012">
        <ele>682</ele>
        <time>2022-06-12T10:10:33.439Z</time>
      </trkpt>
      <trkpt lat="44.26835" lon="2.52012">
        <ele>682</ele>
        <time>2022-06-12T10:10:34.439Z</time>
      </trkpt>
      <trkpt lat="44.26834" lon="2.52011">
        <ele>682</ele>
        <time>2022-06-12T10:10:35.439Z</time>
      </trkpt>
      <trkpt lat="44.26833" lon="2.52011">
        <ele>682</ele>
        <time>2022-06-12T10:10:36.439Z</time>
      </trkpt>
      <trkpt lat="44.26832" lon="2.5201">
        <ele>682</ele>
        <time>2022-06-12T10:10:37.439Z</time>
      </trkpt>
      <trkpt lat="44.26831" lon="2.5201">
        <ele>682</ele>
        <time>2022-06-12T10:10:38.439Z</time>
      </trkpt>
      <trkpt lat="44.2683" lon="2.52009">
        <ele>682</ele>
        <time>2022-06-12T10:10:39.439Z</time>
      </trkpt>
      <trkpt lat="44.26829" lon="2.52008">
        <ele>682</ele>
        <time>2022-06-12T10:10:40.439Z</time>
      </trkpt>
      <trkpt lat="44.26828" lon="2.52008">
        <ele>682</ele>
        <time>2022-06-12T10:10:41.439Z</time>
      </trkpt>
      <trkpt lat="44.26827" lon="2.52007">
        <ele>682</ele>
        <time>2022-06-12T10:10:42.439Z</time>
      </trkpt>
      <trkpt lat="44.26826" lon="2.52006">
        <ele>682</ele>
        <time>2022-06-12T10:10:43.439Z</time>
      </trkpt>
      <trkpt lat="44.26824" lon="2.52006">
        <ele>682</ele>
        <time>2022-06-12T10:10:44.439Z</time>
      </trkpt>
      <trkpt lat="44.26823" lon="2.52005">
        <ele>682</ele>
        <time>2022-06-12T10:10:45.439Z</time>
      </trkpt>
      <trkpt lat="44.26823" lon="2.52004">
        <ele>683</ele>
        <time>2022-06-12T10:10:46.439Z</time>
      </trkpt>
      <trkpt lat="44.26822" lon="2.52003">
        <ele>683</ele>
        <time>2022-06-12T10:10:47.439Z</time>
      </trkpt>
      <trkpt lat="44.26821" lon="2.52002">
        <ele>683</ele>
        <time>2022-06-12T10:10:48.439Z</time>
      </trkpt>
      <trkpt lat="44.2682" lon="2.52001">
        <ele>683</ele>
        <time>2022-06-12T10:10:49.439Z</time>
      </trkpt>
      <trkpt lat="44.26819" lon="2.52">
        <ele>683</ele>
        <time>2022-06-12T10:10:50.439Z</time>
      </trkpt>
      <trkpt lat="44.26819" lon="2.51999">
        <ele>683</ele>
        <time>2022-06-12T10:10:51.439Z</time>
      </trkpt>
      <trkpt lat="44.26818" lon="2.51998">
        <ele>682</ele>
        <time>2022-06-12T10:10:52.439Z</time>
      </trkpt>
      <trkpt lat="44.26817" lon="2.51997">
        <ele>682</ele>
        <time>2022-06-12T10:10:53.439Z</time>
      </trkpt>
      <trkpt lat="44.26816" lon="2.51996">
        <ele>682</ele>
        <time>2022-06-12T10:10:54.439Z</time>
      </trkpt>
      <trkpt lat="44.26816" lon="2.51995">
        <ele>682</ele>
        <time>2022-06-12T10:10:55.439Z</time>
      </trkpt>
      <trkpt lat="44.26815" lon="2.51993">
        <ele>682</ele>
        <time>2022-06-12T10:10:56.439Z</time>
      </trkpt>
      <trkpt lat="44.26814" lon="2.51992">
        <ele>682</ele>
        <time>2022-06-12T10:10:57.439Z</time>
      </trkpt>
      <trkpt lat="44.26814" lon="2.51991">
        <ele>682</ele>
        <time>2022-06-12T10:10:58.439Z</time>
      </trkpt>
      <trkpt lat="44.26813" lon="2.5199">
        <ele>682</ele>
        <time>2022-06-12T10:10:59.439Z</time>
      </trkpt>
      <trkpt lat="44.26812" lon="2.51989">
        <ele>682</ele>
        <time>2022-06-12T10:11:00.439Z</time>
      </trkpt>
      <trkpt lat="44.26811" lon="2.51988">
        <ele>682</ele>
        <time>2022-06-12T10:11:01.439Z</time>
      </trkpt>
      <trkpt lat="44.26811" lon="2.51987">
        <ele>682</ele>
        <time>2022-06-12T10:11:02.439Z</time>
      </trkpt>
      <trkpt lat="44.2681" lon="2.51986">
        <ele>682</ele>
        <time>2022-06-12T10:11:03.439Z</time>
      </trkpt>
      <trkpt lat="44.26809" lon="2.51984">
        <ele>682</ele>
        <time>2022-06-12T10:11:04.439Z</time>
      </trkpt>
      <trkpt lat="44.26809" lon="2.51983">
        <ele>682</ele>
        <time>2022-06-12T10:11:05.439Z</time>
      </trkpt>
      <trkpt lat="44.26808" lon="2.51982">
        <ele>682</ele>
        <time>2022-06-12T10:11:06.439Z</time>
      </trkpt>
      <trkpt lat="44.26808" lon="2.51981">
        <ele>682</ele>
        <time>2022-06-12T10:11:07.439Z</time>
      </trkpt>
      <trkpt lat="44.26808" lon="2.51981">
        <ele>682</ele>
        <time>2022-06-12T10:11:08.439Z</time>
      </trkpt>
      <trkpt lat="44.26807" lon="2.5198">
        <ele>682</ele>
        <time>2022-06-12T10:11:09.439Z</time>
      </trkpt>
      <trkpt lat="44.26807" lon="2.51979">
        <ele>682</ele>
        <time>2022-06-12T10:11:10.439Z</time>
      </trkpt>
      <trkpt lat="44.26807" lon="2.51978">
        <ele>682</ele>
        <time>2022-06-12T10:11:11.439Z</time>
      </trkpt>
      <trkpt lat="44.26806" lon="2.51977">
        <ele>682</ele>
        <time>2022-06-12T10:11:12.439Z</time>
      </trkpt>
      <trkpt lat="44.26806" lon="2.51976">
        <ele>681</ele>
        <time>2022-06-12T10:11:13.439Z</time>
      </trkpt>
      <trkpt lat="44.26805" lon="2.51976">
        <ele>681</ele>
        <time>2022-06-12T10:11:14.439Z</time>
      </trkpt>
      <trkpt lat="44.26805" lon="2.51975">
        <ele>681</ele>
        <time>2022-06-12T10:11:15.439Z</time>
      </trkpt>
      <trkpt lat="44.26804" lon="2.51974">
        <ele>681</ele>
        <time>2022-06-12T10:11:16.439Z</time>
      </trkpt>
      <trkpt lat="44.26804" lon="2.51973">
        <ele>681</ele>
        <time>2022-06-12T10:11:17.439Z</time>
      </trkpt>
      <trkpt lat="44.26803" lon="2.51973">
        <ele>681</ele>
        <time>2022-06-12T10:11:18.439Z</time>
      </trkpt>
      <trkpt lat="44.26803" lon="2.51972">
        <ele>681</ele>
        <time>2022-06-12T10:11:19.439Z</time>
      </trkpt>
      <trkpt lat="44.26802" lon="2.51971">
        <ele>681</ele>
        <time>2022-06-12T10:11:20.439Z</time>
      </trkpt>
      <trkpt lat="44.26802" lon="2.5197">
        <ele>681</ele>
        <time>2022-06-12T10:11:21.439Z</time>
      </trkpt>
      <trkpt lat="44.26801" lon="2.5197">
        <ele>680</ele>
        <time>2022-06-12T10:11:22.439Z</time>
      </trkpt>
      <trkpt lat="44.268" lon="2.51969">
        <ele>680</ele>
        <time>2022-06-12T10:11:23.439Z</time>
      </trkpt>
      <trkpt lat="44.268" lon="2.51968">
        <ele>680</ele>
        <time>2022-06-12T10:11:24.439Z</time>
      </trkpt>
      <trkpt lat="44.268" lon="2.51968">
        <ele>680</ele>
        <time>2022-06-12T10:11:25.439Z</time>
      </trkpt>
      <trkpt lat="44.26799" lon="2.51967">
        <ele>680</ele>
        <time>2022-06-12T10:11:26.439Z</time>
      </trkpt>
      <trkpt lat="44.26799" lon="2.51966">
        <ele>680</ele>
        <time>2022-06-12T10:11:27.439Z</time>
      </trkpt>
      <trkpt lat="44.26798" lon="2.51966">
        <ele>680</ele>
        <time>2022-06-12T10:11:28.439Z</time>
      </trkpt>
      <trkpt lat="44.26797" lon="2.51965">
        <ele>681</ele>
        <time>2022-06-12T10:11:29.439Z</time>
      </trkpt>
      <trkpt lat="44.26797" lon="2.51964">
        <ele>681</ele>
        <time>2022-06-12T10:11:30.439Z</time>
      </trkpt>
      <trkpt lat="44.26796" lon="2.51964">
        <ele>681</ele>
        <time>2022-06-12T10:11:31.439Z</time>
      </trkpt>
      <trkpt lat="44.26796" lon="2.51963">
        <ele>681</ele>
        <time>2022-06-12T10:11:32.439Z</time>
      </trkpt>
      <trkpt lat="44.26795" lon="2.51962">
        <ele>681</ele>
        <time>2022-06-12T10:11:33.439Z</time>
      </trkpt>
      <trkpt lat="44.26794" lon="2.51961">
        <ele>681</ele>
        <time>2022-06-12T10:11:34.439Z</time>
      </trkpt>
      <trkpt lat="44.26793" lon="2.5196">
        <ele>681</ele>
        <time>2022-06-12T10:11:35.439Z</time>
      </trkpt>
      <trkpt lat="44.26792" lon="2.51959">
        <ele>681</ele>
        <time>2022-06-12T10:11:36.439Z</time>
      </trkpt>
      <trkpt lat="44.26791" lon="2.51959">
        <ele>682</ele>
        <time>2022-06-12T10:11:37.439Z</time>
      </trkpt>
      <trkpt lat="44.2679" lon="2.51958">
        <ele>682</ele>
        <time>2022-06-12T10:11:38.439Z</time>
      </trkpt>
      <trkpt lat="44.26789" lon="2.51957">
        <ele>682</ele>
        <time>2022-06-12T10:11:39.439Z</time>
      </trkpt>
      <trkpt lat="44.26788" lon="2.51957">
        <ele>682</ele>
        <time>2022-06-12T10:11:40.439Z</time>
      </trkpt>
      <trkpt lat="44.26787" lon="2.51956">
        <ele>682</ele>
        <time>2022-06-12T10:11:41.439Z</time>
      </trkpt>
      <trkpt lat="44.26786" lon="2.51956">
        <ele>683</ele>
        <time>2022-06-12T10:11:42.439Z</time>
      </trkpt>
      <trkpt lat="44.26785" lon="2.51956">
        <ele>683</ele>
        <time>2022-06-12T10:11:43.439Z</time>
      </trkpt>
      <trkpt lat="44.26784" lon="2.51955">
        <ele>683</ele>
        <time>2022-06-12T10:11:44.439Z</time>
      </trkpt>
      <trkpt lat="44.26783" lon="2.51955">
        <ele>684</ele>
        <time>2022-06-12T10:11:45.439Z</time>
      </trkpt>
      <trkpt lat="44.26782" lon="2.51954">
        <ele>684</ele>
        <time>2022-06-12T10:11:46.439Z</time>
      </trkpt>
      <trkpt lat="44.26781" lon="2.51954">
        <ele>684</ele>
        <time>2022-06-12T10:11:47.439Z</time>
      </trkpt>
      <trkpt lat="44.2678" lon="2.51953">
        <ele>685</ele>
        <time>2022-06-12T10:11:48.439Z</time>
      </trkpt>
      <trkpt lat="44.26778" lon="2.51952">
        <ele>685</ele>
        <time>2022-06-12T10:11:49.439Z</time>
      </trkpt>
      <trkpt lat="44.26777" lon="2.51952">
        <ele>685</ele>
        <time>2022-06-12T10:11:50.439Z</time>
      </trkpt>
      <trkpt lat="44.26776" lon="2.51951">
        <ele>685</ele>
        <time>2022-06-12T10:11:51.439Z</time>
      </trkpt>
      <trkpt lat="44.26774" lon="2.5195">
        <ele>686</ele>
        <time>2022-06-12T10:11:52.439Z</time>
      </trkpt>
      <trkpt lat="44.26773" lon="2.5195">
        <ele>686</ele>
        <time>2022-06-12T10:11:53.439Z</time>
      </trkpt>
      <trkpt lat="44.26772" lon="2.5195">
        <ele>686</ele>
        <time>2022-06-12T10:11:54.439Z</time>
      </trkpt>
      <trkpt lat="44.2677" lon="2.51949">
        <ele>686</ele>
        <time>2022-06-12T10:11:55.439Z</time>
      </trkpt>
      <trkpt lat="44.26769" lon="2.51948">
        <ele>687</ele>
        <time>2022-06-12T10:11:56.439Z</time>
      </trkpt>
      <trkpt lat="44.26768" lon="2.51948">
        <ele>687</ele>
        <time>2022-06-12T10:11:57.439Z</time>
      </trkpt>
      <trkpt lat="44.26766" lon="2.51948">
        <ele>687</ele>
        <time>2022-06-12T10:11:58.439Z</time>
      </trkpt>
      <trkpt lat="44.26765" lon="2.51947">
        <ele>687</ele>
        <time>2022-06-12T10:11:59.439Z</time>
      </trkpt>
      <trkpt lat="44.26764" lon="2.51947">
        <ele>687</ele>
        <time>2022-06-12T10:12:00.439Z</time>
      </trkpt>
      <trkpt lat="44.26763" lon="2.51947">
        <ele>687</ele>
        <time>2022-06-12T10:12:01.439Z</time>
      </trkpt>
      <trkpt lat="44.26761" lon="2.51947">
        <ele>687</ele>
        <time>2022-06-12T10:12:02.439Z</time>
      </trkpt>
      <trkpt lat="44.2676" lon="2.51946">
        <ele>688</ele>
        <time>2022-06-12T10:12:03.439Z</time>
      </trkpt>
      <trkpt lat="44.26759" lon="2.51946">
        <ele>688</ele>
        <time>2022-06-12T10:12:04.439Z</time>
      </trkpt>
      <trkpt lat="44.26757" lon="2.51945">
        <ele>688</ele>
        <time>2022-06-12T10:12:05.439Z</time>
      </trkpt>
      <trkpt lat="44.26756" lon="2.51945">
        <ele>688</ele>
        <time>2022-06-12T10:12:06.439Z</time>
      </trkpt>
      <trkpt lat="44.26755" lon="2.51945">
        <ele>688</ele>
        <time>2022-06-12T10:12:07.439Z</time>
      </trkpt>
      <trkpt lat="44.26753" lon="2.51945">
        <ele>689</ele>
        <time>2022-06-12T10:12:08.439Z</time>
      </trkpt>
      <trkpt lat="44.26752" lon="2.51945">
        <ele>689</ele>
        <time>2022-06-12T10:12:09.439Z</time>
      </trkpt>
      <trkpt lat="44.26751" lon="2.51945">
        <ele>689</ele>
        <time>2022-06-12T10:12:10.439Z</time>
      </trkpt>
      <trkpt lat="44.2675" lon="2.51945">
        <ele>689</ele>
        <time>2022-06-12T10:12:11.439Z</time>
      </trkpt>
      <trkpt lat="44.26749" lon="2.51945">
        <ele>689</ele>
        <time>2022-06-12T10:12:12.439Z</time>
      </trkpt>
      <trkpt lat="44.26747" lon="2.51945">
        <ele>689</ele>
        <time>2022-06-12T10:12:13.439Z</time>
      </trkpt>
      <trkpt lat="44.26746" lon="2.51945">
        <ele>689</ele>
        <time>2022-06-12T10:12:14.439Z</time>
      </trkpt>
      <trkpt lat="44.26745" lon="2.51945">
        <ele>689</ele>
        <time>2022-06-12T10:12:15.439Z</time>
      </trkpt>
      <trkpt lat="44.26743" lon="2.51945">
        <ele>690</ele>
        <time>2022-06-12T10:12:16.439Z</time>
      </trkpt>
      <trkpt lat="44.26742" lon="2.51945">
        <ele>690</ele>
        <time>2022-06-12T10:12:17.439Z</time>
      </trkpt>
      <trkpt lat="44.26741" lon="2.51945">
        <ele>690</ele>
        <time>2022-06-12T10:12:18.439Z</time>
      </trkpt>
      <trkpt lat="44.2674" lon="2.51945">
        <ele>690</ele>
        <time>2022-06-12T10:12:19.439Z</time>
      </trkpt>
      <trkpt lat="44.26738" lon="2.51945">
        <ele>690</ele>
        <time>2022-06-12T10:12:20.439Z</time>
      </trkpt>
      <trkpt lat="44.26737" lon="2.51945">
        <ele>690</ele>
        <time>2022-06-12T10:12:21.439Z</time>
      </trkpt>
      <trkpt lat="44.26736" lon="2.51945">
        <ele>690</ele>
        <time>2022-06-12T10:12:22.439Z</time>
      </trkpt>
      <trkpt lat="44.26735" lon="2.51945">
        <ele>690</ele>
        <time>2022-06-12T10:12:23.439Z</time>
      </trkpt>
      <trkpt lat="44.26733" lon="2.51945">
        <ele>690</ele>
        <time>2022-06-12T10:12:24.439Z</time>
      </trkpt>
      <trkpt lat="44.26732" lon="2.51945">
        <ele>690</ele>
        <time>2022-06-12T10:12:25.439Z</time>
      </trkpt>
      <trkpt lat="44.26731" lon="2.51945">
        <ele>690</ele>
        <time>2022-06-12T10:12:26.439Z</time>
      </trkpt>
      <trkpt lat="44.2673" lon="2.51945">
        <ele>690</ele>
        <time>2022-06-12T10:12:27.439Z</time>
      </trkpt>
      <trkpt lat="44.26729" lon="2.51946">
        <ele>690</ele>
        <time>2022-06-12T10:12:28.439Z</time>
      </trkpt>
      <trkpt lat="44.26728" lon="2.51946">
        <ele>690</ele>
        <time>2022-06-12T10:12:29.439Z</time>
      </trkpt>
      <trkpt lat="44.26727" lon="2.51946">
        <ele>690</ele>
        <time>2022-06-12T10:12:30.439Z</time>
      </trkpt>
      <trkpt lat="44.26725" lon="2.51946">
        <ele>690</ele>
        <time>2022-06-12T10:12:31.439Z</time>
      </trkpt>
      <trkpt lat="44.26724" lon="2.51947">
        <ele>690</ele>
        <time>2022-06-12T10:12:32.439Z</time>
      </trkpt>
      <trkpt lat="44.26723" lon="2.51947">
        <ele>691</ele>
        <time>2022-06-12T10:12:33.439Z</time>
      </trkpt>
      <trkpt lat="44.26722" lon="2.51947">
        <ele>691</ele>
        <time>2022-06-12T10:12:34.439Z</time>
      </trkpt>
      <trkpt lat="44.26721" lon="2.51947">
        <ele>691</ele>
        <time>2022-06-12T10:12:35.439Z</time>
      </trkpt>
      <trkpt lat="44.2672" lon="2.51948">
        <ele>691</ele>
        <time>2022-06-12T10:12:36.439Z</time>
      </trkpt>
      <trkpt lat="44.26719" lon="2.51948">
        <ele>691</ele>
        <time>2022-06-12T10:12:37.439Z</time>
      </trkpt>
      <trkpt lat="44.26717" lon="2.51948">
        <ele>691</ele>
        <time>2022-06-12T10:12:38.439Z</time>
      </trkpt>
      <trkpt lat="44.26716" lon="2.51949">
        <ele>691</ele>
        <time>2022-06-12T10:12:39.439Z</time>
      </trkpt>
      <trkpt lat="44.26715" lon="2.51949">
        <ele>692</ele>
        <time>2022-06-12T10:12:40.439Z</time>
      </trkpt>
      <trkpt lat="44.26714" lon="2.5195">
        <ele>692</ele>
        <time>2022-06-12T10:12:41.439Z</time>
      </trkpt>
      <trkpt lat="44.26713" lon="2.5195">
        <ele>692</ele>
        <time>2022-06-12T10:12:42.439Z</time>
      </trkpt>
      <trkpt lat="44.26712" lon="2.5195">
        <ele>692</ele>
        <time>2022-06-12T10:12:43.439Z</time>
      </trkpt>
      <trkpt lat="44.26711" lon="2.51951">
        <ele>692</ele>
        <time>2022-06-12T10:12:44.439Z</time>
      </trkpt>
      <trkpt lat="44.2671" lon="2.51951">
        <ele>692</ele>
        <time>2022-06-12T10:12:45.439Z</time>
      </trkpt>
      <trkpt lat="44.26709" lon="2.51952">
        <ele>692</ele>
        <time>2022-06-12T10:12:46.439Z</time>
      </trkpt>
      <trkpt lat="44.26707" lon="2.51952">
        <ele>692</ele>
        <time>2022-06-12T10:12:47.439Z</time>
      </trkpt>
      <trkpt lat="44.26706" lon="2.51952">
        <ele>693</ele>
        <time>2022-06-12T10:12:48.439Z</time>
      </trkpt>
      <trkpt lat="44.26705" lon="2.51952">
        <ele>693</ele>
        <time>2022-06-12T10:12:49.439Z</time>
      </trkpt>
      <trkpt lat="44.26704" lon="2.51953">
        <ele>693</ele>
        <time>2022-06-12T10:12:50.439Z</time>
      </trkpt>
      <trkpt lat="44.26703" lon="2.51953">
        <ele>693</ele>
        <time>2022-06-12T10:12:51.439Z</time>
      </trkpt>
      <trkpt lat="44.26702" lon="2.51953">
        <ele>693</ele>
        <time>2022-06-12T10:12:52.439Z</time>
      </trkpt>
      <trkpt lat="44.26701" lon="2.51954">
        <ele>694</ele>
        <time>2022-06-12T10:12:53.439Z</time>
      </trkpt>
      <trkpt lat="44.267" lon="2.51954">
        <ele>694</ele>
        <time>2022-06-12T10:12:54.439Z</time>
      </trkpt>
      <trkpt lat="44.26699" lon="2.51955">
        <ele>694</ele>
        <time>2022-06-12T10:12:55.439Z</time>
      </trkpt>
      <trkpt lat="44.26697" lon="2.51955">
        <ele>694</ele>
        <time>2022-06-12T10:12:56.439Z</time>
      </trkpt>
      <trkpt lat="44.26696" lon="2.51955">
        <ele>694</ele>
        <time>2022-06-12T10:12:57.439Z</time>
      </trkpt>
      <trkpt lat="44.26695" lon="2.51955">
        <ele>695</ele>
        <time>2022-06-12T10:12:58.439Z</time>
      </trkpt>
      <trkpt lat="44.26694" lon="2.51956">
        <ele>695</ele>
        <time>2022-06-12T10:12:59.439Z</time>
      </trkpt>
      <trkpt lat="44.26693" lon="2.51956">
        <ele>695</ele>
        <time>2022-06-12T10:13:00.439Z</time>
      </trkpt>
      <trkpt lat="44.26692" lon="2.51957">
        <ele>695</ele>
        <time>2022-06-12T10:13:01.439Z</time>
      </trkpt>
      <trkpt lat="44.26691" lon="2.51957">
        <ele>695</ele>
        <time>2022-06-12T10:13:02.439Z</time>
      </trkpt>
      <trkpt lat="44.2669" lon="2.51957">
        <ele>695</ele>
        <time>2022-06-12T10:13:03.439Z</time>
      </trkpt>
      <trkpt lat="44.26688" lon="2.51957">
        <ele>695</ele>
        <time>2022-06-12T10:13:04.439Z</time>
      </trkpt>
      <trkpt lat="44.26687" lon="2.51958">
        <ele>696</ele>
        <time>2022-06-12T10:13:05.439Z</time>
      </trkpt>
      <trkpt lat="44.26686" lon="2.51958">
        <ele>696</ele>
        <time>2022-06-12T10:13:06.439Z</time>
      </trkpt>
      <trkpt lat="44.26685" lon="2.51958">
        <ele>696</ele>
        <time>2022-06-12T10:13:07.439Z</time>
      </trkpt>
      <trkpt lat="44.26684" lon="2.51958">
        <ele>696</ele>
        <time>2022-06-12T10:13:08.439Z</time>
      </trkpt>
      <trkpt lat="44.26683" lon="2.51958">
        <ele>696</ele>
        <time>2022-06-12T10:13:09.439Z</time>
      </trkpt>
      <trkpt lat="44.26682" lon="2.51958">
        <ele>696</ele>
        <time>2022-06-12T10:13:10.439Z</time>
      </trkpt>
      <trkpt lat="44.2668" lon="2.51958">
        <ele>696</ele>
        <time>2022-06-12T10:13:11.439Z</time>
      </trkpt>
      <trkpt lat="44.26679" lon="2.51958">
        <ele>696</ele>
        <time>2022-06-12T10:13:12.439Z</time>
      </trkpt>
      <trkpt lat="44.26678" lon="2.51958">
        <ele>696</ele>
        <time>2022-06-12T10:13:13.439Z</time>
      </trkpt>
      <trkpt lat="44.26677" lon="2.51958">
        <ele>696</ele>
        <time>2022-06-12T10:13:14.439Z</time>
      </trkpt>
      <trkpt lat="44.26676" lon="2.51958">
        <ele>696</ele>
        <time>2022-06-12T10:13:15.439Z</time>
      </trkpt>
      <trkpt lat="44.26674" lon="2.51958">
        <ele>696</ele>
        <time>2022-06-12T10:13:16.439Z</time>
      </trkpt>
      <trkpt lat="44.26673" lon="2.51958">
        <ele>696</ele>
        <time>2022-06-12T10:13:17.439Z</time>
      </trkpt>
      <trkpt lat="44.26672" lon="2.51958">
        <ele>696</ele>
        <time>2022-06-12T10:13:18.439Z</time>
      </trkpt>
      <trkpt lat="44.26671" lon="2.51957">
        <ele>696</ele>
        <time>2022-06-12T10:13:19.439Z</time>
      </trkpt>
      <trkpt lat="44.26669" lon="2.51957">
        <ele>696</ele>
        <time>2022-06-12T10:13:20.439Z</time>
      </trkpt>
      <trkpt lat="44.26668" lon="2.51957">
        <ele>696</ele>
        <time>2022-06-12T10:13:21.439Z</time>
      </trkpt>
      <trkpt lat="44.26667" lon="2.51956">
        <ele>696</ele>
        <time>2022-06-12T10:13:22.439Z</time>
      </trkpt>
      <trkpt lat="44.26666" lon="2.51956">
        <ele>696</ele>
        <time>2022-06-12T10:13:23.439Z</time>
      </trkpt>
      <trkpt lat="44.26665" lon="2.51956">
        <ele>696</ele>
        <time>2022-06-12T10:13:24.439Z</time>
      </trkpt>
      <trkpt lat="44.26664" lon="2.51956">
        <ele>696</ele>
        <time>2022-06-12T10:13:25.439Z</time>
      </trkpt>
      <trkpt lat="44.26663" lon="2.51955">
        <ele>696</ele>
        <time>2022-06-12T10:13:26.439Z</time>
      </trkpt>
      <trkpt lat="44.26662" lon="2.51955">
        <ele>696</ele>
        <time>2022-06-12T10:13:27.439Z</time>
      </trkpt>
      <trkpt lat="44.2666" lon="2.51954">
        <ele>696</ele>
        <time>2022-06-12T10:13:28.439Z</time>
      </trkpt>
      <trkpt lat="44.26659" lon="2.51954">
        <ele>696</ele>
        <time>2022-06-12T10:13:29.439Z</time>
      </trkpt>
      <trkpt lat="44.26658" lon="2.51953">
        <ele>696</ele>
        <time>2022-06-12T10:13:30.439Z</time>
      </trkpt>
      <trkpt lat="44.26657" lon="2.51952">
        <ele>696</ele>
        <time>2022-06-12T10:13:31.439Z</time>
      </trkpt>
      <trkpt lat="44.26656" lon="2.51952">
        <ele>696</ele>
        <time>2022-06-12T10:13:32.439Z</time>
      </trkpt>
      <trkpt lat="44.26655" lon="2.51951">
        <ele>696</ele>
        <time>2022-06-12T10:13:33.439Z</time>
      </trkpt>
      <trkpt lat="44.26654" lon="2.51951">
        <ele>696</ele>
        <time>2022-06-12T10:13:34.439Z</time>
      </trkpt>
      <trkpt lat="44.26653" lon="2.5195">
        <ele>696</ele>
        <time>2022-06-12T10:13:35.439Z</time>
      </trkpt>
      <trkpt lat="44.26651" lon="2.5195">
        <ele>696</ele>
        <time>2022-06-12T10:13:36.439Z</time>
      </trkpt>
      <trkpt lat="44.2665" lon="2.51949">
        <ele>696</ele>
        <time>2022-06-12T10:13:37.439Z</time>
      </trkpt>
      <trkpt lat="44.26649" lon="2.51948">
        <ele>696</ele>
        <time>2022-06-12T10:13:38.439Z</time>
      </trkpt>
      <trkpt lat="44.26648" lon="2.51948">
        <ele>696</ele>
        <time>2022-06-12T10:13:39.439Z</time>
      </trkpt>
      <trkpt lat="44.26647" lon="2.51947">
        <ele>696</ele>
        <time>2022-06-12T10:13:40.439Z</time>
      </trkpt>
      <trkpt lat="44.26645" lon="2.51947">
        <ele>696</ele>
        <time>2022-06-12T10:13:41.439Z</time>
      </trkpt>
      <trkpt lat="44.26644" lon="2.51946">
        <ele>696</ele>
        <time>2022-06-12T10:13:42.439Z</time>
      </trkpt>
      <trkpt lat="44.26643" lon="2.51946">
        <ele>696</ele>
        <time>2022-06-12T10:13:43.439Z</time>
      </trkpt>
      <trkpt lat="44.26642" lon="2.51946">
        <ele>696</ele>
        <time>2022-06-12T10:13:44.439Z</time>
      </trkpt>
      <trkpt lat="44.2664" lon="2.51945">
        <ele>696</ele>
        <time>2022-06-12T10:13:45.439Z</time>
      </trkpt>
      <trkpt lat="44.26639" lon="2.51944">
        <ele>697</ele>
        <time>2022-06-12T10:13:46.439Z</time>
      </trkpt>
      <trkpt lat="44.26638" lon="2.51944">
        <ele>697</ele>
        <time>2022-06-12T10:13:47.439Z</time>
      </trkpt>
      <trkpt lat="44.26637" lon="2.51943">
        <ele>697</ele>
        <time>2022-06-12T10:13:48.439Z</time>
      </trkpt>
      <trkpt lat="44.26636" lon="2.51942">
        <ele>697</ele>
        <time>2022-06-12T10:13:49.439Z</time>
      </trkpt>
      <trkpt lat="44.26635" lon="2.51941">
        <ele>697</ele>
        <time>2022-06-12T10:13:50.439Z</time>
      </trkpt>
      <trkpt lat="44.26633" lon="2.51941">
        <ele>697</ele>
        <time>2022-06-12T10:13:51.439Z</time>
      </trkpt>
      <trkpt lat="44.26632" lon="2.5194">
        <ele>697</ele>
        <time>2022-06-12T10:13:52.439Z</time>
      </trkpt>
      <trkpt lat="44.26631" lon="2.5194">
        <ele>697</ele>
        <time>2022-06-12T10:13:53.439Z</time>
      </trkpt>
      <trkpt lat="44.2663" lon="2.51939">
        <ele>697</ele>
        <time>2022-06-12T10:13:54.439Z</time>
      </trkpt>
      <trkpt lat="44.26629" lon="2.51939">
        <ele>697</ele>
        <time>2022-06-12T10:13:55.439Z</time>
      </trkpt>
      <trkpt lat="44.26628" lon="2.51938">
        <ele>697</ele>
        <time>2022-06-12T10:13:56.439Z</time>
      </trkpt>
      <trkpt lat="44.26626" lon="2.51937">
        <ele>697</ele>
        <time>2022-06-12T10:13:57.439Z</time>
      </trkpt>
      <trkpt lat="44.26625" lon="2.51937">
        <ele>697</ele>
        <time>2022-06-12T10:13:58.439Z</time>
      </trkpt>
      <trkpt lat="44.26624" lon="2.51936">
        <ele>698</ele>
        <time>2022-06-12T10:13:59.439Z</time>
      </trkpt>
      <trkpt lat="44.26623" lon="2.51936">
        <ele>698</ele>
        <time>2022-06-12T10:14:00.439Z</time>
      </trkpt>
      <trkpt lat="44.26622" lon="2.51935">
        <ele>698</ele>
        <time>2022-06-12T10:14:01.439Z</time>
      </trkpt>
      <trkpt lat="44.2662" lon="2.51935">
        <ele>698</ele>
        <time>2022-06-12T10:14:02.439Z</time>
      </trkpt>
      <trkpt lat="44.26619" lon="2.51935">
        <ele>698</ele>
        <time>2022-06-12T10:14:03.439Z</time>
      </trkpt>
      <trkpt lat="44.26618" lon="2.51934">
        <ele>698</ele>
        <time>2022-06-12T10:14:04.439Z</time>
      </trkpt>
      <trkpt lat="44.26617" lon="2.51933">
        <ele>698</ele>
        <time>2022-06-12T10:14:05.439Z</time>
      </trkpt>
      <trkpt lat="44.26615" lon="2.51933">
        <ele>698</ele>
        <time>2022-06-12T10:14:06.439Z</time>
      </trkpt>
      <trkpt lat="44.26614" lon="2.51932">
        <ele>699</ele>
        <time>2022-06-12T10:14:07.439Z</time>
      </trkpt>
      <trkpt lat="44.26613" lon="2.51932">
        <ele>699</ele>
        <time>2022-06-12T10:14:08.439Z</time>
      </trkpt>
      <trkpt lat="44.26612" lon="2.51931">
        <ele>699</ele>
        <time>2022-06-12T10:14:09.439Z</time>
      </trkpt>
      <trkpt lat="44.26611" lon="2.51931">
        <ele>699</ele>
        <time>2022-06-12T10:14:10.439Z</time>
      </trkpt>
      <trkpt lat="44.2661" lon="2.5193">
        <ele>699</ele>
        <time>2022-06-12T10:14:11.439Z</time>
      </trkpt>
      <trkpt lat="44.26608" lon="2.5193">
        <ele>699</ele>
        <time>2022-06-12T10:14:12.439Z</time>
      </trkpt>
      <trkpt lat="44.26607" lon="2.51929">
        <ele>699</ele>
        <time>2022-06-12T10:14:13.439Z</time>
      </trkpt>
      <trkpt lat="44.26606" lon="2.51928">
        <ele>699</ele>
        <time>2022-06-12T10:14:14.439Z</time>
      </trkpt>
      <trkpt lat="44.26605" lon="2.51928">
        <ele>699</ele>
        <time>2022-06-12T10:14:15.439Z</time>
      </trkpt>
      <trkpt lat="44.26604" lon="2.51928">
        <ele>699</ele>
        <time>2022-06-12T10:14:16.439Z</time>
      </trkpt>
      <trkpt lat="44.26603" lon="2.51927">
        <ele>699</ele>
        <time>2022-06-12T10:14:17.439Z</time>
      </trkpt>
      <trkpt lat="44.26602" lon="2.51926">
        <ele>699</ele>
        <time>2022-06-12T10:14:18.439Z</time>
      </trkpt>
      <trkpt lat="44.26601" lon="2.51926">
        <ele>699</ele>
        <time>2022-06-12T10:14:19.439Z</time>
      </trkpt>
      <trkpt lat="44.26599" lon="2.51925">
        <ele>700</ele>
        <time>2022-06-12T10:14:20.439Z</time>
      </trkpt>
      <trkpt lat="44.26598" lon="2.51925">
        <ele>700</ele>
        <time>2022-06-12T10:14:21.439Z</time>
      </trkpt>
      <trkpt lat="44.26597" lon="2.51924">
        <ele>700</ele>
        <time>2022-06-12T10:14:22.439Z</time>
      </trkpt>
      <trkpt lat="44.26596" lon="2.51923">
        <ele>700</ele>
        <time>2022-06-12T10:14:23.439Z</time>
      </trkpt>
      <trkpt lat="44.26595" lon="2.51923">
        <ele>700</ele>
        <time>2022-06-12T10:14:24.439Z</time>
      </trkpt>
      <trkpt lat="44.26594" lon="2.51922">
        <ele>700</ele>
        <time>2022-06-12T10:14:25.439Z</time>
      </trkpt>
      <trkpt lat="44.26593" lon="2.51922">
        <ele>700</ele>
        <time>2022-06-12T10:14:26.439Z</time>
      </trkpt>
      <trkpt lat="44.26592" lon="2.51921">
        <ele>700</ele>
        <time>2022-06-12T10:14:27.439Z</time>
      </trkpt>
      <trkpt lat="44.2659" lon="2.5192">
        <ele>700</ele>
        <time>2022-06-12T10:14:28.439Z</time>
      </trkpt>
      <trkpt lat="44.26589" lon="2.5192">
        <ele>700</ele>
        <time>2022-06-12T10:14:29.439Z</time>
      </trkpt>
      <trkpt lat="44.26588" lon="2.51919">
        <ele>700</ele>
        <time>2022-06-12T10:14:30.439Z</time>
      </trkpt>
      <trkpt lat="44.26587" lon="2.51918">
        <ele>700</ele>
        <time>2022-06-12T10:14:31.439Z</time>
      </trkpt>
      <trkpt lat="44.26586" lon="2.51918">
        <ele>700</ele>
        <time>2022-06-12T10:14:32.439Z</time>
      </trkpt>
      <trkpt lat="44.26585" lon="2.51917">
        <ele>700</ele>
        <time>2022-06-12T10:14:33.439Z</time>
      </trkpt>
      <trkpt lat="44.26584" lon="2.51917">
        <ele>700</ele>
        <time>2022-06-12T10:14:34.439Z</time>
      </trkpt>
      <trkpt lat="44.26583" lon="2.51916">
        <ele>700</ele>
        <time>2022-06-12T10:14:35.439Z</time>
      </trkpt>
      <trkpt lat="44.26582" lon="2.51915">
        <ele>700</ele>
        <time>2022-06-12T10:14:36.439Z</time>
      </trkpt>
      <trkpt lat="44.26581" lon="2.51915">
        <ele>700</ele>
        <time>2022-06-12T10:14:37.439Z</time>
      </trkpt>
      <trkpt lat="44.2658" lon="2.51914">
        <ele>700</ele>
        <time>2022-06-12T10:14:38.439Z</time>
      </trkpt>
      <trkpt lat="44.26579" lon="2.51913">
        <ele>700</ele>
        <time>2022-06-12T10:14:39.439Z</time>
      </trkpt>
      <trkpt lat="44.26578" lon="2.51912">
        <ele>700</ele>
        <time>2022-06-12T10:14:40.439Z</time>
      </trkpt>
      <trkpt lat="44.26577" lon="2.51912">
        <ele>700</ele>
        <time>2022-06-12T10:14:41.439Z</time>
      </trkpt>
      <trkpt lat="44.26576" lon="2.51911">
        <ele>700</ele>
        <time>2022-06-12T10:14:42.439Z</time>
      </trkpt>
      <trkpt lat="44.26575" lon="2.5191">
        <ele>700</ele>
        <time>2022-06-12T10:14:43.439Z</time>
      </trkpt>
      <trkpt lat="44.26574" lon="2.51909">
        <ele>700</ele>
        <time>2022-06-12T10:14:44.439Z</time>
      </trkpt>
      <trkpt lat="44.26573" lon="2.51909">
        <ele>700</ele>
        <time>2022-06-12T10:14:45.439Z</time>
      </trkpt>
      <trkpt lat="44.26572" lon="2.51908">
        <ele>699</ele>
        <time>2022-06-12T10:14:46.439Z</time>
      </trkpt>
      <trkpt lat="44.26571" lon="2.51908">
        <ele>699</ele>
        <time>2022-06-12T10:14:47.439Z</time>
      </trkpt>
      <trkpt lat="44.2657" lon="2.51907">
        <ele>699</ele>
        <time>2022-06-12T10:14:48.439Z</time>
      </trkpt>
      <trkpt lat="44.26569" lon="2.51906">
        <ele>699</ele>
        <time>2022-06-12T10:14:49.439Z</time>
      </trkpt>
      <trkpt lat="44.26568" lon="2.51906">
        <ele>699</ele>
        <time>2022-06-12T10:14:50.439Z</time>
      </trkpt>
      <trkpt lat="44.26567" lon="2.51905">
        <ele>699</ele>
        <time>2022-06-12T10:14:51.439Z</time>
      </trkpt>
      <trkpt lat="44.26566" lon="2.51905">
        <ele>699</ele>
        <time>2022-06-12T10:14:52.439Z</time>
      </trkpt>
      <trkpt lat="44.26565" lon="2.51904">
        <ele>699</ele>
        <time>2022-06-12T10:14:53.439Z</time>
      </trkpt>
      <trkpt lat="44.26564" lon="2.51904">
        <ele>699</ele>
        <time>2022-06-12T10:14:54.439Z</time>
      </trkpt>
      <trkpt lat="44.26563" lon="2.51903">
        <ele>699</ele>
        <time>2022-06-12T10:14:55.439Z</time>
      </trkpt>
      <trkpt lat="44.26562" lon="2.51902">
        <ele>699</ele>
        <time>2022-06-12T10:14:56.439Z</time>
      </trkpt>
      <trkpt lat="44.26561" lon="2.51901">
        <ele>699</ele>
        <time>2022-06-12T10:14:57.439Z</time>
      </trkpt>
      <trkpt lat="44.2656" lon="2.51901">
        <ele>699</ele>
        <time>2022-06-12T10:14:58.439Z</time>
      </trkpt>
      <trkpt lat="44.26559" lon="2.51901">
        <ele>699</ele>
        <time>2022-06-12T10:14:59.439Z</time>
      </trkpt>
      <trkpt lat="44.26557" lon="2.519">
        <ele>699</ele>
        <time>2022-06-12T10:15:00.439Z</time>
      </trkpt>
      <trkpt lat="44.26556" lon="2.519">
        <ele>699</ele>
        <time>2022-06-12T10:15:01.439Z</time>
      </trkpt>
      <trkpt lat="44.26555" lon="2.51899">
        <ele>698</ele>
        <time>2022-06-12T10:15:02.439Z</time>
      </trkpt>
      <trkpt lat="44.26554" lon="2.51899">
        <ele>698</ele>
        <time>2022-06-12T10:15:03.439Z</time>
      </trkpt>
      <trkpt lat="44.26553" lon="2.51899">
        <ele>698</ele>
        <time>2022-06-12T10:15:04.439Z</time>
      </trkpt>
      <trkpt lat="44.26551" lon="2.51898">
        <ele>698</ele>
        <time>2022-06-12T10:15:05.439Z</time>
      </trkpt>
      <trkpt lat="44.2655" lon="2.51898">
        <ele>698</ele>
        <time>2022-06-12T10:15:06.439Z</time>
      </trkpt>
      <trkpt lat="44.26549" lon="2.51898">
        <ele>698</ele>
        <time>2022-06-12T10:15:07.439Z</time>
      </trkpt>
      <trkpt lat="44.26548" lon="2.51897">
        <ele>698</ele>
        <time>2022-06-12T10:15:08.439Z</time>
      </trkpt>
      <trkpt lat="44.26547" lon="2.51896">
        <ele>698</ele>
        <time>2022-06-12T10:15:09.439Z</time>
      </trkpt>
      <trkpt lat="44.26546" lon="2.51896">
        <ele>698</ele>
        <time>2022-06-12T10:15:10.439Z</time>
      </trkpt>
      <trkpt lat="44.26544" lon="2.51896">
        <ele>698</ele>
        <time>2022-06-12T10:15:11.439Z</time>
      </trkpt>
      <trkpt lat="44.26543" lon="2.51895">
        <ele>698</ele>
        <time>2022-06-12T10:15:12.439Z</time>
      </trkpt>
      <trkpt lat="44.26542" lon="2.51895">
        <ele>698</ele>
        <time>2022-06-12T10:15:13.439Z</time>
      </trkpt>
      <trkpt lat="44.26541" lon="2.51895">
        <ele>698</ele>
        <time>2022-06-12T10:15:14.439Z</time>
      </trkpt>
      <trkpt lat="44.2654" lon="2.51894">
        <ele>698</ele>
        <time>2022-06-12T10:15:15.439Z</time>
      </trkpt>
      <trkpt lat="44.26538" lon="2.51894">
        <ele>698</ele>
        <time>2022-06-12T10:15:16.439Z</time>
      </trkpt>
      <trkpt lat="44.26537" lon="2.51893">
        <ele>698</ele>
        <time>2022-06-12T10:15:17.439Z</time>
      </trkpt>
      <trkpt lat="44.26536" lon="2.51893">
        <ele>698</ele>
        <time>2022-06-12T10:15:18.439Z</time>
      </trkpt>
      <trkpt lat="44.26535" lon="2.51893">
        <ele>698</ele>
        <time>2022-06-12T10:15:19.439Z</time>
      </trkpt>
      <trkpt lat="44.26534" lon="2.51893">
        <ele>698</ele>
        <time>2022-06-12T10:15:20.439Z</time>
      </trkpt>
      <trkpt lat="44.26532" lon="2.51893">
        <ele>698</ele>
        <time>2022-06-12T10:15:21.439Z</time>
      </trkpt>
      <trkpt lat="44.26531" lon="2.51893">
        <ele>698</ele>
        <time>2022-06-12T10:15:22.439Z</time>
      </trkpt>
      <trkpt lat="44.2653" lon="2.51893">
        <ele>698</ele>
        <time>2022-06-12T10:15:23.439Z</time>
      </trkpt>
      <trkpt lat="44.26529" lon="2.51892">
        <ele>698</ele>
        <time>2022-06-12T10:15:24.439Z</time>
      </trkpt>
      <trkpt lat="44.26528" lon="2.51892">
        <ele>698</ele>
        <time>2022-06-12T10:15:25.439Z</time>
      </trkpt>
      <trkpt lat="44.26527" lon="2.51892">
        <ele>698</ele>
        <time>2022-06-12T10:15:26.439Z</time>
      </trkpt>
      <trkpt lat="44.26526" lon="2.51892">
        <ele>698</ele>
        <time>2022-06-12T10:15:27.439Z</time>
      </trkpt>
      <trkpt lat="44.26525" lon="2.51892">
        <ele>698</ele>
        <time>2022-06-12T10:15:28.439Z</time>
      </trkpt>
      <trkpt lat="44.26524" lon="2.51892">
        <ele>698</ele>
        <time>2022-06-12T10:15:29.439Z</time>
      </trkpt>
      <trkpt lat="44.26522" lon="2.51892">
        <ele>698</ele>
        <time>2022-06-12T10:15:30.439Z</time>
      </trkpt>
      <trkpt lat="44.26521" lon="2.51892">
        <ele>697</ele>
        <time>2022-06-12T10:15:31.439Z</time>
      </trkpt>
      <trkpt lat="44.2652" lon="2.51892">
        <ele>697</ele>
        <time>2022-06-12T10:15:32.439Z</time>
      </trkpt>
      <trkpt lat="44.26519" lon="2.51892">
        <ele>697</ele>
        <time>2022-06-12T10:15:33.439Z</time>
      </trkpt>
      <trkpt lat="44.26518" lon="2.51892">
        <ele>697</ele>
        <time>2022-06-12T10:15:34.439Z</time>
      </trkpt>
      <trkpt lat="44.26516" lon="2.51892">
        <ele>697</ele>
        <time>2022-06-12T10:15:35.439Z</time>
      </trkpt>
      <trkpt lat="44.26515" lon="2.51893">
        <ele>697</ele>
        <time>2022-06-12T10:15:36.439Z</time>
      </trkpt>
      <trkpt lat="44.26514" lon="2.51893">
        <ele>697</ele>
        <time>2022-06-12T10:15:37.439Z</time>
      </trkpt>
      <trkpt lat="44.26513" lon="2.51893">
        <ele>697</ele>
        <time>2022-06-12T10:15:38.439Z</time>
      </trkpt>
      <trkpt lat="44.26511" lon="2.51893">
        <ele>697</ele>
        <time>2022-06-12T10:15:39.439Z</time>
      </trkpt>
      <trkpt lat="44.2651" lon="2.51893">
        <ele>697</ele>
        <time>2022-06-12T10:15:40.439Z</time>
      </trkpt>
      <trkpt lat="44.26509" lon="2.51893">
        <ele>698</ele>
        <time>2022-06-12T10:15:41.439Z</time>
      </trkpt>
      <trkpt lat="44.26507" lon="2.51893">
        <ele>697</ele>
        <time>2022-06-12T10:15:42.439Z</time>
      </trkpt>
      <trkpt lat="44.26506" lon="2.51893">
        <ele>697</ele>
        <time>2022-06-12T10:15:43.439Z</time>
      </trkpt>
      <trkpt lat="44.26505" lon="2.51893">
        <ele>697</ele>
        <time>2022-06-12T10:15:44.439Z</time>
      </trkpt>
      <trkpt lat="44.26504" lon="2.51892">
        <ele>697</ele>
        <time>2022-06-12T10:15:45.439Z</time>
      </trkpt>
      <trkpt lat="44.26503" lon="2.51892">
        <ele>697</ele>
        <time>2022-06-12T10:15:46.439Z</time>
      </trkpt>
      <trkpt lat="44.26501" lon="2.51892">
        <ele>696</ele>
        <time>2022-06-12T10:15:47.439Z</time>
      </trkpt>
      <trkpt lat="44.265" lon="2.51892">
        <ele>696</ele>
        <time>2022-06-12T10:15:48.439Z</time>
      </trkpt>
      <trkpt lat="44.26498" lon="2.51892">
        <ele>696</ele>
        <time>2022-06-12T10:15:49.439Z</time>
      </trkpt>
      <trkpt lat="44.26497" lon="2.51892">
        <ele>696</ele>
        <time>2022-06-12T10:15:50.439Z</time>
      </trkpt>
      <trkpt lat="44.26496" lon="2.51892">
        <ele>696</ele>
        <time>2022-06-12T10:15:51.439Z</time>
      </trkpt>
      <trkpt lat="44.26495" lon="2.51892">
        <ele>696</ele>
        <time>2022-06-12T10:15:52.439Z</time>
      </trkpt>
      <trkpt lat="44.26493" lon="2.51892">
        <ele>696</ele>
        <time>2022-06-12T10:15:53.439Z</time>
      </trkpt>
      <trkpt lat="44.26492" lon="2.51892">
        <ele>695</ele>
        <time>2022-06-12T10:15:54.439Z</time>
      </trkpt>
      <trkpt lat="44.26491" lon="2.51892">
        <ele>695</ele>
        <time>2022-06-12T10:15:55.439Z</time>
      </trkpt>
      <trkpt lat="44.26489" lon="2.51891">
        <ele>695</ele>
        <time>2022-06-12T10:15:56.439Z</time>
      </trkpt>
      <trkpt lat="44.26488" lon="2.51891">
        <ele>695</ele>
        <time>2022-06-12T10:15:57.439Z</time>
      </trkpt>
      <trkpt lat="44.26486" lon="2.51891">
        <ele>695</ele>
        <time>2022-06-12T10:15:58.439Z</time>
      </trkpt>
      <trkpt lat="44.26485" lon="2.51891">
        <ele>695</ele>
        <time>2022-06-12T10:15:59.439Z</time>
      </trkpt>
      <trkpt lat="44.26484" lon="2.51891">
        <ele>695</ele>
        <time>2022-06-12T10:16:00.439Z</time>
      </trkpt>
      <trkpt lat="44.26482" lon="2.51891">
        <ele>695</ele>
        <time>2022-06-12T10:16:01.439Z</time>
      </trkpt>
      <trkpt lat="44.26481" lon="2.51891">
        <ele>695</ele>
        <time>2022-06-12T10:16:02.439Z</time>
      </trkpt>
      <trkpt lat="44.2648" lon="2.51891">
        <ele>695</ele>
        <time>2022-06-12T10:16:03.439Z</time>
      </trkpt>
      <trkpt lat="44.26479" lon="2.5189">
        <ele>695</ele>
        <time>2022-06-12T10:16:04.439Z</time>
      </trkpt>
      <trkpt lat="44.26478" lon="2.5189">
        <ele>695</ele>
        <time>2022-06-12T10:16:05.439Z</time>
      </trkpt>
      <trkpt lat="44.26476" lon="2.51889">
        <ele>694</ele>
        <time>2022-06-12T10:16:06.439Z</time>
      </trkpt>
      <trkpt lat="44.26475" lon="2.51888">
        <ele>694</ele>
        <time>2022-06-12T10:16:07.439Z</time>
      </trkpt>
      <trkpt lat="44.26474" lon="2.51888">
        <ele>694</ele>
        <time>2022-06-12T10:16:08.439Z</time>
      </trkpt>
      <trkpt lat="44.26473" lon="2.51887">
        <ele>694</ele>
        <time>2022-06-12T10:16:09.439Z</time>
      </trkpt>
      <trkpt lat="44.26472" lon="2.51886">
        <ele>694</ele>
        <time>2022-06-12T10:16:10.439Z</time>
      </trkpt>
      <trkpt lat="44.2647" lon="2.51885">
        <ele>694</ele>
        <time>2022-06-12T10:16:11.439Z</time>
      </trkpt>
      <trkpt lat="44.26469" lon="2.51884">
        <ele>694</ele>
        <time>2022-06-12T10:16:12.439Z</time>
      </trkpt>
      <trkpt lat="44.26468" lon="2.51883">
        <ele>694</ele>
        <time>2022-06-12T10:16:13.439Z</time>
      </trkpt>
      <trkpt lat="44.26467" lon="2.51882">
        <ele>694</ele>
        <time>2022-06-12T10:16:14.439Z</time>
      </trkpt>
      <trkpt lat="44.26466" lon="2.51881">
        <ele>694</ele>
        <time>2022-06-12T10:16:15.439Z</time>
      </trkpt>
      <trkpt lat="44.26465" lon="2.5188">
        <ele>694</ele>
        <time>2022-06-12T10:16:16.439Z</time>
      </trkpt>
      <trkpt lat="44.26464" lon="2.51879">
        <ele>694</ele>
        <time>2022-06-12T10:16:17.439Z</time>
      </trkpt>
      <trkpt lat="44.26463" lon="2.51878">
        <ele>694</ele>
        <time>2022-06-12T10:16:18.439Z</time>
      </trkpt>
      <trkpt lat="44.26462" lon="2.51877">
        <ele>694</ele>
        <time>2022-06-12T10:16:19.439Z</time>
      </trkpt>
      <trkpt lat="44.26461" lon="2.51876">
        <ele>694</ele>
        <time>2022-06-12T10:16:20.439Z</time>
      </trkpt>
      <trkpt lat="44.2646" lon="2.51875">
        <ele>694</ele>
        <time>2022-06-12T10:16:21.439Z</time>
      </trkpt>
      <trkpt lat="44.26459" lon="2.51874">
        <ele>694</ele>
        <time>2022-06-12T10:16:22.439Z</time>
      </trkpt>
      <trkpt lat="44.26458" lon="2.51873">
        <ele>694</ele>
        <time>2022-06-12T10:16:23.439Z</time>
      </trkpt>
      <trkpt lat="44.26457" lon="2.51872">
        <ele>694</ele>
        <time>2022-06-12T10:16:24.439Z</time>
      </trkpt>
      <trkpt lat="44.26457" lon="2.51871">
        <ele>694</ele>
        <time>2022-06-12T10:16:25.439Z</time>
      </trkpt>
      <trkpt lat="44.26456" lon="2.5187">
        <ele>694</ele>
        <time>2022-06-12T10:16:26.439Z</time>
      </trkpt>
      <trkpt lat="44.26455" lon="2.51869">
        <ele>694</ele>
        <time>2022-06-12T10:16:27.439Z</time>
      </trkpt>
      <trkpt lat="44.26454" lon="2.51868">
        <ele>694</ele>
        <time>2022-06-12T10:16:28.439Z</time>
      </trkpt>
      <trkpt lat="44.26453" lon="2.51867">
        <ele>694</ele>
        <time>2022-06-12T10:16:29.439Z</time>
      </trkpt>
      <trkpt lat="44.26452" lon="2.51866">
        <ele>694</ele>
        <time>2022-06-12T10:16:30.439Z</time>
      </trkpt>
      <trkpt lat="44.26451" lon="2.51865">
        <ele>694</ele>
        <time>2022-06-12T10:16:31.439Z</time>
      </trkpt>
      <trkpt lat="44.26451" lon="2.51864">
        <ele>694</ele>
        <time>2022-06-12T10:16:32.439Z</time>
      </trkpt>
      <trkpt lat="44.26451" lon="2.51864">
        <ele>694</ele>
        <time>2022-06-12T10:16:33.439Z</time>
      </trkpt>
      <trkpt lat="44.26451" lon="2.51864">
        <ele>694</ele>
        <time>2022-06-12T10:16:34.439Z</time>
      </trkpt>
      <trkpt lat="44.26451" lon="2.51865">
        <ele>694</ele>
        <time>2022-06-12T10:16:35.439Z</time>
      </trkpt>
      <trkpt lat="44.26452" lon="2.51866">
        <ele>694</ele>
        <time>2022-06-12T10:16:36.439Z</time>
      </trkpt>
      <trkpt lat="44.26453" lon="2.51867">
        <ele>694</ele>
        <time>2022-06-12T10:16:37.439Z</time>
      </trkpt>
      <trkpt lat="44.26453" lon="2.51868">
        <ele>694</ele>
        <time>2022-06-12T10:16:38.439Z</time>
      </trkpt>
      <trkpt lat="44.26454" lon="2.51869">
        <ele>694</ele>
        <time>2022-06-12T10:16:39.439Z</time>
      </trkpt>
      <trkpt lat="44.26455" lon="2.5187">
        <ele>694</ele>
        <time>2022-06-12T10:16:40.439Z</time>
      </trkpt>
      <trkpt lat="44.26456" lon="2.5187">
        <ele>694</ele>
        <time>2022-06-12T10:16:41.439Z</time>
      </trkpt>
      <trkpt lat="44.26457" lon="2.51871">
        <ele>694</ele>
        <time>2022-06-12T10:16:42.439Z</time>
      </trkpt>
      <trkpt lat="44.26457" lon="2.51872">
        <ele>694</ele>
        <time>2022-06-12T10:16:43.439Z</time>
      </trkpt>
      <trkpt lat="44.26458" lon="2.51873">
        <ele>694</ele>
        <time>2022-06-12T10:16:44.439Z</time>
      </trkpt>
      <trkpt lat="44.26459" lon="2.51874">
        <ele>694</ele>
        <time>2022-06-12T10:16:45.439Z</time>
      </trkpt>
      <trkpt lat="44.2646" lon="2.51875">
        <ele>694</ele>
        <time>2022-06-12T10:16:46.439Z</time>
      </trkpt>
      <trkpt lat="44.26461" lon="2.51875">
        <ele>694</ele>
        <time>2022-06-12T10:16:47.439Z</time>
      </trkpt>
      <trkpt lat="44.26461" lon="2.51876">
        <ele>694</ele>
        <time>2022-06-12T10:16:48.439Z</time>
      </trkpt>
      <trkpt lat="44.26462" lon="2.51876">
        <ele>694</ele>
        <time>2022-06-12T10:16:49.439Z</time>
      </trkpt>
      <trkpt lat="44.26463" lon="2.51877">
        <ele>694</ele>
        <time>2022-06-12T10:16:50.439Z</time>
      </trkpt>
      <trkpt lat="44.26464" lon="2.51877">
        <ele>695</ele>
        <time>2022-06-12T10:16:51.439Z</time>
      </trkpt>
      <trkpt lat="44.26464" lon="2.51877">
        <ele>695</ele>
        <time>2022-06-12T10:16:52.439Z</time>
      </trkpt>
      <trkpt lat="44.26465" lon="2.51877">
        <ele>695</ele>
        <time>2022-06-12T10:16:53.439Z</time>
      </trkpt>
      <trkpt lat="44.26465" lon="2.51877">
        <ele>695</ele>
        <time>2022-06-12T10:16:54.439Z</time>
      </trkpt>
      <trkpt lat="44.26465" lon="2.51877">
        <ele>695</ele>
        <time>2022-06-12T10:16:55.439Z</time>
      </trkpt>
      <trkpt lat="44.26468" lon="2.51876">
        <ele>695</ele>
        <time>2022-06-12T10:17:22.447Z</time>
      </trkpt>
      <trkpt lat="44.26469" lon="2.51876">
        <ele>695</ele>
        <time>2022-06-12T10:17:23.447Z</time>
      </trkpt>
      <trkpt lat="44.26469" lon="2.51875">
        <ele>695</ele>
        <time>2022-06-12T10:17:24.447Z</time>
      </trkpt>
      <trkpt lat="44.2647" lon="2.51875">
        <ele>695</ele>
        <time>2022-06-12T10:17:25.447Z</time>
      </trkpt>
      <trkpt lat="44.2647" lon="2.51874">
        <ele>695</ele>
        <time>2022-06-12T10:17:26.447Z</time>
      </trkpt>
      <trkpt lat="44.26471" lon="2.51874">
        <ele>695</ele>
        <time>2022-06-12T10:17:27.447Z</time>
      </trkpt>
      <trkpt lat="44.26472" lon="2.51873">
        <ele>695</ele>
        <time>2022-06-12T10:17:28.447Z</time>
      </trkpt>
      <trkpt lat="44.26472" lon="2.51873">
        <ele>694</ele>
        <time>2022-06-12T10:17:29.447Z</time>
      </trkpt>
      <trkpt lat="44.26473" lon="2.51872">
        <ele>694</ele>
        <time>2022-06-12T10:17:30.447Z</time>
      </trkpt>
      <trkpt lat="44.26473" lon="2.51872">
        <ele>694</ele>
        <time>2022-06-12T10:17:31.447Z</time>
      </trkpt>
      <trkpt lat="44.26474" lon="2.51871">
        <ele>694</ele>
        <time>2022-06-12T10:17:32.447Z</time>
      </trkpt>
      <trkpt lat="44.26474" lon="2.5187">
        <ele>694</ele>
        <time>2022-06-12T10:17:33.447Z</time>
      </trkpt>
      <trkpt lat="44.26475" lon="2.5187">
        <ele>694</ele>
        <time>2022-06-12T10:17:34.447Z</time>
      </trkpt>
      <trkpt lat="44.26475" lon="2.5187">
        <ele>694</ele>
        <time>2022-06-12T10:17:35.447Z</time>
      </trkpt>
      <trkpt lat="44.26476" lon="2.51869">
        <ele>694</ele>
        <time>2022-06-12T10:17:36.447Z</time>
      </trkpt>
      <trkpt lat="44.26476" lon="2.51869">
        <ele>694</ele>
        <time>2022-06-12T10:17:37.447Z</time>
      </trkpt>
      <trkpt lat="44.26477" lon="2.51868">
        <ele>694</ele>
        <time>2022-06-12T10:17:38.447Z</time>
      </trkpt>
      <trkpt lat="44.26477" lon="2.51868">
        <ele>694</ele>
        <time>2022-06-12T10:17:39.447Z</time>
      </trkpt>
      <trkpt lat="44.26478" lon="2.51867">
        <ele>694</ele>
        <time>2022-06-12T10:17:40.447Z</time>
      </trkpt>
      <trkpt lat="44.26479" lon="2.51867">
        <ele>694</ele>
        <time>2022-06-12T10:17:41.447Z</time>
      </trkpt>
      <trkpt lat="44.2648" lon="2.51866">
        <ele>694</ele>
        <time>2022-06-12T10:17:42.447Z</time>
      </trkpt>
      <trkpt lat="44.26481" lon="2.51865">
        <ele>693</ele>
        <time>2022-06-12T10:17:43.447Z</time>
      </trkpt>
      <trkpt lat="44.26482" lon="2.51864">
        <ele>693</ele>
        <time>2022-06-12T10:17:44.447Z</time>
      </trkpt>
      <trkpt lat="44.26482" lon="2.51863">
        <ele>693</ele>
        <time>2022-06-12T10:17:45.447Z</time>
      </trkpt>
      <trkpt lat="44.26483" lon="2.51862">
        <ele>693</ele>
        <time>2022-06-12T10:17:46.447Z</time>
      </trkpt>
      <trkpt lat="44.26484" lon="2.51861">
        <ele>693</ele>
        <time>2022-06-12T10:17:47.447Z</time>
      </trkpt>
      <trkpt lat="44.26485" lon="2.51861">
        <ele>693</ele>
        <time>2022-06-12T10:17:48.447Z</time>
      </trkpt>
      <trkpt lat="44.26486" lon="2.5186">
        <ele>693</ele>
        <time>2022-06-12T10:17:49.447Z</time>
      </trkpt>
      <trkpt lat="44.26487" lon="2.51859">
        <ele>693</ele>
        <time>2022-06-12T10:17:50.447Z</time>
      </trkpt>
      <trkpt lat="44.26487" lon="2.51858">
        <ele>692</ele>
        <time>2022-06-12T10:17:51.447Z</time>
      </trkpt>
      <trkpt lat="44.26488" lon="2.51857">
        <ele>692</ele>
        <time>2022-06-12T10:17:52.447Z</time>
      </trkpt>
      <trkpt lat="44.26488" lon="2.51857">
        <ele>692</ele>
        <time>2022-06-12T10:17:53.447Z</time>
      </trkpt>
      <trkpt lat="44.26489" lon="2.51856">
        <ele>692</ele>
        <time>2022-06-12T10:17:54.447Z</time>
      </trkpt>
      <trkpt lat="44.2649" lon="2.51855">
        <ele>692</ele>
        <time>2022-06-12T10:17:55.447Z</time>
      </trkpt>
      <trkpt lat="44.2649" lon="2.51854">
        <ele>692</ele>
        <time>2022-06-12T10:17:56.447Z</time>
      </trkpt>
      <trkpt lat="44.26491" lon="2.51853">
        <ele>692</ele>
        <time>2022-06-12T10:17:57.447Z</time>
      </trkpt>
      <trkpt lat="44.26492" lon="2.51853">
        <ele>692</ele>
        <time>2022-06-12T10:17:58.447Z</time>
      </trkpt>
      <trkpt lat="44.26493" lon="2.51852">
        <ele>692</ele>
        <time>2022-06-12T10:17:59.447Z</time>
      </trkpt>
      <trkpt lat="44.26493" lon="2.51851">
        <ele>691</ele>
        <time>2022-06-12T10:18:00.447Z</time>
      </trkpt>
      <trkpt lat="44.26494" lon="2.5185">
        <ele>691</ele>
        <time>2022-06-12T10:18:01.447Z</time>
      </trkpt>
      <trkpt lat="44.26495" lon="2.51849">
        <ele>691</ele>
        <time>2022-06-12T10:18:02.447Z</time>
      </trkpt>
      <trkpt lat="44.26495" lon="2.51849">
        <ele>691</ele>
        <time>2022-06-12T10:18:03.447Z</time>
      </trkpt>
      <trkpt lat="44.26496" lon="2.51848">
        <ele>691</ele>
        <time>2022-06-12T10:18:04.447Z</time>
      </trkpt>
      <trkpt lat="44.26496" lon="2.51847">
        <ele>691</ele>
        <time>2022-06-12T10:18:05.447Z</time>
      </trkpt>
      <trkpt lat="44.26497" lon="2.51846">
        <ele>691</ele>
        <time>2022-06-12T10:18:06.447Z</time>
      </trkpt>
      <trkpt lat="44.26498" lon="2.51846">
        <ele>691</ele>
        <time>2022-06-12T10:18:07.447Z</time>
      </trkpt>
      <trkpt lat="44.26499" lon="2.51845">
        <ele>691</ele>
        <time>2022-06-12T10:18:08.447Z</time>
      </trkpt>
      <trkpt lat="44.265" lon="2.51844">
        <ele>691</ele>
        <time>2022-06-12T10:18:09.447Z</time>
      </trkpt>
      <trkpt lat="44.26501" lon="2.51843">
        <ele>690</ele>
        <time>2022-06-12T10:18:10.447Z</time>
      </trkpt>
      <trkpt lat="44.26501" lon="2.51842">
        <ele>690</ele>
        <time>2022-06-12T10:18:11.447Z</time>
      </trkpt>
      <trkpt lat="44.26502" lon="2.51841">
        <ele>690</ele>
        <time>2022-06-12T10:18:12.447Z</time>
      </trkpt>
      <trkpt lat="44.26503" lon="2.5184">
        <ele>690</ele>
        <time>2022-06-12T10:18:13.447Z</time>
      </trkpt>
      <trkpt lat="44.26504" lon="2.5184">
        <ele>690</ele>
        <time>2022-06-12T10:18:14.447Z</time>
      </trkpt>
      <trkpt lat="44.26504" lon="2.51839">
        <ele>690</ele>
        <time>2022-06-12T10:18:15.447Z</time>
      </trkpt>
      <trkpt lat="44.26505" lon="2.51838">
        <ele>690</ele>
        <time>2022-06-12T10:18:16.447Z</time>
      </trkpt>
      <trkpt lat="44.26505" lon="2.51837">
        <ele>690</ele>
        <time>2022-06-12T10:18:17.447Z</time>
      </trkpt>
      <trkpt lat="44.26506" lon="2.51836">
        <ele>690</ele>
        <time>2022-06-12T10:18:18.447Z</time>
      </trkpt>
      <trkpt lat="44.26506" lon="2.51835">
        <ele>690</ele>
        <time>2022-06-12T10:18:19.447Z</time>
      </trkpt>
      <trkpt lat="44.26506" lon="2.51834">
        <ele>690</ele>
        <time>2022-06-12T10:18:20.447Z</time>
      </trkpt>
      <trkpt lat="44.26507" lon="2.51833">
        <ele>690</ele>
        <time>2022-06-12T10:18:21.447Z</time>
      </trkpt>
      <trkpt lat="44.26507" lon="2.51832">
        <ele>690</ele>
        <time>2022-06-12T10:18:22.447Z</time>
      </trkpt>
      <trkpt lat="44.26507" lon="2.51831">
        <ele>690</ele>
        <time>2022-06-12T10:18:23.447Z</time>
      </trkpt>
      <trkpt lat="44.26508" lon="2.5183">
        <ele>690</ele>
        <time>2022-06-12T10:18:24.447Z</time>
      </trkpt>
      <trkpt lat="44.26508" lon="2.51829">
        <ele>690</ele>
        <time>2022-06-12T10:18:25.447Z</time>
      </trkpt>
      <trkpt lat="44.26509" lon="2.51828">
        <ele>690</ele>
        <time>2022-06-12T10:18:26.447Z</time>
      </trkpt>
      <trkpt lat="44.26509" lon="2.51827">
        <ele>689</ele>
        <time>2022-06-12T10:18:27.447Z</time>
      </trkpt>
      <trkpt lat="44.2651" lon="2.51826">
        <ele>689</ele>
        <time>2022-06-12T10:18:28.447Z</time>
      </trkpt>
      <trkpt lat="44.26511" lon="2.51825">
        <ele>689</ele>
        <time>2022-06-12T10:18:29.447Z</time>
      </trkpt>
      <trkpt lat="44.26511" lon="2.51824">
        <ele>689</ele>
        <time>2022-06-12T10:18:30.447Z</time>
      </trkpt>
      <trkpt lat="44.26512" lon="2.51822">
        <ele>689</ele>
        <time>2022-06-12T10:18:31.447Z</time>
      </trkpt>
      <trkpt lat="44.26512" lon="2.51821">
        <ele>689</ele>
        <time>2022-06-12T10:18:32.447Z</time>
      </trkpt>
      <trkpt lat="44.26513" lon="2.5182">
        <ele>689</ele>
        <time>2022-06-12T10:18:33.447Z</time>
      </trkpt>
      <trkpt lat="44.26513" lon="2.51819">
        <ele>688</ele>
        <time>2022-06-12T10:18:34.447Z</time>
      </trkpt>
      <trkpt lat="44.26514" lon="2.51817">
        <ele>688</ele>
        <time>2022-06-12T10:18:35.447Z</time>
      </trkpt>
      <trkpt lat="44.26514" lon="2.51816">
        <ele>688</ele>
        <time>2022-06-12T10:18:36.447Z</time>
      </trkpt>
      <trkpt lat="44.26515" lon="2.51815">
        <ele>688</ele>
        <time>2022-06-12T10:18:37.447Z</time>
      </trkpt>
      <trkpt lat="44.26516" lon="2.51813">
        <ele>688</ele>
        <time>2022-06-12T10:18:38.447Z</time>
      </trkpt>
      <trkpt lat="44.26517" lon="2.51812">
        <ele>687</ele>
        <time>2022-06-12T10:18:39.447Z</time>
      </trkpt>
      <trkpt lat="44.26517" lon="2.51811">
        <ele>687</ele>
        <time>2022-06-12T10:18:40.447Z</time>
      </trkpt>
      <trkpt lat="44.26518" lon="2.51809">
        <ele>687</ele>
        <time>2022-06-12T10:18:41.447Z</time>
      </trkpt>
      <trkpt lat="44.26518" lon="2.51808">
        <ele>687</ele>
        <time>2022-06-12T10:18:42.447Z</time>
      </trkpt>
      <trkpt lat="44.26519" lon="2.51806">
        <ele>687</ele>
        <time>2022-06-12T10:18:43.447Z</time>
      </trkpt>
      <trkpt lat="44.26519" lon="2.51805">
        <ele>686</ele>
        <time>2022-06-12T10:18:44.447Z</time>
      </trkpt>
      <trkpt lat="44.26519" lon="2.51803">
        <ele>686</ele>
        <time>2022-06-12T10:18:45.447Z</time>
      </trkpt>
      <trkpt lat="44.2652" lon="2.51802">
        <ele>686</ele>
        <time>2022-06-12T10:18:46.447Z</time>
      </trkpt>
      <trkpt lat="44.26521" lon="2.518">
        <ele>686</ele>
        <time>2022-06-12T10:18:47.447Z</time>
      </trkpt>
      <trkpt lat="44.26521" lon="2.51799">
        <ele>686</ele>
        <time>2022-06-12T10:18:48.447Z</time>
      </trkpt>
      <trkpt lat="44.26522" lon="2.51798">
        <ele>686</ele>
        <time>2022-06-12T10:18:49.447Z</time>
      </trkpt>
      <trkpt lat="44.26522" lon="2.51796">
        <ele>686</ele>
        <time>2022-06-12T10:18:50.447Z</time>
      </trkpt>
      <trkpt lat="44.26523" lon="2.51795">
        <ele>685</ele>
        <time>2022-06-12T10:18:51.447Z</time>
      </trkpt>
      <trkpt lat="44.26524" lon="2.51793">
        <ele>685</ele>
        <time>2022-06-12T10:18:52.447Z</time>
      </trkpt>
      <trkpt lat="44.26524" lon="2.51792">
        <ele>685</ele>
        <time>2022-06-12T10:18:53.447Z</time>
      </trkpt>
      <trkpt lat="44.26525" lon="2.5179">
        <ele>684</ele>
        <time>2022-06-12T10:18:54.447Z</time>
      </trkpt>
      <trkpt lat="44.26526" lon="2.51788">
        <ele>684</ele>
        <time>2022-06-12T10:18:55.447Z</time>
      </trkpt>
      <trkpt lat="44.26527" lon="2.51787">
        <ele>684</ele>
        <time>2022-06-12T10:18:56.447Z</time>
      </trkpt>
      <trkpt lat="44.26527" lon="2.51785">
        <ele>683</ele>
        <time>2022-06-12T10:18:57.447Z</time>
      </trkpt>
      <trkpt lat="44.26528" lon="2.51784">
        <ele>683</ele>
        <time>2022-06-12T10:18:58.447Z</time>
      </trkpt>
      <trkpt lat="44.26528" lon="2.51782">
        <ele>683</ele>
        <time>2022-06-12T10:18:59.447Z</time>
      </trkpt>
      <trkpt lat="44.26528" lon="2.5178">
        <ele>683</ele>
        <time>2022-06-12T10:19:00.447Z</time>
      </trkpt>
      <trkpt lat="44.26528" lon="2.51779">
        <ele>683</ele>
        <time>2022-06-12T10:19:01.447Z</time>
      </trkpt>
      <trkpt lat="44.26528" lon="2.51777">
        <ele>682</ele>
        <time>2022-06-12T10:19:02.447Z</time>
      </trkpt>
      <trkpt lat="44.26528" lon="2.51775">
        <ele>682</ele>
        <time>2022-06-12T10:19:03.447Z</time>
      </trkpt>
      <trkpt lat="44.26528" lon="2.51773">
        <ele>682</ele>
        <time>2022-06-12T10:19:04.447Z</time>
      </trkpt>
      <trkpt lat="44.26528" lon="2.51772">
        <ele>682</ele>
        <time>2022-06-12T10:19:05.447Z</time>
      </trkpt>
      <trkpt lat="44.26528" lon="2.5177">
        <ele>682</ele>
        <time>2022-06-12T10:19:06.447Z</time>
      </trkpt>
      <trkpt lat="44.26528" lon="2.51768">
        <ele>682</ele>
        <time>2022-06-12T10:19:07.447Z</time>
      </trkpt>
      <trkpt lat="44.26528" lon="2.51766">
        <ele>682</ele>
        <time>2022-06-12T10:19:08.447Z</time>
      </trkpt>
      <trkpt lat="44.26528" lon="2.51764">
        <ele>681</ele>
        <time>2022-06-12T10:19:09.447Z</time>
      </trkpt>
      <trkpt lat="44.26528" lon="2.51762">
        <ele>681</ele>
        <time>2022-06-12T10:19:10.447Z</time>
      </trkpt>
      <trkpt lat="44.26528" lon="2.5176">
        <ele>681</ele>
        <time>2022-06-12T10:19:11.447Z</time>
      </trkpt>
      <trkpt lat="44.26527" lon="2.51758">
        <ele>681</ele>
        <time>2022-06-12T10:19:12.447Z</time>
      </trkpt>
      <trkpt lat="44.26527" lon="2.51756">
        <ele>681</ele>
        <time>2022-06-12T10:19:13.447Z</time>
      </trkpt>
      <trkpt lat="44.26527" lon="2.51755">
        <ele>680</ele>
        <time>2022-06-12T10:19:14.447Z</time>
      </trkpt>
      <trkpt lat="44.26527" lon="2.51753">
        <ele>680</ele>
        <time>2022-06-12T10:19:15.447Z</time>
      </trkpt>
      <trkpt lat="44.26527" lon="2.51751">
        <ele>680</ele>
        <time>2022-06-12T10:19:16.447Z</time>
      </trkpt>
      <trkpt lat="44.26527" lon="2.51749">
        <ele>680</ele>
        <time>2022-06-12T10:19:17.447Z</time>
      </trkpt>
      <trkpt lat="44.26527" lon="2.51747">
        <ele>680</ele>
        <time>2022-06-12T10:19:18.447Z</time>
      </trkpt>
      <trkpt lat="44.26526" lon="2.51745">
        <ele>679</ele>
        <time>2022-06-12T10:19:19.447Z</time>
      </trkpt>
      <trkpt lat="44.26526" lon="2.51744">
        <ele>679</ele>
        <time>2022-06-12T10:19:20.447Z</time>
      </trkpt>
      <trkpt lat="44.26526" lon="2.51742">
        <ele>679</ele>
        <time>2022-06-12T10:19:21.447Z</time>
      </trkpt>
      <trkpt lat="44.26526" lon="2.5174">
        <ele>679</ele>
        <time>2022-06-12T10:19:22.447Z</time>
      </trkpt>
      <trkpt lat="44.26526" lon="2.51738">
        <ele>679</ele>
        <time>2022-06-12T10:19:23.447Z</time>
      </trkpt>
      <trkpt lat="44.26526" lon="2.51736">
        <ele>679</ele>
        <time>2022-06-12T10:19:24.447Z</time>
      </trkpt>
      <trkpt lat="44.26526" lon="2.51735">
        <ele>678</ele>
        <time>2022-06-12T10:19:25.447Z</time>
      </trkpt>
      <trkpt lat="44.26527" lon="2.51733">
        <ele>678</ele>
        <time>2022-06-12T10:19:26.447Z</time>
      </trkpt>
      <trkpt lat="44.26527" lon="2.51731">
        <ele>678</ele>
        <time>2022-06-12T10:19:27.447Z</time>
      </trkpt>
      <trkpt lat="44.26527" lon="2.5173">
        <ele>678</ele>
        <time>2022-06-12T10:19:28.447Z</time>
      </trkpt>
      <trkpt lat="44.26527" lon="2.51728">
        <ele>678</ele>
        <time>2022-06-12T10:19:29.447Z</time>
      </trkpt>
      <trkpt lat="44.26527" lon="2.51726">
        <ele>678</ele>
        <time>2022-06-12T10:19:30.447Z</time>
      </trkpt>
      <trkpt lat="44.26527" lon="2.51725">
        <ele>678</ele>
        <time>2022-06-12T10:19:31.447Z</time>
      </trkpt>
      <trkpt lat="44.26527" lon="2.51723">
        <ele>678</ele>
        <time>2022-06-12T10:19:32.447Z</time>
      </trkpt>
      <trkpt lat="44.26527" lon="2.51721">
        <ele>677</ele>
        <time>2022-06-12T10:19:33.447Z</time>
      </trkpt>
      <trkpt lat="44.26528" lon="2.51719">
        <ele>677</ele>
        <time>2022-06-12T10:19:34.447Z</time>
      </trkpt>
      <trkpt lat="44.26528" lon="2.51718">
        <ele>677</ele>
        <time>2022-06-12T10:19:35.447Z</time>
      </trkpt>
      <trkpt lat="44.26528" lon="2.51716">
        <ele>677</ele>
        <time>2022-06-12T10:19:36.447Z</time>
      </trkpt>
      <trkpt lat="44.26528" lon="2.51714">
        <ele>677</ele>
        <time>2022-06-12T10:19:37.447Z</time>
      </trkpt>
      <trkpt lat="44.26529" lon="2.51713">
        <ele>677</ele>
        <time>2022-06-12T10:19:38.447Z</time>
      </trkpt>
      <trkpt lat="44.26529" lon="2.51711">
        <ele>676</ele>
        <time>2022-06-12T10:19:39.447Z</time>
      </trkpt>
      <trkpt lat="44.26529" lon="2.5171">
        <ele>676</ele>
        <time>2022-06-12T10:19:40.447Z</time>
      </trkpt>
      <trkpt lat="44.2653" lon="2.51708">
        <ele>676</ele>
        <time>2022-06-12T10:19:41.447Z</time>
      </trkpt>
      <trkpt lat="44.2653" lon="2.51707">
        <ele>676</ele>
        <time>2022-06-12T10:19:42.447Z</time>
      </trkpt>
      <trkpt lat="44.2653" lon="2.51705">
        <ele>676</ele>
        <time>2022-06-12T10:19:43.447Z</time>
      </trkpt>
      <trkpt lat="44.26531" lon="2.51703">
        <ele>676</ele>
        <time>2022-06-12T10:19:44.447Z</time>
      </trkpt>
      <trkpt lat="44.26531" lon="2.51702">
        <ele>676</ele>
        <time>2022-06-12T10:19:45.447Z</time>
      </trkpt>
      <trkpt lat="44.26531" lon="2.517">
        <ele>676</ele>
        <time>2022-06-12T10:19:46.447Z</time>
      </trkpt>
      <trkpt lat="44.26531" lon="2.51699">
        <ele>675</ele>
        <time>2022-06-12T10:19:47.447Z</time>
      </trkpt>
      <trkpt lat="44.26531" lon="2.51697">
        <ele>675</ele>
        <time>2022-06-12T10:19:48.447Z</time>
      </trkpt>
      <trkpt lat="44.26532" lon="2.51696">
        <ele>675</ele>
        <time>2022-06-12T10:19:49.447Z</time>
      </trkpt>
      <trkpt lat="44.26532" lon="2.51694">
        <ele>675</ele>
        <time>2022-06-12T10:19:50.447Z</time>
      </trkpt>
      <trkpt lat="44.26532" lon="2.51693">
        <ele>675</ele>
        <time>2022-06-12T10:19:51.447Z</time>
      </trkpt>
      <trkpt lat="44.26533" lon="2.51692">
        <ele>675</ele>
        <time>2022-06-12T10:19:52.447Z</time>
      </trkpt>
      <trkpt lat="44.26533" lon="2.51691">
        <ele>675</ele>
        <time>2022-06-12T10:19:53.447Z</time>
      </trkpt>
      <trkpt lat="44.26534" lon="2.51689">
        <ele>675</ele>
        <time>2022-06-12T10:19:54.447Z</time>
      </trkpt>
      <trkpt lat="44.26534" lon="2.51688">
        <ele>675</ele>
        <time>2022-06-12T10:19:55.447Z</time>
      </trkpt>
      <trkpt lat="44.26534" lon="2.51687">
        <ele>675</ele>
        <time>2022-06-12T10:19:56.447Z</time>
      </trkpt>
      <trkpt lat="44.26535" lon="2.51685">
        <ele>675</ele>
        <time>2022-06-12T10:19:57.447Z</time>
      </trkpt>
      <trkpt lat="44.26535" lon="2.51684">
        <ele>675</ele>
        <time>2022-06-12T10:19:58.447Z</time>
      </trkpt>
      <trkpt lat="44.26535" lon="2.51682">
        <ele>675</ele>
        <time>2022-06-12T10:19:59.447Z</time>
      </trkpt>
      <trkpt lat="44.26535" lon="2.51681">
        <ele>675</ele>
        <time>2022-06-12T10:20:00.447Z</time>
      </trkpt>
      <trkpt lat="44.26536" lon="2.51679">
        <ele>674</ele>
        <time>2022-06-12T10:20:01.447Z</time>
      </trkpt>
      <trkpt lat="44.26536" lon="2.51678">
        <ele>674</ele>
        <time>2022-06-12T10:20:02.447Z</time>
      </trkpt>
      <trkpt lat="44.26536" lon="2.51676">
        <ele>674</ele>
        <time>2022-06-12T10:20:03.447Z</time>
      </trkpt>
      <trkpt lat="44.26537" lon="2.51675">
        <ele>674</ele>
        <time>2022-06-12T10:20:04.447Z</time>
      </trkpt>
      <trkpt lat="44.26537" lon="2.51673">
        <ele>674</ele>
        <time>2022-06-12T10:20:05.447Z</time>
      </trkpt>
      <trkpt lat="44.26537" lon="2.51672">
        <ele>673</ele>
        <time>2022-06-12T10:20:06.447Z</time>
      </trkpt>
      <trkpt lat="44.26538" lon="2.5167">
        <ele>673</ele>
        <time>2022-06-12T10:20:07.447Z</time>
      </trkpt>
      <trkpt lat="44.26538" lon="2.51669">
        <ele>673</ele>
        <time>2022-06-12T10:20:08.447Z</time>
      </trkpt>
      <trkpt lat="44.26538" lon="2.51668">
        <ele>673</ele>
        <time>2022-06-12T10:20:09.447Z</time>
      </trkpt>
      <trkpt lat="44.26538" lon="2.51666">
        <ele>673</ele>
        <time>2022-06-12T10:20:10.447Z</time>
      </trkpt>
      <trkpt lat="44.26539" lon="2.51665">
        <ele>672</ele>
        <time>2022-06-12T10:20:11.447Z</time>
      </trkpt>
      <trkpt lat="44.26539" lon="2.51663">
        <ele>672</ele>
        <time>2022-06-12T10:20:12.447Z</time>
      </trkpt>
      <trkpt lat="44.26539" lon="2.51662">
        <ele>672</ele>
        <time>2022-06-12T10:20:13.447Z</time>
      </trkpt>
      <trkpt lat="44.26539" lon="2.51661">
        <ele>672</ele>
        <time>2022-06-12T10:20:14.447Z</time>
      </trkpt>
      <trkpt lat="44.26539" lon="2.51659">
        <ele>672</ele>
        <time>2022-06-12T10:20:15.447Z</time>
      </trkpt>
      <trkpt lat="44.2654" lon="2.51657">
        <ele>672</ele>
        <time>2022-06-12T10:20:16.447Z</time>
      </trkpt>
      <trkpt lat="44.2654" lon="2.51656">
        <ele>673</ele>
        <time>2022-06-12T10:20:17.447Z</time>
      </trkpt>
      <trkpt lat="44.2654" lon="2.51655">
        <ele>673</ele>
        <time>2022-06-12T10:20:18.447Z</time>
      </trkpt>
      <trkpt lat="44.2654" lon="2.51653">
        <ele>673</ele>
        <time>2022-06-12T10:20:19.447Z</time>
      </trkpt>
      <trkpt lat="44.26541" lon="2.51651">
        <ele>673</ele>
        <time>2022-06-12T10:20:20.447Z</time>
      </trkpt>
      <trkpt lat="44.26541" lon="2.5165">
        <ele>673</ele>
        <time>2022-06-12T10:20:21.447Z</time>
      </trkpt>
      <trkpt lat="44.26541" lon="2.51648">
        <ele>673</ele>
        <time>2022-06-12T10:20:22.447Z</time>
      </trkpt>
      <trkpt lat="44.26542" lon="2.51647">
        <ele>673</ele>
        <time>2022-06-12T10:20:23.447Z</time>
      </trkpt>
      <trkpt lat="44.26542" lon="2.51645">
        <ele>673</ele>
        <time>2022-06-12T10:20:24.447Z</time>
      </trkpt>
      <trkpt lat="44.26543" lon="2.51644">
        <ele>674</ele>
        <time>2022-06-12T10:20:25.447Z</time>
      </trkpt>
      <trkpt lat="44.26543" lon="2.51642">
        <ele>674</ele>
        <time>2022-06-12T10:20:26.447Z</time>
      </trkpt>
      <trkpt lat="44.26544" lon="2.5164">
        <ele>674</ele>
        <time>2022-06-12T10:20:27.447Z</time>
      </trkpt>
      <trkpt lat="44.26544" lon="2.51638">
        <ele>674</ele>
        <time>2022-06-12T10:20:28.447Z</time>
      </trkpt>
      <trkpt lat="44.26544" lon="2.51636">
        <ele>674</ele>
        <time>2022-06-12T10:20:29.447Z</time>
      </trkpt>
      <trkpt lat="44.26544" lon="2.51634">
        <ele>674</ele>
        <time>2022-06-12T10:20:30.447Z</time>
      </trkpt>
      <trkpt lat="44.26544" lon="2.51633">
        <ele>674</ele>
        <time>2022-06-12T10:20:31.447Z</time>
      </trkpt>
      <trkpt lat="44.26544" lon="2.51631">
        <ele>674</ele>
        <time>2022-06-12T10:20:32.447Z</time>
      </trkpt>
      <trkpt lat="44.26544" lon="2.51629">
        <ele>674</ele>
        <time>2022-06-12T10:20:33.447Z</time>
      </trkpt>
      <trkpt lat="44.26545" lon="2.51628">
        <ele>674</ele>
        <time>2022-06-12T10:20:34.447Z</time>
      </trkpt>
      <trkpt lat="44.26545" lon="2.51626">
        <ele>674</ele>
        <time>2022-06-12T10:20:35.447Z</time>
      </trkpt>
      <trkpt lat="44.26545" lon="2.51625">
        <ele>674</ele>
        <time>2022-06-12T10:20:36.447Z</time>
      </trkpt>
      <trkpt lat="44.26546" lon="2.51623">
        <ele>674</ele>
        <time>2022-06-12T10:20:37.447Z</time>
      </trkpt>
      <trkpt lat="44.26546" lon="2.51622">
        <ele>674</ele>
        <time>2022-06-12T10:20:38.447Z</time>
      </trkpt>
      <trkpt lat="44.26546" lon="2.5162">
        <ele>674</ele>
        <time>2022-06-12T10:20:39.447Z</time>
      </trkpt>
      <trkpt lat="44.26546" lon="2.51618">
        <ele>674</ele>
        <time>2022-06-12T10:20:40.447Z</time>
      </trkpt>
      <trkpt lat="44.26546" lon="2.51617">
        <ele>674</ele>
        <time>2022-06-12T10:20:41.447Z</time>
      </trkpt>
      <trkpt lat="44.26546" lon="2.51615">
        <ele>674</ele>
        <time>2022-06-12T10:20:42.447Z</time>
      </trkpt>
      <trkpt lat="44.26546" lon="2.51613">
        <ele>674</ele>
        <time>2022-06-12T10:20:43.447Z</time>
      </trkpt>
      <trkpt lat="44.26546" lon="2.51612">
        <ele>674</ele>
        <time>2022-06-12T10:20:44.447Z</time>
      </trkpt>
      <trkpt lat="44.26546" lon="2.5161">
        <ele>674</ele>
        <time>2022-06-12T10:20:45.447Z</time>
      </trkpt>
      <trkpt lat="44.26546" lon="2.51608">
        <ele>674</ele>
        <time>2022-06-12T10:20:46.447Z</time>
      </trkpt>
      <trkpt lat="44.26546" lon="2.51607">
        <ele>674</ele>
        <time>2022-06-12T10:20:47.447Z</time>
      </trkpt>
      <trkpt lat="44.26546" lon="2.51605">
        <ele>674</ele>
        <time>2022-06-12T10:20:48.447Z</time>
      </trkpt>
      <trkpt lat="44.26546" lon="2.51604">
        <ele>675</ele>
        <time>2022-06-12T10:20:49.447Z</time>
      </trkpt>
      <trkpt lat="44.26546" lon="2.51603">
        <ele>675</ele>
        <time>2022-06-12T10:20:50.447Z</time>
      </trkpt>
      <trkpt lat="44.26546" lon="2.51602">
        <ele>675</ele>
        <time>2022-06-12T10:20:51.447Z</time>
      </trkpt>
      <trkpt lat="44.26546" lon="2.516">
        <ele>675</ele>
        <time>2022-06-12T10:20:52.447Z</time>
      </trkpt>
      <trkpt lat="44.26546" lon="2.51599">
        <ele>675</ele>
        <time>2022-06-12T10:20:53.447Z</time>
      </trkpt>
      <trkpt lat="44.26545" lon="2.51598">
        <ele>675</ele>
        <time>2022-06-12T10:20:54.447Z</time>
      </trkpt>
      <trkpt lat="44.26545" lon="2.51596">
        <ele>675</ele>
        <time>2022-06-12T10:20:55.447Z</time>
      </trkpt>
      <trkpt lat="44.26545" lon="2.51595">
        <ele>675</ele>
        <time>2022-06-12T10:20:56.447Z</time>
      </trkpt>
      <trkpt lat="44.26544" lon="2.51594">
        <ele>675</ele>
        <time>2022-06-12T10:20:57.447Z</time>
      </trkpt>
      <trkpt lat="44.26544" lon="2.51592">
        <ele>675</ele>
        <time>2022-06-12T10:20:58.447Z</time>
      </trkpt>
      <trkpt lat="44.26543" lon="2.51591">
        <ele>675</ele>
        <time>2022-06-12T10:20:59.447Z</time>
      </trkpt>
      <trkpt lat="44.26543" lon="2.51589">
        <ele>675</ele>
        <time>2022-06-12T10:21:00.447Z</time>
      </trkpt>
      <trkpt lat="44.26542" lon="2.51588">
        <ele>675</ele>
        <time>2022-06-12T10:21:01.447Z</time>
      </trkpt>
      <trkpt lat="44.26541" lon="2.51586">
        <ele>675</ele>
        <time>2022-06-12T10:21:02.447Z</time>
      </trkpt>
      <trkpt lat="44.26541" lon="2.51585">
        <ele>675</ele>
        <time>2022-06-12T10:21:03.447Z</time>
      </trkpt>
      <trkpt lat="44.2654" lon="2.51584">
        <ele>675</ele>
        <time>2022-06-12T10:21:04.447Z</time>
      </trkpt>
      <trkpt lat="44.26539" lon="2.51583">
        <ele>676</ele>
        <time>2022-06-12T10:21:05.447Z</time>
      </trkpt>
      <trkpt lat="44.26539" lon="2.51581">
        <ele>676</ele>
        <time>2022-06-12T10:21:06.447Z</time>
      </trkpt>
      <trkpt lat="44.26538" lon="2.5158">
        <ele>676</ele>
        <time>2022-06-12T10:21:07.447Z</time>
      </trkpt>
      <trkpt lat="44.26538" lon="2.51579">
        <ele>676</ele>
        <time>2022-06-12T10:21:08.447Z</time>
      </trkpt>
      <trkpt lat="44.26537" lon="2.51577">
        <ele>676</ele>
        <time>2022-06-12T10:21:09.447Z</time>
      </trkpt>
      <trkpt lat="44.26536" lon="2.51576">
        <ele>676</ele>
        <time>2022-06-12T10:21:10.447Z</time>
      </trkpt>
      <trkpt lat="44.26535" lon="2.51574">
        <ele>676</ele>
        <time>2022-06-12T10:21:11.447Z</time>
      </trkpt>
      <trkpt lat="44.26535" lon="2.51573">
        <ele>676</ele>
        <time>2022-06-12T10:21:12.447Z</time>
      </trkpt>
      <trkpt lat="44.26534" lon="2.51572">
        <ele>676</ele>
        <time>2022-06-12T10:21:13.447Z</time>
      </trkpt>
      <trkpt lat="44.26534" lon="2.5157">
        <ele>676</ele>
        <time>2022-06-12T10:21:14.447Z</time>
      </trkpt>
      <trkpt lat="44.26533" lon="2.51569">
        <ele>676</ele>
        <time>2022-06-12T10:21:15.447Z</time>
      </trkpt>
      <trkpt lat="44.26532" lon="2.51567">
        <ele>676</ele>
        <time>2022-06-12T10:21:16.447Z</time>
      </trkpt>
      <trkpt lat="44.26531" lon="2.51566">
        <ele>676</ele>
        <time>2022-06-12T10:21:17.447Z</time>
      </trkpt>
      <trkpt lat="44.26531" lon="2.51564">
        <ele>676</ele>
        <time>2022-06-12T10:21:18.447Z</time>
      </trkpt>
      <trkpt lat="44.2653" lon="2.51563">
        <ele>676</ele>
        <time>2022-06-12T10:21:19.447Z</time>
      </trkpt>
      <trkpt lat="44.2653" lon="2.51562">
        <ele>676</ele>
        <time>2022-06-12T10:21:20.447Z</time>
      </trkpt>
      <trkpt lat="44.26529" lon="2.51561">
        <ele>676</ele>
        <time>2022-06-12T10:21:21.447Z</time>
      </trkpt>
      <trkpt lat="44.26529" lon="2.51559">
        <ele>676</ele>
        <time>2022-06-12T10:21:22.447Z</time>
      </trkpt>
      <trkpt lat="44.26528" lon="2.51558">
        <ele>676</ele>
        <time>2022-06-12T10:21:23.447Z</time>
      </trkpt>
      <trkpt lat="44.26528" lon="2.51556">
        <ele>675</ele>
        <time>2022-06-12T10:21:24.447Z</time>
      </trkpt>
      <trkpt lat="44.26528" lon="2.51555">
        <ele>675</ele>
        <time>2022-06-12T10:21:25.447Z</time>
      </trkpt>
      <trkpt lat="44.26527" lon="2.51554">
        <ele>675</ele>
        <time>2022-06-12T10:21:26.447Z</time>
      </trkpt>
      <trkpt lat="44.26527" lon="2.51552">
        <ele>675</ele>
        <time>2022-06-12T10:21:27.447Z</time>
      </trkpt>
      <trkpt lat="44.26527" lon="2.51551">
        <ele>675</ele>
        <time>2022-06-12T10:21:28.447Z</time>
      </trkpt>
      <trkpt lat="44.26527" lon="2.5155">
        <ele>675</ele>
        <time>2022-06-12T10:21:29.447Z</time>
      </trkpt>
      <trkpt lat="44.26527" lon="2.51548">
        <ele>675</ele>
        <time>2022-06-12T10:21:30.447Z</time>
      </trkpt>
      <trkpt lat="44.26527" lon="2.51547">
        <ele>675</ele>
        <time>2022-06-12T10:21:31.447Z</time>
      </trkpt>
      <trkpt lat="44.26527" lon="2.51545">
        <ele>675</ele>
        <time>2022-06-12T10:21:32.447Z</time>
      </trkpt>
      <trkpt lat="44.26527" lon="2.51543">
        <ele>675</ele>
        <time>2022-06-12T10:21:33.447Z</time>
      </trkpt>
      <trkpt lat="44.26526" lon="2.51542">
        <ele>675</ele>
        <time>2022-06-12T10:21:34.447Z</time>
      </trkpt>
      <trkpt lat="44.26526" lon="2.5154">
        <ele>675</ele>
        <time>2022-06-12T10:21:35.447Z</time>
      </trkpt>
      <trkpt lat="44.26527" lon="2.51539">
        <ele>675</ele>
        <time>2022-06-12T10:21:36.447Z</time>
      </trkpt>
      <trkpt lat="44.26527" lon="2.51537">
        <ele>675</ele>
        <time>2022-06-12T10:21:37.447Z</time>
      </trkpt>
      <trkpt lat="44.26527" lon="2.51535">
        <ele>675</ele>
        <time>2022-06-12T10:21:38.447Z</time>
      </trkpt>
      <trkpt lat="44.26527" lon="2.51534">
        <ele>675</ele>
        <time>2022-06-12T10:21:39.447Z</time>
      </trkpt>
      <trkpt lat="44.26527" lon="2.51532">
        <ele>675</ele>
        <time>2022-06-12T10:21:40.447Z</time>
      </trkpt>
      <trkpt lat="44.26527" lon="2.5153">
        <ele>675</ele>
        <time>2022-06-12T10:21:41.447Z</time>
      </trkpt>
      <trkpt lat="44.26528" lon="2.51529">
        <ele>676</ele>
        <time>2022-06-12T10:21:42.447Z</time>
      </trkpt>
      <trkpt lat="44.26528" lon="2.51527">
        <ele>676</ele>
        <time>2022-06-12T10:21:43.447Z</time>
      </trkpt>
      <trkpt lat="44.26529" lon="2.51526">
        <ele>676</ele>
        <time>2022-06-12T10:21:44.447Z</time>
      </trkpt>
      <trkpt lat="44.26529" lon="2.51524">
        <ele>676</ele>
        <time>2022-06-12T10:21:45.447Z</time>
      </trkpt>
      <trkpt lat="44.26529" lon="2.51522">
        <ele>676</ele>
        <time>2022-06-12T10:21:46.447Z</time>
      </trkpt>
      <trkpt lat="44.26529" lon="2.5152">
        <ele>676</ele>
        <time>2022-06-12T10:21:47.447Z</time>
      </trkpt>
      <trkpt lat="44.26529" lon="2.51519">
        <ele>676</ele>
        <time>2022-06-12T10:21:48.447Z</time>
      </trkpt>
      <trkpt lat="44.2653" lon="2.51517">
        <ele>676</ele>
        <time>2022-06-12T10:21:49.447Z</time>
      </trkpt>
      <trkpt lat="44.2653" lon="2.51515">
        <ele>676</ele>
        <time>2022-06-12T10:21:50.447Z</time>
      </trkpt>
      <trkpt lat="44.2653" lon="2.51513">
        <ele>676</ele>
        <time>2022-06-12T10:21:51.447Z</time>
      </trkpt>
      <trkpt lat="44.2653" lon="2.51512">
        <ele>676</ele>
        <time>2022-06-12T10:21:52.447Z</time>
      </trkpt>
      <trkpt lat="44.2653" lon="2.5151">
        <ele>676</ele>
        <time>2022-06-12T10:21:53.447Z</time>
      </trkpt>
      <trkpt lat="44.2653" lon="2.51508">
        <ele>676</ele>
        <time>2022-06-12T10:21:54.447Z</time>
      </trkpt>
      <trkpt lat="44.2653" lon="2.51506">
        <ele>676</ele>
        <time>2022-06-12T10:21:55.447Z</time>
      </trkpt>
      <trkpt lat="44.2653" lon="2.51504">
        <ele>676</ele>
        <time>2022-06-12T10:21:56.447Z</time>
      </trkpt>
      <trkpt lat="44.2653" lon="2.51502">
        <ele>676</ele>
        <time>2022-06-12T10:21:57.447Z</time>
      </trkpt>
      <trkpt lat="44.2653" lon="2.51501">
        <ele>676</ele>
        <time>2022-06-12T10:21:58.447Z</time>
      </trkpt>
      <trkpt lat="44.26531" lon="2.51499">
        <ele>676</ele>
        <time>2022-06-12T10:21:59.447Z</time>
      </trkpt>
      <trkpt lat="44.26531" lon="2.51497">
        <ele>676</ele>
        <time>2022-06-12T10:22:00.447Z</time>
      </trkpt>
      <trkpt lat="44.26531" lon="2.51496">
        <ele>676</ele>
        <time>2022-06-12T10:22:01.447Z</time>
      </trkpt>
      <trkpt lat="44.26531" lon="2.51494">
        <ele>676</ele>
        <time>2022-06-12T10:22:02.447Z</time>
      </trkpt>
      <trkpt lat="44.26531" lon="2.51493">
        <ele>676</ele>
        <time>2022-06-12T10:22:03.447Z</time>
      </trkpt>
      <trkpt lat="44.26531" lon="2.51491">
        <ele>676</ele>
        <time>2022-06-12T10:22:04.447Z</time>
      </trkpt>
      <trkpt lat="44.26531" lon="2.51489">
        <ele>676</ele>
        <time>2022-06-12T10:22:05.447Z</time>
      </trkpt>
      <trkpt lat="44.26531" lon="2.51488">
        <ele>676</ele>
        <time>2022-06-12T10:22:06.447Z</time>
      </trkpt>
      <trkpt lat="44.26531" lon="2.51486">
        <ele>676</ele>
        <time>2022-06-12T10:22:07.447Z</time>
      </trkpt>
      <trkpt lat="44.26532" lon="2.51485">
        <ele>676</ele>
        <time>2022-06-12T10:22:08.447Z</time>
      </trkpt>
      <trkpt lat="44.26532" lon="2.51483">
        <ele>676</ele>
        <time>2022-06-12T10:22:09.447Z</time>
      </trkpt>
      <trkpt lat="44.26532" lon="2.51482">
        <ele>676</ele>
        <time>2022-06-12T10:22:10.447Z</time>
      </trkpt>
      <trkpt lat="44.26532" lon="2.5148">
        <ele>676</ele>
        <time>2022-06-12T10:22:11.447Z</time>
      </trkpt>
      <trkpt lat="44.26533" lon="2.51479">
        <ele>676</ele>
        <time>2022-06-12T10:22:12.447Z</time>
      </trkpt>
      <trkpt lat="44.26533" lon="2.51477">
        <ele>675</ele>
        <time>2022-06-12T10:22:13.447Z</time>
      </trkpt>
      <trkpt lat="44.26533" lon="2.51476">
        <ele>675</ele>
        <time>2022-06-12T10:22:14.447Z</time>
      </trkpt>
      <trkpt lat="44.26534" lon="2.51475">
        <ele>675</ele>
        <time>2022-06-12T10:22:15.447Z</time>
      </trkpt>
      <trkpt lat="44.26534" lon="2.51474">
        <ele>675</ele>
        <time>2022-06-12T10:22:16.447Z</time>
      </trkpt>
      <trkpt lat="44.26534" lon="2.51472">
        <ele>675</ele>
        <time>2022-06-12T10:22:17.447Z</time>
      </trkpt>
      <trkpt lat="44.26535" lon="2.51471">
        <ele>675</ele>
        <time>2022-06-12T10:22:18.447Z</time>
      </trkpt>
      <trkpt lat="44.26535" lon="2.51469">
        <ele>675</ele>
        <time>2022-06-12T10:22:19.447Z</time>
      </trkpt>
      <trkpt lat="44.26536" lon="2.51468">
        <ele>675</ele>
        <time>2022-06-12T10:22:20.447Z</time>
      </trkpt>
      <trkpt lat="44.26536" lon="2.51466">
        <ele>675</ele>
        <time>2022-06-12T10:22:21.447Z</time>
      </trkpt>
      <trkpt lat="44.26536" lon="2.51465">
        <ele>675</ele>
        <time>2022-06-12T10:22:22.447Z</time>
      </trkpt>
      <trkpt lat="44.26537" lon="2.51463">
        <ele>675</ele>
        <time>2022-06-12T10:22:23.447Z</time>
      </trkpt>
      <trkpt lat="44.26537" lon="2.51462">
        <ele>675</ele>
        <time>2022-06-12T10:22:24.447Z</time>
      </trkpt>
      <trkpt lat="44.26537" lon="2.5146">
        <ele>675</ele>
        <time>2022-06-12T10:22:25.447Z</time>
      </trkpt>
      <trkpt lat="44.26538" lon="2.51459">
        <ele>675</ele>
        <time>2022-06-12T10:22:26.447Z</time>
      </trkpt>
      <trkpt lat="44.26538" lon="2.51457">
        <ele>675</ele>
        <time>2022-06-12T10:22:27.447Z</time>
      </trkpt>
      <trkpt lat="44.26538" lon="2.51456">
        <ele>675</ele>
        <time>2022-06-12T10:22:28.447Z</time>
      </trkpt>
      <trkpt lat="44.26538" lon="2.51454">
        <ele>674</ele>
        <time>2022-06-12T10:22:29.447Z</time>
      </trkpt>
      <trkpt lat="44.26539" lon="2.51452">
        <ele>674</ele>
        <time>2022-06-12T10:22:30.447Z</time>
      </trkpt>
      <trkpt lat="44.26539" lon="2.5145">
        <ele>674</ele>
        <time>2022-06-12T10:22:31.447Z</time>
      </trkpt>
      <trkpt lat="44.26539" lon="2.51449">
        <ele>674</ele>
        <time>2022-06-12T10:22:32.447Z</time>
      </trkpt>
      <trkpt lat="44.26539" lon="2.51447">
        <ele>674</ele>
        <time>2022-06-12T10:22:33.447Z</time>
      </trkpt>
      <trkpt lat="44.26539" lon="2.51446">
        <ele>674</ele>
        <time>2022-06-12T10:22:34.447Z</time>
      </trkpt>
      <trkpt lat="44.26539" lon="2.51444">
        <ele>674</ele>
        <time>2022-06-12T10:22:35.447Z</time>
      </trkpt>
      <trkpt lat="44.26539" lon="2.51443">
        <ele>674</ele>
        <time>2022-06-12T10:22:36.447Z</time>
      </trkpt>
      <trkpt lat="44.2654" lon="2.51441">
        <ele>674</ele>
        <time>2022-06-12T10:22:37.447Z</time>
      </trkpt>
      <trkpt lat="44.2654" lon="2.51439">
        <ele>674</ele>
        <time>2022-06-12T10:22:38.447Z</time>
      </trkpt>
      <trkpt lat="44.2654" lon="2.51438">
        <ele>674</ele>
        <time>2022-06-12T10:22:39.447Z</time>
      </trkpt>
      <trkpt lat="44.2654" lon="2.51436">
        <ele>674</ele>
        <time>2022-06-12T10:22:40.447Z</time>
      </trkpt>
      <trkpt lat="44.2654" lon="2.51434">
        <ele>674</ele>
        <time>2022-06-12T10:22:41.447Z</time>
      </trkpt>
      <trkpt lat="44.2654" lon="2.51433">
        <ele>674</ele>
        <time>2022-06-12T10:22:42.447Z</time>
      </trkpt>
      <trkpt lat="44.26541" lon="2.51431">
        <ele>673</ele>
        <time>2022-06-12T10:22:43.447Z</time>
      </trkpt>
      <trkpt lat="44.26541" lon="2.51429">
        <ele>673</ele>
        <time>2022-06-12T10:22:44.447Z</time>
      </trkpt>
      <trkpt lat="44.26541" lon="2.51428">
        <ele>673</ele>
        <time>2022-06-12T10:22:45.447Z</time>
      </trkpt>
      <trkpt lat="44.26541" lon="2.51426">
        <ele>673</ele>
        <time>2022-06-12T10:22:46.447Z</time>
      </trkpt>
      <trkpt lat="44.26541" lon="2.51425">
        <ele>673</ele>
        <time>2022-06-12T10:22:47.447Z</time>
      </trkpt>
      <trkpt lat="44.26542" lon="2.51423">
        <ele>673</ele>
        <time>2022-06-12T10:22:48.447Z</time>
      </trkpt>
      <trkpt lat="44.26542" lon="2.51422">
        <ele>673</ele>
        <time>2022-06-12T10:22:49.447Z</time>
      </trkpt>
      <trkpt lat="44.26542" lon="2.5142">
        <ele>673</ele>
        <time>2022-06-12T10:22:50.447Z</time>
      </trkpt>
      <trkpt lat="44.26542" lon="2.51419">
        <ele>673</ele>
        <time>2022-06-12T10:22:51.447Z</time>
      </trkpt>
      <trkpt lat="44.26542" lon="2.51417">
        <ele>673</ele>
        <time>2022-06-12T10:22:52.447Z</time>
      </trkpt>
      <trkpt lat="44.26542" lon="2.51415">
        <ele>673</ele>
        <time>2022-06-12T10:22:53.447Z</time>
      </trkpt>
      <trkpt lat="44.26543" lon="2.51414">
        <ele>673</ele>
        <time>2022-06-12T10:22:54.447Z</time>
      </trkpt>
      <trkpt lat="44.26543" lon="2.51412">
        <ele>673</ele>
        <time>2022-06-12T10:22:55.447Z</time>
      </trkpt>
      <trkpt lat="44.26543" lon="2.51411">
        <ele>673</ele>
        <time>2022-06-12T10:22:56.447Z</time>
      </trkpt>
      <trkpt lat="44.26543" lon="2.5141">
        <ele>673</ele>
        <time>2022-06-12T10:22:57.447Z</time>
      </trkpt>
      <trkpt lat="44.26543" lon="2.51408">
        <ele>673</ele>
        <time>2022-06-12T10:22:58.447Z</time>
      </trkpt>
      <trkpt lat="44.26543" lon="2.51406">
        <ele>673</ele>
        <time>2022-06-12T10:22:59.447Z</time>
      </trkpt>
      <trkpt lat="44.26543" lon="2.51405">
        <ele>673</ele>
        <time>2022-06-12T10:23:00.447Z</time>
      </trkpt>
      <trkpt lat="44.26543" lon="2.51403">
        <ele>673</ele>
        <time>2022-06-12T10:23:01.447Z</time>
      </trkpt>
      <trkpt lat="44.26543" lon="2.51402">
        <ele>674</ele>
        <time>2022-06-12T10:23:02.447Z</time>
      </trkpt>
      <trkpt lat="44.26543" lon="2.514">
        <ele>674</ele>
        <time>2022-06-12T10:23:03.447Z</time>
      </trkpt>
      <trkpt lat="44.26543" lon="2.51398">
        <ele>674</ele>
        <time>2022-06-12T10:23:04.447Z</time>
      </trkpt>
      <trkpt lat="44.26543" lon="2.51396">
        <ele>674</ele>
        <time>2022-06-12T10:23:05.447Z</time>
      </trkpt>
      <trkpt lat="44.26543" lon="2.51395">
        <ele>674</ele>
        <time>2022-06-12T10:23:06.447Z</time>
      </trkpt>
      <trkpt lat="44.26543" lon="2.51393">
        <ele>674</ele>
        <time>2022-06-12T10:23:07.447Z</time>
      </trkpt>
      <trkpt lat="44.26543" lon="2.51391">
        <ele>674</ele>
        <time>2022-06-12T10:23:08.447Z</time>
      </trkpt>
      <trkpt lat="44.26543" lon="2.51389">
        <ele>674</ele>
        <time>2022-06-12T10:23:09.447Z</time>
      </trkpt>
      <trkpt lat="44.26543" lon="2.51387">
        <ele>674</ele>
        <time>2022-06-12T10:23:10.447Z</time>
      </trkpt>
      <trkpt lat="44.26543" lon="2.51385">
        <ele>675</ele>
        <time>2022-06-12T10:23:11.447Z</time>
      </trkpt>
      <trkpt lat="44.26543" lon="2.51383">
        <ele>675</ele>
        <time>2022-06-12T10:23:12.447Z</time>
      </trkpt>
      <trkpt lat="44.26543" lon="2.51381">
        <ele>675</ele>
        <time>2022-06-12T10:23:13.447Z</time>
      </trkpt>
      <trkpt lat="44.26542" lon="2.51379">
        <ele>675</ele>
        <time>2022-06-12T10:23:14.447Z</time>
      </trkpt>
      <trkpt lat="44.26542" lon="2.51377">
        <ele>676</ele>
        <time>2022-06-12T10:23:15.447Z</time>
      </trkpt>
      <trkpt lat="44.26542" lon="2.51375">
        <ele>676</ele>
        <time>2022-06-12T10:23:16.447Z</time>
      </trkpt>
      <trkpt lat="44.26542" lon="2.51374">
        <ele>676</ele>
        <time>2022-06-12T10:23:17.447Z</time>
      </trkpt>
      <trkpt lat="44.26542" lon="2.51372">
        <ele>676</ele>
        <time>2022-06-12T10:23:18.447Z</time>
      </trkpt>
      <trkpt lat="44.26541" lon="2.5137">
        <ele>676</ele>
        <time>2022-06-12T10:23:19.447Z</time>
      </trkpt>
      <trkpt lat="44.26541" lon="2.51369">
        <ele>676</ele>
        <time>2022-06-12T10:23:20.447Z</time>
      </trkpt>
      <trkpt lat="44.26541" lon="2.51367">
        <ele>677</ele>
        <time>2022-06-12T10:23:21.447Z</time>
      </trkpt>
      <trkpt lat="44.26541" lon="2.51365">
        <ele>677</ele>
        <time>2022-06-12T10:23:22.447Z</time>
      </trkpt>
      <trkpt lat="44.26542" lon="2.51364">
        <ele>677</ele>
        <time>2022-06-12T10:23:23.447Z</time>
      </trkpt>
      <trkpt lat="44.26541" lon="2.51362">
        <ele>677</ele>
        <time>2022-06-12T10:23:24.447Z</time>
      </trkpt>
      <trkpt lat="44.26541" lon="2.51361">
        <ele>677</ele>
        <time>2022-06-12T10:23:25.447Z</time>
      </trkpt>
      <trkpt lat="44.26541" lon="2.51359">
        <ele>677</ele>
        <time>2022-06-12T10:23:26.447Z</time>
      </trkpt>
      <trkpt lat="44.26541" lon="2.51358">
        <ele>677</ele>
        <time>2022-06-12T10:23:27.447Z</time>
      </trkpt>
      <trkpt lat="44.26541" lon="2.51357">
        <ele>678</ele>
        <time>2022-06-12T10:23:28.447Z</time>
      </trkpt>
      <trkpt lat="44.26541" lon="2.51356">
        <ele>678</ele>
        <time>2022-06-12T10:23:29.447Z</time>
      </trkpt>
      <trkpt lat="44.26541" lon="2.51355">
        <ele>678</ele>
        <time>2022-06-12T10:23:30.447Z</time>
      </trkpt>
      <trkpt lat="44.26541" lon="2.51354">
        <ele>678</ele>
        <time>2022-06-12T10:23:31.447Z</time>
      </trkpt>
      <trkpt lat="44.26541" lon="2.51353">
        <ele>678</ele>
        <time>2022-06-12T10:23:32.447Z</time>
      </trkpt>
      <trkpt lat="44.26541" lon="2.51352">
        <ele>678</ele>
        <time>2022-06-12T10:23:33.447Z</time>
      </trkpt>
      <trkpt lat="44.26541" lon="2.5135">
        <ele>678</ele>
        <time>2022-06-12T10:23:34.447Z</time>
      </trkpt>
      <trkpt lat="44.2654" lon="2.51349">
        <ele>678</ele>
        <time>2022-06-12T10:23:35.447Z</time>
      </trkpt>
      <trkpt lat="44.2654" lon="2.51348">
        <ele>678</ele>
        <time>2022-06-12T10:23:36.447Z</time>
      </trkpt>
      <trkpt lat="44.2654" lon="2.51347">
        <ele>678</ele>
        <time>2022-06-12T10:23:37.447Z</time>
      </trkpt>
      <trkpt lat="44.2654" lon="2.51346">
        <ele>678</ele>
        <time>2022-06-12T10:23:38.447Z</time>
      </trkpt>
      <trkpt lat="44.2654" lon="2.51345">
        <ele>678</ele>
        <time>2022-06-12T10:23:39.447Z</time>
      </trkpt>
      <trkpt lat="44.2654" lon="2.51344">
        <ele>678</ele>
        <time>2022-06-12T10:23:40.447Z</time>
      </trkpt>
      <trkpt lat="44.2654" lon="2.51343">
        <ele>678</ele>
        <time>2022-06-12T10:23:41.447Z</time>
      </trkpt>
      <trkpt lat="44.2654" lon="2.51342">
        <ele>679</ele>
        <time>2022-06-12T10:23:42.447Z</time>
      </trkpt>
      <trkpt lat="44.2654" lon="2.51341">
        <ele>679</ele>
        <time>2022-06-12T10:23:43.447Z</time>
      </trkpt>
      <trkpt lat="44.2654" lon="2.51341">
        <ele>679</ele>
        <time>2022-06-12T10:23:44.447Z</time>
      </trkpt>
      <trkpt lat="44.2654" lon="2.5134">
        <ele>679</ele>
        <time>2022-06-12T10:23:45.447Z</time>
      </trkpt>
      <trkpt lat="44.2654" lon="2.51339">
        <ele>679</ele>
        <time>2022-06-12T10:23:46.447Z</time>
      </trkpt>
      <trkpt lat="44.2654" lon="2.51338">
        <ele>679</ele>
        <time>2022-06-12T10:23:47.447Z</time>
      </trkpt>
      <trkpt lat="44.26539" lon="2.51336">
        <ele>679</ele>
        <time>2022-06-12T10:23:48.447Z</time>
      </trkpt>
      <trkpt lat="44.26539" lon="2.51335">
        <ele>679</ele>
        <time>2022-06-12T10:23:49.447Z</time>
      </trkpt>
      <trkpt lat="44.26539" lon="2.51333">
        <ele>679</ele>
        <time>2022-06-12T10:23:50.447Z</time>
      </trkpt>
      <trkpt lat="44.26538" lon="2.51332">
        <ele>679</ele>
        <time>2022-06-12T10:23:51.447Z</time>
      </trkpt>
      <trkpt lat="44.26538" lon="2.5133">
        <ele>680</ele>
        <time>2022-06-12T10:23:52.447Z</time>
      </trkpt>
      <trkpt lat="44.26538" lon="2.51329">
        <ele>680</ele>
        <time>2022-06-12T10:23:53.447Z</time>
      </trkpt>
      <trkpt lat="44.26538" lon="2.51328">
        <ele>680</ele>
        <time>2022-06-12T10:23:54.447Z</time>
      </trkpt>
      <trkpt lat="44.26537" lon="2.51326">
        <ele>680</ele>
        <time>2022-06-12T10:23:55.447Z</time>
      </trkpt>
      <trkpt lat="44.26537" lon="2.51325">
        <ele>680</ele>
        <time>2022-06-12T10:23:56.447Z</time>
      </trkpt>
      <trkpt lat="44.26536" lon="2.51324">
        <ele>681</ele>
        <time>2022-06-12T10:23:57.447Z</time>
      </trkpt>
      <trkpt lat="44.26536" lon="2.51323">
        <ele>681</ele>
        <time>2022-06-12T10:23:58.447Z</time>
      </trkpt>
      <trkpt lat="44.26535" lon="2.51321">
        <ele>681</ele>
        <time>2022-06-12T10:23:59.447Z</time>
      </trkpt>
      <trkpt lat="44.26535" lon="2.5132">
        <ele>681</ele>
        <time>2022-06-12T10:24:00.447Z</time>
      </trkpt>
      <trkpt lat="44.26534" lon="2.51319">
        <ele>681</ele>
        <time>2022-06-12T10:24:01.447Z</time>
      </trkpt>
      <trkpt lat="44.26534" lon="2.51318">
        <ele>682</ele>
        <time>2022-06-12T10:24:02.447Z</time>
      </trkpt>
      <trkpt lat="44.26533" lon="2.51316">
        <ele>682</ele>
        <time>2022-06-12T10:24:03.447Z</time>
      </trkpt>
      <trkpt lat="44.26532" lon="2.51315">
        <ele>682</ele>
        <time>2022-06-12T10:24:04.447Z</time>
      </trkpt>
      <trkpt lat="44.26532" lon="2.51314">
        <ele>682</ele>
        <time>2022-06-12T10:24:05.447Z</time>
      </trkpt>
      <trkpt lat="44.26531" lon="2.51313">
        <ele>682</ele>
        <time>2022-06-12T10:24:06.447Z</time>
      </trkpt>
      <trkpt lat="44.2653" lon="2.51312">
        <ele>682</ele>
        <time>2022-06-12T10:24:07.447Z</time>
      </trkpt>
      <trkpt lat="44.26529" lon="2.51311">
        <ele>682</ele>
        <time>2022-06-12T10:24:08.447Z</time>
      </trkpt>
      <trkpt lat="44.26528" lon="2.51311">
        <ele>682</ele>
        <time>2022-06-12T10:24:09.447Z</time>
      </trkpt>
      <trkpt lat="44.26528" lon="2.5131">
        <ele>682</ele>
        <time>2022-06-12T10:24:10.447Z</time>
      </trkpt>
      <trkpt lat="44.26527" lon="2.51309">
        <ele>682</ele>
        <time>2022-06-12T10:24:11.447Z</time>
      </trkpt>
      <trkpt lat="44.26526" lon="2.51308">
        <ele>682</ele>
        <time>2022-06-12T10:24:12.447Z</time>
      </trkpt>
      <trkpt lat="44.26525" lon="2.51308">
        <ele>682</ele>
        <time>2022-06-12T10:24:13.447Z</time>
      </trkpt>
      <trkpt lat="44.26524" lon="2.51308">
        <ele>682</ele>
        <time>2022-06-12T10:24:14.447Z</time>
      </trkpt>
      <trkpt lat="44.26523" lon="2.51307">
        <ele>682</ele>
        <time>2022-06-12T10:24:15.447Z</time>
      </trkpt>
      <trkpt lat="44.26522" lon="2.51307">
        <ele>682</ele>
        <time>2022-06-12T10:24:16.447Z</time>
      </trkpt>
      <trkpt lat="44.26521" lon="2.51306">
        <ele>682</ele>
        <time>2022-06-12T10:24:17.447Z</time>
      </trkpt>
      <trkpt lat="44.2652" lon="2.51305">
        <ele>682</ele>
        <time>2022-06-12T10:24:18.447Z</time>
      </trkpt>
      <trkpt lat="44.26519" lon="2.51305">
        <ele>682</ele>
        <time>2022-06-12T10:24:19.447Z</time>
      </trkpt>
      <trkpt lat="44.26518" lon="2.51304">
        <ele>682</ele>
        <time>2022-06-12T10:24:20.447Z</time>
      </trkpt>
      <trkpt lat="44.26517" lon="2.51303">
        <ele>682</ele>
        <time>2022-06-12T10:24:21.447Z</time>
      </trkpt>
      <trkpt lat="44.26516" lon="2.51302">
        <ele>682</ele>
        <time>2022-06-12T10:24:22.447Z</time>
      </trkpt>
      <trkpt lat="44.26515" lon="2.51302">
        <ele>682</ele>
        <time>2022-06-12T10:24:23.447Z</time>
      </trkpt>
      <trkpt lat="44.26514" lon="2.51301">
        <ele>682</ele>
        <time>2022-06-12T10:24:24.447Z</time>
      </trkpt>
      <trkpt lat="44.26513" lon="2.51301">
        <ele>683</ele>
        <time>2022-06-12T10:24:25.447Z</time>
      </trkpt>
      <trkpt lat="44.26512" lon="2.513">
        <ele>683</ele>
        <time>2022-06-12T10:24:26.447Z</time>
      </trkpt>
      <trkpt lat="44.26511" lon="2.513">
        <ele>683</ele>
        <time>2022-06-12T10:24:27.447Z</time>
      </trkpt>
      <trkpt lat="44.2651" lon="2.51299">
        <ele>683</ele>
        <time>2022-06-12T10:24:28.447Z</time>
      </trkpt>
      <trkpt lat="44.26509" lon="2.51298">
        <ele>683</ele>
        <time>2022-06-12T10:24:29.447Z</time>
      </trkpt>
      <trkpt lat="44.26508" lon="2.51297">
        <ele>683</ele>
        <time>2022-06-12T10:24:30.447Z</time>
      </trkpt>
      <trkpt lat="44.26507" lon="2.51297">
        <ele>684</ele>
        <time>2022-06-12T10:24:31.447Z</time>
      </trkpt>
      <trkpt lat="44.26506" lon="2.51296">
        <ele>684</ele>
        <time>2022-06-12T10:24:32.447Z</time>
      </trkpt>
      <trkpt lat="44.26505" lon="2.51295">
        <ele>684</ele>
        <time>2022-06-12T10:24:33.447Z</time>
      </trkpt>
      <trkpt lat="44.26504" lon="2.51294">
        <ele>684</ele>
        <time>2022-06-12T10:24:34.447Z</time>
      </trkpt>
      <trkpt lat="44.26503" lon="2.51294">
        <ele>684</ele>
        <time>2022-06-12T10:24:35.447Z</time>
      </trkpt>
      <trkpt lat="44.26502" lon="2.51294">
        <ele>684</ele>
        <time>2022-06-12T10:24:36.447Z</time>
      </trkpt>
      <trkpt lat="44.26501" lon="2.51293">
        <ele>684</ele>
        <time>2022-06-12T10:24:37.447Z</time>
      </trkpt>
      <trkpt lat="44.265" lon="2.51292">
        <ele>684</ele>
        <time>2022-06-12T10:24:38.447Z</time>
      </trkpt>
      <trkpt lat="44.26499" lon="2.51291">
        <ele>685</ele>
        <time>2022-06-12T10:24:39.447Z</time>
      </trkpt>
      <trkpt lat="44.26498" lon="2.51291">
        <ele>685</ele>
        <time>2022-06-12T10:24:40.447Z</time>
      </trkpt>
      <trkpt lat="44.26497" lon="2.5129">
        <ele>685</ele>
        <time>2022-06-12T10:24:41.447Z</time>
      </trkpt>
      <trkpt lat="44.26496" lon="2.51289">
        <ele>685</ele>
        <time>2022-06-12T10:24:42.447Z</time>
      </trkpt>
      <trkpt lat="44.26495" lon="2.51288">
        <ele>685</ele>
        <time>2022-06-12T10:24:43.447Z</time>
      </trkpt>
      <trkpt lat="44.26494" lon="2.51288">
        <ele>685</ele>
        <time>2022-06-12T10:24:44.447Z</time>
      </trkpt>
      <trkpt lat="44.26493" lon="2.51287">
        <ele>686</ele>
        <time>2022-06-12T10:24:45.447Z</time>
      </trkpt>
      <trkpt lat="44.26493" lon="2.51286">
        <ele>686</ele>
        <time>2022-06-12T10:24:46.447Z</time>
      </trkpt>
      <trkpt lat="44.26492" lon="2.51285">
        <ele>686</ele>
        <time>2022-06-12T10:24:47.447Z</time>
      </trkpt>
      <trkpt lat="44.26491" lon="2.51285">
        <ele>686</ele>
        <time>2022-06-12T10:24:48.447Z</time>
      </trkpt>
      <trkpt lat="44.2649" lon="2.51284">
        <ele>687</ele>
        <time>2022-06-12T10:24:49.447Z</time>
      </trkpt>
      <trkpt lat="44.26489" lon="2.51283">
        <ele>687</ele>
        <time>2022-06-12T10:24:50.447Z</time>
      </trkpt>
      <trkpt lat="44.26488" lon="2.51282">
        <ele>687</ele>
        <time>2022-06-12T10:24:51.447Z</time>
      </trkpt>
      <trkpt lat="44.26487" lon="2.51281">
        <ele>687</ele>
        <time>2022-06-12T10:24:52.447Z</time>
      </trkpt>
      <trkpt lat="44.26487" lon="2.5128">
        <ele>687</ele>
        <time>2022-06-12T10:24:53.447Z</time>
      </trkpt>
      <trkpt lat="44.26486" lon="2.51279">
        <ele>687</ele>
        <time>2022-06-12T10:24:54.447Z</time>
      </trkpt>
      <trkpt lat="44.26485" lon="2.51278">
        <ele>687</ele>
        <time>2022-06-12T10:24:55.447Z</time>
      </trkpt>
      <trkpt lat="44.26484" lon="2.51277">
        <ele>687</ele>
        <time>2022-06-12T10:24:56.447Z</time>
      </trkpt>
      <trkpt lat="44.26483" lon="2.51275">
        <ele>687</ele>
        <time>2022-06-12T10:24:57.447Z</time>
      </trkpt>
      <trkpt lat="44.26482" lon="2.51275">
        <ele>687</ele>
        <time>2022-06-12T10:24:58.447Z</time>
      </trkpt>
      <trkpt lat="44.26481" lon="2.51274">
        <ele>687</ele>
        <time>2022-06-12T10:24:59.447Z</time>
      </trkpt>
      <trkpt lat="44.2648" lon="2.51273">
        <ele>686</ele>
        <time>2022-06-12T10:25:00.447Z</time>
      </trkpt>
      <trkpt lat="44.26479" lon="2.51272">
        <ele>686</ele>
        <time>2022-06-12T10:25:01.447Z</time>
      </trkpt>
      <trkpt lat="44.26479" lon="2.51271">
        <ele>686</ele>
        <time>2022-06-12T10:25:02.447Z</time>
      </trkpt>
      <trkpt lat="44.26478" lon="2.51271">
        <ele>686</ele>
        <time>2022-06-12T10:25:03.447Z</time>
      </trkpt>
      <trkpt lat="44.26477" lon="2.5127">
        <ele>686</ele>
        <time>2022-06-12T10:25:04.447Z</time>
      </trkpt>
      <trkpt lat="44.26476" lon="2.51269">
        <ele>686</ele>
        <time>2022-06-12T10:25:05.447Z</time>
      </trkpt>
      <trkpt lat="44.26475" lon="2.51268">
        <ele>686</ele>
        <time>2022-06-12T10:25:06.447Z</time>
      </trkpt>
      <trkpt lat="44.26475" lon="2.51267">
        <ele>686</ele>
        <time>2022-06-12T10:25:07.447Z</time>
      </trkpt>
      <trkpt lat="44.26474" lon="2.51266">
        <ele>686</ele>
        <time>2022-06-12T10:25:08.447Z</time>
      </trkpt>
      <trkpt lat="44.26473" lon="2.51265">
        <ele>686</ele>
        <time>2022-06-12T10:25:09.447Z</time>
      </trkpt>
      <trkpt lat="44.26473" lon="2.51264">
        <ele>686</ele>
        <time>2022-06-12T10:25:10.447Z</time>
      </trkpt>
      <trkpt lat="44.26472" lon="2.51263">
        <ele>686</ele>
        <time>2022-06-12T10:25:11.447Z</time>
      </trkpt>
      <trkpt lat="44.26471" lon="2.51262">
        <ele>686</ele>
        <time>2022-06-12T10:25:12.447Z</time>
      </trkpt>
      <trkpt lat="44.2647" lon="2.5126">
        <ele>687</ele>
        <time>2022-06-12T10:25:13.447Z</time>
      </trkpt>
      <trkpt lat="44.26469" lon="2.51259">
        <ele>686</ele>
        <time>2022-06-12T10:25:14.447Z</time>
      </trkpt>
      <trkpt lat="44.26468" lon="2.51258">
        <ele>686</ele>
        <time>2022-06-12T10:25:15.447Z</time>
      </trkpt>
      <trkpt lat="44.26467" lon="2.51257">
        <ele>686</ele>
        <time>2022-06-12T10:25:16.447Z</time>
      </trkpt>
      <trkpt lat="44.26467" lon="2.51256">
        <ele>686</ele>
        <time>2022-06-12T10:25:17.447Z</time>
      </trkpt>
      <trkpt lat="44.26466" lon="2.51255">
        <ele>686</ele>
        <time>2022-06-12T10:25:18.447Z</time>
      </trkpt>
      <trkpt lat="44.26465" lon="2.51254">
        <ele>686</ele>
        <time>2022-06-12T10:25:19.447Z</time>
      </trkpt>
      <trkpt lat="44.26464" lon="2.51253">
        <ele>686</ele>
        <time>2022-06-12T10:25:20.447Z</time>
      </trkpt>
      <trkpt lat="44.26463" lon="2.51252">
        <ele>686</ele>
        <time>2022-06-12T10:25:21.447Z</time>
      </trkpt>
      <trkpt lat="44.26462" lon="2.51252">
        <ele>686</ele>
        <time>2022-06-12T10:25:22.447Z</time>
      </trkpt>
      <trkpt lat="44.26461" lon="2.51251">
        <ele>686</ele>
        <time>2022-06-12T10:25:23.447Z</time>
      </trkpt>
      <trkpt lat="44.2646" lon="2.51249">
        <ele>686</ele>
        <time>2022-06-12T10:25:24.447Z</time>
      </trkpt>
      <trkpt lat="44.26459" lon="2.51248">
        <ele>686</ele>
        <time>2022-06-12T10:25:25.447Z</time>
      </trkpt>
      <trkpt lat="44.26458" lon="2.51247">
        <ele>686</ele>
        <time>2022-06-12T10:25:26.447Z</time>
      </trkpt>
      <trkpt lat="44.26458" lon="2.51246">
        <ele>686</ele>
        <time>2022-06-12T10:25:27.447Z</time>
      </trkpt>
      <trkpt lat="44.26457" lon="2.51245">
        <ele>686</ele>
        <time>2022-06-12T10:25:28.447Z</time>
      </trkpt>
      <trkpt lat="44.26455" lon="2.51243">
        <ele>686</ele>
        <time>2022-06-12T10:25:29.447Z</time>
      </trkpt>
      <trkpt lat="44.26455" lon="2.51242">
        <ele>686</ele>
        <time>2022-06-12T10:25:30.447Z</time>
      </trkpt>
      <trkpt lat="44.26454" lon="2.51241">
        <ele>686</ele>
        <time>2022-06-12T10:25:31.447Z</time>
      </trkpt>
      <trkpt lat="44.26453" lon="2.5124">
        <ele>686</ele>
        <time>2022-06-12T10:25:32.447Z</time>
      </trkpt>
      <trkpt lat="44.26452" lon="2.5124">
        <ele>686</ele>
        <time>2022-06-12T10:25:33.447Z</time>
      </trkpt>
      <trkpt lat="44.26452" lon="2.51239">
        <ele>686</ele>
        <time>2022-06-12T10:25:34.447Z</time>
      </trkpt>
      <trkpt lat="44.26451" lon="2.51238">
        <ele>686</ele>
        <time>2022-06-12T10:25:35.447Z</time>
      </trkpt>
      <trkpt lat="44.2645" lon="2.51237">
        <ele>686</ele>
        <time>2022-06-12T10:25:36.447Z</time>
      </trkpt>
      <trkpt lat="44.26449" lon="2.51236">
        <ele>686</ele>
        <time>2022-06-12T10:25:37.447Z</time>
      </trkpt>
      <trkpt lat="44.26449" lon="2.51235">
        <ele>686</ele>
        <time>2022-06-12T10:25:38.447Z</time>
      </trkpt>
      <trkpt lat="44.26448" lon="2.51234">
        <ele>686</ele>
        <time>2022-06-12T10:25:39.447Z</time>
      </trkpt>
      <trkpt lat="44.26447" lon="2.51234">
        <ele>686</ele>
        <time>2022-06-12T10:25:40.447Z</time>
      </trkpt>
      <trkpt lat="44.26447" lon="2.51233">
        <ele>686</ele>
        <time>2022-06-12T10:25:41.447Z</time>
      </trkpt>
      <trkpt lat="44.26446" lon="2.51233">
        <ele>686</ele>
        <time>2022-06-12T10:25:42.447Z</time>
      </trkpt>
      <trkpt lat="44.26445" lon="2.51232">
        <ele>686</ele>
        <time>2022-06-12T10:25:43.447Z</time>
      </trkpt>
      <trkpt lat="44.26445" lon="2.51231">
        <ele>686</ele>
        <time>2022-06-12T10:25:44.447Z</time>
      </trkpt>
      <trkpt lat="44.26444" lon="2.5123">
        <ele>686</ele>
        <time>2022-06-12T10:25:45.447Z</time>
      </trkpt>
      <trkpt lat="44.26443" lon="2.5123">
        <ele>686</ele>
        <time>2022-06-12T10:25:46.447Z</time>
      </trkpt>
      <trkpt lat="44.26443" lon="2.51229">
        <ele>685</ele>
        <time>2022-06-12T10:25:47.447Z</time>
      </trkpt>
      <trkpt lat="44.26442" lon="2.51228">
        <ele>685</ele>
        <time>2022-06-12T10:25:48.447Z</time>
      </trkpt>
      <trkpt lat="44.26442" lon="2.51227">
        <ele>685</ele>
        <time>2022-06-12T10:25:49.447Z</time>
      </trkpt>
      <trkpt lat="44.26441" lon="2.51226">
        <ele>685</ele>
        <time>2022-06-12T10:25:50.447Z</time>
      </trkpt>
      <trkpt lat="44.26441" lon="2.51225">
        <ele>685</ele>
        <time>2022-06-12T10:25:51.447Z</time>
      </trkpt>
      <trkpt lat="44.2644" lon="2.51224">
        <ele>685</ele>
        <time>2022-06-12T10:25:52.447Z</time>
      </trkpt>
      <trkpt lat="44.26439" lon="2.51223">
        <ele>685</ele>
        <time>2022-06-12T10:25:53.447Z</time>
      </trkpt>
      <trkpt lat="44.26438" lon="2.51223">
        <ele>685</ele>
        <time>2022-06-12T10:25:54.447Z</time>
      </trkpt>
      <trkpt lat="44.26437" lon="2.51222">
        <ele>685</ele>
        <time>2022-06-12T10:25:55.447Z</time>
      </trkpt>
      <trkpt lat="44.26436" lon="2.51221">
        <ele>685</ele>
        <time>2022-06-12T10:25:56.447Z</time>
      </trkpt>
      <trkpt lat="44.26435" lon="2.5122">
        <ele>685</ele>
        <time>2022-06-12T10:25:57.447Z</time>
      </trkpt>
      <trkpt lat="44.26434" lon="2.51219">
        <ele>685</ele>
        <time>2022-06-12T10:25:58.447Z</time>
      </trkpt>
      <trkpt lat="44.26433" lon="2.51218">
        <ele>685</ele>
        <time>2022-06-12T10:25:59.447Z</time>
      </trkpt>
      <trkpt lat="44.26433" lon="2.51217">
        <ele>684</ele>
        <time>2022-06-12T10:26:00.447Z</time>
      </trkpt>
      <trkpt lat="44.26432" lon="2.51216">
        <ele>684</ele>
        <time>2022-06-12T10:26:01.447Z</time>
      </trkpt>
      <trkpt lat="44.2643" lon="2.51214">
        <ele>684</ele>
        <time>2022-06-12T10:26:02.447Z</time>
      </trkpt>
      <trkpt lat="44.26429" lon="2.51213">
        <ele>684</ele>
        <time>2022-06-12T10:26:03.447Z</time>
      </trkpt>
      <trkpt lat="44.26428" lon="2.51212">
        <ele>684</ele>
        <time>2022-06-12T10:26:04.447Z</time>
      </trkpt>
      <trkpt lat="44.26426" lon="2.5121">
        <ele>684</ele>
        <time>2022-06-12T10:26:05.447Z</time>
      </trkpt>
      <trkpt lat="44.26425" lon="2.51209">
        <ele>683</ele>
        <time>2022-06-12T10:26:06.447Z</time>
      </trkpt>
      <trkpt lat="44.26424" lon="2.51208">
        <ele>683</ele>
        <time>2022-06-12T10:26:07.447Z</time>
      </trkpt>
      <trkpt lat="44.26423" lon="2.51207">
        <ele>683</ele>
        <time>2022-06-12T10:26:08.447Z</time>
      </trkpt>
      <trkpt lat="44.26422" lon="2.51206">
        <ele>683</ele>
        <time>2022-06-12T10:26:09.447Z</time>
      </trkpt>
      <trkpt lat="44.26421" lon="2.51205">
        <ele>683</ele>
        <time>2022-06-12T10:26:10.447Z</time>
      </trkpt>
      <trkpt lat="44.2642" lon="2.51204">
        <ele>683</ele>
        <time>2022-06-12T10:26:11.447Z</time>
      </trkpt>
      <trkpt lat="44.26419" lon="2.51203">
        <ele>682</ele>
        <time>2022-06-12T10:26:12.447Z</time>
      </trkpt>
      <trkpt lat="44.26418" lon="2.51202">
        <ele>682</ele>
        <time>2022-06-12T10:26:13.447Z</time>
      </trkpt>
      <trkpt lat="44.26417" lon="2.51201">
        <ele>682</ele>
        <time>2022-06-12T10:26:14.447Z</time>
      </trkpt>
      <trkpt lat="44.26416" lon="2.512">
        <ele>682</ele>
        <time>2022-06-12T10:26:15.447Z</time>
      </trkpt>
      <trkpt lat="44.26415" lon="2.51199">
        <ele>682</ele>
        <time>2022-06-12T10:26:16.447Z</time>
      </trkpt>
      <trkpt lat="44.26413" lon="2.51197">
        <ele>682</ele>
        <time>2022-06-12T10:26:17.447Z</time>
      </trkpt>
      <trkpt lat="44.26412" lon="2.51196">
        <ele>682</ele>
        <time>2022-06-12T10:26:18.447Z</time>
      </trkpt>
      <trkpt lat="44.26411" lon="2.51195">
        <ele>682</ele>
        <time>2022-06-12T10:26:19.447Z</time>
      </trkpt>
      <trkpt lat="44.2641" lon="2.51193">
        <ele>682</ele>
        <time>2022-06-12T10:26:20.447Z</time>
      </trkpt>
      <trkpt lat="44.26409" lon="2.51192">
        <ele>682</ele>
        <time>2022-06-12T10:26:21.447Z</time>
      </trkpt>
      <trkpt lat="44.26408" lon="2.51191">
        <ele>682</ele>
        <time>2022-06-12T10:26:22.447Z</time>
      </trkpt>
      <trkpt lat="44.26407" lon="2.5119">
        <ele>682</ele>
        <time>2022-06-12T10:26:23.447Z</time>
      </trkpt>
      <trkpt lat="44.26406" lon="2.51189">
        <ele>682</ele>
        <time>2022-06-12T10:26:24.447Z</time>
      </trkpt>
      <trkpt lat="44.26405" lon="2.51188">
        <ele>682</ele>
        <time>2022-06-12T10:26:25.447Z</time>
      </trkpt>
      <trkpt lat="44.26404" lon="2.51187">
        <ele>682</ele>
        <time>2022-06-12T10:26:26.447Z</time>
      </trkpt>
      <trkpt lat="44.26404" lon="2.51186">
        <ele>682</ele>
        <time>2022-06-12T10:26:27.447Z</time>
      </trkpt>
      <trkpt lat="44.26403" lon="2.51185">
        <ele>682</ele>
        <time>2022-06-12T10:26:28.447Z</time>
      </trkpt>
      <trkpt lat="44.26402" lon="2.51183">
        <ele>681</ele>
        <time>2022-06-12T10:26:29.447Z</time>
      </trkpt>
      <trkpt lat="44.26401" lon="2.51182">
        <ele>681</ele>
        <time>2022-06-12T10:26:30.447Z</time>
      </trkpt>
      <trkpt lat="44.264" lon="2.51181">
        <ele>681</ele>
        <time>2022-06-12T10:26:31.447Z</time>
      </trkpt>
      <trkpt lat="44.26399" lon="2.5118">
        <ele>681</ele>
        <time>2022-06-12T10:26:32.447Z</time>
      </trkpt>
      <trkpt lat="44.26398" lon="2.51179">
        <ele>681</ele>
        <time>2022-06-12T10:26:33.447Z</time>
      </trkpt>
      <trkpt lat="44.26397" lon="2.51177">
        <ele>681</ele>
        <time>2022-06-12T10:26:34.447Z</time>
      </trkpt>
      <trkpt lat="44.26396" lon="2.51176">
        <ele>681</ele>
        <time>2022-06-12T10:26:35.447Z</time>
      </trkpt>
      <trkpt lat="44.26395" lon="2.51175">
        <ele>681</ele>
        <time>2022-06-12T10:26:36.447Z</time>
      </trkpt>
      <trkpt lat="44.26394" lon="2.51174">
        <ele>681</ele>
        <time>2022-06-12T10:26:37.447Z</time>
      </trkpt>
      <trkpt lat="44.26394" lon="2.51173">
        <ele>681</ele>
        <time>2022-06-12T10:26:38.447Z</time>
      </trkpt>
      <trkpt lat="44.26392" lon="2.51172">
        <ele>681</ele>
        <time>2022-06-12T10:26:39.447Z</time>
      </trkpt>
      <trkpt lat="44.26391" lon="2.51171">
        <ele>681</ele>
        <time>2022-06-12T10:26:40.447Z</time>
      </trkpt>
      <trkpt lat="44.2639" lon="2.5117">
        <ele>681</ele>
        <time>2022-06-12T10:26:41.447Z</time>
      </trkpt>
      <trkpt lat="44.2639" lon="2.51169">
        <ele>681</ele>
        <time>2022-06-12T10:26:42.447Z</time>
      </trkpt>
      <trkpt lat="44.26389" lon="2.51168">
        <ele>680</ele>
        <time>2022-06-12T10:26:43.447Z</time>
      </trkpt>
      <trkpt lat="44.26388" lon="2.51167">
        <ele>680</ele>
        <time>2022-06-12T10:26:44.447Z</time>
      </trkpt>
      <trkpt lat="44.26387" lon="2.51165">
        <ele>680</ele>
        <time>2022-06-12T10:26:45.447Z</time>
      </trkpt>
      <trkpt lat="44.26386" lon="2.51164">
        <ele>680</ele>
        <time>2022-06-12T10:26:46.447Z</time>
      </trkpt>
      <trkpt lat="44.26385" lon="2.51163">
        <ele>680</ele>
        <time>2022-06-12T10:26:47.447Z</time>
      </trkpt>
      <trkpt lat="44.26384" lon="2.51162">
        <ele>680</ele>
        <time>2022-06-12T10:26:48.447Z</time>
      </trkpt>
      <trkpt lat="44.26383" lon="2.51161">
        <ele>680</ele>
        <time>2022-06-12T10:26:49.447Z</time>
      </trkpt>
      <trkpt lat="44.26382" lon="2.5116">
        <ele>680</ele>
        <time>2022-06-12T10:26:50.447Z</time>
      </trkpt>
      <trkpt lat="44.26381" lon="2.51159">
        <ele>679</ele>
        <time>2022-06-12T10:26:51.447Z</time>
      </trkpt>
      <trkpt lat="44.2638" lon="2.51158">
        <ele>679</ele>
        <time>2022-06-12T10:26:52.447Z</time>
      </trkpt>
      <trkpt lat="44.26379" lon="2.51157">
        <ele>679</ele>
        <time>2022-06-12T10:26:53.447Z</time>
      </trkpt>
      <trkpt lat="44.26378" lon="2.51156">
        <ele>679</ele>
        <time>2022-06-12T10:26:54.447Z</time>
      </trkpt>
      <trkpt lat="44.26377" lon="2.51156">
        <ele>679</ele>
        <time>2022-06-12T10:26:55.447Z</time>
      </trkpt>
      <trkpt lat="44.26376" lon="2.51155">
        <ele>679</ele>
        <time>2022-06-12T10:26:56.447Z</time>
      </trkpt>
      <trkpt lat="44.26375" lon="2.51154">
        <ele>679</ele>
        <time>2022-06-12T10:26:57.447Z</time>
      </trkpt>
      <trkpt lat="44.26374" lon="2.51154">
        <ele>679</ele>
        <time>2022-06-12T10:26:58.447Z</time>
      </trkpt>
      <trkpt lat="44.26373" lon="2.51153">
        <ele>679</ele>
        <time>2022-06-12T10:26:59.447Z</time>
      </trkpt>
      <trkpt lat="44.26372" lon="2.51152">
        <ele>679</ele>
        <time>2022-06-12T10:27:00.447Z</time>
      </trkpt>
      <trkpt lat="44.26371" lon="2.51151">
        <ele>679</ele>
        <time>2022-06-12T10:27:01.447Z</time>
      </trkpt>
      <trkpt lat="44.2637" lon="2.51151">
        <ele>679</ele>
        <time>2022-06-12T10:27:02.447Z</time>
      </trkpt>
      <trkpt lat="44.26369" lon="2.5115">
        <ele>679</ele>
        <time>2022-06-12T10:27:03.447Z</time>
      </trkpt>
      <trkpt lat="44.26369" lon="2.5115">
        <ele>679</ele>
        <time>2022-06-12T10:27:04.447Z</time>
      </trkpt>
      <trkpt lat="44.26369" lon="2.5115">
        <ele>679</ele>
        <time>2022-06-12T10:27:05.447Z</time>
      </trkpt>
      <trkpt lat="44.26369" lon="2.5115">
        <ele>679</ele>
        <time>2022-06-12T10:27:06.447Z</time>
      </trkpt>
      <trkpt lat="44.26368" lon="2.51149">
        <ele>679</ele>
        <time>2022-06-12T10:27:17.452Z</time>
      </trkpt>
      <trkpt lat="44.26367" lon="2.51149">
        <ele>678</ele>
        <time>2022-06-12T10:27:18.452Z</time>
      </trkpt>
      <trkpt lat="44.26366" lon="2.51148">
        <ele>678</ele>
        <time>2022-06-12T10:27:19.452Z</time>
      </trkpt>
      <trkpt lat="44.26364" lon="2.51148">
        <ele>678</ele>
        <time>2022-06-12T10:27:20.452Z</time>
      </trkpt>
      <trkpt lat="44.26363" lon="2.51147">
        <ele>678</ele>
        <time>2022-06-12T10:27:21.452Z</time>
      </trkpt>
      <trkpt lat="44.26362" lon="2.51146">
        <ele>678</ele>
        <time>2022-06-12T10:27:22.452Z</time>
      </trkpt>
      <trkpt lat="44.2636" lon="2.51145">
        <ele>678</ele>
        <time>2022-06-12T10:27:23.452Z</time>
      </trkpt>
      <trkpt lat="44.26359" lon="2.51144">
        <ele>678</ele>
        <time>2022-06-12T10:27:24.452Z</time>
      </trkpt>
      <trkpt lat="44.26358" lon="2.51143">
        <ele>678</ele>
        <time>2022-06-12T10:27:25.452Z</time>
      </trkpt>
      <trkpt lat="44.26357" lon="2.51143">
        <ele>678</ele>
        <time>2022-06-12T10:27:26.452Z</time>
      </trkpt>
      <trkpt lat="44.26356" lon="2.51142">
        <ele>677</ele>
        <time>2022-06-12T10:27:27.452Z</time>
      </trkpt>
      <trkpt lat="44.26355" lon="2.51142">
        <ele>677</ele>
        <time>2022-06-12T10:27:28.452Z</time>
      </trkpt>
      <trkpt lat="44.26354" lon="2.51142">
        <ele>677</ele>
        <time>2022-06-12T10:27:29.452Z</time>
      </trkpt>
      <trkpt lat="44.26353" lon="2.51142">
        <ele>677</ele>
        <time>2022-06-12T10:27:30.452Z</time>
      </trkpt>
      <trkpt lat="44.26352" lon="2.51141">
        <ele>677</ele>
        <time>2022-06-12T10:27:31.452Z</time>
      </trkpt>
      <trkpt lat="44.26352" lon="2.51141">
        <ele>677</ele>
        <time>2022-06-12T10:27:32.452Z</time>
      </trkpt>
      <trkpt lat="44.26351" lon="2.5114">
        <ele>677</ele>
        <time>2022-06-12T10:27:33.452Z</time>
      </trkpt>
      <trkpt lat="44.2635" lon="2.51139">
        <ele>677</ele>
        <time>2022-06-12T10:27:34.452Z</time>
      </trkpt>
      <trkpt lat="44.26349" lon="2.51139">
        <ele>677</ele>
        <time>2022-06-12T10:27:35.452Z</time>
      </trkpt>
      <trkpt lat="44.26348" lon="2.51138">
        <ele>677</ele>
        <time>2022-06-12T10:27:36.452Z</time>
      </trkpt>
      <trkpt lat="44.26347" lon="2.51138">
        <ele>677</ele>
        <time>2022-06-12T10:27:37.452Z</time>
      </trkpt>
      <trkpt lat="44.26347" lon="2.51137">
        <ele>677</ele>
        <time>2022-06-12T10:27:38.452Z</time>
      </trkpt>
      <trkpt lat="44.26346" lon="2.51137">
        <ele>677</ele>
        <time>2022-06-12T10:27:39.452Z</time>
      </trkpt>
      <trkpt lat="44.26345" lon="2.51137">
        <ele>677</ele>
        <time>2022-06-12T10:27:40.452Z</time>
      </trkpt>
      <trkpt lat="44.26344" lon="2.51136">
        <ele>677</ele>
        <time>2022-06-12T10:27:41.452Z</time>
      </trkpt>
      <trkpt lat="44.26344" lon="2.51136">
        <ele>676</ele>
        <time>2022-06-12T10:27:42.452Z</time>
      </trkpt>
      <trkpt lat="44.26343" lon="2.51135">
        <ele>676</ele>
        <time>2022-06-12T10:27:43.452Z</time>
      </trkpt>
      <trkpt lat="44.26342" lon="2.51135">
        <ele>676</ele>
        <time>2022-06-12T10:27:44.452Z</time>
      </trkpt>
      <trkpt lat="44.26342" lon="2.51134">
        <ele>676</ele>
        <time>2022-06-12T10:27:45.452Z</time>
      </trkpt>
      <trkpt lat="44.26341" lon="2.51134">
        <ele>676</ele>
        <time>2022-06-12T10:27:46.452Z</time>
      </trkpt>
      <trkpt lat="44.2634" lon="2.51134">
        <ele>676</ele>
        <time>2022-06-12T10:27:47.452Z</time>
      </trkpt>
      <trkpt lat="44.2634" lon="2.51133">
        <ele>676</ele>
        <time>2022-06-12T10:27:48.452Z</time>
      </trkpt>
      <trkpt lat="44.26339" lon="2.51133">
        <ele>676</ele>
        <time>2022-06-12T10:27:49.452Z</time>
      </trkpt>
      <trkpt lat="44.26338" lon="2.51133">
        <ele>676</ele>
        <time>2022-06-12T10:27:50.452Z</time>
      </trkpt>
      <trkpt lat="44.26337" lon="2.51132">
        <ele>675</ele>
        <time>2022-06-12T10:27:51.452Z</time>
      </trkpt>
      <trkpt lat="44.26337" lon="2.51132">
        <ele>675</ele>
        <time>2022-06-12T10:27:52.452Z</time>
      </trkpt>
      <trkpt lat="44.26336" lon="2.51131">
        <ele>675</ele>
        <time>2022-06-12T10:27:53.452Z</time>
      </trkpt>
      <trkpt lat="44.26335" lon="2.51131">
        <ele>675</ele>
        <time>2022-06-12T10:27:54.452Z</time>
      </trkpt>
      <trkpt lat="44.26334" lon="2.51131">
        <ele>675</ele>
        <time>2022-06-12T10:27:55.452Z</time>
      </trkpt>
      <trkpt lat="44.26334" lon="2.5113">
        <ele>675</ele>
        <time>2022-06-12T10:27:56.452Z</time>
      </trkpt>
      <trkpt lat="44.26332" lon="2.51129">
        <ele>675</ele>
        <time>2022-06-12T10:27:57.452Z</time>
      </trkpt>
      <trkpt lat="44.26331" lon="2.51129">
        <ele>675</ele>
        <time>2022-06-12T10:27:58.452Z</time>
      </trkpt>
      <trkpt lat="44.2633" lon="2.51128">
        <ele>675</ele>
        <time>2022-06-12T10:27:59.452Z</time>
      </trkpt>
      <trkpt lat="44.26329" lon="2.51128">
        <ele>675</ele>
        <time>2022-06-12T10:28:00.452Z</time>
      </trkpt>
      <trkpt lat="44.26328" lon="2.51127">
        <ele>675</ele>
        <time>2022-06-12T10:28:01.452Z</time>
      </trkpt>
      <trkpt lat="44.26327" lon="2.51127">
        <ele>675</ele>
        <time>2022-06-12T10:28:02.452Z</time>
      </trkpt>
      <trkpt lat="44.26326" lon="2.51127">
        <ele>675</ele>
        <time>2022-06-12T10:28:03.452Z</time>
      </trkpt>
      <trkpt lat="44.26325" lon="2.51126">
        <ele>675</ele>
        <time>2022-06-12T10:28:04.452Z</time>
      </trkpt>
      <trkpt lat="44.26324" lon="2.51126">
        <ele>675</ele>
        <time>2022-06-12T10:28:05.452Z</time>
      </trkpt>
      <trkpt lat="44.26323" lon="2.51125">
        <ele>675</ele>
        <time>2022-06-12T10:28:06.452Z</time>
      </trkpt>
      <trkpt lat="44.26322" lon="2.51125">
        <ele>676</ele>
        <time>2022-06-12T10:28:07.452Z</time>
      </trkpt>
      <trkpt lat="44.26321" lon="2.51125">
        <ele>676</ele>
        <time>2022-06-12T10:28:08.452Z</time>
      </trkpt>
      <trkpt lat="44.2632" lon="2.51124">
        <ele>676</ele>
        <time>2022-06-12T10:28:09.452Z</time>
      </trkpt>
      <trkpt lat="44.26319" lon="2.51124">
        <ele>676</ele>
        <time>2022-06-12T10:28:10.452Z</time>
      </trkpt>
      <trkpt lat="44.26318" lon="2.51123">
        <ele>676</ele>
        <time>2022-06-12T10:28:11.452Z</time>
      </trkpt>
      <trkpt lat="44.26317" lon="2.51123">
        <ele>676</ele>
        <time>2022-06-12T10:28:12.452Z</time>
      </trkpt>
      <trkpt lat="44.26316" lon="2.51122">
        <ele>676</ele>
        <time>2022-06-12T10:28:13.452Z</time>
      </trkpt>
      <trkpt lat="44.26315" lon="2.51121">
        <ele>676</ele>
        <time>2022-06-12T10:28:14.452Z</time>
      </trkpt>
      <trkpt lat="44.26314" lon="2.51121">
        <ele>676</ele>
        <time>2022-06-12T10:28:15.452Z</time>
      </trkpt>
      <trkpt lat="44.26313" lon="2.5112">
        <ele>675</ele>
        <time>2022-06-12T10:28:16.452Z</time>
      </trkpt>
      <trkpt lat="44.26312" lon="2.51119">
        <ele>675</ele>
        <time>2022-06-12T10:28:17.452Z</time>
      </trkpt>
      <trkpt lat="44.26311" lon="2.51119">
        <ele>675</ele>
        <time>2022-06-12T10:28:18.452Z</time>
      </trkpt>
      <trkpt lat="44.2631" lon="2.51118">
        <ele>675</ele>
        <time>2022-06-12T10:28:19.452Z</time>
      </trkpt>
      <trkpt lat="44.26309" lon="2.51117">
        <ele>675</ele>
        <time>2022-06-12T10:28:20.452Z</time>
      </trkpt>
      <trkpt lat="44.26308" lon="2.51115">
        <ele>675</ele>
        <time>2022-06-12T10:28:21.452Z</time>
      </trkpt>
      <trkpt lat="44.26307" lon="2.51114">
        <ele>674</ele>
        <time>2022-06-12T10:28:22.452Z</time>
      </trkpt>
      <trkpt lat="44.26306" lon="2.51113">
        <ele>674</ele>
        <time>2022-06-12T10:28:23.452Z</time>
      </trkpt>
      <trkpt lat="44.26306" lon="2.51112">
        <ele>674</ele>
        <time>2022-06-12T10:28:24.452Z</time>
      </trkpt>
      <trkpt lat="44.26305" lon="2.51111">
        <ele>673</ele>
        <time>2022-06-12T10:28:25.452Z</time>
      </trkpt>
      <trkpt lat="44.26304" lon="2.5111">
        <ele>673</ele>
        <time>2022-06-12T10:28:26.452Z</time>
      </trkpt>
      <trkpt lat="44.26303" lon="2.51109">
        <ele>673</ele>
        <time>2022-06-12T10:28:27.452Z</time>
      </trkpt>
      <trkpt lat="44.26303" lon="2.51109">
        <ele>673</ele>
        <time>2022-06-12T10:28:28.452Z</time>
      </trkpt>
      <trkpt lat="44.26302" lon="2.51108">
        <ele>673</ele>
        <time>2022-06-12T10:28:29.452Z</time>
      </trkpt>
      <trkpt lat="44.26301" lon="2.51107">
        <ele>672</ele>
        <time>2022-06-12T10:28:30.452Z</time>
      </trkpt>
      <trkpt lat="44.263" lon="2.51106">
        <ele>672</ele>
        <time>2022-06-12T10:28:31.452Z</time>
      </trkpt>
      <trkpt lat="44.26299" lon="2.51106">
        <ele>672</ele>
        <time>2022-06-12T10:28:32.452Z</time>
      </trkpt>
      <trkpt lat="44.26299" lon="2.51105">
        <ele>672</ele>
        <time>2022-06-12T10:28:33.452Z</time>
      </trkpt>
      <trkpt lat="44.26298" lon="2.51105">
        <ele>672</ele>
        <time>2022-06-12T10:28:34.452Z</time>
      </trkpt>
      <trkpt lat="44.26297" lon="2.51104">
        <ele>672</ele>
        <time>2022-06-12T10:28:35.452Z</time>
      </trkpt>
      <trkpt lat="44.26296" lon="2.51104">
        <ele>671</ele>
        <time>2022-06-12T10:28:36.452Z</time>
      </trkpt>
      <trkpt lat="44.26295" lon="2.51103">
        <ele>671</ele>
        <time>2022-06-12T10:28:37.452Z</time>
      </trkpt>
      <trkpt lat="44.26295" lon="2.51103">
        <ele>671</ele>
        <time>2022-06-12T10:28:38.452Z</time>
      </trkpt>
      <trkpt lat="44.26294" lon="2.51102">
        <ele>671</ele>
        <time>2022-06-12T10:28:39.452Z</time>
      </trkpt>
      <trkpt lat="44.26293" lon="2.51102">
        <ele>671</ele>
        <time>2022-06-12T10:28:40.452Z</time>
      </trkpt>
      <trkpt lat="44.26292" lon="2.51102">
        <ele>671</ele>
        <time>2022-06-12T10:28:41.452Z</time>
      </trkpt>
      <trkpt lat="44.26292" lon="2.51101">
        <ele>671</ele>
        <time>2022-06-12T10:28:42.452Z</time>
      </trkpt>
      <trkpt lat="44.26291" lon="2.51101">
        <ele>671</ele>
        <time>2022-06-12T10:28:43.452Z</time>
      </trkpt>
      <trkpt lat="44.2629" lon="2.51101">
        <ele>671</ele>
        <time>2022-06-12T10:28:44.452Z</time>
      </trkpt>
      <trkpt lat="44.2629" lon="2.51101">
        <ele>671</ele>
        <time>2022-06-12T10:28:45.452Z</time>
      </trkpt>
      <trkpt lat="44.26289" lon="2.511">
        <ele>671</ele>
        <time>2022-06-12T10:28:46.452Z</time>
      </trkpt>
      <trkpt lat="44.26289" lon="2.511">
        <ele>670</ele>
        <time>2022-06-12T10:28:47.452Z</time>
      </trkpt>
      <trkpt lat="44.26288" lon="2.51099">
        <ele>670</ele>
        <time>2022-06-12T10:28:48.452Z</time>
      </trkpt>
      <trkpt lat="44.26288" lon="2.51099">
        <ele>670</ele>
        <time>2022-06-12T10:28:49.452Z</time>
      </trkpt>
      <trkpt lat="44.26288" lon="2.51099">
        <ele>670</ele>
        <time>2022-06-12T10:28:50.452Z</time>
      </trkpt>
      <trkpt lat="44.26287" lon="2.51098">
        <ele>670</ele>
        <time>2022-06-12T10:28:51.452Z</time>
      </trkpt>
      <trkpt lat="44.26286" lon="2.51098">
        <ele>670</ele>
        <time>2022-06-12T10:28:52.452Z</time>
      </trkpt>
      <trkpt lat="44.26285" lon="2.51097">
        <ele>670</ele>
        <time>2022-06-12T10:28:53.452Z</time>
      </trkpt>
      <trkpt lat="44.26284" lon="2.51097">
        <ele>670</ele>
        <time>2022-06-12T10:28:54.452Z</time>
      </trkpt>
      <trkpt lat="44.26284" lon="2.51097">
        <ele>670</ele>
        <time>2022-06-12T10:28:55.452Z</time>
      </trkpt>
      <trkpt lat="44.26283" lon="2.51096">
        <ele>669</ele>
        <time>2022-06-12T10:28:56.452Z</time>
      </trkpt>
      <trkpt lat="44.26282" lon="2.51095">
        <ele>669</ele>
        <time>2022-06-12T10:28:57.452Z</time>
      </trkpt>
      <trkpt lat="44.26281" lon="2.51095">
        <ele>669</ele>
        <time>2022-06-12T10:28:58.452Z</time>
      </trkpt>
      <trkpt lat="44.26281" lon="2.51094">
        <ele>669</ele>
        <time>2022-06-12T10:28:59.452Z</time>
      </trkpt>
      <trkpt lat="44.2628" lon="2.51094">
        <ele>669</ele>
        <time>2022-06-12T10:29:00.452Z</time>
      </trkpt>
      <trkpt lat="44.26279" lon="2.51093">
        <ele>669</ele>
        <time>2022-06-12T10:29:01.452Z</time>
      </trkpt>
      <trkpt lat="44.26278" lon="2.51093">
        <ele>669</ele>
        <time>2022-06-12T10:29:02.452Z</time>
      </trkpt>
      <trkpt lat="44.26277" lon="2.51092">
        <ele>669</ele>
        <time>2022-06-12T10:29:03.452Z</time>
      </trkpt>
      <trkpt lat="44.26276" lon="2.51091">
        <ele>669</ele>
        <time>2022-06-12T10:29:04.452Z</time>
      </trkpt>
      <trkpt lat="44.26275" lon="2.51091">
        <ele>669</ele>
        <time>2022-06-12T10:29:05.452Z</time>
      </trkpt>
      <trkpt lat="44.26275" lon="2.5109">
        <ele>668</ele>
        <time>2022-06-12T10:29:06.452Z</time>
      </trkpt>
      <trkpt lat="44.26274" lon="2.51089">
        <ele>668</ele>
        <time>2022-06-12T10:29:07.452Z</time>
      </trkpt>
      <trkpt lat="44.26273" lon="2.51089">
        <ele>668</ele>
        <time>2022-06-12T10:29:08.452Z</time>
      </trkpt>
      <trkpt lat="44.26272" lon="2.51088">
        <ele>668</ele>
        <time>2022-06-12T10:29:09.452Z</time>
      </trkpt>
      <trkpt lat="44.26271" lon="2.51087">
        <ele>668</ele>
        <time>2022-06-12T10:29:10.452Z</time>
      </trkpt>
      <trkpt lat="44.2627" lon="2.51087">
        <ele>668</ele>
        <time>2022-06-12T10:29:11.452Z</time>
      </trkpt>
      <trkpt lat="44.26269" lon="2.51086">
        <ele>668</ele>
        <time>2022-06-12T10:29:12.452Z</time>
      </trkpt>
      <trkpt lat="44.26268" lon="2.51086">
        <ele>667</ele>
        <time>2022-06-12T10:29:13.452Z</time>
      </trkpt>
      <trkpt lat="44.26267" lon="2.51085">
        <ele>667</ele>
        <time>2022-06-12T10:29:14.452Z</time>
      </trkpt>
      <trkpt lat="44.26266" lon="2.51085">
        <ele>667</ele>
        <time>2022-06-12T10:29:15.452Z</time>
      </trkpt>
      <trkpt lat="44.26265" lon="2.51084">
        <ele>667</ele>
        <time>2022-06-12T10:29:16.452Z</time>
      </trkpt>
      <trkpt lat="44.26264" lon="2.51084">
        <ele>667</ele>
        <time>2022-06-12T10:29:17.452Z</time>
      </trkpt>
      <trkpt lat="44.26263" lon="2.51084">
        <ele>666</ele>
        <time>2022-06-12T10:29:18.452Z</time>
      </trkpt>
      <trkpt lat="44.26263" lon="2.51083">
        <ele>666</ele>
        <time>2022-06-12T10:29:19.452Z</time>
      </trkpt>
      <trkpt lat="44.26262" lon="2.51083">
        <ele>666</ele>
        <time>2022-06-12T10:29:20.452Z</time>
      </trkpt>
      <trkpt lat="44.26261" lon="2.51082">
        <ele>666</ele>
        <time>2022-06-12T10:29:21.452Z</time>
      </trkpt>
      <trkpt lat="44.2626" lon="2.51082">
        <ele>666</ele>
        <time>2022-06-12T10:29:22.452Z</time>
      </trkpt>
      <trkpt lat="44.26259" lon="2.51081">
        <ele>666</ele>
        <time>2022-06-12T10:29:23.452Z</time>
      </trkpt>
      <trkpt lat="44.26259" lon="2.51081">
        <ele>665</ele>
        <time>2022-06-12T10:29:24.452Z</time>
      </trkpt>
      <trkpt lat="44.26258" lon="2.51081">
        <ele>665</ele>
        <time>2022-06-12T10:29:25.452Z</time>
      </trkpt>
      <trkpt lat="44.26258" lon="2.5108">
        <ele>665</ele>
        <time>2022-06-12T10:29:26.452Z</time>
      </trkpt>
      <trkpt lat="44.26257" lon="2.5108">
        <ele>665</ele>
        <time>2022-06-12T10:29:27.452Z</time>
      </trkpt>
      <trkpt lat="44.26256" lon="2.51079">
        <ele>665</ele>
        <time>2022-06-12T10:29:28.452Z</time>
      </trkpt>
      <trkpt lat="44.26255" lon="2.51079">
        <ele>665</ele>
        <time>2022-06-12T10:29:29.452Z</time>
      </trkpt>
      <trkpt lat="44.26254" lon="2.51078">
        <ele>664</ele>
        <time>2022-06-12T10:29:30.452Z</time>
      </trkpt>
      <trkpt lat="44.26253" lon="2.51078">
        <ele>664</ele>
        <time>2022-06-12T10:29:31.452Z</time>
      </trkpt>
      <trkpt lat="44.26251" lon="2.51077">
        <ele>664</ele>
        <time>2022-06-12T10:29:32.452Z</time>
      </trkpt>
      <trkpt lat="44.2625" lon="2.51076">
        <ele>664</ele>
        <time>2022-06-12T10:29:33.452Z</time>
      </trkpt>
      <trkpt lat="44.26249" lon="2.51076">
        <ele>663</ele>
        <time>2022-06-12T10:29:34.452Z</time>
      </trkpt>
      <trkpt lat="44.26248" lon="2.51076">
        <ele>663</ele>
        <time>2022-06-12T10:29:35.452Z</time>
      </trkpt>
      <trkpt lat="44.26247" lon="2.51076">
        <ele>663</ele>
        <time>2022-06-12T10:29:36.452Z</time>
      </trkpt>
      <trkpt lat="44.26246" lon="2.51075">
        <ele>663</ele>
        <time>2022-06-12T10:29:37.452Z</time>
      </trkpt>
      <trkpt lat="44.26245" lon="2.51075">
        <ele>662</ele>
        <time>2022-06-12T10:29:38.452Z</time>
      </trkpt>
      <trkpt lat="44.26244" lon="2.51075">
        <ele>662</ele>
        <time>2022-06-12T10:29:39.452Z</time>
      </trkpt>
      <trkpt lat="44.26243" lon="2.51075">
        <ele>662</ele>
        <time>2022-06-12T10:29:40.452Z</time>
      </trkpt>
      <trkpt lat="44.26242" lon="2.51075">
        <ele>662</ele>
        <time>2022-06-12T10:29:41.452Z</time>
      </trkpt>
      <trkpt lat="44.26241" lon="2.51075">
        <ele>661</ele>
        <time>2022-06-12T10:29:42.452Z</time>
      </trkpt>
      <trkpt lat="44.26241" lon="2.51075">
        <ele>661</ele>
        <time>2022-06-12T10:29:43.452Z</time>
      </trkpt>
      <trkpt lat="44.2624" lon="2.51075">
        <ele>661</ele>
        <time>2022-06-12T10:29:44.452Z</time>
      </trkpt>
      <trkpt lat="44.26239" lon="2.51075">
        <ele>661</ele>
        <time>2022-06-12T10:29:45.452Z</time>
      </trkpt>
      <trkpt lat="44.26238" lon="2.51075">
        <ele>661</ele>
        <time>2022-06-12T10:29:46.452Z</time>
      </trkpt>
      <trkpt lat="44.26237" lon="2.51075">
        <ele>661</ele>
        <time>2022-06-12T10:29:47.452Z</time>
      </trkpt>
      <trkpt lat="44.26236" lon="2.51075">
        <ele>660</ele>
        <time>2022-06-12T10:29:48.452Z</time>
      </trkpt>
      <trkpt lat="44.26235" lon="2.51075">
        <ele>660</ele>
        <time>2022-06-12T10:29:49.452Z</time>
      </trkpt>
      <trkpt lat="44.26235" lon="2.51075">
        <ele>660</ele>
        <time>2022-06-12T10:29:50.452Z</time>
      </trkpt>
      <trkpt lat="44.26234" lon="2.51075">
        <ele>660</ele>
        <time>2022-06-12T10:29:51.452Z</time>
      </trkpt>
      <trkpt lat="44.26234" lon="2.51076">
        <ele>660</ele>
        <time>2022-06-12T10:29:52.452Z</time>
      </trkpt>
      <trkpt lat="44.26233" lon="2.51076">
        <ele>660</ele>
        <time>2022-06-12T10:29:53.452Z</time>
      </trkpt>
      <trkpt lat="44.26233" lon="2.51075">
        <ele>660</ele>
        <time>2022-06-12T10:29:54.452Z</time>
      </trkpt>
      <trkpt lat="44.26232" lon="2.51075">
        <ele>660</ele>
        <time>2022-06-12T10:29:55.452Z</time>
      </trkpt>
      <trkpt lat="44.26231" lon="2.51075">
        <ele>660</ele>
        <time>2022-06-12T10:29:56.452Z</time>
      </trkpt>
      <trkpt lat="44.26231" lon="2.51075">
        <ele>660</ele>
        <time>2022-06-12T10:29:57.452Z</time>
      </trkpt>
      <trkpt lat="44.2623" lon="2.51075">
        <ele>659</ele>
        <time>2022-06-12T10:29:58.452Z</time>
      </trkpt>
      <trkpt lat="44.26229" lon="2.51075">
        <ele>659</ele>
        <time>2022-06-12T10:29:59.452Z</time>
      </trkpt>
      <trkpt lat="44.26229" lon="2.51075">
        <ele>659</ele>
        <time>2022-06-12T10:30:00.452Z</time>
      </trkpt>
      <trkpt lat="44.26228" lon="2.51075">
        <ele>659</ele>
        <time>2022-06-12T10:30:01.452Z</time>
      </trkpt>
      <trkpt lat="44.26226" lon="2.51075">
        <ele>659</ele>
        <time>2022-06-12T10:30:02.452Z</time>
      </trkpt>
      <trkpt lat="44.26226" lon="2.51075">
        <ele>659</ele>
        <time>2022-06-12T10:30:03.452Z</time>
      </trkpt>
      <trkpt lat="44.26225" lon="2.51075">
        <ele>659</ele>
        <time>2022-06-12T10:30:04.452Z</time>
      </trkpt>
      <trkpt lat="44.26224" lon="2.51075">
        <ele>659</ele>
        <time>2022-06-12T10:30:05.452Z</time>
      </trkpt>
      <trkpt lat="44.26223" lon="2.51075">
        <ele>659</ele>
        <time>2022-06-12T10:30:06.452Z</time>
      </trkpt>
      <trkpt lat="44.26222" lon="2.51076">
        <ele>659</ele>
        <time>2022-06-12T10:30:07.452Z</time>
      </trkpt>
      <trkpt lat="44.26221" lon="2.51076">
        <ele>658</ele>
        <time>2022-06-12T10:30:08.452Z</time>
      </trkpt>
      <trkpt lat="44.2622" lon="2.51076">
        <ele>658</ele>
        <time>2022-06-12T10:30:09.452Z</time>
      </trkpt>
      <trkpt lat="44.26219" lon="2.51076">
        <ele>658</ele>
        <time>2022-06-12T10:30:10.452Z</time>
      </trkpt>
      <trkpt lat="44.26218" lon="2.51077">
        <ele>658</ele>
        <time>2022-06-12T10:30:11.452Z</time>
      </trkpt>
      <trkpt lat="44.26217" lon="2.51077">
        <ele>658</ele>
        <time>2022-06-12T10:30:12.452Z</time>
      </trkpt>
      <trkpt lat="44.26216" lon="2.51077">
        <ele>658</ele>
        <time>2022-06-12T10:30:13.452Z</time>
      </trkpt>
      <trkpt lat="44.26216" lon="2.51077">
        <ele>658</ele>
        <time>2022-06-12T10:30:14.452Z</time>
      </trkpt>
      <trkpt lat="44.26215" lon="2.51077">
        <ele>658</ele>
        <time>2022-06-12T10:30:15.452Z</time>
      </trkpt>
      <trkpt lat="44.26214" lon="2.51077">
        <ele>658</ele>
        <time>2022-06-12T10:30:16.452Z</time>
      </trkpt>
      <trkpt lat="44.26214" lon="2.51076">
        <ele>658</ele>
        <time>2022-06-12T10:30:17.452Z</time>
      </trkpt>
      <trkpt lat="44.26214" lon="2.51076">
        <ele>658</ele>
        <time>2022-06-12T10:30:18.452Z</time>
      </trkpt>
      <trkpt lat="44.26211" lon="2.51077">
        <ele>657</ele>
        <time>2022-06-12T10:30:23.460Z</time>
      </trkpt>
      <trkpt lat="44.2621" lon="2.51077">
        <ele>657</ele>
        <time>2022-06-12T10:30:24.460Z</time>
      </trkpt>
      <trkpt lat="44.26209" lon="2.51077">
        <ele>657</ele>
        <time>2022-06-12T10:30:25.460Z</time>
      </trkpt>
      <trkpt lat="44.26208" lon="2.51077">
        <ele>657</ele>
        <time>2022-06-12T10:30:26.460Z</time>
      </trkpt>
      <trkpt lat="44.26207" lon="2.51077">
        <ele>657</ele>
        <time>2022-06-12T10:30:27.460Z</time>
      </trkpt>
      <trkpt lat="44.26206" lon="2.51077">
        <ele>657</ele>
        <time>2022-06-12T10:30:28.460Z</time>
      </trkpt>
      <trkpt lat="44.26206" lon="2.51077">
        <ele>657</ele>
        <time>2022-06-12T10:30:29.460Z</time>
      </trkpt>
      <trkpt lat="44.26205" lon="2.51077">
        <ele>657</ele>
        <time>2022-06-12T10:30:30.460Z</time>
      </trkpt>
      <trkpt lat="44.26205" lon="2.51077">
        <ele>657</ele>
        <time>2022-06-12T10:30:31.460Z</time>
      </trkpt>
      <trkpt lat="44.26204" lon="2.51077">
        <ele>656</ele>
        <time>2022-06-12T10:30:32.460Z</time>
      </trkpt>
      <trkpt lat="44.26203" lon="2.51077">
        <ele>656</ele>
        <time>2022-06-12T10:30:33.460Z</time>
      </trkpt>
      <trkpt lat="44.26202" lon="2.51076">
        <ele>656</ele>
        <time>2022-06-12T10:30:34.460Z</time>
      </trkpt>
      <trkpt lat="44.26201" lon="2.51076">
        <ele>656</ele>
        <time>2022-06-12T10:30:35.460Z</time>
      </trkpt>
      <trkpt lat="44.262" lon="2.51076">
        <ele>656</ele>
        <time>2022-06-12T10:30:36.460Z</time>
      </trkpt>
      <trkpt lat="44.262" lon="2.51076">
        <ele>656</ele>
        <time>2022-06-12T10:30:37.460Z</time>
      </trkpt>
      <trkpt lat="44.26199" lon="2.51076">
        <ele>655</ele>
        <time>2022-06-12T10:30:38.460Z</time>
      </trkpt>
      <trkpt lat="44.26198" lon="2.51076">
        <ele>655</ele>
        <time>2022-06-12T10:30:39.460Z</time>
      </trkpt>
      <trkpt lat="44.26198" lon="2.51076">
        <ele>655</ele>
        <time>2022-06-12T10:30:40.460Z</time>
      </trkpt>
      <trkpt lat="44.26198" lon="2.51076">
        <ele>655</ele>
        <time>2022-06-12T10:30:41.460Z</time>
      </trkpt>
      <trkpt lat="44.26191" lon="2.51075">
        <ele>652</ele>
        <time>2022-06-12T10:32:12.468Z</time>
      </trkpt>
      <trkpt lat="44.26191" lon="2.51075">
        <ele>652</ele>
        <time>2022-06-12T10:32:13.468Z</time>
      </trkpt>
      <trkpt lat="44.2619" lon="2.51076">
        <ele>652</ele>
        <time>2022-06-12T10:32:14.468Z</time>
      </trkpt>
      <trkpt lat="44.2619" lon="2.51076">
        <ele>652</ele>
        <time>2022-06-12T10:32:15.468Z</time>
      </trkpt>
      <trkpt lat="44.26189" lon="2.51076">
        <ele>652</ele>
        <time>2022-06-12T10:32:16.468Z</time>
      </trkpt>
      <trkpt lat="44.26189" lon="2.51076">
        <ele>652</ele>
        <time>2022-06-12T10:32:17.468Z</time>
      </trkpt>
      <trkpt lat="44.26188" lon="2.51077">
        <ele>652</ele>
        <time>2022-06-12T10:32:18.468Z</time>
      </trkpt>
      <trkpt lat="44.26188" lon="2.51077">
        <ele>652</ele>
        <time>2022-06-12T10:32:19.468Z</time>
      </trkpt>
      <trkpt lat="44.26187" lon="2.51077">
        <ele>652</ele>
        <time>2022-06-12T10:32:20.468Z</time>
      </trkpt>
      <trkpt lat="44.26186" lon="2.51078">
        <ele>651</ele>
        <time>2022-06-12T10:32:21.468Z</time>
      </trkpt>
      <trkpt lat="44.26186" lon="2.51079">
        <ele>651</ele>
        <time>2022-06-12T10:32:22.468Z</time>
      </trkpt>
      <trkpt lat="44.26185" lon="2.5108">
        <ele>651</ele>
        <time>2022-06-12T10:32:23.468Z</time>
      </trkpt>
      <trkpt lat="44.26184" lon="2.5108">
        <ele>651</ele>
        <time>2022-06-12T10:32:24.468Z</time>
      </trkpt>
      <trkpt lat="44.26184" lon="2.51081">
        <ele>651</ele>
        <time>2022-06-12T10:32:25.468Z</time>
      </trkpt>
      <trkpt lat="44.26183" lon="2.51081">
        <ele>651</ele>
        <time>2022-06-12T10:32:26.468Z</time>
      </trkpt>
      <trkpt lat="44.26183" lon="2.51082">
        <ele>651</ele>
        <time>2022-06-12T10:32:27.468Z</time>
      </trkpt>
      <trkpt lat="44.26182" lon="2.51082">
        <ele>651</ele>
        <time>2022-06-12T10:32:28.468Z</time>
      </trkpt>
      <trkpt lat="44.26181" lon="2.51081">
        <ele>651</ele>
        <time>2022-06-12T10:32:29.468Z</time>
      </trkpt>
      <trkpt lat="44.26181" lon="2.51081">
        <ele>651</ele>
        <time>2022-06-12T10:32:30.468Z</time>
      </trkpt>
      <trkpt lat="44.2618" lon="2.51081">
        <ele>651</ele>
        <time>2022-06-12T10:32:31.468Z</time>
      </trkpt>
      <trkpt lat="44.26179" lon="2.5108">
        <ele>651</ele>
        <time>2022-06-12T10:32:32.468Z</time>
      </trkpt>
      <trkpt lat="44.26179" lon="2.5108">
        <ele>651</ele>
        <time>2022-06-12T10:32:33.468Z</time>
      </trkpt>
      <trkpt lat="44.26178" lon="2.5108">
        <ele>651</ele>
        <time>2022-06-12T10:32:34.468Z</time>
      </trkpt>
      <trkpt lat="44.26177" lon="2.5108">
        <ele>651</ele>
        <time>2022-06-12T10:32:35.468Z</time>
      </trkpt>
      <trkpt lat="44.26177" lon="2.51079">
        <ele>650</ele>
        <time>2022-06-12T10:32:36.468Z</time>
      </trkpt>
      <trkpt lat="44.26176" lon="2.51079">
        <ele>650</ele>
        <time>2022-06-12T10:32:37.468Z</time>
      </trkpt>
      <trkpt lat="44.26176" lon="2.51079">
        <ele>650</ele>
        <time>2022-06-12T10:32:38.468Z</time>
      </trkpt>
      <trkpt lat="44.26175" lon="2.51078">
        <ele>650</ele>
        <time>2022-06-12T10:32:39.468Z</time>
      </trkpt>
      <trkpt lat="44.26175" lon="2.51078">
        <ele>650</ele>
        <time>2022-06-12T10:32:40.468Z</time>
      </trkpt>
      <trkpt lat="44.26174" lon="2.51078">
        <ele>650</ele>
        <time>2022-06-12T10:32:41.468Z</time>
      </trkpt>
      <trkpt lat="44.26174" lon="2.51077">
        <ele>650</ele>
        <time>2022-06-12T10:32:42.468Z</time>
      </trkpt>
      <trkpt lat="44.26173" lon="2.51076">
        <ele>650</ele>
        <time>2022-06-12T10:32:43.468Z</time>
      </trkpt>
      <trkpt lat="44.26173" lon="2.51076">
        <ele>650</ele>
        <time>2022-06-12T10:32:44.468Z</time>
      </trkpt>
      <trkpt lat="44.26173" lon="2.51076">
        <ele>650</ele>
        <time>2022-06-12T10:32:45.468Z</time>
      </trkpt>
      <trkpt lat="44.26173" lon="2.51076">
        <ele>650</ele>
        <time>2022-06-12T10:32:46.468Z</time>
      </trkpt>
      <trkpt lat="44.26172" lon="2.51076">
        <ele>650</ele>
        <time>2022-06-12T10:32:47.468Z</time>
      </trkpt>
      <trkpt lat="44.26172" lon="2.51076">
        <ele>649</ele>
        <time>2022-06-12T10:32:48.468Z</time>
      </trkpt>
      <trkpt lat="44.26171" lon="2.51075">
        <ele>649</ele>
        <time>2022-06-12T10:32:49.468Z</time>
      </trkpt>
      <trkpt lat="44.26171" lon="2.51075">
        <ele>649</ele>
        <time>2022-06-12T10:32:50.468Z</time>
      </trkpt>
      <trkpt lat="44.2617" lon="2.51074">
        <ele>649</ele>
        <time>2022-06-12T10:32:51.468Z</time>
      </trkpt>
      <trkpt lat="44.2617" lon="2.51074">
        <ele>649</ele>
        <time>2022-06-12T10:32:52.468Z</time>
      </trkpt>
      <trkpt lat="44.2617" lon="2.51073">
        <ele>649</ele>
        <time>2022-06-12T10:32:53.468Z</time>
      </trkpt>
      <trkpt lat="44.26169" lon="2.51073">
        <ele>649</ele>
        <time>2022-06-12T10:32:54.468Z</time>
      </trkpt>
      <trkpt lat="44.26169" lon="2.51073">
        <ele>649</ele>
        <time>2022-06-12T10:32:55.468Z</time>
      </trkpt>
      <trkpt lat="44.26168" lon="2.51072">
        <ele>649</ele>
        <time>2022-06-12T10:32:56.468Z</time>
      </trkpt>
      <trkpt lat="44.26167" lon="2.51072">
        <ele>648</ele>
        <time>2022-06-12T10:32:57.468Z</time>
      </trkpt>
      <trkpt lat="44.26167" lon="2.51071">
        <ele>648</ele>
        <time>2022-06-12T10:32:58.468Z</time>
      </trkpt>
      <trkpt lat="44.26166" lon="2.51071">
        <ele>648</ele>
        <time>2022-06-12T10:32:59.468Z</time>
      </trkpt>
      <trkpt lat="44.26166" lon="2.5107">
        <ele>648</ele>
        <time>2022-06-12T10:33:00.468Z</time>
      </trkpt>
      <trkpt lat="44.26166" lon="2.5107">
        <ele>648</ele>
        <time>2022-06-12T10:33:01.468Z</time>
      </trkpt>
      <trkpt lat="44.26165" lon="2.51069">
        <ele>648</ele>
        <time>2022-06-12T10:33:02.468Z</time>
      </trkpt>
      <trkpt lat="44.26164" lon="2.51068">
        <ele>648</ele>
        <time>2022-06-12T10:33:03.468Z</time>
      </trkpt>
      <trkpt lat="44.26164" lon="2.51067">
        <ele>648</ele>
        <time>2022-06-12T10:33:04.468Z</time>
      </trkpt>
      <trkpt lat="44.26163" lon="2.51067">
        <ele>648</ele>
        <time>2022-06-12T10:33:05.468Z</time>
      </trkpt>
      <trkpt lat="44.26163" lon="2.51066">
        <ele>647</ele>
        <time>2022-06-12T10:33:06.468Z</time>
      </trkpt>
      <trkpt lat="44.26162" lon="2.51066">
        <ele>647</ele>
        <time>2022-06-12T10:33:07.468Z</time>
      </trkpt>
      <trkpt lat="44.26162" lon="2.51064">
        <ele>647</ele>
        <time>2022-06-12T10:33:08.468Z</time>
      </trkpt>
      <trkpt lat="44.26161" lon="2.51063">
        <ele>647</ele>
        <time>2022-06-12T10:33:09.468Z</time>
      </trkpt>
      <trkpt lat="44.26161" lon="2.51063">
        <ele>647</ele>
        <time>2022-06-12T10:33:10.468Z</time>
      </trkpt>
      <trkpt lat="44.2616" lon="2.51062">
        <ele>647</ele>
        <time>2022-06-12T10:33:11.468Z</time>
      </trkpt>
      <trkpt lat="44.26159" lon="2.51061">
        <ele>646</ele>
        <time>2022-06-12T10:33:12.468Z</time>
      </trkpt>
      <trkpt lat="44.26159" lon="2.51061">
        <ele>646</ele>
        <time>2022-06-12T10:33:13.468Z</time>
      </trkpt>
      <trkpt lat="44.26158" lon="2.51061">
        <ele>646</ele>
        <time>2022-06-12T10:33:14.468Z</time>
      </trkpt>
      <trkpt lat="44.26157" lon="2.51061">
        <ele>646</ele>
        <time>2022-06-12T10:33:15.468Z</time>
      </trkpt>
      <trkpt lat="44.26156" lon="2.51061">
        <ele>646</ele>
        <time>2022-06-12T10:33:16.468Z</time>
      </trkpt>
      <trkpt lat="44.26155" lon="2.51061">
        <ele>646</ele>
        <time>2022-06-12T10:33:17.468Z</time>
      </trkpt>
      <trkpt lat="44.26155" lon="2.51061">
        <ele>645</ele>
        <time>2022-06-12T10:33:18.468Z</time>
      </trkpt>
      <trkpt lat="44.26154" lon="2.51061">
        <ele>645</ele>
        <time>2022-06-12T10:33:19.468Z</time>
      </trkpt>
      <trkpt lat="44.26154" lon="2.51062">
        <ele>645</ele>
        <time>2022-06-12T10:33:20.468Z</time>
      </trkpt>
      <trkpt lat="44.26153" lon="2.51062">
        <ele>645</ele>
        <time>2022-06-12T10:33:21.468Z</time>
      </trkpt>
      <trkpt lat="44.26152" lon="2.51063">
        <ele>645</ele>
        <time>2022-06-12T10:33:22.468Z</time>
      </trkpt>
      <trkpt lat="44.26152" lon="2.51064">
        <ele>645</ele>
        <time>2022-06-12T10:33:23.468Z</time>
      </trkpt>
      <trkpt lat="44.26151" lon="2.51065">
        <ele>645</ele>
        <time>2022-06-12T10:33:24.468Z</time>
      </trkpt>
      <trkpt lat="44.26151" lon="2.51066">
        <ele>645</ele>
        <time>2022-06-12T10:33:25.468Z</time>
      </trkpt>
      <trkpt lat="44.2615" lon="2.51066">
        <ele>645</ele>
        <time>2022-06-12T10:33:26.468Z</time>
      </trkpt>
      <trkpt lat="44.2615" lon="2.51067">
        <ele>645</ele>
        <time>2022-06-12T10:33:27.468Z</time>
      </trkpt>
      <trkpt lat="44.26149" lon="2.51068">
        <ele>645</ele>
        <time>2022-06-12T10:33:28.468Z</time>
      </trkpt>
      <trkpt lat="44.26149" lon="2.5107">
        <ele>645</ele>
        <time>2022-06-12T10:33:29.468Z</time>
      </trkpt>
      <trkpt lat="44.26149" lon="2.51071">
        <ele>645</ele>
        <time>2022-06-12T10:33:30.468Z</time>
      </trkpt>
      <trkpt lat="44.26148" lon="2.51072">
        <ele>645</ele>
        <time>2022-06-12T10:33:31.468Z</time>
      </trkpt>
      <trkpt lat="44.26147" lon="2.51073">
        <ele>645</ele>
        <time>2022-06-12T10:33:32.468Z</time>
      </trkpt>
      <trkpt lat="44.26147" lon="2.51074">
        <ele>645</ele>
        <time>2022-06-12T10:33:33.468Z</time>
      </trkpt>
      <trkpt lat="44.26147" lon="2.51075">
        <ele>644</ele>
        <time>2022-06-12T10:33:34.468Z</time>
      </trkpt>
      <trkpt lat="44.26147" lon="2.51075">
        <ele>644</ele>
        <time>2022-06-12T10:33:35.468Z</time>
      </trkpt>
      <trkpt lat="44.26148" lon="2.51076">
        <ele>644</ele>
        <time>2022-06-12T10:33:36.468Z</time>
      </trkpt>
      <trkpt lat="44.26148" lon="2.51077">
        <ele>644</ele>
        <time>2022-06-12T10:33:37.468Z</time>
      </trkpt>
      <trkpt lat="44.26148" lon="2.51078">
        <ele>644</ele>
        <time>2022-06-12T10:33:38.468Z</time>
      </trkpt>
      <trkpt lat="44.26148" lon="2.51079">
        <ele>644</ele>
        <time>2022-06-12T10:33:39.468Z</time>
      </trkpt>
      <trkpt lat="44.26148" lon="2.51079">
        <ele>644</ele>
        <time>2022-06-12T10:33:40.468Z</time>
      </trkpt>
      <trkpt lat="44.26148" lon="2.5108">
        <ele>644</ele>
        <time>2022-06-12T10:33:41.468Z</time>
      </trkpt>
      <trkpt lat="44.26148" lon="2.51081">
        <ele>644</ele>
        <time>2022-06-12T10:33:42.468Z</time>
      </trkpt>
      <trkpt lat="44.26149" lon="2.51082">
        <ele>644</ele>
        <time>2022-06-12T10:33:43.468Z</time>
      </trkpt>
      <trkpt lat="44.26149" lon="2.51083">
        <ele>644</ele>
        <time>2022-06-12T10:33:44.468Z</time>
      </trkpt>
      <trkpt lat="44.2615" lon="2.51083">
        <ele>644</ele>
        <time>2022-06-12T10:33:45.468Z</time>
      </trkpt>
      <trkpt lat="44.26151" lon="2.51084">
        <ele>644</ele>
        <time>2022-06-12T10:33:46.468Z</time>
      </trkpt>
      <trkpt lat="44.26151" lon="2.51085">
        <ele>644</ele>
        <time>2022-06-12T10:33:47.468Z</time>
      </trkpt>
      <trkpt lat="44.26151" lon="2.51086">
        <ele>644</ele>
        <time>2022-06-12T10:33:48.468Z</time>
      </trkpt>
      <trkpt lat="44.26151" lon="2.51088">
        <ele>644</ele>
        <time>2022-06-12T10:33:49.468Z</time>
      </trkpt>
      <trkpt lat="44.26151" lon="2.51089">
        <ele>644</ele>
        <time>2022-06-12T10:33:50.468Z</time>
      </trkpt>
      <trkpt lat="44.26151" lon="2.5109">
        <ele>644</ele>
        <time>2022-06-12T10:33:51.468Z</time>
      </trkpt>
      <trkpt lat="44.2615" lon="2.5109">
        <ele>644</ele>
        <time>2022-06-12T10:33:52.468Z</time>
      </trkpt>
      <trkpt lat="44.2615" lon="2.51091">
        <ele>644</ele>
        <time>2022-06-12T10:33:53.468Z</time>
      </trkpt>
      <trkpt lat="44.26149" lon="2.51091">
        <ele>644</ele>
        <time>2022-06-12T10:33:54.468Z</time>
      </trkpt>
      <trkpt lat="44.26149" lon="2.51092">
        <ele>644</ele>
        <time>2022-06-12T10:33:55.468Z</time>
      </trkpt>
      <trkpt lat="44.26148" lon="2.51093">
        <ele>644</ele>
        <time>2022-06-12T10:33:56.468Z</time>
      </trkpt>
      <trkpt lat="44.26148" lon="2.51093">
        <ele>644</ele>
        <time>2022-06-12T10:33:57.468Z</time>
      </trkpt>
      <trkpt lat="44.26147" lon="2.51094">
        <ele>644</ele>
        <time>2022-06-12T10:33:58.468Z</time>
      </trkpt>
      <trkpt lat="44.26146" lon="2.51093">
        <ele>644</ele>
        <time>2022-06-12T10:33:59.468Z</time>
      </trkpt>
      <trkpt lat="44.26146" lon="2.51093">
        <ele>644</ele>
        <time>2022-06-12T10:34:00.468Z</time>
      </trkpt>
      <trkpt lat="44.26145" lon="2.51093">
        <ele>644</ele>
        <time>2022-06-12T10:34:01.468Z</time>
      </trkpt>
      <trkpt lat="44.26145" lon="2.51092">
        <ele>644</ele>
        <time>2022-06-12T10:34:02.468Z</time>
      </trkpt>
      <trkpt lat="44.26144" lon="2.51092">
        <ele>644</ele>
        <time>2022-06-12T10:34:03.468Z</time>
      </trkpt>
      <trkpt lat="44.26143" lon="2.51091">
        <ele>644</ele>
        <time>2022-06-12T10:34:04.468Z</time>
      </trkpt>
      <trkpt lat="44.26143" lon="2.51091">
        <ele>644</ele>
        <time>2022-06-12T10:34:05.468Z</time>
      </trkpt>
      <trkpt lat="44.26142" lon="2.5109">
        <ele>644</ele>
        <time>2022-06-12T10:34:06.468Z</time>
      </trkpt>
      <trkpt lat="44.26142" lon="2.5109">
        <ele>644</ele>
        <time>2022-06-12T10:34:07.468Z</time>
      </trkpt>
      <trkpt lat="44.26141" lon="2.51089">
        <ele>644</ele>
        <time>2022-06-12T10:34:08.468Z</time>
      </trkpt>
      <trkpt lat="44.26141" lon="2.51089">
        <ele>644</ele>
        <time>2022-06-12T10:34:09.468Z</time>
      </trkpt>
      <trkpt lat="44.26141" lon="2.51088">
        <ele>644</ele>
        <time>2022-06-12T10:34:10.468Z</time>
      </trkpt>
      <trkpt lat="44.26141" lon="2.51088">
        <ele>644</ele>
        <time>2022-06-12T10:34:11.468Z</time>
      </trkpt>
      <trkpt lat="44.2614" lon="2.51087">
        <ele>644</ele>
        <time>2022-06-12T10:34:12.468Z</time>
      </trkpt>
      <trkpt lat="44.2614" lon="2.51086">
        <ele>644</ele>
        <time>2022-06-12T10:34:13.468Z</time>
      </trkpt>
      <trkpt lat="44.2614" lon="2.51086">
        <ele>644</ele>
        <time>2022-06-12T10:34:14.468Z</time>
      </trkpt>
      <trkpt lat="44.2614" lon="2.51085">
        <ele>643</ele>
        <time>2022-06-12T10:34:15.468Z</time>
      </trkpt>
      <trkpt lat="44.26139" lon="2.51084">
        <ele>643</ele>
        <time>2022-06-12T10:34:16.468Z</time>
      </trkpt>
      <trkpt lat="44.26139" lon="2.51084">
        <ele>643</ele>
        <time>2022-06-12T10:34:17.468Z</time>
      </trkpt>
      <trkpt lat="44.26139" lon="2.51084">
        <ele>643</ele>
        <time>2022-06-12T10:34:18.468Z</time>
      </trkpt>
      <trkpt lat="44.26139" lon="2.51083">
        <ele>643</ele>
        <time>2022-06-12T10:34:19.468Z</time>
      </trkpt>
      <trkpt lat="44.26137" lon="2.51081">
        <ele>644</ele>
        <time>2022-06-12T10:34:26.475Z</time>
      </trkpt>
      <trkpt lat="44.26137" lon="2.51081">
        <ele>644</ele>
        <time>2022-06-12T10:34:27.475Z</time>
      </trkpt>
      <trkpt lat="44.26137" lon="2.51079">
        <ele>644</ele>
        <time>2022-06-12T10:34:30.730Z</time>
      </trkpt>
      <trkpt lat="44.26136" lon="2.51078">
        <ele>644</ele>
        <time>2022-06-12T10:34:31.730Z</time>
      </trkpt>
      <trkpt lat="44.26136" lon="2.51077">
        <ele>644</ele>
        <time>2022-06-12T10:34:32.730Z</time>
      </trkpt>
      <trkpt lat="44.26135" lon="2.51076">
        <ele>644</ele>
        <time>2022-06-12T10:34:33.730Z</time>
      </trkpt>
      <trkpt lat="44.26135" lon="2.51076">
        <ele>644</ele>
        <time>2022-06-12T10:34:34.730Z</time>
      </trkpt>
      <trkpt lat="44.26135" lon="2.51075">
        <ele>644</ele>
        <time>2022-06-12T10:34:35.730Z</time>
      </trkpt>
      <trkpt lat="44.26134" lon="2.51074">
        <ele>644</ele>
        <time>2022-06-12T10:34:36.730Z</time>
      </trkpt>
      <trkpt lat="44.26134" lon="2.51074">
        <ele>644</ele>
        <time>2022-06-12T10:34:37.730Z</time>
      </trkpt>
      <trkpt lat="44.26133" lon="2.51073">
        <ele>644</ele>
        <time>2022-06-12T10:34:38.730Z</time>
      </trkpt>
      <trkpt lat="44.26133" lon="2.51073">
        <ele>644</ele>
        <time>2022-06-12T10:34:39.730Z</time>
      </trkpt>
      <trkpt lat="44.26132" lon="2.51073">
        <ele>644</ele>
        <time>2022-06-12T10:34:40.730Z</time>
      </trkpt>
      <trkpt lat="44.26132" lon="2.51072">
        <ele>644</ele>
        <time>2022-06-12T10:34:41.730Z</time>
      </trkpt>
      <trkpt lat="44.26131" lon="2.51072">
        <ele>645</ele>
        <time>2022-06-12T10:34:42.730Z</time>
      </trkpt>
      <trkpt lat="44.26131" lon="2.51072">
        <ele>645</ele>
        <time>2022-06-12T10:34:43.730Z</time>
      </trkpt>
      <trkpt lat="44.2613" lon="2.51072">
        <ele>645</ele>
        <time>2022-06-12T10:34:44.730Z</time>
      </trkpt>
      <trkpt lat="44.26129" lon="2.51071">
        <ele>645</ele>
        <time>2022-06-12T10:34:45.730Z</time>
      </trkpt>
      <trkpt lat="44.26129" lon="2.51071">
        <ele>645</ele>
        <time>2022-06-12T10:34:46.730Z</time>
      </trkpt>
      <trkpt lat="44.26128" lon="2.51071">
        <ele>646</ele>
        <time>2022-06-12T10:34:47.730Z</time>
      </trkpt>
      <trkpt lat="44.26128" lon="2.5107">
        <ele>646</ele>
        <time>2022-06-12T10:34:48.730Z</time>
      </trkpt>
      <trkpt lat="44.26127" lon="2.5107">
        <ele>646</ele>
        <time>2022-06-12T10:34:49.730Z</time>
      </trkpt>
      <trkpt lat="44.26127" lon="2.51069">
        <ele>646</ele>
        <time>2022-06-12T10:34:50.730Z</time>
      </trkpt>
      <trkpt lat="44.26127" lon="2.51069">
        <ele>646</ele>
        <time>2022-06-12T10:34:51.730Z</time>
      </trkpt>
      <trkpt lat="44.26126" lon="2.51069">
        <ele>646</ele>
        <time>2022-06-12T10:34:52.730Z</time>
      </trkpt>
      <trkpt lat="44.26125" lon="2.51068">
        <ele>646</ele>
        <time>2022-06-12T10:34:53.730Z</time>
      </trkpt>
      <trkpt lat="44.26125" lon="2.51067">
        <ele>646</ele>
        <time>2022-06-12T10:34:54.730Z</time>
      </trkpt>
      <trkpt lat="44.26124" lon="2.51066">
        <ele>646</ele>
        <time>2022-06-12T10:34:55.730Z</time>
      </trkpt>
      <trkpt lat="44.26123" lon="2.51066">
        <ele>646</ele>
        <time>2022-06-12T10:34:56.730Z</time>
      </trkpt>
      <trkpt lat="44.26122" lon="2.51064">
        <ele>646</ele>
        <time>2022-06-12T10:34:57.730Z</time>
      </trkpt>
      <trkpt lat="44.26122" lon="2.51064">
        <ele>646</ele>
        <time>2022-06-12T10:34:58.730Z</time>
      </trkpt>
      <trkpt lat="44.26122" lon="2.51063">
        <ele>646</ele>
        <time>2022-06-12T10:34:59.730Z</time>
      </trkpt>
      <trkpt lat="44.26121" lon="2.51062">
        <ele>646</ele>
        <time>2022-06-12T10:35:00.730Z</time>
      </trkpt>
      <trkpt lat="44.2612" lon="2.51062">
        <ele>646</ele>
        <time>2022-06-12T10:35:01.730Z</time>
      </trkpt>
      <trkpt lat="44.2612" lon="2.51061">
        <ele>646</ele>
        <time>2022-06-12T10:35:02.730Z</time>
      </trkpt>
      <trkpt lat="44.26119" lon="2.5106">
        <ele>646</ele>
        <time>2022-06-12T10:35:03.730Z</time>
      </trkpt>
      <trkpt lat="44.26119" lon="2.5106">
        <ele>646</ele>
        <time>2022-06-12T10:35:04.730Z</time>
      </trkpt>
      <trkpt lat="44.26118" lon="2.51059">
        <ele>646</ele>
        <time>2022-06-12T10:35:05.730Z</time>
      </trkpt>
      <trkpt lat="44.26118" lon="2.51059">
        <ele>646</ele>
        <time>2022-06-12T10:35:06.730Z</time>
      </trkpt>
      <trkpt lat="44.26118" lon="2.51058">
        <ele>646</ele>
        <time>2022-06-12T10:35:07.730Z</time>
      </trkpt>
      <trkpt lat="44.26109" lon="2.51054">
        <ele>644</ele>
        <time>2022-06-12T10:35:25.735Z</time>
      </trkpt>
      <trkpt lat="44.26108" lon="2.51054">
        <ele>644</ele>
        <time>2022-06-12T10:35:26.735Z</time>
      </trkpt>
      <trkpt lat="44.26108" lon="2.51053">
        <ele>644</ele>
        <time>2022-06-12T10:35:27.735Z</time>
      </trkpt>
      <trkpt lat="44.26107" lon="2.51053">
        <ele>644</ele>
        <time>2022-06-12T10:35:28.735Z</time>
      </trkpt>
      <trkpt lat="44.26106" lon="2.51053">
        <ele>644</ele>
        <time>2022-06-12T10:35:29.735Z</time>
      </trkpt>
      <trkpt lat="44.26106" lon="2.51053">
        <ele>644</ele>
        <time>2022-06-12T10:35:30.735Z</time>
      </trkpt>
      <trkpt lat="44.26105" lon="2.51053">
        <ele>644</ele>
        <time>2022-06-12T10:35:31.735Z</time>
      </trkpt>
      <trkpt lat="44.26105" lon="2.51052">
        <ele>644</ele>
        <time>2022-06-12T10:35:32.735Z</time>
      </trkpt>
      <trkpt lat="44.26102" lon="2.5105">
        <ele>644</ele>
        <time>2022-06-12T10:35:35.989Z</time>
      </trkpt>
      <trkpt lat="44.26102" lon="2.51049">
        <ele>644</ele>
        <time>2022-06-12T10:35:36.989Z</time>
      </trkpt>
      <trkpt lat="44.26101" lon="2.51048">
        <ele>644</ele>
        <time>2022-06-12T10:35:37.989Z</time>
      </trkpt>
      <trkpt lat="44.261" lon="2.51048">
        <ele>644</ele>
        <time>2022-06-12T10:35:38.989Z</time>
      </trkpt>
      <trkpt lat="44.261" lon="2.51047">
        <ele>643</ele>
        <time>2022-06-12T10:35:39.989Z</time>
      </trkpt>
      <trkpt lat="44.26099" lon="2.51047">
        <ele>643</ele>
        <time>2022-06-12T10:35:40.989Z</time>
      </trkpt>
      <trkpt lat="44.26099" lon="2.51046">
        <ele>643</ele>
        <time>2022-06-12T10:35:41.989Z</time>
      </trkpt>
      <trkpt lat="44.26098" lon="2.51046">
        <ele>643</ele>
        <time>2022-06-12T10:35:42.989Z</time>
      </trkpt>
      <trkpt lat="44.26097" lon="2.51045">
        <ele>643</ele>
        <time>2022-06-12T10:35:43.989Z</time>
      </trkpt>
      <trkpt lat="44.26097" lon="2.51045">
        <ele>643</ele>
        <time>2022-06-12T10:35:44.989Z</time>
      </trkpt>
      <trkpt lat="44.26096" lon="2.51044">
        <ele>643</ele>
        <time>2022-06-12T10:35:45.989Z</time>
      </trkpt>
      <trkpt lat="44.26096" lon="2.51044">
        <ele>643</ele>
        <time>2022-06-12T10:35:46.989Z</time>
      </trkpt>
      <trkpt lat="44.26095" lon="2.51044">
        <ele>643</ele>
        <time>2022-06-12T10:35:47.989Z</time>
      </trkpt>
      <trkpt lat="44.26094" lon="2.51043">
        <ele>643</ele>
        <time>2022-06-12T10:35:48.989Z</time>
      </trkpt>
      <trkpt lat="44.26094" lon="2.51042">
        <ele>643</ele>
        <time>2022-06-12T10:35:49.989Z</time>
      </trkpt>
      <trkpt lat="44.26093" lon="2.51042">
        <ele>643</ele>
        <time>2022-06-12T10:35:50.989Z</time>
      </trkpt>
      <trkpt lat="44.26093" lon="2.51041">
        <ele>643</ele>
        <time>2022-06-12T10:35:51.989Z</time>
      </trkpt>
      <trkpt lat="44.26092" lon="2.5104">
        <ele>643</ele>
        <time>2022-06-12T10:35:52.989Z</time>
      </trkpt>
      <trkpt lat="44.26091" lon="2.5104">
        <ele>643</ele>
        <time>2022-06-12T10:35:53.989Z</time>
      </trkpt>
      <trkpt lat="44.26091" lon="2.51039">
        <ele>643</ele>
        <time>2022-06-12T10:35:54.989Z</time>
      </trkpt>
      <trkpt lat="44.26091" lon="2.51039">
        <ele>643</ele>
        <time>2022-06-12T10:35:55.989Z</time>
      </trkpt>
      <trkpt lat="44.26091" lon="2.51039">
        <ele>643</ele>
        <time>2022-06-12T10:35:56.989Z</time>
      </trkpt>
      <trkpt lat="44.26091" lon="2.51039">
        <ele>643</ele>
        <time>2022-06-12T10:35:57.989Z</time>
      </trkpt>
      <trkpt lat="44.26089" lon="2.51038">
        <ele>643</ele>
        <time>2022-06-12T10:36:03.995Z</time>
      </trkpt>
      <trkpt lat="44.26088" lon="2.51038">
        <ele>643</ele>
        <time>2022-06-12T10:36:04.995Z</time>
      </trkpt>
      <trkpt lat="44.26087" lon="2.51037">
        <ele>643</ele>
        <time>2022-06-12T10:36:05.995Z</time>
      </trkpt>
      <trkpt lat="44.26087" lon="2.51037">
        <ele>643</ele>
        <time>2022-06-12T10:36:06.995Z</time>
      </trkpt>
      <trkpt lat="44.26086" lon="2.51037">
        <ele>643</ele>
        <time>2022-06-12T10:36:07.995Z</time>
      </trkpt>
      <trkpt lat="44.26086" lon="2.51036">
        <ele>643</ele>
        <time>2022-06-12T10:36:08.995Z</time>
      </trkpt>
      <trkpt lat="44.26085" lon="2.51036">
        <ele>643</ele>
        <time>2022-06-12T10:36:09.995Z</time>
      </trkpt>
      <trkpt lat="44.26085" lon="2.51036">
        <ele>643</ele>
        <time>2022-06-12T10:36:10.995Z</time>
      </trkpt>
      <trkpt lat="44.26084" lon="2.51035">
        <ele>643</ele>
        <time>2022-06-12T10:36:11.995Z</time>
      </trkpt>
      <trkpt lat="44.26084" lon="2.51035">
        <ele>643</ele>
        <time>2022-06-12T10:36:12.995Z</time>
      </trkpt>
      <trkpt lat="44.26083" lon="2.51034">
        <ele>643</ele>
        <time>2022-06-12T10:36:13.995Z</time>
      </trkpt>
      <trkpt lat="44.26082" lon="2.51034">
        <ele>643</ele>
        <time>2022-06-12T10:36:14.995Z</time>
      </trkpt>
      <trkpt lat="44.26082" lon="2.51033">
        <ele>643</ele>
        <time>2022-06-12T10:36:15.995Z</time>
      </trkpt>
      <trkpt lat="44.26081" lon="2.51033">
        <ele>643</ele>
        <time>2022-06-12T10:36:16.995Z</time>
      </trkpt>
      <trkpt lat="44.2608" lon="2.51033">
        <ele>643</ele>
        <time>2022-06-12T10:36:17.995Z</time>
      </trkpt>
      <trkpt lat="44.2608" lon="2.51032">
        <ele>643</ele>
        <time>2022-06-12T10:36:18.995Z</time>
      </trkpt>
      <trkpt lat="44.26079" lon="2.51032">
        <ele>643</ele>
        <time>2022-06-12T10:36:19.995Z</time>
      </trkpt>
      <trkpt lat="44.26078" lon="2.51032">
        <ele>643</ele>
        <time>2022-06-12T10:36:20.995Z</time>
      </trkpt>
      <trkpt lat="44.26077" lon="2.51031">
        <ele>643</ele>
        <time>2022-06-12T10:36:21.995Z</time>
      </trkpt>
      <trkpt lat="44.26077" lon="2.51031">
        <ele>643</ele>
        <time>2022-06-12T10:36:22.995Z</time>
      </trkpt>
      <trkpt lat="44.26076" lon="2.51031">
        <ele>643</ele>
        <time>2022-06-12T10:36:23.995Z</time>
      </trkpt>
      <trkpt lat="44.26075" lon="2.5103">
        <ele>643</ele>
        <time>2022-06-12T10:36:24.995Z</time>
      </trkpt>
      <trkpt lat="44.26074" lon="2.5103">
        <ele>643</ele>
        <time>2022-06-12T10:36:25.995Z</time>
      </trkpt>
      <trkpt lat="44.26073" lon="2.5103">
        <ele>643</ele>
        <time>2022-06-12T10:36:26.995Z</time>
      </trkpt>
      <trkpt lat="44.26072" lon="2.51029">
        <ele>643</ele>
        <time>2022-06-12T10:36:27.995Z</time>
      </trkpt>
      <trkpt lat="44.26071" lon="2.51029">
        <ele>643</ele>
        <time>2022-06-12T10:36:28.995Z</time>
      </trkpt>
      <trkpt lat="44.26071" lon="2.51029">
        <ele>642</ele>
        <time>2022-06-12T10:36:29.995Z</time>
      </trkpt>
      <trkpt lat="44.2607" lon="2.51028">
        <ele>642</ele>
        <time>2022-06-12T10:36:30.995Z</time>
      </trkpt>
      <trkpt lat="44.26069" lon="2.51028">
        <ele>642</ele>
        <time>2022-06-12T10:36:31.995Z</time>
      </trkpt>
      <trkpt lat="44.26068" lon="2.51027">
        <ele>642</ele>
        <time>2022-06-12T10:36:32.995Z</time>
      </trkpt>
      <trkpt lat="44.26067" lon="2.51027">
        <ele>641</ele>
        <time>2022-06-12T10:36:33.995Z</time>
      </trkpt>
      <trkpt lat="44.26066" lon="2.51026">
        <ele>641</ele>
        <time>2022-06-12T10:36:34.995Z</time>
      </trkpt>
      <trkpt lat="44.26064" lon="2.51025">
        <ele>640</ele>
        <time>2022-06-12T10:36:35.995Z</time>
      </trkpt>
      <trkpt lat="44.26063" lon="2.51024">
        <ele>640</ele>
        <time>2022-06-12T10:36:36.995Z</time>
      </trkpt>
      <trkpt lat="44.26062" lon="2.51023">
        <ele>639</ele>
        <time>2022-06-12T10:36:37.995Z</time>
      </trkpt>
      <trkpt lat="44.2606" lon="2.51023">
        <ele>639</ele>
        <time>2022-06-12T10:36:38.995Z</time>
      </trkpt>
      <trkpt lat="44.26059" lon="2.51022">
        <ele>638</ele>
        <time>2022-06-12T10:36:39.995Z</time>
      </trkpt>
      <trkpt lat="44.26057" lon="2.51021">
        <ele>638</ele>
        <time>2022-06-12T10:36:40.995Z</time>
      </trkpt>
      <trkpt lat="44.26056" lon="2.5102">
        <ele>637</ele>
        <time>2022-06-12T10:36:41.995Z</time>
      </trkpt>
      <trkpt lat="44.26055" lon="2.51019">
        <ele>637</ele>
        <time>2022-06-12T10:36:42.995Z</time>
      </trkpt>
      <trkpt lat="44.26053" lon="2.51018">
        <ele>636</ele>
        <time>2022-06-12T10:36:43.995Z</time>
      </trkpt>
      <trkpt lat="44.26052" lon="2.51017">
        <ele>636</ele>
        <time>2022-06-12T10:36:44.995Z</time>
      </trkpt>
      <trkpt lat="44.26051" lon="2.51016">
        <ele>635</ele>
        <time>2022-06-12T10:36:45.995Z</time>
      </trkpt>
      <trkpt lat="44.2605" lon="2.51015">
        <ele>635</ele>
        <time>2022-06-12T10:36:46.995Z</time>
      </trkpt>
      <trkpt lat="44.26049" lon="2.51014">
        <ele>634</ele>
        <time>2022-06-12T10:36:47.995Z</time>
      </trkpt>
      <trkpt lat="44.26048" lon="2.51014">
        <ele>634</ele>
        <time>2022-06-12T10:36:48.995Z</time>
      </trkpt>
      <trkpt lat="44.26048" lon="2.51013">
        <ele>634</ele>
        <time>2022-06-12T10:36:49.995Z</time>
      </trkpt>
      <trkpt lat="44.26047" lon="2.51012">
        <ele>634</ele>
        <time>2022-06-12T10:36:50.995Z</time>
      </trkpt>
      <trkpt lat="44.26046" lon="2.51012">
        <ele>633</ele>
        <time>2022-06-12T10:36:51.995Z</time>
      </trkpt>
      <trkpt lat="44.26045" lon="2.51011">
        <ele>633</ele>
        <time>2022-06-12T10:36:52.995Z</time>
      </trkpt>
      <trkpt lat="44.26044" lon="2.5101">
        <ele>633</ele>
        <time>2022-06-12T10:36:53.995Z</time>
      </trkpt>
      <trkpt lat="44.26044" lon="2.5101">
        <ele>633</ele>
        <time>2022-06-12T10:36:54.995Z</time>
      </trkpt>
      <trkpt lat="44.26043" lon="2.5101">
        <ele>633</ele>
        <time>2022-06-12T10:36:55.995Z</time>
      </trkpt>
      <trkpt lat="44.26042" lon="2.51009">
        <ele>632</ele>
        <time>2022-06-12T10:36:56.995Z</time>
      </trkpt>
      <trkpt lat="44.26041" lon="2.51009">
        <ele>632</ele>
        <time>2022-06-12T10:36:57.995Z</time>
      </trkpt>
      <trkpt lat="44.2604" lon="2.51008">
        <ele>632</ele>
        <time>2022-06-12T10:36:58.995Z</time>
      </trkpt>
      <trkpt lat="44.26039" lon="2.51008">
        <ele>632</ele>
        <time>2022-06-12T10:36:59.995Z</time>
      </trkpt>
      <trkpt lat="44.26039" lon="2.51008">
        <ele>632</ele>
        <time>2022-06-12T10:37:00.995Z</time>
      </trkpt>
      <trkpt lat="44.26038" lon="2.51007">
        <ele>632</ele>
        <time>2022-06-12T10:37:01.995Z</time>
      </trkpt>
      <trkpt lat="44.26037" lon="2.51007">
        <ele>632</ele>
        <time>2022-06-12T10:37:02.995Z</time>
      </trkpt>
      <trkpt lat="44.26036" lon="2.51007">
        <ele>632</ele>
        <time>2022-06-12T10:37:03.995Z</time>
      </trkpt>
      <trkpt lat="44.26035" lon="2.51006">
        <ele>632</ele>
        <time>2022-06-12T10:37:04.995Z</time>
      </trkpt>
      <trkpt lat="44.26034" lon="2.51006">
        <ele>632</ele>
        <time>2022-06-12T10:37:05.995Z</time>
      </trkpt>
      <trkpt lat="44.26034" lon="2.51006">
        <ele>632</ele>
        <time>2022-06-12T10:37:06.995Z</time>
      </trkpt>
      <trkpt lat="44.26033" lon="2.51005">
        <ele>632</ele>
        <time>2022-06-12T10:37:07.995Z</time>
      </trkpt>
      <trkpt lat="44.26032" lon="2.51005">
        <ele>632</ele>
        <time>2022-06-12T10:37:08.995Z</time>
      </trkpt>
      <trkpt lat="44.26031" lon="2.51005">
        <ele>632</ele>
        <time>2022-06-12T10:37:09.995Z</time>
      </trkpt>
      <trkpt lat="44.2603" lon="2.51004">
        <ele>632</ele>
        <time>2022-06-12T10:37:10.995Z</time>
      </trkpt>
      <trkpt lat="44.26028" lon="2.51004">
        <ele>632</ele>
        <time>2022-06-12T10:37:11.995Z</time>
      </trkpt>
      <trkpt lat="44.26027" lon="2.51004">
        <ele>632</ele>
        <time>2022-06-12T10:37:12.995Z</time>
      </trkpt>
      <trkpt lat="44.26026" lon="2.51004">
        <ele>632</ele>
        <time>2022-06-12T10:37:13.995Z</time>
      </trkpt>
      <trkpt lat="44.26025" lon="2.51003">
        <ele>632</ele>
        <time>2022-06-12T10:37:14.995Z</time>
      </trkpt>
      <trkpt lat="44.26024" lon="2.51003">
        <ele>632</ele>
        <time>2022-06-12T10:37:15.995Z</time>
      </trkpt>
      <trkpt lat="44.26023" lon="2.51003">
        <ele>631</ele>
        <time>2022-06-12T10:37:16.995Z</time>
      </trkpt>
      <trkpt lat="44.26022" lon="2.51003">
        <ele>631</ele>
        <time>2022-06-12T10:37:17.995Z</time>
      </trkpt>
      <trkpt lat="44.26021" lon="2.51002">
        <ele>631</ele>
        <time>2022-06-12T10:37:18.995Z</time>
      </trkpt>
      <trkpt lat="44.26021" lon="2.51002">
        <ele>631</ele>
        <time>2022-06-12T10:37:19.995Z</time>
      </trkpt>
      <trkpt lat="44.2602" lon="2.51002">
        <ele>631</ele>
        <time>2022-06-12T10:37:20.995Z</time>
      </trkpt>
      <trkpt lat="44.26019" lon="2.51002">
        <ele>631</ele>
        <time>2022-06-12T10:37:21.995Z</time>
      </trkpt>
      <trkpt lat="44.26018" lon="2.51002">
        <ele>631</ele>
        <time>2022-06-12T10:37:22.995Z</time>
      </trkpt>
      <trkpt lat="44.26017" lon="2.51001">
        <ele>631</ele>
        <time>2022-06-12T10:37:23.995Z</time>
      </trkpt>
      <trkpt lat="44.26017" lon="2.51001">
        <ele>631</ele>
        <time>2022-06-12T10:37:24.995Z</time>
      </trkpt>
      <trkpt lat="44.26016" lon="2.51001">
        <ele>631</ele>
        <time>2022-06-12T10:37:25.995Z</time>
      </trkpt>
      <trkpt lat="44.26015" lon="2.51">
        <ele>631</ele>
        <time>2022-06-12T10:37:26.995Z</time>
      </trkpt>
      <trkpt lat="44.26013" lon="2.51">
        <ele>631</ele>
        <time>2022-06-12T10:37:27.995Z</time>
      </trkpt>
      <trkpt lat="44.26013" lon="2.51">
        <ele>631</ele>
        <time>2022-06-12T10:37:28.995Z</time>
      </trkpt>
      <trkpt lat="44.26012" lon="2.51">
        <ele>631</ele>
        <time>2022-06-12T10:37:29.995Z</time>
      </trkpt>
      <trkpt lat="44.26011" lon="2.50999">
        <ele>631</ele>
        <time>2022-06-12T10:37:30.995Z</time>
      </trkpt>
      <trkpt lat="44.26009" lon="2.50999">
        <ele>631</ele>
        <time>2022-06-12T10:37:31.995Z</time>
      </trkpt>
      <trkpt lat="44.26008" lon="2.50999">
        <ele>630</ele>
        <time>2022-06-12T10:37:32.995Z</time>
      </trkpt>
      <trkpt lat="44.26007" lon="2.50998">
        <ele>630</ele>
        <time>2022-06-12T10:37:33.995Z</time>
      </trkpt>
      <trkpt lat="44.26005" lon="2.50998">
        <ele>630</ele>
        <time>2022-06-12T10:37:34.995Z</time>
      </trkpt>
      <trkpt lat="44.26004" lon="2.50998">
        <ele>630</ele>
        <time>2022-06-12T10:37:35.995Z</time>
      </trkpt>
      <trkpt lat="44.26003" lon="2.50997">
        <ele>630</ele>
        <time>2022-06-12T10:37:36.995Z</time>
      </trkpt>
      <trkpt lat="44.26002" lon="2.50997">
        <ele>630</ele>
        <time>2022-06-12T10:37:37.995Z</time>
      </trkpt>
      <trkpt lat="44.26001" lon="2.50997">
        <ele>630</ele>
        <time>2022-06-12T10:37:38.995Z</time>
      </trkpt>
      <trkpt lat="44.25999" lon="2.50996">
        <ele>630</ele>
        <time>2022-06-12T10:37:39.995Z</time>
      </trkpt>
      <trkpt lat="44.25998" lon="2.50996">
        <ele>630</ele>
        <time>2022-06-12T10:37:40.995Z</time>
      </trkpt>
      <trkpt lat="44.25997" lon="2.50996">
        <ele>630</ele>
        <time>2022-06-12T10:37:41.995Z</time>
      </trkpt>
      <trkpt lat="44.25997" lon="2.50996">
        <ele>630</ele>
        <time>2022-06-12T10:37:42.995Z</time>
      </trkpt>
      <trkpt lat="44.25996" lon="2.50995">
        <ele>630</ele>
        <time>2022-06-12T10:37:43.995Z</time>
      </trkpt>
      <trkpt lat="44.25995" lon="2.50995">
        <ele>630</ele>
        <time>2022-06-12T10:37:44.995Z</time>
      </trkpt>
      <trkpt lat="44.25994" lon="2.50995">
        <ele>630</ele>
        <time>2022-06-12T10:37:45.995Z</time>
      </trkpt>
      <trkpt lat="44.25993" lon="2.50995">
        <ele>631</ele>
        <time>2022-06-12T10:37:46.995Z</time>
      </trkpt>
      <trkpt lat="44.25992" lon="2.50995">
        <ele>631</ele>
        <time>2022-06-12T10:37:47.995Z</time>
      </trkpt>
      <trkpt lat="44.25991" lon="2.50995">
        <ele>631</ele>
        <time>2022-06-12T10:37:48.995Z</time>
      </trkpt>
      <trkpt lat="44.2599" lon="2.50995">
        <ele>631</ele>
        <time>2022-06-12T10:37:49.995Z</time>
      </trkpt>
      <trkpt lat="44.25989" lon="2.50995">
        <ele>631</ele>
        <time>2022-06-12T10:37:50.995Z</time>
      </trkpt>
      <trkpt lat="44.25987" lon="2.50995">
        <ele>631</ele>
        <time>2022-06-12T10:37:51.995Z</time>
      </trkpt>
      <trkpt lat="44.25987" lon="2.50995">
        <ele>631</ele>
        <time>2022-06-12T10:37:52.995Z</time>
      </trkpt>
      <trkpt lat="44.25986" lon="2.50995">
        <ele>631</ele>
        <time>2022-06-12T10:37:53.995Z</time>
      </trkpt>
      <trkpt lat="44.25985" lon="2.50995">
        <ele>631</ele>
        <time>2022-06-12T10:37:54.995Z</time>
      </trkpt>
      <trkpt lat="44.25984" lon="2.50994">
        <ele>631</ele>
        <time>2022-06-12T10:37:55.995Z</time>
      </trkpt>
      <trkpt lat="44.25983" lon="2.50994">
        <ele>631</ele>
        <time>2022-06-12T10:37:56.995Z</time>
      </trkpt>
      <trkpt lat="44.25982" lon="2.50994">
        <ele>631</ele>
        <time>2022-06-12T10:37:57.995Z</time>
      </trkpt>
      <trkpt lat="44.25981" lon="2.50994">
        <ele>631</ele>
        <time>2022-06-12T10:37:58.995Z</time>
      </trkpt>
      <trkpt lat="44.2598" lon="2.50994">
        <ele>632</ele>
        <time>2022-06-12T10:37:59.995Z</time>
      </trkpt>
      <trkpt lat="44.25979" lon="2.50993">
        <ele>632</ele>
        <time>2022-06-12T10:38:00.995Z</time>
      </trkpt>
      <trkpt lat="44.25978" lon="2.50993">
        <ele>631</ele>
        <time>2022-06-12T10:38:01.995Z</time>
      </trkpt>
      <trkpt lat="44.25977" lon="2.50992">
        <ele>631</ele>
        <time>2022-06-12T10:38:02.995Z</time>
      </trkpt>
      <trkpt lat="44.25976" lon="2.50991">
        <ele>631</ele>
        <time>2022-06-12T10:38:03.995Z</time>
      </trkpt>
      <trkpt lat="44.25975" lon="2.5099">
        <ele>631</ele>
        <time>2022-06-12T10:38:04.995Z</time>
      </trkpt>
      <trkpt lat="44.25974" lon="2.50989">
        <ele>630</ele>
        <time>2022-06-12T10:38:05.995Z</time>
      </trkpt>
      <trkpt lat="44.25973" lon="2.50988">
        <ele>630</ele>
        <time>2022-06-12T10:38:06.995Z</time>
      </trkpt>
      <trkpt lat="44.25972" lon="2.50987">
        <ele>630</ele>
        <time>2022-06-12T10:38:07.995Z</time>
      </trkpt>
      <trkpt lat="44.25971" lon="2.50986">
        <ele>630</ele>
        <time>2022-06-12T10:38:08.995Z</time>
      </trkpt>
      <trkpt lat="44.2597" lon="2.50985">
        <ele>629</ele>
        <time>2022-06-12T10:38:09.995Z</time>
      </trkpt>
      <trkpt lat="44.25969" lon="2.50985">
        <ele>629</ele>
        <time>2022-06-12T10:38:10.995Z</time>
      </trkpt>
      <trkpt lat="44.25968" lon="2.50984">
        <ele>629</ele>
        <time>2022-06-12T10:38:11.995Z</time>
      </trkpt>
      <trkpt lat="44.25967" lon="2.50983">
        <ele>629</ele>
        <time>2022-06-12T10:38:12.995Z</time>
      </trkpt>
      <trkpt lat="44.25966" lon="2.50982">
        <ele>629</ele>
        <time>2022-06-12T10:38:13.995Z</time>
      </trkpt>
      <trkpt lat="44.25965" lon="2.50981">
        <ele>628</ele>
        <time>2022-06-12T10:38:14.995Z</time>
      </trkpt>
      <trkpt lat="44.25964" lon="2.5098">
        <ele>628</ele>
        <time>2022-06-12T10:38:15.995Z</time>
      </trkpt>
      <trkpt lat="44.25964" lon="2.5098">
        <ele>628</ele>
        <time>2022-06-12T10:38:16.995Z</time>
      </trkpt>
      <trkpt lat="44.25963" lon="2.5098">
        <ele>628</ele>
        <time>2022-06-12T10:38:17.995Z</time>
      </trkpt>
      <trkpt lat="44.25962" lon="2.50979">
        <ele>628</ele>
        <time>2022-06-12T10:38:18.995Z</time>
      </trkpt>
      <trkpt lat="44.25961" lon="2.50978">
        <ele>628</ele>
        <time>2022-06-12T10:38:19.995Z</time>
      </trkpt>
      <trkpt lat="44.2596" lon="2.50978">
        <ele>628</ele>
        <time>2022-06-12T10:38:20.995Z</time>
      </trkpt>
      <trkpt lat="44.2596" lon="2.50977">
        <ele>628</ele>
        <time>2022-06-12T10:38:21.995Z</time>
      </trkpt>
      <trkpt lat="44.25959" lon="2.50976">
        <ele>627</ele>
        <time>2022-06-12T10:38:22.995Z</time>
      </trkpt>
      <trkpt lat="44.25958" lon="2.50976">
        <ele>627</ele>
        <time>2022-06-12T10:38:23.995Z</time>
      </trkpt>
      <trkpt lat="44.25958" lon="2.50976">
        <ele>627</ele>
        <time>2022-06-12T10:38:24.995Z</time>
      </trkpt>
      <trkpt lat="44.25957" lon="2.50976">
        <ele>627</ele>
        <time>2022-06-12T10:38:25.995Z</time>
      </trkpt>
      <trkpt lat="44.25956" lon="2.50975">
        <ele>627</ele>
        <time>2022-06-12T10:38:26.995Z</time>
      </trkpt>
      <trkpt lat="44.25956" lon="2.50975">
        <ele>627</ele>
        <time>2022-06-12T10:38:27.995Z</time>
      </trkpt>
      <trkpt lat="44.25955" lon="2.50975">
        <ele>627</ele>
        <time>2022-06-12T10:38:28.995Z</time>
      </trkpt>
      <trkpt lat="44.25954" lon="2.50974">
        <ele>626</ele>
        <time>2022-06-12T10:38:29.995Z</time>
      </trkpt>
      <trkpt lat="44.25954" lon="2.50974">
        <ele>626</ele>
        <time>2022-06-12T10:38:30.995Z</time>
      </trkpt>
      <trkpt lat="44.25954" lon="2.50974">
        <ele>626</ele>
        <time>2022-06-12T10:38:31.995Z</time>
      </trkpt>
      <trkpt lat="44.25954" lon="2.50974">
        <ele>626</ele>
        <time>2022-06-12T10:38:32.995Z</time>
      </trkpt>
      <trkpt lat="44.25953" lon="2.50974">
        <ele>626</ele>
        <time>2022-06-12T10:38:33.995Z</time>
      </trkpt>
      <trkpt lat="44.25951" lon="2.50973">
        <ele>625</ele>
        <time>2022-06-12T10:38:43.998Z</time>
      </trkpt>
      <trkpt lat="44.2595" lon="2.50973">
        <ele>625</ele>
        <time>2022-06-12T10:38:44.998Z</time>
      </trkpt>
      <trkpt lat="44.2595" lon="2.50973">
        <ele>625</ele>
        <time>2022-06-12T10:38:45.998Z</time>
      </trkpt>
      <trkpt lat="44.25949" lon="2.50972">
        <ele>625</ele>
        <time>2022-06-12T10:38:46.998Z</time>
      </trkpt>
      <trkpt lat="44.25948" lon="2.50971">
        <ele>625</ele>
        <time>2022-06-12T10:38:47.998Z</time>
      </trkpt>
      <trkpt lat="44.25947" lon="2.50971">
        <ele>625</ele>
        <time>2022-06-12T10:38:48.998Z</time>
      </trkpt>
      <trkpt lat="44.25947" lon="2.5097">
        <ele>625</ele>
        <time>2022-06-12T10:38:49.998Z</time>
      </trkpt>
      <trkpt lat="44.25946" lon="2.5097">
        <ele>625</ele>
        <time>2022-06-12T10:38:50.998Z</time>
      </trkpt>
      <trkpt lat="44.25945" lon="2.50969">
        <ele>625</ele>
        <time>2022-06-12T10:38:51.998Z</time>
      </trkpt>
      <trkpt lat="44.25944" lon="2.50969">
        <ele>625</ele>
        <time>2022-06-12T10:38:52.998Z</time>
      </trkpt>
      <trkpt lat="44.25943" lon="2.50968">
        <ele>625</ele>
        <time>2022-06-12T10:38:53.998Z</time>
      </trkpt>
      <trkpt lat="44.25942" lon="2.50967">
        <ele>625</ele>
        <time>2022-06-12T10:38:54.998Z</time>
      </trkpt>
      <trkpt lat="44.25941" lon="2.50967">
        <ele>625</ele>
        <time>2022-06-12T10:38:55.998Z</time>
      </trkpt>
      <trkpt lat="44.2594" lon="2.50967">
        <ele>625</ele>
        <time>2022-06-12T10:38:56.998Z</time>
      </trkpt>
      <trkpt lat="44.25939" lon="2.50966">
        <ele>625</ele>
        <time>2022-06-12T10:38:57.998Z</time>
      </trkpt>
      <trkpt lat="44.25937" lon="2.50966">
        <ele>625</ele>
        <time>2022-06-12T10:38:58.998Z</time>
      </trkpt>
      <trkpt lat="44.25936" lon="2.50966">
        <ele>625</ele>
        <time>2022-06-12T10:38:59.998Z</time>
      </trkpt>
      <trkpt lat="44.25935" lon="2.50966">
        <ele>625</ele>
        <time>2022-06-12T10:39:00.998Z</time>
      </trkpt>
      <trkpt lat="44.25934" lon="2.50966">
        <ele>625</ele>
        <time>2022-06-12T10:39:01.998Z</time>
      </trkpt>
      <trkpt lat="44.25933" lon="2.50966">
        <ele>625</ele>
        <time>2022-06-12T10:39:02.998Z</time>
      </trkpt>
      <trkpt lat="44.25932" lon="2.50965">
        <ele>625</ele>
        <time>2022-06-12T10:39:03.998Z</time>
      </trkpt>
      <trkpt lat="44.25932" lon="2.50965">
        <ele>626</ele>
        <time>2022-06-12T10:39:04.998Z</time>
      </trkpt>
      <trkpt lat="44.25931" lon="2.50964">
        <ele>626</ele>
        <time>2022-06-12T10:39:05.998Z</time>
      </trkpt>
      <trkpt lat="44.2593" lon="2.50964">
        <ele>626</ele>
        <time>2022-06-12T10:39:06.998Z</time>
      </trkpt>
      <trkpt lat="44.25929" lon="2.50963">
        <ele>626</ele>
        <time>2022-06-12T10:39:07.998Z</time>
      </trkpt>
      <trkpt lat="44.25928" lon="2.50963">
        <ele>626</ele>
        <time>2022-06-12T10:39:08.998Z</time>
      </trkpt>
      <trkpt lat="44.25927" lon="2.50962">
        <ele>626</ele>
        <time>2022-06-12T10:39:09.998Z</time>
      </trkpt>
      <trkpt lat="44.25926" lon="2.50962">
        <ele>626</ele>
        <time>2022-06-12T10:39:10.998Z</time>
      </trkpt>
      <trkpt lat="44.25925" lon="2.50961">
        <ele>627</ele>
        <time>2022-06-12T10:39:11.998Z</time>
      </trkpt>
      <trkpt lat="44.25924" lon="2.50961">
        <ele>627</ele>
        <time>2022-06-12T10:39:12.998Z</time>
      </trkpt>
      <trkpt lat="44.25923" lon="2.5096">
        <ele>627</ele>
        <time>2022-06-12T10:39:13.998Z</time>
      </trkpt>
      <trkpt lat="44.25922" lon="2.5096">
        <ele>627</ele>
        <time>2022-06-12T10:39:14.998Z</time>
      </trkpt>
      <trkpt lat="44.25921" lon="2.50959">
        <ele>627</ele>
        <time>2022-06-12T10:39:15.998Z</time>
      </trkpt>
      <trkpt lat="44.2592" lon="2.50958">
        <ele>627</ele>
        <time>2022-06-12T10:39:16.998Z</time>
      </trkpt>
      <trkpt lat="44.25918" lon="2.50958">
        <ele>627</ele>
        <time>2022-06-12T10:39:17.998Z</time>
      </trkpt>
      <trkpt lat="44.25917" lon="2.50957">
        <ele>627</ele>
        <time>2022-06-12T10:39:18.998Z</time>
      </trkpt>
      <trkpt lat="44.25916" lon="2.50957">
        <ele>627</ele>
        <time>2022-06-12T10:39:19.998Z</time>
      </trkpt>
      <trkpt lat="44.25915" lon="2.50957">
        <ele>627</ele>
        <time>2022-06-12T10:39:20.998Z</time>
      </trkpt>
      <trkpt lat="44.25913" lon="2.50956">
        <ele>627</ele>
        <time>2022-06-12T10:39:21.998Z</time>
      </trkpt>
      <trkpt lat="44.25912" lon="2.50956">
        <ele>627</ele>
        <time>2022-06-12T10:39:22.998Z</time>
      </trkpt>
      <trkpt lat="44.25911" lon="2.50956">
        <ele>627</ele>
        <time>2022-06-12T10:39:23.998Z</time>
      </trkpt>
      <trkpt lat="44.25909" lon="2.50956">
        <ele>627</ele>
        <time>2022-06-12T10:39:24.998Z</time>
      </trkpt>
      <trkpt lat="44.25908" lon="2.50955">
        <ele>627</ele>
        <time>2022-06-12T10:39:25.998Z</time>
      </trkpt>
      <trkpt lat="44.25907" lon="2.50955">
        <ele>627</ele>
        <time>2022-06-12T10:39:26.998Z</time>
      </trkpt>
      <trkpt lat="44.25906" lon="2.50954">
        <ele>627</ele>
        <time>2022-06-12T10:39:27.998Z</time>
      </trkpt>
      <trkpt lat="44.25905" lon="2.50954">
        <ele>627</ele>
        <time>2022-06-12T10:39:28.998Z</time>
      </trkpt>
      <trkpt lat="44.25904" lon="2.50954">
        <ele>627</ele>
        <time>2022-06-12T10:39:29.998Z</time>
      </trkpt>
      <trkpt lat="44.25903" lon="2.50953">
        <ele>627</ele>
        <time>2022-06-12T10:39:30.998Z</time>
      </trkpt>
      <trkpt lat="44.25902" lon="2.50953">
        <ele>627</ele>
        <time>2022-06-12T10:39:31.998Z</time>
      </trkpt>
      <trkpt lat="44.25901" lon="2.50952">
        <ele>627</ele>
        <time>2022-06-12T10:39:32.998Z</time>
      </trkpt>
      <trkpt lat="44.259" lon="2.50952">
        <ele>627</ele>
        <time>2022-06-12T10:39:33.998Z</time>
      </trkpt>
      <trkpt lat="44.25899" lon="2.50952">
        <ele>628</ele>
        <time>2022-06-12T10:39:34.998Z</time>
      </trkpt>
      <trkpt lat="44.25898" lon="2.50952">
        <ele>628</ele>
        <time>2022-06-12T10:39:35.998Z</time>
      </trkpt>
      <trkpt lat="44.25896" lon="2.50951">
        <ele>628</ele>
        <time>2022-06-12T10:39:36.998Z</time>
      </trkpt>
      <trkpt lat="44.25896" lon="2.50951">
        <ele>628</ele>
        <time>2022-06-12T10:39:37.998Z</time>
      </trkpt>
      <trkpt lat="44.25894" lon="2.50951">
        <ele>628</ele>
        <time>2022-06-12T10:39:38.998Z</time>
      </trkpt>
      <trkpt lat="44.25894" lon="2.5095">
        <ele>628</ele>
        <time>2022-06-12T10:39:39.998Z</time>
      </trkpt>
      <trkpt lat="44.25893" lon="2.5095">
        <ele>627</ele>
        <time>2022-06-12T10:39:40.998Z</time>
      </trkpt>
      <trkpt lat="44.25892" lon="2.50949">
        <ele>627</ele>
        <time>2022-06-12T10:39:41.998Z</time>
      </trkpt>
      <trkpt lat="44.2589" lon="2.50949">
        <ele>627</ele>
        <time>2022-06-12T10:39:42.998Z</time>
      </trkpt>
      <trkpt lat="44.25889" lon="2.50948">
        <ele>627</ele>
        <time>2022-06-12T10:39:43.998Z</time>
      </trkpt>
      <trkpt lat="44.25888" lon="2.50947">
        <ele>627</ele>
        <time>2022-06-12T10:39:44.998Z</time>
      </trkpt>
      <trkpt lat="44.25887" lon="2.50946">
        <ele>627</ele>
        <time>2022-06-12T10:39:45.998Z</time>
      </trkpt>
      <trkpt lat="44.25886" lon="2.50945">
        <ele>627</ele>
        <time>2022-06-12T10:39:46.998Z</time>
      </trkpt>
      <trkpt lat="44.25885" lon="2.50944">
        <ele>627</ele>
        <time>2022-06-12T10:39:47.998Z</time>
      </trkpt>
      <trkpt lat="44.25884" lon="2.50944">
        <ele>627</ele>
        <time>2022-06-12T10:39:48.998Z</time>
      </trkpt>
      <trkpt lat="44.25883" lon="2.50943">
        <ele>627</ele>
        <time>2022-06-12T10:39:49.998Z</time>
      </trkpt>
      <trkpt lat="44.25882" lon="2.50942">
        <ele>627</ele>
        <time>2022-06-12T10:39:50.998Z</time>
      </trkpt>
      <trkpt lat="44.25881" lon="2.50942">
        <ele>627</ele>
        <time>2022-06-12T10:39:51.998Z</time>
      </trkpt>
      <trkpt lat="44.2588" lon="2.50941">
        <ele>627</ele>
        <time>2022-06-12T10:39:52.998Z</time>
      </trkpt>
      <trkpt lat="44.25879" lon="2.5094">
        <ele>627</ele>
        <time>2022-06-12T10:39:53.998Z</time>
      </trkpt>
      <trkpt lat="44.25878" lon="2.5094">
        <ele>627</ele>
        <time>2022-06-12T10:39:54.998Z</time>
      </trkpt>
      <trkpt lat="44.25877" lon="2.5094">
        <ele>627</ele>
        <time>2022-06-12T10:39:55.998Z</time>
      </trkpt>
      <trkpt lat="44.25875" lon="2.50939">
        <ele>627</ele>
        <time>2022-06-12T10:39:56.998Z</time>
      </trkpt>
      <trkpt lat="44.25874" lon="2.50939">
        <ele>627</ele>
        <time>2022-06-12T10:39:57.998Z</time>
      </trkpt>
      <trkpt lat="44.25873" lon="2.50939">
        <ele>627</ele>
        <time>2022-06-12T10:39:58.998Z</time>
      </trkpt>
      <trkpt lat="44.25872" lon="2.50939">
        <ele>627</ele>
        <time>2022-06-12T10:39:59.998Z</time>
      </trkpt>
      <trkpt lat="44.25871" lon="2.50939">
        <ele>627</ele>
        <time>2022-06-12T10:40:00.998Z</time>
      </trkpt>
      <trkpt lat="44.2587" lon="2.50938">
        <ele>628</ele>
        <time>2022-06-12T10:40:01.998Z</time>
      </trkpt>
      <trkpt lat="44.25869" lon="2.50938">
        <ele>628</ele>
        <time>2022-06-12T10:40:02.998Z</time>
      </trkpt>
      <trkpt lat="44.25868" lon="2.50938">
        <ele>628</ele>
        <time>2022-06-12T10:40:03.998Z</time>
      </trkpt>
      <trkpt lat="44.25867" lon="2.50937">
        <ele>628</ele>
        <time>2022-06-12T10:40:04.998Z</time>
      </trkpt>
      <trkpt lat="44.25865" lon="2.50937">
        <ele>628</ele>
        <time>2022-06-12T10:40:05.998Z</time>
      </trkpt>
      <trkpt lat="44.25864" lon="2.50937">
        <ele>628</ele>
        <time>2022-06-12T10:40:06.998Z</time>
      </trkpt>
      <trkpt lat="44.25863" lon="2.50937">
        <ele>628</ele>
        <time>2022-06-12T10:40:07.998Z</time>
      </trkpt>
      <trkpt lat="44.25862" lon="2.50937">
        <ele>629</ele>
        <time>2022-06-12T10:40:08.998Z</time>
      </trkpt>
      <trkpt lat="44.25861" lon="2.50936">
        <ele>629</ele>
        <time>2022-06-12T10:40:09.998Z</time>
      </trkpt>
      <trkpt lat="44.25859" lon="2.50936">
        <ele>629</ele>
        <time>2022-06-12T10:40:10.998Z</time>
      </trkpt>
      <trkpt lat="44.25858" lon="2.50936">
        <ele>629</ele>
        <time>2022-06-12T10:40:11.998Z</time>
      </trkpt>
      <trkpt lat="44.25857" lon="2.50935">
        <ele>629</ele>
        <time>2022-06-12T10:40:12.998Z</time>
      </trkpt>
      <trkpt lat="44.25856" lon="2.50935">
        <ele>629</ele>
        <time>2022-06-12T10:40:13.998Z</time>
      </trkpt>
      <trkpt lat="44.25855" lon="2.50935">
        <ele>629</ele>
        <time>2022-06-12T10:40:14.998Z</time>
      </trkpt>
      <trkpt lat="44.25853" lon="2.50935">
        <ele>629</ele>
        <time>2022-06-12T10:40:15.998Z</time>
      </trkpt>
      <trkpt lat="44.25852" lon="2.50935">
        <ele>629</ele>
        <time>2022-06-12T10:40:16.998Z</time>
      </trkpt>
      <trkpt lat="44.25851" lon="2.50934">
        <ele>629</ele>
        <time>2022-06-12T10:40:17.998Z</time>
      </trkpt>
      <trkpt lat="44.2585" lon="2.50934">
        <ele>629</ele>
        <time>2022-06-12T10:40:18.998Z</time>
      </trkpt>
      <trkpt lat="44.25849" lon="2.50935">
        <ele>629</ele>
        <time>2022-06-12T10:40:19.998Z</time>
      </trkpt>
      <trkpt lat="44.25848" lon="2.50935">
        <ele>629</ele>
        <time>2022-06-12T10:40:20.998Z</time>
      </trkpt>
      <trkpt lat="44.25847" lon="2.50934">
        <ele>629</ele>
        <time>2022-06-12T10:40:21.998Z</time>
      </trkpt>
      <trkpt lat="44.25846" lon="2.50934">
        <ele>629</ele>
        <time>2022-06-12T10:40:22.998Z</time>
      </trkpt>
      <trkpt lat="44.25845" lon="2.50934">
        <ele>629</ele>
        <time>2022-06-12T10:40:23.998Z</time>
      </trkpt>
      <trkpt lat="44.25844" lon="2.50933">
        <ele>629</ele>
        <time>2022-06-12T10:40:24.998Z</time>
      </trkpt>
      <trkpt lat="44.25842" lon="2.50933">
        <ele>629</ele>
        <time>2022-06-12T10:40:25.998Z</time>
      </trkpt>
      <trkpt lat="44.25841" lon="2.50932">
        <ele>629</ele>
        <time>2022-06-12T10:40:26.998Z</time>
      </trkpt>
      <trkpt lat="44.2584" lon="2.50932">
        <ele>629</ele>
        <time>2022-06-12T10:40:27.998Z</time>
      </trkpt>
      <trkpt lat="44.25839" lon="2.50931">
        <ele>629</ele>
        <time>2022-06-12T10:40:28.998Z</time>
      </trkpt>
      <trkpt lat="44.25838" lon="2.50931">
        <ele>629</ele>
        <time>2022-06-12T10:40:29.998Z</time>
      </trkpt>
      <trkpt lat="44.25836" lon="2.5093">
        <ele>629</ele>
        <time>2022-06-12T10:40:30.998Z</time>
      </trkpt>
      <trkpt lat="44.25835" lon="2.5093">
        <ele>629</ele>
        <time>2022-06-12T10:40:31.998Z</time>
      </trkpt>
      <trkpt lat="44.25834" lon="2.50929">
        <ele>629</ele>
        <time>2022-06-12T10:40:32.998Z</time>
      </trkpt>
      <trkpt lat="44.25833" lon="2.50928">
        <ele>628</ele>
        <time>2022-06-12T10:40:33.998Z</time>
      </trkpt>
      <trkpt lat="44.25832" lon="2.50928">
        <ele>628</ele>
        <time>2022-06-12T10:40:34.998Z</time>
      </trkpt>
      <trkpt lat="44.25831" lon="2.50928">
        <ele>628</ele>
        <time>2022-06-12T10:40:35.998Z</time>
      </trkpt>
      <trkpt lat="44.2583" lon="2.50927">
        <ele>628</ele>
        <time>2022-06-12T10:40:36.998Z</time>
      </trkpt>
      <trkpt lat="44.25829" lon="2.50926">
        <ele>628</ele>
        <time>2022-06-12T10:40:37.998Z</time>
      </trkpt>
      <trkpt lat="44.25828" lon="2.50925">
        <ele>628</ele>
        <time>2022-06-12T10:40:38.998Z</time>
      </trkpt>
      <trkpt lat="44.25827" lon="2.50924">
        <ele>628</ele>
        <time>2022-06-12T10:40:39.998Z</time>
      </trkpt>
      <trkpt lat="44.25826" lon="2.50924">
        <ele>628</ele>
        <time>2022-06-12T10:40:40.998Z</time>
      </trkpt>
      <trkpt lat="44.25825" lon="2.50923">
        <ele>628</ele>
        <time>2022-06-12T10:40:41.998Z</time>
      </trkpt>
      <trkpt lat="44.25824" lon="2.50923">
        <ele>628</ele>
        <time>2022-06-12T10:40:42.998Z</time>
      </trkpt>
      <trkpt lat="44.25823" lon="2.50922">
        <ele>628</ele>
        <time>2022-06-12T10:40:43.998Z</time>
      </trkpt>
      <trkpt lat="44.25822" lon="2.50921">
        <ele>628</ele>
        <time>2022-06-12T10:40:44.998Z</time>
      </trkpt>
      <trkpt lat="44.25821" lon="2.5092">
        <ele>628</ele>
        <time>2022-06-12T10:40:45.998Z</time>
      </trkpt>
      <trkpt lat="44.2582" lon="2.50919">
        <ele>628</ele>
        <time>2022-06-12T10:40:46.998Z</time>
      </trkpt>
      <trkpt lat="44.25819" lon="2.50919">
        <ele>629</ele>
        <time>2022-06-12T10:40:47.998Z</time>
      </trkpt>
      <trkpt lat="44.25817" lon="2.50918">
        <ele>629</ele>
        <time>2022-06-12T10:40:48.998Z</time>
      </trkpt>
      <trkpt lat="44.25816" lon="2.50917">
        <ele>629</ele>
        <time>2022-06-12T10:40:49.998Z</time>
      </trkpt>
      <trkpt lat="44.25815" lon="2.50917">
        <ele>629</ele>
        <time>2022-06-12T10:40:50.998Z</time>
      </trkpt>
      <trkpt lat="44.25814" lon="2.50916">
        <ele>629</ele>
        <time>2022-06-12T10:40:51.998Z</time>
      </trkpt>
      <trkpt lat="44.25813" lon="2.50915">
        <ele>629</ele>
        <time>2022-06-12T10:40:52.998Z</time>
      </trkpt>
      <trkpt lat="44.25812" lon="2.50915">
        <ele>629</ele>
        <time>2022-06-12T10:40:53.998Z</time>
      </trkpt>
      <trkpt lat="44.25811" lon="2.50914">
        <ele>629</ele>
        <time>2022-06-12T10:40:54.998Z</time>
      </trkpt>
      <trkpt lat="44.2581" lon="2.50913">
        <ele>629</ele>
        <time>2022-06-12T10:40:55.998Z</time>
      </trkpt>
      <trkpt lat="44.25809" lon="2.50912">
        <ele>629</ele>
        <time>2022-06-12T10:40:56.998Z</time>
      </trkpt>
      <trkpt lat="44.25808" lon="2.50912">
        <ele>629</ele>
        <time>2022-06-12T10:40:57.998Z</time>
      </trkpt>
      <trkpt lat="44.25806" lon="2.50911">
        <ele>629</ele>
        <time>2022-06-12T10:40:58.998Z</time>
      </trkpt>
      <trkpt lat="44.25805" lon="2.50911">
        <ele>629</ele>
        <time>2022-06-12T10:40:59.998Z</time>
      </trkpt>
      <trkpt lat="44.25804" lon="2.5091">
        <ele>629</ele>
        <time>2022-06-12T10:41:00.998Z</time>
      </trkpt>
      <trkpt lat="44.25803" lon="2.50909">
        <ele>629</ele>
        <time>2022-06-12T10:41:01.998Z</time>
      </trkpt>
      <trkpt lat="44.25802" lon="2.50908">
        <ele>629</ele>
        <time>2022-06-12T10:41:02.998Z</time>
      </trkpt>
      <trkpt lat="44.25801" lon="2.50907">
        <ele>630</ele>
        <time>2022-06-12T10:41:03.998Z</time>
      </trkpt>
      <trkpt lat="44.258" lon="2.50906">
        <ele>630</ele>
        <time>2022-06-12T10:41:04.998Z</time>
      </trkpt>
      <trkpt lat="44.25799" lon="2.50905">
        <ele>630</ele>
        <time>2022-06-12T10:41:05.998Z</time>
      </trkpt>
      <trkpt lat="44.25798" lon="2.50904">
        <ele>630</ele>
        <time>2022-06-12T10:41:06.998Z</time>
      </trkpt>
      <trkpt lat="44.25798" lon="2.50903">
        <ele>630</ele>
        <time>2022-06-12T10:41:07.998Z</time>
      </trkpt>
      <trkpt lat="44.25797" lon="2.50902">
        <ele>630</ele>
        <time>2022-06-12T10:41:08.998Z</time>
      </trkpt>
      <trkpt lat="44.25796" lon="2.50902">
        <ele>630</ele>
        <time>2022-06-12T10:41:09.998Z</time>
      </trkpt>
      <trkpt lat="44.25794" lon="2.50901">
        <ele>630</ele>
        <time>2022-06-12T10:41:10.998Z</time>
      </trkpt>
      <trkpt lat="44.25793" lon="2.509">
        <ele>630</ele>
        <time>2022-06-12T10:41:11.998Z</time>
      </trkpt>
      <trkpt lat="44.25793" lon="2.50899">
        <ele>630</ele>
        <time>2022-06-12T10:41:12.998Z</time>
      </trkpt>
      <trkpt lat="44.25792" lon="2.50898">
        <ele>630</ele>
        <time>2022-06-12T10:41:13.998Z</time>
      </trkpt>
      <trkpt lat="44.25791" lon="2.50897">
        <ele>630</ele>
        <time>2022-06-12T10:41:14.998Z</time>
      </trkpt>
      <trkpt lat="44.2579" lon="2.50897">
        <ele>630</ele>
        <time>2022-06-12T10:41:15.998Z</time>
      </trkpt>
      <trkpt lat="44.25789" lon="2.50896">
        <ele>630</ele>
        <time>2022-06-12T10:41:16.998Z</time>
      </trkpt>
      <trkpt lat="44.25788" lon="2.50896">
        <ele>630</ele>
        <time>2022-06-12T10:41:17.998Z</time>
      </trkpt>
      <trkpt lat="44.25787" lon="2.50895">
        <ele>630</ele>
        <time>2022-06-12T10:41:18.998Z</time>
      </trkpt>
      <trkpt lat="44.25786" lon="2.50895">
        <ele>630</ele>
        <time>2022-06-12T10:41:19.998Z</time>
      </trkpt>
      <trkpt lat="44.25785" lon="2.50895">
        <ele>630</ele>
        <time>2022-06-12T10:41:20.998Z</time>
      </trkpt>
      <trkpt lat="44.25784" lon="2.50894">
        <ele>630</ele>
        <time>2022-06-12T10:41:21.998Z</time>
      </trkpt>
      <trkpt lat="44.25783" lon="2.50894">
        <ele>629</ele>
        <time>2022-06-12T10:41:22.998Z</time>
      </trkpt>
      <trkpt lat="44.25782" lon="2.50893">
        <ele>629</ele>
        <time>2022-06-12T10:41:23.998Z</time>
      </trkpt>
      <trkpt lat="44.25781" lon="2.50892">
        <ele>629</ele>
        <time>2022-06-12T10:41:24.998Z</time>
      </trkpt>
      <trkpt lat="44.2578" lon="2.50892">
        <ele>629</ele>
        <time>2022-06-12T10:41:25.998Z</time>
      </trkpt>
      <trkpt lat="44.25779" lon="2.50892">
        <ele>629</ele>
        <time>2022-06-12T10:41:26.998Z</time>
      </trkpt>
      <trkpt lat="44.25778" lon="2.50891">
        <ele>629</ele>
        <time>2022-06-12T10:41:27.998Z</time>
      </trkpt>
      <trkpt lat="44.25777" lon="2.50891">
        <ele>629</ele>
        <time>2022-06-12T10:41:28.998Z</time>
      </trkpt>
      <trkpt lat="44.25776" lon="2.5089">
        <ele>629</ele>
        <time>2022-06-12T10:41:29.998Z</time>
      </trkpt>
      <trkpt lat="44.25775" lon="2.50889">
        <ele>629</ele>
        <time>2022-06-12T10:41:30.998Z</time>
      </trkpt>
      <trkpt lat="44.25774" lon="2.50889">
        <ele>629</ele>
        <time>2022-06-12T10:41:31.998Z</time>
      </trkpt>
      <trkpt lat="44.25773" lon="2.50888">
        <ele>629</ele>
        <time>2022-06-12T10:41:32.998Z</time>
      </trkpt>
      <trkpt lat="44.25773" lon="2.50888">
        <ele>629</ele>
        <time>2022-06-12T10:41:33.998Z</time>
      </trkpt>
      <trkpt lat="44.25772" lon="2.50887">
        <ele>629</ele>
        <time>2022-06-12T10:41:34.998Z</time>
      </trkpt>
      <trkpt lat="44.2577" lon="2.50886">
        <ele>629</ele>
        <time>2022-06-12T10:41:35.998Z</time>
      </trkpt>
      <trkpt lat="44.2577" lon="2.50886">
        <ele>629</ele>
        <time>2022-06-12T10:41:36.998Z</time>
      </trkpt>
      <trkpt lat="44.25768" lon="2.50885">
        <ele>629</ele>
        <time>2022-06-12T10:41:37.998Z</time>
      </trkpt>
      <trkpt lat="44.25767" lon="2.50885">
        <ele>629</ele>
        <time>2022-06-12T10:41:38.998Z</time>
      </trkpt>
      <trkpt lat="44.25766" lon="2.50884">
        <ele>629</ele>
        <time>2022-06-12T10:41:39.998Z</time>
      </trkpt>
      <trkpt lat="44.25766" lon="2.50884">
        <ele>629</ele>
        <time>2022-06-12T10:41:40.998Z</time>
      </trkpt>
      <trkpt lat="44.25765" lon="2.50884">
        <ele>629</ele>
        <time>2022-06-12T10:41:41.998Z</time>
      </trkpt>
      <trkpt lat="44.25764" lon="2.50884">
        <ele>629</ele>
        <time>2022-06-12T10:41:42.998Z</time>
      </trkpt>
      <trkpt lat="44.25763" lon="2.50884">
        <ele>629</ele>
        <time>2022-06-12T10:41:43.998Z</time>
      </trkpt>
      <trkpt lat="44.25762" lon="2.50884">
        <ele>629</ele>
        <time>2022-06-12T10:41:44.998Z</time>
      </trkpt>
      <trkpt lat="44.25761" lon="2.50884">
        <ele>629</ele>
        <time>2022-06-12T10:41:45.998Z</time>
      </trkpt>
      <trkpt lat="44.25759" lon="2.50884">
        <ele>629</ele>
        <time>2022-06-12T10:41:46.998Z</time>
      </trkpt>
      <trkpt lat="44.25758" lon="2.50885">
        <ele>629</ele>
        <time>2022-06-12T10:41:47.998Z</time>
      </trkpt>
      <trkpt lat="44.25757" lon="2.50885">
        <ele>629</ele>
        <time>2022-06-12T10:41:48.998Z</time>
      </trkpt>
      <trkpt lat="44.25756" lon="2.50885">
        <ele>629</ele>
        <time>2022-06-12T10:41:49.998Z</time>
      </trkpt>
      <trkpt lat="44.25755" lon="2.50885">
        <ele>629</ele>
        <time>2022-06-12T10:41:50.998Z</time>
      </trkpt>
      <trkpt lat="44.25754" lon="2.50885">
        <ele>629</ele>
        <time>2022-06-12T10:41:51.998Z</time>
      </trkpt>
      <trkpt lat="44.25752" lon="2.50885">
        <ele>629</ele>
        <time>2022-06-12T10:41:52.998Z</time>
      </trkpt>
      <trkpt lat="44.25751" lon="2.50885">
        <ele>629</ele>
        <time>2022-06-12T10:41:53.998Z</time>
      </trkpt>
      <trkpt lat="44.2575" lon="2.50885">
        <ele>629</ele>
        <time>2022-06-12T10:41:54.998Z</time>
      </trkpt>
      <trkpt lat="44.25749" lon="2.50885">
        <ele>629</ele>
        <time>2022-06-12T10:41:55.998Z</time>
      </trkpt>
      <trkpt lat="44.25748" lon="2.50885">
        <ele>629</ele>
        <time>2022-06-12T10:41:56.998Z</time>
      </trkpt>
      <trkpt lat="44.25747" lon="2.50885">
        <ele>629</ele>
        <time>2022-06-12T10:41:57.998Z</time>
      </trkpt>
      <trkpt lat="44.25746" lon="2.50885">
        <ele>629</ele>
        <time>2022-06-12T10:41:58.998Z</time>
      </trkpt>
      <trkpt lat="44.25744" lon="2.50885">
        <ele>629</ele>
        <time>2022-06-12T10:41:59.998Z</time>
      </trkpt>
      <trkpt lat="44.25743" lon="2.50885">
        <ele>629</ele>
        <time>2022-06-12T10:42:00.998Z</time>
      </trkpt>
      <trkpt lat="44.25742" lon="2.50886">
        <ele>630</ele>
        <time>2022-06-12T10:42:01.998Z</time>
      </trkpt>
      <trkpt lat="44.25741" lon="2.50886">
        <ele>630</ele>
        <time>2022-06-12T10:42:02.998Z</time>
      </trkpt>
      <trkpt lat="44.2574" lon="2.50886">
        <ele>630</ele>
        <time>2022-06-12T10:42:03.998Z</time>
      </trkpt>
      <trkpt lat="44.25739" lon="2.50885">
        <ele>630</ele>
        <time>2022-06-12T10:42:04.998Z</time>
      </trkpt>
      <trkpt lat="44.25738" lon="2.50885">
        <ele>630</ele>
        <time>2022-06-12T10:42:05.998Z</time>
      </trkpt>
      <trkpt lat="44.25737" lon="2.50885">
        <ele>631</ele>
        <time>2022-06-12T10:42:06.998Z</time>
      </trkpt>
      <trkpt lat="44.25736" lon="2.50885">
        <ele>631</ele>
        <time>2022-06-12T10:42:07.998Z</time>
      </trkpt>
      <trkpt lat="44.25736" lon="2.50885">
        <ele>631</ele>
        <time>2022-06-12T10:42:08.998Z</time>
      </trkpt>
      <trkpt lat="44.25735" lon="2.50885">
        <ele>631</ele>
        <time>2022-06-12T10:42:09.998Z</time>
      </trkpt>
      <trkpt lat="44.25734" lon="2.50884">
        <ele>631</ele>
        <time>2022-06-12T10:42:10.998Z</time>
      </trkpt>
      <trkpt lat="44.25734" lon="2.50884">
        <ele>631</ele>
        <time>2022-06-12T10:42:11.998Z</time>
      </trkpt>
      <trkpt lat="44.25733" lon="2.50883">
        <ele>631</ele>
        <time>2022-06-12T10:42:12.998Z</time>
      </trkpt>
      <trkpt lat="44.25733" lon="2.50883">
        <ele>631</ele>
        <time>2022-06-12T10:42:13.998Z</time>
      </trkpt>
      <trkpt lat="44.25732" lon="2.50882">
        <ele>631</ele>
        <time>2022-06-12T10:42:14.998Z</time>
      </trkpt>
      <trkpt lat="44.25731" lon="2.50882">
        <ele>631</ele>
        <time>2022-06-12T10:42:15.998Z</time>
      </trkpt>
      <trkpt lat="44.2573" lon="2.50881">
        <ele>631</ele>
        <time>2022-06-12T10:42:16.998Z</time>
      </trkpt>
      <trkpt lat="44.25729" lon="2.50881">
        <ele>631</ele>
        <time>2022-06-12T10:42:17.998Z</time>
      </trkpt>
      <trkpt lat="44.25729" lon="2.5088">
        <ele>631</ele>
        <time>2022-06-12T10:42:18.998Z</time>
      </trkpt>
      <trkpt lat="44.25728" lon="2.5088">
        <ele>631</ele>
        <time>2022-06-12T10:42:19.998Z</time>
      </trkpt>
      <trkpt lat="44.25728" lon="2.50879">
        <ele>632</ele>
        <time>2022-06-12T10:42:20.998Z</time>
      </trkpt>
      <trkpt lat="44.25727" lon="2.50878">
        <ele>632</ele>
        <time>2022-06-12T10:42:21.998Z</time>
      </trkpt>
      <trkpt lat="44.25726" lon="2.50878">
        <ele>632</ele>
        <time>2022-06-12T10:42:22.998Z</time>
      </trkpt>
      <trkpt lat="44.25725" lon="2.50877">
        <ele>632</ele>
        <time>2022-06-12T10:42:23.998Z</time>
      </trkpt>
      <trkpt lat="44.25724" lon="2.50877">
        <ele>632</ele>
        <time>2022-06-12T10:42:24.998Z</time>
      </trkpt>
      <trkpt lat="44.25723" lon="2.50876">
        <ele>632</ele>
        <time>2022-06-12T10:42:25.998Z</time>
      </trkpt>
      <trkpt lat="44.25722" lon="2.50876">
        <ele>632</ele>
        <time>2022-06-12T10:42:26.998Z</time>
      </trkpt>
      <trkpt lat="44.25721" lon="2.50876">
        <ele>632</ele>
        <time>2022-06-12T10:42:27.998Z</time>
      </trkpt>
      <trkpt lat="44.2572" lon="2.50876">
        <ele>632</ele>
        <time>2022-06-12T10:42:28.998Z</time>
      </trkpt>
      <trkpt lat="44.25719" lon="2.50876">
        <ele>632</ele>
        <time>2022-06-12T10:42:29.998Z</time>
      </trkpt>
      <trkpt lat="44.25718" lon="2.50877">
        <ele>632</ele>
        <time>2022-06-12T10:42:30.998Z</time>
      </trkpt>
      <trkpt lat="44.25718" lon="2.50878">
        <ele>632</ele>
        <time>2022-06-12T10:42:31.998Z</time>
      </trkpt>
      <trkpt lat="44.25717" lon="2.50879">
        <ele>632</ele>
        <time>2022-06-12T10:42:32.998Z</time>
      </trkpt>
      <trkpt lat="44.25716" lon="2.50879">
        <ele>632</ele>
        <time>2022-06-12T10:42:33.998Z</time>
      </trkpt>
      <trkpt lat="44.25716" lon="2.50881">
        <ele>632</ele>
        <time>2022-06-12T10:42:34.998Z</time>
      </trkpt>
      <trkpt lat="44.25715" lon="2.50882">
        <ele>632</ele>
        <time>2022-06-12T10:42:35.998Z</time>
      </trkpt>
      <trkpt lat="44.25715" lon="2.50883">
        <ele>632</ele>
        <time>2022-06-12T10:42:36.998Z</time>
      </trkpt>
      <trkpt lat="44.25714" lon="2.50884">
        <ele>632</ele>
        <time>2022-06-12T10:42:37.998Z</time>
      </trkpt>
      <trkpt lat="44.25714" lon="2.50885">
        <ele>632</ele>
        <time>2022-06-12T10:42:38.998Z</time>
      </trkpt>
      <trkpt lat="44.25714" lon="2.50887">
        <ele>632</ele>
        <time>2022-06-12T10:42:39.998Z</time>
      </trkpt>
      <trkpt lat="44.25713" lon="2.50888">
        <ele>632</ele>
        <time>2022-06-12T10:42:40.998Z</time>
      </trkpt>
      <trkpt lat="44.25713" lon="2.5089">
        <ele>633</ele>
        <time>2022-06-12T10:42:41.998Z</time>
      </trkpt>
      <trkpt lat="44.25712" lon="2.50891">
        <ele>633</ele>
        <time>2022-06-12T10:42:42.998Z</time>
      </trkpt>
      <trkpt lat="44.25712" lon="2.50893">
        <ele>633</ele>
        <time>2022-06-12T10:42:43.998Z</time>
      </trkpt>
      <trkpt lat="44.25711" lon="2.50894">
        <ele>633</ele>
        <time>2022-06-12T10:42:44.998Z</time>
      </trkpt>
      <trkpt lat="44.25711" lon="2.50896">
        <ele>633</ele>
        <time>2022-06-12T10:42:45.998Z</time>
      </trkpt>
      <trkpt lat="44.25711" lon="2.50897">
        <ele>633</ele>
        <time>2022-06-12T10:42:46.998Z</time>
      </trkpt>
      <trkpt lat="44.2571" lon="2.50898">
        <ele>633</ele>
        <time>2022-06-12T10:42:47.998Z</time>
      </trkpt>
      <trkpt lat="44.2571" lon="2.50899">
        <ele>633</ele>
        <time>2022-06-12T10:42:48.998Z</time>
      </trkpt>
      <trkpt lat="44.2571" lon="2.50901">
        <ele>633</ele>
        <time>2022-06-12T10:42:49.998Z</time>
      </trkpt>
      <trkpt lat="44.25709" lon="2.50902">
        <ele>633</ele>
        <time>2022-06-12T10:42:50.998Z</time>
      </trkpt>
      <trkpt lat="44.25708" lon="2.50903">
        <ele>633</ele>
        <time>2022-06-12T10:42:51.998Z</time>
      </trkpt>
      <trkpt lat="44.25708" lon="2.50905">
        <ele>633</ele>
        <time>2022-06-12T10:42:52.998Z</time>
      </trkpt>
      <trkpt lat="44.25707" lon="2.50906">
        <ele>633</ele>
        <time>2022-06-12T10:42:53.998Z</time>
      </trkpt>
      <trkpt lat="44.25707" lon="2.50907">
        <ele>633</ele>
        <time>2022-06-12T10:42:54.998Z</time>
      </trkpt>
      <trkpt lat="44.25706" lon="2.50908">
        <ele>633</ele>
        <time>2022-06-12T10:42:55.998Z</time>
      </trkpt>
      <trkpt lat="44.25705" lon="2.50909">
        <ele>633</ele>
        <time>2022-06-12T10:42:56.998Z</time>
      </trkpt>
      <trkpt lat="44.25705" lon="2.5091">
        <ele>633</ele>
        <time>2022-06-12T10:42:57.998Z</time>
      </trkpt>
      <trkpt lat="44.25704" lon="2.50911">
        <ele>633</ele>
        <time>2022-06-12T10:42:58.998Z</time>
      </trkpt>
      <trkpt lat="44.25703" lon="2.50912">
        <ele>633</ele>
        <time>2022-06-12T10:42:59.998Z</time>
      </trkpt>
      <trkpt lat="44.25702" lon="2.50913">
        <ele>632</ele>
        <time>2022-06-12T10:43:00.998Z</time>
      </trkpt>
      <trkpt lat="44.25701" lon="2.50914">
        <ele>632</ele>
        <time>2022-06-12T10:43:01.998Z</time>
      </trkpt>
      <trkpt lat="44.257" lon="2.50915">
        <ele>632</ele>
        <time>2022-06-12T10:43:02.998Z</time>
      </trkpt>
      <trkpt lat="44.25698" lon="2.50915">
        <ele>632</ele>
        <time>2022-06-12T10:43:03.998Z</time>
      </trkpt>
      <trkpt lat="44.25697" lon="2.50915">
        <ele>631</ele>
        <time>2022-06-12T10:43:04.998Z</time>
      </trkpt>
      <trkpt lat="44.25696" lon="2.50916">
        <ele>631</ele>
        <time>2022-06-12T10:43:05.998Z</time>
      </trkpt>
      <trkpt lat="44.25696" lon="2.50917">
        <ele>631</ele>
        <time>2022-06-12T10:43:06.998Z</time>
      </trkpt>
      <trkpt lat="44.25695" lon="2.50917">
        <ele>631</ele>
        <time>2022-06-12T10:43:07.998Z</time>
      </trkpt>
      <trkpt lat="44.25694" lon="2.50918">
        <ele>631</ele>
        <time>2022-06-12T10:43:08.998Z</time>
      </trkpt>
      <trkpt lat="44.25693" lon="2.50919">
        <ele>630</ele>
        <time>2022-06-12T10:43:09.998Z</time>
      </trkpt>
      <trkpt lat="44.25692" lon="2.5092">
        <ele>630</ele>
        <time>2022-06-12T10:43:10.998Z</time>
      </trkpt>
      <trkpt lat="44.25691" lon="2.50921">
        <ele>630</ele>
        <time>2022-06-12T10:43:11.998Z</time>
      </trkpt>
      <trkpt lat="44.2569" lon="2.50922">
        <ele>630</ele>
        <time>2022-06-12T10:43:12.998Z</time>
      </trkpt>
      <trkpt lat="44.2569" lon="2.50923">
        <ele>630</ele>
        <time>2022-06-12T10:43:13.998Z</time>
      </trkpt>
      <trkpt lat="44.25689" lon="2.50924">
        <ele>630</ele>
        <time>2022-06-12T10:43:14.998Z</time>
      </trkpt>
      <trkpt lat="44.25688" lon="2.50924">
        <ele>630</ele>
        <time>2022-06-12T10:43:15.998Z</time>
      </trkpt>
      <trkpt lat="44.25687" lon="2.50925">
        <ele>630</ele>
        <time>2022-06-12T10:43:16.998Z</time>
      </trkpt>
      <trkpt lat="44.25686" lon="2.50926">
        <ele>630</ele>
        <time>2022-06-12T10:43:17.998Z</time>
      </trkpt>
      <trkpt lat="44.25685" lon="2.50926">
        <ele>629</ele>
        <time>2022-06-12T10:43:18.998Z</time>
      </trkpt>
      <trkpt lat="44.25684" lon="2.50927">
        <ele>629</ele>
        <time>2022-06-12T10:43:19.998Z</time>
      </trkpt>
      <trkpt lat="44.25683" lon="2.50928">
        <ele>629</ele>
        <time>2022-06-12T10:43:20.998Z</time>
      </trkpt>
      <trkpt lat="44.25683" lon="2.50929">
        <ele>629</ele>
        <time>2022-06-12T10:43:21.998Z</time>
      </trkpt>
      <trkpt lat="44.25682" lon="2.50929">
        <ele>629</ele>
        <time>2022-06-12T10:43:22.998Z</time>
      </trkpt>
      <trkpt lat="44.25681" lon="2.5093">
        <ele>628</ele>
        <time>2022-06-12T10:43:23.998Z</time>
      </trkpt>
      <trkpt lat="44.2568" lon="2.50931">
        <ele>628</ele>
        <time>2022-06-12T10:43:24.998Z</time>
      </trkpt>
      <trkpt lat="44.25679" lon="2.50931">
        <ele>628</ele>
        <time>2022-06-12T10:43:25.998Z</time>
      </trkpt>
      <trkpt lat="44.25679" lon="2.50932">
        <ele>628</ele>
        <time>2022-06-12T10:43:26.998Z</time>
      </trkpt>
      <trkpt lat="44.25678" lon="2.50932">
        <ele>628</ele>
        <time>2022-06-12T10:43:27.998Z</time>
      </trkpt>
      <trkpt lat="44.25678" lon="2.50933">
        <ele>628</ele>
        <time>2022-06-12T10:43:28.998Z</time>
      </trkpt>
      <trkpt lat="44.25677" lon="2.50933">
        <ele>628</ele>
        <time>2022-06-12T10:43:29.998Z</time>
      </trkpt>
      <trkpt lat="44.25676" lon="2.50934">
        <ele>628</ele>
        <time>2022-06-12T10:43:30.998Z</time>
      </trkpt>
      <trkpt lat="44.25676" lon="2.50935">
        <ele>628</ele>
        <time>2022-06-12T10:43:31.998Z</time>
      </trkpt>
      <trkpt lat="44.25675" lon="2.50935">
        <ele>628</ele>
        <time>2022-06-12T10:43:32.998Z</time>
      </trkpt>
      <trkpt lat="44.25674" lon="2.50936">
        <ele>628</ele>
        <time>2022-06-12T10:43:33.998Z</time>
      </trkpt>
      <trkpt lat="44.25673" lon="2.50936">
        <ele>628</ele>
        <time>2022-06-12T10:43:34.998Z</time>
      </trkpt>
      <trkpt lat="44.25672" lon="2.50937">
        <ele>628</ele>
        <time>2022-06-12T10:43:35.998Z</time>
      </trkpt>
      <trkpt lat="44.25671" lon="2.50938">
        <ele>628</ele>
        <time>2022-06-12T10:43:36.998Z</time>
      </trkpt>
      <trkpt lat="44.2567" lon="2.50939">
        <ele>628</ele>
        <time>2022-06-12T10:43:37.998Z</time>
      </trkpt>
      <trkpt lat="44.25669" lon="2.50939">
        <ele>628</ele>
        <time>2022-06-12T10:43:38.998Z</time>
      </trkpt>
      <trkpt lat="44.25668" lon="2.5094">
        <ele>628</ele>
        <time>2022-06-12T10:43:39.998Z</time>
      </trkpt>
      <trkpt lat="44.25668" lon="2.50941">
        <ele>628</ele>
        <time>2022-06-12T10:43:40.998Z</time>
      </trkpt>
      <trkpt lat="44.25667" lon="2.50941">
        <ele>627</ele>
        <time>2022-06-12T10:43:41.998Z</time>
      </trkpt>
      <trkpt lat="44.25666" lon="2.50942">
        <ele>627</ele>
        <time>2022-06-12T10:43:42.998Z</time>
      </trkpt>
      <trkpt lat="44.25665" lon="2.50943">
        <ele>627</ele>
        <time>2022-06-12T10:43:43.998Z</time>
      </trkpt>
      <trkpt lat="44.25664" lon="2.50943">
        <ele>627</ele>
        <time>2022-06-12T10:43:44.998Z</time>
      </trkpt>
      <trkpt lat="44.25663" lon="2.50944">
        <ele>627</ele>
        <time>2022-06-12T10:43:45.998Z</time>
      </trkpt>
      <trkpt lat="44.25661" lon="2.50945">
        <ele>627</ele>
        <time>2022-06-12T10:43:46.998Z</time>
      </trkpt>
      <trkpt lat="44.2566" lon="2.50946">
        <ele>627</ele>
        <time>2022-06-12T10:43:47.998Z</time>
      </trkpt>
      <trkpt lat="44.25659" lon="2.50946">
        <ele>627</ele>
        <time>2022-06-12T10:43:48.998Z</time>
      </trkpt>
      <trkpt lat="44.25658" lon="2.50947">
        <ele>627</ele>
        <time>2022-06-12T10:43:49.998Z</time>
      </trkpt>
      <trkpt lat="44.25657" lon="2.50947">
        <ele>626</ele>
        <time>2022-06-12T10:43:50.998Z</time>
      </trkpt>
      <trkpt lat="44.25656" lon="2.50948">
        <ele>626</ele>
        <time>2022-06-12T10:43:51.998Z</time>
      </trkpt>
      <trkpt lat="44.25654" lon="2.50949">
        <ele>626</ele>
        <time>2022-06-12T10:43:52.998Z</time>
      </trkpt>
      <trkpt lat="44.25653" lon="2.5095">
        <ele>626</ele>
        <time>2022-06-12T10:43:53.998Z</time>
      </trkpt>
      <trkpt lat="44.25651" lon="2.50951">
        <ele>626</ele>
        <time>2022-06-12T10:43:54.998Z</time>
      </trkpt>
      <trkpt lat="44.2565" lon="2.50951">
        <ele>626</ele>
        <time>2022-06-12T10:43:55.998Z</time>
      </trkpt>
      <trkpt lat="44.25648" lon="2.50952">
        <ele>626</ele>
        <time>2022-06-12T10:43:56.998Z</time>
      </trkpt>
      <trkpt lat="44.25647" lon="2.50952">
        <ele>625</ele>
        <time>2022-06-12T10:43:57.998Z</time>
      </trkpt>
      <trkpt lat="44.25646" lon="2.50953">
        <ele>625</ele>
        <time>2022-06-12T10:43:58.998Z</time>
      </trkpt>
      <trkpt lat="44.25645" lon="2.50953">
        <ele>625</ele>
        <time>2022-06-12T10:43:59.998Z</time>
      </trkpt>
      <trkpt lat="44.25645" lon="2.50953">
        <ele>625</ele>
        <time>2022-06-12T10:44:00.998Z</time>
      </trkpt>
      <trkpt lat="44.25644" lon="2.50954">
        <ele>625</ele>
        <time>2022-06-12T10:44:01.998Z</time>
      </trkpt>
      <trkpt lat="44.25643" lon="2.50954">
        <ele>625</ele>
        <time>2022-06-12T10:44:02.998Z</time>
      </trkpt>
      <trkpt lat="44.25642" lon="2.50954">
        <ele>625</ele>
        <time>2022-06-12T10:44:03.998Z</time>
      </trkpt>
      <trkpt lat="44.25641" lon="2.50955">
        <ele>625</ele>
        <time>2022-06-12T10:44:04.998Z</time>
      </trkpt>
      <trkpt lat="44.2564" lon="2.50955">
        <ele>625</ele>
        <time>2022-06-12T10:44:05.998Z</time>
      </trkpt>
      <trkpt lat="44.25639" lon="2.50955">
        <ele>625</ele>
        <time>2022-06-12T10:44:06.998Z</time>
      </trkpt>
      <trkpt lat="44.25639" lon="2.50956">
        <ele>625</ele>
        <time>2022-06-12T10:44:07.998Z</time>
      </trkpt>
      <trkpt lat="44.25638" lon="2.50956">
        <ele>625</ele>
        <time>2022-06-12T10:44:08.998Z</time>
      </trkpt>
      <trkpt lat="44.25637" lon="2.50957">
        <ele>625</ele>
        <time>2022-06-12T10:44:09.998Z</time>
      </trkpt>
      <trkpt lat="44.25636" lon="2.50957">
        <ele>625</ele>
        <time>2022-06-12T10:44:10.998Z</time>
      </trkpt>
      <trkpt lat="44.25635" lon="2.50957">
        <ele>625</ele>
        <time>2022-06-12T10:44:11.998Z</time>
      </trkpt>
      <trkpt lat="44.25634" lon="2.50957">
        <ele>625</ele>
        <time>2022-06-12T10:44:12.998Z</time>
      </trkpt>
      <trkpt lat="44.25633" lon="2.50957">
        <ele>626</ele>
        <time>2022-06-12T10:44:13.998Z</time>
      </trkpt>
      <trkpt lat="44.25632" lon="2.50957">
        <ele>626</ele>
        <time>2022-06-12T10:44:14.998Z</time>
      </trkpt>
      <trkpt lat="44.25631" lon="2.50958">
        <ele>626</ele>
        <time>2022-06-12T10:44:15.998Z</time>
      </trkpt>
      <trkpt lat="44.25629" lon="2.50958">
        <ele>626</ele>
        <time>2022-06-12T10:44:16.998Z</time>
      </trkpt>
      <trkpt lat="44.25628" lon="2.50959">
        <ele>626</ele>
        <time>2022-06-12T10:44:17.998Z</time>
      </trkpt>
      <trkpt lat="44.25627" lon="2.50959">
        <ele>626</ele>
        <time>2022-06-12T10:44:18.998Z</time>
      </trkpt>
      <trkpt lat="44.25626" lon="2.50959">
        <ele>626</ele>
        <time>2022-06-12T10:44:19.998Z</time>
      </trkpt>
      <trkpt lat="44.25625" lon="2.50959">
        <ele>626</ele>
        <time>2022-06-12T10:44:20.998Z</time>
      </trkpt>
      <trkpt lat="44.25624" lon="2.50959">
        <ele>626</ele>
        <time>2022-06-12T10:44:21.998Z</time>
      </trkpt>
      <trkpt lat="44.25623" lon="2.50959">
        <ele>625</ele>
        <time>2022-06-12T10:44:22.998Z</time>
      </trkpt>
      <trkpt lat="44.25622" lon="2.5096">
        <ele>625</ele>
        <time>2022-06-12T10:44:23.998Z</time>
      </trkpt>
      <trkpt lat="44.25621" lon="2.5096">
        <ele>625</ele>
        <time>2022-06-12T10:44:24.998Z</time>
      </trkpt>
      <trkpt lat="44.25619" lon="2.50961">
        <ele>625</ele>
        <time>2022-06-12T10:44:25.998Z</time>
      </trkpt>
      <trkpt lat="44.25618" lon="2.50961">
        <ele>625</ele>
        <time>2022-06-12T10:44:26.998Z</time>
      </trkpt>
      <trkpt lat="44.25617" lon="2.50961">
        <ele>625</ele>
        <time>2022-06-12T10:44:27.998Z</time>
      </trkpt>
      <trkpt lat="44.25615" lon="2.50962">
        <ele>625</ele>
        <time>2022-06-12T10:44:28.998Z</time>
      </trkpt>
      <trkpt lat="44.25614" lon="2.50962">
        <ele>625</ele>
        <time>2022-06-12T10:44:29.998Z</time>
      </trkpt>
      <trkpt lat="44.25613" lon="2.50962">
        <ele>625</ele>
        <time>2022-06-12T10:44:30.998Z</time>
      </trkpt>
      <trkpt lat="44.25611" lon="2.50962">
        <ele>625</ele>
        <time>2022-06-12T10:44:31.998Z</time>
      </trkpt>
      <trkpt lat="44.2561" lon="2.50963">
        <ele>625</ele>
        <time>2022-06-12T10:44:32.998Z</time>
      </trkpt>
      <trkpt lat="44.25609" lon="2.50963">
        <ele>625</ele>
        <time>2022-06-12T10:44:33.998Z</time>
      </trkpt>
      <trkpt lat="44.25608" lon="2.50964">
        <ele>625</ele>
        <time>2022-06-12T10:44:34.998Z</time>
      </trkpt>
      <trkpt lat="44.25607" lon="2.50964">
        <ele>625</ele>
        <time>2022-06-12T10:44:35.998Z</time>
      </trkpt>
      <trkpt lat="44.25606" lon="2.50965">
        <ele>625</ele>
        <time>2022-06-12T10:44:36.998Z</time>
      </trkpt>
      <trkpt lat="44.25605" lon="2.50966">
        <ele>625</ele>
        <time>2022-06-12T10:44:37.998Z</time>
      </trkpt>
      <trkpt lat="44.25605" lon="2.50967">
        <ele>625</ele>
        <time>2022-06-12T10:44:38.998Z</time>
      </trkpt>
      <trkpt lat="44.25604" lon="2.50968">
        <ele>625</ele>
        <time>2022-06-12T10:44:39.998Z</time>
      </trkpt>
      <trkpt lat="44.25603" lon="2.50968">
        <ele>625</ele>
        <time>2022-06-12T10:44:40.998Z</time>
      </trkpt>
      <trkpt lat="44.25602" lon="2.50969">
        <ele>625</ele>
        <time>2022-06-12T10:44:41.998Z</time>
      </trkpt>
      <trkpt lat="44.25601" lon="2.5097">
        <ele>625</ele>
        <time>2022-06-12T10:44:42.998Z</time>
      </trkpt>
      <trkpt lat="44.256" lon="2.50971">
        <ele>625</ele>
        <time>2022-06-12T10:44:43.998Z</time>
      </trkpt>
      <trkpt lat="44.25599" lon="2.50971">
        <ele>625</ele>
        <time>2022-06-12T10:44:44.998Z</time>
      </trkpt>
      <trkpt lat="44.25598" lon="2.50972">
        <ele>625</ele>
        <time>2022-06-12T10:44:45.998Z</time>
      </trkpt>
      <trkpt lat="44.25597" lon="2.50973">
        <ele>625</ele>
        <time>2022-06-12T10:44:46.998Z</time>
      </trkpt>
      <trkpt lat="44.25596" lon="2.50973">
        <ele>625</ele>
        <time>2022-06-12T10:44:47.998Z</time>
      </trkpt>
      <trkpt lat="44.25595" lon="2.50974">
        <ele>625</ele>
        <time>2022-06-12T10:44:48.998Z</time>
      </trkpt>
      <trkpt lat="44.25595" lon="2.50975">
        <ele>626</ele>
        <time>2022-06-12T10:44:49.998Z</time>
      </trkpt>
      <trkpt lat="44.25594" lon="2.50976">
        <ele>626</ele>
        <time>2022-06-12T10:44:50.998Z</time>
      </trkpt>
      <trkpt lat="44.25593" lon="2.50977">
        <ele>626</ele>
        <time>2022-06-12T10:44:51.998Z</time>
      </trkpt>
      <trkpt lat="44.25592" lon="2.50978">
        <ele>626</ele>
        <time>2022-06-12T10:44:52.998Z</time>
      </trkpt>
      <trkpt lat="44.25591" lon="2.50978">
        <ele>626</ele>
        <time>2022-06-12T10:44:53.998Z</time>
      </trkpt>
      <trkpt lat="44.2559" lon="2.50979">
        <ele>626</ele>
        <time>2022-06-12T10:44:54.998Z</time>
      </trkpt>
      <trkpt lat="44.25589" lon="2.5098">
        <ele>626</ele>
        <time>2022-06-12T10:44:55.998Z</time>
      </trkpt>
      <trkpt lat="44.25588" lon="2.50981">
        <ele>627</ele>
        <time>2022-06-12T10:44:56.998Z</time>
      </trkpt>
      <trkpt lat="44.25587" lon="2.50982">
        <ele>627</ele>
        <time>2022-06-12T10:44:57.998Z</time>
      </trkpt>
      <trkpt lat="44.25586" lon="2.50983">
        <ele>627</ele>
        <time>2022-06-12T10:44:58.998Z</time>
      </trkpt>
      <trkpt lat="44.25585" lon="2.50983">
        <ele>627</ele>
        <time>2022-06-12T10:44:59.998Z</time>
      </trkpt>
      <trkpt lat="44.25584" lon="2.50984">
        <ele>627</ele>
        <time>2022-06-12T10:45:00.998Z</time>
      </trkpt>
      <trkpt lat="44.25583" lon="2.50985">
        <ele>627</ele>
        <time>2022-06-12T10:45:01.998Z</time>
      </trkpt>
      <trkpt lat="44.25581" lon="2.50986">
        <ele>627</ele>
        <time>2022-06-12T10:45:02.998Z</time>
      </trkpt>
      <trkpt lat="44.2558" lon="2.50987">
        <ele>627</ele>
        <time>2022-06-12T10:45:03.998Z</time>
      </trkpt>
      <trkpt lat="44.25579" lon="2.50988">
        <ele>627</ele>
        <time>2022-06-12T10:45:04.998Z</time>
      </trkpt>
      <trkpt lat="44.25578" lon="2.50989">
        <ele>627</ele>
        <time>2022-06-12T10:45:05.998Z</time>
      </trkpt>
      <trkpt lat="44.25577" lon="2.50989">
        <ele>627</ele>
        <time>2022-06-12T10:45:06.998Z</time>
      </trkpt>
      <trkpt lat="44.25575" lon="2.5099">
        <ele>627</ele>
        <time>2022-06-12T10:45:07.998Z</time>
      </trkpt>
      <trkpt lat="44.25574" lon="2.50991">
        <ele>627</ele>
        <time>2022-06-12T10:45:08.998Z</time>
      </trkpt>
      <trkpt lat="44.25573" lon="2.50991">
        <ele>627</ele>
        <time>2022-06-12T10:45:09.998Z</time>
      </trkpt>
      <trkpt lat="44.25572" lon="2.50992">
        <ele>627</ele>
        <time>2022-06-12T10:45:10.998Z</time>
      </trkpt>
      <trkpt lat="44.25572" lon="2.50992">
        <ele>627</ele>
        <time>2022-06-12T10:45:11.998Z</time>
      </trkpt>
      <trkpt lat="44.25571" lon="2.50993">
        <ele>627</ele>
        <time>2022-06-12T10:45:12.998Z</time>
      </trkpt>
      <trkpt lat="44.2557" lon="2.50993">
        <ele>627</ele>
        <time>2022-06-12T10:45:13.998Z</time>
      </trkpt>
      <trkpt lat="44.2557" lon="2.50994">
        <ele>627</ele>
        <time>2022-06-12T10:45:14.998Z</time>
      </trkpt>
      <trkpt lat="44.25569" lon="2.50994">
        <ele>627</ele>
        <time>2022-06-12T10:45:15.998Z</time>
      </trkpt>
      <trkpt lat="44.25569" lon="2.50995">
        <ele>627</ele>
        <time>2022-06-12T10:45:16.998Z</time>
      </trkpt>
      <trkpt lat="44.25567" lon="2.50997">
        <ele>627</ele>
        <time>2022-06-12T10:45:20.252Z</time>
      </trkpt>
      <trkpt lat="44.25567" lon="2.50998">
        <ele>627</ele>
        <time>2022-06-12T10:45:21.252Z</time>
      </trkpt>
      <trkpt lat="44.25566" lon="2.50998">
        <ele>627</ele>
        <time>2022-06-12T10:45:22.252Z</time>
      </trkpt>
      <trkpt lat="44.25565" lon="2.50998">
        <ele>628</ele>
        <time>2022-06-12T10:45:23.252Z</time>
      </trkpt>
      <trkpt lat="44.25564" lon="2.50998">
        <ele>628</ele>
        <time>2022-06-12T10:45:24.252Z</time>
      </trkpt>
      <trkpt lat="44.25564" lon="2.50999">
        <ele>628</ele>
        <time>2022-06-12T10:45:25.252Z</time>
      </trkpt>
      <trkpt lat="44.25563" lon="2.51">
        <ele>628</ele>
        <time>2022-06-12T10:45:26.252Z</time>
      </trkpt>
      <trkpt lat="44.25562" lon="2.51">
        <ele>628</ele>
        <time>2022-06-12T10:45:27.252Z</time>
      </trkpt>
      <trkpt lat="44.25561" lon="2.51001">
        <ele>628</ele>
        <time>2022-06-12T10:45:28.252Z</time>
      </trkpt>
      <trkpt lat="44.2556" lon="2.51002">
        <ele>628</ele>
        <time>2022-06-12T10:45:29.252Z</time>
      </trkpt>
      <trkpt lat="44.25559" lon="2.51002">
        <ele>628</ele>
        <time>2022-06-12T10:45:30.252Z</time>
      </trkpt>
      <trkpt lat="44.25558" lon="2.51003">
        <ele>628</ele>
        <time>2022-06-12T10:45:31.252Z</time>
      </trkpt>
      <trkpt lat="44.25557" lon="2.51004">
        <ele>629</ele>
        <time>2022-06-12T10:45:32.252Z</time>
      </trkpt>
      <trkpt lat="44.25556" lon="2.51005">
        <ele>629</ele>
        <time>2022-06-12T10:45:33.252Z</time>
      </trkpt>
      <trkpt lat="44.25555" lon="2.51006">
        <ele>629</ele>
        <time>2022-06-12T10:45:34.252Z</time>
      </trkpt>
      <trkpt lat="44.25554" lon="2.51007">
        <ele>629</ele>
        <time>2022-06-12T10:45:35.252Z</time>
      </trkpt>
      <trkpt lat="44.25553" lon="2.51008">
        <ele>629</ele>
        <time>2022-06-12T10:45:36.252Z</time>
      </trkpt>
      <trkpt lat="44.25552" lon="2.51008">
        <ele>629</ele>
        <time>2022-06-12T10:45:37.252Z</time>
      </trkpt>
      <trkpt lat="44.25551" lon="2.51009">
        <ele>629</ele>
        <time>2022-06-12T10:45:38.252Z</time>
      </trkpt>
      <trkpt lat="44.2555" lon="2.5101">
        <ele>629</ele>
        <time>2022-06-12T10:45:39.252Z</time>
      </trkpt>
      <trkpt lat="44.25549" lon="2.51011">
        <ele>629</ele>
        <time>2022-06-12T10:45:40.252Z</time>
      </trkpt>
      <trkpt lat="44.25548" lon="2.51011">
        <ele>629</ele>
        <time>2022-06-12T10:45:41.252Z</time>
      </trkpt>
      <trkpt lat="44.25546" lon="2.51012">
        <ele>629</ele>
        <time>2022-06-12T10:45:42.252Z</time>
      </trkpt>
      <trkpt lat="44.25545" lon="2.51013">
        <ele>629</ele>
        <time>2022-06-12T10:45:43.252Z</time>
      </trkpt>
      <trkpt lat="44.25544" lon="2.51014">
        <ele>629</ele>
        <time>2022-06-12T10:45:44.252Z</time>
      </trkpt>
      <trkpt lat="44.25543" lon="2.51014">
        <ele>629</ele>
        <time>2022-06-12T10:45:45.252Z</time>
      </trkpt>
      <trkpt lat="44.25542" lon="2.51015">
        <ele>629</ele>
        <time>2022-06-12T10:45:46.252Z</time>
      </trkpt>
      <trkpt lat="44.25541" lon="2.51015">
        <ele>629</ele>
        <time>2022-06-12T10:45:47.252Z</time>
      </trkpt>
      <trkpt lat="44.2554" lon="2.51016">
        <ele>630</ele>
        <time>2022-06-12T10:45:48.252Z</time>
      </trkpt>
      <trkpt lat="44.2554" lon="2.51016">
        <ele>630</ele>
        <time>2022-06-12T10:45:49.252Z</time>
      </trkpt>
      <trkpt lat="44.25539" lon="2.51017">
        <ele>630</ele>
        <time>2022-06-12T10:45:50.252Z</time>
      </trkpt>
      <trkpt lat="44.25538" lon="2.51018">
        <ele>630</ele>
        <time>2022-06-12T10:45:51.252Z</time>
      </trkpt>
      <trkpt lat="44.25537" lon="2.51018">
        <ele>630</ele>
        <time>2022-06-12T10:45:52.252Z</time>
      </trkpt>
      <trkpt lat="44.25536" lon="2.51019">
        <ele>630</ele>
        <time>2022-06-12T10:45:53.252Z</time>
      </trkpt>
      <trkpt lat="44.25535" lon="2.51019">
        <ele>631</ele>
        <time>2022-06-12T10:45:54.252Z</time>
      </trkpt>
      <trkpt lat="44.25534" lon="2.5102">
        <ele>631</ele>
        <time>2022-06-12T10:45:55.252Z</time>
      </trkpt>
      <trkpt lat="44.25534" lon="2.5102">
        <ele>631</ele>
        <time>2022-06-12T10:45:56.252Z</time>
      </trkpt>
      <trkpt lat="44.25533" lon="2.51021">
        <ele>631</ele>
        <time>2022-06-12T10:45:57.252Z</time>
      </trkpt>
      <trkpt lat="44.25532" lon="2.51022">
        <ele>631</ele>
        <time>2022-06-12T10:45:58.252Z</time>
      </trkpt>
      <trkpt lat="44.25532" lon="2.51022">
        <ele>632</ele>
        <time>2022-06-12T10:45:59.252Z</time>
      </trkpt>
      <trkpt lat="44.25531" lon="2.51023">
        <ele>632</ele>
        <time>2022-06-12T10:46:00.252Z</time>
      </trkpt>
      <trkpt lat="44.25531" lon="2.51023">
        <ele>632</ele>
        <time>2022-06-12T10:46:01.252Z</time>
      </trkpt>
      <trkpt lat="44.2553" lon="2.51024">
        <ele>632</ele>
        <time>2022-06-12T10:46:02.252Z</time>
      </trkpt>
      <trkpt lat="44.25529" lon="2.51024">
        <ele>632</ele>
        <time>2022-06-12T10:46:03.252Z</time>
      </trkpt>
      <trkpt lat="44.25528" lon="2.51025">
        <ele>632</ele>
        <time>2022-06-12T10:46:04.252Z</time>
      </trkpt>
      <trkpt lat="44.25527" lon="2.51026">
        <ele>633</ele>
        <time>2022-06-12T10:46:05.252Z</time>
      </trkpt>
      <trkpt lat="44.25526" lon="2.51026">
        <ele>633</ele>
        <time>2022-06-12T10:46:06.252Z</time>
      </trkpt>
      <trkpt lat="44.25525" lon="2.51027">
        <ele>633</ele>
        <time>2022-06-12T10:46:07.252Z</time>
      </trkpt>
      <trkpt lat="44.25525" lon="2.51028">
        <ele>633</ele>
        <time>2022-06-12T10:46:08.252Z</time>
      </trkpt>
      <trkpt lat="44.25524" lon="2.51029">
        <ele>633</ele>
        <time>2022-06-12T10:46:09.252Z</time>
      </trkpt>
      <trkpt lat="44.25523" lon="2.5103">
        <ele>633</ele>
        <time>2022-06-12T10:46:10.252Z</time>
      </trkpt>
      <trkpt lat="44.25522" lon="2.51031">
        <ele>633</ele>
        <time>2022-06-12T10:46:11.252Z</time>
      </trkpt>
      <trkpt lat="44.25521" lon="2.51031">
        <ele>633</ele>
        <time>2022-06-12T10:46:12.252Z</time>
      </trkpt>
      <trkpt lat="44.2552" lon="2.51032">
        <ele>633</ele>
        <time>2022-06-12T10:46:13.252Z</time>
      </trkpt>
      <trkpt lat="44.25518" lon="2.51033">
        <ele>633</ele>
        <time>2022-06-12T10:46:14.252Z</time>
      </trkpt>
      <trkpt lat="44.25517" lon="2.51034">
        <ele>633</ele>
        <time>2022-06-12T10:46:15.252Z</time>
      </trkpt>
      <trkpt lat="44.25516" lon="2.51035">
        <ele>633</ele>
        <time>2022-06-12T10:46:16.252Z</time>
      </trkpt>
      <trkpt lat="44.25515" lon="2.51036">
        <ele>633</ele>
        <time>2022-06-12T10:46:17.252Z</time>
      </trkpt>
      <trkpt lat="44.25513" lon="2.51037">
        <ele>633</ele>
        <time>2022-06-12T10:46:18.252Z</time>
      </trkpt>
      <trkpt lat="44.25512" lon="2.51038">
        <ele>633</ele>
        <time>2022-06-12T10:46:19.252Z</time>
      </trkpt>
      <trkpt lat="44.25511" lon="2.51039">
        <ele>633</ele>
        <time>2022-06-12T10:46:20.252Z</time>
      </trkpt>
      <trkpt lat="44.2551" lon="2.5104">
        <ele>633</ele>
        <time>2022-06-12T10:46:21.252Z</time>
      </trkpt>
      <trkpt lat="44.25509" lon="2.51041">
        <ele>633</ele>
        <time>2022-06-12T10:46:22.252Z</time>
      </trkpt>
      <trkpt lat="44.25508" lon="2.51042">
        <ele>633</ele>
        <time>2022-06-12T10:46:23.252Z</time>
      </trkpt>
      <trkpt lat="44.25507" lon="2.51042">
        <ele>633</ele>
        <time>2022-06-12T10:46:24.252Z</time>
      </trkpt>
      <trkpt lat="44.25506" lon="2.51043">
        <ele>633</ele>
        <time>2022-06-12T10:46:25.252Z</time>
      </trkpt>
      <trkpt lat="44.25505" lon="2.51044">
        <ele>633</ele>
        <time>2022-06-12T10:46:26.252Z</time>
      </trkpt>
      <trkpt lat="44.25504" lon="2.51045">
        <ele>633</ele>
        <time>2022-06-12T10:46:27.252Z</time>
      </trkpt>
      <trkpt lat="44.25503" lon="2.51046">
        <ele>633</ele>
        <time>2022-06-12T10:46:28.252Z</time>
      </trkpt>
      <trkpt lat="44.25503" lon="2.51048">
        <ele>633</ele>
        <time>2022-06-12T10:46:29.252Z</time>
      </trkpt>
      <trkpt lat="44.25502" lon="2.51049">
        <ele>633</ele>
        <time>2022-06-12T10:46:30.252Z</time>
      </trkpt>
      <trkpt lat="44.25502" lon="2.51051">
        <ele>634</ele>
        <time>2022-06-12T10:46:31.252Z</time>
      </trkpt>
      <trkpt lat="44.25501" lon="2.51052">
        <ele>634</ele>
        <time>2022-06-12T10:46:32.252Z</time>
      </trkpt>
      <trkpt lat="44.255" lon="2.51053">
        <ele>634</ele>
        <time>2022-06-12T10:46:33.252Z</time>
      </trkpt>
      <trkpt lat="44.255" lon="2.51054">
        <ele>634</ele>
        <time>2022-06-12T10:46:34.252Z</time>
      </trkpt>
      <trkpt lat="44.255" lon="2.51056">
        <ele>634</ele>
        <time>2022-06-12T10:46:35.252Z</time>
      </trkpt>
      <trkpt lat="44.25499" lon="2.51057">
        <ele>634</ele>
        <time>2022-06-12T10:46:36.252Z</time>
      </trkpt>
      <trkpt lat="44.25499" lon="2.51058">
        <ele>635</ele>
        <time>2022-06-12T10:46:37.252Z</time>
      </trkpt>
      <trkpt lat="44.25499" lon="2.51059">
        <ele>635</ele>
        <time>2022-06-12T10:46:38.252Z</time>
      </trkpt>
      <trkpt lat="44.25498" lon="2.51061">
        <ele>635</ele>
        <time>2022-06-12T10:46:39.252Z</time>
      </trkpt>
      <trkpt lat="44.25498" lon="2.51062">
        <ele>635</ele>
        <time>2022-06-12T10:46:40.252Z</time>
      </trkpt>
      <trkpt lat="44.25497" lon="2.51063">
        <ele>635</ele>
        <time>2022-06-12T10:46:41.252Z</time>
      </trkpt>
      <trkpt lat="44.25497" lon="2.51064">
        <ele>635</ele>
        <time>2022-06-12T10:46:42.252Z</time>
      </trkpt>
      <trkpt lat="44.25497" lon="2.51066">
        <ele>635</ele>
        <time>2022-06-12T10:46:43.252Z</time>
      </trkpt>
      <trkpt lat="44.25497" lon="2.51067">
        <ele>635</ele>
        <time>2022-06-12T10:46:44.252Z</time>
      </trkpt>
      <trkpt lat="44.25497" lon="2.51068">
        <ele>635</ele>
        <time>2022-06-12T10:46:45.252Z</time>
      </trkpt>
      <trkpt lat="44.25496" lon="2.5107">
        <ele>635</ele>
        <time>2022-06-12T10:46:46.252Z</time>
      </trkpt>
      <trkpt lat="44.25496" lon="2.51071">
        <ele>635</ele>
        <time>2022-06-12T10:46:47.252Z</time>
      </trkpt>
      <trkpt lat="44.25495" lon="2.51072">
        <ele>635</ele>
        <time>2022-06-12T10:46:48.252Z</time>
      </trkpt>
      <trkpt lat="44.25495" lon="2.51073">
        <ele>635</ele>
        <time>2022-06-12T10:46:49.252Z</time>
      </trkpt>
      <trkpt lat="44.25494" lon="2.51074">
        <ele>635</ele>
        <time>2022-06-12T10:46:50.252Z</time>
      </trkpt>
      <trkpt lat="44.25494" lon="2.51075">
        <ele>635</ele>
        <time>2022-06-12T10:46:51.252Z</time>
      </trkpt>
      <trkpt lat="44.25493" lon="2.51076">
        <ele>635</ele>
        <time>2022-06-12T10:46:52.252Z</time>
      </trkpt>
      <trkpt lat="44.25493" lon="2.51077">
        <ele>635</ele>
        <time>2022-06-12T10:46:53.252Z</time>
      </trkpt>
      <trkpt lat="44.25492" lon="2.51078">
        <ele>635</ele>
        <time>2022-06-12T10:46:54.252Z</time>
      </trkpt>
      <trkpt lat="44.25492" lon="2.5108">
        <ele>635</ele>
        <time>2022-06-12T10:46:55.252Z</time>
      </trkpt>
      <trkpt lat="44.25492" lon="2.51081">
        <ele>635</ele>
        <time>2022-06-12T10:46:56.252Z</time>
      </trkpt>
      <trkpt lat="44.25491" lon="2.51082">
        <ele>635</ele>
        <time>2022-06-12T10:46:57.252Z</time>
      </trkpt>
      <trkpt lat="44.25491" lon="2.51083">
        <ele>635</ele>
        <time>2022-06-12T10:46:58.252Z</time>
      </trkpt>
      <trkpt lat="44.2549" lon="2.51085">
        <ele>635</ele>
        <time>2022-06-12T10:46:59.252Z</time>
      </trkpt>
      <trkpt lat="44.2549" lon="2.51086">
        <ele>635</ele>
        <time>2022-06-12T10:47:00.252Z</time>
      </trkpt>
      <trkpt lat="44.2549" lon="2.51087">
        <ele>635</ele>
        <time>2022-06-12T10:47:01.252Z</time>
      </trkpt>
      <trkpt lat="44.2549" lon="2.51088">
        <ele>635</ele>
        <time>2022-06-12T10:47:02.252Z</time>
      </trkpt>
      <trkpt lat="44.25489" lon="2.51089">
        <ele>636</ele>
        <time>2022-06-12T10:47:03.252Z</time>
      </trkpt>
      <trkpt lat="44.25489" lon="2.5109">
        <ele>636</ele>
        <time>2022-06-12T10:47:04.252Z</time>
      </trkpt>
      <trkpt lat="44.25489" lon="2.51092">
        <ele>636</ele>
        <time>2022-06-12T10:47:05.252Z</time>
      </trkpt>
      <trkpt lat="44.25488" lon="2.51093">
        <ele>636</ele>
        <time>2022-06-12T10:47:06.252Z</time>
      </trkpt>
      <trkpt lat="44.25488" lon="2.51094">
        <ele>636</ele>
        <time>2022-06-12T10:47:07.252Z</time>
      </trkpt>
      <trkpt lat="44.25487" lon="2.51095">
        <ele>636</ele>
        <time>2022-06-12T10:47:08.252Z</time>
      </trkpt>
      <trkpt lat="44.25487" lon="2.51096">
        <ele>636</ele>
        <time>2022-06-12T10:47:09.252Z</time>
      </trkpt>
      <trkpt lat="44.25486" lon="2.51098">
        <ele>636</ele>
        <time>2022-06-12T10:47:10.252Z</time>
      </trkpt>
      <trkpt lat="44.25486" lon="2.51099">
        <ele>636</ele>
        <time>2022-06-12T10:47:11.252Z</time>
      </trkpt>
      <trkpt lat="44.25485" lon="2.51101">
        <ele>636</ele>
        <time>2022-06-12T10:47:12.252Z</time>
      </trkpt>
      <trkpt lat="44.25485" lon="2.51102">
        <ele>636</ele>
        <time>2022-06-12T10:47:13.252Z</time>
      </trkpt>
      <trkpt lat="44.25484" lon="2.51103">
        <ele>636</ele>
        <time>2022-06-12T10:47:14.252Z</time>
      </trkpt>
      <trkpt lat="44.25483" lon="2.51105">
        <ele>636</ele>
        <time>2022-06-12T10:47:15.252Z</time>
      </trkpt>
      <trkpt lat="44.25483" lon="2.51106">
        <ele>636</ele>
        <time>2022-06-12T10:47:16.252Z</time>
      </trkpt>
      <trkpt lat="44.25482" lon="2.51107">
        <ele>636</ele>
        <time>2022-06-12T10:47:17.252Z</time>
      </trkpt>
      <trkpt lat="44.25482" lon="2.51107">
        <ele>636</ele>
        <time>2022-06-12T10:47:18.252Z</time>
      </trkpt>
      <trkpt lat="44.25481" lon="2.51108">
        <ele>636</ele>
        <time>2022-06-12T10:47:19.252Z</time>
      </trkpt>
      <trkpt lat="44.2548" lon="2.51108">
        <ele>636</ele>
        <time>2022-06-12T10:47:20.252Z</time>
      </trkpt>
      <trkpt lat="44.2548" lon="2.51109">
        <ele>636</ele>
        <time>2022-06-12T10:47:21.252Z</time>
      </trkpt>
      <trkpt lat="44.25479" lon="2.5111">
        <ele>636</ele>
        <time>2022-06-12T10:47:22.252Z</time>
      </trkpt>
      <trkpt lat="44.25478" lon="2.51111">
        <ele>636</ele>
        <time>2022-06-12T10:47:23.252Z</time>
      </trkpt>
      <trkpt lat="44.25478" lon="2.51112">
        <ele>636</ele>
        <time>2022-06-12T10:47:24.252Z</time>
      </trkpt>
      <trkpt lat="44.25477" lon="2.51112">
        <ele>636</ele>
        <time>2022-06-12T10:47:25.252Z</time>
      </trkpt>
      <trkpt lat="44.25476" lon="2.51113">
        <ele>636</ele>
        <time>2022-06-12T10:47:26.252Z</time>
      </trkpt>
      <trkpt lat="44.25475" lon="2.51114">
        <ele>636</ele>
        <time>2022-06-12T10:47:27.252Z</time>
      </trkpt>
      <trkpt lat="44.25475" lon="2.51114">
        <ele>637</ele>
        <time>2022-06-12T10:47:28.252Z</time>
      </trkpt>
      <trkpt lat="44.25474" lon="2.51115">
        <ele>637</ele>
        <time>2022-06-12T10:47:29.252Z</time>
      </trkpt>
      <trkpt lat="44.25473" lon="2.51116">
        <ele>637</ele>
        <time>2022-06-12T10:47:30.252Z</time>
      </trkpt>
      <trkpt lat="44.25472" lon="2.51117">
        <ele>637</ele>
        <time>2022-06-12T10:47:31.252Z</time>
      </trkpt>
      <trkpt lat="44.25472" lon="2.51118">
        <ele>637</ele>
        <time>2022-06-12T10:47:32.252Z</time>
      </trkpt>
      <trkpt lat="44.25471" lon="2.51119">
        <ele>637</ele>
        <time>2022-06-12T10:47:33.252Z</time>
      </trkpt>
      <trkpt lat="44.2547" lon="2.5112">
        <ele>637</ele>
        <time>2022-06-12T10:47:34.252Z</time>
      </trkpt>
      <trkpt lat="44.25469" lon="2.51121">
        <ele>638</ele>
        <time>2022-06-12T10:47:35.252Z</time>
      </trkpt>
      <trkpt lat="44.25468" lon="2.51121">
        <ele>638</ele>
        <time>2022-06-12T10:47:36.252Z</time>
      </trkpt>
      <trkpt lat="44.25467" lon="2.51122">
        <ele>638</ele>
        <time>2022-06-12T10:47:37.252Z</time>
      </trkpt>
      <trkpt lat="44.25466" lon="2.51123">
        <ele>638</ele>
        <time>2022-06-12T10:47:38.252Z</time>
      </trkpt>
      <trkpt lat="44.25465" lon="2.51124">
        <ele>638</ele>
        <time>2022-06-12T10:47:39.252Z</time>
      </trkpt>
      <trkpt lat="44.25464" lon="2.51125">
        <ele>638</ele>
        <time>2022-06-12T10:47:40.252Z</time>
      </trkpt>
      <trkpt lat="44.25463" lon="2.51126">
        <ele>638</ele>
        <time>2022-06-12T10:47:41.252Z</time>
      </trkpt>
      <trkpt lat="44.25462" lon="2.51127">
        <ele>638</ele>
        <time>2022-06-12T10:47:42.252Z</time>
      </trkpt>
      <trkpt lat="44.25461" lon="2.51128">
        <ele>638</ele>
        <time>2022-06-12T10:47:43.252Z</time>
      </trkpt>
      <trkpt lat="44.2546" lon="2.51129">
        <ele>638</ele>
        <time>2022-06-12T10:47:44.252Z</time>
      </trkpt>
      <trkpt lat="44.25459" lon="2.5113">
        <ele>638</ele>
        <time>2022-06-12T10:47:45.252Z</time>
      </trkpt>
      <trkpt lat="44.25458" lon="2.51131">
        <ele>638</ele>
        <time>2022-06-12T10:47:46.252Z</time>
      </trkpt>
      <trkpt lat="44.25457" lon="2.51132">
        <ele>638</ele>
        <time>2022-06-12T10:47:47.252Z</time>
      </trkpt>
      <trkpt lat="44.25456" lon="2.51132">
        <ele>638</ele>
        <time>2022-06-12T10:47:48.252Z</time>
      </trkpt>
      <trkpt lat="44.25455" lon="2.51133">
        <ele>638</ele>
        <time>2022-06-12T10:47:49.252Z</time>
      </trkpt>
      <trkpt lat="44.25454" lon="2.51134">
        <ele>638</ele>
        <time>2022-06-12T10:47:50.252Z</time>
      </trkpt>
      <trkpt lat="44.25453" lon="2.51135">
        <ele>638</ele>
        <time>2022-06-12T10:47:51.252Z</time>
      </trkpt>
      <trkpt lat="44.25452" lon="2.51137">
        <ele>638</ele>
        <time>2022-06-12T10:47:52.252Z</time>
      </trkpt>
      <trkpt lat="44.25451" lon="2.51137">
        <ele>638</ele>
        <time>2022-06-12T10:47:53.252Z</time>
      </trkpt>
      <trkpt lat="44.2545" lon="2.51138">
        <ele>638</ele>
        <time>2022-06-12T10:47:54.252Z</time>
      </trkpt>
      <trkpt lat="44.25449" lon="2.51139">
        <ele>638</ele>
        <time>2022-06-12T10:47:55.252Z</time>
      </trkpt>
      <trkpt lat="44.25448" lon="2.5114">
        <ele>638</ele>
        <time>2022-06-12T10:47:56.252Z</time>
      </trkpt>
      <trkpt lat="44.25447" lon="2.51141">
        <ele>638</ele>
        <time>2022-06-12T10:47:57.252Z</time>
      </trkpt>
      <trkpt lat="44.25446" lon="2.51142">
        <ele>638</ele>
        <time>2022-06-12T10:47:58.252Z</time>
      </trkpt>
      <trkpt lat="44.25445" lon="2.51143">
        <ele>638</ele>
        <time>2022-06-12T10:47:59.252Z</time>
      </trkpt>
      <trkpt lat="44.25444" lon="2.51143">
        <ele>638</ele>
        <time>2022-06-12T10:48:00.252Z</time>
      </trkpt>
      <trkpt lat="44.25443" lon="2.51144">
        <ele>638</ele>
        <time>2022-06-12T10:48:01.252Z</time>
      </trkpt>
      <trkpt lat="44.25442" lon="2.51145">
        <ele>638</ele>
        <time>2022-06-12T10:48:02.252Z</time>
      </trkpt>
      <trkpt lat="44.25442" lon="2.51146">
        <ele>638</ele>
        <time>2022-06-12T10:48:03.252Z</time>
      </trkpt>
      <trkpt lat="44.25441" lon="2.51147">
        <ele>638</ele>
        <time>2022-06-12T10:48:04.252Z</time>
      </trkpt>
      <trkpt lat="44.2544" lon="2.51147">
        <ele>638</ele>
        <time>2022-06-12T10:48:05.252Z</time>
      </trkpt>
      <trkpt lat="44.25439" lon="2.51148">
        <ele>638</ele>
        <time>2022-06-12T10:48:06.252Z</time>
      </trkpt>
      <trkpt lat="44.25438" lon="2.51149">
        <ele>638</ele>
        <time>2022-06-12T10:48:07.252Z</time>
      </trkpt>
      <trkpt lat="44.25437" lon="2.51149">
        <ele>638</ele>
        <time>2022-06-12T10:48:08.252Z</time>
      </trkpt>
      <trkpt lat="44.25436" lon="2.5115">
        <ele>638</ele>
        <time>2022-06-12T10:48:09.252Z</time>
      </trkpt>
      <trkpt lat="44.25435" lon="2.5115">
        <ele>637</ele>
        <time>2022-06-12T10:48:10.252Z</time>
      </trkpt>
      <trkpt lat="44.25434" lon="2.51151">
        <ele>637</ele>
        <time>2022-06-12T10:48:11.252Z</time>
      </trkpt>
      <trkpt lat="44.25433" lon="2.51151">
        <ele>637</ele>
        <time>2022-06-12T10:48:12.252Z</time>
      </trkpt>
      <trkpt lat="44.25432" lon="2.51152">
        <ele>637</ele>
        <time>2022-06-12T10:48:13.252Z</time>
      </trkpt>
      <trkpt lat="44.25431" lon="2.51152">
        <ele>637</ele>
        <time>2022-06-12T10:48:14.252Z</time>
      </trkpt>
      <trkpt lat="44.2543" lon="2.51152">
        <ele>637</ele>
        <time>2022-06-12T10:48:15.252Z</time>
      </trkpt>
      <trkpt lat="44.25429" lon="2.51153">
        <ele>637</ele>
        <time>2022-06-12T10:48:16.252Z</time>
      </trkpt>
      <trkpt lat="44.25428" lon="2.51153">
        <ele>637</ele>
        <time>2022-06-12T10:48:17.252Z</time>
      </trkpt>
      <trkpt lat="44.25427" lon="2.51153">
        <ele>637</ele>
        <time>2022-06-12T10:48:18.252Z</time>
      </trkpt>
      <trkpt lat="44.25425" lon="2.51154">
        <ele>637</ele>
        <time>2022-06-12T10:48:19.252Z</time>
      </trkpt>
      <trkpt lat="44.25424" lon="2.51155">
        <ele>637</ele>
        <time>2022-06-12T10:48:20.252Z</time>
      </trkpt>
      <trkpt lat="44.25423" lon="2.51155">
        <ele>637</ele>
        <time>2022-06-12T10:48:21.252Z</time>
      </trkpt>
      <trkpt lat="44.25422" lon="2.51155">
        <ele>637</ele>
        <time>2022-06-12T10:48:22.252Z</time>
      </trkpt>
      <trkpt lat="44.25421" lon="2.51156">
        <ele>637</ele>
        <time>2022-06-12T10:48:23.252Z</time>
      </trkpt>
      <trkpt lat="44.2542" lon="2.51157">
        <ele>637</ele>
        <time>2022-06-12T10:48:24.252Z</time>
      </trkpt>
      <trkpt lat="44.25419" lon="2.51157">
        <ele>637</ele>
        <time>2022-06-12T10:48:25.252Z</time>
      </trkpt>
      <trkpt lat="44.25418" lon="2.51158">
        <ele>637</ele>
        <time>2022-06-12T10:48:26.252Z</time>
      </trkpt>
      <trkpt lat="44.25417" lon="2.51158">
        <ele>637</ele>
        <time>2022-06-12T10:48:27.252Z</time>
      </trkpt>
      <trkpt lat="44.25416" lon="2.51159">
        <ele>637</ele>
        <time>2022-06-12T10:48:28.252Z</time>
      </trkpt>
      <trkpt lat="44.25415" lon="2.5116">
        <ele>637</ele>
        <time>2022-06-12T10:48:29.252Z</time>
      </trkpt>
      <trkpt lat="44.25414" lon="2.5116">
        <ele>637</ele>
        <time>2022-06-12T10:48:30.252Z</time>
      </trkpt>
      <trkpt lat="44.25413" lon="2.51161">
        <ele>637</ele>
        <time>2022-06-12T10:48:31.252Z</time>
      </trkpt>
      <trkpt lat="44.25412" lon="2.51161">
        <ele>637</ele>
        <time>2022-06-12T10:48:32.252Z</time>
      </trkpt>
      <trkpt lat="44.25411" lon="2.51162">
        <ele>637</ele>
        <time>2022-06-12T10:48:33.252Z</time>
      </trkpt>
      <trkpt lat="44.2541" lon="2.51163">
        <ele>637</ele>
        <time>2022-06-12T10:48:34.252Z</time>
      </trkpt>
      <trkpt lat="44.25408" lon="2.51163">
        <ele>636</ele>
        <time>2022-06-12T10:48:35.252Z</time>
      </trkpt>
      <trkpt lat="44.25407" lon="2.51164">
        <ele>636</ele>
        <time>2022-06-12T10:48:36.252Z</time>
      </trkpt>
      <trkpt lat="44.25406" lon="2.51165">
        <ele>636</ele>
        <time>2022-06-12T10:48:37.252Z</time>
      </trkpt>
      <trkpt lat="44.25405" lon="2.51166">
        <ele>636</ele>
        <time>2022-06-12T10:48:38.252Z</time>
      </trkpt>
      <trkpt lat="44.25404" lon="2.51167">
        <ele>636</ele>
        <time>2022-06-12T10:48:39.252Z</time>
      </trkpt>
      <trkpt lat="44.25403" lon="2.51168">
        <ele>635</ele>
        <time>2022-06-12T10:48:40.252Z</time>
      </trkpt>
      <trkpt lat="44.25402" lon="2.51169">
        <ele>635</ele>
        <time>2022-06-12T10:48:41.252Z</time>
      </trkpt>
      <trkpt lat="44.25401" lon="2.5117">
        <ele>635</ele>
        <time>2022-06-12T10:48:42.252Z</time>
      </trkpt>
      <trkpt lat="44.254" lon="2.5117">
        <ele>635</ele>
        <time>2022-06-12T10:48:43.252Z</time>
      </trkpt>
      <trkpt lat="44.25398" lon="2.51171">
        <ele>635</ele>
        <time>2022-06-12T10:48:44.252Z</time>
      </trkpt>
      <trkpt lat="44.25397" lon="2.51171">
        <ele>635</ele>
        <time>2022-06-12T10:48:45.252Z</time>
      </trkpt>
      <trkpt lat="44.25396" lon="2.51172">
        <ele>635</ele>
        <time>2022-06-12T10:48:46.252Z</time>
      </trkpt>
      <trkpt lat="44.25395" lon="2.51172">
        <ele>635</ele>
        <time>2022-06-12T10:48:47.252Z</time>
      </trkpt>
      <trkpt lat="44.25394" lon="2.51173">
        <ele>635</ele>
        <time>2022-06-12T10:48:48.252Z</time>
      </trkpt>
      <trkpt lat="44.25393" lon="2.51174">
        <ele>634</ele>
        <time>2022-06-12T10:48:49.252Z</time>
      </trkpt>
      <trkpt lat="44.25392" lon="2.51174">
        <ele>634</ele>
        <time>2022-06-12T10:48:50.252Z</time>
      </trkpt>
      <trkpt lat="44.25391" lon="2.51174">
        <ele>634</ele>
        <time>2022-06-12T10:48:51.252Z</time>
      </trkpt>
      <trkpt lat="44.25389" lon="2.51175">
        <ele>634</ele>
        <time>2022-06-12T10:48:52.252Z</time>
      </trkpt>
      <trkpt lat="44.25388" lon="2.51175">
        <ele>634</ele>
        <time>2022-06-12T10:48:53.252Z</time>
      </trkpt>
      <trkpt lat="44.25387" lon="2.51176">
        <ele>633</ele>
        <time>2022-06-12T10:48:54.252Z</time>
      </trkpt>
      <trkpt lat="44.25386" lon="2.51177">
        <ele>633</ele>
        <time>2022-06-12T10:48:55.252Z</time>
      </trkpt>
      <trkpt lat="44.25385" lon="2.51177">
        <ele>633</ele>
        <time>2022-06-12T10:48:56.252Z</time>
      </trkpt>
      <trkpt lat="44.25384" lon="2.51177">
        <ele>633</ele>
        <time>2022-06-12T10:48:57.252Z</time>
      </trkpt>
      <trkpt lat="44.25383" lon="2.51178">
        <ele>633</ele>
        <time>2022-06-12T10:48:58.252Z</time>
      </trkpt>
      <trkpt lat="44.25382" lon="2.51178">
        <ele>633</ele>
        <time>2022-06-12T10:48:59.252Z</time>
      </trkpt>
      <trkpt lat="44.25381" lon="2.51179">
        <ele>633</ele>
        <time>2022-06-12T10:49:00.252Z</time>
      </trkpt>
      <trkpt lat="44.2538" lon="2.51179">
        <ele>633</ele>
        <time>2022-06-12T10:49:01.252Z</time>
      </trkpt>
      <trkpt lat="44.25379" lon="2.51179">
        <ele>633</ele>
        <time>2022-06-12T10:49:02.252Z</time>
      </trkpt>
      <trkpt lat="44.25378" lon="2.51179">
        <ele>633</ele>
        <time>2022-06-12T10:49:03.252Z</time>
      </trkpt>
      <trkpt lat="44.25377" lon="2.51179">
        <ele>633</ele>
        <time>2022-06-12T10:49:04.252Z</time>
      </trkpt>
      <trkpt lat="44.25375" lon="2.51179">
        <ele>632</ele>
        <time>2022-06-12T10:49:05.252Z</time>
      </trkpt>
      <trkpt lat="44.25374" lon="2.51179">
        <ele>632</ele>
        <time>2022-06-12T10:49:06.252Z</time>
      </trkpt>
      <trkpt lat="44.25374" lon="2.51178">
        <ele>632</ele>
        <time>2022-06-12T10:49:07.252Z</time>
      </trkpt>
      <trkpt lat="44.25373" lon="2.51178">
        <ele>632</ele>
        <time>2022-06-12T10:49:08.252Z</time>
      </trkpt>
      <trkpt lat="44.25372" lon="2.51178">
        <ele>632</ele>
        <time>2022-06-12T10:49:09.252Z</time>
      </trkpt>
      <trkpt lat="44.25371" lon="2.51177">
        <ele>632</ele>
        <time>2022-06-12T10:49:10.252Z</time>
      </trkpt>
      <trkpt lat="44.25371" lon="2.51177">
        <ele>632</ele>
        <time>2022-06-12T10:49:11.252Z</time>
      </trkpt>
      <trkpt lat="44.2537" lon="2.51176">
        <ele>632</ele>
        <time>2022-06-12T10:49:12.252Z</time>
      </trkpt>
      <trkpt lat="44.25369" lon="2.51176">
        <ele>632</ele>
        <time>2022-06-12T10:49:13.252Z</time>
      </trkpt>
      <trkpt lat="44.25369" lon="2.51175">
        <ele>632</ele>
        <time>2022-06-12T10:49:14.252Z</time>
      </trkpt>
      <trkpt lat="44.25368" lon="2.51174">
        <ele>632</ele>
        <time>2022-06-12T10:49:15.252Z</time>
      </trkpt>
      <trkpt lat="44.25367" lon="2.51174">
        <ele>631</ele>
        <time>2022-06-12T10:49:16.252Z</time>
      </trkpt>
      <trkpt lat="44.25366" lon="2.51173">
        <ele>631</ele>
        <time>2022-06-12T10:49:17.252Z</time>
      </trkpt>
      <trkpt lat="44.25365" lon="2.51172">
        <ele>631</ele>
        <time>2022-06-12T10:49:18.252Z</time>
      </trkpt>
      <trkpt lat="44.25365" lon="2.51171">
        <ele>631</ele>
        <time>2022-06-12T10:49:19.252Z</time>
      </trkpt>
      <trkpt lat="44.25364" lon="2.51171">
        <ele>631</ele>
        <time>2022-06-12T10:49:20.252Z</time>
      </trkpt>
      <trkpt lat="44.25364" lon="2.51171">
        <ele>631</ele>
        <time>2022-06-12T10:49:21.252Z</time>
      </trkpt>
      <trkpt lat="44.25364" lon="2.51171">
        <ele>631</ele>
        <time>2022-06-12T10:49:22.252Z</time>
      </trkpt>
      <trkpt lat="44.25364" lon="2.51171">
        <ele>630</ele>
        <time>2022-06-12T10:49:23.252Z</time>
      </trkpt>
      <trkpt lat="44.25362" lon="2.5117">
        <ele>630</ele>
        <time>2022-06-12T10:49:31.248Z</time>
      </trkpt>
      <trkpt lat="44.25361" lon="2.51169">
        <ele>630</ele>
        <time>2022-06-12T10:49:32.248Z</time>
      </trkpt>
      <trkpt lat="44.25361" lon="2.51168">
        <ele>630</ele>
        <time>2022-06-12T10:49:33.248Z</time>
      </trkpt>
      <trkpt lat="44.25361" lon="2.51167">
        <ele>630</ele>
        <time>2022-06-12T10:49:34.248Z</time>
      </trkpt>
      <trkpt lat="44.25361" lon="2.51166">
        <ele>630</ele>
        <time>2022-06-12T10:49:35.248Z</time>
      </trkpt>
      <trkpt lat="44.2536" lon="2.51165">
        <ele>630</ele>
        <time>2022-06-12T10:49:36.248Z</time>
      </trkpt>
      <trkpt lat="44.2536" lon="2.51164">
        <ele>630</ele>
        <time>2022-06-12T10:49:37.248Z</time>
      </trkpt>
      <trkpt lat="44.2536" lon="2.51163">
        <ele>630</ele>
        <time>2022-06-12T10:49:38.248Z</time>
      </trkpt>
      <trkpt lat="44.25359" lon="2.51162">
        <ele>630</ele>
        <time>2022-06-12T10:49:39.248Z</time>
      </trkpt>
      <trkpt lat="44.25359" lon="2.51161">
        <ele>630</ele>
        <time>2022-06-12T10:49:40.248Z</time>
      </trkpt>
      <trkpt lat="44.25358" lon="2.51161">
        <ele>630</ele>
        <time>2022-06-12T10:49:41.248Z</time>
      </trkpt>
      <trkpt lat="44.25358" lon="2.5116">
        <ele>630</ele>
        <time>2022-06-12T10:49:42.248Z</time>
      </trkpt>
      <trkpt lat="44.25358" lon="2.5116">
        <ele>630</ele>
        <time>2022-06-12T10:49:43.248Z</time>
      </trkpt>
      <trkpt lat="44.25358" lon="2.51161">
        <ele>631</ele>
        <time>2022-06-12T10:50:44.247Z</time>
      </trkpt>
      <trkpt lat="44.25359" lon="2.51162">
        <ele>632</ele>
        <time>2022-06-12T10:50:45.247Z</time>
      </trkpt>
      <trkpt lat="44.25359" lon="2.51163">
        <ele>632</ele>
        <time>2022-06-12T10:50:46.247Z</time>
      </trkpt>
      <trkpt lat="44.25359" lon="2.51164">
        <ele>632</ele>
        <time>2022-06-12T10:50:47.247Z</time>
      </trkpt>
      <trkpt lat="44.25359" lon="2.51164">
        <ele>632</ele>
        <time>2022-06-12T10:50:48.247Z</time>
      </trkpt>
      <trkpt lat="44.2536" lon="2.51165">
        <ele>632</ele>
        <time>2022-06-12T10:50:49.247Z</time>
      </trkpt>
      <trkpt lat="44.2536" lon="2.51166">
        <ele>632</ele>
        <time>2022-06-12T10:50:50.247Z</time>
      </trkpt>
      <trkpt lat="44.2536" lon="2.51167">
        <ele>632</ele>
        <time>2022-06-12T10:50:51.247Z</time>
      </trkpt>
      <trkpt lat="44.25361" lon="2.51168">
        <ele>632</ele>
        <time>2022-06-12T10:50:52.247Z</time>
      </trkpt>
      <trkpt lat="44.25361" lon="2.51168">
        <ele>632</ele>
        <time>2022-06-12T10:50:53.247Z</time>
      </trkpt>
      <trkpt lat="44.25361" lon="2.51168">
        <ele>632</ele>
        <time>2022-06-12T10:50:54.247Z</time>
      </trkpt>
      <trkpt lat="44.25361" lon="2.51168">
        <ele>632</ele>
        <time>2022-06-12T10:50:55.247Z</time>
      </trkpt>
      <trkpt lat="44.25359" lon="2.51166">
        <ele>632</ele>
        <time>2022-06-12T10:51:06.258Z</time>
      </trkpt>
      <trkpt lat="44.25359" lon="2.51164">
        <ele>632</ele>
        <time>2022-06-12T10:51:07.258Z</time>
      </trkpt>
      <trkpt lat="44.25358" lon="2.51162">
        <ele>632</ele>
        <time>2022-06-12T10:51:08.258Z</time>
      </trkpt>
      <trkpt lat="44.25358" lon="2.5116">
        <ele>632</ele>
        <time>2022-06-12T10:51:09.258Z</time>
      </trkpt>
      <trkpt lat="44.25357" lon="2.51158">
        <ele>632</ele>
        <time>2022-06-12T10:51:10.258Z</time>
      </trkpt>
      <trkpt lat="44.25357" lon="2.51157">
        <ele>632</ele>
        <time>2022-06-12T10:51:11.258Z</time>
      </trkpt>
      <trkpt lat="44.25356" lon="2.51155">
        <ele>632</ele>
        <time>2022-06-12T10:51:12.258Z</time>
      </trkpt>
      <trkpt lat="44.25356" lon="2.51154">
        <ele>632</ele>
        <time>2022-06-12T10:51:13.258Z</time>
      </trkpt>
      <trkpt lat="44.25356" lon="2.51153">
        <ele>632</ele>
        <time>2022-06-12T10:51:14.258Z</time>
      </trkpt>
      <trkpt lat="44.25355" lon="2.51151">
        <ele>632</ele>
        <time>2022-06-12T10:51:15.258Z</time>
      </trkpt>
      <trkpt lat="44.25355" lon="2.51149">
        <ele>632</ele>
        <time>2022-06-12T10:51:16.258Z</time>
      </trkpt>
      <trkpt lat="44.25355" lon="2.51148">
        <ele>632</ele>
        <time>2022-06-12T10:51:17.258Z</time>
      </trkpt>
      <trkpt lat="44.25355" lon="2.51146">
        <ele>632</ele>
        <time>2022-06-12T10:51:18.258Z</time>
      </trkpt>
      <trkpt lat="44.25355" lon="2.51145">
        <ele>632</ele>
        <time>2022-06-12T10:51:19.258Z</time>
      </trkpt>
      <trkpt lat="44.25354" lon="2.51144">
        <ele>632</ele>
        <time>2022-06-12T10:51:20.258Z</time>
      </trkpt>
      <trkpt lat="44.25354" lon="2.51143">
        <ele>632</ele>
        <time>2022-06-12T10:51:21.258Z</time>
      </trkpt>
      <trkpt lat="44.25354" lon="2.51141">
        <ele>632</ele>
        <time>2022-06-12T10:51:22.258Z</time>
      </trkpt>
      <trkpt lat="44.25354" lon="2.5114">
        <ele>632</ele>
        <time>2022-06-12T10:51:23.258Z</time>
      </trkpt>
      <trkpt lat="44.25353" lon="2.51138">
        <ele>632</ele>
        <time>2022-06-12T10:51:24.258Z</time>
      </trkpt>
      <trkpt lat="44.25353" lon="2.51138">
        <ele>632</ele>
        <time>2022-06-12T10:51:25.258Z</time>
      </trkpt>
      <trkpt lat="44.25353" lon="2.51137">
        <ele>631</ele>
        <time>2022-06-12T10:51:26.258Z</time>
      </trkpt>
      <trkpt lat="44.25353" lon="2.51136">
        <ele>631</ele>
        <time>2022-06-12T10:51:27.258Z</time>
      </trkpt>
      <trkpt lat="44.25353" lon="2.51135">
        <ele>631</ele>
        <time>2022-06-12T10:51:28.258Z</time>
      </trkpt>
      <trkpt lat="44.25353" lon="2.51133">
        <ele>631</ele>
        <time>2022-06-12T10:51:29.258Z</time>
      </trkpt>
      <trkpt lat="44.25352" lon="2.51132">
        <ele>631</ele>
        <time>2022-06-12T10:51:30.258Z</time>
      </trkpt>
      <trkpt lat="44.25352" lon="2.51131">
        <ele>631</ele>
        <time>2022-06-12T10:51:31.258Z</time>
      </trkpt>
      <trkpt lat="44.25351" lon="2.5113">
        <ele>631</ele>
        <time>2022-06-12T10:51:32.258Z</time>
      </trkpt>
      <trkpt lat="44.25351" lon="2.51128">
        <ele>631</ele>
        <time>2022-06-12T10:51:33.258Z</time>
      </trkpt>
      <trkpt lat="44.25351" lon="2.51127">
        <ele>631</ele>
        <time>2022-06-12T10:51:34.258Z</time>
      </trkpt>
      <trkpt lat="44.2535" lon="2.51126">
        <ele>631</ele>
        <time>2022-06-12T10:51:35.258Z</time>
      </trkpt>
      <trkpt lat="44.2535" lon="2.51124">
        <ele>631</ele>
        <time>2022-06-12T10:51:36.258Z</time>
      </trkpt>
      <trkpt lat="44.25349" lon="2.51123">
        <ele>631</ele>
        <time>2022-06-12T10:51:37.258Z</time>
      </trkpt>
      <trkpt lat="44.25348" lon="2.51121">
        <ele>631</ele>
        <time>2022-06-12T10:51:38.258Z</time>
      </trkpt>
      <trkpt lat="44.25348" lon="2.5112">
        <ele>631</ele>
        <time>2022-06-12T10:51:39.258Z</time>
      </trkpt>
      <trkpt lat="44.25347" lon="2.51119">
        <ele>631</ele>
        <time>2022-06-12T10:51:40.258Z</time>
      </trkpt>
      <trkpt lat="44.25347" lon="2.51117">
        <ele>631</ele>
        <time>2022-06-12T10:51:41.258Z</time>
      </trkpt>
      <trkpt lat="44.25346" lon="2.51116">
        <ele>631</ele>
        <time>2022-06-12T10:51:42.258Z</time>
      </trkpt>
      <trkpt lat="44.25346" lon="2.51115">
        <ele>631</ele>
        <time>2022-06-12T10:51:43.258Z</time>
      </trkpt>
      <trkpt lat="44.25346" lon="2.51115">
        <ele>630</ele>
        <time>2022-06-12T10:51:44.258Z</time>
      </trkpt>
      <trkpt lat="44.25346" lon="2.51114">
        <ele>630</ele>
        <time>2022-06-12T10:51:45.258Z</time>
      </trkpt>
      <trkpt lat="44.25345" lon="2.51113">
        <ele>630</ele>
        <time>2022-06-12T10:51:46.258Z</time>
      </trkpt>
      <trkpt lat="44.25345" lon="2.51112">
        <ele>630</ele>
        <time>2022-06-12T10:51:47.258Z</time>
      </trkpt>
      <trkpt lat="44.25344" lon="2.51111">
        <ele>630</ele>
        <time>2022-06-12T10:51:48.258Z</time>
      </trkpt>
      <trkpt lat="44.25343" lon="2.5111">
        <ele>630</ele>
        <time>2022-06-12T10:51:49.258Z</time>
      </trkpt>
      <trkpt lat="44.25343" lon="2.51108">
        <ele>630</ele>
        <time>2022-06-12T10:51:50.258Z</time>
      </trkpt>
      <trkpt lat="44.25342" lon="2.51107">
        <ele>630</ele>
        <time>2022-06-12T10:51:51.258Z</time>
      </trkpt>
      <trkpt lat="44.25341" lon="2.51106">
        <ele>630</ele>
        <time>2022-06-12T10:51:52.258Z</time>
      </trkpt>
      <trkpt lat="44.25341" lon="2.51105">
        <ele>630</ele>
        <time>2022-06-12T10:51:53.258Z</time>
      </trkpt>
      <trkpt lat="44.2534" lon="2.51104">
        <ele>630</ele>
        <time>2022-06-12T10:51:54.258Z</time>
      </trkpt>
      <trkpt lat="44.25339" lon="2.51103">
        <ele>630</ele>
        <time>2022-06-12T10:51:55.258Z</time>
      </trkpt>
      <trkpt lat="44.25338" lon="2.51102">
        <ele>630</ele>
        <time>2022-06-12T10:51:56.258Z</time>
      </trkpt>
      <trkpt lat="44.25338" lon="2.51101">
        <ele>630</ele>
        <time>2022-06-12T10:51:57.258Z</time>
      </trkpt>
      <trkpt lat="44.25337" lon="2.511">
        <ele>630</ele>
        <time>2022-06-12T10:51:58.258Z</time>
      </trkpt>
      <trkpt lat="44.25336" lon="2.51099">
        <ele>630</ele>
        <time>2022-06-12T10:51:59.258Z</time>
      </trkpt>
      <trkpt lat="44.25335" lon="2.51098">
        <ele>630</ele>
        <time>2022-06-12T10:52:00.258Z</time>
      </trkpt>
      <trkpt lat="44.25335" lon="2.51096">
        <ele>630</ele>
        <time>2022-06-12T10:52:01.258Z</time>
      </trkpt>
      <trkpt lat="44.25334" lon="2.51095">
        <ele>630</ele>
        <time>2022-06-12T10:52:02.258Z</time>
      </trkpt>
      <trkpt lat="44.25333" lon="2.51094">
        <ele>630</ele>
        <time>2022-06-12T10:52:03.258Z</time>
      </trkpt>
      <trkpt lat="44.25332" lon="2.51093">
        <ele>630</ele>
        <time>2022-06-12T10:52:04.258Z</time>
      </trkpt>
      <trkpt lat="44.25331" lon="2.51092">
        <ele>630</ele>
        <time>2022-06-12T10:52:05.258Z</time>
      </trkpt>
      <trkpt lat="44.25331" lon="2.51091">
        <ele>630</ele>
        <time>2022-06-12T10:52:06.258Z</time>
      </trkpt>
      <trkpt lat="44.2533" lon="2.5109">
        <ele>630</ele>
        <time>2022-06-12T10:52:07.258Z</time>
      </trkpt>
      <trkpt lat="44.25329" lon="2.51088">
        <ele>630</ele>
        <time>2022-06-12T10:52:08.258Z</time>
      </trkpt>
      <trkpt lat="44.25328" lon="2.51087">
        <ele>630</ele>
        <time>2022-06-12T10:52:09.258Z</time>
      </trkpt>
      <trkpt lat="44.25327" lon="2.51086">
        <ele>630</ele>
        <time>2022-06-12T10:52:10.258Z</time>
      </trkpt>
      <trkpt lat="44.25326" lon="2.51086">
        <ele>630</ele>
        <time>2022-06-12T10:52:11.258Z</time>
      </trkpt>
      <trkpt lat="44.25325" lon="2.51085">
        <ele>630</ele>
        <time>2022-06-12T10:52:12.258Z</time>
      </trkpt>
      <trkpt lat="44.25324" lon="2.51084">
        <ele>630</ele>
        <time>2022-06-12T10:52:13.258Z</time>
      </trkpt>
      <trkpt lat="44.25323" lon="2.51083">
        <ele>630</ele>
        <time>2022-06-12T10:52:14.258Z</time>
      </trkpt>
      <trkpt lat="44.25322" lon="2.51082">
        <ele>630</ele>
        <time>2022-06-12T10:52:15.258Z</time>
      </trkpt>
      <trkpt lat="44.25321" lon="2.51081">
        <ele>630</ele>
        <time>2022-06-12T10:52:16.258Z</time>
      </trkpt>
      <trkpt lat="44.2532" lon="2.5108">
        <ele>630</ele>
        <time>2022-06-12T10:52:17.258Z</time>
      </trkpt>
      <trkpt lat="44.25319" lon="2.51079">
        <ele>630</ele>
        <time>2022-06-12T10:52:18.258Z</time>
      </trkpt>
      <trkpt lat="44.25318" lon="2.51078">
        <ele>630</ele>
        <time>2022-06-12T10:52:19.258Z</time>
      </trkpt>
      <trkpt lat="44.25317" lon="2.51077">
        <ele>630</ele>
        <time>2022-06-12T10:52:20.258Z</time>
      </trkpt>
      <trkpt lat="44.25316" lon="2.51076">
        <ele>630</ele>
        <time>2022-06-12T10:52:21.258Z</time>
      </trkpt>
      <trkpt lat="44.25315" lon="2.51076">
        <ele>630</ele>
        <time>2022-06-12T10:52:22.258Z</time>
      </trkpt>
      <trkpt lat="44.25314" lon="2.51075">
        <ele>630</ele>
        <time>2022-06-12T10:52:23.258Z</time>
      </trkpt>
      <trkpt lat="44.25313" lon="2.51074">
        <ele>630</ele>
        <time>2022-06-12T10:52:24.258Z</time>
      </trkpt>
      <trkpt lat="44.25312" lon="2.51073">
        <ele>630</ele>
        <time>2022-06-12T10:52:25.258Z</time>
      </trkpt>
      <trkpt lat="44.25311" lon="2.51073">
        <ele>630</ele>
        <time>2022-06-12T10:52:26.258Z</time>
      </trkpt>
      <trkpt lat="44.2531" lon="2.51072">
        <ele>630</ele>
        <time>2022-06-12T10:52:27.258Z</time>
      </trkpt>
      <trkpt lat="44.2531" lon="2.51071">
        <ele>630</ele>
        <time>2022-06-12T10:52:28.258Z</time>
      </trkpt>
      <trkpt lat="44.25309" lon="2.51071">
        <ele>630</ele>
        <time>2022-06-12T10:52:29.258Z</time>
      </trkpt>
      <trkpt lat="44.25308" lon="2.5107">
        <ele>630</ele>
        <time>2022-06-12T10:52:30.258Z</time>
      </trkpt>
      <trkpt lat="44.25307" lon="2.51069">
        <ele>630</ele>
        <time>2022-06-12T10:52:31.258Z</time>
      </trkpt>
      <trkpt lat="44.25306" lon="2.51068">
        <ele>630</ele>
        <time>2022-06-12T10:52:32.258Z</time>
      </trkpt>
      <trkpt lat="44.25305" lon="2.51067">
        <ele>631</ele>
        <time>2022-06-12T10:52:33.258Z</time>
      </trkpt>
      <trkpt lat="44.25304" lon="2.51067">
        <ele>631</ele>
        <time>2022-06-12T10:52:34.258Z</time>
      </trkpt>
      <trkpt lat="44.25303" lon="2.51066">
        <ele>631</ele>
        <time>2022-06-12T10:52:35.258Z</time>
      </trkpt>
      <trkpt lat="44.25302" lon="2.51065">
        <ele>631</ele>
        <time>2022-06-12T10:52:36.258Z</time>
      </trkpt>
      <trkpt lat="44.25301" lon="2.51063">
        <ele>631</ele>
        <time>2022-06-12T10:52:37.258Z</time>
      </trkpt>
      <trkpt lat="44.253" lon="2.51062">
        <ele>631</ele>
        <time>2022-06-12T10:52:38.258Z</time>
      </trkpt>
      <trkpt lat="44.25299" lon="2.51062">
        <ele>631</ele>
        <time>2022-06-12T10:52:39.258Z</time>
      </trkpt>
      <trkpt lat="44.25299" lon="2.51061">
        <ele>631</ele>
        <time>2022-06-12T10:52:40.258Z</time>
      </trkpt>
      <trkpt lat="44.25298" lon="2.5106">
        <ele>631</ele>
        <time>2022-06-12T10:52:41.258Z</time>
      </trkpt>
      <trkpt lat="44.25297" lon="2.51059">
        <ele>631</ele>
        <time>2022-06-12T10:52:42.258Z</time>
      </trkpt>
      <trkpt lat="44.25296" lon="2.51058">
        <ele>631</ele>
        <time>2022-06-12T10:52:43.258Z</time>
      </trkpt>
      <trkpt lat="44.25295" lon="2.51057">
        <ele>631</ele>
        <time>2022-06-12T10:52:44.258Z</time>
      </trkpt>
      <trkpt lat="44.25295" lon="2.51056">
        <ele>631</ele>
        <time>2022-06-12T10:52:45.258Z</time>
      </trkpt>
      <trkpt lat="44.25294" lon="2.51055">
        <ele>631</ele>
        <time>2022-06-12T10:52:46.258Z</time>
      </trkpt>
      <trkpt lat="44.25294" lon="2.51054">
        <ele>631</ele>
        <time>2022-06-12T10:52:47.258Z</time>
      </trkpt>
      <trkpt lat="44.25293" lon="2.51053">
        <ele>631</ele>
        <time>2022-06-12T10:52:48.258Z</time>
      </trkpt>
      <trkpt lat="44.25293" lon="2.51052">
        <ele>631</ele>
        <time>2022-06-12T10:52:49.258Z</time>
      </trkpt>
      <trkpt lat="44.25292" lon="2.51051">
        <ele>631</ele>
        <time>2022-06-12T10:52:50.258Z</time>
      </trkpt>
      <trkpt lat="44.25291" lon="2.5105">
        <ele>631</ele>
        <time>2022-06-12T10:52:51.258Z</time>
      </trkpt>
      <trkpt lat="44.25291" lon="2.51049">
        <ele>631</ele>
        <time>2022-06-12T10:52:52.258Z</time>
      </trkpt>
      <trkpt lat="44.2529" lon="2.51048">
        <ele>630</ele>
        <time>2022-06-12T10:52:53.258Z</time>
      </trkpt>
      <trkpt lat="44.25289" lon="2.51047">
        <ele>630</ele>
        <time>2022-06-12T10:52:54.258Z</time>
      </trkpt>
      <trkpt lat="44.25288" lon="2.51046">
        <ele>630</ele>
        <time>2022-06-12T10:52:55.258Z</time>
      </trkpt>
      <trkpt lat="44.25288" lon="2.51045">
        <ele>630</ele>
        <time>2022-06-12T10:52:56.258Z</time>
      </trkpt>
      <trkpt lat="44.25287" lon="2.51044">
        <ele>630</ele>
        <time>2022-06-12T10:52:57.258Z</time>
      </trkpt>
      <trkpt lat="44.25286" lon="2.51043">
        <ele>630</ele>
        <time>2022-06-12T10:52:58.258Z</time>
      </trkpt>
      <trkpt lat="44.25285" lon="2.51042">
        <ele>630</ele>
        <time>2022-06-12T10:52:59.258Z</time>
      </trkpt>
      <trkpt lat="44.25284" lon="2.51041">
        <ele>630</ele>
        <time>2022-06-12T10:53:00.258Z</time>
      </trkpt>
      <trkpt lat="44.25284" lon="2.5104">
        <ele>630</ele>
        <time>2022-06-12T10:53:01.258Z</time>
      </trkpt>
      <trkpt lat="44.25283" lon="2.51039">
        <ele>630</ele>
        <time>2022-06-12T10:53:02.258Z</time>
      </trkpt>
      <trkpt lat="44.25282" lon="2.51038">
        <ele>630</ele>
        <time>2022-06-12T10:53:03.258Z</time>
      </trkpt>
      <trkpt lat="44.25281" lon="2.51037">
        <ele>630</ele>
        <time>2022-06-12T10:53:04.258Z</time>
      </trkpt>
      <trkpt lat="44.25281" lon="2.51036">
        <ele>630</ele>
        <time>2022-06-12T10:53:05.258Z</time>
      </trkpt>
      <trkpt lat="44.2528" lon="2.51035">
        <ele>630</ele>
        <time>2022-06-12T10:53:06.258Z</time>
      </trkpt>
      <trkpt lat="44.25279" lon="2.51034">
        <ele>630</ele>
        <time>2022-06-12T10:53:07.258Z</time>
      </trkpt>
      <trkpt lat="44.25278" lon="2.51033">
        <ele>630</ele>
        <time>2022-06-12T10:53:08.258Z</time>
      </trkpt>
      <trkpt lat="44.25277" lon="2.51033">
        <ele>629</ele>
        <time>2022-06-12T10:53:09.258Z</time>
      </trkpt>
      <trkpt lat="44.25277" lon="2.51032">
        <ele>629</ele>
        <time>2022-06-12T10:53:10.258Z</time>
      </trkpt>
      <trkpt lat="44.25276" lon="2.51031">
        <ele>629</ele>
        <time>2022-06-12T10:53:11.258Z</time>
      </trkpt>
      <trkpt lat="44.25275" lon="2.51031">
        <ele>629</ele>
        <time>2022-06-12T10:53:12.258Z</time>
      </trkpt>
      <trkpt lat="44.25274" lon="2.5103">
        <ele>629</ele>
        <time>2022-06-12T10:53:13.258Z</time>
      </trkpt>
      <trkpt lat="44.25274" lon="2.5103">
        <ele>629</ele>
        <time>2022-06-12T10:53:14.258Z</time>
      </trkpt>
      <trkpt lat="44.25273" lon="2.5103">
        <ele>629</ele>
        <time>2022-06-12T10:53:15.258Z</time>
      </trkpt>
      <trkpt lat="44.25272" lon="2.51029">
        <ele>629</ele>
        <time>2022-06-12T10:53:16.258Z</time>
      </trkpt>
      <trkpt lat="44.25271" lon="2.51028">
        <ele>629</ele>
        <time>2022-06-12T10:53:17.258Z</time>
      </trkpt>
      <trkpt lat="44.25271" lon="2.51027">
        <ele>629</ele>
        <time>2022-06-12T10:53:18.258Z</time>
      </trkpt>
      <trkpt lat="44.2527" lon="2.51026">
        <ele>628</ele>
        <time>2022-06-12T10:53:19.258Z</time>
      </trkpt>
      <trkpt lat="44.25269" lon="2.51025">
        <ele>628</ele>
        <time>2022-06-12T10:53:20.258Z</time>
      </trkpt>
      <trkpt lat="44.25267" lon="2.51025">
        <ele>628</ele>
        <time>2022-06-12T10:53:21.258Z</time>
      </trkpt>
      <trkpt lat="44.25266" lon="2.51024">
        <ele>628</ele>
        <time>2022-06-12T10:53:22.258Z</time>
      </trkpt>
      <trkpt lat="44.25265" lon="2.51023">
        <ele>628</ele>
        <time>2022-06-12T10:53:23.258Z</time>
      </trkpt>
      <trkpt lat="44.25264" lon="2.51022">
        <ele>628</ele>
        <time>2022-06-12T10:53:24.258Z</time>
      </trkpt>
      <trkpt lat="44.25263" lon="2.51022">
        <ele>628</ele>
        <time>2022-06-12T10:53:25.258Z</time>
      </trkpt>
      <trkpt lat="44.25262" lon="2.51021">
        <ele>628</ele>
        <time>2022-06-12T10:53:26.258Z</time>
      </trkpt>
      <trkpt lat="44.25262" lon="2.5102">
        <ele>628</ele>
        <time>2022-06-12T10:53:27.258Z</time>
      </trkpt>
      <trkpt lat="44.25261" lon="2.51019">
        <ele>628</ele>
        <time>2022-06-12T10:53:28.258Z</time>
      </trkpt>
      <trkpt lat="44.2526" lon="2.51018">
        <ele>628</ele>
        <time>2022-06-12T10:53:29.258Z</time>
      </trkpt>
      <trkpt lat="44.25259" lon="2.51017">
        <ele>628</ele>
        <time>2022-06-12T10:53:30.258Z</time>
      </trkpt>
      <trkpt lat="44.25258" lon="2.51016">
        <ele>628</ele>
        <time>2022-06-12T10:53:31.258Z</time>
      </trkpt>
      <trkpt lat="44.25257" lon="2.51015">
        <ele>628</ele>
        <time>2022-06-12T10:53:32.258Z</time>
      </trkpt>
      <trkpt lat="44.25256" lon="2.51015">
        <ele>628</ele>
        <time>2022-06-12T10:53:33.258Z</time>
      </trkpt>
      <trkpt lat="44.25256" lon="2.51014">
        <ele>628</ele>
        <time>2022-06-12T10:53:34.258Z</time>
      </trkpt>
      <trkpt lat="44.25255" lon="2.51013">
        <ele>628</ele>
        <time>2022-06-12T10:53:35.258Z</time>
      </trkpt>
      <trkpt lat="44.25254" lon="2.51012">
        <ele>628</ele>
        <time>2022-06-12T10:53:36.258Z</time>
      </trkpt>
      <trkpt lat="44.25253" lon="2.51011">
        <ele>628</ele>
        <time>2022-06-12T10:53:37.258Z</time>
      </trkpt>
      <trkpt lat="44.25252" lon="2.5101">
        <ele>628</ele>
        <time>2022-06-12T10:53:38.258Z</time>
      </trkpt>
      <trkpt lat="44.25251" lon="2.51008">
        <ele>627</ele>
        <time>2022-06-12T10:53:39.258Z</time>
      </trkpt>
      <trkpt lat="44.2525" lon="2.51007">
        <ele>627</ele>
        <time>2022-06-12T10:53:40.258Z</time>
      </trkpt>
      <trkpt lat="44.25249" lon="2.51005">
        <ele>627</ele>
        <time>2022-06-12T10:53:41.258Z</time>
      </trkpt>
      <trkpt lat="44.25248" lon="2.51004">
        <ele>627</ele>
        <time>2022-06-12T10:53:42.258Z</time>
      </trkpt>
      <trkpt lat="44.25247" lon="2.51002">
        <ele>627</ele>
        <time>2022-06-12T10:53:43.258Z</time>
      </trkpt>
      <trkpt lat="44.25246" lon="2.51001">
        <ele>627</ele>
        <time>2022-06-12T10:53:44.258Z</time>
      </trkpt>
      <trkpt lat="44.25246" lon="2.51">
        <ele>627</ele>
        <time>2022-06-12T10:53:45.258Z</time>
      </trkpt>
      <trkpt lat="44.25245" lon="2.50998">
        <ele>627</ele>
        <time>2022-06-12T10:53:46.258Z</time>
      </trkpt>
      <trkpt lat="44.25244" lon="2.50997">
        <ele>627</ele>
        <time>2022-06-12T10:53:47.258Z</time>
      </trkpt>
      <trkpt lat="44.25244" lon="2.50996">
        <ele>627</ele>
        <time>2022-06-12T10:53:48.258Z</time>
      </trkpt>
      <trkpt lat="44.25243" lon="2.50994">
        <ele>626</ele>
        <time>2022-06-12T10:53:49.258Z</time>
      </trkpt>
      <trkpt lat="44.25242" lon="2.50993">
        <ele>626</ele>
        <time>2022-06-12T10:53:50.258Z</time>
      </trkpt>
      <trkpt lat="44.25242" lon="2.50991">
        <ele>626</ele>
        <time>2022-06-12T10:53:51.258Z</time>
      </trkpt>
      <trkpt lat="44.25241" lon="2.50989">
        <ele>626</ele>
        <time>2022-06-12T10:53:52.258Z</time>
      </trkpt>
      <trkpt lat="44.2524" lon="2.50988">
        <ele>626</ele>
        <time>2022-06-12T10:53:53.258Z</time>
      </trkpt>
      <trkpt lat="44.2524" lon="2.50986">
        <ele>626</ele>
        <time>2022-06-12T10:53:54.258Z</time>
      </trkpt>
      <trkpt lat="44.25239" lon="2.50985">
        <ele>626</ele>
        <time>2022-06-12T10:53:55.258Z</time>
      </trkpt>
      <trkpt lat="44.25238" lon="2.50983">
        <ele>625</ele>
        <time>2022-06-12T10:53:56.258Z</time>
      </trkpt>
      <trkpt lat="44.25238" lon="2.50982">
        <ele>625</ele>
        <time>2022-06-12T10:53:57.258Z</time>
      </trkpt>
      <trkpt lat="44.25237" lon="2.5098">
        <ele>625</ele>
        <time>2022-06-12T10:53:58.258Z</time>
      </trkpt>
      <trkpt lat="44.25237" lon="2.50979">
        <ele>625</ele>
        <time>2022-06-12T10:53:59.258Z</time>
      </trkpt>
      <trkpt lat="44.25236" lon="2.50977">
        <ele>625</ele>
        <time>2022-06-12T10:54:00.258Z</time>
      </trkpt>
      <trkpt lat="44.25236" lon="2.50975">
        <ele>625</ele>
        <time>2022-06-12T10:54:01.258Z</time>
      </trkpt>
      <trkpt lat="44.25235" lon="2.50974">
        <ele>625</ele>
        <time>2022-06-12T10:54:02.258Z</time>
      </trkpt>
      <trkpt lat="44.25235" lon="2.50972">
        <ele>625</ele>
        <time>2022-06-12T10:54:03.258Z</time>
      </trkpt>
      <trkpt lat="44.25234" lon="2.5097">
        <ele>624</ele>
        <time>2022-06-12T10:54:04.258Z</time>
      </trkpt>
      <trkpt lat="44.25234" lon="2.50969">
        <ele>624</ele>
        <time>2022-06-12T10:54:05.258Z</time>
      </trkpt>
      <trkpt lat="44.25233" lon="2.50967">
        <ele>624</ele>
        <time>2022-06-12T10:54:06.258Z</time>
      </trkpt>
      <trkpt lat="44.25233" lon="2.50966">
        <ele>624</ele>
        <time>2022-06-12T10:54:07.258Z</time>
      </trkpt>
      <trkpt lat="44.25232" lon="2.50964">
        <ele>624</ele>
        <time>2022-06-12T10:54:08.258Z</time>
      </trkpt>
      <trkpt lat="44.25232" lon="2.50962">
        <ele>624</ele>
        <time>2022-06-12T10:54:09.258Z</time>
      </trkpt>
      <trkpt lat="44.25231" lon="2.50961">
        <ele>624</ele>
        <time>2022-06-12T10:54:10.258Z</time>
      </trkpt>
      <trkpt lat="44.25231" lon="2.50959">
        <ele>624</ele>
        <time>2022-06-12T10:54:11.258Z</time>
      </trkpt>
      <trkpt lat="44.2523" lon="2.50958">
        <ele>624</ele>
        <time>2022-06-12T10:54:12.258Z</time>
      </trkpt>
      <trkpt lat="44.2523" lon="2.50956">
        <ele>624</ele>
        <time>2022-06-12T10:54:13.258Z</time>
      </trkpt>
      <trkpt lat="44.2523" lon="2.50955">
        <ele>623</ele>
        <time>2022-06-12T10:54:14.258Z</time>
      </trkpt>
      <trkpt lat="44.25229" lon="2.50953">
        <ele>623</ele>
        <time>2022-06-12T10:54:15.258Z</time>
      </trkpt>
      <trkpt lat="44.25228" lon="2.50951">
        <ele>623</ele>
        <time>2022-06-12T10:54:16.258Z</time>
      </trkpt>
      <trkpt lat="44.25228" lon="2.50949">
        <ele>623</ele>
        <time>2022-06-12T10:54:17.258Z</time>
      </trkpt>
      <trkpt lat="44.25227" lon="2.50948">
        <ele>623</ele>
        <time>2022-06-12T10:54:18.258Z</time>
      </trkpt>
      <trkpt lat="44.25226" lon="2.50946">
        <ele>623</ele>
        <time>2022-06-12T10:54:19.258Z</time>
      </trkpt>
      <trkpt lat="44.25226" lon="2.50944">
        <ele>622</ele>
        <time>2022-06-12T10:54:20.258Z</time>
      </trkpt>
      <trkpt lat="44.25225" lon="2.50943">
        <ele>622</ele>
        <time>2022-06-12T10:54:21.258Z</time>
      </trkpt>
      <trkpt lat="44.25224" lon="2.50941">
        <ele>622</ele>
        <time>2022-06-12T10:54:22.258Z</time>
      </trkpt>
      <trkpt lat="44.25223" lon="2.50939">
        <ele>622</ele>
        <time>2022-06-12T10:54:23.258Z</time>
      </trkpt>
      <trkpt lat="44.25223" lon="2.50938">
        <ele>622</ele>
        <time>2022-06-12T10:54:24.258Z</time>
      </trkpt>
      <trkpt lat="44.25222" lon="2.50936">
        <ele>622</ele>
        <time>2022-06-12T10:54:25.258Z</time>
      </trkpt>
      <trkpt lat="44.25221" lon="2.50935">
        <ele>621</ele>
        <time>2022-06-12T10:54:26.258Z</time>
      </trkpt>
      <trkpt lat="44.2522" lon="2.50933">
        <ele>621</ele>
        <time>2022-06-12T10:54:27.258Z</time>
      </trkpt>
      <trkpt lat="44.25219" lon="2.50932">
        <ele>621</ele>
        <time>2022-06-12T10:54:28.258Z</time>
      </trkpt>
      <trkpt lat="44.25219" lon="2.5093">
        <ele>621</ele>
        <time>2022-06-12T10:54:29.258Z</time>
      </trkpt>
      <trkpt lat="44.25218" lon="2.50928">
        <ele>621</ele>
        <time>2022-06-12T10:54:30.258Z</time>
      </trkpt>
      <trkpt lat="44.25218" lon="2.50927">
        <ele>621</ele>
        <time>2022-06-12T10:54:31.258Z</time>
      </trkpt>
      <trkpt lat="44.25217" lon="2.50925">
        <ele>621</ele>
        <time>2022-06-12T10:54:32.258Z</time>
      </trkpt>
      <trkpt lat="44.25217" lon="2.50924">
        <ele>620</ele>
        <time>2022-06-12T10:54:33.258Z</time>
      </trkpt>
      <trkpt lat="44.25216" lon="2.50923">
        <ele>620</ele>
        <time>2022-06-12T10:54:34.258Z</time>
      </trkpt>
      <trkpt lat="44.25216" lon="2.50921">
        <ele>620</ele>
        <time>2022-06-12T10:54:35.258Z</time>
      </trkpt>
      <trkpt lat="44.25215" lon="2.5092">
        <ele>620</ele>
        <time>2022-06-12T10:54:36.258Z</time>
      </trkpt>
      <trkpt lat="44.25215" lon="2.50919">
        <ele>620</ele>
        <time>2022-06-12T10:54:37.258Z</time>
      </trkpt>
      <trkpt lat="44.25214" lon="2.50917">
        <ele>620</ele>
        <time>2022-06-12T10:54:38.258Z</time>
      </trkpt>
      <trkpt lat="44.25214" lon="2.50916">
        <ele>620</ele>
        <time>2022-06-12T10:54:39.258Z</time>
      </trkpt>
      <trkpt lat="44.25213" lon="2.50915">
        <ele>620</ele>
        <time>2022-06-12T10:54:40.258Z</time>
      </trkpt>
      <trkpt lat="44.25212" lon="2.50913">
        <ele>620</ele>
        <time>2022-06-12T10:54:41.258Z</time>
      </trkpt>
      <trkpt lat="44.25211" lon="2.50912">
        <ele>620</ele>
        <time>2022-06-12T10:54:42.258Z</time>
      </trkpt>
      <trkpt lat="44.25211" lon="2.50911">
        <ele>620</ele>
        <time>2022-06-12T10:54:43.258Z</time>
      </trkpt>
      <trkpt lat="44.2521" lon="2.5091">
        <ele>620</ele>
        <time>2022-06-12T10:54:44.258Z</time>
      </trkpt>
      <trkpt lat="44.25209" lon="2.50909">
        <ele>620</ele>
        <time>2022-06-12T10:54:45.258Z</time>
      </trkpt>
      <trkpt lat="44.25209" lon="2.50907">
        <ele>620</ele>
        <time>2022-06-12T10:54:46.258Z</time>
      </trkpt>
      <trkpt lat="44.25208" lon="2.50906">
        <ele>620</ele>
        <time>2022-06-12T10:54:47.258Z</time>
      </trkpt>
      <trkpt lat="44.25208" lon="2.50905">
        <ele>620</ele>
        <time>2022-06-12T10:54:48.258Z</time>
      </trkpt>
      <trkpt lat="44.25207" lon="2.50904">
        <ele>619</ele>
        <time>2022-06-12T10:54:49.258Z</time>
      </trkpt>
      <trkpt lat="44.25206" lon="2.50903">
        <ele>619</ele>
        <time>2022-06-12T10:54:50.258Z</time>
      </trkpt>
      <trkpt lat="44.25205" lon="2.50902">
        <ele>619</ele>
        <time>2022-06-12T10:54:51.258Z</time>
      </trkpt>
      <trkpt lat="44.25204" lon="2.50901">
        <ele>619</ele>
        <time>2022-06-12T10:54:52.258Z</time>
      </trkpt>
      <trkpt lat="44.25204" lon="2.509">
        <ele>619</ele>
        <time>2022-06-12T10:54:53.258Z</time>
      </trkpt>
      <trkpt lat="44.25203" lon="2.509">
        <ele>619</ele>
        <time>2022-06-12T10:54:54.258Z</time>
      </trkpt>
      <trkpt lat="44.25202" lon="2.50899">
        <ele>619</ele>
        <time>2022-06-12T10:54:55.258Z</time>
      </trkpt>
      <trkpt lat="44.25201" lon="2.50898">
        <ele>619</ele>
        <time>2022-06-12T10:54:56.258Z</time>
      </trkpt>
      <trkpt lat="44.25199" lon="2.50897">
        <ele>619</ele>
        <time>2022-06-12T10:54:57.258Z</time>
      </trkpt>
      <trkpt lat="44.25198" lon="2.50897">
        <ele>619</ele>
        <time>2022-06-12T10:54:58.258Z</time>
      </trkpt>
      <trkpt lat="44.25197" lon="2.50896">
        <ele>619</ele>
        <time>2022-06-12T10:54:59.258Z</time>
      </trkpt>
      <trkpt lat="44.25196" lon="2.50896">
        <ele>619</ele>
        <time>2022-06-12T10:55:00.258Z</time>
      </trkpt>
      <trkpt lat="44.25196" lon="2.50896">
        <ele>619</ele>
        <time>2022-06-12T10:55:01.258Z</time>
      </trkpt>
      <trkpt lat="44.25195" lon="2.50896">
        <ele>619</ele>
        <time>2022-06-12T10:55:02.258Z</time>
      </trkpt>
      <trkpt lat="44.25195" lon="2.50896">
        <ele>619</ele>
        <time>2022-06-12T10:55:03.258Z</time>
      </trkpt>
      <trkpt lat="44.25194" lon="2.50896">
        <ele>619</ele>
        <time>2022-06-12T10:55:04.258Z</time>
      </trkpt>
      <trkpt lat="44.25193" lon="2.50896">
        <ele>619</ele>
        <time>2022-06-12T10:55:05.258Z</time>
      </trkpt>
      <trkpt lat="44.25192" lon="2.50897">
        <ele>619</ele>
        <time>2022-06-12T10:55:06.258Z</time>
      </trkpt>
      <trkpt lat="44.25191" lon="2.50897">
        <ele>619</ele>
        <time>2022-06-12T10:55:07.258Z</time>
      </trkpt>
      <trkpt lat="44.2519" lon="2.50898">
        <ele>619</ele>
        <time>2022-06-12T10:55:08.258Z</time>
      </trkpt>
      <trkpt lat="44.25189" lon="2.50898">
        <ele>619</ele>
        <time>2022-06-12T10:55:09.258Z</time>
      </trkpt>
      <trkpt lat="44.25188" lon="2.50899">
        <ele>619</ele>
        <time>2022-06-12T10:55:10.258Z</time>
      </trkpt>
      <trkpt lat="44.25187" lon="2.50899">
        <ele>619</ele>
        <time>2022-06-12T10:55:11.258Z</time>
      </trkpt>
      <trkpt lat="44.25187" lon="2.509">
        <ele>619</ele>
        <time>2022-06-12T10:55:12.258Z</time>
      </trkpt>
      <trkpt lat="44.25186" lon="2.509">
        <ele>619</ele>
        <time>2022-06-12T10:55:13.258Z</time>
      </trkpt>
      <trkpt lat="44.25185" lon="2.50901">
        <ele>619</ele>
        <time>2022-06-12T10:55:14.258Z</time>
      </trkpt>
      <trkpt lat="44.25184" lon="2.50901">
        <ele>619</ele>
        <time>2022-06-12T10:55:15.258Z</time>
      </trkpt>
      <trkpt lat="44.25183" lon="2.50901">
        <ele>619</ele>
        <time>2022-06-12T10:55:16.258Z</time>
      </trkpt>
      <trkpt lat="44.25183" lon="2.50902">
        <ele>619</ele>
        <time>2022-06-12T10:55:17.258Z</time>
      </trkpt>
      <trkpt lat="44.25182" lon="2.50903">
        <ele>619</ele>
        <time>2022-06-12T10:55:18.258Z</time>
      </trkpt>
      <trkpt lat="44.25181" lon="2.50904">
        <ele>619</ele>
        <time>2022-06-12T10:55:19.258Z</time>
      </trkpt>
      <trkpt lat="44.2518" lon="2.50904">
        <ele>619</ele>
        <time>2022-06-12T10:55:20.258Z</time>
      </trkpt>
      <trkpt lat="44.25179" lon="2.50905">
        <ele>619</ele>
        <time>2022-06-12T10:55:21.258Z</time>
      </trkpt>
      <trkpt lat="44.25179" lon="2.50906">
        <ele>619</ele>
        <time>2022-06-12T10:55:22.258Z</time>
      </trkpt>
      <trkpt lat="44.25178" lon="2.50907">
        <ele>619</ele>
        <time>2022-06-12T10:55:23.258Z</time>
      </trkpt>
      <trkpt lat="44.25177" lon="2.50907">
        <ele>619</ele>
        <time>2022-06-12T10:55:24.258Z</time>
      </trkpt>
      <trkpt lat="44.25176" lon="2.50908">
        <ele>619</ele>
        <time>2022-06-12T10:55:25.258Z</time>
      </trkpt>
      <trkpt lat="44.25175" lon="2.50909">
        <ele>619</ele>
        <time>2022-06-12T10:55:26.258Z</time>
      </trkpt>
      <trkpt lat="44.25174" lon="2.5091">
        <ele>619</ele>
        <time>2022-06-12T10:55:27.258Z</time>
      </trkpt>
      <trkpt lat="44.25173" lon="2.50911">
        <ele>619</ele>
        <time>2022-06-12T10:55:28.258Z</time>
      </trkpt>
      <trkpt lat="44.25172" lon="2.50911">
        <ele>619</ele>
        <time>2022-06-12T10:55:29.258Z</time>
      </trkpt>
      <trkpt lat="44.25171" lon="2.50912">
        <ele>619</ele>
        <time>2022-06-12T10:55:30.258Z</time>
      </trkpt>
      <trkpt lat="44.2517" lon="2.50913">
        <ele>619</ele>
        <time>2022-06-12T10:55:31.258Z</time>
      </trkpt>
      <trkpt lat="44.25169" lon="2.50913">
        <ele>619</ele>
        <time>2022-06-12T10:55:32.258Z</time>
      </trkpt>
      <trkpt lat="44.25168" lon="2.50914">
        <ele>619</ele>
        <time>2022-06-12T10:55:33.258Z</time>
      </trkpt>
      <trkpt lat="44.25167" lon="2.50915">
        <ele>619</ele>
        <time>2022-06-12T10:55:34.258Z</time>
      </trkpt>
      <trkpt lat="44.25166" lon="2.50916">
        <ele>619</ele>
        <time>2022-06-12T10:55:35.258Z</time>
      </trkpt>
      <trkpt lat="44.25165" lon="2.50916">
        <ele>619</ele>
        <time>2022-06-12T10:55:36.258Z</time>
      </trkpt>
      <trkpt lat="44.25164" lon="2.50917">
        <ele>619</ele>
        <time>2022-06-12T10:55:37.258Z</time>
      </trkpt>
      <trkpt lat="44.25162" lon="2.50917">
        <ele>619</ele>
        <time>2022-06-12T10:55:38.258Z</time>
      </trkpt>
      <trkpt lat="44.25161" lon="2.50918">
        <ele>619</ele>
        <time>2022-06-12T10:55:39.258Z</time>
      </trkpt>
      <trkpt lat="44.2516" lon="2.50918">
        <ele>619</ele>
        <time>2022-06-12T10:55:40.258Z</time>
      </trkpt>
      <trkpt lat="44.25159" lon="2.50919">
        <ele>619</ele>
        <time>2022-06-12T10:55:41.258Z</time>
      </trkpt>
      <trkpt lat="44.25158" lon="2.50919">
        <ele>619</ele>
        <time>2022-06-12T10:55:42.258Z</time>
      </trkpt>
      <trkpt lat="44.25157" lon="2.5092">
        <ele>619</ele>
        <time>2022-06-12T10:55:43.258Z</time>
      </trkpt>
      <trkpt lat="44.25156" lon="2.5092">
        <ele>619</ele>
        <time>2022-06-12T10:55:44.258Z</time>
      </trkpt>
      <trkpt lat="44.25155" lon="2.50921">
        <ele>619</ele>
        <time>2022-06-12T10:55:45.258Z</time>
      </trkpt>
      <trkpt lat="44.25154" lon="2.50922">
        <ele>619</ele>
        <time>2022-06-12T10:55:46.258Z</time>
      </trkpt>
      <trkpt lat="44.25153" lon="2.50923">
        <ele>619</ele>
        <time>2022-06-12T10:55:47.258Z</time>
      </trkpt>
      <trkpt lat="44.25152" lon="2.50923">
        <ele>619</ele>
        <time>2022-06-12T10:55:48.258Z</time>
      </trkpt>
      <trkpt lat="44.25151" lon="2.50924">
        <ele>619</ele>
        <time>2022-06-12T10:55:49.258Z</time>
      </trkpt>
      <trkpt lat="44.2515" lon="2.50925">
        <ele>619</ele>
        <time>2022-06-12T10:55:50.258Z</time>
      </trkpt>
      <trkpt lat="44.25149" lon="2.50926">
        <ele>619</ele>
        <time>2022-06-12T10:55:51.258Z</time>
      </trkpt>
      <trkpt lat="44.25148" lon="2.50926">
        <ele>619</ele>
        <time>2022-06-12T10:55:52.258Z</time>
      </trkpt>
      <trkpt lat="44.25147" lon="2.50927">
        <ele>618</ele>
        <time>2022-06-12T10:55:53.258Z</time>
      </trkpt>
      <trkpt lat="44.25146" lon="2.50929">
        <ele>618</ele>
        <time>2022-06-12T10:55:54.258Z</time>
      </trkpt>
      <trkpt lat="44.25145" lon="2.5093">
        <ele>618</ele>
        <time>2022-06-12T10:55:55.258Z</time>
      </trkpt>
      <trkpt lat="44.25145" lon="2.50931">
        <ele>618</ele>
        <time>2022-06-12T10:55:56.258Z</time>
      </trkpt>
      <trkpt lat="44.25144" lon="2.50932">
        <ele>618</ele>
        <time>2022-06-12T10:55:57.258Z</time>
      </trkpt>
      <trkpt lat="44.25143" lon="2.50933">
        <ele>618</ele>
        <time>2022-06-12T10:55:58.258Z</time>
      </trkpt>
      <trkpt lat="44.25142" lon="2.50934">
        <ele>618</ele>
        <time>2022-06-12T10:55:59.258Z</time>
      </trkpt>
      <trkpt lat="44.25142" lon="2.50936">
        <ele>618</ele>
        <time>2022-06-12T10:56:00.258Z</time>
      </trkpt>
      <trkpt lat="44.25141" lon="2.50937">
        <ele>618</ele>
        <time>2022-06-12T10:56:01.258Z</time>
      </trkpt>
      <trkpt lat="44.25141" lon="2.50938">
        <ele>618</ele>
        <time>2022-06-12T10:56:02.258Z</time>
      </trkpt>
      <trkpt lat="44.2514" lon="2.5094">
        <ele>618</ele>
        <time>2022-06-12T10:56:03.258Z</time>
      </trkpt>
      <trkpt lat="44.25139" lon="2.50941">
        <ele>617</ele>
        <time>2022-06-12T10:56:04.258Z</time>
      </trkpt>
      <trkpt lat="44.25139" lon="2.50942">
        <ele>617</ele>
        <time>2022-06-12T10:56:05.258Z</time>
      </trkpt>
      <trkpt lat="44.25138" lon="2.50944">
        <ele>617</ele>
        <time>2022-06-12T10:56:06.258Z</time>
      </trkpt>
      <trkpt lat="44.25138" lon="2.50945">
        <ele>617</ele>
        <time>2022-06-12T10:56:07.258Z</time>
      </trkpt>
      <trkpt lat="44.25137" lon="2.50946">
        <ele>617</ele>
        <time>2022-06-12T10:56:08.258Z</time>
      </trkpt>
      <trkpt lat="44.25137" lon="2.50948">
        <ele>617</ele>
        <time>2022-06-12T10:56:09.258Z</time>
      </trkpt>
      <trkpt lat="44.25136" lon="2.5095">
        <ele>617</ele>
        <time>2022-06-12T10:56:10.258Z</time>
      </trkpt>
      <trkpt lat="44.25136" lon="2.50951">
        <ele>617</ele>
        <time>2022-06-12T10:56:11.258Z</time>
      </trkpt>
      <trkpt lat="44.25136" lon="2.50952">
        <ele>617</ele>
        <time>2022-06-12T10:56:12.258Z</time>
      </trkpt>
      <trkpt lat="44.25136" lon="2.50953">
        <ele>617</ele>
        <time>2022-06-12T10:56:13.258Z</time>
      </trkpt>
      <trkpt lat="44.25135" lon="2.50954">
        <ele>617</ele>
        <time>2022-06-12T10:56:14.258Z</time>
      </trkpt>
      <trkpt lat="44.25135" lon="2.50956">
        <ele>617</ele>
        <time>2022-06-12T10:56:15.258Z</time>
      </trkpt>
      <trkpt lat="44.25135" lon="2.50957">
        <ele>616</ele>
        <time>2022-06-12T10:56:16.258Z</time>
      </trkpt>
      <trkpt lat="44.25134" lon="2.50959">
        <ele>616</ele>
        <time>2022-06-12T10:56:17.258Z</time>
      </trkpt>
      <trkpt lat="44.25134" lon="2.5096">
        <ele>616</ele>
        <time>2022-06-12T10:56:18.258Z</time>
      </trkpt>
      <trkpt lat="44.25134" lon="2.50961">
        <ele>616</ele>
        <time>2022-06-12T10:56:19.258Z</time>
      </trkpt>
      <trkpt lat="44.25134" lon="2.50962">
        <ele>616</ele>
        <time>2022-06-12T10:56:20.258Z</time>
      </trkpt>
      <trkpt lat="44.25134" lon="2.50963">
        <ele>616</ele>
        <time>2022-06-12T10:56:21.258Z</time>
      </trkpt>
      <trkpt lat="44.25134" lon="2.50964">
        <ele>616</ele>
        <time>2022-06-12T10:56:22.258Z</time>
      </trkpt>
      <trkpt lat="44.25134" lon="2.50965">
        <ele>616</ele>
        <time>2022-06-12T10:56:23.258Z</time>
      </trkpt>
      <trkpt lat="44.25134" lon="2.50967">
        <ele>616</ele>
        <time>2022-06-12T10:56:24.258Z</time>
      </trkpt>
      <trkpt lat="44.25134" lon="2.50968">
        <ele>616</ele>
        <time>2022-06-12T10:56:25.258Z</time>
      </trkpt>
      <trkpt lat="44.25134" lon="2.50969">
        <ele>616</ele>
        <time>2022-06-12T10:56:26.258Z</time>
      </trkpt>
      <trkpt lat="44.25134" lon="2.50971">
        <ele>616</ele>
        <time>2022-06-12T10:56:27.258Z</time>
      </trkpt>
      <trkpt lat="44.25134" lon="2.50972">
        <ele>615</ele>
        <time>2022-06-12T10:56:28.258Z</time>
      </trkpt>
      <trkpt lat="44.25133" lon="2.50974">
        <ele>615</ele>
        <time>2022-06-12T10:56:29.258Z</time>
      </trkpt>
      <trkpt lat="44.25133" lon="2.50976">
        <ele>615</ele>
        <time>2022-06-12T10:56:30.258Z</time>
      </trkpt>
      <trkpt lat="44.25134" lon="2.50978">
        <ele>615</ele>
        <time>2022-06-12T10:56:31.258Z</time>
      </trkpt>
      <trkpt lat="44.25133" lon="2.50979">
        <ele>615</ele>
        <time>2022-06-12T10:56:32.258Z</time>
      </trkpt>
      <trkpt lat="44.25133" lon="2.50981">
        <ele>615</ele>
        <time>2022-06-12T10:56:33.258Z</time>
      </trkpt>
      <trkpt lat="44.25133" lon="2.50982">
        <ele>615</ele>
        <time>2022-06-12T10:56:34.258Z</time>
      </trkpt>
      <trkpt lat="44.25133" lon="2.50984">
        <ele>615</ele>
        <time>2022-06-12T10:56:35.258Z</time>
      </trkpt>
      <trkpt lat="44.25133" lon="2.50986">
        <ele>615</ele>
        <time>2022-06-12T10:56:36.258Z</time>
      </trkpt>
      <trkpt lat="44.25133" lon="2.50987">
        <ele>615</ele>
        <time>2022-06-12T10:56:37.258Z</time>
      </trkpt>
      <trkpt lat="44.25132" lon="2.50989">
        <ele>615</ele>
        <time>2022-06-12T10:56:38.258Z</time>
      </trkpt>
      <trkpt lat="44.25132" lon="2.50991">
        <ele>615</ele>
        <time>2022-06-12T10:56:39.258Z</time>
      </trkpt>
      <trkpt lat="44.25132" lon="2.50992">
        <ele>615</ele>
        <time>2022-06-12T10:56:40.258Z</time>
      </trkpt>
      <trkpt lat="44.25132" lon="2.50994">
        <ele>615</ele>
        <time>2022-06-12T10:56:41.258Z</time>
      </trkpt>
      <trkpt lat="44.25132" lon="2.50996">
        <ele>615</ele>
        <time>2022-06-12T10:56:42.258Z</time>
      </trkpt>
      <trkpt lat="44.25131" lon="2.50997">
        <ele>615</ele>
        <time>2022-06-12T10:56:43.258Z</time>
      </trkpt>
      <trkpt lat="44.25131" lon="2.50999">
        <ele>615</ele>
        <time>2022-06-12T10:56:44.258Z</time>
      </trkpt>
      <trkpt lat="44.25131" lon="2.51">
        <ele>615</ele>
        <time>2022-06-12T10:56:45.258Z</time>
      </trkpt>
      <trkpt lat="44.25131" lon="2.51002">
        <ele>616</ele>
        <time>2022-06-12T10:56:46.258Z</time>
      </trkpt>
      <trkpt lat="44.2513" lon="2.51003">
        <ele>616</ele>
        <time>2022-06-12T10:56:47.258Z</time>
      </trkpt>
      <trkpt lat="44.2513" lon="2.51005">
        <ele>615</ele>
        <time>2022-06-12T10:56:48.258Z</time>
      </trkpt>
      <trkpt lat="44.25129" lon="2.51006">
        <ele>615</ele>
        <time>2022-06-12T10:56:49.258Z</time>
      </trkpt>
      <trkpt lat="44.25129" lon="2.51008">
        <ele>615</ele>
        <time>2022-06-12T10:56:50.258Z</time>
      </trkpt>
      <trkpt lat="44.25128" lon="2.51009">
        <ele>615</ele>
        <time>2022-06-12T10:56:51.258Z</time>
      </trkpt>
      <trkpt lat="44.25128" lon="2.51011">
        <ele>615</ele>
        <time>2022-06-12T10:56:52.258Z</time>
      </trkpt>
      <trkpt lat="44.25127" lon="2.51013">
        <ele>615</ele>
        <time>2022-06-12T10:56:53.258Z</time>
      </trkpt>
      <trkpt lat="44.25126" lon="2.51015">
        <ele>615</ele>
        <time>2022-06-12T10:56:54.258Z</time>
      </trkpt>
      <trkpt lat="44.25126" lon="2.51016">
        <ele>615</ele>
        <time>2022-06-12T10:56:55.258Z</time>
      </trkpt>
      <trkpt lat="44.25125" lon="2.51018">
        <ele>615</ele>
        <time>2022-06-12T10:56:56.258Z</time>
      </trkpt>
      <trkpt lat="44.25125" lon="2.51019">
        <ele>615</ele>
        <time>2022-06-12T10:56:57.258Z</time>
      </trkpt>
      <trkpt lat="44.25124" lon="2.5102">
        <ele>615</ele>
        <time>2022-06-12T10:56:58.258Z</time>
      </trkpt>
      <trkpt lat="44.25124" lon="2.51022">
        <ele>615</ele>
        <time>2022-06-12T10:56:59.258Z</time>
      </trkpt>
      <trkpt lat="44.25123" lon="2.51023">
        <ele>614</ele>
        <time>2022-06-12T10:57:00.258Z</time>
      </trkpt>
      <trkpt lat="44.25123" lon="2.51025">
        <ele>614</ele>
        <time>2022-06-12T10:57:01.258Z</time>
      </trkpt>
      <trkpt lat="44.25122" lon="2.51026">
        <ele>614</ele>
        <time>2022-06-12T10:57:02.258Z</time>
      </trkpt>
      <trkpt lat="44.25121" lon="2.51027">
        <ele>614</ele>
        <time>2022-06-12T10:57:03.258Z</time>
      </trkpt>
      <trkpt lat="44.25121" lon="2.51028">
        <ele>614</ele>
        <time>2022-06-12T10:57:04.258Z</time>
      </trkpt>
      <trkpt lat="44.2512" lon="2.5103">
        <ele>613</ele>
        <time>2022-06-12T10:57:05.258Z</time>
      </trkpt>
      <trkpt lat="44.2512" lon="2.51031">
        <ele>613</ele>
        <time>2022-06-12T10:57:06.258Z</time>
      </trkpt>
      <trkpt lat="44.25119" lon="2.51032">
        <ele>613</ele>
        <time>2022-06-12T10:57:07.258Z</time>
      </trkpt>
      <trkpt lat="44.25119" lon="2.51034">
        <ele>613</ele>
        <time>2022-06-12T10:57:08.258Z</time>
      </trkpt>
      <trkpt lat="44.25118" lon="2.51036">
        <ele>613</ele>
        <time>2022-06-12T10:57:09.258Z</time>
      </trkpt>
      <trkpt lat="44.25117" lon="2.51037">
        <ele>612</ele>
        <time>2022-06-12T10:57:10.258Z</time>
      </trkpt>
      <trkpt lat="44.25117" lon="2.51038">
        <ele>612</ele>
        <time>2022-06-12T10:57:11.258Z</time>
      </trkpt>
      <trkpt lat="44.25116" lon="2.51039">
        <ele>612</ele>
        <time>2022-06-12T10:57:12.258Z</time>
      </trkpt>
      <trkpt lat="44.25115" lon="2.51041">
        <ele>612</ele>
        <time>2022-06-12T10:57:13.258Z</time>
      </trkpt>
      <trkpt lat="44.25115" lon="2.51042">
        <ele>612</ele>
        <time>2022-06-12T10:57:14.258Z</time>
      </trkpt>
      <trkpt lat="44.25114" lon="2.51044">
        <ele>612</ele>
        <time>2022-06-12T10:57:15.258Z</time>
      </trkpt>
      <trkpt lat="44.25114" lon="2.51045">
        <ele>612</ele>
        <time>2022-06-12T10:57:16.258Z</time>
      </trkpt>
      <trkpt lat="44.25113" lon="2.51047">
        <ele>612</ele>
        <time>2022-06-12T10:57:17.258Z</time>
      </trkpt>
      <trkpt lat="44.25112" lon="2.51048">
        <ele>612</ele>
        <time>2022-06-12T10:57:18.258Z</time>
      </trkpt>
      <trkpt lat="44.25112" lon="2.5105">
        <ele>611</ele>
        <time>2022-06-12T10:57:19.258Z</time>
      </trkpt>
      <trkpt lat="44.25111" lon="2.51051">
        <ele>611</ele>
        <time>2022-06-12T10:57:20.258Z</time>
      </trkpt>
      <trkpt lat="44.25111" lon="2.51053">
        <ele>611</ele>
        <time>2022-06-12T10:57:21.258Z</time>
      </trkpt>
      <trkpt lat="44.2511" lon="2.51054">
        <ele>611</ele>
        <time>2022-06-12T10:57:22.258Z</time>
      </trkpt>
      <trkpt lat="44.2511" lon="2.51055">
        <ele>611</ele>
        <time>2022-06-12T10:57:23.258Z</time>
      </trkpt>
      <trkpt lat="44.25109" lon="2.51056">
        <ele>611</ele>
        <time>2022-06-12T10:57:24.258Z</time>
      </trkpt>
      <trkpt lat="44.25108" lon="2.51057">
        <ele>611</ele>
        <time>2022-06-12T10:57:25.258Z</time>
      </trkpt>
      <trkpt lat="44.25108" lon="2.51059">
        <ele>611</ele>
        <time>2022-06-12T10:57:26.258Z</time>
      </trkpt>
      <trkpt lat="44.25107" lon="2.5106">
        <ele>611</ele>
        <time>2022-06-12T10:57:27.258Z</time>
      </trkpt>
      <trkpt lat="44.25106" lon="2.51062">
        <ele>611</ele>
        <time>2022-06-12T10:57:28.258Z</time>
      </trkpt>
      <trkpt lat="44.25105" lon="2.51063">
        <ele>611</ele>
        <time>2022-06-12T10:57:29.258Z</time>
      </trkpt>
      <trkpt lat="44.25105" lon="2.51065">
        <ele>611</ele>
        <time>2022-06-12T10:57:30.258Z</time>
      </trkpt>
      <trkpt lat="44.25104" lon="2.51066">
        <ele>611</ele>
        <time>2022-06-12T10:57:31.258Z</time>
      </trkpt>
      <trkpt lat="44.25104" lon="2.51067">
        <ele>611</ele>
        <time>2022-06-12T10:57:32.258Z</time>
      </trkpt>
      <trkpt lat="44.25103" lon="2.51069">
        <ele>611</ele>
        <time>2022-06-12T10:57:33.258Z</time>
      </trkpt>
      <trkpt lat="44.25102" lon="2.5107">
        <ele>611</ele>
        <time>2022-06-12T10:57:34.258Z</time>
      </trkpt>
      <trkpt lat="44.25102" lon="2.51072">
        <ele>611</ele>
        <time>2022-06-12T10:57:35.258Z</time>
      </trkpt>
      <trkpt lat="44.25102" lon="2.51073">
        <ele>611</ele>
        <time>2022-06-12T10:57:36.258Z</time>
      </trkpt>
      <trkpt lat="44.25101" lon="2.51074">
        <ele>611</ele>
        <time>2022-06-12T10:57:37.258Z</time>
      </trkpt>
      <trkpt lat="44.25101" lon="2.51076">
        <ele>611</ele>
        <time>2022-06-12T10:57:38.258Z</time>
      </trkpt>
      <trkpt lat="44.251" lon="2.51077">
        <ele>611</ele>
        <time>2022-06-12T10:57:39.258Z</time>
      </trkpt>
      <trkpt lat="44.251" lon="2.51078">
        <ele>611</ele>
        <time>2022-06-12T10:57:40.258Z</time>
      </trkpt>
      <trkpt lat="44.25099" lon="2.51079">
        <ele>611</ele>
        <time>2022-06-12T10:57:41.258Z</time>
      </trkpt>
      <trkpt lat="44.25099" lon="2.5108">
        <ele>611</ele>
        <time>2022-06-12T10:57:42.258Z</time>
      </trkpt>
      <trkpt lat="44.25098" lon="2.51081">
        <ele>611</ele>
        <time>2022-06-12T10:57:43.258Z</time>
      </trkpt>
      <trkpt lat="44.25098" lon="2.51082">
        <ele>611</ele>
        <time>2022-06-12T10:57:44.258Z</time>
      </trkpt>
      <trkpt lat="44.25097" lon="2.51083">
        <ele>611</ele>
        <time>2022-06-12T10:57:45.258Z</time>
      </trkpt>
      <trkpt lat="44.25096" lon="2.51085">
        <ele>610</ele>
        <time>2022-06-12T10:57:46.258Z</time>
      </trkpt>
      <trkpt lat="44.25095" lon="2.51086">
        <ele>610</ele>
        <time>2022-06-12T10:57:47.258Z</time>
      </trkpt>
      <trkpt lat="44.25094" lon="2.51087">
        <ele>610</ele>
        <time>2022-06-12T10:57:48.258Z</time>
      </trkpt>
      <trkpt lat="44.25094" lon="2.51088">
        <ele>610</ele>
        <time>2022-06-12T10:57:49.258Z</time>
      </trkpt>
      <trkpt lat="44.25093" lon="2.51089">
        <ele>610</ele>
        <time>2022-06-12T10:57:50.258Z</time>
      </trkpt>
      <trkpt lat="44.25092" lon="2.51089">
        <ele>610</ele>
        <time>2022-06-12T10:57:51.258Z</time>
      </trkpt>
      <trkpt lat="44.25092" lon="2.5109">
        <ele>609</ele>
        <time>2022-06-12T10:57:52.258Z</time>
      </trkpt>
      <trkpt lat="44.25091" lon="2.51091">
        <ele>609</ele>
        <time>2022-06-12T10:57:53.258Z</time>
      </trkpt>
      <trkpt lat="44.2509" lon="2.51092">
        <ele>609</ele>
        <time>2022-06-12T10:57:54.258Z</time>
      </trkpt>
      <trkpt lat="44.25089" lon="2.51093">
        <ele>609</ele>
        <time>2022-06-12T10:57:55.258Z</time>
      </trkpt>
      <trkpt lat="44.25089" lon="2.51093">
        <ele>609</ele>
        <time>2022-06-12T10:57:56.258Z</time>
      </trkpt>
      <trkpt lat="44.25088" lon="2.51094">
        <ele>609</ele>
        <time>2022-06-12T10:57:57.258Z</time>
      </trkpt>
      <trkpt lat="44.25087" lon="2.51095">
        <ele>608</ele>
        <time>2022-06-12T10:57:58.258Z</time>
      </trkpt>
      <trkpt lat="44.25086" lon="2.51097">
        <ele>608</ele>
        <time>2022-06-12T10:57:59.258Z</time>
      </trkpt>
      <trkpt lat="44.25085" lon="2.51098">
        <ele>608</ele>
        <time>2022-06-12T10:58:00.258Z</time>
      </trkpt>
      <trkpt lat="44.25085" lon="2.51099">
        <ele>608</ele>
        <time>2022-06-12T10:58:01.258Z</time>
      </trkpt>
      <trkpt lat="44.25084" lon="2.511">
        <ele>608</ele>
        <time>2022-06-12T10:58:02.258Z</time>
      </trkpt>
      <trkpt lat="44.25083" lon="2.51101">
        <ele>608</ele>
        <time>2022-06-12T10:58:03.258Z</time>
      </trkpt>
      <trkpt lat="44.25082" lon="2.51102">
        <ele>608</ele>
        <time>2022-06-12T10:58:04.258Z</time>
      </trkpt>
      <trkpt lat="44.25081" lon="2.51103">
        <ele>608</ele>
        <time>2022-06-12T10:58:05.258Z</time>
      </trkpt>
      <trkpt lat="44.2508" lon="2.51104">
        <ele>608</ele>
        <time>2022-06-12T10:58:06.258Z</time>
      </trkpt>
      <trkpt lat="44.25079" lon="2.51105">
        <ele>608</ele>
        <time>2022-06-12T10:58:07.258Z</time>
      </trkpt>
      <trkpt lat="44.25078" lon="2.51106">
        <ele>608</ele>
        <time>2022-06-12T10:58:08.258Z</time>
      </trkpt>
      <trkpt lat="44.25077" lon="2.51107">
        <ele>608</ele>
        <time>2022-06-12T10:58:09.258Z</time>
      </trkpt>
      <trkpt lat="44.25076" lon="2.51108">
        <ele>608</ele>
        <time>2022-06-12T10:58:10.258Z</time>
      </trkpt>
      <trkpt lat="44.25075" lon="2.51109">
        <ele>607</ele>
        <time>2022-06-12T10:58:11.258Z</time>
      </trkpt>
      <trkpt lat="44.25075" lon="2.5111">
        <ele>607</ele>
        <time>2022-06-12T10:58:12.258Z</time>
      </trkpt>
      <trkpt lat="44.25074" lon="2.51112">
        <ele>607</ele>
        <time>2022-06-12T10:58:13.258Z</time>
      </trkpt>
      <trkpt lat="44.25073" lon="2.51113">
        <ele>607</ele>
        <time>2022-06-12T10:58:14.258Z</time>
      </trkpt>
      <trkpt lat="44.25072" lon="2.51114">
        <ele>607</ele>
        <time>2022-06-12T10:58:15.258Z</time>
      </trkpt>
      <trkpt lat="44.25072" lon="2.51116">
        <ele>607</ele>
        <time>2022-06-12T10:58:16.258Z</time>
      </trkpt>
      <trkpt lat="44.25071" lon="2.51117">
        <ele>607</ele>
        <time>2022-06-12T10:58:17.258Z</time>
      </trkpt>
      <trkpt lat="44.2507" lon="2.51118">
        <ele>607</ele>
        <time>2022-06-12T10:58:18.258Z</time>
      </trkpt>
      <trkpt lat="44.25069" lon="2.5112">
        <ele>607</ele>
        <time>2022-06-12T10:58:19.258Z</time>
      </trkpt>
      <trkpt lat="44.25068" lon="2.51121">
        <ele>607</ele>
        <time>2022-06-12T10:58:20.258Z</time>
      </trkpt>
      <trkpt lat="44.25068" lon="2.51122">
        <ele>607</ele>
        <time>2022-06-12T10:58:21.258Z</time>
      </trkpt>
      <trkpt lat="44.25067" lon="2.51123">
        <ele>606</ele>
        <time>2022-06-12T10:58:22.258Z</time>
      </trkpt>
      <trkpt lat="44.25066" lon="2.51125">
        <ele>606</ele>
        <time>2022-06-12T10:58:23.258Z</time>
      </trkpt>
      <trkpt lat="44.25065" lon="2.51126">
        <ele>606</ele>
        <time>2022-06-12T10:58:24.258Z</time>
      </trkpt>
      <trkpt lat="44.25064" lon="2.51127">
        <ele>606</ele>
        <time>2022-06-12T10:58:25.258Z</time>
      </trkpt>
      <trkpt lat="44.25063" lon="2.51128">
        <ele>606</ele>
        <time>2022-06-12T10:58:26.258Z</time>
      </trkpt>
      <trkpt lat="44.25062" lon="2.51129">
        <ele>606</ele>
        <time>2022-06-12T10:58:27.258Z</time>
      </trkpt>
      <trkpt lat="44.25061" lon="2.5113">
        <ele>606</ele>
        <time>2022-06-12T10:58:28.258Z</time>
      </trkpt>
      <trkpt lat="44.2506" lon="2.51131">
        <ele>606</ele>
        <time>2022-06-12T10:58:29.258Z</time>
      </trkpt>
      <trkpt lat="44.2506" lon="2.51132">
        <ele>606</ele>
        <time>2022-06-12T10:58:30.258Z</time>
      </trkpt>
      <trkpt lat="44.25059" lon="2.51133">
        <ele>606</ele>
        <time>2022-06-12T10:58:31.258Z</time>
      </trkpt>
      <trkpt lat="44.25058" lon="2.51134">
        <ele>606</ele>
        <time>2022-06-12T10:58:32.258Z</time>
      </trkpt>
      <trkpt lat="44.25057" lon="2.51135">
        <ele>605</ele>
        <time>2022-06-12T10:58:33.258Z</time>
      </trkpt>
      <trkpt lat="44.25056" lon="2.51136">
        <ele>605</ele>
        <time>2022-06-12T10:58:34.258Z</time>
      </trkpt>
      <trkpt lat="44.25055" lon="2.51137">
        <ele>605</ele>
        <time>2022-06-12T10:58:35.258Z</time>
      </trkpt>
      <trkpt lat="44.25054" lon="2.51138">
        <ele>605</ele>
        <time>2022-06-12T10:58:36.258Z</time>
      </trkpt>
      <trkpt lat="44.25054" lon="2.51139">
        <ele>605</ele>
        <time>2022-06-12T10:58:37.258Z</time>
      </trkpt>
      <trkpt lat="44.25053" lon="2.5114">
        <ele>605</ele>
        <time>2022-06-12T10:58:38.258Z</time>
      </trkpt>
      <trkpt lat="44.25052" lon="2.51141">
        <ele>605</ele>
        <time>2022-06-12T10:58:39.258Z</time>
      </trkpt>
      <trkpt lat="44.25051" lon="2.51142">
        <ele>605</ele>
        <time>2022-06-12T10:58:40.258Z</time>
      </trkpt>
      <trkpt lat="44.2505" lon="2.51143">
        <ele>605</ele>
        <time>2022-06-12T10:58:41.258Z</time>
      </trkpt>
      <trkpt lat="44.25049" lon="2.51144">
        <ele>604</ele>
        <time>2022-06-12T10:58:42.258Z</time>
      </trkpt>
      <trkpt lat="44.25049" lon="2.51145">
        <ele>604</ele>
        <time>2022-06-12T10:58:43.258Z</time>
      </trkpt>
      <trkpt lat="44.25048" lon="2.51146">
        <ele>604</ele>
        <time>2022-06-12T10:58:44.258Z</time>
      </trkpt>
      <trkpt lat="44.25047" lon="2.51146">
        <ele>604</ele>
        <time>2022-06-12T10:58:45.258Z</time>
      </trkpt>
      <trkpt lat="44.25046" lon="2.51147">
        <ele>604</ele>
        <time>2022-06-12T10:58:46.258Z</time>
      </trkpt>
      <trkpt lat="44.25045" lon="2.51148">
        <ele>604</ele>
        <time>2022-06-12T10:58:47.258Z</time>
      </trkpt>
      <trkpt lat="44.25044" lon="2.51149">
        <ele>604</ele>
        <time>2022-06-12T10:58:48.258Z</time>
      </trkpt>
      <trkpt lat="44.25043" lon="2.5115">
        <ele>604</ele>
        <time>2022-06-12T10:58:49.258Z</time>
      </trkpt>
      <trkpt lat="44.25042" lon="2.51151">
        <ele>604</ele>
        <time>2022-06-12T10:58:50.258Z</time>
      </trkpt>
      <trkpt lat="44.25041" lon="2.51152">
        <ele>604</ele>
        <time>2022-06-12T10:58:51.258Z</time>
      </trkpt>
      <trkpt lat="44.2504" lon="2.51153">
        <ele>604</ele>
        <time>2022-06-12T10:58:52.258Z</time>
      </trkpt>
      <trkpt lat="44.2504" lon="2.51154">
        <ele>604</ele>
        <time>2022-06-12T10:58:53.258Z</time>
      </trkpt>
      <trkpt lat="44.25039" lon="2.51154">
        <ele>604</ele>
        <time>2022-06-12T10:58:54.258Z</time>
      </trkpt>
      <trkpt lat="44.25038" lon="2.51155">
        <ele>604</ele>
        <time>2022-06-12T10:58:55.258Z</time>
      </trkpt>
      <trkpt lat="44.25037" lon="2.51156">
        <ele>604</ele>
        <time>2022-06-12T10:58:56.258Z</time>
      </trkpt>
      <trkpt lat="44.25036" lon="2.51156">
        <ele>604</ele>
        <time>2022-06-12T10:58:57.258Z</time>
      </trkpt>
      <trkpt lat="44.25035" lon="2.51157">
        <ele>604</ele>
        <time>2022-06-12T10:58:58.258Z</time>
      </trkpt>
      <trkpt lat="44.25034" lon="2.51158">
        <ele>604</ele>
        <time>2022-06-12T10:58:59.258Z</time>
      </trkpt>
      <trkpt lat="44.25033" lon="2.51158">
        <ele>604</ele>
        <time>2022-06-12T10:59:00.258Z</time>
      </trkpt>
      <trkpt lat="44.25033" lon="2.51159">
        <ele>603</ele>
        <time>2022-06-12T10:59:01.258Z</time>
      </trkpt>
      <trkpt lat="44.25032" lon="2.5116">
        <ele>603</ele>
        <time>2022-06-12T10:59:02.258Z</time>
      </trkpt>
      <trkpt lat="44.25031" lon="2.51161">
        <ele>603</ele>
        <time>2022-06-12T10:59:03.258Z</time>
      </trkpt>
      <trkpt lat="44.2503" lon="2.51161">
        <ele>603</ele>
        <time>2022-06-12T10:59:04.258Z</time>
      </trkpt>
      <trkpt lat="44.25029" lon="2.51162">
        <ele>603</ele>
        <time>2022-06-12T10:59:05.258Z</time>
      </trkpt>
      <trkpt lat="44.25028" lon="2.51163">
        <ele>603</ele>
        <time>2022-06-12T10:59:06.258Z</time>
      </trkpt>
      <trkpt lat="44.25027" lon="2.51163">
        <ele>603</ele>
        <time>2022-06-12T10:59:07.258Z</time>
      </trkpt>
      <trkpt lat="44.25026" lon="2.51164">
        <ele>603</ele>
        <time>2022-06-12T10:59:08.258Z</time>
      </trkpt>
      <trkpt lat="44.25025" lon="2.51164">
        <ele>603</ele>
        <time>2022-06-12T10:59:09.258Z</time>
      </trkpt>
      <trkpt lat="44.25024" lon="2.51165">
        <ele>603</ele>
        <time>2022-06-12T10:59:10.258Z</time>
      </trkpt>
      <trkpt lat="44.25023" lon="2.51166">
        <ele>603</ele>
        <time>2022-06-12T10:59:11.258Z</time>
      </trkpt>
      <trkpt lat="44.25022" lon="2.51167">
        <ele>603</ele>
        <time>2022-06-12T10:59:12.258Z</time>
      </trkpt>
      <trkpt lat="44.25022" lon="2.51167">
        <ele>603</ele>
        <time>2022-06-12T10:59:13.258Z</time>
      </trkpt>
      <trkpt lat="44.25021" lon="2.51168">
        <ele>603</ele>
        <time>2022-06-12T10:59:14.258Z</time>
      </trkpt>
      <trkpt lat="44.2502" lon="2.51169">
        <ele>603</ele>
        <time>2022-06-12T10:59:15.258Z</time>
      </trkpt>
      <trkpt lat="44.25019" lon="2.51169">
        <ele>603</ele>
        <time>2022-06-12T10:59:16.258Z</time>
      </trkpt>
      <trkpt lat="44.25018" lon="2.5117">
        <ele>603</ele>
        <time>2022-06-12T10:59:17.258Z</time>
      </trkpt>
      <trkpt lat="44.25017" lon="2.51171">
        <ele>603</ele>
        <time>2022-06-12T10:59:18.258Z</time>
      </trkpt>
      <trkpt lat="44.25017" lon="2.51171">
        <ele>603</ele>
        <time>2022-06-12T10:59:19.258Z</time>
      </trkpt>
      <trkpt lat="44.25016" lon="2.51172">
        <ele>603</ele>
        <time>2022-06-12T10:59:20.258Z</time>
      </trkpt>
      <trkpt lat="44.25015" lon="2.51172">
        <ele>602</ele>
        <time>2022-06-12T10:59:21.258Z</time>
      </trkpt>
      <trkpt lat="44.25014" lon="2.51173">
        <ele>602</ele>
        <time>2022-06-12T10:59:22.258Z</time>
      </trkpt>
      <trkpt lat="44.25013" lon="2.51174">
        <ele>602</ele>
        <time>2022-06-12T10:59:23.258Z</time>
      </trkpt>
      <trkpt lat="44.25012" lon="2.51174">
        <ele>602</ele>
        <time>2022-06-12T10:59:24.258Z</time>
      </trkpt>
      <trkpt lat="44.25012" lon="2.51174">
        <ele>602</ele>
        <time>2022-06-12T10:59:25.258Z</time>
      </trkpt>
      <trkpt lat="44.25011" lon="2.51175">
        <ele>602</ele>
        <time>2022-06-12T10:59:26.258Z</time>
      </trkpt>
      <trkpt lat="44.2501" lon="2.51176">
        <ele>602</ele>
        <time>2022-06-12T10:59:27.258Z</time>
      </trkpt>
      <trkpt lat="44.25009" lon="2.51176">
        <ele>602</ele>
        <time>2022-06-12T10:59:28.258Z</time>
      </trkpt>
      <trkpt lat="44.25009" lon="2.51176">
        <ele>602</ele>
        <time>2022-06-12T10:59:29.258Z</time>
      </trkpt>
      <trkpt lat="44.25008" lon="2.51176">
        <ele>602</ele>
        <time>2022-06-12T10:59:30.258Z</time>
      </trkpt>
      <trkpt lat="44.25008" lon="2.51177">
        <ele>602</ele>
        <time>2022-06-12T10:59:31.258Z</time>
      </trkpt>
      <trkpt lat="44.25007" lon="2.51178">
        <ele>602</ele>
        <time>2022-06-12T10:59:32.258Z</time>
      </trkpt>
      <trkpt lat="44.25006" lon="2.51178">
        <ele>602</ele>
        <time>2022-06-12T10:59:33.258Z</time>
      </trkpt>
      <trkpt lat="44.25005" lon="2.51178">
        <ele>602</ele>
        <time>2022-06-12T10:59:34.258Z</time>
      </trkpt>
      <trkpt lat="44.25004" lon="2.51179">
        <ele>602</ele>
        <time>2022-06-12T10:59:35.258Z</time>
      </trkpt>
      <trkpt lat="44.25003" lon="2.51179">
        <ele>601</ele>
        <time>2022-06-12T10:59:36.258Z</time>
      </trkpt>
      <trkpt lat="44.25002" lon="2.5118">
        <ele>601</ele>
        <time>2022-06-12T10:59:37.258Z</time>
      </trkpt>
      <trkpt lat="44.25002" lon="2.5118">
        <ele>601</ele>
        <time>2022-06-12T10:59:38.258Z</time>
      </trkpt>
      <trkpt lat="44.25" lon="2.51181">
        <ele>601</ele>
        <time>2022-06-12T10:59:39.258Z</time>
      </trkpt>
      <trkpt lat="44.24999" lon="2.51181">
        <ele>601</ele>
        <time>2022-06-12T10:59:40.258Z</time>
      </trkpt>
      <trkpt lat="44.24999" lon="2.51181">
        <ele>601</ele>
        <time>2022-06-12T10:59:41.258Z</time>
      </trkpt>
      <trkpt lat="44.24998" lon="2.51181">
        <ele>601</ele>
        <time>2022-06-12T10:59:42.258Z</time>
      </trkpt>
      <trkpt lat="44.24998" lon="2.51182">
        <ele>601</ele>
        <time>2022-06-12T10:59:43.258Z</time>
      </trkpt>
      <trkpt lat="44.24997" lon="2.51182">
        <ele>601</ele>
        <time>2022-06-12T10:59:44.258Z</time>
      </trkpt>
      <trkpt lat="44.24996" lon="2.51182">
        <ele>601</ele>
        <time>2022-06-12T10:59:45.258Z</time>
      </trkpt>
      <trkpt lat="44.24995" lon="2.51182">
        <ele>601</ele>
        <time>2022-06-12T10:59:46.258Z</time>
      </trkpt>
      <trkpt lat="44.24993" lon="2.51181">
        <ele>601</ele>
        <time>2022-06-12T10:59:47.258Z</time>
      </trkpt>
      <trkpt lat="44.24992" lon="2.51181">
        <ele>601</ele>
        <time>2022-06-12T10:59:48.258Z</time>
      </trkpt>
      <trkpt lat="44.24991" lon="2.51181">
        <ele>601</ele>
        <time>2022-06-12T10:59:49.258Z</time>
      </trkpt>
      <trkpt lat="44.2499" lon="2.51181">
        <ele>601</ele>
        <time>2022-06-12T10:59:50.258Z</time>
      </trkpt>
      <trkpt lat="44.24989" lon="2.51181">
        <ele>601</ele>
        <time>2022-06-12T10:59:51.258Z</time>
      </trkpt>
      <trkpt lat="44.24988" lon="2.51181">
        <ele>601</ele>
        <time>2022-06-12T10:59:52.258Z</time>
      </trkpt>
      <trkpt lat="44.24986" lon="2.51182">
        <ele>601</ele>
        <time>2022-06-12T10:59:53.258Z</time>
      </trkpt>
      <trkpt lat="44.24985" lon="2.51182">
        <ele>601</ele>
        <time>2022-06-12T10:59:54.258Z</time>
      </trkpt>
      <trkpt lat="44.24983" lon="2.51183">
        <ele>601</ele>
        <time>2022-06-12T10:59:55.258Z</time>
      </trkpt>
      <trkpt lat="44.24982" lon="2.51183">
        <ele>601</ele>
        <time>2022-06-12T10:59:56.258Z</time>
      </trkpt>
      <trkpt lat="44.24981" lon="2.51183">
        <ele>601</ele>
        <time>2022-06-12T10:59:57.258Z</time>
      </trkpt>
      <trkpt lat="44.2498" lon="2.51182">
        <ele>601</ele>
        <time>2022-06-12T10:59:58.258Z</time>
      </trkpt>
      <trkpt lat="44.24979" lon="2.51182">
        <ele>601</ele>
        <time>2022-06-12T10:59:59.258Z</time>
      </trkpt>
      <trkpt lat="44.24978" lon="2.51182">
        <ele>601</ele>
        <time>2022-06-12T11:00:00.258Z</time>
      </trkpt>
      <trkpt lat="44.24977" lon="2.51183">
        <ele>601</ele>
        <time>2022-06-12T11:00:01.258Z</time>
      </trkpt>
      <trkpt lat="44.24976" lon="2.51183">
        <ele>601</ele>
        <time>2022-06-12T11:00:02.258Z</time>
      </trkpt>
      <trkpt lat="44.24975" lon="2.51183">
        <ele>601</ele>
        <time>2022-06-12T11:00:03.258Z</time>
      </trkpt>
      <trkpt lat="44.24974" lon="2.51184">
        <ele>601</ele>
        <time>2022-06-12T11:00:04.258Z</time>
      </trkpt>
      <trkpt lat="44.24973" lon="2.51184">
        <ele>601</ele>
        <time>2022-06-12T11:00:05.258Z</time>
      </trkpt>
      <trkpt lat="44.24972" lon="2.51184">
        <ele>601</ele>
        <time>2022-06-12T11:00:06.258Z</time>
      </trkpt>
      <trkpt lat="44.24971" lon="2.51184">
        <ele>601</ele>
        <time>2022-06-12T11:00:07.258Z</time>
      </trkpt>
      <trkpt lat="44.2497" lon="2.51184">
        <ele>601</ele>
        <time>2022-06-12T11:00:08.258Z</time>
      </trkpt>
      <trkpt lat="44.24969" lon="2.51185">
        <ele>601</ele>
        <time>2022-06-12T11:00:09.258Z</time>
      </trkpt>
      <trkpt lat="44.24968" lon="2.51186">
        <ele>601</ele>
        <time>2022-06-12T11:00:10.258Z</time>
      </trkpt>
      <trkpt lat="44.24967" lon="2.51186">
        <ele>600</ele>
        <time>2022-06-12T11:00:11.258Z</time>
      </trkpt>
      <trkpt lat="44.24966" lon="2.51187">
        <ele>600</ele>
        <time>2022-06-12T11:00:12.258Z</time>
      </trkpt>
      <trkpt lat="44.24965" lon="2.51187">
        <ele>600</ele>
        <time>2022-06-12T11:00:13.258Z</time>
      </trkpt>
      <trkpt lat="44.24965" lon="2.51187">
        <ele>600</ele>
        <time>2022-06-12T11:00:14.258Z</time>
      </trkpt>
      <trkpt lat="44.24965" lon="2.51188">
        <ele>600</ele>
        <time>2022-06-12T11:00:15.258Z</time>
      </trkpt>
      <trkpt lat="44.24964" lon="2.51189">
        <ele>600</ele>
        <time>2022-06-12T11:00:16.258Z</time>
      </trkpt>
      <trkpt lat="44.24964" lon="2.5119">
        <ele>600</ele>
        <time>2022-06-12T11:00:17.258Z</time>
      </trkpt>
      <trkpt lat="44.24963" lon="2.51191">
        <ele>600</ele>
        <time>2022-06-12T11:00:18.258Z</time>
      </trkpt>
      <trkpt lat="44.24962" lon="2.51192">
        <ele>600</ele>
        <time>2022-06-12T11:00:19.258Z</time>
      </trkpt>
      <trkpt lat="44.2496" lon="2.51193">
        <ele>600</ele>
        <time>2022-06-12T11:00:20.258Z</time>
      </trkpt>
      <trkpt lat="44.24959" lon="2.51194">
        <ele>599</ele>
        <time>2022-06-12T11:00:21.258Z</time>
      </trkpt>
      <trkpt lat="44.24958" lon="2.51194">
        <ele>599</ele>
        <time>2022-06-12T11:00:22.258Z</time>
      </trkpt>
      <trkpt lat="44.24957" lon="2.51195">
        <ele>599</ele>
        <time>2022-06-12T11:00:23.258Z</time>
      </trkpt>
      <trkpt lat="44.24956" lon="2.51195">
        <ele>599</ele>
        <time>2022-06-12T11:00:24.258Z</time>
      </trkpt>
      <trkpt lat="44.24955" lon="2.51196">
        <ele>599</ele>
        <time>2022-06-12T11:00:25.258Z</time>
      </trkpt>
      <trkpt lat="44.24954" lon="2.51197">
        <ele>599</ele>
        <time>2022-06-12T11:00:26.258Z</time>
      </trkpt>
      <trkpt lat="44.24952" lon="2.51198">
        <ele>599</ele>
        <time>2022-06-12T11:00:27.258Z</time>
      </trkpt>
      <trkpt lat="44.24951" lon="2.51199">
        <ele>599</ele>
        <time>2022-06-12T11:00:28.258Z</time>
      </trkpt>
      <trkpt lat="44.2495" lon="2.512">
        <ele>599</ele>
        <time>2022-06-12T11:00:29.258Z</time>
      </trkpt>
      <trkpt lat="44.24949" lon="2.512">
        <ele>598</ele>
        <time>2022-06-12T11:00:30.258Z</time>
      </trkpt>
      <trkpt lat="44.24949" lon="2.51201">
        <ele>598</ele>
        <time>2022-06-12T11:00:31.258Z</time>
      </trkpt>
      <trkpt lat="44.24948" lon="2.51202">
        <ele>598</ele>
        <time>2022-06-12T11:00:32.258Z</time>
      </trkpt>
      <trkpt lat="44.24947" lon="2.51203">
        <ele>598</ele>
        <time>2022-06-12T11:00:33.258Z</time>
      </trkpt>
      <trkpt lat="44.24945" lon="2.51204">
        <ele>598</ele>
        <time>2022-06-12T11:00:34.258Z</time>
      </trkpt>
      <trkpt lat="44.24945" lon="2.51204">
        <ele>598</ele>
        <time>2022-06-12T11:00:35.258Z</time>
      </trkpt>
      <trkpt lat="44.24943" lon="2.51205">
        <ele>598</ele>
        <time>2022-06-12T11:00:36.258Z</time>
      </trkpt>
      <trkpt lat="44.24942" lon="2.51206">
        <ele>598</ele>
        <time>2022-06-12T11:00:37.258Z</time>
      </trkpt>
      <trkpt lat="44.24941" lon="2.51206">
        <ele>598</ele>
        <time>2022-06-12T11:00:38.258Z</time>
      </trkpt>
      <trkpt lat="44.2494" lon="2.51207">
        <ele>598</ele>
        <time>2022-06-12T11:00:39.258Z</time>
      </trkpt>
      <trkpt lat="44.24939" lon="2.51207">
        <ele>598</ele>
        <time>2022-06-12T11:00:40.258Z</time>
      </trkpt>
      <trkpt lat="44.24938" lon="2.51208">
        <ele>597</ele>
        <time>2022-06-12T11:00:41.258Z</time>
      </trkpt>
      <trkpt lat="44.24937" lon="2.51208">
        <ele>597</ele>
        <time>2022-06-12T11:00:42.258Z</time>
      </trkpt>
      <trkpt lat="44.24936" lon="2.51209">
        <ele>597</ele>
        <time>2022-06-12T11:00:43.258Z</time>
      </trkpt>
      <trkpt lat="44.24935" lon="2.51209">
        <ele>597</ele>
        <time>2022-06-12T11:00:44.258Z</time>
      </trkpt>
      <trkpt lat="44.24934" lon="2.5121">
        <ele>597</ele>
        <time>2022-06-12T11:00:45.258Z</time>
      </trkpt>
      <trkpt lat="44.24933" lon="2.51211">
        <ele>597</ele>
        <time>2022-06-12T11:00:46.258Z</time>
      </trkpt>
      <trkpt lat="44.24932" lon="2.51212">
        <ele>597</ele>
        <time>2022-06-12T11:00:47.258Z</time>
      </trkpt>
      <trkpt lat="44.24931" lon="2.51213">
        <ele>597</ele>
        <time>2022-06-12T11:00:48.258Z</time>
      </trkpt>
      <trkpt lat="44.2493" lon="2.51214">
        <ele>596</ele>
        <time>2022-06-12T11:00:49.258Z</time>
      </trkpt>
      <trkpt lat="44.2493" lon="2.51215">
        <ele>596</ele>
        <time>2022-06-12T11:00:50.258Z</time>
      </trkpt>
      <trkpt lat="44.24929" lon="2.51216">
        <ele>596</ele>
        <time>2022-06-12T11:00:51.258Z</time>
      </trkpt>
      <trkpt lat="44.24928" lon="2.51218">
        <ele>596</ele>
        <time>2022-06-12T11:00:52.258Z</time>
      </trkpt>
      <trkpt lat="44.24927" lon="2.51218">
        <ele>596</ele>
        <time>2022-06-12T11:00:53.258Z</time>
      </trkpt>
      <trkpt lat="44.24926" lon="2.51219">
        <ele>596</ele>
        <time>2022-06-12T11:00:54.258Z</time>
      </trkpt>
      <trkpt lat="44.24926" lon="2.51221">
        <ele>596</ele>
        <time>2022-06-12T11:00:55.258Z</time>
      </trkpt>
      <trkpt lat="44.24925" lon="2.51222">
        <ele>595</ele>
        <time>2022-06-12T11:00:56.258Z</time>
      </trkpt>
      <trkpt lat="44.24925" lon="2.51224">
        <ele>595</ele>
        <time>2022-06-12T11:00:57.258Z</time>
      </trkpt>
      <trkpt lat="44.24925" lon="2.51225">
        <ele>595</ele>
        <time>2022-06-12T11:00:58.258Z</time>
      </trkpt>
      <trkpt lat="44.24925" lon="2.51227">
        <ele>595</ele>
        <time>2022-06-12T11:00:59.258Z</time>
      </trkpt>
      <trkpt lat="44.24924" lon="2.51228">
        <ele>596</ele>
        <time>2022-06-12T11:01:00.258Z</time>
      </trkpt>
      <trkpt lat="44.24924" lon="2.51229">
        <ele>596</ele>
        <time>2022-06-12T11:01:01.258Z</time>
      </trkpt>
      <trkpt lat="44.24924" lon="2.5123">
        <ele>596</ele>
        <time>2022-06-12T11:01:02.258Z</time>
      </trkpt>
      <trkpt lat="44.24924" lon="2.51232">
        <ele>596</ele>
        <time>2022-06-12T11:01:03.258Z</time>
      </trkpt>
      <trkpt lat="44.24924" lon="2.51233">
        <ele>595</ele>
        <time>2022-06-12T11:01:04.258Z</time>
      </trkpt>
      <trkpt lat="44.24924" lon="2.51234">
        <ele>595</ele>
        <time>2022-06-12T11:01:05.258Z</time>
      </trkpt>
      <trkpt lat="44.24924" lon="2.51235">
        <ele>595</ele>
        <time>2022-06-12T11:01:06.258Z</time>
      </trkpt>
      <trkpt lat="44.24924" lon="2.51237">
        <ele>595</ele>
        <time>2022-06-12T11:01:07.258Z</time>
      </trkpt>
      <trkpt lat="44.24924" lon="2.51238">
        <ele>595</ele>
        <time>2022-06-12T11:01:08.258Z</time>
      </trkpt>
      <trkpt lat="44.24924" lon="2.51239">
        <ele>596</ele>
        <time>2022-06-12T11:01:09.258Z</time>
      </trkpt>
      <trkpt lat="44.24924" lon="2.51241">
        <ele>596</ele>
        <time>2022-06-12T11:01:10.258Z</time>
      </trkpt>
      <trkpt lat="44.24924" lon="2.51242">
        <ele>596</ele>
        <time>2022-06-12T11:01:11.258Z</time>
      </trkpt>
      <trkpt lat="44.24924" lon="2.51243">
        <ele>596</ele>
        <time>2022-06-12T11:01:12.258Z</time>
      </trkpt>
      <trkpt lat="44.24925" lon="2.51245">
        <ele>596</ele>
        <time>2022-06-12T11:01:13.258Z</time>
      </trkpt>
      <trkpt lat="44.24925" lon="2.51246">
        <ele>596</ele>
        <time>2022-06-12T11:01:14.258Z</time>
      </trkpt>
      <trkpt lat="44.24926" lon="2.51247">
        <ele>596</ele>
        <time>2022-06-12T11:01:15.258Z</time>
      </trkpt>
      <trkpt lat="44.24926" lon="2.51249">
        <ele>596</ele>
        <time>2022-06-12T11:01:16.258Z</time>
      </trkpt>
      <trkpt lat="44.24927" lon="2.5125">
        <ele>596</ele>
        <time>2022-06-12T11:01:17.258Z</time>
      </trkpt>
      <trkpt lat="44.24927" lon="2.51251">
        <ele>596</ele>
        <time>2022-06-12T11:01:18.258Z</time>
      </trkpt>
      <trkpt lat="44.24928" lon="2.51252">
        <ele>596</ele>
        <time>2022-06-12T11:01:19.258Z</time>
      </trkpt>
      <trkpt lat="44.24929" lon="2.51253">
        <ele>596</ele>
        <time>2022-06-12T11:01:20.258Z</time>
      </trkpt>
      <trkpt lat="44.24929" lon="2.51254">
        <ele>596</ele>
        <time>2022-06-12T11:01:21.258Z</time>
      </trkpt>
      <trkpt lat="44.2493" lon="2.51255">
        <ele>596</ele>
        <time>2022-06-12T11:01:22.258Z</time>
      </trkpt>
      <trkpt lat="44.24931" lon="2.51256">
        <ele>596</ele>
        <time>2022-06-12T11:01:23.258Z</time>
      </trkpt>
      <trkpt lat="44.24931" lon="2.51257">
        <ele>596</ele>
        <time>2022-06-12T11:01:24.258Z</time>
      </trkpt>
      <trkpt lat="44.24931" lon="2.51258">
        <ele>596</ele>
        <time>2022-06-12T11:01:25.258Z</time>
      </trkpt>
      <trkpt lat="44.24931" lon="2.51259">
        <ele>596</ele>
        <time>2022-06-12T11:01:26.258Z</time>
      </trkpt>
      <trkpt lat="44.24932" lon="2.5126">
        <ele>596</ele>
        <time>2022-06-12T11:01:27.258Z</time>
      </trkpt>
      <trkpt lat="44.24932" lon="2.51261">
        <ele>596</ele>
        <time>2022-06-12T11:01:28.258Z</time>
      </trkpt>
      <trkpt lat="44.24932" lon="2.51261">
        <ele>596</ele>
        <time>2022-06-12T11:01:29.258Z</time>
      </trkpt>
      <trkpt lat="44.24932" lon="2.51261">
        <ele>596</ele>
        <time>2022-06-12T11:01:30.258Z</time>
      </trkpt>
      <trkpt lat="44.24932" lon="2.51263">
        <ele>596</ele>
        <time>2022-06-12T11:01:31.258Z</time>
      </trkpt>
      <trkpt lat="44.24932" lon="2.51264">
        <ele>597</ele>
        <time>2022-06-12T11:01:32.258Z</time>
      </trkpt>
      <trkpt lat="44.24931" lon="2.51265">
        <ele>597</ele>
        <time>2022-06-12T11:01:33.258Z</time>
      </trkpt>
      <trkpt lat="44.24931" lon="2.51266">
        <ele>597</ele>
        <time>2022-06-12T11:01:34.258Z</time>
      </trkpt>
      <trkpt lat="44.2493" lon="2.51267">
        <ele>597</ele>
        <time>2022-06-12T11:01:35.258Z</time>
      </trkpt>
      <trkpt lat="44.2493" lon="2.51267">
        <ele>597</ele>
        <time>2022-06-12T11:01:36.258Z</time>
      </trkpt>
      <trkpt lat="44.24929" lon="2.51268">
        <ele>597</ele>
        <time>2022-06-12T11:01:37.258Z</time>
      </trkpt>
      <trkpt lat="44.24928" lon="2.51269">
        <ele>597</ele>
        <time>2022-06-12T11:01:38.258Z</time>
      </trkpt>
      <trkpt lat="44.24928" lon="2.51271">
        <ele>598</ele>
        <time>2022-06-12T11:01:39.258Z</time>
      </trkpt>
      <trkpt lat="44.24928" lon="2.51272">
        <ele>598</ele>
        <time>2022-06-12T11:01:40.258Z</time>
      </trkpt>
      <trkpt lat="44.24928" lon="2.51273">
        <ele>598</ele>
        <time>2022-06-12T11:01:41.258Z</time>
      </trkpt>
      <trkpt lat="44.24927" lon="2.51275">
        <ele>598</ele>
        <time>2022-06-12T11:01:42.258Z</time>
      </trkpt>
      <trkpt lat="44.24927" lon="2.51276">
        <ele>598</ele>
        <time>2022-06-12T11:01:43.258Z</time>
      </trkpt>
      <trkpt lat="44.24927" lon="2.51278">
        <ele>598</ele>
        <time>2022-06-12T11:01:44.258Z</time>
      </trkpt>
      <trkpt lat="44.24927" lon="2.51279">
        <ele>598</ele>
        <time>2022-06-12T11:01:45.258Z</time>
      </trkpt>
      <trkpt lat="44.24928" lon="2.5128">
        <ele>598</ele>
        <time>2022-06-12T11:01:46.258Z</time>
      </trkpt>
      <trkpt lat="44.24928" lon="2.51281">
        <ele>598</ele>
        <time>2022-06-12T11:01:47.258Z</time>
      </trkpt>
      <trkpt lat="44.24927" lon="2.51282">
        <ele>598</ele>
        <time>2022-06-12T11:01:48.258Z</time>
      </trkpt>
      <trkpt lat="44.24927" lon="2.51283">
        <ele>598</ele>
        <time>2022-06-12T11:01:49.258Z</time>
      </trkpt>
      <trkpt lat="44.24927" lon="2.51284">
        <ele>598</ele>
        <time>2022-06-12T11:01:50.258Z</time>
      </trkpt>
      <trkpt lat="44.24927" lon="2.51284">
        <ele>598</ele>
        <time>2022-06-12T11:01:51.258Z</time>
      </trkpt>
      <trkpt lat="44.24927" lon="2.51284">
        <ele>598</ele>
        <time>2022-06-12T11:01:52.258Z</time>
      </trkpt>
      <trkpt lat="44.24927" lon="2.51284">
        <ele>598</ele>
        <time>2022-06-12T11:01:53.258Z</time>
      </trkpt>
      <trkpt lat="44.24927" lon="2.51285">
        <ele>598</ele>
        <time>2022-06-12T11:01:54.258Z</time>
      </trkpt>
    </trkseg>
  </trk>
</gpx>